<?xml version="1.0" encoding="UTF-8" standalone="no" ?>
<gpx xmlns="http://www.topografix.com/GPX/1/1" xmlns:xsi="http://www.w3.org/2001/XMLSchema-instance" xsi:schemaLocation="http://www.topografix.com/GPX/1/1 http://www.topografix.com/GPX/1/1/gpx.xsd" version="1.1" creator="VisuGPX - https://www.visugpx.com">
  <metadata>
    <name>Carcassonne - Montségur - Foix</name>
    <desc><![CDATA[Une option sympa... Mais le sommet est peut être loin pour le samedi soir...

]]></desc>
  </metadata>
  <trk>
    <name><![CDATA[OR-6296136--Carcassonne:alternative Carcassonne Foix  - Gite]]></name>
    <trkseg>
      <trkpt lat="43.21775" lon="2.35177">
        <ele>109</ele>
        <time>2016-07-04T18:40:21Z</time>
      </trkpt>
      <trkpt lat="43.21774" lon="2.35143">
        <ele>109</ele>
        <time>2016-07-04T18:42:21Z</time>
      </trkpt>
      <trkpt lat="43.21772" lon="2.35088">
        <ele>110</ele>
        <time>2016-07-04T18:44:21Z</time>
      </trkpt>
      <trkpt lat="43.21771" lon="2.35032">
        <ele>109</ele>
        <time>2016-07-04T18:46:21Z</time>
      </trkpt>
      <trkpt lat="43.21769" lon="2.34995">
        <ele>109</ele>
        <time>2016-07-04T18:48:21Z</time>
      </trkpt>
      <trkpt lat="43.21768" lon="2.34962">
        <ele>110</ele>
        <time>2016-07-04T18:50:21Z</time>
      </trkpt>
      <trkpt lat="43.21766" lon="2.34936">
        <ele>110</ele>
        <time>2016-07-04T18:52:21Z</time>
      </trkpt>
      <trkpt lat="43.21764" lon="2.3492">
        <ele>110</ele>
        <time>2016-07-04T18:54:21Z</time>
      </trkpt>
      <trkpt lat="43.21756" lon="2.34898">
        <ele>110</ele>
        <time>2016-07-04T18:56:21Z</time>
      </trkpt>
      <trkpt lat="43.21749" lon="2.3488">
        <ele>110</ele>
        <time>2016-07-04T18:58:21Z</time>
      </trkpt>
      <trkpt lat="43.21747" lon="2.34876">
        <ele>110</ele>
        <time>2016-07-04T19:00:21Z</time>
      </trkpt>
      <trkpt lat="43.21743" lon="2.34867">
        <ele>110</ele>
        <time>2016-07-04T19:02:21Z</time>
      </trkpt>
      <trkpt lat="43.21737" lon="2.34855">
        <ele>111</ele>
        <time>2016-07-04T19:04:21Z</time>
      </trkpt>
      <trkpt lat="43.21728" lon="2.34842">
        <ele>111</ele>
        <time>2016-07-04T19:06:21Z</time>
      </trkpt>
      <trkpt lat="43.21717" lon="2.34829">
        <ele>112</ele>
        <time>2016-07-04T19:08:21Z</time>
      </trkpt>
      <trkpt lat="43.21703" lon="2.34815">
        <ele>113</ele>
        <time>2016-07-04T19:10:21Z</time>
      </trkpt>
      <trkpt lat="43.21689" lon="2.34803">
        <ele>114</ele>
        <time>2016-07-04T19:12:21Z</time>
      </trkpt>
      <trkpt lat="43.21676" lon="2.34795">
        <ele>114</ele>
        <time>2016-07-04T19:14:21Z</time>
      </trkpt>
      <trkpt lat="43.21676" lon="2.34795">
        <ele>114</ele>
        <time>2016-07-04T19:16:21Z</time>
      </trkpt>
      <trkpt lat="43.21576" lon="2.34726">
        <ele>116</ele>
        <time>2016-07-04T19:18:21Z</time>
      </trkpt>
      <trkpt lat="43.21561" lon="2.34719">
        <ele>116</ele>
        <time>2016-07-04T19:20:21Z</time>
      </trkpt>
      <trkpt lat="43.2151" lon="2.34682">
        <ele>118</ele>
        <time>2016-07-04T19:22:21Z</time>
      </trkpt>
      <trkpt lat="43.215" lon="2.34675">
        <ele>118</ele>
        <time>2016-07-04T19:24:21Z</time>
      </trkpt>
      <trkpt lat="43.21491" lon="2.34666">
        <ele>118</ele>
        <time>2016-07-04T19:26:21Z</time>
      </trkpt>
      <trkpt lat="43.21485" lon="2.34659">
        <ele>118</ele>
        <time>2016-07-04T19:28:21Z</time>
      </trkpt>
      <trkpt lat="43.21481" lon="2.34653">
        <ele>119</ele>
        <time>2016-07-04T19:30:21Z</time>
      </trkpt>
      <trkpt lat="43.21475" lon="2.34643">
        <ele>119</ele>
        <time>2016-07-04T19:32:21Z</time>
      </trkpt>
      <trkpt lat="43.2147" lon="2.34633">
        <ele>119</ele>
        <time>2016-07-04T19:34:21Z</time>
      </trkpt>
      <trkpt lat="43.21467" lon="2.34626">
        <ele>119</ele>
        <time>2016-07-04T19:36:21Z</time>
      </trkpt>
      <trkpt lat="43.21465" lon="2.34618">
        <ele>119</ele>
        <time>2016-07-04T19:38:21Z</time>
      </trkpt>
      <trkpt lat="43.21463" lon="2.34607">
        <ele>119</ele>
        <time>2016-07-04T19:40:21Z</time>
      </trkpt>
      <trkpt lat="43.21461" lon="2.34594">
        <ele>119</ele>
        <time>2016-07-04T19:42:21Z</time>
      </trkpt>
      <trkpt lat="43.2146" lon="2.34588">
        <ele>119</ele>
        <time>2016-07-04T19:44:21Z</time>
      </trkpt>
      <trkpt lat="43.21459" lon="2.34574">
        <ele>120</ele>
        <time>2016-07-04T19:46:21Z</time>
      </trkpt>
      <trkpt lat="43.21459" lon="2.34563">
        <ele>120</ele>
        <time>2016-07-04T19:48:21Z</time>
      </trkpt>
      <trkpt lat="43.21458" lon="2.34543">
        <ele>120</ele>
        <time>2016-07-04T19:50:21Z</time>
      </trkpt>
      <trkpt lat="43.21459" lon="2.34511">
        <ele>120</ele>
        <time>2016-07-04T19:52:21Z</time>
      </trkpt>
      <trkpt lat="43.21459" lon="2.34511">
        <ele>120</ele>
        <time>2016-07-04T19:54:21Z</time>
      </trkpt>
      <trkpt lat="43.21454" lon="2.34511">
        <ele>120</ele>
        <time>2016-07-04T19:56:21Z</time>
      </trkpt>
      <trkpt lat="43.21434" lon="2.34511">
        <ele>120</ele>
        <time>2016-07-04T19:58:21Z</time>
      </trkpt>
      <trkpt lat="43.21415" lon="2.3451">
        <ele>120</ele>
        <time>2016-07-04T20:00:21Z</time>
      </trkpt>
      <trkpt lat="43.214" lon="2.3451">
        <ele>121</ele>
        <time>2016-07-04T20:02:21Z</time>
      </trkpt>
      <trkpt lat="43.21316" lon="2.34507">
        <ele>123</ele>
        <time>2016-07-04T20:04:21Z</time>
      </trkpt>
      <trkpt lat="43.2128" lon="2.34506">
        <ele>123</ele>
        <time>2016-07-04T20:06:21Z</time>
      </trkpt>
      <trkpt lat="43.21243" lon="2.34504">
        <ele>123</ele>
        <time>2016-07-04T20:08:21Z</time>
      </trkpt>
      <trkpt lat="43.21214" lon="2.34504">
        <ele>123</ele>
        <time>2016-07-04T20:10:21Z</time>
      </trkpt>
      <trkpt lat="43.21195" lon="2.34504">
        <ele>123</ele>
        <time>2016-07-04T20:12:21Z</time>
      </trkpt>
      <trkpt lat="43.21169" lon="2.34503">
        <ele>123</ele>
        <time>2016-07-04T20:14:21Z</time>
      </trkpt>
      <trkpt lat="43.21156" lon="2.34503">
        <ele>123</ele>
        <time>2016-07-04T20:16:21Z</time>
      </trkpt>
      <trkpt lat="43.21154" lon="2.34503">
        <ele>123</ele>
        <time>2016-07-04T20:18:21Z</time>
      </trkpt>
      <trkpt lat="43.21128" lon="2.34501">
        <ele>124</ele>
        <time>2016-07-04T20:20:21Z</time>
      </trkpt>
      <trkpt lat="43.21108" lon="2.345">
        <ele>124</ele>
        <time>2016-07-04T20:22:21Z</time>
      </trkpt>
      <trkpt lat="43.21059" lon="2.34498">
        <ele>125</ele>
        <time>2016-07-04T20:24:21Z</time>
      </trkpt>
      <trkpt lat="43.21059" lon="2.34498">
        <ele>125</ele>
        <time>2016-07-04T20:26:21Z</time>
      </trkpt>
      <trkpt lat="43.21071" lon="2.34428">
        <ele>124</ele>
        <time>2016-07-04T20:28:21Z</time>
      </trkpt>
      <trkpt lat="43.21072" lon="2.34426">
        <ele>124</ele>
        <time>2016-07-04T20:30:21Z</time>
      </trkpt>
      <trkpt lat="43.21075" lon="2.34404">
        <ele>124</ele>
        <time>2016-07-04T20:32:21Z</time>
      </trkpt>
      <trkpt lat="43.21078" lon="2.34383">
        <ele>123</ele>
        <time>2016-07-04T20:34:21Z</time>
      </trkpt>
      <trkpt lat="43.21079" lon="2.34368">
        <ele>123</ele>
        <time>2016-07-04T20:36:21Z</time>
      </trkpt>
      <trkpt lat="43.2108" lon="2.34352">
        <ele>122</ele>
        <time>2016-07-04T20:38:21Z</time>
      </trkpt>
      <trkpt lat="43.21081" lon="2.3432">
        <ele>122</ele>
        <time>2016-07-04T20:40:21Z</time>
      </trkpt>
      <trkpt lat="43.21082" lon="2.34284">
        <ele>121</ele>
        <time>2016-07-04T20:42:21Z</time>
      </trkpt>
      <trkpt lat="43.21085" lon="2.3423">
        <ele>120</ele>
        <time>2016-07-04T20:44:21Z</time>
      </trkpt>
      <trkpt lat="43.21086" lon="2.34213">
        <ele>119</ele>
        <time>2016-07-04T20:46:21Z</time>
      </trkpt>
      <trkpt lat="43.21086" lon="2.34189">
        <ele>119</ele>
        <time>2016-07-04T20:48:21Z</time>
      </trkpt>
      <trkpt lat="43.21086" lon="2.34138">
        <ele>118</ele>
        <time>2016-07-04T20:50:21Z</time>
      </trkpt>
      <trkpt lat="43.21086" lon="2.34138">
        <ele>118</ele>
        <time>2016-07-04T20:52:21Z</time>
      </trkpt>
      <trkpt lat="43.21086" lon="2.34129">
        <ele>118</ele>
        <time>2016-07-04T20:54:21Z</time>
      </trkpt>
      <trkpt lat="43.21085" lon="2.34119">
        <ele>117</ele>
        <time>2016-07-04T20:56:21Z</time>
      </trkpt>
      <trkpt lat="43.21083" lon="2.34112">
        <ele>117</ele>
        <time>2016-07-04T20:58:21Z</time>
      </trkpt>
      <trkpt lat="43.21081" lon="2.34105">
        <ele>117</ele>
        <time>2016-07-04T21:00:21Z</time>
      </trkpt>
      <trkpt lat="43.21077" lon="2.34095">
        <ele>117</ele>
        <time>2016-07-04T21:02:21Z</time>
      </trkpt>
      <trkpt lat="43.21075" lon="2.34091">
        <ele>117</ele>
        <time>2016-07-04T21:04:21Z</time>
      </trkpt>
      <trkpt lat="43.21062" lon="2.34067">
        <ele>116</ele>
        <time>2016-07-04T21:06:21Z</time>
      </trkpt>
      <trkpt lat="43.21056" lon="2.34058">
        <ele>116</ele>
        <time>2016-07-04T21:08:21Z</time>
      </trkpt>
      <trkpt lat="43.21047" lon="2.34043">
        <ele>116</ele>
        <time>2016-07-04T21:10:21Z</time>
      </trkpt>
      <trkpt lat="43.21031" lon="2.34018">
        <ele>115</ele>
        <time>2016-07-04T21:12:21Z</time>
      </trkpt>
      <trkpt lat="43.21018" lon="2.33998">
        <ele>115</ele>
        <time>2016-07-04T21:14:21Z</time>
      </trkpt>
      <trkpt lat="43.21013" lon="2.3399">
        <ele>114</ele>
        <time>2016-07-04T21:16:21Z</time>
      </trkpt>
      <trkpt lat="43.21008" lon="2.33982">
        <ele>114</ele>
        <time>2016-07-04T21:18:21Z</time>
      </trkpt>
      <trkpt lat="43.20988" lon="2.33952">
        <ele>114</ele>
        <time>2016-07-04T21:20:21Z</time>
      </trkpt>
      <trkpt lat="43.20973" lon="2.33929">
        <ele>113</ele>
        <time>2016-07-04T21:22:21Z</time>
      </trkpt>
      <trkpt lat="43.20966" lon="2.33918">
        <ele>113</ele>
        <time>2016-07-04T21:24:21Z</time>
      </trkpt>
      <trkpt lat="43.20944" lon="2.33884">
        <ele>112</ele>
        <time>2016-07-04T21:26:21Z</time>
      </trkpt>
      <trkpt lat="43.2091" lon="2.33832">
        <ele>111</ele>
        <time>2016-07-04T21:28:21Z</time>
      </trkpt>
      <trkpt lat="43.20909" lon="2.33831">
        <ele>111</ele>
        <time>2016-07-04T21:30:21Z</time>
      </trkpt>
      <trkpt lat="43.20908" lon="2.33826">
        <ele>111</ele>
        <time>2016-07-04T21:32:21Z</time>
      </trkpt>
      <trkpt lat="43.20907" lon="2.33825">
        <ele>111</ele>
        <time>2016-07-04T21:34:21Z</time>
      </trkpt>
      <trkpt lat="43.20906" lon="2.33823">
        <ele>111</ele>
        <time>2016-07-04T21:36:21Z</time>
      </trkpt>
      <trkpt lat="43.20898" lon="2.33814">
        <ele>111</ele>
        <time>2016-07-04T21:38:21Z</time>
      </trkpt>
      <trkpt lat="43.2089" lon="2.33803">
        <ele>111</ele>
        <time>2016-07-04T21:40:21Z</time>
      </trkpt>
      <trkpt lat="43.20883" lon="2.33794">
        <ele>111</ele>
        <time>2016-07-04T21:42:21Z</time>
      </trkpt>
      <trkpt lat="43.20868" lon="2.33774">
        <ele>111</ele>
        <time>2016-07-04T21:44:21Z</time>
      </trkpt>
      <trkpt lat="43.20865" lon="2.3377">
        <ele>111</ele>
        <time>2016-07-04T21:46:21Z</time>
      </trkpt>
      <trkpt lat="43.20846" lon="2.33745">
        <ele>111</ele>
        <time>2016-07-04T21:48:21Z</time>
      </trkpt>
      <trkpt lat="43.20831" lon="2.33727">
        <ele>111</ele>
        <time>2016-07-04T21:50:21Z</time>
      </trkpt>
      <trkpt lat="43.20793" lon="2.33677">
        <ele>111</ele>
        <time>2016-07-04T21:52:21Z</time>
      </trkpt>
      <trkpt lat="43.20764" lon="2.33636">
        <ele>110</ele>
        <time>2016-07-04T21:54:21Z</time>
      </trkpt>
      <trkpt lat="43.2074" lon="2.33604">
        <ele>110</ele>
        <time>2016-07-04T21:56:21Z</time>
      </trkpt>
      <trkpt lat="43.2074" lon="2.33603">
        <ele>110</ele>
        <time>2016-07-04T21:58:21Z</time>
      </trkpt>
      <trkpt lat="43.20724" lon="2.33583">
        <ele>110</ele>
        <time>2016-07-04T22:00:21Z</time>
      </trkpt>
      <trkpt lat="43.20721" lon="2.33579">
        <ele>110</ele>
        <time>2016-07-04T22:02:21Z</time>
      </trkpt>
      <trkpt lat="43.20714" lon="2.33572">
        <ele>110</ele>
        <time>2016-07-04T22:04:21Z</time>
      </trkpt>
      <trkpt lat="43.20699" lon="2.33552">
        <ele>110</ele>
        <time>2016-07-04T22:06:21Z</time>
      </trkpt>
      <trkpt lat="43.20685" lon="2.33531">
        <ele>110</ele>
        <time>2016-07-04T22:08:21Z</time>
      </trkpt>
      <trkpt lat="43.20675" lon="2.33517">
        <ele>111</ele>
        <time>2016-07-04T22:10:21Z</time>
      </trkpt>
      <trkpt lat="43.20665" lon="2.33505">
        <ele>111</ele>
        <time>2016-07-04T22:12:21Z</time>
      </trkpt>
      <trkpt lat="43.20651" lon="2.33487">
        <ele>111</ele>
        <time>2016-07-04T22:14:21Z</time>
      </trkpt>
      <trkpt lat="43.20641" lon="2.33474">
        <ele>111</ele>
        <time>2016-07-04T22:16:21Z</time>
      </trkpt>
      <trkpt lat="43.20628" lon="2.3346">
        <ele>111</ele>
        <time>2016-07-04T22:18:21Z</time>
      </trkpt>
      <trkpt lat="43.20596" lon="2.33426">
        <ele>113</ele>
        <time>2016-07-04T22:20:21Z</time>
      </trkpt>
      <trkpt lat="43.20576" lon="2.33405">
        <ele>113</ele>
        <time>2016-07-04T22:22:21Z</time>
      </trkpt>
      <trkpt lat="43.20557" lon="2.33385">
        <ele>112</ele>
        <time>2016-07-04T22:24:21Z</time>
      </trkpt>
      <trkpt lat="43.20556" lon="2.33381">
        <ele>112</ele>
        <time>2016-07-04T22:26:21Z</time>
      </trkpt>
      <trkpt lat="43.20555" lon="2.3338">
        <ele>112</ele>
        <time>2016-07-04T22:28:21Z</time>
      </trkpt>
      <trkpt lat="43.20554" lon="2.33378">
        <ele>112</ele>
        <time>2016-07-04T22:30:21Z</time>
      </trkpt>
      <trkpt lat="43.20549" lon="2.33372">
        <ele>111</ele>
        <time>2016-07-04T22:32:21Z</time>
      </trkpt>
      <trkpt lat="43.20539" lon="2.33362">
        <ele>111</ele>
        <time>2016-07-04T22:34:21Z</time>
      </trkpt>
      <trkpt lat="43.20518" lon="2.33339">
        <ele>111</ele>
        <time>2016-07-04T22:36:21Z</time>
      </trkpt>
      <trkpt lat="43.20513" lon="2.33334">
        <ele>110</ele>
        <time>2016-07-04T22:38:21Z</time>
      </trkpt>
      <trkpt lat="43.20509" lon="2.33329">
        <ele>111</ele>
        <time>2016-07-04T22:40:21Z</time>
      </trkpt>
      <trkpt lat="43.20505" lon="2.33324">
        <ele>111</ele>
        <time>2016-07-04T22:42:21Z</time>
      </trkpt>
      <trkpt lat="43.20501" lon="2.33317">
        <ele>111</ele>
        <time>2016-07-04T22:44:21Z</time>
      </trkpt>
      <trkpt lat="43.20497" lon="2.33309">
        <ele>111</ele>
        <time>2016-07-04T22:46:21Z</time>
      </trkpt>
      <trkpt lat="43.20491" lon="2.33298">
        <ele>112</ele>
        <time>2016-07-04T22:48:21Z</time>
      </trkpt>
      <trkpt lat="43.20492" lon="2.33294">
        <ele>112</ele>
        <time>2016-07-04T22:50:21Z</time>
      </trkpt>
      <trkpt lat="43.20493" lon="2.33289">
        <ele>112</ele>
        <time>2016-07-04T22:52:21Z</time>
      </trkpt>
      <trkpt lat="43.20493" lon="2.33285">
        <ele>112</ele>
        <time>2016-07-04T22:54:21Z</time>
      </trkpt>
      <trkpt lat="43.20493" lon="2.3328">
        <ele>112</ele>
        <time>2016-07-04T22:56:21Z</time>
      </trkpt>
      <trkpt lat="43.20492" lon="2.33276">
        <ele>113</ele>
        <time>2016-07-04T22:58:21Z</time>
      </trkpt>
      <trkpt lat="43.20491" lon="2.33271">
        <ele>113</ele>
        <time>2016-07-04T23:00:21Z</time>
      </trkpt>
      <trkpt lat="43.2049" lon="2.33267">
        <ele>113</ele>
        <time>2016-07-04T23:02:21Z</time>
      </trkpt>
      <trkpt lat="43.20488" lon="2.33263">
        <ele>113</ele>
        <time>2016-07-04T23:04:21Z</time>
      </trkpt>
      <trkpt lat="43.20485" lon="2.33258">
        <ele>113</ele>
        <time>2016-07-04T23:06:21Z</time>
      </trkpt>
      <trkpt lat="43.20483" lon="2.33255">
        <ele>114</ele>
        <time>2016-07-04T23:08:21Z</time>
      </trkpt>
      <trkpt lat="43.2048" lon="2.33253">
        <ele>114</ele>
        <time>2016-07-04T23:10:21Z</time>
      </trkpt>
      <trkpt lat="43.20478" lon="2.33251">
        <ele>114</ele>
        <time>2016-07-04T23:12:21Z</time>
      </trkpt>
      <trkpt lat="43.20475" lon="2.33249">
        <ele>114</ele>
        <time>2016-07-04T23:14:21Z</time>
      </trkpt>
      <trkpt lat="43.20472" lon="2.33248">
        <ele>114</ele>
        <time>2016-07-04T23:16:21Z</time>
      </trkpt>
      <trkpt lat="43.20469" lon="2.33247">
        <ele>114</ele>
        <time>2016-07-04T23:18:21Z</time>
      </trkpt>
      <trkpt lat="43.20466" lon="2.33247">
        <ele>114</ele>
        <time>2016-07-04T23:20:21Z</time>
      </trkpt>
      <trkpt lat="43.20464" lon="2.33247">
        <ele>114</ele>
        <time>2016-07-04T23:22:21Z</time>
      </trkpt>
      <trkpt lat="43.20462" lon="2.33247">
        <ele>114</ele>
        <time>2016-07-04T23:24:21Z</time>
      </trkpt>
      <trkpt lat="43.2046" lon="2.33247">
        <ele>114</ele>
        <time>2016-07-04T23:26:21Z</time>
      </trkpt>
      <trkpt lat="43.20459" lon="2.33248">
        <ele>114</ele>
        <time>2016-07-04T23:28:21Z</time>
      </trkpt>
      <trkpt lat="43.20457" lon="2.33248">
        <ele>114</ele>
        <time>2016-07-04T23:30:21Z</time>
      </trkpt>
      <trkpt lat="43.20456" lon="2.33249">
        <ele>113</ele>
        <time>2016-07-04T23:32:21Z</time>
      </trkpt>
      <trkpt lat="43.20454" lon="2.3325">
        <ele>113</ele>
        <time>2016-07-04T23:34:21Z</time>
      </trkpt>
      <trkpt lat="43.20453" lon="2.3325">
        <ele>113</ele>
        <time>2016-07-04T23:36:21Z</time>
      </trkpt>
      <trkpt lat="43.20451" lon="2.33251">
        <ele>113</ele>
        <time>2016-07-04T23:38:21Z</time>
      </trkpt>
      <trkpt lat="43.20443" lon="2.33249">
        <ele>113</ele>
        <time>2016-07-04T23:40:21Z</time>
      </trkpt>
      <trkpt lat="43.20438" lon="2.33247">
        <ele>113</ele>
        <time>2016-07-04T23:42:21Z</time>
      </trkpt>
      <trkpt lat="43.20434" lon="2.33245">
        <ele>113</ele>
        <time>2016-07-04T23:44:21Z</time>
      </trkpt>
      <trkpt lat="43.20431" lon="2.33243">
        <ele>113</ele>
        <time>2016-07-04T23:46:21Z</time>
      </trkpt>
      <trkpt lat="43.20426" lon="2.33238">
        <ele>114</ele>
        <time>2016-07-04T23:48:21Z</time>
      </trkpt>
      <trkpt lat="43.20415" lon="2.33228">
        <ele>114</ele>
        <time>2016-07-04T23:50:21Z</time>
      </trkpt>
      <trkpt lat="43.20406" lon="2.33218">
        <ele>114</ele>
        <time>2016-07-04T23:52:21Z</time>
      </trkpt>
      <trkpt lat="43.20377" lon="2.33188">
        <ele>113</ele>
        <time>2016-07-04T23:54:21Z</time>
      </trkpt>
      <trkpt lat="43.20353" lon="2.33163">
        <ele>113</ele>
        <time>2016-07-04T23:56:21Z</time>
      </trkpt>
      <trkpt lat="43.20351" lon="2.3316">
        <ele>113</ele>
        <time>2016-07-04T23:58:21Z</time>
      </trkpt>
      <trkpt lat="43.20349" lon="2.33159">
        <ele>113</ele>
        <time>2016-07-05T00:00:21Z</time>
      </trkpt>
      <trkpt lat="43.20344" lon="2.33155">
        <ele>113</ele>
        <time>2016-07-05T00:02:21Z</time>
      </trkpt>
      <trkpt lat="43.20328" lon="2.33138">
        <ele>113</ele>
        <time>2016-07-05T00:04:21Z</time>
      </trkpt>
      <trkpt lat="43.20303" lon="2.33112">
        <ele>113</ele>
        <time>2016-07-05T00:06:21Z</time>
      </trkpt>
      <trkpt lat="43.20262" lon="2.33067">
        <ele>113</ele>
        <time>2016-07-05T00:08:21Z</time>
      </trkpt>
      <trkpt lat="43.20232" lon="2.33034">
        <ele>112</ele>
        <time>2016-07-05T00:10:21Z</time>
      </trkpt>
      <trkpt lat="43.20217" lon="2.33018">
        <ele>112</ele>
        <time>2016-07-05T00:12:21Z</time>
      </trkpt>
      <trkpt lat="43.20207" lon="2.33008">
        <ele>112</ele>
        <time>2016-07-05T00:14:21Z</time>
      </trkpt>
      <trkpt lat="43.20197" lon="2.32998">
        <ele>112</ele>
        <time>2016-07-05T00:16:21Z</time>
      </trkpt>
      <trkpt lat="43.20182" lon="2.32984">
        <ele>112</ele>
        <time>2016-07-05T00:18:21Z</time>
      </trkpt>
      <trkpt lat="43.20177" lon="2.32979">
        <ele>112</ele>
        <time>2016-07-05T00:20:21Z</time>
      </trkpt>
      <trkpt lat="43.20165" lon="2.32969">
        <ele>112</ele>
        <time>2016-07-05T00:22:21Z</time>
      </trkpt>
      <trkpt lat="43.20152" lon="2.32958">
        <ele>113</ele>
        <time>2016-07-05T00:24:21Z</time>
      </trkpt>
      <trkpt lat="43.20137" lon="2.32947">
        <ele>113</ele>
        <time>2016-07-05T00:26:21Z</time>
      </trkpt>
      <trkpt lat="43.20119" lon="2.32934">
        <ele>113</ele>
        <time>2016-07-05T00:28:21Z</time>
      </trkpt>
      <trkpt lat="43.20082" lon="2.32909">
        <ele>114</ele>
        <time>2016-07-05T00:30:21Z</time>
      </trkpt>
      <trkpt lat="43.20067" lon="2.32898">
        <ele>114</ele>
        <time>2016-07-05T00:32:21Z</time>
      </trkpt>
      <trkpt lat="43.20058" lon="2.3289">
        <ele>114</ele>
        <time>2016-07-05T00:34:21Z</time>
      </trkpt>
      <trkpt lat="43.20051" lon="2.32883">
        <ele>114</ele>
        <time>2016-07-05T00:36:21Z</time>
      </trkpt>
      <trkpt lat="43.20042" lon="2.32874">
        <ele>114</ele>
        <time>2016-07-05T00:38:21Z</time>
      </trkpt>
      <trkpt lat="43.20032" lon="2.32862">
        <ele>114</ele>
        <time>2016-07-05T00:40:21Z</time>
      </trkpt>
      <trkpt lat="43.2001" lon="2.32832">
        <ele>115</ele>
        <time>2016-07-05T00:42:21Z</time>
      </trkpt>
      <trkpt lat="43.19984" lon="2.32797">
        <ele>116</ele>
        <time>2016-07-05T00:44:21Z</time>
      </trkpt>
      <trkpt lat="43.19981" lon="2.3279">
        <ele>117</ele>
        <time>2016-07-05T00:46:21Z</time>
      </trkpt>
      <trkpt lat="43.19972" lon="2.32778">
        <ele>117</ele>
        <time>2016-07-05T00:48:21Z</time>
      </trkpt>
      <trkpt lat="43.19933" lon="2.32725">
        <ele>120</ele>
        <time>2016-07-05T00:50:21Z</time>
      </trkpt>
      <trkpt lat="43.19928" lon="2.32717">
        <ele>121</ele>
        <time>2016-07-05T00:52:21Z</time>
      </trkpt>
      <trkpt lat="43.19926" lon="2.32714">
        <ele>121</ele>
        <time>2016-07-05T00:54:21Z</time>
      </trkpt>
      <trkpt lat="43.1992" lon="2.32705">
        <ele>122</ele>
        <time>2016-07-05T00:56:21Z</time>
      </trkpt>
      <trkpt lat="43.19913" lon="2.32693">
        <ele>123</ele>
        <time>2016-07-05T00:58:21Z</time>
      </trkpt>
      <trkpt lat="43.19905" lon="2.32681">
        <ele>124</ele>
        <time>2016-07-05T01:00:21Z</time>
      </trkpt>
      <trkpt lat="43.19897" lon="2.32666">
        <ele>125</ele>
        <time>2016-07-05T01:02:21Z</time>
      </trkpt>
      <trkpt lat="43.19894" lon="2.32661">
        <ele>125</ele>
        <time>2016-07-05T01:04:21Z</time>
      </trkpt>
      <trkpt lat="43.19888" lon="2.32649">
        <ele>126</ele>
        <time>2016-07-05T01:06:21Z</time>
      </trkpt>
      <trkpt lat="43.19886" lon="2.32645">
        <ele>126</ele>
        <time>2016-07-05T01:08:21Z</time>
      </trkpt>
      <trkpt lat="43.19881" lon="2.32639">
        <ele>126</ele>
        <time>2016-07-05T01:10:21Z</time>
      </trkpt>
      <trkpt lat="43.19875" lon="2.32627">
        <ele>126</ele>
        <time>2016-07-05T01:12:21Z</time>
      </trkpt>
      <trkpt lat="43.1986" lon="2.32596">
        <ele>127</ele>
        <time>2016-07-05T01:14:21Z</time>
      </trkpt>
      <trkpt lat="43.19833" lon="2.32533">
        <ele>129</ele>
        <time>2016-07-05T01:16:21Z</time>
      </trkpt>
      <trkpt lat="43.19805" lon="2.32469">
        <ele>130</ele>
        <time>2016-07-05T01:18:21Z</time>
      </trkpt>
      <trkpt lat="43.19792" lon="2.3244">
        <ele>131</ele>
        <time>2016-07-05T01:20:21Z</time>
      </trkpt>
      <trkpt lat="43.19779" lon="2.32415">
        <ele>132</ele>
        <time>2016-07-05T01:22:21Z</time>
      </trkpt>
      <trkpt lat="43.19762" lon="2.32385">
        <ele>132</ele>
        <time>2016-07-05T01:24:21Z</time>
      </trkpt>
      <trkpt lat="43.19754" lon="2.32372">
        <ele>133</ele>
        <time>2016-07-05T01:26:21Z</time>
      </trkpt>
      <trkpt lat="43.19747" lon="2.32362">
        <ele>133</ele>
        <time>2016-07-05T01:28:21Z</time>
      </trkpt>
      <trkpt lat="43.19742" lon="2.32354">
        <ele>133</ele>
        <time>2016-07-05T01:30:21Z</time>
      </trkpt>
      <trkpt lat="43.19733" lon="2.32342">
        <ele>134</ele>
        <time>2016-07-05T01:32:21Z</time>
      </trkpt>
      <trkpt lat="43.1972" lon="2.32325">
        <ele>135</ele>
        <time>2016-07-05T01:34:21Z</time>
      </trkpt>
      <trkpt lat="43.1971" lon="2.32312">
        <ele>135</ele>
        <time>2016-07-05T01:36:21Z</time>
      </trkpt>
      <trkpt lat="43.19703" lon="2.32304">
        <ele>135</ele>
        <time>2016-07-05T01:38:21Z</time>
      </trkpt>
      <trkpt lat="43.19692" lon="2.32291">
        <ele>135</ele>
        <time>2016-07-05T01:40:21Z</time>
      </trkpt>
      <trkpt lat="43.19689" lon="2.32284">
        <ele>135</ele>
        <time>2016-07-05T01:42:21Z</time>
      </trkpt>
      <trkpt lat="43.19688" lon="2.32281">
        <ele>135</ele>
        <time>2016-07-05T01:44:21Z</time>
      </trkpt>
      <trkpt lat="43.19644" lon="2.32222">
        <ele>136</ele>
        <time>2016-07-05T01:46:21Z</time>
      </trkpt>
      <trkpt lat="43.19644" lon="2.32222">
        <ele>136</ele>
        <time>2016-07-05T01:48:21Z</time>
      </trkpt>
      <trkpt lat="43.19645" lon="2.32218">
        <ele>136</ele>
        <time>2016-07-05T01:50:21Z</time>
      </trkpt>
      <trkpt lat="43.19646" lon="2.32215">
        <ele>136</ele>
        <time>2016-07-05T01:52:21Z</time>
      </trkpt>
      <trkpt lat="43.19646" lon="2.32212">
        <ele>136</ele>
        <time>2016-07-05T01:54:21Z</time>
      </trkpt>
      <trkpt lat="43.19646" lon="2.32208">
        <ele>135</ele>
        <time>2016-07-05T01:56:21Z</time>
      </trkpt>
      <trkpt lat="43.19646" lon="2.32205">
        <ele>135</ele>
        <time>2016-07-05T01:58:21Z</time>
      </trkpt>
      <trkpt lat="43.19645" lon="2.32201">
        <ele>135</ele>
        <time>2016-07-05T02:00:21Z</time>
      </trkpt>
      <trkpt lat="43.19645" lon="2.32199">
        <ele>135</ele>
        <time>2016-07-05T02:02:21Z</time>
      </trkpt>
      <trkpt lat="43.19644" lon="2.32198">
        <ele>135</ele>
        <time>2016-07-05T02:04:21Z</time>
      </trkpt>
      <trkpt lat="43.19642" lon="2.32194">
        <ele>135</ele>
        <time>2016-07-05T02:06:21Z</time>
      </trkpt>
      <trkpt lat="43.19641" lon="2.32192">
        <ele>135</ele>
        <time>2016-07-05T02:08:21Z</time>
      </trkpt>
      <trkpt lat="43.1964" lon="2.32191">
        <ele>135</ele>
        <time>2016-07-05T02:10:21Z</time>
      </trkpt>
      <trkpt lat="43.19639" lon="2.3219">
        <ele>135</ele>
        <time>2016-07-05T02:12:21Z</time>
      </trkpt>
      <trkpt lat="43.19638" lon="2.3219">
        <ele>135</ele>
        <time>2016-07-05T02:14:21Z</time>
      </trkpt>
      <trkpt lat="43.19636" lon="2.32189">
        <ele>135</ele>
        <time>2016-07-05T02:16:21Z</time>
      </trkpt>
      <trkpt lat="43.19635" lon="2.32188">
        <ele>135</ele>
        <time>2016-07-05T02:18:21Z</time>
      </trkpt>
      <trkpt lat="43.19631" lon="2.32188">
        <ele>135</ele>
        <time>2016-07-05T02:20:21Z</time>
      </trkpt>
      <trkpt lat="43.19628" lon="2.32188">
        <ele>135</ele>
        <time>2016-07-05T02:22:21Z</time>
      </trkpt>
      <trkpt lat="43.19626" lon="2.32189">
        <ele>135</ele>
        <time>2016-07-05T02:24:21Z</time>
      </trkpt>
      <trkpt lat="43.19623" lon="2.3219">
        <ele>136</ele>
        <time>2016-07-05T02:26:21Z</time>
      </trkpt>
      <trkpt lat="43.19621" lon="2.32191">
        <ele>136</ele>
        <time>2016-07-05T02:28:21Z</time>
      </trkpt>
      <trkpt lat="43.19618" lon="2.32192">
        <ele>136</ele>
        <time>2016-07-05T02:30:21Z</time>
      </trkpt>
      <trkpt lat="43.19617" lon="2.32194">
        <ele>136</ele>
        <time>2016-07-05T02:32:21Z</time>
      </trkpt>
      <trkpt lat="43.19615" lon="2.32197">
        <ele>136</ele>
        <time>2016-07-05T02:34:21Z</time>
      </trkpt>
      <trkpt lat="43.19612" lon="2.32201">
        <ele>136</ele>
        <time>2016-07-05T02:36:21Z</time>
      </trkpt>
      <trkpt lat="43.19579" lon="2.32192">
        <ele>136</ele>
        <time>2016-07-05T02:38:21Z</time>
      </trkpt>
      <trkpt lat="43.19565" lon="2.32187">
        <ele>136</ele>
        <time>2016-07-05T02:40:21Z</time>
      </trkpt>
      <trkpt lat="43.19548" lon="2.3218">
        <ele>136</ele>
        <time>2016-07-05T02:42:21Z</time>
      </trkpt>
      <trkpt lat="43.19537" lon="2.32173">
        <ele>136</ele>
        <time>2016-07-05T02:44:21Z</time>
      </trkpt>
      <trkpt lat="43.19525" lon="2.32164">
        <ele>136</ele>
        <time>2016-07-05T02:46:21Z</time>
      </trkpt>
      <trkpt lat="43.19513" lon="2.32155">
        <ele>136</ele>
        <time>2016-07-05T02:48:21Z</time>
      </trkpt>
      <trkpt lat="43.19501" lon="2.32144">
        <ele>136</ele>
        <time>2016-07-05T02:50:21Z</time>
      </trkpt>
      <trkpt lat="43.19489" lon="2.32131">
        <ele>136</ele>
        <time>2016-07-05T02:52:21Z</time>
      </trkpt>
      <trkpt lat="43.19476" lon="2.32113">
        <ele>135</ele>
        <time>2016-07-05T02:54:21Z</time>
      </trkpt>
      <trkpt lat="43.19469" lon="2.32103">
        <ele>135</ele>
        <time>2016-07-05T02:56:21Z</time>
      </trkpt>
      <trkpt lat="43.19466" lon="2.32099">
        <ele>135</ele>
        <time>2016-07-05T02:58:21Z</time>
      </trkpt>
      <trkpt lat="43.1946" lon="2.32089">
        <ele>135</ele>
        <time>2016-07-05T03:00:21Z</time>
      </trkpt>
      <trkpt lat="43.19453" lon="2.32075">
        <ele>135</ele>
        <time>2016-07-05T03:02:21Z</time>
      </trkpt>
      <trkpt lat="43.19442" lon="2.32051">
        <ele>135</ele>
        <time>2016-07-05T03:04:21Z</time>
      </trkpt>
      <trkpt lat="43.19431" lon="2.32026">
        <ele>134</ele>
        <time>2016-07-05T03:06:21Z</time>
      </trkpt>
      <trkpt lat="43.19419" lon="2.31993">
        <ele>134</ele>
        <time>2016-07-05T03:08:21Z</time>
      </trkpt>
      <trkpt lat="43.19405" lon="2.31954">
        <ele>131</ele>
        <time>2016-07-05T03:10:21Z</time>
      </trkpt>
      <trkpt lat="43.19405" lon="2.31954">
        <ele>131</ele>
        <time>2016-07-05T03:12:21Z</time>
      </trkpt>
      <trkpt lat="43.19338" lon="2.31759">
        <ele>126</ele>
        <time>2016-07-05T03:14:21Z</time>
      </trkpt>
      <trkpt lat="43.19317" lon="2.31701">
        <ele>126</ele>
        <time>2016-07-05T03:16:21Z</time>
      </trkpt>
      <trkpt lat="43.19302" lon="2.31667">
        <ele>127</ele>
        <time>2016-07-05T03:18:21Z</time>
      </trkpt>
      <trkpt lat="43.19289" lon="2.31642">
        <ele>126</ele>
        <time>2016-07-05T03:20:21Z</time>
      </trkpt>
      <trkpt lat="43.19287" lon="2.31639">
        <ele>126</ele>
        <time>2016-07-05T03:22:21Z</time>
      </trkpt>
      <trkpt lat="43.19274" lon="2.31617">
        <ele>125</ele>
        <time>2016-07-05T03:24:21Z</time>
      </trkpt>
      <trkpt lat="43.19258" lon="2.31593">
        <ele>124</ele>
        <time>2016-07-05T03:26:21Z</time>
      </trkpt>
      <trkpt lat="43.19245" lon="2.31576">
        <ele>123</ele>
        <time>2016-07-05T03:28:21Z</time>
      </trkpt>
      <trkpt lat="43.19242" lon="2.31572">
        <ele>123</ele>
        <time>2016-07-05T03:30:21Z</time>
      </trkpt>
      <trkpt lat="43.19229" lon="2.31555">
        <ele>123</ele>
        <time>2016-07-05T03:32:21Z</time>
      </trkpt>
      <trkpt lat="43.19226" lon="2.3155">
        <ele>124</ele>
        <time>2016-07-05T03:34:21Z</time>
      </trkpt>
      <trkpt lat="43.19214" lon="2.31536">
        <ele>124</ele>
        <time>2016-07-05T03:36:21Z</time>
      </trkpt>
      <trkpt lat="43.19201" lon="2.31523">
        <ele>124</ele>
        <time>2016-07-05T03:38:21Z</time>
      </trkpt>
      <trkpt lat="43.19181" lon="2.31505">
        <ele>123</ele>
        <time>2016-07-05T03:40:21Z</time>
      </trkpt>
      <trkpt lat="43.19163" lon="2.31491">
        <ele>123</ele>
        <time>2016-07-05T03:42:21Z</time>
      </trkpt>
      <trkpt lat="43.19161" lon="2.3149">
        <ele>123</ele>
        <time>2016-07-05T03:44:21Z</time>
      </trkpt>
      <trkpt lat="43.19141" lon="2.31476">
        <ele>122</ele>
        <time>2016-07-05T03:46:21Z</time>
      </trkpt>
      <trkpt lat="43.19126" lon="2.31466">
        <ele>122</ele>
        <time>2016-07-05T03:48:21Z</time>
      </trkpt>
      <trkpt lat="43.19095" lon="2.3145">
        <ele>120</ele>
        <time>2016-07-05T03:50:21Z</time>
      </trkpt>
      <trkpt lat="43.19059" lon="2.31433">
        <ele>119</ele>
        <time>2016-07-05T03:52:21Z</time>
      </trkpt>
      <trkpt lat="43.19037" lon="2.31418">
        <ele>119</ele>
        <time>2016-07-05T03:54:21Z</time>
      </trkpt>
      <trkpt lat="43.19035" lon="2.31412">
        <ele>119</ele>
        <time>2016-07-05T03:56:21Z</time>
      </trkpt>
      <trkpt lat="43.19033" lon="2.31406">
        <ele>119</ele>
        <time>2016-07-05T03:58:21Z</time>
      </trkpt>
      <trkpt lat="43.19029" lon="2.314">
        <ele>119</ele>
        <time>2016-07-05T04:00:21Z</time>
      </trkpt>
      <trkpt lat="43.19028" lon="2.31398">
        <ele>119</ele>
        <time>2016-07-05T04:02:21Z</time>
      </trkpt>
      <trkpt lat="43.19026" lon="2.31396">
        <ele>119</ele>
        <time>2016-07-05T04:04:21Z</time>
      </trkpt>
      <trkpt lat="43.19024" lon="2.31394">
        <ele>119</ele>
        <time>2016-07-05T04:06:21Z</time>
      </trkpt>
      <trkpt lat="43.19021" lon="2.31392">
        <ele>119</ele>
        <time>2016-07-05T04:08:21Z</time>
      </trkpt>
      <trkpt lat="43.19017" lon="2.3139">
        <ele>119</ele>
        <time>2016-07-05T04:10:21Z</time>
      </trkpt>
      <trkpt lat="43.19015" lon="2.3139">
        <ele>119</ele>
        <time>2016-07-05T04:12:21Z</time>
      </trkpt>
      <trkpt lat="43.19014" lon="2.3139">
        <ele>119</ele>
        <time>2016-07-05T04:14:21Z</time>
      </trkpt>
      <trkpt lat="43.19013" lon="2.3139">
        <ele>119</ele>
        <time>2016-07-05T04:16:21Z</time>
      </trkpt>
      <trkpt lat="43.19012" lon="2.31389">
        <ele>119</ele>
        <time>2016-07-05T04:18:21Z</time>
      </trkpt>
      <trkpt lat="43.1901" lon="2.31389">
        <ele>118</ele>
        <time>2016-07-05T04:20:21Z</time>
      </trkpt>
      <trkpt lat="43.19009" lon="2.31389">
        <ele>118</ele>
        <time>2016-07-05T04:22:21Z</time>
      </trkpt>
      <trkpt lat="43.19008" lon="2.31389">
        <ele>118</ele>
        <time>2016-07-05T04:24:21Z</time>
      </trkpt>
      <trkpt lat="43.19007" lon="2.31389">
        <ele>118</ele>
        <time>2016-07-05T04:26:21Z</time>
      </trkpt>
      <trkpt lat="43.18999" lon="2.31384">
        <ele>118</ele>
        <time>2016-07-05T04:28:21Z</time>
      </trkpt>
      <trkpt lat="43.18995" lon="2.31382">
        <ele>118</ele>
        <time>2016-07-05T04:30:21Z</time>
      </trkpt>
      <trkpt lat="43.18991" lon="2.31378">
        <ele>118</ele>
        <time>2016-07-05T04:32:21Z</time>
      </trkpt>
      <trkpt lat="43.18986" lon="2.31371">
        <ele>119</ele>
        <time>2016-07-05T04:34:21Z</time>
      </trkpt>
      <trkpt lat="43.18981" lon="2.31363">
        <ele>119</ele>
        <time>2016-07-05T04:36:21Z</time>
      </trkpt>
      <trkpt lat="43.18974" lon="2.31351">
        <ele>119</ele>
        <time>2016-07-05T04:38:21Z</time>
      </trkpt>
      <trkpt lat="43.18969" lon="2.31345">
        <ele>119</ele>
        <time>2016-07-05T04:40:21Z</time>
      </trkpt>
      <trkpt lat="43.18915" lon="2.31211">
        <ele>119</ele>
        <time>2016-07-05T04:42:21Z</time>
      </trkpt>
      <trkpt lat="43.18904" lon="2.31185">
        <ele>119</ele>
        <time>2016-07-05T04:44:21Z</time>
      </trkpt>
      <trkpt lat="43.18891" lon="2.31159">
        <ele>119</ele>
        <time>2016-07-05T04:46:21Z</time>
      </trkpt>
      <trkpt lat="43.18882" lon="2.31144">
        <ele>119</ele>
        <time>2016-07-05T04:48:21Z</time>
      </trkpt>
      <trkpt lat="43.18871" lon="2.31127">
        <ele>119</ele>
        <time>2016-07-05T04:50:21Z</time>
      </trkpt>
      <trkpt lat="43.18837" lon="2.31077">
        <ele>120</ele>
        <time>2016-07-05T04:52:21Z</time>
      </trkpt>
      <trkpt lat="43.18789" lon="2.31013">
        <ele>118</ele>
        <time>2016-07-05T04:54:21Z</time>
      </trkpt>
      <trkpt lat="43.18734" lon="2.30941">
        <ele>120</ele>
        <time>2016-07-05T04:56:21Z</time>
      </trkpt>
      <trkpt lat="43.18666" lon="2.30855">
        <ele>120</ele>
        <time>2016-07-05T04:58:21Z</time>
      </trkpt>
      <trkpt lat="43.18635" lon="2.30817">
        <ele>120</ele>
        <time>2016-07-05T05:00:21Z</time>
      </trkpt>
      <trkpt lat="43.18623" lon="2.30804">
        <ele>120</ele>
        <time>2016-07-05T05:02:21Z</time>
      </trkpt>
      <trkpt lat="43.18616" lon="2.30797">
        <ele>120</ele>
        <time>2016-07-05T05:04:21Z</time>
      </trkpt>
      <trkpt lat="43.18608" lon="2.30791">
        <ele>120</ele>
        <time>2016-07-05T05:06:21Z</time>
      </trkpt>
      <trkpt lat="43.18597" lon="2.30784">
        <ele>120</ele>
        <time>2016-07-05T05:08:21Z</time>
      </trkpt>
      <trkpt lat="43.18584" lon="2.30777">
        <ele>120</ele>
        <time>2016-07-05T05:10:21Z</time>
      </trkpt>
      <trkpt lat="43.18517" lon="2.3075">
        <ele>121</ele>
        <time>2016-07-05T05:12:21Z</time>
      </trkpt>
      <trkpt lat="43.18428" lon="2.30717">
        <ele>121</ele>
        <time>2016-07-05T05:14:21Z</time>
      </trkpt>
      <trkpt lat="43.18359" lon="2.30691">
        <ele>120</ele>
        <time>2016-07-05T05:16:21Z</time>
      </trkpt>
      <trkpt lat="43.18309" lon="2.30672">
        <ele>120</ele>
        <time>2016-07-05T05:18:21Z</time>
      </trkpt>
      <trkpt lat="43.18138" lon="2.30607">
        <ele>119</ele>
        <time>2016-07-05T05:20:21Z</time>
      </trkpt>
      <trkpt lat="43.17931" lon="2.30528">
        <ele>121</ele>
        <time>2016-07-05T05:22:21Z</time>
      </trkpt>
      <trkpt lat="43.17793" lon="2.30476">
        <ele>122</ele>
        <time>2016-07-05T05:24:21Z</time>
      </trkpt>
      <trkpt lat="43.17603" lon="2.30404">
        <ele>122</ele>
        <time>2016-07-05T05:26:21Z</time>
      </trkpt>
      <trkpt lat="43.17578" lon="2.30395">
        <ele>122</ele>
        <time>2016-07-05T05:28:21Z</time>
      </trkpt>
      <trkpt lat="43.17491" lon="2.30362">
        <ele>122</ele>
        <time>2016-07-05T05:30:21Z</time>
      </trkpt>
      <trkpt lat="43.17438" lon="2.30341">
        <ele>121</ele>
        <time>2016-07-05T05:32:21Z</time>
      </trkpt>
      <trkpt lat="43.17427" lon="2.30336">
        <ele>121</ele>
        <time>2016-07-05T05:34:21Z</time>
      </trkpt>
      <trkpt lat="43.1742" lon="2.30333">
        <ele>121</ele>
        <time>2016-07-05T05:36:21Z</time>
      </trkpt>
      <trkpt lat="43.17415" lon="2.3033">
        <ele>121</ele>
        <time>2016-07-05T05:38:21Z</time>
      </trkpt>
      <trkpt lat="43.17411" lon="2.30328">
        <ele>121</ele>
        <time>2016-07-05T05:40:21Z</time>
      </trkpt>
      <trkpt lat="43.17405" lon="2.30323">
        <ele>122</ele>
        <time>2016-07-05T05:42:21Z</time>
      </trkpt>
      <trkpt lat="43.17397" lon="2.30316">
        <ele>122</ele>
        <time>2016-07-05T05:44:21Z</time>
      </trkpt>
      <trkpt lat="43.17391" lon="2.30311">
        <ele>123</ele>
        <time>2016-07-05T05:46:21Z</time>
      </trkpt>
      <trkpt lat="43.17385" lon="2.30304">
        <ele>123</ele>
        <time>2016-07-05T05:48:21Z</time>
      </trkpt>
      <trkpt lat="43.17377" lon="2.30295">
        <ele>124</ele>
        <time>2016-07-05T05:50:21Z</time>
      </trkpt>
      <trkpt lat="43.17371" lon="2.30289">
        <ele>124</ele>
        <time>2016-07-05T05:52:21Z</time>
      </trkpt>
      <trkpt lat="43.17349" lon="2.30262">
        <ele>126</ele>
        <time>2016-07-05T05:54:21Z</time>
      </trkpt>
      <trkpt lat="43.17342" lon="2.30255">
        <ele>127</ele>
        <time>2016-07-05T05:56:21Z</time>
      </trkpt>
      <trkpt lat="43.17334" lon="2.30248">
        <ele>127</ele>
        <time>2016-07-05T05:58:21Z</time>
      </trkpt>
      <trkpt lat="43.17324" lon="2.30241">
        <ele>127</ele>
        <time>2016-07-05T06:00:21Z</time>
      </trkpt>
      <trkpt lat="43.17318" lon="2.30236">
        <ele>128</ele>
        <time>2016-07-05T06:02:21Z</time>
      </trkpt>
      <trkpt lat="43.1731" lon="2.30231">
        <ele>128</ele>
        <time>2016-07-05T06:04:21Z</time>
      </trkpt>
      <trkpt lat="43.17297" lon="2.30225">
        <ele>128</ele>
        <time>2016-07-05T06:06:21Z</time>
      </trkpt>
      <trkpt lat="43.17287" lon="2.30221">
        <ele>127</ele>
        <time>2016-07-05T06:08:21Z</time>
      </trkpt>
      <trkpt lat="43.17282" lon="2.30219">
        <ele>127</ele>
        <time>2016-07-05T06:10:21Z</time>
      </trkpt>
      <trkpt lat="43.17274" lon="2.30218">
        <ele>127</ele>
        <time>2016-07-05T06:12:21Z</time>
      </trkpt>
      <trkpt lat="43.17265" lon="2.30217">
        <ele>127</ele>
        <time>2016-07-05T06:14:21Z</time>
      </trkpt>
      <trkpt lat="43.17246" lon="2.30217">
        <ele>126</ele>
        <time>2016-07-05T06:16:21Z</time>
      </trkpt>
      <trkpt lat="43.1722" lon="2.30218">
        <ele>126</ele>
        <time>2016-07-05T06:18:21Z</time>
      </trkpt>
      <trkpt lat="43.17211" lon="2.30219">
        <ele>126</ele>
        <time>2016-07-05T06:20:21Z</time>
      </trkpt>
      <trkpt lat="43.17201" lon="2.30218">
        <ele>126</ele>
        <time>2016-07-05T06:22:21Z</time>
      </trkpt>
      <trkpt lat="43.17191" lon="2.30217">
        <ele>126</ele>
        <time>2016-07-05T06:24:21Z</time>
      </trkpt>
      <trkpt lat="43.17185" lon="2.30216">
        <ele>126</ele>
        <time>2016-07-05T06:26:21Z</time>
      </trkpt>
      <trkpt lat="43.17176" lon="2.30213">
        <ele>126</ele>
        <time>2016-07-05T06:28:21Z</time>
      </trkpt>
      <trkpt lat="43.17166" lon="2.30209">
        <ele>126</ele>
        <time>2016-07-05T06:30:21Z</time>
      </trkpt>
      <trkpt lat="43.17159" lon="2.30206">
        <ele>126</ele>
        <time>2016-07-05T06:32:21Z</time>
      </trkpt>
      <trkpt lat="43.17147" lon="2.30199">
        <ele>127</ele>
        <time>2016-07-05T06:34:21Z</time>
      </trkpt>
      <trkpt lat="43.17135" lon="2.30191">
        <ele>127</ele>
        <time>2016-07-05T06:36:21Z</time>
      </trkpt>
      <trkpt lat="43.17127" lon="2.30183">
        <ele>127</ele>
        <time>2016-07-05T06:38:21Z</time>
      </trkpt>
      <trkpt lat="43.17117" lon="2.30174">
        <ele>127</ele>
        <time>2016-07-05T06:40:21Z</time>
      </trkpt>
      <trkpt lat="43.17108" lon="2.30163">
        <ele>128</ele>
        <time>2016-07-05T06:42:21Z</time>
      </trkpt>
      <trkpt lat="43.1709" lon="2.3014">
        <ele>129</ele>
        <time>2016-07-05T06:44:21Z</time>
      </trkpt>
      <trkpt lat="43.17087" lon="2.30136">
        <ele>129</ele>
        <time>2016-07-05T06:46:21Z</time>
      </trkpt>
      <trkpt lat="43.17065" lon="2.30109">
        <ele>130</ele>
        <time>2016-07-05T06:48:21Z</time>
      </trkpt>
      <trkpt lat="43.17041" lon="2.30084">
        <ele>130</ele>
        <time>2016-07-05T06:50:21Z</time>
      </trkpt>
      <trkpt lat="43.1702" lon="2.30065">
        <ele>129</ele>
        <time>2016-07-05T06:52:21Z</time>
      </trkpt>
      <trkpt lat="43.17004" lon="2.30053">
        <ele>128</ele>
        <time>2016-07-05T06:54:21Z</time>
      </trkpt>
      <trkpt lat="43.16995" lon="2.30047">
        <ele>127</ele>
        <time>2016-07-05T06:56:21Z</time>
      </trkpt>
      <trkpt lat="43.16983" lon="2.30039">
        <ele>127</ele>
        <time>2016-07-05T06:58:21Z</time>
      </trkpt>
      <trkpt lat="43.1697" lon="2.30032">
        <ele>126</ele>
        <time>2016-07-05T07:00:21Z</time>
      </trkpt>
      <trkpt lat="43.16964" lon="2.30025">
        <ele>126</ele>
        <time>2016-07-05T07:02:21Z</time>
      </trkpt>
      <trkpt lat="43.16962" lon="2.30023">
        <ele>126</ele>
        <time>2016-07-05T07:04:21Z</time>
      </trkpt>
      <trkpt lat="43.16952" lon="2.30019">
        <ele>126</ele>
        <time>2016-07-05T07:06:21Z</time>
      </trkpt>
      <trkpt lat="43.1693" lon="2.3001">
        <ele>125</ele>
        <time>2016-07-05T07:08:21Z</time>
      </trkpt>
      <trkpt lat="43.1691" lon="2.30005">
        <ele>125</ele>
        <time>2016-07-05T07:10:21Z</time>
      </trkpt>
      <trkpt lat="43.16887" lon="2.30002">
        <ele>125</ele>
        <time>2016-07-05T07:12:21Z</time>
      </trkpt>
      <trkpt lat="43.16849" lon="2.29999">
        <ele>126</ele>
        <time>2016-07-05T07:14:21Z</time>
      </trkpt>
      <trkpt lat="43.16838" lon="2.29998">
        <ele>126</ele>
        <time>2016-07-05T07:16:21Z</time>
      </trkpt>
      <trkpt lat="43.168" lon="2.29992">
        <ele>127</ele>
        <time>2016-07-05T07:18:21Z</time>
      </trkpt>
      <trkpt lat="43.16791" lon="2.29989">
        <ele>127</ele>
        <time>2016-07-05T07:20:21Z</time>
      </trkpt>
      <trkpt lat="43.16782" lon="2.29986">
        <ele>128</ele>
        <time>2016-07-05T07:22:21Z</time>
      </trkpt>
      <trkpt lat="43.16776" lon="2.29984">
        <ele>128</ele>
        <time>2016-07-05T07:24:21Z</time>
      </trkpt>
      <trkpt lat="43.16749" lon="2.29974">
        <ele>129</ele>
        <time>2016-07-05T07:26:21Z</time>
      </trkpt>
      <trkpt lat="43.16709" lon="2.29953">
        <ele>133</ele>
        <time>2016-07-05T07:28:21Z</time>
      </trkpt>
      <trkpt lat="43.16617" lon="2.299">
        <ele>140</ele>
        <time>2016-07-05T07:30:21Z</time>
      </trkpt>
      <trkpt lat="43.16465" lon="2.29814">
        <ele>140</ele>
        <time>2016-07-05T07:32:21Z</time>
      </trkpt>
      <trkpt lat="43.16438" lon="2.29799">
        <ele>140</ele>
        <time>2016-07-05T07:34:21Z</time>
      </trkpt>
      <trkpt lat="43.1627" lon="2.29704">
        <ele>141</ele>
        <time>2016-07-05T07:36:21Z</time>
      </trkpt>
      <trkpt lat="43.16186" lon="2.29656">
        <ele>140</ele>
        <time>2016-07-05T07:38:21Z</time>
      </trkpt>
      <trkpt lat="43.16143" lon="2.29629">
        <ele>140</ele>
        <time>2016-07-05T07:40:21Z</time>
      </trkpt>
      <trkpt lat="43.16129" lon="2.2962">
        <ele>140</ele>
        <time>2016-07-05T07:42:21Z</time>
      </trkpt>
      <trkpt lat="43.16107" lon="2.29601">
        <ele>140</ele>
        <time>2016-07-05T07:44:21Z</time>
      </trkpt>
      <trkpt lat="43.16095" lon="2.2959">
        <ele>139</ele>
        <time>2016-07-05T07:46:21Z</time>
      </trkpt>
      <trkpt lat="43.16084" lon="2.29577">
        <ele>139</ele>
        <time>2016-07-05T07:48:21Z</time>
      </trkpt>
      <trkpt lat="43.16077" lon="2.29569">
        <ele>139</ele>
        <time>2016-07-05T07:50:21Z</time>
      </trkpt>
      <trkpt lat="43.16051" lon="2.29536">
        <ele>137</ele>
        <time>2016-07-05T07:52:21Z</time>
      </trkpt>
      <trkpt lat="43.16034" lon="2.29513">
        <ele>136</ele>
        <time>2016-07-05T07:54:21Z</time>
      </trkpt>
      <trkpt lat="43.16012" lon="2.29472">
        <ele>135</ele>
        <time>2016-07-05T07:56:21Z</time>
      </trkpt>
      <trkpt lat="43.15984" lon="2.29425">
        <ele>134</ele>
        <time>2016-07-05T07:58:21Z</time>
      </trkpt>
      <trkpt lat="43.15982" lon="2.29421">
        <ele>134</ele>
        <time>2016-07-05T08:00:21Z</time>
      </trkpt>
      <trkpt lat="43.1597" lon="2.29406">
        <ele>134</ele>
        <time>2016-07-05T08:02:21Z</time>
      </trkpt>
      <trkpt lat="43.15954" lon="2.29381">
        <ele>133</ele>
        <time>2016-07-05T08:04:21Z</time>
      </trkpt>
      <trkpt lat="43.15945" lon="2.29366">
        <ele>133</ele>
        <time>2016-07-05T08:06:21Z</time>
      </trkpt>
      <trkpt lat="43.1594" lon="2.29355">
        <ele>133</ele>
        <time>2016-07-05T08:08:21Z</time>
      </trkpt>
      <trkpt lat="43.15934" lon="2.29347">
        <ele>132</ele>
        <time>2016-07-05T08:10:21Z</time>
      </trkpt>
      <trkpt lat="43.15918" lon="2.29326">
        <ele>131</ele>
        <time>2016-07-05T08:12:21Z</time>
      </trkpt>
      <trkpt lat="43.15904" lon="2.2931">
        <ele>131</ele>
        <time>2016-07-05T08:14:21Z</time>
      </trkpt>
      <trkpt lat="43.1589" lon="2.29294">
        <ele>130</ele>
        <time>2016-07-05T08:16:21Z</time>
      </trkpt>
      <trkpt lat="43.15881" lon="2.29286">
        <ele>130</ele>
        <time>2016-07-05T08:18:21Z</time>
      </trkpt>
      <trkpt lat="43.15867" lon="2.29273">
        <ele>130</ele>
        <time>2016-07-05T08:20:21Z</time>
      </trkpt>
      <trkpt lat="43.15864" lon="2.29271">
        <ele>130</ele>
        <time>2016-07-05T08:22:21Z</time>
      </trkpt>
      <trkpt lat="43.1585" lon="2.2926">
        <ele>129</ele>
        <time>2016-07-05T08:24:21Z</time>
      </trkpt>
      <trkpt lat="43.15842" lon="2.29254">
        <ele>129</ele>
        <time>2016-07-05T08:26:21Z</time>
      </trkpt>
      <trkpt lat="43.1571" lon="2.29171">
        <ele>126</ele>
        <time>2016-07-05T08:28:21Z</time>
      </trkpt>
      <trkpt lat="43.15603" lon="2.29106">
        <ele>127</ele>
        <time>2016-07-05T08:30:21Z</time>
      </trkpt>
      <trkpt lat="43.15548" lon="2.29072">
        <ele>127</ele>
        <time>2016-07-05T08:32:21Z</time>
      </trkpt>
      <trkpt lat="43.15423" lon="2.28994">
        <ele>130</ele>
        <time>2016-07-05T08:34:21Z</time>
      </trkpt>
      <trkpt lat="43.15384" lon="2.28971">
        <ele>130</ele>
        <time>2016-07-05T08:36:21Z</time>
      </trkpt>
      <trkpt lat="43.15365" lon="2.28962">
        <ele>131</ele>
        <time>2016-07-05T08:38:21Z</time>
      </trkpt>
      <trkpt lat="43.15344" lon="2.28953">
        <ele>131</ele>
        <time>2016-07-05T08:40:21Z</time>
      </trkpt>
      <trkpt lat="43.15331" lon="2.28948">
        <ele>132</ele>
        <time>2016-07-05T08:42:21Z</time>
      </trkpt>
      <trkpt lat="43.15324" lon="2.28946">
        <ele>132</ele>
        <time>2016-07-05T08:44:21Z</time>
      </trkpt>
      <trkpt lat="43.15314" lon="2.28944">
        <ele>132</ele>
        <time>2016-07-05T08:46:21Z</time>
      </trkpt>
      <trkpt lat="43.15289" lon="2.28941">
        <ele>132</ele>
        <time>2016-07-05T08:48:21Z</time>
      </trkpt>
      <trkpt lat="43.15264" lon="2.28941">
        <ele>133</ele>
        <time>2016-07-05T08:50:21Z</time>
      </trkpt>
      <trkpt lat="43.15252" lon="2.28942">
        <ele>133</ele>
        <time>2016-07-05T08:52:21Z</time>
      </trkpt>
      <trkpt lat="43.15238" lon="2.28944">
        <ele>133</ele>
        <time>2016-07-05T08:54:21Z</time>
      </trkpt>
      <trkpt lat="43.15228" lon="2.28946">
        <ele>132</ele>
        <time>2016-07-05T08:56:21Z</time>
      </trkpt>
      <trkpt lat="43.15206" lon="2.28953">
        <ele>132</ele>
        <time>2016-07-05T08:58:21Z</time>
      </trkpt>
      <trkpt lat="43.15195" lon="2.28956">
        <ele>132</ele>
        <time>2016-07-05T09:00:21Z</time>
      </trkpt>
      <trkpt lat="43.15184" lon="2.28961">
        <ele>131</ele>
        <time>2016-07-05T09:02:21Z</time>
      </trkpt>
      <trkpt lat="43.15169" lon="2.28968">
        <ele>131</ele>
        <time>2016-07-05T09:04:21Z</time>
      </trkpt>
      <trkpt lat="43.15163" lon="2.28971">
        <ele>131</ele>
        <time>2016-07-05T09:06:21Z</time>
      </trkpt>
      <trkpt lat="43.15156" lon="2.28973">
        <ele>131</ele>
        <time>2016-07-05T09:08:21Z</time>
      </trkpt>
      <trkpt lat="43.15111" lon="2.28996">
        <ele>130</ele>
        <time>2016-07-05T09:10:21Z</time>
      </trkpt>
      <trkpt lat="43.15067" lon="2.29018">
        <ele>129</ele>
        <time>2016-07-05T09:12:21Z</time>
      </trkpt>
      <trkpt lat="43.15006" lon="2.29047">
        <ele>128</ele>
        <time>2016-07-05T09:14:21Z</time>
      </trkpt>
      <trkpt lat="43.14895" lon="2.29101">
        <ele>128</ele>
        <time>2016-07-05T09:16:21Z</time>
      </trkpt>
      <trkpt lat="43.14889" lon="2.29104">
        <ele>128</ele>
        <time>2016-07-05T09:18:21Z</time>
      </trkpt>
      <trkpt lat="43.14871" lon="2.29112">
        <ele>128</ele>
        <time>2016-07-05T09:20:21Z</time>
      </trkpt>
      <trkpt lat="43.14866" lon="2.29115">
        <ele>128</ele>
        <time>2016-07-05T09:22:21Z</time>
      </trkpt>
      <trkpt lat="43.14864" lon="2.29116">
        <ele>128</ele>
        <time>2016-07-05T09:24:21Z</time>
      </trkpt>
      <trkpt lat="43.1486" lon="2.29118">
        <ele>128</ele>
        <time>2016-07-05T09:26:21Z</time>
      </trkpt>
      <trkpt lat="43.1475" lon="2.29172">
        <ele>128</ele>
        <time>2016-07-05T09:28:21Z</time>
      </trkpt>
      <trkpt lat="43.1469" lon="2.29202">
        <ele>128</ele>
        <time>2016-07-05T09:30:21Z</time>
      </trkpt>
      <trkpt lat="43.14644" lon="2.29224">
        <ele>129</ele>
        <time>2016-07-05T09:32:21Z</time>
      </trkpt>
      <trkpt lat="43.14628" lon="2.29231">
        <ele>129</ele>
        <time>2016-07-05T09:34:21Z</time>
      </trkpt>
      <trkpt lat="43.14562" lon="2.29264">
        <ele>131</ele>
        <time>2016-07-05T09:36:21Z</time>
      </trkpt>
      <trkpt lat="43.1452" lon="2.29284">
        <ele>130</ele>
        <time>2016-07-05T09:38:21Z</time>
      </trkpt>
      <trkpt lat="43.14494" lon="2.29297">
        <ele>131</ele>
        <time>2016-07-05T09:40:21Z</time>
      </trkpt>
      <trkpt lat="43.1448" lon="2.29305">
        <ele>132</ele>
        <time>2016-07-05T09:42:21Z</time>
      </trkpt>
      <trkpt lat="43.14467" lon="2.29313">
        <ele>133</ele>
        <time>2016-07-05T09:44:21Z</time>
      </trkpt>
      <trkpt lat="43.14455" lon="2.29322">
        <ele>133</ele>
        <time>2016-07-05T09:46:21Z</time>
      </trkpt>
      <trkpt lat="43.14442" lon="2.29332">
        <ele>134</ele>
        <time>2016-07-05T09:48:21Z</time>
      </trkpt>
      <trkpt lat="43.1443" lon="2.29343">
        <ele>134</ele>
        <time>2016-07-05T09:50:21Z</time>
      </trkpt>
      <trkpt lat="43.14419" lon="2.29353">
        <ele>135</ele>
        <time>2016-07-05T09:52:21Z</time>
      </trkpt>
      <trkpt lat="43.1441" lon="2.29363">
        <ele>136</ele>
        <time>2016-07-05T09:54:21Z</time>
      </trkpt>
      <trkpt lat="43.14402" lon="2.29373">
        <ele>136</ele>
        <time>2016-07-05T09:56:21Z</time>
      </trkpt>
      <trkpt lat="43.14393" lon="2.29385">
        <ele>137</ele>
        <time>2016-07-05T09:58:21Z</time>
      </trkpt>
      <trkpt lat="43.14388" lon="2.29391">
        <ele>138</ele>
        <time>2016-07-05T10:00:21Z</time>
      </trkpt>
      <trkpt lat="43.14384" lon="2.29397">
        <ele>138</ele>
        <time>2016-07-05T10:02:21Z</time>
      </trkpt>
      <trkpt lat="43.1438" lon="2.29403">
        <ele>138</ele>
        <time>2016-07-05T10:04:21Z</time>
      </trkpt>
      <trkpt lat="43.14365" lon="2.29429">
        <ele>139</ele>
        <time>2016-07-05T10:06:21Z</time>
      </trkpt>
      <trkpt lat="43.14352" lon="2.29453">
        <ele>139</ele>
        <time>2016-07-05T10:08:21Z</time>
      </trkpt>
      <trkpt lat="43.1435" lon="2.29457">
        <ele>139</ele>
        <time>2016-07-05T10:10:21Z</time>
      </trkpt>
      <trkpt lat="43.14342" lon="2.29472">
        <ele>139</ele>
        <time>2016-07-05T10:12:21Z</time>
      </trkpt>
      <trkpt lat="43.14309" lon="2.29542">
        <ele>139</ele>
        <time>2016-07-05T10:14:21Z</time>
      </trkpt>
      <trkpt lat="43.14304" lon="2.29553">
        <ele>139</ele>
        <time>2016-07-05T10:16:21Z</time>
      </trkpt>
      <trkpt lat="43.14213" lon="2.29741">
        <ele>138</ele>
        <time>2016-07-05T10:18:21Z</time>
      </trkpt>
      <trkpt lat="43.14192" lon="2.29784">
        <ele>137</ele>
        <time>2016-07-05T10:20:21Z</time>
      </trkpt>
      <trkpt lat="43.14175" lon="2.29821">
        <ele>136</ele>
        <time>2016-07-05T10:22:21Z</time>
      </trkpt>
      <trkpt lat="43.1417" lon="2.29832">
        <ele>136</ele>
        <time>2016-07-05T10:24:21Z</time>
      </trkpt>
      <trkpt lat="43.14145" lon="2.29883">
        <ele>137</ele>
        <time>2016-07-05T10:26:21Z</time>
      </trkpt>
      <trkpt lat="43.14133" lon="2.29908">
        <ele>137</ele>
        <time>2016-07-05T10:28:21Z</time>
      </trkpt>
      <trkpt lat="43.14125" lon="2.29923">
        <ele>138</ele>
        <time>2016-07-05T10:30:21Z</time>
      </trkpt>
      <trkpt lat="43.14117" lon="2.29938">
        <ele>138</ele>
        <time>2016-07-05T10:32:21Z</time>
      </trkpt>
      <trkpt lat="43.14106" lon="2.29956">
        <ele>138</ele>
        <time>2016-07-05T10:34:21Z</time>
      </trkpt>
      <trkpt lat="43.14092" lon="2.29978">
        <ele>138</ele>
        <time>2016-07-05T10:36:21Z</time>
      </trkpt>
      <trkpt lat="43.14082" lon="2.2999">
        <ele>139</ele>
        <time>2016-07-05T10:38:21Z</time>
      </trkpt>
      <trkpt lat="43.14074" lon="2.29999">
        <ele>139</ele>
        <time>2016-07-05T10:40:21Z</time>
      </trkpt>
      <trkpt lat="43.14056" lon="2.30018">
        <ele>139</ele>
        <time>2016-07-05T10:42:21Z</time>
      </trkpt>
      <trkpt lat="43.1404" lon="2.30032">
        <ele>139</ele>
        <time>2016-07-05T10:44:21Z</time>
      </trkpt>
      <trkpt lat="43.14021" lon="2.30047">
        <ele>140</ele>
        <time>2016-07-05T10:46:21Z</time>
      </trkpt>
      <trkpt lat="43.14008" lon="2.30055">
        <ele>140</ele>
        <time>2016-07-05T10:48:21Z</time>
      </trkpt>
      <trkpt lat="43.13994" lon="2.30063">
        <ele>140</ele>
        <time>2016-07-05T10:50:21Z</time>
      </trkpt>
      <trkpt lat="43.13973" lon="2.30072">
        <ele>141</ele>
        <time>2016-07-05T10:52:21Z</time>
      </trkpt>
      <trkpt lat="43.13957" lon="2.30077">
        <ele>141</ele>
        <time>2016-07-05T10:54:21Z</time>
      </trkpt>
      <trkpt lat="43.13946" lon="2.3008">
        <ele>141</ele>
        <time>2016-07-05T10:56:21Z</time>
      </trkpt>
      <trkpt lat="43.13933" lon="2.30082">
        <ele>142</ele>
        <time>2016-07-05T10:58:21Z</time>
      </trkpt>
      <trkpt lat="43.13917" lon="2.30084">
        <ele>143</ele>
        <time>2016-07-05T11:00:21Z</time>
      </trkpt>
      <trkpt lat="43.13898" lon="2.30085">
        <ele>143</ele>
        <time>2016-07-05T11:02:21Z</time>
      </trkpt>
      <trkpt lat="43.1389" lon="2.30085">
        <ele>143</ele>
        <time>2016-07-05T11:04:21Z</time>
      </trkpt>
      <trkpt lat="43.1388" lon="2.30085">
        <ele>144</ele>
        <time>2016-07-05T11:06:21Z</time>
      </trkpt>
      <trkpt lat="43.1387" lon="2.30084">
        <ele>144</ele>
        <time>2016-07-05T11:08:21Z</time>
      </trkpt>
      <trkpt lat="43.13857" lon="2.30081">
        <ele>144</ele>
        <time>2016-07-05T11:10:21Z</time>
      </trkpt>
      <trkpt lat="43.13847" lon="2.30079">
        <ele>145</ele>
        <time>2016-07-05T11:12:21Z</time>
      </trkpt>
      <trkpt lat="43.13829" lon="2.30074">
        <ele>145</ele>
        <time>2016-07-05T11:14:21Z</time>
      </trkpt>
      <trkpt lat="43.138" lon="2.30062">
        <ele>144</ele>
        <time>2016-07-05T11:16:21Z</time>
      </trkpt>
      <trkpt lat="43.13662" lon="2.29998">
        <ele>143</ele>
        <time>2016-07-05T11:18:21Z</time>
      </trkpt>
      <trkpt lat="43.13641" lon="2.29989">
        <ele>142</ele>
        <time>2016-07-05T11:20:21Z</time>
      </trkpt>
      <trkpt lat="43.13627" lon="2.29983">
        <ele>142</ele>
        <time>2016-07-05T11:22:21Z</time>
      </trkpt>
      <trkpt lat="43.13624" lon="2.29982">
        <ele>141</ele>
        <time>2016-07-05T11:24:21Z</time>
      </trkpt>
      <trkpt lat="43.13557" lon="2.29956">
        <ele>141</ele>
        <time>2016-07-05T11:26:21Z</time>
      </trkpt>
      <trkpt lat="43.13469" lon="2.29925">
        <ele>142</ele>
        <time>2016-07-05T11:28:21Z</time>
      </trkpt>
      <trkpt lat="43.1346" lon="2.29921">
        <ele>143</ele>
        <time>2016-07-05T11:30:21Z</time>
      </trkpt>
      <trkpt lat="43.13408" lon="2.29903">
        <ele>144</ele>
        <time>2016-07-05T11:32:21Z</time>
      </trkpt>
      <trkpt lat="43.13392" lon="2.29897">
        <ele>143</ele>
        <time>2016-07-05T11:34:21Z</time>
      </trkpt>
      <trkpt lat="43.13373" lon="2.2989">
        <ele>143</ele>
        <time>2016-07-05T11:36:21Z</time>
      </trkpt>
      <trkpt lat="43.13365" lon="2.29887">
        <ele>143</ele>
        <time>2016-07-05T11:38:21Z</time>
      </trkpt>
      <trkpt lat="43.13349" lon="2.29882">
        <ele>143</ele>
        <time>2016-07-05T11:40:21Z</time>
      </trkpt>
      <trkpt lat="43.13331" lon="2.29878">
        <ele>142</ele>
        <time>2016-07-05T11:42:21Z</time>
      </trkpt>
      <trkpt lat="43.13313" lon="2.29874">
        <ele>142</ele>
        <time>2016-07-05T11:44:21Z</time>
      </trkpt>
      <trkpt lat="43.13298" lon="2.29872">
        <ele>141</ele>
        <time>2016-07-05T11:46:21Z</time>
      </trkpt>
      <trkpt lat="43.13274" lon="2.29871">
        <ele>139</ele>
        <time>2016-07-05T11:48:21Z</time>
      </trkpt>
      <trkpt lat="43.13243" lon="2.29873">
        <ele>138</ele>
        <time>2016-07-05T11:50:21Z</time>
      </trkpt>
      <trkpt lat="43.1323" lon="2.29875">
        <ele>138</ele>
        <time>2016-07-05T11:52:21Z</time>
      </trkpt>
      <trkpt lat="43.13217" lon="2.29878">
        <ele>138</ele>
        <time>2016-07-05T11:54:21Z</time>
      </trkpt>
      <trkpt lat="43.132" lon="2.29883">
        <ele>138</ele>
        <time>2016-07-05T11:56:21Z</time>
      </trkpt>
      <trkpt lat="43.13178" lon="2.29891">
        <ele>138</ele>
        <time>2016-07-05T11:58:21Z</time>
      </trkpt>
      <trkpt lat="43.13159" lon="2.299">
        <ele>138</ele>
        <time>2016-07-05T12:00:21Z</time>
      </trkpt>
      <trkpt lat="43.13154" lon="2.29902">
        <ele>138</ele>
        <time>2016-07-05T12:02:21Z</time>
      </trkpt>
      <trkpt lat="43.13143" lon="2.29909">
        <ele>138</ele>
        <time>2016-07-05T12:04:21Z</time>
      </trkpt>
      <trkpt lat="43.1313" lon="2.29917">
        <ele>138</ele>
        <time>2016-07-05T12:06:21Z</time>
      </trkpt>
      <trkpt lat="43.13103" lon="2.29934">
        <ele>137</ele>
        <time>2016-07-05T12:08:21Z</time>
      </trkpt>
      <trkpt lat="43.13071" lon="2.29956">
        <ele>137</ele>
        <time>2016-07-05T12:10:21Z</time>
      </trkpt>
      <trkpt lat="43.13017" lon="2.29993">
        <ele>137</ele>
        <time>2016-07-05T12:12:21Z</time>
      </trkpt>
      <trkpt lat="43.12996" lon="2.30007">
        <ele>137</ele>
        <time>2016-07-05T12:14:21Z</time>
      </trkpt>
      <trkpt lat="43.12981" lon="2.30018">
        <ele>138</ele>
        <time>2016-07-05T12:16:21Z</time>
      </trkpt>
      <trkpt lat="43.1287" lon="2.30091">
        <ele>136</ele>
        <time>2016-07-05T12:18:21Z</time>
      </trkpt>
      <trkpt lat="43.12858" lon="2.30098">
        <ele>136</ele>
        <time>2016-07-05T12:20:21Z</time>
      </trkpt>
      <trkpt lat="43.12846" lon="2.30105">
        <ele>136</ele>
        <time>2016-07-05T12:22:21Z</time>
      </trkpt>
      <trkpt lat="43.12828" lon="2.30112">
        <ele>136</ele>
        <time>2016-07-05T12:24:21Z</time>
      </trkpt>
      <trkpt lat="43.12812" lon="2.30117">
        <ele>136</ele>
        <time>2016-07-05T12:26:21Z</time>
      </trkpt>
      <trkpt lat="43.12794" lon="2.3012">
        <ele>136</ele>
        <time>2016-07-05T12:28:21Z</time>
      </trkpt>
      <trkpt lat="43.12779" lon="2.30121">
        <ele>137</ele>
        <time>2016-07-05T12:30:21Z</time>
      </trkpt>
      <trkpt lat="43.12768" lon="2.30121">
        <ele>137</ele>
        <time>2016-07-05T12:32:21Z</time>
      </trkpt>
      <trkpt lat="43.12759" lon="2.3012">
        <ele>137</ele>
        <time>2016-07-05T12:34:21Z</time>
      </trkpt>
      <trkpt lat="43.1275" lon="2.30119">
        <ele>137</ele>
        <time>2016-07-05T12:36:21Z</time>
      </trkpt>
      <trkpt lat="43.12741" lon="2.30117">
        <ele>137</ele>
        <time>2016-07-05T12:38:21Z</time>
      </trkpt>
      <trkpt lat="43.12728" lon="2.30112">
        <ele>138</ele>
        <time>2016-07-05T12:40:21Z</time>
      </trkpt>
      <trkpt lat="43.12719" lon="2.30109">
        <ele>138</ele>
        <time>2016-07-05T12:42:21Z</time>
      </trkpt>
      <trkpt lat="43.1271" lon="2.30104">
        <ele>138</ele>
        <time>2016-07-05T12:44:21Z</time>
      </trkpt>
      <trkpt lat="43.12699" lon="2.30097">
        <ele>138</ele>
        <time>2016-07-05T12:46:21Z</time>
      </trkpt>
      <trkpt lat="43.12689" lon="2.3009">
        <ele>138</ele>
        <time>2016-07-05T12:48:21Z</time>
      </trkpt>
      <trkpt lat="43.12678" lon="2.30081">
        <ele>138</ele>
        <time>2016-07-05T12:50:21Z</time>
      </trkpt>
      <trkpt lat="43.12668" lon="2.30071">
        <ele>138</ele>
        <time>2016-07-05T12:52:21Z</time>
      </trkpt>
      <trkpt lat="43.12661" lon="2.30063">
        <ele>138</ele>
        <time>2016-07-05T12:54:21Z</time>
      </trkpt>
      <trkpt lat="43.12652" lon="2.30051">
        <ele>138</ele>
        <time>2016-07-05T12:56:21Z</time>
      </trkpt>
      <trkpt lat="43.12643" lon="2.3004">
        <ele>138</ele>
        <time>2016-07-05T12:58:21Z</time>
      </trkpt>
      <trkpt lat="43.12635" lon="2.30027">
        <ele>138</ele>
        <time>2016-07-05T13:00:21Z</time>
      </trkpt>
      <trkpt lat="43.12626" lon="2.30011">
        <ele>138</ele>
        <time>2016-07-05T13:02:21Z</time>
      </trkpt>
      <trkpt lat="43.1262" lon="2.3">
        <ele>138</ele>
        <time>2016-07-05T13:04:21Z</time>
      </trkpt>
      <trkpt lat="43.12616" lon="2.29991">
        <ele>138</ele>
        <time>2016-07-05T13:06:21Z</time>
      </trkpt>
      <trkpt lat="43.12607" lon="2.29973">
        <ele>137</ele>
        <time>2016-07-05T13:08:21Z</time>
      </trkpt>
      <trkpt lat="43.12602" lon="2.29962">
        <ele>137</ele>
        <time>2016-07-05T13:10:21Z</time>
      </trkpt>
      <trkpt lat="43.12588" lon="2.2993">
        <ele>136</ele>
        <time>2016-07-05T13:12:21Z</time>
      </trkpt>
      <trkpt lat="43.12504" lon="2.29739">
        <ele>136</ele>
        <time>2016-07-05T13:14:21Z</time>
      </trkpt>
      <trkpt lat="43.12468" lon="2.29657">
        <ele>137</ele>
        <time>2016-07-05T13:16:21Z</time>
      </trkpt>
      <trkpt lat="43.12428" lon="2.29566">
        <ele>141</ele>
        <time>2016-07-05T13:18:21Z</time>
      </trkpt>
      <trkpt lat="43.12378" lon="2.29451">
        <ele>144</ele>
        <time>2016-07-05T13:20:21Z</time>
      </trkpt>
      <trkpt lat="43.12369" lon="2.29428">
        <ele>144</ele>
        <time>2016-07-05T13:22:21Z</time>
      </trkpt>
      <trkpt lat="43.12342" lon="2.2937">
        <ele>143</ele>
        <time>2016-07-05T13:24:21Z</time>
      </trkpt>
      <trkpt lat="43.12312" lon="2.29309">
        <ele>144</ele>
        <time>2016-07-05T13:26:21Z</time>
      </trkpt>
      <trkpt lat="43.12278" lon="2.29247">
        <ele>145</ele>
        <time>2016-07-05T13:28:21Z</time>
      </trkpt>
      <trkpt lat="43.12245" lon="2.29195">
        <ele>144</ele>
        <time>2016-07-05T13:30:21Z</time>
      </trkpt>
      <trkpt lat="43.12208" lon="2.29137">
        <ele>147</ele>
        <time>2016-07-05T13:32:21Z</time>
      </trkpt>
      <trkpt lat="43.1214" lon="2.29033">
        <ele>150</ele>
        <time>2016-07-05T13:34:21Z</time>
      </trkpt>
      <trkpt lat="43.12095" lon="2.28965">
        <ele>149</ele>
        <time>2016-07-05T13:36:21Z</time>
      </trkpt>
      <trkpt lat="43.11986" lon="2.28798">
        <ele>151</ele>
        <time>2016-07-05T13:38:21Z</time>
      </trkpt>
      <trkpt lat="43.11951" lon="2.28741">
        <ele>150</ele>
        <time>2016-07-05T13:40:21Z</time>
      </trkpt>
      <trkpt lat="43.11898" lon="2.2866">
        <ele>146</ele>
        <time>2016-07-05T13:42:21Z</time>
      </trkpt>
      <trkpt lat="43.11876" lon="2.28626">
        <ele>144</ele>
        <time>2016-07-05T13:44:21Z</time>
      </trkpt>
      <trkpt lat="43.11846" lon="2.28576">
        <ele>142</ele>
        <time>2016-07-05T13:46:21Z</time>
      </trkpt>
      <trkpt lat="43.11838" lon="2.28559">
        <ele>142</ele>
        <time>2016-07-05T13:48:21Z</time>
      </trkpt>
      <trkpt lat="43.1184" lon="2.28556">
        <ele>142</ele>
        <time>2016-07-05T13:50:21Z</time>
      </trkpt>
      <trkpt lat="43.11841" lon="2.28552">
        <ele>142</ele>
        <time>2016-07-05T13:52:21Z</time>
      </trkpt>
      <trkpt lat="43.11841" lon="2.28549">
        <ele>142</ele>
        <time>2016-07-05T13:54:21Z</time>
      </trkpt>
      <trkpt lat="43.11842" lon="2.28546">
        <ele>142</ele>
        <time>2016-07-05T13:56:21Z</time>
      </trkpt>
      <trkpt lat="43.11842" lon="2.28542">
        <ele>143</ele>
        <time>2016-07-05T13:58:21Z</time>
      </trkpt>
      <trkpt lat="43.11842" lon="2.28539">
        <ele>143</ele>
        <time>2016-07-05T14:00:21Z</time>
      </trkpt>
      <trkpt lat="43.11842" lon="2.28535">
        <ele>143</ele>
        <time>2016-07-05T14:02:21Z</time>
      </trkpt>
      <trkpt lat="43.11841" lon="2.28532">
        <ele>143</ele>
        <time>2016-07-05T14:04:21Z</time>
      </trkpt>
      <trkpt lat="43.1184" lon="2.28529">
        <ele>143</ele>
        <time>2016-07-05T14:06:21Z</time>
      </trkpt>
      <trkpt lat="43.11839" lon="2.28525">
        <ele>143</ele>
        <time>2016-07-05T14:08:21Z</time>
      </trkpt>
      <trkpt lat="43.11837" lon="2.2852">
        <ele>143</ele>
        <time>2016-07-05T14:10:21Z</time>
      </trkpt>
      <trkpt lat="43.11835" lon="2.28518">
        <ele>143</ele>
        <time>2016-07-05T14:12:21Z</time>
      </trkpt>
      <trkpt lat="43.11835" lon="2.28517">
        <ele>143</ele>
        <time>2016-07-05T14:14:21Z</time>
      </trkpt>
      <trkpt lat="43.11833" lon="2.28516">
        <ele>143</ele>
        <time>2016-07-05T14:16:21Z</time>
      </trkpt>
      <trkpt lat="43.11831" lon="2.28513">
        <ele>143</ele>
        <time>2016-07-05T14:18:21Z</time>
      </trkpt>
      <trkpt lat="43.11829" lon="2.28512">
        <ele>143</ele>
        <time>2016-07-05T14:20:21Z</time>
      </trkpt>
      <trkpt lat="43.11827" lon="2.2851">
        <ele>142</ele>
        <time>2016-07-05T14:22:21Z</time>
      </trkpt>
      <trkpt lat="43.11826" lon="2.2851">
        <ele>142</ele>
        <time>2016-07-05T14:24:21Z</time>
      </trkpt>
      <trkpt lat="43.11824" lon="2.28509">
        <ele>142</ele>
        <time>2016-07-05T14:26:21Z</time>
      </trkpt>
      <trkpt lat="43.11822" lon="2.28508">
        <ele>142</ele>
        <time>2016-07-05T14:28:21Z</time>
      </trkpt>
      <trkpt lat="43.11819" lon="2.28508">
        <ele>142</ele>
        <time>2016-07-05T14:30:21Z</time>
      </trkpt>
      <trkpt lat="43.11817" lon="2.28508">
        <ele>142</ele>
        <time>2016-07-05T14:32:21Z</time>
      </trkpt>
      <trkpt lat="43.11814" lon="2.28508">
        <ele>142</ele>
        <time>2016-07-05T14:34:21Z</time>
      </trkpt>
      <trkpt lat="43.1181" lon="2.2851">
        <ele>142</ele>
        <time>2016-07-05T14:36:21Z</time>
      </trkpt>
      <trkpt lat="43.11795" lon="2.28489">
        <ele>141</ele>
        <time>2016-07-05T14:38:21Z</time>
      </trkpt>
      <trkpt lat="43.11792" lon="2.28486">
        <ele>141</ele>
        <time>2016-07-05T14:40:21Z</time>
      </trkpt>
      <trkpt lat="43.11792" lon="2.28484">
        <ele>141</ele>
        <time>2016-07-05T14:42:21Z</time>
      </trkpt>
      <trkpt lat="43.11784" lon="2.2847">
        <ele>141</ele>
        <time>2016-07-05T14:44:21Z</time>
      </trkpt>
      <trkpt lat="43.11777" lon="2.28455">
        <ele>141</ele>
        <time>2016-07-05T14:46:21Z</time>
      </trkpt>
      <trkpt lat="43.11764" lon="2.2843">
        <ele>141</ele>
        <time>2016-07-05T14:48:21Z</time>
      </trkpt>
      <trkpt lat="43.11751" lon="2.28396">
        <ele>143</ele>
        <time>2016-07-05T14:50:21Z</time>
      </trkpt>
      <trkpt lat="43.11747" lon="2.28382">
        <ele>144</ele>
        <time>2016-07-05T14:52:21Z</time>
      </trkpt>
      <trkpt lat="43.1174" lon="2.28352">
        <ele>146</ele>
        <time>2016-07-05T14:54:21Z</time>
      </trkpt>
      <trkpt lat="43.11734" lon="2.28329">
        <ele>147</ele>
        <time>2016-07-05T14:56:21Z</time>
      </trkpt>
      <trkpt lat="43.11729" lon="2.283">
        <ele>150</ele>
        <time>2016-07-05T14:58:21Z</time>
      </trkpt>
      <trkpt lat="43.11711" lon="2.28224">
        <ele>154</ele>
        <time>2016-07-05T15:00:21Z</time>
      </trkpt>
      <trkpt lat="43.11705" lon="2.28209">
        <ele>154</ele>
        <time>2016-07-05T15:02:21Z</time>
      </trkpt>
      <trkpt lat="43.11694" lon="2.28171">
        <ele>154</ele>
        <time>2016-07-05T15:04:21Z</time>
      </trkpt>
      <trkpt lat="43.11682" lon="2.28136">
        <ele>154</ele>
        <time>2016-07-05T15:06:21Z</time>
      </trkpt>
      <trkpt lat="43.11677" lon="2.28123">
        <ele>154</ele>
        <time>2016-07-05T15:08:21Z</time>
      </trkpt>
      <trkpt lat="43.11668" lon="2.28103">
        <ele>154</ele>
        <time>2016-07-05T15:10:21Z</time>
      </trkpt>
      <trkpt lat="43.11661" lon="2.28083">
        <ele>155</ele>
        <time>2016-07-05T15:12:21Z</time>
      </trkpt>
      <trkpt lat="43.11639" lon="2.28022">
        <ele>158</ele>
        <time>2016-07-05T15:14:21Z</time>
      </trkpt>
      <trkpt lat="43.1162" lon="2.2797">
        <ele>159</ele>
        <time>2016-07-05T15:16:21Z</time>
      </trkpt>
      <trkpt lat="43.1161" lon="2.27943">
        <ele>159</ele>
        <time>2016-07-05T15:18:21Z</time>
      </trkpt>
      <trkpt lat="43.11596" lon="2.27909">
        <ele>158</ele>
        <time>2016-07-05T15:20:21Z</time>
      </trkpt>
      <trkpt lat="43.11585" lon="2.27884">
        <ele>157</ele>
        <time>2016-07-05T15:22:21Z</time>
      </trkpt>
      <trkpt lat="43.11576" lon="2.27865">
        <ele>158</ele>
        <time>2016-07-05T15:24:21Z</time>
      </trkpt>
      <trkpt lat="43.11567" lon="2.27847">
        <ele>158</ele>
        <time>2016-07-05T15:26:21Z</time>
      </trkpt>
      <trkpt lat="43.11554" lon="2.27825">
        <ele>158</ele>
        <time>2016-07-05T15:28:21Z</time>
      </trkpt>
      <trkpt lat="43.11533" lon="2.27789">
        <ele>157</ele>
        <time>2016-07-05T15:30:21Z</time>
      </trkpt>
      <trkpt lat="43.11493" lon="2.27727">
        <ele>152</ele>
        <time>2016-07-05T15:32:21Z</time>
      </trkpt>
      <trkpt lat="43.11465" lon="2.2768">
        <ele>152</ele>
        <time>2016-07-05T15:34:21Z</time>
      </trkpt>
      <trkpt lat="43.1146" lon="2.27671">
        <ele>151</ele>
        <time>2016-07-05T15:36:21Z</time>
      </trkpt>
      <trkpt lat="43.11344" lon="2.27451">
        <ele>157</ele>
        <time>2016-07-05T15:38:21Z</time>
      </trkpt>
      <trkpt lat="43.1123" lon="2.27232">
        <ele>155</ele>
        <time>2016-07-05T15:40:21Z</time>
      </trkpt>
      <trkpt lat="43.11223" lon="2.27211">
        <ele>156</ele>
        <time>2016-07-05T15:42:21Z</time>
      </trkpt>
      <trkpt lat="43.11207" lon="2.27171">
        <ele>156</ele>
        <time>2016-07-05T15:44:21Z</time>
      </trkpt>
      <trkpt lat="43.11169" lon="2.27082">
        <ele>154</ele>
        <time>2016-07-05T15:46:21Z</time>
      </trkpt>
      <trkpt lat="43.11159" lon="2.2706">
        <ele>153</ele>
        <time>2016-07-05T15:48:21Z</time>
      </trkpt>
      <trkpt lat="43.11159" lon="2.2706">
        <ele>153</ele>
        <time>2016-07-05T15:50:21Z</time>
      </trkpt>
      <trkpt lat="43.11165" lon="2.27058">
        <ele>154</ele>
        <time>2016-07-05T15:52:21Z</time>
      </trkpt>
      <trkpt lat="43.11167" lon="2.27057">
        <ele>154</ele>
        <time>2016-07-05T15:54:21Z</time>
      </trkpt>
      <trkpt lat="43.11167" lon="2.27057">
        <ele>154</ele>
        <time>2016-07-05T15:56:21Z</time>
      </trkpt>
      <trkpt lat="43.11101" lon="2.26883">
        <ele>155</ele>
        <time>2016-07-05T15:58:21Z</time>
      </trkpt>
      <trkpt lat="43.11091" lon="2.2685">
        <ele>154</ele>
        <time>2016-07-05T16:00:21Z</time>
      </trkpt>
      <trkpt lat="43.1105" lon="2.26732">
        <ele>150</ele>
        <time>2016-07-05T16:02:21Z</time>
      </trkpt>
      <trkpt lat="43.11048" lon="2.26724">
        <ele>150</ele>
        <time>2016-07-05T16:04:21Z</time>
      </trkpt>
      <trkpt lat="43.11028" lon="2.26661">
        <ele>149</ele>
        <time>2016-07-05T16:06:21Z</time>
      </trkpt>
      <trkpt lat="43.11026" lon="2.26657">
        <ele>149</ele>
        <time>2016-07-05T16:08:21Z</time>
      </trkpt>
      <trkpt lat="43.10963" lon="2.26486">
        <ele>148</ele>
        <time>2016-07-05T16:10:21Z</time>
      </trkpt>
      <trkpt lat="43.10931" lon="2.26393">
        <ele>149</ele>
        <time>2016-07-05T16:12:21Z</time>
      </trkpt>
      <trkpt lat="43.10889" lon="2.26293">
        <ele>151</ele>
        <time>2016-07-05T16:14:21Z</time>
      </trkpt>
      <trkpt lat="43.10849" lon="2.26187">
        <ele>153</ele>
        <time>2016-07-05T16:16:21Z</time>
      </trkpt>
      <trkpt lat="43.10798" lon="2.26063">
        <ele>154</ele>
        <time>2016-07-05T16:18:21Z</time>
      </trkpt>
      <trkpt lat="43.1077" lon="2.26">
        <ele>156</ele>
        <time>2016-07-05T16:20:21Z</time>
      </trkpt>
      <trkpt lat="43.1073" lon="2.25896">
        <ele>156</ele>
        <time>2016-07-05T16:22:21Z</time>
      </trkpt>
      <trkpt lat="43.10669" lon="2.25734">
        <ele>156</ele>
        <time>2016-07-05T16:24:21Z</time>
      </trkpt>
      <trkpt lat="43.10667" lon="2.25729">
        <ele>156</ele>
        <time>2016-07-05T16:26:21Z</time>
      </trkpt>
      <trkpt lat="43.10648" lon="2.25677">
        <ele>156</ele>
        <time>2016-07-05T16:28:21Z</time>
      </trkpt>
      <trkpt lat="43.10646" lon="2.25671">
        <ele>156</ele>
        <time>2016-07-05T16:30:21Z</time>
      </trkpt>
      <trkpt lat="43.10636" lon="2.25643">
        <ele>157</ele>
        <time>2016-07-05T16:32:21Z</time>
      </trkpt>
      <trkpt lat="43.10626" lon="2.25614">
        <ele>157</ele>
        <time>2016-07-05T16:34:21Z</time>
      </trkpt>
      <trkpt lat="43.10607" lon="2.25548">
        <ele>157</ele>
        <time>2016-07-05T16:36:21Z</time>
      </trkpt>
      <trkpt lat="43.10591" lon="2.25478">
        <ele>156</ele>
        <time>2016-07-05T16:38:21Z</time>
      </trkpt>
      <trkpt lat="43.10549" lon="2.25298">
        <ele>154</ele>
        <time>2016-07-05T16:40:21Z</time>
      </trkpt>
      <trkpt lat="43.1053" lon="2.25209">
        <ele>154</ele>
        <time>2016-07-05T16:42:21Z</time>
      </trkpt>
      <trkpt lat="43.1053" lon="2.25208">
        <ele>154</ele>
        <time>2016-07-05T16:44:21Z</time>
      </trkpt>
      <trkpt lat="43.10513" lon="2.25149">
        <ele>154</ele>
        <time>2016-07-05T16:46:21Z</time>
      </trkpt>
      <trkpt lat="43.10511" lon="2.25124">
        <ele>154</ele>
        <time>2016-07-05T16:48:21Z</time>
      </trkpt>
      <trkpt lat="43.10512" lon="2.25106">
        <ele>154</ele>
        <time>2016-07-05T16:50:21Z</time>
      </trkpt>
      <trkpt lat="43.10515" lon="2.25088">
        <ele>154</ele>
        <time>2016-07-05T16:52:21Z</time>
      </trkpt>
      <trkpt lat="43.10516" lon="2.25084">
        <ele>155</ele>
        <time>2016-07-05T16:54:21Z</time>
      </trkpt>
      <trkpt lat="43.10516" lon="2.25081">
        <ele>155</ele>
        <time>2016-07-05T16:56:21Z</time>
      </trkpt>
      <trkpt lat="43.10515" lon="2.25075">
        <ele>154</ele>
        <time>2016-07-05T16:58:21Z</time>
      </trkpt>
      <trkpt lat="43.10514" lon="2.25072">
        <ele>154</ele>
        <time>2016-07-05T17:00:21Z</time>
      </trkpt>
      <trkpt lat="43.10512" lon="2.2507">
        <ele>154</ele>
        <time>2016-07-05T17:02:21Z</time>
      </trkpt>
      <trkpt lat="43.10511" lon="2.25068">
        <ele>154</ele>
        <time>2016-07-05T17:04:21Z</time>
      </trkpt>
      <trkpt lat="43.10508" lon="2.25066">
        <ele>154</ele>
        <time>2016-07-05T17:06:21Z</time>
      </trkpt>
      <trkpt lat="43.10506" lon="2.25066">
        <ele>154</ele>
        <time>2016-07-05T17:08:21Z</time>
      </trkpt>
      <trkpt lat="43.10504" lon="2.25065">
        <ele>154</ele>
        <time>2016-07-05T17:10:21Z</time>
      </trkpt>
      <trkpt lat="43.105" lon="2.25066">
        <ele>154</ele>
        <time>2016-07-05T17:12:21Z</time>
      </trkpt>
      <trkpt lat="43.10496" lon="2.25065">
        <ele>154</ele>
        <time>2016-07-05T17:14:21Z</time>
      </trkpt>
      <trkpt lat="43.10491" lon="2.25063">
        <ele>153</ele>
        <time>2016-07-05T17:16:21Z</time>
      </trkpt>
      <trkpt lat="43.10491" lon="2.25063">
        <ele>153</ele>
        <time>2016-07-05T17:18:21Z</time>
      </trkpt>
      <trkpt lat="43.10489" lon="2.25058">
        <ele>153</ele>
        <time>2016-07-05T17:20:21Z</time>
      </trkpt>
      <trkpt lat="43.10488" lon="2.25056">
        <ele>153</ele>
        <time>2016-07-05T17:22:21Z</time>
      </trkpt>
      <trkpt lat="43.10486" lon="2.25053">
        <ele>153</ele>
        <time>2016-07-05T17:24:21Z</time>
      </trkpt>
      <trkpt lat="43.10485" lon="2.25051">
        <ele>153</ele>
        <time>2016-07-05T17:26:21Z</time>
      </trkpt>
      <trkpt lat="43.10484" lon="2.2505">
        <ele>153</ele>
        <time>2016-07-05T17:28:21Z</time>
      </trkpt>
      <trkpt lat="43.10482" lon="2.25049">
        <ele>153</ele>
        <time>2016-07-05T17:30:21Z</time>
      </trkpt>
      <trkpt lat="43.10479" lon="2.25047">
        <ele>153</ele>
        <time>2016-07-05T17:32:21Z</time>
      </trkpt>
      <trkpt lat="43.10476" lon="2.25046">
        <ele>153</ele>
        <time>2016-07-05T17:34:21Z</time>
      </trkpt>
      <trkpt lat="43.10473" lon="2.25045">
        <ele>153</ele>
        <time>2016-07-05T17:36:21Z</time>
      </trkpt>
      <trkpt lat="43.10471" lon="2.25045">
        <ele>152</ele>
        <time>2016-07-05T17:38:21Z</time>
      </trkpt>
      <trkpt lat="43.10468" lon="2.25046">
        <ele>152</ele>
        <time>2016-07-05T17:40:21Z</time>
      </trkpt>
      <trkpt lat="43.10466" lon="2.25046">
        <ele>152</ele>
        <time>2016-07-05T17:42:21Z</time>
      </trkpt>
      <trkpt lat="43.10465" lon="2.25046">
        <ele>152</ele>
        <time>2016-07-05T17:44:21Z</time>
      </trkpt>
      <trkpt lat="43.10463" lon="2.25047">
        <ele>152</ele>
        <time>2016-07-05T17:46:21Z</time>
      </trkpt>
      <trkpt lat="43.10462" lon="2.25048">
        <ele>152</ele>
        <time>2016-07-05T17:48:21Z</time>
      </trkpt>
      <trkpt lat="43.1046" lon="2.25049">
        <ele>152</ele>
        <time>2016-07-05T17:50:21Z</time>
      </trkpt>
      <trkpt lat="43.10459" lon="2.2505">
        <ele>152</ele>
        <time>2016-07-05T17:52:21Z</time>
      </trkpt>
      <trkpt lat="43.10458" lon="2.25051">
        <ele>152</ele>
        <time>2016-07-05T17:54:21Z</time>
      </trkpt>
      <trkpt lat="43.10456" lon="2.25053">
        <ele>152</ele>
        <time>2016-07-05T17:56:21Z</time>
      </trkpt>
      <trkpt lat="43.10447" lon="2.25051">
        <ele>152</ele>
        <time>2016-07-05T17:58:21Z</time>
      </trkpt>
      <trkpt lat="43.10436" lon="2.25047">
        <ele>151</ele>
        <time>2016-07-05T18:00:21Z</time>
      </trkpt>
      <trkpt lat="43.10424" lon="2.25039">
        <ele>151</ele>
        <time>2016-07-05T18:02:21Z</time>
      </trkpt>
      <trkpt lat="43.10404" lon="2.25026">
        <ele>150</ele>
        <time>2016-07-05T18:04:21Z</time>
      </trkpt>
      <trkpt lat="43.10394" lon="2.25018">
        <ele>150</ele>
        <time>2016-07-05T18:06:21Z</time>
      </trkpt>
      <trkpt lat="43.1038" lon="2.25005">
        <ele>150</ele>
        <time>2016-07-05T18:08:21Z</time>
      </trkpt>
      <trkpt lat="43.1037" lon="2.24993">
        <ele>150</ele>
        <time>2016-07-05T18:10:21Z</time>
      </trkpt>
      <trkpt lat="43.10361" lon="2.24984">
        <ele>150</ele>
        <time>2016-07-05T18:12:21Z</time>
      </trkpt>
      <trkpt lat="43.10345" lon="2.24964">
        <ele>150</ele>
        <time>2016-07-05T18:14:21Z</time>
      </trkpt>
      <trkpt lat="43.10336" lon="2.24949">
        <ele>150</ele>
        <time>2016-07-05T18:16:21Z</time>
      </trkpt>
      <trkpt lat="43.10326" lon="2.24933">
        <ele>150</ele>
        <time>2016-07-05T18:18:21Z</time>
      </trkpt>
      <trkpt lat="43.10317" lon="2.24915">
        <ele>150</ele>
        <time>2016-07-05T18:20:21Z</time>
      </trkpt>
      <trkpt lat="43.10308" lon="2.24897">
        <ele>150</ele>
        <time>2016-07-05T18:22:21Z</time>
      </trkpt>
      <trkpt lat="43.10299" lon="2.24877">
        <ele>150</ele>
        <time>2016-07-05T18:24:21Z</time>
      </trkpt>
      <trkpt lat="43.10291" lon="2.24857">
        <ele>150</ele>
        <time>2016-07-05T18:26:21Z</time>
      </trkpt>
      <trkpt lat="43.10283" lon="2.24836">
        <ele>150</ele>
        <time>2016-07-05T18:28:21Z</time>
      </trkpt>
      <trkpt lat="43.10275" lon="2.24814">
        <ele>150</ele>
        <time>2016-07-05T18:30:21Z</time>
      </trkpt>
      <trkpt lat="43.10267" lon="2.24792">
        <ele>150</ele>
        <time>2016-07-05T18:32:21Z</time>
      </trkpt>
      <trkpt lat="43.10258" lon="2.2477">
        <ele>150</ele>
        <time>2016-07-05T18:34:21Z</time>
      </trkpt>
      <trkpt lat="43.10249" lon="2.24747">
        <ele>150</ele>
        <time>2016-07-05T18:36:21Z</time>
      </trkpt>
      <trkpt lat="43.10241" lon="2.24723">
        <ele>150</ele>
        <time>2016-07-05T18:38:21Z</time>
      </trkpt>
      <trkpt lat="43.10231" lon="2.24699">
        <ele>150</ele>
        <time>2016-07-05T18:40:21Z</time>
      </trkpt>
      <trkpt lat="43.10222" lon="2.24675">
        <ele>151</ele>
        <time>2016-07-05T18:42:21Z</time>
      </trkpt>
      <trkpt lat="43.10213" lon="2.24651">
        <ele>151</ele>
        <time>2016-07-05T18:44:21Z</time>
      </trkpt>
      <trkpt lat="43.10204" lon="2.24628">
        <ele>151</ele>
        <time>2016-07-05T18:46:21Z</time>
      </trkpt>
      <trkpt lat="43.10197" lon="2.2461">
        <ele>151</ele>
        <time>2016-07-05T18:48:21Z</time>
      </trkpt>
      <trkpt lat="43.10195" lon="2.24605">
        <ele>151</ele>
        <time>2016-07-05T18:50:21Z</time>
      </trkpt>
      <trkpt lat="43.10195" lon="2.24604">
        <ele>151</ele>
        <time>2016-07-05T18:52:21Z</time>
      </trkpt>
      <trkpt lat="43.10193" lon="2.246">
        <ele>151</ele>
        <time>2016-07-05T18:54:21Z</time>
      </trkpt>
      <trkpt lat="43.10185" lon="2.24578">
        <ele>151</ele>
        <time>2016-07-05T18:56:21Z</time>
      </trkpt>
      <trkpt lat="43.10176" lon="2.24554">
        <ele>151</ele>
        <time>2016-07-05T18:58:21Z</time>
      </trkpt>
      <trkpt lat="43.10167" lon="2.2453">
        <ele>150</ele>
        <time>2016-07-05T19:00:21Z</time>
      </trkpt>
      <trkpt lat="43.10157" lon="2.24505">
        <ele>150</ele>
        <time>2016-07-05T19:02:21Z</time>
      </trkpt>
      <trkpt lat="43.10146" lon="2.24472">
        <ele>150</ele>
        <time>2016-07-05T19:04:21Z</time>
      </trkpt>
      <trkpt lat="43.10124" lon="2.24415">
        <ele>151</ele>
        <time>2016-07-05T19:06:21Z</time>
      </trkpt>
      <trkpt lat="43.10097" lon="2.24343">
        <ele>152</ele>
        <time>2016-07-05T19:08:21Z</time>
      </trkpt>
      <trkpt lat="43.10076" lon="2.24287">
        <ele>152</ele>
        <time>2016-07-05T19:10:21Z</time>
      </trkpt>
      <trkpt lat="43.10059" lon="2.24243">
        <ele>152</ele>
        <time>2016-07-05T19:12:21Z</time>
      </trkpt>
      <trkpt lat="43.10037" lon="2.24185">
        <ele>152</ele>
        <time>2016-07-05T19:14:21Z</time>
      </trkpt>
      <trkpt lat="43.10017" lon="2.24129">
        <ele>153</ele>
        <time>2016-07-05T19:16:21Z</time>
      </trkpt>
      <trkpt lat="43.09995" lon="2.24071">
        <ele>153</ele>
        <time>2016-07-05T19:18:21Z</time>
      </trkpt>
      <trkpt lat="43.09977" lon="2.24025">
        <ele>154</ele>
        <time>2016-07-05T19:20:21Z</time>
      </trkpt>
      <trkpt lat="43.09974" lon="2.24016">
        <ele>154</ele>
        <time>2016-07-05T19:22:21Z</time>
      </trkpt>
      <trkpt lat="43.09971" lon="2.24008">
        <ele>154</ele>
        <time>2016-07-05T19:24:21Z</time>
      </trkpt>
      <trkpt lat="43.09965" lon="2.23992">
        <ele>154</ele>
        <time>2016-07-05T19:26:21Z</time>
      </trkpt>
      <trkpt lat="43.09956" lon="2.23966">
        <ele>153</ele>
        <time>2016-07-05T19:28:21Z</time>
      </trkpt>
      <trkpt lat="43.09936" lon="2.23913">
        <ele>153</ele>
        <time>2016-07-05T19:30:21Z</time>
      </trkpt>
      <trkpt lat="43.09931" lon="2.239">
        <ele>153</ele>
        <time>2016-07-05T19:32:21Z</time>
      </trkpt>
      <trkpt lat="43.09926" lon="2.23886">
        <ele>152</ele>
        <time>2016-07-05T19:34:21Z</time>
      </trkpt>
      <trkpt lat="43.09915" lon="2.2386">
        <ele>152</ele>
        <time>2016-07-05T19:36:21Z</time>
      </trkpt>
      <trkpt lat="43.09906" lon="2.23833">
        <ele>153</ele>
        <time>2016-07-05T19:38:21Z</time>
      </trkpt>
      <trkpt lat="43.09892" lon="2.23796">
        <ele>153</ele>
        <time>2016-07-05T19:40:21Z</time>
      </trkpt>
      <trkpt lat="43.09882" lon="2.23769">
        <ele>153</ele>
        <time>2016-07-05T19:42:21Z</time>
      </trkpt>
      <trkpt lat="43.09861" lon="2.23711">
        <ele>153</ele>
        <time>2016-07-05T19:44:21Z</time>
      </trkpt>
      <trkpt lat="43.0984" lon="2.23654">
        <ele>152</ele>
        <time>2016-07-05T19:46:21Z</time>
      </trkpt>
      <trkpt lat="43.09832" lon="2.23632">
        <ele>153</ele>
        <time>2016-07-05T19:48:21Z</time>
      </trkpt>
      <trkpt lat="43.09823" lon="2.23607">
        <ele>153</ele>
        <time>2016-07-05T19:50:21Z</time>
      </trkpt>
      <trkpt lat="43.09821" lon="2.23599">
        <ele>154</ele>
        <time>2016-07-05T19:52:21Z</time>
      </trkpt>
      <trkpt lat="43.09819" lon="2.23592">
        <ele>154</ele>
        <time>2016-07-05T19:54:21Z</time>
      </trkpt>
      <trkpt lat="43.09817" lon="2.23587">
        <ele>154</ele>
        <time>2016-07-05T19:56:21Z</time>
      </trkpt>
      <trkpt lat="43.09813" lon="2.23576">
        <ele>154</ele>
        <time>2016-07-05T19:58:21Z</time>
      </trkpt>
      <trkpt lat="43.09802" lon="2.23542">
        <ele>154</ele>
        <time>2016-07-05T20:00:21Z</time>
      </trkpt>
      <trkpt lat="43.09791" lon="2.23506">
        <ele>155</ele>
        <time>2016-07-05T20:02:21Z</time>
      </trkpt>
      <trkpt lat="43.09775" lon="2.23448">
        <ele>155</ele>
        <time>2016-07-05T20:04:21Z</time>
      </trkpt>
      <trkpt lat="43.09764" lon="2.23407">
        <ele>156</ele>
        <time>2016-07-05T20:06:21Z</time>
      </trkpt>
      <trkpt lat="43.09755" lon="2.23373">
        <ele>156</ele>
        <time>2016-07-05T20:08:21Z</time>
      </trkpt>
      <trkpt lat="43.09754" lon="2.23366">
        <ele>156</ele>
        <time>2016-07-05T20:10:21Z</time>
      </trkpt>
      <trkpt lat="43.09746" lon="2.23335">
        <ele>157</ele>
        <time>2016-07-05T20:12:21Z</time>
      </trkpt>
      <trkpt lat="43.09732" lon="2.23287">
        <ele>157</ele>
        <time>2016-07-05T20:14:21Z</time>
      </trkpt>
      <trkpt lat="43.09724" lon="2.23263">
        <ele>157</ele>
        <time>2016-07-05T20:16:21Z</time>
      </trkpt>
      <trkpt lat="43.09711" lon="2.23234">
        <ele>157</ele>
        <time>2016-07-05T20:18:21Z</time>
      </trkpt>
      <trkpt lat="43.09694" lon="2.23202">
        <ele>157</ele>
        <time>2016-07-05T20:20:21Z</time>
      </trkpt>
      <trkpt lat="43.09682" lon="2.23182">
        <ele>157</ele>
        <time>2016-07-05T20:22:21Z</time>
      </trkpt>
      <trkpt lat="43.09666" lon="2.23158">
        <ele>157</ele>
        <time>2016-07-05T20:24:21Z</time>
      </trkpt>
      <trkpt lat="43.09652" lon="2.23141">
        <ele>158</ele>
        <time>2016-07-05T20:26:21Z</time>
      </trkpt>
      <trkpt lat="43.09641" lon="2.23127">
        <ele>158</ele>
        <time>2016-07-05T20:28:21Z</time>
      </trkpt>
      <trkpt lat="43.09623" lon="2.23107">
        <ele>157</ele>
        <time>2016-07-05T20:30:21Z</time>
      </trkpt>
      <trkpt lat="43.09602" lon="2.23088">
        <ele>156</ele>
        <time>2016-07-05T20:32:21Z</time>
      </trkpt>
      <trkpt lat="43.09584" lon="2.23074">
        <ele>156</ele>
        <time>2016-07-05T20:34:21Z</time>
      </trkpt>
      <trkpt lat="43.09573" lon="2.23065">
        <ele>157</ele>
        <time>2016-07-05T20:36:21Z</time>
      </trkpt>
      <trkpt lat="43.09559" lon="2.23056">
        <ele>157</ele>
        <time>2016-07-05T20:38:21Z</time>
      </trkpt>
      <trkpt lat="43.09545" lon="2.23047">
        <ele>157</ele>
        <time>2016-07-05T20:40:21Z</time>
      </trkpt>
      <trkpt lat="43.09535" lon="2.23041">
        <ele>157</ele>
        <time>2016-07-05T20:42:21Z</time>
      </trkpt>
      <trkpt lat="43.09526" lon="2.23036">
        <ele>157</ele>
        <time>2016-07-05T20:44:21Z</time>
      </trkpt>
      <trkpt lat="43.09515" lon="2.23031">
        <ele>157</ele>
        <time>2016-07-05T20:46:21Z</time>
      </trkpt>
      <trkpt lat="43.09508" lon="2.23028">
        <ele>157</ele>
        <time>2016-07-05T20:48:21Z</time>
      </trkpt>
      <trkpt lat="43.09501" lon="2.23025">
        <ele>157</ele>
        <time>2016-07-05T20:50:21Z</time>
      </trkpt>
      <trkpt lat="43.09491" lon="2.23022">
        <ele>156</ele>
        <time>2016-07-05T20:52:21Z</time>
      </trkpt>
      <trkpt lat="43.09486" lon="2.2302">
        <ele>156</ele>
        <time>2016-07-05T20:54:21Z</time>
      </trkpt>
      <trkpt lat="43.09479" lon="2.23018">
        <ele>156</ele>
        <time>2016-07-05T20:56:21Z</time>
      </trkpt>
      <trkpt lat="43.09469" lon="2.23015">
        <ele>156</ele>
        <time>2016-07-05T20:58:21Z</time>
      </trkpt>
      <trkpt lat="43.09459" lon="2.23012">
        <ele>156</ele>
        <time>2016-07-05T21:00:21Z</time>
      </trkpt>
      <trkpt lat="43.09448" lon="2.23009">
        <ele>155</ele>
        <time>2016-07-05T21:02:21Z</time>
      </trkpt>
      <trkpt lat="43.09435" lon="2.23005">
        <ele>155</ele>
        <time>2016-07-05T21:04:21Z</time>
      </trkpt>
      <trkpt lat="43.09423" lon="2.23">
        <ele>154</ele>
        <time>2016-07-05T21:06:21Z</time>
      </trkpt>
      <trkpt lat="43.09412" lon="2.22995">
        <ele>154</ele>
        <time>2016-07-05T21:08:21Z</time>
      </trkpt>
      <trkpt lat="43.09403" lon="2.22989">
        <ele>155</ele>
        <time>2016-07-05T21:10:21Z</time>
      </trkpt>
      <trkpt lat="43.09394" lon="2.22984">
        <ele>155</ele>
        <time>2016-07-05T21:12:21Z</time>
      </trkpt>
      <trkpt lat="43.09386" lon="2.22977">
        <ele>155</ele>
        <time>2016-07-05T21:14:21Z</time>
      </trkpt>
      <trkpt lat="43.09374" lon="2.22967">
        <ele>155</ele>
        <time>2016-07-05T21:16:21Z</time>
      </trkpt>
      <trkpt lat="43.09374" lon="2.22965">
        <ele>155</ele>
        <time>2016-07-05T21:18:21Z</time>
      </trkpt>
      <trkpt lat="43.09374" lon="2.22964">
        <ele>155</ele>
        <time>2016-07-05T21:20:21Z</time>
      </trkpt>
      <trkpt lat="43.09374" lon="2.22962">
        <ele>155</ele>
        <time>2016-07-05T21:22:21Z</time>
      </trkpt>
      <trkpt lat="43.09374" lon="2.22961">
        <ele>155</ele>
        <time>2016-07-05T21:24:21Z</time>
      </trkpt>
      <trkpt lat="43.09374" lon="2.22959">
        <ele>155</ele>
        <time>2016-07-05T21:26:21Z</time>
      </trkpt>
      <trkpt lat="43.09374" lon="2.22958">
        <ele>155</ele>
        <time>2016-07-05T21:28:21Z</time>
      </trkpt>
      <trkpt lat="43.09373" lon="2.22956">
        <ele>155</ele>
        <time>2016-07-05T21:30:21Z</time>
      </trkpt>
      <trkpt lat="43.09373" lon="2.22955">
        <ele>155</ele>
        <time>2016-07-05T21:32:21Z</time>
      </trkpt>
      <trkpt lat="43.09372" lon="2.22952">
        <ele>155</ele>
        <time>2016-07-05T21:34:21Z</time>
      </trkpt>
      <trkpt lat="43.09372" lon="2.2295">
        <ele>155</ele>
        <time>2016-07-05T21:36:21Z</time>
      </trkpt>
      <trkpt lat="43.09371" lon="2.22948">
        <ele>155</ele>
        <time>2016-07-05T21:38:21Z</time>
      </trkpt>
      <trkpt lat="43.0937" lon="2.22946">
        <ele>155</ele>
        <time>2016-07-05T21:40:21Z</time>
      </trkpt>
      <trkpt lat="43.09369" lon="2.22944">
        <ele>155</ele>
        <time>2016-07-05T21:42:21Z</time>
      </trkpt>
      <trkpt lat="43.09367" lon="2.22942">
        <ele>155</ele>
        <time>2016-07-05T21:44:21Z</time>
      </trkpt>
      <trkpt lat="43.09366" lon="2.22941">
        <ele>155</ele>
        <time>2016-07-05T21:46:21Z</time>
      </trkpt>
      <trkpt lat="43.09364" lon="2.22939">
        <ele>155</ele>
        <time>2016-07-05T21:48:21Z</time>
      </trkpt>
      <trkpt lat="43.09363" lon="2.22938">
        <ele>155</ele>
        <time>2016-07-05T21:50:21Z</time>
      </trkpt>
      <trkpt lat="43.09362" lon="2.22938">
        <ele>155</ele>
        <time>2016-07-05T21:52:21Z</time>
      </trkpt>
      <trkpt lat="43.09361" lon="2.22938">
        <ele>155</ele>
        <time>2016-07-05T21:54:21Z</time>
      </trkpt>
      <trkpt lat="43.0936" lon="2.22937">
        <ele>155</ele>
        <time>2016-07-05T21:56:21Z</time>
      </trkpt>
      <trkpt lat="43.09359" lon="2.22937">
        <ele>155</ele>
        <time>2016-07-05T21:58:21Z</time>
      </trkpt>
      <trkpt lat="43.09358" lon="2.22937">
        <ele>155</ele>
        <time>2016-07-05T22:00:21Z</time>
      </trkpt>
      <trkpt lat="43.09355" lon="2.22936">
        <ele>155</ele>
        <time>2016-07-05T22:02:21Z</time>
      </trkpt>
      <trkpt lat="43.09353" lon="2.22936">
        <ele>155</ele>
        <time>2016-07-05T22:04:21Z</time>
      </trkpt>
      <trkpt lat="43.0935" lon="2.22936">
        <ele>155</ele>
        <time>2016-07-05T22:06:21Z</time>
      </trkpt>
      <trkpt lat="43.09348" lon="2.22937">
        <ele>155</ele>
        <time>2016-07-05T22:08:21Z</time>
      </trkpt>
      <trkpt lat="43.09345" lon="2.22938">
        <ele>155</ele>
        <time>2016-07-05T22:10:21Z</time>
      </trkpt>
      <trkpt lat="43.09343" lon="2.22939">
        <ele>155</ele>
        <time>2016-07-05T22:12:21Z</time>
      </trkpt>
      <trkpt lat="43.09341" lon="2.22941">
        <ele>155</ele>
        <time>2016-07-05T22:14:21Z</time>
      </trkpt>
      <trkpt lat="43.09339" lon="2.22943">
        <ele>155</ele>
        <time>2016-07-05T22:16:21Z</time>
      </trkpt>
      <trkpt lat="43.09338" lon="2.22944">
        <ele>155</ele>
        <time>2016-07-05T22:18:21Z</time>
      </trkpt>
      <trkpt lat="43.09337" lon="2.22946">
        <ele>155</ele>
        <time>2016-07-05T22:20:21Z</time>
      </trkpt>
      <trkpt lat="43.09336" lon="2.22947">
        <ele>155</ele>
        <time>2016-07-05T22:22:21Z</time>
      </trkpt>
      <trkpt lat="43.09335" lon="2.22949">
        <ele>155</ele>
        <time>2016-07-05T22:24:21Z</time>
      </trkpt>
      <trkpt lat="43.09334" lon="2.22951">
        <ele>155</ele>
        <time>2016-07-05T22:26:21Z</time>
      </trkpt>
      <trkpt lat="43.09333" lon="2.22953">
        <ele>155</ele>
        <time>2016-07-05T22:28:21Z</time>
      </trkpt>
      <trkpt lat="43.09333" lon="2.22954">
        <ele>155</ele>
        <time>2016-07-05T22:30:21Z</time>
      </trkpt>
      <trkpt lat="43.09332" lon="2.22956">
        <ele>155</ele>
        <time>2016-07-05T22:32:21Z</time>
      </trkpt>
      <trkpt lat="43.09324" lon="2.22962">
        <ele>155</ele>
        <time>2016-07-05T22:34:21Z</time>
      </trkpt>
      <trkpt lat="43.09318" lon="2.22965">
        <ele>155</ele>
        <time>2016-07-05T22:36:21Z</time>
      </trkpt>
      <trkpt lat="43.0931" lon="2.22968">
        <ele>155</ele>
        <time>2016-07-05T22:38:21Z</time>
      </trkpt>
      <trkpt lat="43.09298" lon="2.22967">
        <ele>154</ele>
        <time>2016-07-05T22:40:21Z</time>
      </trkpt>
      <trkpt lat="43.09278" lon="2.22965">
        <ele>154</ele>
        <time>2016-07-05T22:42:21Z</time>
      </trkpt>
      <trkpt lat="43.09256" lon="2.2296">
        <ele>153</ele>
        <time>2016-07-05T22:44:21Z</time>
      </trkpt>
      <trkpt lat="43.09249" lon="2.2296">
        <ele>153</ele>
        <time>2016-07-05T22:46:21Z</time>
      </trkpt>
      <trkpt lat="43.09225" lon="2.22949">
        <ele>154</ele>
        <time>2016-07-05T22:48:21Z</time>
      </trkpt>
      <trkpt lat="43.09189" lon="2.22932">
        <ele>156</ele>
        <time>2016-07-05T22:50:21Z</time>
      </trkpt>
      <trkpt lat="43.09043" lon="2.22865">
        <ele>157</ele>
        <time>2016-07-05T22:52:21Z</time>
      </trkpt>
      <trkpt lat="43.08956" lon="2.22825">
        <ele>159</ele>
        <time>2016-07-05T22:54:21Z</time>
      </trkpt>
      <trkpt lat="43.08882" lon="2.22791">
        <ele>158</ele>
        <time>2016-07-05T22:56:21Z</time>
      </trkpt>
      <trkpt lat="43.08812" lon="2.22757">
        <ele>158</ele>
        <time>2016-07-05T22:58:21Z</time>
      </trkpt>
      <trkpt lat="43.08676" lon="2.22692">
        <ele>156</ele>
        <time>2016-07-05T23:00:21Z</time>
      </trkpt>
      <trkpt lat="43.08498" lon="2.22606">
        <ele>160</ele>
        <time>2016-07-05T23:02:21Z</time>
      </trkpt>
      <trkpt lat="43.08488" lon="2.22602">
        <ele>161</ele>
        <time>2016-07-05T23:04:21Z</time>
      </trkpt>
      <trkpt lat="43.0848" lon="2.22598">
        <ele>161</ele>
        <time>2016-07-05T23:06:21Z</time>
      </trkpt>
      <trkpt lat="43.08205" lon="2.22464">
        <ele>163</ele>
        <time>2016-07-05T23:08:21Z</time>
      </trkpt>
      <trkpt lat="43.08196" lon="2.2246">
        <ele>163</ele>
        <time>2016-07-05T23:10:21Z</time>
      </trkpt>
      <trkpt lat="43.08014" lon="2.2237">
        <ele>162</ele>
        <time>2016-07-05T23:12:21Z</time>
      </trkpt>
      <trkpt lat="43.07881" lon="2.22302">
        <ele>162</ele>
        <time>2016-07-05T23:14:21Z</time>
      </trkpt>
      <trkpt lat="43.07847" lon="2.22286">
        <ele>163</ele>
        <time>2016-07-05T23:16:21Z</time>
      </trkpt>
      <trkpt lat="43.07636" lon="2.22185">
        <ele>164</ele>
        <time>2016-07-05T23:18:21Z</time>
      </trkpt>
      <trkpt lat="43.07597" lon="2.22169">
        <ele>163</ele>
        <time>2016-07-05T23:20:21Z</time>
      </trkpt>
      <trkpt lat="43.07575" lon="2.2216">
        <ele>163</ele>
        <time>2016-07-05T23:22:21Z</time>
      </trkpt>
      <trkpt lat="43.07539" lon="2.2215">
        <ele>164</ele>
        <time>2016-07-05T23:24:21Z</time>
      </trkpt>
      <trkpt lat="43.07487" lon="2.2214">
        <ele>164</ele>
        <time>2016-07-05T23:26:21Z</time>
      </trkpt>
      <trkpt lat="43.07484" lon="2.22137">
        <ele>164</ele>
        <time>2016-07-05T23:28:21Z</time>
      </trkpt>
      <trkpt lat="43.07483" lon="2.22137">
        <ele>164</ele>
        <time>2016-07-05T23:30:21Z</time>
      </trkpt>
      <trkpt lat="43.07482" lon="2.22136">
        <ele>164</ele>
        <time>2016-07-05T23:32:21Z</time>
      </trkpt>
      <trkpt lat="43.07481" lon="2.22136">
        <ele>164</ele>
        <time>2016-07-05T23:34:21Z</time>
      </trkpt>
      <trkpt lat="43.07477" lon="2.22135">
        <ele>164</ele>
        <time>2016-07-05T23:36:21Z</time>
      </trkpt>
      <trkpt lat="43.0747" lon="2.22133">
        <ele>164</ele>
        <time>2016-07-05T23:38:21Z</time>
      </trkpt>
      <trkpt lat="43.07449" lon="2.22124">
        <ele>164</ele>
        <time>2016-07-05T23:40:21Z</time>
      </trkpt>
      <trkpt lat="43.07436" lon="2.22117">
        <ele>164</ele>
        <time>2016-07-05T23:42:21Z</time>
      </trkpt>
      <trkpt lat="43.07431" lon="2.22114">
        <ele>164</ele>
        <time>2016-07-05T23:44:21Z</time>
      </trkpt>
      <trkpt lat="43.07426" lon="2.22111">
        <ele>164</ele>
        <time>2016-07-05T23:46:21Z</time>
      </trkpt>
      <trkpt lat="43.07423" lon="2.22109">
        <ele>164</ele>
        <time>2016-07-05T23:48:21Z</time>
      </trkpt>
      <trkpt lat="43.07422" lon="2.22108">
        <ele>164</ele>
        <time>2016-07-05T23:50:21Z</time>
      </trkpt>
      <trkpt lat="43.07421" lon="2.22107">
        <ele>164</ele>
        <time>2016-07-05T23:52:21Z</time>
      </trkpt>
      <trkpt lat="43.0742" lon="2.22106">
        <ele>164</ele>
        <time>2016-07-05T23:54:21Z</time>
      </trkpt>
      <trkpt lat="43.07419" lon="2.22105">
        <ele>164</ele>
        <time>2016-07-05T23:56:21Z</time>
      </trkpt>
      <trkpt lat="43.07419" lon="2.22104">
        <ele>164</ele>
        <time>2016-07-05T23:58:21Z</time>
      </trkpt>
      <trkpt lat="43.07418" lon="2.22103">
        <ele>164</ele>
        <time>2016-07-06T00:00:21Z</time>
      </trkpt>
      <trkpt lat="43.07417" lon="2.22102">
        <ele>164</ele>
        <time>2016-07-06T00:02:21Z</time>
      </trkpt>
      <trkpt lat="43.07416" lon="2.221">
        <ele>164</ele>
        <time>2016-07-06T00:04:21Z</time>
      </trkpt>
      <trkpt lat="43.07415" lon="2.22096">
        <ele>164</ele>
        <time>2016-07-06T00:06:21Z</time>
      </trkpt>
      <trkpt lat="43.07414" lon="2.22091">
        <ele>164</ele>
        <time>2016-07-06T00:08:21Z</time>
      </trkpt>
      <trkpt lat="43.07413" lon="2.22087">
        <ele>164</ele>
        <time>2016-07-06T00:10:21Z</time>
      </trkpt>
      <trkpt lat="43.07412" lon="2.22078">
        <ele>164</ele>
        <time>2016-07-06T00:12:21Z</time>
      </trkpt>
      <trkpt lat="43.07413" lon="2.22077">
        <ele>164</ele>
        <time>2016-07-06T00:14:21Z</time>
      </trkpt>
      <trkpt lat="43.07413" lon="2.22076">
        <ele>164</ele>
        <time>2016-07-06T00:16:21Z</time>
      </trkpt>
      <trkpt lat="43.07414" lon="2.22074">
        <ele>164</ele>
        <time>2016-07-06T00:18:21Z</time>
      </trkpt>
      <trkpt lat="43.07414" lon="2.22073">
        <ele>164</ele>
        <time>2016-07-06T00:20:21Z</time>
      </trkpt>
      <trkpt lat="43.07414" lon="2.22072">
        <ele>164</ele>
        <time>2016-07-06T00:22:21Z</time>
      </trkpt>
      <trkpt lat="43.07415" lon="2.2207">
        <ele>164</ele>
        <time>2016-07-06T00:24:21Z</time>
      </trkpt>
      <trkpt lat="43.07415" lon="2.22069">
        <ele>164</ele>
        <time>2016-07-06T00:26:21Z</time>
      </trkpt>
      <trkpt lat="43.07415" lon="2.22068">
        <ele>164</ele>
        <time>2016-07-06T00:28:21Z</time>
      </trkpt>
      <trkpt lat="43.07416" lon="2.22065">
        <ele>164</ele>
        <time>2016-07-06T00:30:21Z</time>
      </trkpt>
      <trkpt lat="43.07416" lon="2.22062">
        <ele>164</ele>
        <time>2016-07-06T00:32:21Z</time>
      </trkpt>
      <trkpt lat="43.07416" lon="2.22059">
        <ele>164</ele>
        <time>2016-07-06T00:34:21Z</time>
      </trkpt>
      <trkpt lat="43.07416" lon="2.22055">
        <ele>164</ele>
        <time>2016-07-06T00:36:21Z</time>
      </trkpt>
      <trkpt lat="43.07416" lon="2.22052">
        <ele>164</ele>
        <time>2016-07-06T00:38:21Z</time>
      </trkpt>
      <trkpt lat="43.07415" lon="2.22049">
        <ele>164</ele>
        <time>2016-07-06T00:40:21Z</time>
      </trkpt>
      <trkpt lat="43.07415" lon="2.22046">
        <ele>164</ele>
        <time>2016-07-06T00:42:21Z</time>
      </trkpt>
      <trkpt lat="43.07414" lon="2.22044">
        <ele>164</ele>
        <time>2016-07-06T00:44:21Z</time>
      </trkpt>
      <trkpt lat="43.07413" lon="2.22041">
        <ele>165</ele>
        <time>2016-07-06T00:46:21Z</time>
      </trkpt>
      <trkpt lat="43.07413" lon="2.2204">
        <ele>165</ele>
        <time>2016-07-06T00:48:21Z</time>
      </trkpt>
      <trkpt lat="43.07412" lon="2.22038">
        <ele>165</ele>
        <time>2016-07-06T00:50:21Z</time>
      </trkpt>
      <trkpt lat="43.07411" lon="2.22036">
        <ele>165</ele>
        <time>2016-07-06T00:52:21Z</time>
      </trkpt>
      <trkpt lat="43.07411" lon="2.22035">
        <ele>165</ele>
        <time>2016-07-06T00:54:21Z</time>
      </trkpt>
      <trkpt lat="43.0741" lon="2.22033">
        <ele>165</ele>
        <time>2016-07-06T00:56:21Z</time>
      </trkpt>
      <trkpt lat="43.07409" lon="2.22031">
        <ele>165</ele>
        <time>2016-07-06T00:58:21Z</time>
      </trkpt>
      <trkpt lat="43.07408" lon="2.2203">
        <ele>165</ele>
        <time>2016-07-06T01:00:21Z</time>
      </trkpt>
      <trkpt lat="43.07406" lon="2.22028">
        <ele>165</ele>
        <time>2016-07-06T01:02:21Z</time>
      </trkpt>
      <trkpt lat="43.07404" lon="2.22026">
        <ele>165</ele>
        <time>2016-07-06T01:04:21Z</time>
      </trkpt>
      <trkpt lat="43.07402" lon="2.22024">
        <ele>165</ele>
        <time>2016-07-06T01:06:21Z</time>
      </trkpt>
      <trkpt lat="43.074" lon="2.22022">
        <ele>165</ele>
        <time>2016-07-06T01:08:21Z</time>
      </trkpt>
      <trkpt lat="43.07398" lon="2.2202">
        <ele>165</ele>
        <time>2016-07-06T01:10:21Z</time>
      </trkpt>
      <trkpt lat="43.07396" lon="2.22019">
        <ele>165</ele>
        <time>2016-07-06T01:12:21Z</time>
      </trkpt>
      <trkpt lat="43.07393" lon="2.22018">
        <ele>165</ele>
        <time>2016-07-06T01:14:21Z</time>
      </trkpt>
      <trkpt lat="43.07391" lon="2.22017">
        <ele>165</ele>
        <time>2016-07-06T01:16:21Z</time>
      </trkpt>
      <trkpt lat="43.07387" lon="2.22017">
        <ele>165</ele>
        <time>2016-07-06T01:18:21Z</time>
      </trkpt>
      <trkpt lat="43.07384" lon="2.22017">
        <ele>165</ele>
        <time>2016-07-06T01:20:21Z</time>
      </trkpt>
      <trkpt lat="43.0738" lon="2.22018">
        <ele>165</ele>
        <time>2016-07-06T01:22:21Z</time>
      </trkpt>
      <trkpt lat="43.07377" lon="2.22019">
        <ele>165</ele>
        <time>2016-07-06T01:24:21Z</time>
      </trkpt>
      <trkpt lat="43.07374" lon="2.22021">
        <ele>165</ele>
        <time>2016-07-06T01:26:21Z</time>
      </trkpt>
      <trkpt lat="43.0737" lon="2.22023">
        <ele>165</ele>
        <time>2016-07-06T01:28:21Z</time>
      </trkpt>
      <trkpt lat="43.07367" lon="2.22026">
        <ele>165</ele>
        <time>2016-07-06T01:30:21Z</time>
      </trkpt>
      <trkpt lat="43.07364" lon="2.2203">
        <ele>165</ele>
        <time>2016-07-06T01:32:21Z</time>
      </trkpt>
      <trkpt lat="43.07354" lon="2.2203">
        <ele>165</ele>
        <time>2016-07-06T01:34:21Z</time>
      </trkpt>
      <trkpt lat="43.0735" lon="2.22029">
        <ele>165</ele>
        <time>2016-07-06T01:36:21Z</time>
      </trkpt>
      <trkpt lat="43.07347" lon="2.22029">
        <ele>165</ele>
        <time>2016-07-06T01:38:21Z</time>
      </trkpt>
      <trkpt lat="43.07343" lon="2.22027">
        <ele>165</ele>
        <time>2016-07-06T01:40:21Z</time>
      </trkpt>
      <trkpt lat="43.07339" lon="2.22025">
        <ele>165</ele>
        <time>2016-07-06T01:42:21Z</time>
      </trkpt>
      <trkpt lat="43.07323" lon="2.22018">
        <ele>165</ele>
        <time>2016-07-06T01:44:21Z</time>
      </trkpt>
      <trkpt lat="43.07309" lon="2.22012">
        <ele>165</ele>
        <time>2016-07-06T01:46:21Z</time>
      </trkpt>
      <trkpt lat="43.07297" lon="2.22006">
        <ele>165</ele>
        <time>2016-07-06T01:48:21Z</time>
      </trkpt>
      <trkpt lat="43.0729" lon="2.22002">
        <ele>165</ele>
        <time>2016-07-06T01:50:21Z</time>
      </trkpt>
      <trkpt lat="43.07287" lon="2.22001">
        <ele>166</ele>
        <time>2016-07-06T01:52:21Z</time>
      </trkpt>
      <trkpt lat="43.0728" lon="2.21999">
        <ele>166</ele>
        <time>2016-07-06T01:54:21Z</time>
      </trkpt>
      <trkpt lat="43.07249" lon="2.21983">
        <ele>166</ele>
        <time>2016-07-06T01:56:21Z</time>
      </trkpt>
      <trkpt lat="43.07196" lon="2.21957">
        <ele>167</ele>
        <time>2016-07-06T01:58:21Z</time>
      </trkpt>
      <trkpt lat="43.071" lon="2.21912">
        <ele>166</ele>
        <time>2016-07-06T02:00:21Z</time>
      </trkpt>
      <trkpt lat="43.0707" lon="2.21897">
        <ele>166</ele>
        <time>2016-07-06T02:02:21Z</time>
      </trkpt>
      <trkpt lat="43.07051" lon="2.21889">
        <ele>166</ele>
        <time>2016-07-06T02:04:21Z</time>
      </trkpt>
      <trkpt lat="43.07031" lon="2.2188">
        <ele>165</ele>
        <time>2016-07-06T02:06:21Z</time>
      </trkpt>
      <trkpt lat="43.06972" lon="2.21855">
        <ele>165</ele>
        <time>2016-07-06T02:08:21Z</time>
      </trkpt>
      <trkpt lat="43.06943" lon="2.21842">
        <ele>167</ele>
        <time>2016-07-06T02:10:21Z</time>
      </trkpt>
      <trkpt lat="43.06916" lon="2.21829">
        <ele>168</ele>
        <time>2016-07-06T02:12:21Z</time>
      </trkpt>
      <trkpt lat="43.06882" lon="2.21812">
        <ele>167</ele>
        <time>2016-07-06T02:14:21Z</time>
      </trkpt>
      <trkpt lat="43.06872" lon="2.21806">
        <ele>168</ele>
        <time>2016-07-06T02:16:21Z</time>
      </trkpt>
      <trkpt lat="43.06861" lon="2.21801">
        <ele>168</ele>
        <time>2016-07-06T02:18:21Z</time>
      </trkpt>
      <trkpt lat="43.06848" lon="2.21795">
        <ele>168</ele>
        <time>2016-07-06T02:20:21Z</time>
      </trkpt>
      <trkpt lat="43.06837" lon="2.21791">
        <ele>168</ele>
        <time>2016-07-06T02:22:21Z</time>
      </trkpt>
      <trkpt lat="43.06829" lon="2.21789">
        <ele>168</ele>
        <time>2016-07-06T02:24:21Z</time>
      </trkpt>
      <trkpt lat="43.06817" lon="2.21789">
        <ele>168</ele>
        <time>2016-07-06T02:26:21Z</time>
      </trkpt>
      <trkpt lat="43.06813" lon="2.21788">
        <ele>168</ele>
        <time>2016-07-06T02:28:21Z</time>
      </trkpt>
      <trkpt lat="43.0681" lon="2.21788">
        <ele>168</ele>
        <time>2016-07-06T02:30:21Z</time>
      </trkpt>
      <trkpt lat="43.06798" lon="2.21786">
        <ele>167</ele>
        <time>2016-07-06T02:32:21Z</time>
      </trkpt>
      <trkpt lat="43.06793" lon="2.21783">
        <ele>167</ele>
        <time>2016-07-06T02:34:21Z</time>
      </trkpt>
      <trkpt lat="43.06767" lon="2.21771">
        <ele>167</ele>
        <time>2016-07-06T02:36:21Z</time>
      </trkpt>
      <trkpt lat="43.06765" lon="2.2177">
        <ele>167</ele>
        <time>2016-07-06T02:38:21Z</time>
      </trkpt>
      <trkpt lat="43.06754" lon="2.21765">
        <ele>167</ele>
        <time>2016-07-06T02:40:21Z</time>
      </trkpt>
      <trkpt lat="43.06745" lon="2.2176">
        <ele>167</ele>
        <time>2016-07-06T02:42:21Z</time>
      </trkpt>
      <trkpt lat="43.06739" lon="2.21757">
        <ele>167</ele>
        <time>2016-07-06T02:44:21Z</time>
      </trkpt>
      <trkpt lat="43.06717" lon="2.21746">
        <ele>167</ele>
        <time>2016-07-06T02:46:21Z</time>
      </trkpt>
      <trkpt lat="43.06702" lon="2.21738">
        <ele>166</ele>
        <time>2016-07-06T02:48:21Z</time>
      </trkpt>
      <trkpt lat="43.06674" lon="2.21724">
        <ele>166</ele>
        <time>2016-07-06T02:50:21Z</time>
      </trkpt>
      <trkpt lat="43.06612" lon="2.21694">
        <ele>166</ele>
        <time>2016-07-06T02:52:21Z</time>
      </trkpt>
      <trkpt lat="43.06546" lon="2.21662">
        <ele>166</ele>
        <time>2016-07-06T02:54:21Z</time>
      </trkpt>
      <trkpt lat="43.06538" lon="2.21658">
        <ele>166</ele>
        <time>2016-07-06T02:56:21Z</time>
      </trkpt>
      <trkpt lat="43.06492" lon="2.21636">
        <ele>166</ele>
        <time>2016-07-06T02:58:21Z</time>
      </trkpt>
      <trkpt lat="43.06445" lon="2.21613">
        <ele>166</ele>
        <time>2016-07-06T03:00:21Z</time>
      </trkpt>
      <trkpt lat="43.06406" lon="2.21595">
        <ele>166</ele>
        <time>2016-07-06T03:02:21Z</time>
      </trkpt>
      <trkpt lat="43.06398" lon="2.21592">
        <ele>166</ele>
        <time>2016-07-06T03:04:21Z</time>
      </trkpt>
      <trkpt lat="43.06373" lon="2.21579">
        <ele>166</ele>
        <time>2016-07-06T03:06:21Z</time>
      </trkpt>
      <trkpt lat="43.06361" lon="2.21574">
        <ele>166</ele>
        <time>2016-07-06T03:08:21Z</time>
      </trkpt>
      <trkpt lat="43.06308" lon="2.21548">
        <ele>165</ele>
        <time>2016-07-06T03:10:21Z</time>
      </trkpt>
      <trkpt lat="43.06302" lon="2.21545">
        <ele>165</ele>
        <time>2016-07-06T03:12:21Z</time>
      </trkpt>
      <trkpt lat="43.06287" lon="2.21538">
        <ele>165</ele>
        <time>2016-07-06T03:14:21Z</time>
      </trkpt>
      <trkpt lat="43.06251" lon="2.21521">
        <ele>165</ele>
        <time>2016-07-06T03:16:21Z</time>
      </trkpt>
      <trkpt lat="43.06246" lon="2.21516">
        <ele>165</ele>
        <time>2016-07-06T03:18:21Z</time>
      </trkpt>
      <trkpt lat="43.06246" lon="2.21515">
        <ele>165</ele>
        <time>2016-07-06T03:20:21Z</time>
      </trkpt>
      <trkpt lat="43.06245" lon="2.21515">
        <ele>165</ele>
        <time>2016-07-06T03:22:21Z</time>
      </trkpt>
      <trkpt lat="43.06227" lon="2.21506">
        <ele>166</ele>
        <time>2016-07-06T03:24:21Z</time>
      </trkpt>
      <trkpt lat="43.06208" lon="2.21496">
        <ele>166</ele>
        <time>2016-07-06T03:26:21Z</time>
      </trkpt>
      <trkpt lat="43.06205" lon="2.21493">
        <ele>166</ele>
        <time>2016-07-06T03:28:21Z</time>
      </trkpt>
      <trkpt lat="43.06199" lon="2.2149">
        <ele>166</ele>
        <time>2016-07-06T03:30:21Z</time>
      </trkpt>
      <trkpt lat="43.06191" lon="2.21487">
        <ele>166</ele>
        <time>2016-07-06T03:32:21Z</time>
      </trkpt>
      <trkpt lat="43.06183" lon="2.21483">
        <ele>166</ele>
        <time>2016-07-06T03:34:21Z</time>
      </trkpt>
      <trkpt lat="43.06175" lon="2.21479">
        <ele>166</ele>
        <time>2016-07-06T03:36:21Z</time>
      </trkpt>
      <trkpt lat="43.06161" lon="2.21474">
        <ele>167</ele>
        <time>2016-07-06T03:38:21Z</time>
      </trkpt>
      <trkpt lat="43.06158" lon="2.21472">
        <ele>167</ele>
        <time>2016-07-06T03:40:21Z</time>
      </trkpt>
      <trkpt lat="43.06151" lon="2.21472">
        <ele>167</ele>
        <time>2016-07-06T03:42:21Z</time>
      </trkpt>
      <trkpt lat="43.06134" lon="2.21464">
        <ele>168</ele>
        <time>2016-07-06T03:44:21Z</time>
      </trkpt>
      <trkpt lat="43.0611" lon="2.21453">
        <ele>169</ele>
        <time>2016-07-06T03:46:21Z</time>
      </trkpt>
      <trkpt lat="43.06097" lon="2.21446">
        <ele>170</ele>
        <time>2016-07-06T03:48:21Z</time>
      </trkpt>
      <trkpt lat="43.0609" lon="2.21442">
        <ele>170</ele>
        <time>2016-07-06T03:50:21Z</time>
      </trkpt>
      <trkpt lat="43.0608" lon="2.21436">
        <ele>171</ele>
        <time>2016-07-06T03:52:21Z</time>
      </trkpt>
      <trkpt lat="43.06063" lon="2.21424">
        <ele>171</ele>
        <time>2016-07-06T03:54:21Z</time>
      </trkpt>
      <trkpt lat="43.06051" lon="2.21416">
        <ele>172</ele>
        <time>2016-07-06T03:56:21Z</time>
      </trkpt>
      <trkpt lat="43.06039" lon="2.21409">
        <ele>173</ele>
        <time>2016-07-06T03:58:21Z</time>
      </trkpt>
      <trkpt lat="43.06035" lon="2.21406">
        <ele>173</ele>
        <time>2016-07-06T04:00:21Z</time>
      </trkpt>
      <trkpt lat="43.0603" lon="2.21403">
        <ele>174</ele>
        <time>2016-07-06T04:02:21Z</time>
      </trkpt>
      <trkpt lat="43.06025" lon="2.21401">
        <ele>174</ele>
        <time>2016-07-06T04:04:21Z</time>
      </trkpt>
      <trkpt lat="43.0602" lon="2.21399">
        <ele>174</ele>
        <time>2016-07-06T04:06:21Z</time>
      </trkpt>
      <trkpt lat="43.06015" lon="2.21397">
        <ele>175</ele>
        <time>2016-07-06T04:08:21Z</time>
      </trkpt>
      <trkpt lat="43.06008" lon="2.21394">
        <ele>175</ele>
        <time>2016-07-06T04:10:21Z</time>
      </trkpt>
      <trkpt lat="43.06002" lon="2.21393">
        <ele>175</ele>
        <time>2016-07-06T04:12:21Z</time>
      </trkpt>
      <trkpt lat="43.05996" lon="2.21391">
        <ele>175</ele>
        <time>2016-07-06T04:14:21Z</time>
      </trkpt>
      <trkpt lat="43.05988" lon="2.21389">
        <ele>175</ele>
        <time>2016-07-06T04:16:21Z</time>
      </trkpt>
      <trkpt lat="43.05962" lon="2.21386">
        <ele>175</ele>
        <time>2016-07-06T04:18:21Z</time>
      </trkpt>
      <trkpt lat="43.05913" lon="2.21378">
        <ele>175</ele>
        <time>2016-07-06T04:20:21Z</time>
      </trkpt>
      <trkpt lat="43.05855" lon="2.21368">
        <ele>173</ele>
        <time>2016-07-06T04:22:21Z</time>
      </trkpt>
      <trkpt lat="43.05817" lon="2.2136">
        <ele>171</ele>
        <time>2016-07-06T04:24:21Z</time>
      </trkpt>
      <trkpt lat="43.05807" lon="2.21359">
        <ele>171</ele>
        <time>2016-07-06T04:26:21Z</time>
      </trkpt>
      <trkpt lat="43.05795" lon="2.21358">
        <ele>170</ele>
        <time>2016-07-06T04:28:21Z</time>
      </trkpt>
      <trkpt lat="43.05777" lon="2.2136">
        <ele>169</ele>
        <time>2016-07-06T04:30:21Z</time>
      </trkpt>
      <trkpt lat="43.05767" lon="2.21359">
        <ele>169</ele>
        <time>2016-07-06T04:32:21Z</time>
      </trkpt>
      <trkpt lat="43.05766" lon="2.21359">
        <ele>169</ele>
        <time>2016-07-06T04:34:21Z</time>
      </trkpt>
      <trkpt lat="43.05755" lon="2.2136">
        <ele>168</ele>
        <time>2016-07-06T04:36:21Z</time>
      </trkpt>
      <trkpt lat="43.05746" lon="2.21363">
        <ele>168</ele>
        <time>2016-07-06T04:38:21Z</time>
      </trkpt>
      <trkpt lat="43.05734" lon="2.21367">
        <ele>168</ele>
        <time>2016-07-06T04:40:21Z</time>
      </trkpt>
      <trkpt lat="43.05724" lon="2.21367">
        <ele>168</ele>
        <time>2016-07-06T04:42:21Z</time>
      </trkpt>
      <trkpt lat="43.05719" lon="2.21367">
        <ele>169</ele>
        <time>2016-07-06T04:44:21Z</time>
      </trkpt>
      <trkpt lat="43.05714" lon="2.21366">
        <ele>169</ele>
        <time>2016-07-06T04:46:21Z</time>
      </trkpt>
      <trkpt lat="43.057" lon="2.21363">
        <ele>169</ele>
        <time>2016-07-06T04:48:21Z</time>
      </trkpt>
      <trkpt lat="43.05684" lon="2.21358">
        <ele>169</ele>
        <time>2016-07-06T04:50:21Z</time>
      </trkpt>
      <trkpt lat="43.05679" lon="2.21357">
        <ele>169</ele>
        <time>2016-07-06T04:52:21Z</time>
      </trkpt>
      <trkpt lat="43.05673" lon="2.21357">
        <ele>170</ele>
        <time>2016-07-06T04:54:21Z</time>
      </trkpt>
      <trkpt lat="43.05629" lon="2.21344">
        <ele>171</ele>
        <time>2016-07-06T04:56:21Z</time>
      </trkpt>
      <trkpt lat="43.05574" lon="2.21329">
        <ele>172</ele>
        <time>2016-07-06T04:58:21Z</time>
      </trkpt>
      <trkpt lat="43.05567" lon="2.21325">
        <ele>172</ele>
        <time>2016-07-06T05:00:21Z</time>
      </trkpt>
      <trkpt lat="43.05517" lon="2.21308">
        <ele>173</ele>
        <time>2016-07-06T05:02:21Z</time>
      </trkpt>
      <trkpt lat="43.05517" lon="2.21308">
        <ele>173</ele>
        <time>2016-07-06T05:04:21Z</time>
      </trkpt>
      <trkpt lat="43.05525" lon="2.213">
        <ele>173</ele>
        <time>2016-07-06T05:06:21Z</time>
      </trkpt>
      <trkpt lat="43.05531" lon="2.21296">
        <ele>173</ele>
        <time>2016-07-06T05:08:21Z</time>
      </trkpt>
      <trkpt lat="43.05577" lon="2.21269">
        <ele>171</ele>
        <time>2016-07-06T05:10:21Z</time>
      </trkpt>
      <trkpt lat="43.05606" lon="2.21253">
        <ele>170</ele>
        <time>2016-07-06T05:12:21Z</time>
      </trkpt>
      <trkpt lat="43.05618" lon="2.21248">
        <ele>170</ele>
        <time>2016-07-06T05:14:21Z</time>
      </trkpt>
      <trkpt lat="43.05625" lon="2.21245">
        <ele>170</ele>
        <time>2016-07-06T05:16:21Z</time>
      </trkpt>
      <trkpt lat="43.05633" lon="2.21242">
        <ele>169</ele>
        <time>2016-07-06T05:18:21Z</time>
      </trkpt>
      <trkpt lat="43.05648" lon="2.21239">
        <ele>169</ele>
        <time>2016-07-06T05:20:21Z</time>
      </trkpt>
      <trkpt lat="43.05657" lon="2.21239">
        <ele>169</ele>
        <time>2016-07-06T05:22:21Z</time>
      </trkpt>
      <trkpt lat="43.05657" lon="2.21239">
        <ele>169</ele>
        <time>2016-07-06T05:24:21Z</time>
      </trkpt>
      <trkpt lat="43.05648" lon="2.21281">
        <ele>170</ele>
        <time>2016-07-06T05:26:21Z</time>
      </trkpt>
      <trkpt lat="43.05646" lon="2.21291">
        <ele>170</ele>
        <time>2016-07-06T05:28:21Z</time>
      </trkpt>
      <trkpt lat="43.05643" lon="2.213">
        <ele>170</ele>
        <time>2016-07-06T05:30:21Z</time>
      </trkpt>
      <trkpt lat="43.05633" lon="2.2133">
        <ele>171</ele>
        <time>2016-07-06T05:32:21Z</time>
      </trkpt>
      <trkpt lat="43.05629" lon="2.21344">
        <ele>171</ele>
        <time>2016-07-06T05:34:21Z</time>
      </trkpt>
      <trkpt lat="43.05629" lon="2.21363">
        <ele>171</ele>
        <time>2016-07-06T05:36:21Z</time>
      </trkpt>
      <trkpt lat="43.05631" lon="2.21383">
        <ele>170</ele>
        <time>2016-07-06T05:38:21Z</time>
      </trkpt>
      <trkpt lat="43.05634" lon="2.21409">
        <ele>170</ele>
        <time>2016-07-06T05:40:21Z</time>
      </trkpt>
      <trkpt lat="43.05637" lon="2.21431">
        <ele>170</ele>
        <time>2016-07-06T05:42:21Z</time>
      </trkpt>
      <trkpt lat="43.0564" lon="2.21451">
        <ele>169</ele>
        <time>2016-07-06T05:44:21Z</time>
      </trkpt>
      <trkpt lat="43.05644" lon="2.2147">
        <ele>169</ele>
        <time>2016-07-06T05:46:21Z</time>
      </trkpt>
      <trkpt lat="43.05644" lon="2.2147">
        <ele>169</ele>
        <time>2016-07-06T05:48:21Z</time>
      </trkpt>
      <trkpt lat="43.05663" lon="2.21533">
        <ele>168</ele>
        <time>2016-07-06T05:50:21Z</time>
      </trkpt>
      <trkpt lat="43.05684" lon="2.21606">
        <ele>167</ele>
        <time>2016-07-06T05:52:21Z</time>
      </trkpt>
      <trkpt lat="43.05687" lon="2.21613">
        <ele>167</ele>
        <time>2016-07-06T05:54:21Z</time>
      </trkpt>
      <trkpt lat="43.05687" lon="2.21616">
        <ele>167</ele>
        <time>2016-07-06T05:56:21Z</time>
      </trkpt>
      <trkpt lat="43.05687" lon="2.21617">
        <ele>167</ele>
        <time>2016-07-06T05:58:21Z</time>
      </trkpt>
      <trkpt lat="43.05687" lon="2.21619">
        <ele>167</ele>
        <time>2016-07-06T06:00:21Z</time>
      </trkpt>
      <trkpt lat="43.05686" lon="2.21621">
        <ele>167</ele>
        <time>2016-07-06T06:02:21Z</time>
      </trkpt>
      <trkpt lat="43.05685" lon="2.21623">
        <ele>167</ele>
        <time>2016-07-06T06:04:21Z</time>
      </trkpt>
      <trkpt lat="43.05683" lon="2.21625">
        <ele>167</ele>
        <time>2016-07-06T06:06:21Z</time>
      </trkpt>
      <trkpt lat="43.05666" lon="2.21647">
        <ele>166</ele>
        <time>2016-07-06T06:08:21Z</time>
      </trkpt>
      <trkpt lat="43.05647" lon="2.21671">
        <ele>166</ele>
        <time>2016-07-06T06:10:21Z</time>
      </trkpt>
      <trkpt lat="43.05646" lon="2.21672">
        <ele>167</ele>
        <time>2016-07-06T06:12:21Z</time>
      </trkpt>
      <trkpt lat="43.05644" lon="2.21674">
        <ele>167</ele>
        <time>2016-07-06T06:14:21Z</time>
      </trkpt>
      <trkpt lat="43.05642" lon="2.21676">
        <ele>167</ele>
        <time>2016-07-06T06:16:21Z</time>
      </trkpt>
      <trkpt lat="43.05626" lon="2.21695">
        <ele>167</ele>
        <time>2016-07-06T06:18:21Z</time>
      </trkpt>
      <trkpt lat="43.05589" lon="2.21736">
        <ele>166</ele>
        <time>2016-07-06T06:20:21Z</time>
      </trkpt>
      <trkpt lat="43.05563" lon="2.21762">
        <ele>167</ele>
        <time>2016-07-06T06:22:21Z</time>
      </trkpt>
      <trkpt lat="43.05546" lon="2.2178">
        <ele>168</ele>
        <time>2016-07-06T06:24:21Z</time>
      </trkpt>
      <trkpt lat="43.05521" lon="2.21805">
        <ele>168</ele>
        <time>2016-07-06T06:26:21Z</time>
      </trkpt>
      <trkpt lat="43.05502" lon="2.21825">
        <ele>168</ele>
        <time>2016-07-06T06:28:21Z</time>
      </trkpt>
      <trkpt lat="43.0548" lon="2.21844">
        <ele>169</ele>
        <time>2016-07-06T06:30:21Z</time>
      </trkpt>
      <trkpt lat="43.05473" lon="2.21849">
        <ele>169</ele>
        <time>2016-07-06T06:32:21Z</time>
      </trkpt>
      <trkpt lat="43.05462" lon="2.21859">
        <ele>170</ele>
        <time>2016-07-06T06:34:21Z</time>
      </trkpt>
      <trkpt lat="43.05446" lon="2.21874">
        <ele>170</ele>
        <time>2016-07-06T06:36:21Z</time>
      </trkpt>
      <trkpt lat="43.05426" lon="2.21891">
        <ele>170</ele>
        <time>2016-07-06T06:38:21Z</time>
      </trkpt>
      <trkpt lat="43.05407" lon="2.21905">
        <ele>170</ele>
        <time>2016-07-06T06:40:21Z</time>
      </trkpt>
      <trkpt lat="43.05405" lon="2.21906">
        <ele>170</ele>
        <time>2016-07-06T06:42:21Z</time>
      </trkpt>
      <trkpt lat="43.05402" lon="2.2191">
        <ele>170</ele>
        <time>2016-07-06T06:44:21Z</time>
      </trkpt>
      <trkpt lat="43.05396" lon="2.21915">
        <ele>170</ele>
        <time>2016-07-06T06:46:21Z</time>
      </trkpt>
      <trkpt lat="43.05392" lon="2.21919">
        <ele>170</ele>
        <time>2016-07-06T06:48:21Z</time>
      </trkpt>
      <trkpt lat="43.05375" lon="2.21935">
        <ele>170</ele>
        <time>2016-07-06T06:50:21Z</time>
      </trkpt>
      <trkpt lat="43.0536" lon="2.21948">
        <ele>170</ele>
        <time>2016-07-06T06:52:21Z</time>
      </trkpt>
      <trkpt lat="43.05348" lon="2.21958">
        <ele>170</ele>
        <time>2016-07-06T06:54:21Z</time>
      </trkpt>
      <trkpt lat="43.05332" lon="2.21972">
        <ele>170</ele>
        <time>2016-07-06T06:56:21Z</time>
      </trkpt>
      <trkpt lat="43.05327" lon="2.21976">
        <ele>170</ele>
        <time>2016-07-06T06:58:21Z</time>
      </trkpt>
      <trkpt lat="43.05323" lon="2.21978">
        <ele>170</ele>
        <time>2016-07-06T07:00:21Z</time>
      </trkpt>
      <trkpt lat="43.05311" lon="2.2199">
        <ele>169</ele>
        <time>2016-07-06T07:02:21Z</time>
      </trkpt>
      <trkpt lat="43.05296" lon="2.22002">
        <ele>169</ele>
        <time>2016-07-06T07:04:21Z</time>
      </trkpt>
      <trkpt lat="43.05287" lon="2.22008">
        <ele>170</ele>
        <time>2016-07-06T07:06:21Z</time>
      </trkpt>
      <trkpt lat="43.05277" lon="2.22016">
        <ele>170</ele>
        <time>2016-07-06T07:08:21Z</time>
      </trkpt>
      <trkpt lat="43.05256" lon="2.22028">
        <ele>170</ele>
        <time>2016-07-06T07:10:21Z</time>
      </trkpt>
      <trkpt lat="43.05217" lon="2.2205">
        <ele>170</ele>
        <time>2016-07-06T07:12:21Z</time>
      </trkpt>
      <trkpt lat="43.05188" lon="2.22067">
        <ele>169</ele>
        <time>2016-07-06T07:14:21Z</time>
      </trkpt>
      <trkpt lat="43.05143" lon="2.22089">
        <ele>169</ele>
        <time>2016-07-06T07:16:21Z</time>
      </trkpt>
      <trkpt lat="43.05136" lon="2.22092">
        <ele>169</ele>
        <time>2016-07-06T07:18:21Z</time>
      </trkpt>
      <trkpt lat="43.05131" lon="2.22094">
        <ele>169</ele>
        <time>2016-07-06T07:20:21Z</time>
      </trkpt>
      <trkpt lat="43.05124" lon="2.22097">
        <ele>169</ele>
        <time>2016-07-06T07:22:21Z</time>
      </trkpt>
      <trkpt lat="43.05119" lon="2.22098">
        <ele>169</ele>
        <time>2016-07-06T07:24:21Z</time>
      </trkpt>
      <trkpt lat="43.05112" lon="2.22099">
        <ele>169</ele>
        <time>2016-07-06T07:26:21Z</time>
      </trkpt>
      <trkpt lat="43.05109" lon="2.22098">
        <ele>169</ele>
        <time>2016-07-06T07:28:21Z</time>
      </trkpt>
      <trkpt lat="43.05106" lon="2.22096">
        <ele>169</ele>
        <time>2016-07-06T07:30:21Z</time>
      </trkpt>
      <trkpt lat="43.05103" lon="2.22088">
        <ele>170</ele>
        <time>2016-07-06T07:32:21Z</time>
      </trkpt>
      <trkpt lat="43.05101" lon="2.22069">
        <ele>170</ele>
        <time>2016-07-06T07:34:21Z</time>
      </trkpt>
      <trkpt lat="43.05101" lon="2.22069">
        <ele>170</ele>
        <time>2016-07-06T07:36:21Z</time>
      </trkpt>
      <trkpt lat="43.05092" lon="2.22066">
        <ele>171</ele>
        <time>2016-07-06T07:38:21Z</time>
      </trkpt>
      <trkpt lat="43.05056" lon="2.22052">
        <ele>171</ele>
        <time>2016-07-06T07:40:21Z</time>
      </trkpt>
      <trkpt lat="43.05018" lon="2.22038">
        <ele>172</ele>
        <time>2016-07-06T07:42:21Z</time>
      </trkpt>
      <trkpt lat="43.04981" lon="2.22024">
        <ele>172</ele>
        <time>2016-07-06T07:44:21Z</time>
      </trkpt>
      <trkpt lat="43.04941" lon="2.22008">
        <ele>173</ele>
        <time>2016-07-06T07:46:21Z</time>
      </trkpt>
      <trkpt lat="43.04938" lon="2.22003">
        <ele>174</ele>
        <time>2016-07-06T07:48:21Z</time>
      </trkpt>
      <trkpt lat="43.04937" lon="2.22">
        <ele>174</ele>
        <time>2016-07-06T07:50:21Z</time>
      </trkpt>
      <trkpt lat="43.04934" lon="2.21995">
        <ele>174</ele>
        <time>2016-07-06T07:52:21Z</time>
      </trkpt>
      <trkpt lat="43.04931" lon="2.21986">
        <ele>174</ele>
        <time>2016-07-06T07:54:21Z</time>
      </trkpt>
      <trkpt lat="43.04931" lon="2.21986">
        <ele>174</ele>
        <time>2016-07-06T07:56:21Z</time>
      </trkpt>
      <trkpt lat="43.04912" lon="2.22006">
        <ele>174</ele>
        <time>2016-07-06T07:58:21Z</time>
      </trkpt>
      <trkpt lat="43.04899" lon="2.22015">
        <ele>174</ele>
        <time>2016-07-06T08:00:21Z</time>
      </trkpt>
      <trkpt lat="43.0489" lon="2.2202">
        <ele>175</ele>
        <time>2016-07-06T08:02:21Z</time>
      </trkpt>
      <trkpt lat="43.04883" lon="2.22024">
        <ele>175</ele>
        <time>2016-07-06T08:04:21Z</time>
      </trkpt>
      <trkpt lat="43.04875" lon="2.22029">
        <ele>175</ele>
        <time>2016-07-06T08:06:21Z</time>
      </trkpt>
      <trkpt lat="43.04849" lon="2.2204">
        <ele>176</ele>
        <time>2016-07-06T08:08:21Z</time>
      </trkpt>
      <trkpt lat="43.04825" lon="2.22047">
        <ele>176</ele>
        <time>2016-07-06T08:10:21Z</time>
      </trkpt>
      <trkpt lat="43.04792" lon="2.22056">
        <ele>177</ele>
        <time>2016-07-06T08:12:21Z</time>
      </trkpt>
      <trkpt lat="43.04762" lon="2.22064">
        <ele>177</ele>
        <time>2016-07-06T08:14:21Z</time>
      </trkpt>
      <trkpt lat="43.04735" lon="2.22072">
        <ele>178</ele>
        <time>2016-07-06T08:16:21Z</time>
      </trkpt>
      <trkpt lat="43.0472" lon="2.22076">
        <ele>179</ele>
        <time>2016-07-06T08:18:21Z</time>
      </trkpt>
      <trkpt lat="43.04708" lon="2.2208">
        <ele>179</ele>
        <time>2016-07-06T08:20:21Z</time>
      </trkpt>
      <trkpt lat="43.047" lon="2.22083">
        <ele>179</ele>
        <time>2016-07-06T08:22:21Z</time>
      </trkpt>
      <trkpt lat="43.0469" lon="2.22085">
        <ele>179</ele>
        <time>2016-07-06T08:24:21Z</time>
      </trkpt>
      <trkpt lat="43.04687" lon="2.22086">
        <ele>179</ele>
        <time>2016-07-06T08:26:21Z</time>
      </trkpt>
      <trkpt lat="43.04674" lon="2.22092">
        <ele>180</ele>
        <time>2016-07-06T08:28:21Z</time>
      </trkpt>
      <trkpt lat="43.0466" lon="2.22099">
        <ele>181</ele>
        <time>2016-07-06T08:30:21Z</time>
      </trkpt>
      <trkpt lat="43.04646" lon="2.22107">
        <ele>182</ele>
        <time>2016-07-06T08:32:21Z</time>
      </trkpt>
      <trkpt lat="43.04634" lon="2.22115">
        <ele>183</ele>
        <time>2016-07-06T08:34:21Z</time>
      </trkpt>
      <trkpt lat="43.04621" lon="2.22124">
        <ele>183</ele>
        <time>2016-07-06T08:36:21Z</time>
      </trkpt>
      <trkpt lat="43.0461" lon="2.22135">
        <ele>182</ele>
        <time>2016-07-06T08:38:21Z</time>
      </trkpt>
      <trkpt lat="43.04595" lon="2.22151">
        <ele>180</ele>
        <time>2016-07-06T08:40:21Z</time>
      </trkpt>
      <trkpt lat="43.0458" lon="2.22172">
        <ele>177</ele>
        <time>2016-07-06T08:42:21Z</time>
      </trkpt>
      <trkpt lat="43.04573" lon="2.22182">
        <ele>177</ele>
        <time>2016-07-06T08:44:21Z</time>
      </trkpt>
      <trkpt lat="43.04568" lon="2.2219">
        <ele>176</ele>
        <time>2016-07-06T08:46:21Z</time>
      </trkpt>
      <trkpt lat="43.0456" lon="2.22205">
        <ele>176</ele>
        <time>2016-07-06T08:48:21Z</time>
      </trkpt>
      <trkpt lat="43.04556" lon="2.22212">
        <ele>176</ele>
        <time>2016-07-06T08:50:21Z</time>
      </trkpt>
      <trkpt lat="43.04553" lon="2.22221">
        <ele>175</ele>
        <time>2016-07-06T08:52:21Z</time>
      </trkpt>
      <trkpt lat="43.0455" lon="2.22229">
        <ele>175</ele>
        <time>2016-07-06T08:54:21Z</time>
      </trkpt>
      <trkpt lat="43.04547" lon="2.22241">
        <ele>175</ele>
        <time>2016-07-06T08:56:21Z</time>
      </trkpt>
      <trkpt lat="43.04545" lon="2.22246">
        <ele>175</ele>
        <time>2016-07-06T08:58:21Z</time>
      </trkpt>
      <trkpt lat="43.04544" lon="2.22251">
        <ele>174</ele>
        <time>2016-07-06T09:00:21Z</time>
      </trkpt>
      <trkpt lat="43.04543" lon="2.2226">
        <ele>174</ele>
        <time>2016-07-06T09:02:21Z</time>
      </trkpt>
      <trkpt lat="43.04543" lon="2.22264">
        <ele>174</ele>
        <time>2016-07-06T09:04:21Z</time>
      </trkpt>
      <trkpt lat="43.0454" lon="2.22291">
        <ele>174</ele>
        <time>2016-07-06T09:06:21Z</time>
      </trkpt>
      <trkpt lat="43.04533" lon="2.22345">
        <ele>173</ele>
        <time>2016-07-06T09:08:21Z</time>
      </trkpt>
      <trkpt lat="43.04527" lon="2.22403">
        <ele>174</ele>
        <time>2016-07-06T09:10:21Z</time>
      </trkpt>
      <trkpt lat="43.04525" lon="2.22415">
        <ele>174</ele>
        <time>2016-07-06T09:12:21Z</time>
      </trkpt>
      <trkpt lat="43.04525" lon="2.22421">
        <ele>174</ele>
        <time>2016-07-06T09:14:21Z</time>
      </trkpt>
      <trkpt lat="43.04523" lon="2.22432">
        <ele>174</ele>
        <time>2016-07-06T09:16:21Z</time>
      </trkpt>
      <trkpt lat="43.04519" lon="2.22444">
        <ele>174</ele>
        <time>2016-07-06T09:18:21Z</time>
      </trkpt>
      <trkpt lat="43.04516" lon="2.22452">
        <ele>174</ele>
        <time>2016-07-06T09:20:21Z</time>
      </trkpt>
      <trkpt lat="43.04513" lon="2.2246">
        <ele>174</ele>
        <time>2016-07-06T09:22:21Z</time>
      </trkpt>
      <trkpt lat="43.04504" lon="2.22471">
        <ele>175</ele>
        <time>2016-07-06T09:24:21Z</time>
      </trkpt>
      <trkpt lat="43.04503" lon="2.22471">
        <ele>175</ele>
        <time>2016-07-06T09:26:21Z</time>
      </trkpt>
      <trkpt lat="43.04502" lon="2.22471">
        <ele>175</ele>
        <time>2016-07-06T09:28:21Z</time>
      </trkpt>
      <trkpt lat="43.04501" lon="2.22471">
        <ele>175</ele>
        <time>2016-07-06T09:30:21Z</time>
      </trkpt>
      <trkpt lat="43.045" lon="2.22471">
        <ele>175</ele>
        <time>2016-07-06T09:32:21Z</time>
      </trkpt>
      <trkpt lat="43.04499" lon="2.22471">
        <ele>175</ele>
        <time>2016-07-06T09:34:21Z</time>
      </trkpt>
      <trkpt lat="43.04499" lon="2.22472">
        <ele>175</ele>
        <time>2016-07-06T09:36:21Z</time>
      </trkpt>
      <trkpt lat="43.04498" lon="2.22472">
        <ele>175</ele>
        <time>2016-07-06T09:38:21Z</time>
      </trkpt>
      <trkpt lat="43.04497" lon="2.22473">
        <ele>175</ele>
        <time>2016-07-06T09:40:21Z</time>
      </trkpt>
      <trkpt lat="43.04496" lon="2.22474">
        <ele>175</ele>
        <time>2016-07-06T09:42:21Z</time>
      </trkpt>
      <trkpt lat="43.04495" lon="2.22475">
        <ele>175</ele>
        <time>2016-07-06T09:44:21Z</time>
      </trkpt>
      <trkpt lat="43.04494" lon="2.22476">
        <ele>175</ele>
        <time>2016-07-06T09:46:21Z</time>
      </trkpt>
      <trkpt lat="43.04494" lon="2.22477">
        <ele>175</ele>
        <time>2016-07-06T09:48:21Z</time>
      </trkpt>
      <trkpt lat="43.04493" lon="2.22478">
        <ele>175</ele>
        <time>2016-07-06T09:50:21Z</time>
      </trkpt>
      <trkpt lat="43.04493" lon="2.22479">
        <ele>175</ele>
        <time>2016-07-06T09:52:21Z</time>
      </trkpt>
      <trkpt lat="43.04492" lon="2.2248">
        <ele>176</ele>
        <time>2016-07-06T09:54:21Z</time>
      </trkpt>
      <trkpt lat="43.04492" lon="2.22481">
        <ele>176</ele>
        <time>2016-07-06T09:56:21Z</time>
      </trkpt>
      <trkpt lat="43.04492" lon="2.22482">
        <ele>176</ele>
        <time>2016-07-06T09:58:21Z</time>
      </trkpt>
      <trkpt lat="43.04491" lon="2.22483">
        <ele>176</ele>
        <time>2016-07-06T10:00:21Z</time>
      </trkpt>
      <trkpt lat="43.04491" lon="2.22484">
        <ele>176</ele>
        <time>2016-07-06T10:02:21Z</time>
      </trkpt>
      <trkpt lat="43.04491" lon="2.22485">
        <ele>176</ele>
        <time>2016-07-06T10:04:21Z</time>
      </trkpt>
      <trkpt lat="43.04491" lon="2.22486">
        <ele>176</ele>
        <time>2016-07-06T10:06:21Z</time>
      </trkpt>
      <trkpt lat="43.04491" lon="2.22487">
        <ele>176</ele>
        <time>2016-07-06T10:08:21Z</time>
      </trkpt>
      <trkpt lat="43.04491" lon="2.22488">
        <ele>176</ele>
        <time>2016-07-06T10:10:21Z</time>
      </trkpt>
      <trkpt lat="43.04491" lon="2.22489">
        <ele>176</ele>
        <time>2016-07-06T10:12:21Z</time>
      </trkpt>
      <trkpt lat="43.04491" lon="2.2249">
        <ele>176</ele>
        <time>2016-07-06T10:14:21Z</time>
      </trkpt>
      <trkpt lat="43.04491" lon="2.22491">
        <ele>176</ele>
        <time>2016-07-06T10:16:21Z</time>
      </trkpt>
      <trkpt lat="43.04491" lon="2.22492">
        <ele>176</ele>
        <time>2016-07-06T10:18:21Z</time>
      </trkpt>
      <trkpt lat="43.04491" lon="2.22493">
        <ele>176</ele>
        <time>2016-07-06T10:20:21Z</time>
      </trkpt>
      <trkpt lat="43.04491" lon="2.22494">
        <ele>176</ele>
        <time>2016-07-06T10:22:21Z</time>
      </trkpt>
      <trkpt lat="43.04492" lon="2.22495">
        <ele>176</ele>
        <time>2016-07-06T10:24:21Z</time>
      </trkpt>
      <trkpt lat="43.04492" lon="2.22496">
        <ele>176</ele>
        <time>2016-07-06T10:26:21Z</time>
      </trkpt>
      <trkpt lat="43.04492" lon="2.22497">
        <ele>176</ele>
        <time>2016-07-06T10:28:21Z</time>
      </trkpt>
      <trkpt lat="43.04493" lon="2.22497">
        <ele>176</ele>
        <time>2016-07-06T10:30:21Z</time>
      </trkpt>
      <trkpt lat="43.04493" lon="2.22498">
        <ele>176</ele>
        <time>2016-07-06T10:32:21Z</time>
      </trkpt>
      <trkpt lat="43.04494" lon="2.22499">
        <ele>176</ele>
        <time>2016-07-06T10:34:21Z</time>
      </trkpt>
      <trkpt lat="43.04494" lon="2.225">
        <ele>176</ele>
        <time>2016-07-06T10:36:21Z</time>
      </trkpt>
      <trkpt lat="43.04495" lon="2.225">
        <ele>175</ele>
        <time>2016-07-06T10:38:21Z</time>
      </trkpt>
      <trkpt lat="43.04495" lon="2.22501">
        <ele>175</ele>
        <time>2016-07-06T10:40:21Z</time>
      </trkpt>
      <trkpt lat="43.04496" lon="2.22502">
        <ele>175</ele>
        <time>2016-07-06T10:42:21Z</time>
      </trkpt>
      <trkpt lat="43.04497" lon="2.22503">
        <ele>175</ele>
        <time>2016-07-06T10:44:21Z</time>
      </trkpt>
      <trkpt lat="43.04498" lon="2.22504">
        <ele>175</ele>
        <time>2016-07-06T10:46:21Z</time>
      </trkpt>
      <trkpt lat="43.04502" lon="2.22522">
        <ele>175</ele>
        <time>2016-07-06T10:48:21Z</time>
      </trkpt>
      <trkpt lat="43.04504" lon="2.22542">
        <ele>174</ele>
        <time>2016-07-06T10:50:21Z</time>
      </trkpt>
      <trkpt lat="43.04506" lon="2.22547">
        <ele>174</ele>
        <time>2016-07-06T10:52:21Z</time>
      </trkpt>
      <trkpt lat="43.04504" lon="2.22581">
        <ele>174</ele>
        <time>2016-07-06T10:54:21Z</time>
      </trkpt>
      <trkpt lat="43.04503" lon="2.22598">
        <ele>174</ele>
        <time>2016-07-06T10:56:21Z</time>
      </trkpt>
      <trkpt lat="43.04488" lon="2.22726">
        <ele>175</ele>
        <time>2016-07-06T10:58:21Z</time>
      </trkpt>
      <trkpt lat="43.04483" lon="2.22765">
        <ele>175</ele>
        <time>2016-07-06T11:00:21Z</time>
      </trkpt>
      <trkpt lat="43.04469" lon="2.22869">
        <ele>178</ele>
        <time>2016-07-06T11:02:21Z</time>
      </trkpt>
      <trkpt lat="43.04458" lon="2.22954">
        <ele>178</ele>
        <time>2016-07-06T11:04:21Z</time>
      </trkpt>
      <trkpt lat="43.04452" lon="2.22999">
        <ele>177</ele>
        <time>2016-07-06T11:06:21Z</time>
      </trkpt>
      <trkpt lat="43.04435" lon="2.23135">
        <ele>177</ele>
        <time>2016-07-06T11:08:21Z</time>
      </trkpt>
      <trkpt lat="43.04431" lon="2.23164">
        <ele>177</ele>
        <time>2016-07-06T11:10:21Z</time>
      </trkpt>
      <trkpt lat="43.04427" lon="2.23187">
        <ele>177</ele>
        <time>2016-07-06T11:12:21Z</time>
      </trkpt>
      <trkpt lat="43.04427" lon="2.23186">
        <ele>177</ele>
        <time>2016-07-06T11:14:21Z</time>
      </trkpt>
      <trkpt lat="43.04426" lon="2.23186">
        <ele>177</ele>
        <time>2016-07-06T11:16:21Z</time>
      </trkpt>
      <trkpt lat="43.04425" lon="2.23186">
        <ele>177</ele>
        <time>2016-07-06T11:18:21Z</time>
      </trkpt>
      <trkpt lat="43.04424" lon="2.23186">
        <ele>177</ele>
        <time>2016-07-06T11:20:21Z</time>
      </trkpt>
      <trkpt lat="43.04423" lon="2.23186">
        <ele>177</ele>
        <time>2016-07-06T11:22:21Z</time>
      </trkpt>
      <trkpt lat="43.04423" lon="2.23187">
        <ele>177</ele>
        <time>2016-07-06T11:24:21Z</time>
      </trkpt>
      <trkpt lat="43.04422" lon="2.23187">
        <ele>177</ele>
        <time>2016-07-06T11:26:21Z</time>
      </trkpt>
      <trkpt lat="43.04421" lon="2.23187">
        <ele>177</ele>
        <time>2016-07-06T11:28:21Z</time>
      </trkpt>
      <trkpt lat="43.0442" lon="2.23188">
        <ele>177</ele>
        <time>2016-07-06T11:30:21Z</time>
      </trkpt>
      <trkpt lat="43.04419" lon="2.23188">
        <ele>177</ele>
        <time>2016-07-06T11:32:21Z</time>
      </trkpt>
      <trkpt lat="43.04419" lon="2.23189">
        <ele>177</ele>
        <time>2016-07-06T11:34:21Z</time>
      </trkpt>
      <trkpt lat="43.04418" lon="2.2319">
        <ele>177</ele>
        <time>2016-07-06T11:36:21Z</time>
      </trkpt>
      <trkpt lat="43.04417" lon="2.23191">
        <ele>177</ele>
        <time>2016-07-06T11:38:21Z</time>
      </trkpt>
      <trkpt lat="43.04417" lon="2.23192">
        <ele>177</ele>
        <time>2016-07-06T11:40:21Z</time>
      </trkpt>
      <trkpt lat="43.04416" lon="2.23193">
        <ele>177</ele>
        <time>2016-07-06T11:42:21Z</time>
      </trkpt>
      <trkpt lat="43.04416" lon="2.23194">
        <ele>177</ele>
        <time>2016-07-06T11:44:21Z</time>
      </trkpt>
      <trkpt lat="43.04416" lon="2.23195">
        <ele>177</ele>
        <time>2016-07-06T11:46:21Z</time>
      </trkpt>
      <trkpt lat="43.04415" lon="2.23196">
        <ele>178</ele>
        <time>2016-07-06T11:48:21Z</time>
      </trkpt>
      <trkpt lat="43.04415" lon="2.23197">
        <ele>178</ele>
        <time>2016-07-06T11:50:21Z</time>
      </trkpt>
      <trkpt lat="43.04415" lon="2.23198">
        <ele>178</ele>
        <time>2016-07-06T11:52:21Z</time>
      </trkpt>
      <trkpt lat="43.04415" lon="2.23199">
        <ele>178</ele>
        <time>2016-07-06T11:54:21Z</time>
      </trkpt>
      <trkpt lat="43.04415" lon="2.232">
        <ele>178</ele>
        <time>2016-07-06T11:56:21Z</time>
      </trkpt>
      <trkpt lat="43.04415" lon="2.23201">
        <ele>178</ele>
        <time>2016-07-06T11:58:21Z</time>
      </trkpt>
      <trkpt lat="43.04415" lon="2.23202">
        <ele>178</ele>
        <time>2016-07-06T12:00:21Z</time>
      </trkpt>
      <trkpt lat="43.04415" lon="2.23203">
        <ele>178</ele>
        <time>2016-07-06T12:02:21Z</time>
      </trkpt>
      <trkpt lat="43.04415" lon="2.23204">
        <ele>178</ele>
        <time>2016-07-06T12:04:21Z</time>
      </trkpt>
      <trkpt lat="43.04415" lon="2.23205">
        <ele>178</ele>
        <time>2016-07-06T12:06:21Z</time>
      </trkpt>
      <trkpt lat="43.04416" lon="2.23206">
        <ele>178</ele>
        <time>2016-07-06T12:08:21Z</time>
      </trkpt>
      <trkpt lat="43.04416" lon="2.23207">
        <ele>178</ele>
        <time>2016-07-06T12:10:21Z</time>
      </trkpt>
      <trkpt lat="43.04416" lon="2.23208">
        <ele>178</ele>
        <time>2016-07-06T12:12:21Z</time>
      </trkpt>
      <trkpt lat="43.04417" lon="2.23209">
        <ele>177</ele>
        <time>2016-07-06T12:14:21Z</time>
      </trkpt>
      <trkpt lat="43.04417" lon="2.2321">
        <ele>178</ele>
        <time>2016-07-06T12:16:21Z</time>
      </trkpt>
      <trkpt lat="43.04418" lon="2.23211">
        <ele>177</ele>
        <time>2016-07-06T12:18:21Z</time>
      </trkpt>
      <trkpt lat="43.04419" lon="2.23212">
        <ele>177</ele>
        <time>2016-07-06T12:20:21Z</time>
      </trkpt>
      <trkpt lat="43.0442" lon="2.23213">
        <ele>177</ele>
        <time>2016-07-06T12:22:21Z</time>
      </trkpt>
      <trkpt lat="43.04421" lon="2.23214">
        <ele>177</ele>
        <time>2016-07-06T12:24:21Z</time>
      </trkpt>
      <trkpt lat="43.04422" lon="2.23214">
        <ele>177</ele>
        <time>2016-07-06T12:26:21Z</time>
      </trkpt>
      <trkpt lat="43.04422" lon="2.23215">
        <ele>177</ele>
        <time>2016-07-06T12:28:21Z</time>
      </trkpt>
      <trkpt lat="43.04423" lon="2.23215">
        <ele>177</ele>
        <time>2016-07-06T12:30:21Z</time>
      </trkpt>
      <trkpt lat="43.04424" lon="2.23215">
        <ele>177</ele>
        <time>2016-07-06T12:32:21Z</time>
      </trkpt>
      <trkpt lat="43.04421" lon="2.23244">
        <ele>178</ele>
        <time>2016-07-06T12:34:21Z</time>
      </trkpt>
      <trkpt lat="43.04419" lon="2.2327">
        <ele>178</ele>
        <time>2016-07-06T12:36:21Z</time>
      </trkpt>
      <trkpt lat="43.04414" lon="2.23313">
        <ele>179</ele>
        <time>2016-07-06T12:38:21Z</time>
      </trkpt>
      <trkpt lat="43.04408" lon="2.2336">
        <ele>181</ele>
        <time>2016-07-06T12:40:21Z</time>
      </trkpt>
      <trkpt lat="43.04407" lon="2.2338">
        <ele>181</ele>
        <time>2016-07-06T12:42:21Z</time>
      </trkpt>
      <trkpt lat="43.04395" lon="2.23468">
        <ele>182</ele>
        <time>2016-07-06T12:44:21Z</time>
      </trkpt>
      <trkpt lat="43.04381" lon="2.23589">
        <ele>182</ele>
        <time>2016-07-06T12:46:21Z</time>
      </trkpt>
      <trkpt lat="43.04373" lon="2.23653">
        <ele>183</ele>
        <time>2016-07-06T12:48:21Z</time>
      </trkpt>
      <trkpt lat="43.04371" lon="2.23672">
        <ele>183</ele>
        <time>2016-07-06T12:50:21Z</time>
      </trkpt>
      <trkpt lat="43.04361" lon="2.23742">
        <ele>181</ele>
        <time>2016-07-06T12:52:21Z</time>
      </trkpt>
      <trkpt lat="43.04357" lon="2.23771">
        <ele>180</ele>
        <time>2016-07-06T12:54:21Z</time>
      </trkpt>
      <trkpt lat="43.04352" lon="2.23799">
        <ele>178</ele>
        <time>2016-07-06T12:56:21Z</time>
      </trkpt>
      <trkpt lat="43.04346" lon="2.23817">
        <ele>178</ele>
        <time>2016-07-06T12:58:21Z</time>
      </trkpt>
      <trkpt lat="43.04341" lon="2.23836">
        <ele>177</ele>
        <time>2016-07-06T13:00:21Z</time>
      </trkpt>
      <trkpt lat="43.04336" lon="2.23848">
        <ele>177</ele>
        <time>2016-07-06T13:02:21Z</time>
      </trkpt>
      <trkpt lat="43.0433" lon="2.23861">
        <ele>177</ele>
        <time>2016-07-06T13:04:21Z</time>
      </trkpt>
      <trkpt lat="43.04318" lon="2.23883">
        <ele>177</ele>
        <time>2016-07-06T13:06:21Z</time>
      </trkpt>
      <trkpt lat="43.04287" lon="2.23924">
        <ele>178</ele>
        <time>2016-07-06T13:08:21Z</time>
      </trkpt>
      <trkpt lat="43.0427" lon="2.23942">
        <ele>179</ele>
        <time>2016-07-06T13:10:21Z</time>
      </trkpt>
      <trkpt lat="43.04255" lon="2.23955">
        <ele>180</ele>
        <time>2016-07-06T13:12:21Z</time>
      </trkpt>
      <trkpt lat="43.04198" lon="2.2401">
        <ele>180</ele>
        <time>2016-07-06T13:14:21Z</time>
      </trkpt>
      <trkpt lat="43.04143" lon="2.24065">
        <ele>181</ele>
        <time>2016-07-06T13:16:21Z</time>
      </trkpt>
      <trkpt lat="43.04105" lon="2.24105">
        <ele>182</ele>
        <time>2016-07-06T13:18:21Z</time>
      </trkpt>
      <trkpt lat="43.04094" lon="2.24116">
        <ele>182</ele>
        <time>2016-07-06T13:20:21Z</time>
      </trkpt>
      <trkpt lat="43.0406" lon="2.24154">
        <ele>182</ele>
        <time>2016-07-06T13:22:21Z</time>
      </trkpt>
      <trkpt lat="43.04058" lon="2.24156">
        <ele>182</ele>
        <time>2016-07-06T13:24:21Z</time>
      </trkpt>
      <trkpt lat="43.04022" lon="2.24194">
        <ele>182</ele>
        <time>2016-07-06T13:26:21Z</time>
      </trkpt>
      <trkpt lat="43.03945" lon="2.24281">
        <ele>181</ele>
        <time>2016-07-06T13:28:21Z</time>
      </trkpt>
      <trkpt lat="43.03938" lon="2.24288">
        <ele>181</ele>
        <time>2016-07-06T13:30:21Z</time>
      </trkpt>
      <trkpt lat="43.03923" lon="2.24304">
        <ele>181</ele>
        <time>2016-07-06T13:32:21Z</time>
      </trkpt>
      <trkpt lat="43.03864" lon="2.24368">
        <ele>180</ele>
        <time>2016-07-06T13:34:21Z</time>
      </trkpt>
      <trkpt lat="43.0384" lon="2.24392">
        <ele>181</ele>
        <time>2016-07-06T13:36:21Z</time>
      </trkpt>
      <trkpt lat="43.03826" lon="2.24407">
        <ele>181</ele>
        <time>2016-07-06T13:38:21Z</time>
      </trkpt>
      <trkpt lat="43.03766" lon="2.2447">
        <ele>183</ele>
        <time>2016-07-06T13:40:21Z</time>
      </trkpt>
      <trkpt lat="43.03745" lon="2.24491">
        <ele>183</ele>
        <time>2016-07-06T13:42:21Z</time>
      </trkpt>
      <trkpt lat="43.03736" lon="2.24496">
        <ele>184</ele>
        <time>2016-07-06T13:44:21Z</time>
      </trkpt>
      <trkpt lat="43.03657" lon="2.2458">
        <ele>186</ele>
        <time>2016-07-06T13:46:21Z</time>
      </trkpt>
      <trkpt lat="43.03505" lon="2.24733">
        <ele>189</ele>
        <time>2016-07-06T13:48:21Z</time>
      </trkpt>
      <trkpt lat="43.03449" lon="2.2479">
        <ele>188</ele>
        <time>2016-07-06T13:50:21Z</time>
      </trkpt>
      <trkpt lat="43.03399" lon="2.24835">
        <ele>186</ele>
        <time>2016-07-06T13:52:21Z</time>
      </trkpt>
      <trkpt lat="43.03369" lon="2.24859">
        <ele>186</ele>
        <time>2016-07-06T13:54:21Z</time>
      </trkpt>
      <trkpt lat="43.03327" lon="2.2489">
        <ele>186</ele>
        <time>2016-07-06T13:56:21Z</time>
      </trkpt>
      <trkpt lat="43.03306" lon="2.24905">
        <ele>186</ele>
        <time>2016-07-06T13:58:21Z</time>
      </trkpt>
      <trkpt lat="43.03251" lon="2.24937">
        <ele>187</ele>
        <time>2016-07-06T14:00:21Z</time>
      </trkpt>
      <trkpt lat="43.03195" lon="2.24965">
        <ele>187</ele>
        <time>2016-07-06T14:02:21Z</time>
      </trkpt>
      <trkpt lat="43.03172" lon="2.24975">
        <ele>187</ele>
        <time>2016-07-06T14:04:21Z</time>
      </trkpt>
      <trkpt lat="43.0315" lon="2.24984">
        <ele>187</ele>
        <time>2016-07-06T14:06:21Z</time>
      </trkpt>
      <trkpt lat="43.03092" lon="2.25004">
        <ele>187</ele>
        <time>2016-07-06T14:08:21Z</time>
      </trkpt>
      <trkpt lat="43.03046" lon="2.25017">
        <ele>187</ele>
        <time>2016-07-06T14:10:21Z</time>
      </trkpt>
      <trkpt lat="43.02965" lon="2.25035">
        <ele>188</ele>
        <time>2016-07-06T14:12:21Z</time>
      </trkpt>
      <trkpt lat="43.0286" lon="2.25056">
        <ele>191</ele>
        <time>2016-07-06T14:14:21Z</time>
      </trkpt>
      <trkpt lat="43.02843" lon="2.25062">
        <ele>191</ele>
        <time>2016-07-06T14:16:21Z</time>
      </trkpt>
      <trkpt lat="43.02752" lon="2.25078">
        <ele>195</ele>
        <time>2016-07-06T14:18:21Z</time>
      </trkpt>
      <trkpt lat="43.02689" lon="2.25088">
        <ele>194</ele>
        <time>2016-07-06T14:20:21Z</time>
      </trkpt>
      <trkpt lat="43.02598" lon="2.25098">
        <ele>193</ele>
        <time>2016-07-06T14:22:21Z</time>
      </trkpt>
      <trkpt lat="43.02494" lon="2.25096">
        <ele>193</ele>
        <time>2016-07-06T14:24:21Z</time>
      </trkpt>
      <trkpt lat="43.02454" lon="2.25092">
        <ele>193</ele>
        <time>2016-07-06T14:26:21Z</time>
      </trkpt>
      <trkpt lat="43.02432" lon="2.25093">
        <ele>193</ele>
        <time>2016-07-06T14:28:21Z</time>
      </trkpt>
      <trkpt lat="43.02413" lon="2.25098">
        <ele>193</ele>
        <time>2016-07-06T14:30:21Z</time>
      </trkpt>
      <trkpt lat="43.02379" lon="2.25114">
        <ele>193</ele>
        <time>2016-07-06T14:32:21Z</time>
      </trkpt>
      <trkpt lat="43.02353" lon="2.25128">
        <ele>193</ele>
        <time>2016-07-06T14:34:21Z</time>
      </trkpt>
      <trkpt lat="43.02312" lon="2.25145">
        <ele>193</ele>
        <time>2016-07-06T14:36:21Z</time>
      </trkpt>
      <trkpt lat="43.02269" lon="2.25164">
        <ele>194</ele>
        <time>2016-07-06T14:38:21Z</time>
      </trkpt>
      <trkpt lat="43.02241" lon="2.25172">
        <ele>195</ele>
        <time>2016-07-06T14:40:21Z</time>
      </trkpt>
      <trkpt lat="43.02173" lon="2.25174">
        <ele>197</ele>
        <time>2016-07-06T14:42:21Z</time>
      </trkpt>
      <trkpt lat="43.02126" lon="2.25172">
        <ele>196</ele>
        <time>2016-07-06T14:44:21Z</time>
      </trkpt>
      <trkpt lat="43.02091" lon="2.25174">
        <ele>195</ele>
        <time>2016-07-06T14:46:21Z</time>
      </trkpt>
      <trkpt lat="43.02068" lon="2.25172">
        <ele>195</ele>
        <time>2016-07-06T14:48:21Z</time>
      </trkpt>
      <trkpt lat="43.02038" lon="2.25168">
        <ele>195</ele>
        <time>2016-07-06T14:50:21Z</time>
      </trkpt>
      <trkpt lat="43.02022" lon="2.25166">
        <ele>195</ele>
        <time>2016-07-06T14:52:21Z</time>
      </trkpt>
      <trkpt lat="43.02012" lon="2.25164">
        <ele>195</ele>
        <time>2016-07-06T14:54:21Z</time>
      </trkpt>
      <trkpt lat="43.02003" lon="2.25162">
        <ele>195</ele>
        <time>2016-07-06T14:56:21Z</time>
      </trkpt>
      <trkpt lat="43.01971" lon="2.25157">
        <ele>195</ele>
        <time>2016-07-06T14:58:21Z</time>
      </trkpt>
      <trkpt lat="43.01946" lon="2.25154">
        <ele>194</ele>
        <time>2016-07-06T15:00:21Z</time>
      </trkpt>
      <trkpt lat="43.01935" lon="2.25153">
        <ele>194</ele>
        <time>2016-07-06T15:02:21Z</time>
      </trkpt>
      <trkpt lat="43.0193" lon="2.25154">
        <ele>194</ele>
        <time>2016-07-06T15:04:21Z</time>
      </trkpt>
      <trkpt lat="43.01917" lon="2.25154">
        <ele>193</ele>
        <time>2016-07-06T15:06:21Z</time>
      </trkpt>
      <trkpt lat="43.01899" lon="2.25157">
        <ele>195</ele>
        <time>2016-07-06T15:08:21Z</time>
      </trkpt>
      <trkpt lat="43.01886" lon="2.25161">
        <ele>196</ele>
        <time>2016-07-06T15:10:21Z</time>
      </trkpt>
      <trkpt lat="43.01867" lon="2.2517">
        <ele>198</ele>
        <time>2016-07-06T15:12:21Z</time>
      </trkpt>
      <trkpt lat="43.01846" lon="2.25185">
        <ele>199</ele>
        <time>2016-07-06T15:14:21Z</time>
      </trkpt>
      <trkpt lat="43.01827" lon="2.25202">
        <ele>199</ele>
        <time>2016-07-06T15:16:21Z</time>
      </trkpt>
      <trkpt lat="43.01809" lon="2.25229">
        <ele>200</ele>
        <time>2016-07-06T15:18:21Z</time>
      </trkpt>
      <trkpt lat="43.01799" lon="2.2525">
        <ele>199</ele>
        <time>2016-07-06T15:20:21Z</time>
      </trkpt>
      <trkpt lat="43.01789" lon="2.2527">
        <ele>200</ele>
        <time>2016-07-06T15:22:21Z</time>
      </trkpt>
      <trkpt lat="43.01781" lon="2.25294">
        <ele>199</ele>
        <time>2016-07-06T15:24:21Z</time>
      </trkpt>
      <trkpt lat="43.01742" lon="2.25424">
        <ele>197</ele>
        <time>2016-07-06T15:26:21Z</time>
      </trkpt>
      <trkpt lat="43.01732" lon="2.25453">
        <ele>197</ele>
        <time>2016-07-06T15:28:21Z</time>
      </trkpt>
      <trkpt lat="43.01726" lon="2.25466">
        <ele>197</ele>
        <time>2016-07-06T15:30:21Z</time>
      </trkpt>
      <trkpt lat="43.01714" lon="2.25489">
        <ele>197</ele>
        <time>2016-07-06T15:32:21Z</time>
      </trkpt>
      <trkpt lat="43.01706" lon="2.25501">
        <ele>197</ele>
        <time>2016-07-06T15:34:21Z</time>
      </trkpt>
      <trkpt lat="43.01695" lon="2.25514">
        <ele>198</ele>
        <time>2016-07-06T15:36:21Z</time>
      </trkpt>
      <trkpt lat="43.01679" lon="2.2553">
        <ele>198</ele>
        <time>2016-07-06T15:38:21Z</time>
      </trkpt>
      <trkpt lat="43.01665" lon="2.25542">
        <ele>198</ele>
        <time>2016-07-06T15:40:21Z</time>
      </trkpt>
      <trkpt lat="43.01629" lon="2.25569">
        <ele>200</ele>
        <time>2016-07-06T15:42:21Z</time>
      </trkpt>
      <trkpt lat="43.01575" lon="2.25608">
        <ele>201</ele>
        <time>2016-07-06T15:44:21Z</time>
      </trkpt>
      <trkpt lat="43.01555" lon="2.2562">
        <ele>201</ele>
        <time>2016-07-06T15:46:21Z</time>
      </trkpt>
      <trkpt lat="43.01543" lon="2.25626">
        <ele>200</ele>
        <time>2016-07-06T15:48:21Z</time>
      </trkpt>
      <trkpt lat="43.01532" lon="2.2563">
        <ele>200</ele>
        <time>2016-07-06T15:50:21Z</time>
      </trkpt>
      <trkpt lat="43.01517" lon="2.25635">
        <ele>200</ele>
        <time>2016-07-06T15:52:21Z</time>
      </trkpt>
      <trkpt lat="43.01504" lon="2.25638">
        <ele>201</ele>
        <time>2016-07-06T15:54:21Z</time>
      </trkpt>
      <trkpt lat="43.01493" lon="2.2564">
        <ele>200</ele>
        <time>2016-07-06T15:56:21Z</time>
      </trkpt>
      <trkpt lat="43.01486" lon="2.25641">
        <ele>200</ele>
        <time>2016-07-06T15:58:21Z</time>
      </trkpt>
      <trkpt lat="43.01477" lon="2.25642">
        <ele>200</ele>
        <time>2016-07-06T16:00:21Z</time>
      </trkpt>
      <trkpt lat="43.01468" lon="2.25642">
        <ele>200</ele>
        <time>2016-07-06T16:02:21Z</time>
      </trkpt>
      <trkpt lat="43.01459" lon="2.25642">
        <ele>200</ele>
        <time>2016-07-06T16:04:21Z</time>
      </trkpt>
      <trkpt lat="43.01448" lon="2.25641">
        <ele>200</ele>
        <time>2016-07-06T16:06:21Z</time>
      </trkpt>
      <trkpt lat="43.01437" lon="2.2564">
        <ele>200</ele>
        <time>2016-07-06T16:08:21Z</time>
      </trkpt>
      <trkpt lat="43.01426" lon="2.25639">
        <ele>200</ele>
        <time>2016-07-06T16:10:21Z</time>
      </trkpt>
      <trkpt lat="43.01417" lon="2.25638">
        <ele>201</ele>
        <time>2016-07-06T16:12:21Z</time>
      </trkpt>
      <trkpt lat="43.01406" lon="2.25635">
        <ele>201</ele>
        <time>2016-07-06T16:14:21Z</time>
      </trkpt>
      <trkpt lat="43.01389" lon="2.25628">
        <ele>201</ele>
        <time>2016-07-06T16:16:21Z</time>
      </trkpt>
      <trkpt lat="43.01367" lon="2.25612">
        <ele>201</ele>
        <time>2016-07-06T16:18:21Z</time>
      </trkpt>
      <trkpt lat="43.01336" lon="2.25579">
        <ele>198</ele>
        <time>2016-07-06T16:20:21Z</time>
      </trkpt>
      <trkpt lat="43.0132" lon="2.25553">
        <ele>201</ele>
        <time>2016-07-06T16:22:21Z</time>
      </trkpt>
      <trkpt lat="43.01306" lon="2.25525">
        <ele>203</ele>
        <time>2016-07-06T16:24:21Z</time>
      </trkpt>
      <trkpt lat="43.01286" lon="2.25473">
        <ele>204</ele>
        <time>2016-07-06T16:26:21Z</time>
      </trkpt>
      <trkpt lat="43.01269" lon="2.25435">
        <ele>202</ele>
        <time>2016-07-06T16:28:21Z</time>
      </trkpt>
      <trkpt lat="43.01252" lon="2.25388">
        <ele>201</ele>
        <time>2016-07-06T16:30:21Z</time>
      </trkpt>
      <trkpt lat="43.01243" lon="2.25357">
        <ele>206</ele>
        <time>2016-07-06T16:32:21Z</time>
      </trkpt>
      <trkpt lat="43.01223" lon="2.25272">
        <ele>210</ele>
        <time>2016-07-06T16:34:21Z</time>
      </trkpt>
      <trkpt lat="43.01214" lon="2.25235">
        <ele>211</ele>
        <time>2016-07-06T16:36:21Z</time>
      </trkpt>
      <trkpt lat="43.01207" lon="2.25195">
        <ele>212</ele>
        <time>2016-07-06T16:38:21Z</time>
      </trkpt>
      <trkpt lat="43.01202" lon="2.2515">
        <ele>213</ele>
        <time>2016-07-06T16:40:21Z</time>
      </trkpt>
      <trkpt lat="43.01203" lon="2.25117">
        <ele>213</ele>
        <time>2016-07-06T16:42:21Z</time>
      </trkpt>
      <trkpt lat="43.01203" lon="2.25095">
        <ele>213</ele>
        <time>2016-07-06T16:44:21Z</time>
      </trkpt>
      <trkpt lat="43.01203" lon="2.25076">
        <ele>214</ele>
        <time>2016-07-06T16:46:21Z</time>
      </trkpt>
      <trkpt lat="43.012" lon="2.25059">
        <ele>214</ele>
        <time>2016-07-06T16:48:21Z</time>
      </trkpt>
      <trkpt lat="43.01195" lon="2.25039">
        <ele>214</ele>
        <time>2016-07-06T16:50:21Z</time>
      </trkpt>
      <trkpt lat="43.01185" lon="2.25011">
        <ele>211</ele>
        <time>2016-07-06T16:52:21Z</time>
      </trkpt>
      <trkpt lat="43.01174" lon="2.24991">
        <ele>208</ele>
        <time>2016-07-06T16:54:21Z</time>
      </trkpt>
      <trkpt lat="43.01161" lon="2.24967">
        <ele>209</ele>
        <time>2016-07-06T16:56:21Z</time>
      </trkpt>
      <trkpt lat="43.0115" lon="2.24954">
        <ele>210</ele>
        <time>2016-07-06T16:58:21Z</time>
      </trkpt>
      <trkpt lat="43.01142" lon="2.24944">
        <ele>211</ele>
        <time>2016-07-06T17:00:21Z</time>
      </trkpt>
      <trkpt lat="43.0113" lon="2.24935">
        <ele>210</ele>
        <time>2016-07-06T17:02:21Z</time>
      </trkpt>
      <trkpt lat="43.0111" lon="2.24921">
        <ele>207</ele>
        <time>2016-07-06T17:04:21Z</time>
      </trkpt>
      <trkpt lat="43.01058" lon="2.24893">
        <ele>209</ele>
        <time>2016-07-06T17:06:21Z</time>
      </trkpt>
      <trkpt lat="43.01045" lon="2.24887">
        <ele>210</ele>
        <time>2016-07-06T17:08:21Z</time>
      </trkpt>
      <trkpt lat="43.01038" lon="2.24885">
        <ele>210</ele>
        <time>2016-07-06T17:10:21Z</time>
      </trkpt>
      <trkpt lat="43.01016" lon="2.2488">
        <ele>210</ele>
        <time>2016-07-06T17:12:21Z</time>
      </trkpt>
      <trkpt lat="43.0099" lon="2.24879">
        <ele>209</ele>
        <time>2016-07-06T17:14:21Z</time>
      </trkpt>
      <trkpt lat="43.00976" lon="2.2488">
        <ele>209</ele>
        <time>2016-07-06T17:16:21Z</time>
      </trkpt>
      <trkpt lat="43.00952" lon="2.24884">
        <ele>208</ele>
        <time>2016-07-06T17:18:21Z</time>
      </trkpt>
      <trkpt lat="43.00943" lon="2.24884">
        <ele>208</ele>
        <time>2016-07-06T17:20:21Z</time>
      </trkpt>
      <trkpt lat="43.00915" lon="2.24883">
        <ele>208</ele>
        <time>2016-07-06T17:22:21Z</time>
      </trkpt>
      <trkpt lat="43.00905" lon="2.24882">
        <ele>208</ele>
        <time>2016-07-06T17:24:21Z</time>
      </trkpt>
      <trkpt lat="43.00886" lon="2.24876">
        <ele>209</ele>
        <time>2016-07-06T17:26:21Z</time>
      </trkpt>
      <trkpt lat="43.00859" lon="2.24867">
        <ele>209</ele>
        <time>2016-07-06T17:28:21Z</time>
      </trkpt>
      <trkpt lat="43.00849" lon="2.24862">
        <ele>208</ele>
        <time>2016-07-06T17:30:21Z</time>
      </trkpt>
      <trkpt lat="43.00828" lon="2.24849">
        <ele>207</ele>
        <time>2016-07-06T17:32:21Z</time>
      </trkpt>
      <trkpt lat="43.00797" lon="2.24825">
        <ele>208</ele>
        <time>2016-07-06T17:34:21Z</time>
      </trkpt>
      <trkpt lat="43.0076" lon="2.24794">
        <ele>212</ele>
        <time>2016-07-06T17:36:21Z</time>
      </trkpt>
      <trkpt lat="43.0074" lon="2.2478">
        <ele>214</ele>
        <time>2016-07-06T17:38:21Z</time>
      </trkpt>
      <trkpt lat="43.00729" lon="2.24774">
        <ele>216</ele>
        <time>2016-07-06T17:40:21Z</time>
      </trkpt>
      <trkpt lat="43.00712" lon="2.24769">
        <ele>219</ele>
        <time>2016-07-06T17:42:21Z</time>
      </trkpt>
      <trkpt lat="43.00705" lon="2.24768">
        <ele>219</ele>
        <time>2016-07-06T17:44:21Z</time>
      </trkpt>
      <trkpt lat="43.00694" lon="2.24768">
        <ele>220</ele>
        <time>2016-07-06T17:46:21Z</time>
      </trkpt>
      <trkpt lat="43.00685" lon="2.2477">
        <ele>220</ele>
        <time>2016-07-06T17:48:21Z</time>
      </trkpt>
      <trkpt lat="43.00679" lon="2.24772">
        <ele>220</ele>
        <time>2016-07-06T17:50:21Z</time>
      </trkpt>
      <trkpt lat="43.00664" lon="2.24779">
        <ele>219</ele>
        <time>2016-07-06T17:52:21Z</time>
      </trkpt>
      <trkpt lat="43.0065" lon="2.24789">
        <ele>219</ele>
        <time>2016-07-06T17:54:21Z</time>
      </trkpt>
      <trkpt lat="43.00637" lon="2.24803">
        <ele>217</ele>
        <time>2016-07-06T17:56:21Z</time>
      </trkpt>
      <trkpt lat="43.00616" lon="2.24829">
        <ele>213</ele>
        <time>2016-07-06T17:58:21Z</time>
      </trkpt>
      <trkpt lat="43.006" lon="2.24854">
        <ele>211</ele>
        <time>2016-07-06T18:00:21Z</time>
      </trkpt>
      <trkpt lat="43.00586" lon="2.24879">
        <ele>208</ele>
        <time>2016-07-06T18:02:21Z</time>
      </trkpt>
      <trkpt lat="43.00573" lon="2.24898">
        <ele>205</ele>
        <time>2016-07-06T18:04:21Z</time>
      </trkpt>
      <trkpt lat="43.00565" lon="2.24907">
        <ele>203</ele>
        <time>2016-07-06T18:06:21Z</time>
      </trkpt>
      <trkpt lat="43.00563" lon="2.24911">
        <ele>202</ele>
        <time>2016-07-06T18:08:21Z</time>
      </trkpt>
      <trkpt lat="43.00559" lon="2.24914">
        <ele>202</ele>
        <time>2016-07-06T18:10:21Z</time>
      </trkpt>
      <trkpt lat="43.00555" lon="2.24917">
        <ele>201</ele>
        <time>2016-07-06T18:12:21Z</time>
      </trkpt>
      <trkpt lat="43.00552" lon="2.2492">
        <ele>201</ele>
        <time>2016-07-06T18:14:21Z</time>
      </trkpt>
      <trkpt lat="43.00547" lon="2.24924">
        <ele>202</ele>
        <time>2016-07-06T18:16:21Z</time>
      </trkpt>
      <trkpt lat="43.00543" lon="2.24926">
        <ele>202</ele>
        <time>2016-07-06T18:18:21Z</time>
      </trkpt>
      <trkpt lat="43.00537" lon="2.24928">
        <ele>202</ele>
        <time>2016-07-06T18:20:21Z</time>
      </trkpt>
      <trkpt lat="43.00534" lon="2.24929">
        <ele>202</ele>
        <time>2016-07-06T18:22:21Z</time>
      </trkpt>
      <trkpt lat="43.00527" lon="2.24931">
        <ele>202</ele>
        <time>2016-07-06T18:24:21Z</time>
      </trkpt>
      <trkpt lat="43.00521" lon="2.24932">
        <ele>202</ele>
        <time>2016-07-06T18:26:21Z</time>
      </trkpt>
      <trkpt lat="43.00514" lon="2.24932">
        <ele>202</ele>
        <time>2016-07-06T18:28:21Z</time>
      </trkpt>
      <trkpt lat="43.00508" lon="2.24931">
        <ele>203</ele>
        <time>2016-07-06T18:30:21Z</time>
      </trkpt>
      <trkpt lat="43.005" lon="2.2493">
        <ele>203</ele>
        <time>2016-07-06T18:32:21Z</time>
      </trkpt>
      <trkpt lat="43.00477" lon="2.24923">
        <ele>202</ele>
        <time>2016-07-06T18:34:21Z</time>
      </trkpt>
      <trkpt lat="43.00461" lon="2.24915">
        <ele>201</ele>
        <time>2016-07-06T18:36:21Z</time>
      </trkpt>
      <trkpt lat="43.00443" lon="2.24904">
        <ele>204</ele>
        <time>2016-07-06T18:38:21Z</time>
      </trkpt>
      <trkpt lat="43.00423" lon="2.24892">
        <ele>206</ele>
        <time>2016-07-06T18:40:21Z</time>
      </trkpt>
      <trkpt lat="43.00374" lon="2.24862">
        <ele>209</ele>
        <time>2016-07-06T18:42:21Z</time>
      </trkpt>
      <trkpt lat="43.00359" lon="2.24853">
        <ele>209</ele>
        <time>2016-07-06T18:44:21Z</time>
      </trkpt>
      <trkpt lat="43.00335" lon="2.24845">
        <ele>208</ele>
        <time>2016-07-06T18:46:21Z</time>
      </trkpt>
      <trkpt lat="43.00319" lon="2.24843">
        <ele>207</ele>
        <time>2016-07-06T18:48:21Z</time>
      </trkpt>
      <trkpt lat="43.00305" lon="2.24843">
        <ele>207</ele>
        <time>2016-07-06T18:50:21Z</time>
      </trkpt>
      <trkpt lat="43.00273" lon="2.24844">
        <ele>206</ele>
        <time>2016-07-06T18:52:21Z</time>
      </trkpt>
      <trkpt lat="43.00248" lon="2.24846">
        <ele>205</ele>
        <time>2016-07-06T18:54:21Z</time>
      </trkpt>
      <trkpt lat="43.00237" lon="2.24849">
        <ele>206</ele>
        <time>2016-07-06T18:56:21Z</time>
      </trkpt>
      <trkpt lat="43.00231" lon="2.24851">
        <ele>207</ele>
        <time>2016-07-06T18:58:21Z</time>
      </trkpt>
      <trkpt lat="43.00222" lon="2.24855">
        <ele>207</ele>
        <time>2016-07-06T19:00:21Z</time>
      </trkpt>
      <trkpt lat="43.00214" lon="2.2486">
        <ele>207</ele>
        <time>2016-07-06T19:02:21Z</time>
      </trkpt>
      <trkpt lat="43.00208" lon="2.24866">
        <ele>207</ele>
        <time>2016-07-06T19:04:21Z</time>
      </trkpt>
      <trkpt lat="43.00201" lon="2.24872">
        <ele>207</ele>
        <time>2016-07-06T19:06:21Z</time>
      </trkpt>
      <trkpt lat="43.0018" lon="2.24892">
        <ele>205</ele>
        <time>2016-07-06T19:08:21Z</time>
      </trkpt>
      <trkpt lat="43.00166" lon="2.24906">
        <ele>202</ele>
        <time>2016-07-06T19:10:21Z</time>
      </trkpt>
      <trkpt lat="43.00159" lon="2.24912">
        <ele>202</ele>
        <time>2016-07-06T19:12:21Z</time>
      </trkpt>
      <trkpt lat="43.00154" lon="2.24915">
        <ele>202</ele>
        <time>2016-07-06T19:14:21Z</time>
      </trkpt>
      <trkpt lat="43.00134" lon="2.24926">
        <ele>205</ele>
        <time>2016-07-06T19:16:21Z</time>
      </trkpt>
      <trkpt lat="43.00093" lon="2.24947">
        <ele>209</ele>
        <time>2016-07-06T19:18:21Z</time>
      </trkpt>
      <trkpt lat="43.00058" lon="2.24965">
        <ele>210</ele>
        <time>2016-07-06T19:20:21Z</time>
      </trkpt>
      <trkpt lat="43.00039" lon="2.24976">
        <ele>210</ele>
        <time>2016-07-06T19:22:21Z</time>
      </trkpt>
      <trkpt lat="43.00019" lon="2.24988">
        <ele>209</ele>
        <time>2016-07-06T19:24:21Z</time>
      </trkpt>
      <trkpt lat="43.00002" lon="2.24998">
        <ele>208</ele>
        <time>2016-07-06T19:26:21Z</time>
      </trkpt>
      <trkpt lat="42.99983" lon="2.25014">
        <ele>208</ele>
        <time>2016-07-06T19:28:21Z</time>
      </trkpt>
      <trkpt lat="42.99951" lon="2.25038">
        <ele>209</ele>
        <time>2016-07-06T19:30:21Z</time>
      </trkpt>
      <trkpt lat="42.99932" lon="2.25053">
        <ele>209</ele>
        <time>2016-07-06T19:32:21Z</time>
      </trkpt>
      <trkpt lat="42.99918" lon="2.25067">
        <ele>209</ele>
        <time>2016-07-06T19:34:21Z</time>
      </trkpt>
      <trkpt lat="42.99902" lon="2.25081">
        <ele>209</ele>
        <time>2016-07-06T19:36:21Z</time>
      </trkpt>
      <trkpt lat="42.99888" lon="2.25099">
        <ele>208</ele>
        <time>2016-07-06T19:38:21Z</time>
      </trkpt>
      <trkpt lat="42.9988" lon="2.25107">
        <ele>208</ele>
        <time>2016-07-06T19:40:21Z</time>
      </trkpt>
      <trkpt lat="42.99876" lon="2.25113">
        <ele>208</ele>
        <time>2016-07-06T19:42:21Z</time>
      </trkpt>
      <trkpt lat="42.99871" lon="2.25122">
        <ele>208</ele>
        <time>2016-07-06T19:44:21Z</time>
      </trkpt>
      <trkpt lat="42.99863" lon="2.25134">
        <ele>208</ele>
        <time>2016-07-06T19:46:21Z</time>
      </trkpt>
      <trkpt lat="42.99857" lon="2.25141">
        <ele>208</ele>
        <time>2016-07-06T19:48:21Z</time>
      </trkpt>
      <trkpt lat="42.99846" lon="2.25158">
        <ele>207</ele>
        <time>2016-07-06T19:50:21Z</time>
      </trkpt>
      <trkpt lat="42.99843" lon="2.2516">
        <ele>207</ele>
        <time>2016-07-06T19:52:21Z</time>
      </trkpt>
      <trkpt lat="42.99841" lon="2.25162">
        <ele>207</ele>
        <time>2016-07-06T19:54:21Z</time>
      </trkpt>
      <trkpt lat="42.99839" lon="2.25164">
        <ele>207</ele>
        <time>2016-07-06T19:56:21Z</time>
      </trkpt>
      <trkpt lat="42.99837" lon="2.25166">
        <ele>207</ele>
        <time>2016-07-06T19:58:21Z</time>
      </trkpt>
      <trkpt lat="42.99824" lon="2.25181">
        <ele>207</ele>
        <time>2016-07-06T20:00:21Z</time>
      </trkpt>
      <trkpt lat="42.99808" lon="2.25197">
        <ele>207</ele>
        <time>2016-07-06T20:02:21Z</time>
      </trkpt>
      <trkpt lat="42.9979" lon="2.25212">
        <ele>207</ele>
        <time>2016-07-06T20:04:21Z</time>
      </trkpt>
      <trkpt lat="42.99775" lon="2.25223">
        <ele>207</ele>
        <time>2016-07-06T20:06:21Z</time>
      </trkpt>
      <trkpt lat="42.99753" lon="2.25233">
        <ele>208</ele>
        <time>2016-07-06T20:08:21Z</time>
      </trkpt>
      <trkpt lat="42.99743" lon="2.25237">
        <ele>208</ele>
        <time>2016-07-06T20:10:21Z</time>
      </trkpt>
      <trkpt lat="42.99718" lon="2.25245">
        <ele>208</ele>
        <time>2016-07-06T20:12:21Z</time>
      </trkpt>
      <trkpt lat="42.99716" lon="2.25246">
        <ele>208</ele>
        <time>2016-07-06T20:14:21Z</time>
      </trkpt>
      <trkpt lat="42.99713" lon="2.25247">
        <ele>208</ele>
        <time>2016-07-06T20:16:21Z</time>
      </trkpt>
      <trkpt lat="42.99681" lon="2.25259">
        <ele>208</ele>
        <time>2016-07-06T20:18:21Z</time>
      </trkpt>
      <trkpt lat="42.99655" lon="2.2527">
        <ele>208</ele>
        <time>2016-07-06T20:20:21Z</time>
      </trkpt>
      <trkpt lat="42.99622" lon="2.25285">
        <ele>207</ele>
        <time>2016-07-06T20:22:21Z</time>
      </trkpt>
      <trkpt lat="42.99588" lon="2.25303">
        <ele>207</ele>
        <time>2016-07-06T20:24:21Z</time>
      </trkpt>
      <trkpt lat="42.99582" lon="2.25308">
        <ele>207</ele>
        <time>2016-07-06T20:26:21Z</time>
      </trkpt>
      <trkpt lat="42.99539" lon="2.25334">
        <ele>211</ele>
        <time>2016-07-06T20:28:21Z</time>
      </trkpt>
      <trkpt lat="42.9953" lon="2.25341">
        <ele>212</ele>
        <time>2016-07-06T20:30:21Z</time>
      </trkpt>
      <trkpt lat="42.99521" lon="2.25348">
        <ele>212</ele>
        <time>2016-07-06T20:32:21Z</time>
      </trkpt>
      <trkpt lat="42.99507" lon="2.2536">
        <ele>212</ele>
        <time>2016-07-06T20:34:21Z</time>
      </trkpt>
      <trkpt lat="42.99493" lon="2.25375">
        <ele>212</ele>
        <time>2016-07-06T20:36:21Z</time>
      </trkpt>
      <trkpt lat="42.99481" lon="2.25388">
        <ele>212</ele>
        <time>2016-07-06T20:38:21Z</time>
      </trkpt>
      <trkpt lat="42.99463" lon="2.25413">
        <ele>211</ele>
        <time>2016-07-06T20:40:21Z</time>
      </trkpt>
      <trkpt lat="42.99452" lon="2.25431">
        <ele>212</ele>
        <time>2016-07-06T20:42:21Z</time>
      </trkpt>
      <trkpt lat="42.99427" lon="2.25475">
        <ele>211</ele>
        <time>2016-07-06T20:44:21Z</time>
      </trkpt>
      <trkpt lat="42.99407" lon="2.25514">
        <ele>211</ele>
        <time>2016-07-06T20:46:21Z</time>
      </trkpt>
      <trkpt lat="42.99355" lon="2.25612">
        <ele>211</ele>
        <time>2016-07-06T20:48:21Z</time>
      </trkpt>
      <trkpt lat="42.99338" lon="2.25642">
        <ele>210</ele>
        <time>2016-07-06T20:50:21Z</time>
      </trkpt>
      <trkpt lat="42.99326" lon="2.25662">
        <ele>210</ele>
        <time>2016-07-06T20:52:21Z</time>
      </trkpt>
      <trkpt lat="42.99309" lon="2.25685">
        <ele>212</ele>
        <time>2016-07-06T20:54:21Z</time>
      </trkpt>
      <trkpt lat="42.99278" lon="2.25722">
        <ele>213</ele>
        <time>2016-07-06T20:56:21Z</time>
      </trkpt>
      <trkpt lat="42.99251" lon="2.2575">
        <ele>212</ele>
        <time>2016-07-06T20:58:21Z</time>
      </trkpt>
      <trkpt lat="42.99178" lon="2.25828">
        <ele>214</ele>
        <time>2016-07-06T21:00:21Z</time>
      </trkpt>
      <trkpt lat="42.99094" lon="2.25918">
        <ele>215</ele>
        <time>2016-07-06T21:02:21Z</time>
      </trkpt>
      <trkpt lat="42.99049" lon="2.25963">
        <ele>215</ele>
        <time>2016-07-06T21:04:21Z</time>
      </trkpt>
      <trkpt lat="42.99036" lon="2.25979">
        <ele>214</ele>
        <time>2016-07-06T21:06:21Z</time>
      </trkpt>
      <trkpt lat="42.99024" lon="2.25995">
        <ele>211</ele>
        <time>2016-07-06T21:08:21Z</time>
      </trkpt>
      <trkpt lat="42.99017" lon="2.26009">
        <ele>210</ele>
        <time>2016-07-06T21:10:21Z</time>
      </trkpt>
      <trkpt lat="42.98998" lon="2.26052">
        <ele>208</ele>
        <time>2016-07-06T21:12:21Z</time>
      </trkpt>
      <trkpt lat="42.98982" lon="2.26093">
        <ele>207</ele>
        <time>2016-07-06T21:14:21Z</time>
      </trkpt>
      <trkpt lat="42.98966" lon="2.26134">
        <ele>208</ele>
        <time>2016-07-06T21:16:21Z</time>
      </trkpt>
      <trkpt lat="42.98952" lon="2.26163">
        <ele>209</ele>
        <time>2016-07-06T21:18:21Z</time>
      </trkpt>
      <trkpt lat="42.98941" lon="2.26183">
        <ele>209</ele>
        <time>2016-07-06T21:20:21Z</time>
      </trkpt>
      <trkpt lat="42.98931" lon="2.26196">
        <ele>209</ele>
        <time>2016-07-06T21:22:21Z</time>
      </trkpt>
      <trkpt lat="42.98917" lon="2.26212">
        <ele>209</ele>
        <time>2016-07-06T21:24:21Z</time>
      </trkpt>
      <trkpt lat="42.98907" lon="2.26222">
        <ele>209</ele>
        <time>2016-07-06T21:26:21Z</time>
      </trkpt>
      <trkpt lat="42.98899" lon="2.26229">
        <ele>209</ele>
        <time>2016-07-06T21:28:21Z</time>
      </trkpt>
      <trkpt lat="42.98889" lon="2.26235">
        <ele>209</ele>
        <time>2016-07-06T21:30:21Z</time>
      </trkpt>
      <trkpt lat="42.98879" lon="2.26241">
        <ele>208</ele>
        <time>2016-07-06T21:32:21Z</time>
      </trkpt>
      <trkpt lat="42.98866" lon="2.26247">
        <ele>208</ele>
        <time>2016-07-06T21:34:21Z</time>
      </trkpt>
      <trkpt lat="42.98852" lon="2.26253">
        <ele>209</ele>
        <time>2016-07-06T21:36:21Z</time>
      </trkpt>
      <trkpt lat="42.98843" lon="2.26255">
        <ele>209</ele>
        <time>2016-07-06T21:38:21Z</time>
      </trkpt>
      <trkpt lat="42.98834" lon="2.26256">
        <ele>209</ele>
        <time>2016-07-06T21:40:21Z</time>
      </trkpt>
      <trkpt lat="42.98816" lon="2.26256">
        <ele>209</ele>
        <time>2016-07-06T21:42:21Z</time>
      </trkpt>
      <trkpt lat="42.98808" lon="2.26256">
        <ele>209</ele>
        <time>2016-07-06T21:44:21Z</time>
      </trkpt>
      <trkpt lat="42.98794" lon="2.26255">
        <ele>209</ele>
        <time>2016-07-06T21:46:21Z</time>
      </trkpt>
      <trkpt lat="42.98746" lon="2.26248">
        <ele>208</ele>
        <time>2016-07-06T21:48:21Z</time>
      </trkpt>
      <trkpt lat="42.98683" lon="2.26238">
        <ele>211</ele>
        <time>2016-07-06T21:50:21Z</time>
      </trkpt>
      <trkpt lat="42.98652" lon="2.26234">
        <ele>211</ele>
        <time>2016-07-06T21:52:21Z</time>
      </trkpt>
      <trkpt lat="42.98648" lon="2.26234">
        <ele>211</ele>
        <time>2016-07-06T21:54:21Z</time>
      </trkpt>
      <trkpt lat="42.98638" lon="2.26233">
        <ele>211</ele>
        <time>2016-07-06T21:56:21Z</time>
      </trkpt>
      <trkpt lat="42.9863" lon="2.26232">
        <ele>211</ele>
        <time>2016-07-06T21:58:21Z</time>
      </trkpt>
      <trkpt lat="42.98623" lon="2.26233">
        <ele>211</ele>
        <time>2016-07-06T22:00:21Z</time>
      </trkpt>
      <trkpt lat="42.98612" lon="2.26234">
        <ele>211</ele>
        <time>2016-07-06T22:02:21Z</time>
      </trkpt>
      <trkpt lat="42.98604" lon="2.26236">
        <ele>210</ele>
        <time>2016-07-06T22:04:21Z</time>
      </trkpt>
      <trkpt lat="42.98596" lon="2.26238">
        <ele>210</ele>
        <time>2016-07-06T22:06:21Z</time>
      </trkpt>
      <trkpt lat="42.98587" lon="2.26241">
        <ele>210</ele>
        <time>2016-07-06T22:08:21Z</time>
      </trkpt>
      <trkpt lat="42.98579" lon="2.26246">
        <ele>209</ele>
        <time>2016-07-06T22:10:21Z</time>
      </trkpt>
      <trkpt lat="42.98552" lon="2.26262">
        <ele>210</ele>
        <time>2016-07-06T22:12:21Z</time>
      </trkpt>
      <trkpt lat="42.98538" lon="2.2627">
        <ele>210</ele>
        <time>2016-07-06T22:14:21Z</time>
      </trkpt>
      <trkpt lat="42.98476" lon="2.26308">
        <ele>211</ele>
        <time>2016-07-06T22:16:21Z</time>
      </trkpt>
      <trkpt lat="42.98431" lon="2.26339">
        <ele>212</ele>
        <time>2016-07-06T22:18:21Z</time>
      </trkpt>
      <trkpt lat="42.98391" lon="2.26373">
        <ele>214</ele>
        <time>2016-07-06T22:20:21Z</time>
      </trkpt>
      <trkpt lat="42.9837" lon="2.26392">
        <ele>215</ele>
        <time>2016-07-06T22:22:21Z</time>
      </trkpt>
      <trkpt lat="42.98351" lon="2.26408">
        <ele>215</ele>
        <time>2016-07-06T22:24:21Z</time>
      </trkpt>
      <trkpt lat="42.98324" lon="2.26428">
        <ele>216</ele>
        <time>2016-07-06T22:26:21Z</time>
      </trkpt>
      <trkpt lat="42.98306" lon="2.26439">
        <ele>216</ele>
        <time>2016-07-06T22:28:21Z</time>
      </trkpt>
      <trkpt lat="42.98266" lon="2.26466">
        <ele>217</ele>
        <time>2016-07-06T22:30:21Z</time>
      </trkpt>
      <trkpt lat="42.98232" lon="2.26489">
        <ele>217</ele>
        <time>2016-07-06T22:32:21Z</time>
      </trkpt>
      <trkpt lat="42.98209" lon="2.26504">
        <ele>216</ele>
        <time>2016-07-06T22:34:21Z</time>
      </trkpt>
      <trkpt lat="42.98191" lon="2.26517">
        <ele>216</ele>
        <time>2016-07-06T22:36:21Z</time>
      </trkpt>
      <trkpt lat="42.98177" lon="2.26524">
        <ele>215</ele>
        <time>2016-07-06T22:38:21Z</time>
      </trkpt>
      <trkpt lat="42.98165" lon="2.2653">
        <ele>214</ele>
        <time>2016-07-06T22:40:21Z</time>
      </trkpt>
      <trkpt lat="42.9815" lon="2.26535">
        <ele>215</ele>
        <time>2016-07-06T22:42:21Z</time>
      </trkpt>
      <trkpt lat="42.98142" lon="2.26537">
        <ele>215</ele>
        <time>2016-07-06T22:44:21Z</time>
      </trkpt>
      <trkpt lat="42.9813" lon="2.26539">
        <ele>215</ele>
        <time>2016-07-06T22:46:21Z</time>
      </trkpt>
      <trkpt lat="42.98121" lon="2.26539">
        <ele>216</ele>
        <time>2016-07-06T22:48:21Z</time>
      </trkpt>
      <trkpt lat="42.9811" lon="2.26538">
        <ele>216</ele>
        <time>2016-07-06T22:50:21Z</time>
      </trkpt>
      <trkpt lat="42.98102" lon="2.26536">
        <ele>216</ele>
        <time>2016-07-06T22:52:21Z</time>
      </trkpt>
      <trkpt lat="42.9809" lon="2.26532">
        <ele>216</ele>
        <time>2016-07-06T22:54:21Z</time>
      </trkpt>
      <trkpt lat="42.9808" lon="2.26528">
        <ele>216</ele>
        <time>2016-07-06T22:56:21Z</time>
      </trkpt>
      <trkpt lat="42.98072" lon="2.26524">
        <ele>217</ele>
        <time>2016-07-06T22:58:21Z</time>
      </trkpt>
      <trkpt lat="42.98059" lon="2.26517">
        <ele>219</ele>
        <time>2016-07-06T23:00:21Z</time>
      </trkpt>
      <trkpt lat="42.98045" lon="2.26507">
        <ele>220</ele>
        <time>2016-07-06T23:02:21Z</time>
      </trkpt>
      <trkpt lat="42.9803" lon="2.26492">
        <ele>220</ele>
        <time>2016-07-06T23:04:21Z</time>
      </trkpt>
      <trkpt lat="42.98014" lon="2.26477">
        <ele>221</ele>
        <time>2016-07-06T23:06:21Z</time>
      </trkpt>
      <trkpt lat="42.97989" lon="2.26451">
        <ele>220</ele>
        <time>2016-07-06T23:08:21Z</time>
      </trkpt>
      <trkpt lat="42.97957" lon="2.26419">
        <ele>217</ele>
        <time>2016-07-06T23:10:21Z</time>
      </trkpt>
      <trkpt lat="42.9793" lon="2.26394">
        <ele>217</ele>
        <time>2016-07-06T23:12:21Z</time>
      </trkpt>
      <trkpt lat="42.97901" lon="2.26372">
        <ele>216</ele>
        <time>2016-07-06T23:14:21Z</time>
      </trkpt>
      <trkpt lat="42.97885" lon="2.26364">
        <ele>215</ele>
        <time>2016-07-06T23:16:21Z</time>
      </trkpt>
      <trkpt lat="42.97863" lon="2.26357">
        <ele>215</ele>
        <time>2016-07-06T23:18:21Z</time>
      </trkpt>
      <trkpt lat="42.97731" lon="2.26329">
        <ele>218</ele>
        <time>2016-07-06T23:20:21Z</time>
      </trkpt>
      <trkpt lat="42.97708" lon="2.26324">
        <ele>218</ele>
        <time>2016-07-06T23:22:21Z</time>
      </trkpt>
      <trkpt lat="42.97683" lon="2.26319">
        <ele>218</ele>
        <time>2016-07-06T23:24:21Z</time>
      </trkpt>
      <trkpt lat="42.97668" lon="2.26315">
        <ele>218</ele>
        <time>2016-07-06T23:26:21Z</time>
      </trkpt>
      <trkpt lat="42.97658" lon="2.26314">
        <ele>219</ele>
        <time>2016-07-06T23:28:21Z</time>
      </trkpt>
      <trkpt lat="42.97654" lon="2.26312">
        <ele>219</ele>
        <time>2016-07-06T23:30:21Z</time>
      </trkpt>
      <trkpt lat="42.97651" lon="2.26312">
        <ele>219</ele>
        <time>2016-07-06T23:32:21Z</time>
      </trkpt>
      <trkpt lat="42.97642" lon="2.2631">
        <ele>219</ele>
        <time>2016-07-06T23:34:21Z</time>
      </trkpt>
      <trkpt lat="42.97631" lon="2.26306">
        <ele>219</ele>
        <time>2016-07-06T23:36:21Z</time>
      </trkpt>
      <trkpt lat="42.97621" lon="2.26301">
        <ele>219</ele>
        <time>2016-07-06T23:38:21Z</time>
      </trkpt>
      <trkpt lat="42.9761" lon="2.26293">
        <ele>219</ele>
        <time>2016-07-06T23:40:21Z</time>
      </trkpt>
      <trkpt lat="42.97597" lon="2.26285">
        <ele>218</ele>
        <time>2016-07-06T23:42:21Z</time>
      </trkpt>
      <trkpt lat="42.97586" lon="2.26273">
        <ele>217</ele>
        <time>2016-07-06T23:44:21Z</time>
      </trkpt>
      <trkpt lat="42.97573" lon="2.26259">
        <ele>216</ele>
        <time>2016-07-06T23:46:21Z</time>
      </trkpt>
      <trkpt lat="42.9756" lon="2.26242">
        <ele>216</ele>
        <time>2016-07-06T23:48:21Z</time>
      </trkpt>
      <trkpt lat="42.97542" lon="2.26216">
        <ele>216</ele>
        <time>2016-07-06T23:50:21Z</time>
      </trkpt>
      <trkpt lat="42.97516" lon="2.26174">
        <ele>215</ele>
        <time>2016-07-06T23:52:21Z</time>
      </trkpt>
      <trkpt lat="42.97502" lon="2.26154">
        <ele>215</ele>
        <time>2016-07-06T23:54:21Z</time>
      </trkpt>
      <trkpt lat="42.97489" lon="2.26138">
        <ele>215</ele>
        <time>2016-07-06T23:56:21Z</time>
      </trkpt>
      <trkpt lat="42.9748" lon="2.26127">
        <ele>215</ele>
        <time>2016-07-06T23:58:21Z</time>
      </trkpt>
      <trkpt lat="42.97472" lon="2.26119">
        <ele>215</ele>
        <time>2016-07-07T00:00:21Z</time>
      </trkpt>
      <trkpt lat="42.9746" lon="2.2611">
        <ele>215</ele>
        <time>2016-07-07T00:02:21Z</time>
      </trkpt>
      <trkpt lat="42.97454" lon="2.26105">
        <ele>215</ele>
        <time>2016-07-07T00:04:21Z</time>
      </trkpt>
      <trkpt lat="42.97451" lon="2.26103">
        <ele>215</ele>
        <time>2016-07-07T00:06:21Z</time>
      </trkpt>
      <trkpt lat="42.9744" lon="2.26096">
        <ele>215</ele>
        <time>2016-07-07T00:08:21Z</time>
      </trkpt>
      <trkpt lat="42.97427" lon="2.26091">
        <ele>215</ele>
        <time>2016-07-07T00:10:21Z</time>
      </trkpt>
      <trkpt lat="42.97396" lon="2.26078">
        <ele>216</ele>
        <time>2016-07-07T00:12:21Z</time>
      </trkpt>
      <trkpt lat="42.97357" lon="2.26065">
        <ele>218</ele>
        <time>2016-07-07T00:14:21Z</time>
      </trkpt>
      <trkpt lat="42.97341" lon="2.2606">
        <ele>219</ele>
        <time>2016-07-07T00:16:21Z</time>
      </trkpt>
      <trkpt lat="42.97332" lon="2.26058">
        <ele>219</ele>
        <time>2016-07-07T00:18:21Z</time>
      </trkpt>
      <trkpt lat="42.9733" lon="2.26057">
        <ele>219</ele>
        <time>2016-07-07T00:20:21Z</time>
      </trkpt>
      <trkpt lat="42.97326" lon="2.26056">
        <ele>219</ele>
        <time>2016-07-07T00:22:21Z</time>
      </trkpt>
      <trkpt lat="42.97315" lon="2.26054">
        <ele>219</ele>
        <time>2016-07-07T00:24:21Z</time>
      </trkpt>
      <trkpt lat="42.97301" lon="2.26051">
        <ele>219</ele>
        <time>2016-07-07T00:26:21Z</time>
      </trkpt>
      <trkpt lat="42.97291" lon="2.2605">
        <ele>219</ele>
        <time>2016-07-07T00:28:21Z</time>
      </trkpt>
      <trkpt lat="42.9728" lon="2.2605">
        <ele>219</ele>
        <time>2016-07-07T00:30:21Z</time>
      </trkpt>
      <trkpt lat="42.97268" lon="2.26052">
        <ele>219</ele>
        <time>2016-07-07T00:32:21Z</time>
      </trkpt>
      <trkpt lat="42.97243" lon="2.26056">
        <ele>220</ele>
        <time>2016-07-07T00:34:21Z</time>
      </trkpt>
      <trkpt lat="42.97238" lon="2.26057">
        <ele>220</ele>
        <time>2016-07-07T00:36:21Z</time>
      </trkpt>
      <trkpt lat="42.97216" lon="2.26063">
        <ele>220</ele>
        <time>2016-07-07T00:38:21Z</time>
      </trkpt>
      <trkpt lat="42.97196" lon="2.26067">
        <ele>220</ele>
        <time>2016-07-07T00:40:21Z</time>
      </trkpt>
      <trkpt lat="42.97183" lon="2.26068">
        <ele>220</ele>
        <time>2016-07-07T00:42:21Z</time>
      </trkpt>
      <trkpt lat="42.97171" lon="2.26067">
        <ele>220</ele>
        <time>2016-07-07T00:44:21Z</time>
      </trkpt>
      <trkpt lat="42.9716" lon="2.26065">
        <ele>220</ele>
        <time>2016-07-07T00:46:21Z</time>
      </trkpt>
      <trkpt lat="42.97158" lon="2.26065">
        <ele>220</ele>
        <time>2016-07-07T00:48:21Z</time>
      </trkpt>
      <trkpt lat="42.97151" lon="2.26063">
        <ele>220</ele>
        <time>2016-07-07T00:50:21Z</time>
      </trkpt>
      <trkpt lat="42.97149" lon="2.26063">
        <ele>221</ele>
        <time>2016-07-07T00:52:21Z</time>
      </trkpt>
      <trkpt lat="42.97142" lon="2.26061">
        <ele>221</ele>
        <time>2016-07-07T00:54:21Z</time>
      </trkpt>
      <trkpt lat="42.97136" lon="2.26058">
        <ele>221</ele>
        <time>2016-07-07T00:56:21Z</time>
      </trkpt>
      <trkpt lat="42.97132" lon="2.26056">
        <ele>221</ele>
        <time>2016-07-07T00:58:21Z</time>
      </trkpt>
      <trkpt lat="42.97116" lon="2.26048">
        <ele>221</ele>
        <time>2016-07-07T01:00:21Z</time>
      </trkpt>
      <trkpt lat="42.97104" lon="2.2604">
        <ele>221</ele>
        <time>2016-07-07T01:02:21Z</time>
      </trkpt>
      <trkpt lat="42.97093" lon="2.26031">
        <ele>220</ele>
        <time>2016-07-07T01:04:21Z</time>
      </trkpt>
      <trkpt lat="42.97079" lon="2.26017">
        <ele>220</ele>
        <time>2016-07-07T01:06:21Z</time>
      </trkpt>
      <trkpt lat="42.9707" lon="2.26005">
        <ele>221</ele>
        <time>2016-07-07T01:08:21Z</time>
      </trkpt>
      <trkpt lat="42.97058" lon="2.25989">
        <ele>223</ele>
        <time>2016-07-07T01:10:21Z</time>
      </trkpt>
      <trkpt lat="42.97053" lon="2.25983">
        <ele>224</ele>
        <time>2016-07-07T01:12:21Z</time>
      </trkpt>
      <trkpt lat="42.97047" lon="2.25974">
        <ele>224</ele>
        <time>2016-07-07T01:14:21Z</time>
      </trkpt>
      <trkpt lat="42.97042" lon="2.25968">
        <ele>225</ele>
        <time>2016-07-07T01:16:21Z</time>
      </trkpt>
      <trkpt lat="42.97038" lon="2.25963">
        <ele>225</ele>
        <time>2016-07-07T01:18:21Z</time>
      </trkpt>
      <trkpt lat="42.97029" lon="2.25955">
        <ele>225</ele>
        <time>2016-07-07T01:20:21Z</time>
      </trkpt>
      <trkpt lat="42.97021" lon="2.25948">
        <ele>225</ele>
        <time>2016-07-07T01:22:21Z</time>
      </trkpt>
      <trkpt lat="42.97014" lon="2.25942">
        <ele>224</ele>
        <time>2016-07-07T01:24:21Z</time>
      </trkpt>
      <trkpt lat="42.97004" lon="2.25938">
        <ele>224</ele>
        <time>2016-07-07T01:26:21Z</time>
      </trkpt>
      <trkpt lat="42.96995" lon="2.25935">
        <ele>224</ele>
        <time>2016-07-07T01:28:21Z</time>
      </trkpt>
      <trkpt lat="42.96987" lon="2.25934">
        <ele>223</ele>
        <time>2016-07-07T01:30:21Z</time>
      </trkpt>
      <trkpt lat="42.9698" lon="2.25933">
        <ele>223</ele>
        <time>2016-07-07T01:32:21Z</time>
      </trkpt>
      <trkpt lat="42.96974" lon="2.25933">
        <ele>223</ele>
        <time>2016-07-07T01:34:21Z</time>
      </trkpt>
      <trkpt lat="42.9697" lon="2.25933">
        <ele>223</ele>
        <time>2016-07-07T01:36:21Z</time>
      </trkpt>
      <trkpt lat="42.96958" lon="2.25935">
        <ele>224</ele>
        <time>2016-07-07T01:38:21Z</time>
      </trkpt>
      <trkpt lat="42.96943" lon="2.2594">
        <ele>225</ele>
        <time>2016-07-07T01:40:21Z</time>
      </trkpt>
      <trkpt lat="42.96925" lon="2.25947">
        <ele>226</ele>
        <time>2016-07-07T01:42:21Z</time>
      </trkpt>
      <trkpt lat="42.96907" lon="2.25957">
        <ele>227</ele>
        <time>2016-07-07T01:44:21Z</time>
      </trkpt>
      <trkpt lat="42.96894" lon="2.25967">
        <ele>228</ele>
        <time>2016-07-07T01:46:21Z</time>
      </trkpt>
      <trkpt lat="42.96883" lon="2.25977">
        <ele>228</ele>
        <time>2016-07-07T01:48:21Z</time>
      </trkpt>
      <trkpt lat="42.96874" lon="2.25988">
        <ele>227</ele>
        <time>2016-07-07T01:50:21Z</time>
      </trkpt>
      <trkpt lat="42.96862" lon="2.26002">
        <ele>226</ele>
        <time>2016-07-07T01:52:21Z</time>
      </trkpt>
      <trkpt lat="42.96852" lon="2.26019">
        <ele>227</ele>
        <time>2016-07-07T01:54:21Z</time>
      </trkpt>
      <trkpt lat="42.96841" lon="2.26036">
        <ele>227</ele>
        <time>2016-07-07T01:56:21Z</time>
      </trkpt>
      <trkpt lat="42.9683" lon="2.2605">
        <ele>228</ele>
        <time>2016-07-07T01:58:21Z</time>
      </trkpt>
      <trkpt lat="42.96819" lon="2.26061">
        <ele>228</ele>
        <time>2016-07-07T02:00:21Z</time>
      </trkpt>
      <trkpt lat="42.96805" lon="2.26071">
        <ele>229</ele>
        <time>2016-07-07T02:02:21Z</time>
      </trkpt>
      <trkpt lat="42.96792" lon="2.26077">
        <ele>229</ele>
        <time>2016-07-07T02:04:21Z</time>
      </trkpt>
      <trkpt lat="42.96782" lon="2.26079">
        <ele>229</ele>
        <time>2016-07-07T02:06:21Z</time>
      </trkpt>
      <trkpt lat="42.96773" lon="2.26079">
        <ele>229</ele>
        <time>2016-07-07T02:08:21Z</time>
      </trkpt>
      <trkpt lat="42.96762" lon="2.26077">
        <ele>229</ele>
        <time>2016-07-07T02:10:21Z</time>
      </trkpt>
      <trkpt lat="42.96753" lon="2.26073">
        <ele>228</ele>
        <time>2016-07-07T02:12:21Z</time>
      </trkpt>
      <trkpt lat="42.96746" lon="2.26071">
        <ele>228</ele>
        <time>2016-07-07T02:14:21Z</time>
      </trkpt>
      <trkpt lat="42.96735" lon="2.26064">
        <ele>229</ele>
        <time>2016-07-07T02:16:21Z</time>
      </trkpt>
      <trkpt lat="42.96727" lon="2.26053">
        <ele>229</ele>
        <time>2016-07-07T02:18:21Z</time>
      </trkpt>
      <trkpt lat="42.96719" lon="2.26043">
        <ele>228</ele>
        <time>2016-07-07T02:20:21Z</time>
      </trkpt>
      <trkpt lat="42.96702" lon="2.26005">
        <ele>225</ele>
        <time>2016-07-07T02:22:21Z</time>
      </trkpt>
      <trkpt lat="42.96685" lon="2.25966">
        <ele>223</ele>
        <time>2016-07-07T02:24:21Z</time>
      </trkpt>
      <trkpt lat="42.96679" lon="2.25957">
        <ele>222</ele>
        <time>2016-07-07T02:26:21Z</time>
      </trkpt>
      <trkpt lat="42.96673" lon="2.25948">
        <ele>221</ele>
        <time>2016-07-07T02:28:21Z</time>
      </trkpt>
      <trkpt lat="42.9667" lon="2.25945">
        <ele>220</ele>
        <time>2016-07-07T02:30:21Z</time>
      </trkpt>
      <trkpt lat="42.96665" lon="2.25938">
        <ele>219</ele>
        <time>2016-07-07T02:32:21Z</time>
      </trkpt>
      <trkpt lat="42.96657" lon="2.25932">
        <ele>219</ele>
        <time>2016-07-07T02:34:21Z</time>
      </trkpt>
      <trkpt lat="42.96641" lon="2.25921">
        <ele>219</ele>
        <time>2016-07-07T02:36:21Z</time>
      </trkpt>
      <trkpt lat="42.96609" lon="2.25903">
        <ele>220</ele>
        <time>2016-07-07T02:38:21Z</time>
      </trkpt>
      <trkpt lat="42.96533" lon="2.25858">
        <ele>223</ele>
        <time>2016-07-07T02:40:21Z</time>
      </trkpt>
      <trkpt lat="42.96498" lon="2.25838">
        <ele>224</ele>
        <time>2016-07-07T02:42:21Z</time>
      </trkpt>
      <trkpt lat="42.96484" lon="2.25829">
        <ele>225</ele>
        <time>2016-07-07T02:44:21Z</time>
      </trkpt>
      <trkpt lat="42.96478" lon="2.25825">
        <ele>225</ele>
        <time>2016-07-07T02:46:21Z</time>
      </trkpt>
      <trkpt lat="42.96471" lon="2.25821">
        <ele>225</ele>
        <time>2016-07-07T02:48:21Z</time>
      </trkpt>
      <trkpt lat="42.96463" lon="2.25816">
        <ele>226</ele>
        <time>2016-07-07T02:50:21Z</time>
      </trkpt>
      <trkpt lat="42.96454" lon="2.25806">
        <ele>226</ele>
        <time>2016-07-07T02:52:21Z</time>
      </trkpt>
      <trkpt lat="42.96441" lon="2.25792">
        <ele>225</ele>
        <time>2016-07-07T02:54:21Z</time>
      </trkpt>
      <trkpt lat="42.96431" lon="2.25779">
        <ele>225</ele>
        <time>2016-07-07T02:56:21Z</time>
      </trkpt>
      <trkpt lat="42.96397" lon="2.25731">
        <ele>224</ele>
        <time>2016-07-07T02:58:21Z</time>
      </trkpt>
      <trkpt lat="42.96389" lon="2.25722">
        <ele>224</ele>
        <time>2016-07-07T03:00:21Z</time>
      </trkpt>
      <trkpt lat="42.96379" lon="2.25714">
        <ele>225</ele>
        <time>2016-07-07T03:02:21Z</time>
      </trkpt>
      <trkpt lat="42.96371" lon="2.25706">
        <ele>225</ele>
        <time>2016-07-07T03:04:21Z</time>
      </trkpt>
      <trkpt lat="42.96362" lon="2.257">
        <ele>224</ele>
        <time>2016-07-07T03:06:21Z</time>
      </trkpt>
      <trkpt lat="42.96352" lon="2.25696">
        <ele>225</ele>
        <time>2016-07-07T03:08:21Z</time>
      </trkpt>
      <trkpt lat="42.96341" lon="2.25691">
        <ele>224</ele>
        <time>2016-07-07T03:10:21Z</time>
      </trkpt>
      <trkpt lat="42.96337" lon="2.2569">
        <ele>224</ele>
        <time>2016-07-07T03:12:21Z</time>
      </trkpt>
      <trkpt lat="42.96298" lon="2.25679">
        <ele>224</ele>
        <time>2016-07-07T03:14:21Z</time>
      </trkpt>
      <trkpt lat="42.96232" lon="2.25663">
        <ele>224</ele>
        <time>2016-07-07T03:16:21Z</time>
      </trkpt>
      <trkpt lat="42.96171" lon="2.25649">
        <ele>226</ele>
        <time>2016-07-07T03:18:21Z</time>
      </trkpt>
      <trkpt lat="42.96137" lon="2.25642">
        <ele>225</ele>
        <time>2016-07-07T03:20:21Z</time>
      </trkpt>
      <trkpt lat="42.9612" lon="2.25639">
        <ele>224</ele>
        <time>2016-07-07T03:22:21Z</time>
      </trkpt>
      <trkpt lat="42.96111" lon="2.25638">
        <ele>224</ele>
        <time>2016-07-07T03:24:21Z</time>
      </trkpt>
      <trkpt lat="42.96107" lon="2.25637">
        <ele>224</ele>
        <time>2016-07-07T03:26:21Z</time>
      </trkpt>
      <trkpt lat="42.96101" lon="2.25637">
        <ele>224</ele>
        <time>2016-07-07T03:28:21Z</time>
      </trkpt>
      <trkpt lat="42.9609" lon="2.25638">
        <ele>224</ele>
        <time>2016-07-07T03:30:21Z</time>
      </trkpt>
      <trkpt lat="42.96079" lon="2.25638">
        <ele>224</ele>
        <time>2016-07-07T03:32:21Z</time>
      </trkpt>
      <trkpt lat="42.96065" lon="2.25641">
        <ele>224</ele>
        <time>2016-07-07T03:34:21Z</time>
      </trkpt>
      <trkpt lat="42.96051" lon="2.25645">
        <ele>224</ele>
        <time>2016-07-07T03:36:21Z</time>
      </trkpt>
      <trkpt lat="42.96039" lon="2.2565">
        <ele>224</ele>
        <time>2016-07-07T03:38:21Z</time>
      </trkpt>
      <trkpt lat="42.96028" lon="2.25655">
        <ele>224</ele>
        <time>2016-07-07T03:40:21Z</time>
      </trkpt>
      <trkpt lat="42.96017" lon="2.25662">
        <ele>224</ele>
        <time>2016-07-07T03:42:21Z</time>
      </trkpt>
      <trkpt lat="42.96007" lon="2.2567">
        <ele>224</ele>
        <time>2016-07-07T03:44:21Z</time>
      </trkpt>
      <trkpt lat="42.95997" lon="2.25678">
        <ele>225</ele>
        <time>2016-07-07T03:46:21Z</time>
      </trkpt>
      <trkpt lat="42.95988" lon="2.25687">
        <ele>225</ele>
        <time>2016-07-07T03:48:21Z</time>
      </trkpt>
      <trkpt lat="42.95967" lon="2.25713">
        <ele>225</ele>
        <time>2016-07-07T03:50:21Z</time>
      </trkpt>
      <trkpt lat="42.95961" lon="2.2572">
        <ele>225</ele>
        <time>2016-07-07T03:52:21Z</time>
      </trkpt>
      <trkpt lat="42.95957" lon="2.25728">
        <ele>225</ele>
        <time>2016-07-07T03:54:21Z</time>
      </trkpt>
      <trkpt lat="42.9595" lon="2.2574">
        <ele>225</ele>
        <time>2016-07-07T03:56:21Z</time>
      </trkpt>
      <trkpt lat="42.95944" lon="2.25753">
        <ele>225</ele>
        <time>2016-07-07T03:58:21Z</time>
      </trkpt>
      <trkpt lat="42.95934" lon="2.25775">
        <ele>225</ele>
        <time>2016-07-07T04:00:21Z</time>
      </trkpt>
      <trkpt lat="42.95927" lon="2.25798">
        <ele>225</ele>
        <time>2016-07-07T04:02:21Z</time>
      </trkpt>
      <trkpt lat="42.95918" lon="2.25823">
        <ele>225</ele>
        <time>2016-07-07T04:04:21Z</time>
      </trkpt>
      <trkpt lat="42.95911" lon="2.25848">
        <ele>225</ele>
        <time>2016-07-07T04:06:21Z</time>
      </trkpt>
      <trkpt lat="42.95903" lon="2.25877">
        <ele>225</ele>
        <time>2016-07-07T04:08:21Z</time>
      </trkpt>
      <trkpt lat="42.95896" lon="2.25899">
        <ele>225</ele>
        <time>2016-07-07T04:10:21Z</time>
      </trkpt>
      <trkpt lat="42.9589" lon="2.25917">
        <ele>225</ele>
        <time>2016-07-07T04:12:21Z</time>
      </trkpt>
      <trkpt lat="42.95882" lon="2.25934">
        <ele>225</ele>
        <time>2016-07-07T04:14:21Z</time>
      </trkpt>
      <trkpt lat="42.95875" lon="2.25948">
        <ele>225</ele>
        <time>2016-07-07T04:16:21Z</time>
      </trkpt>
      <trkpt lat="42.95866" lon="2.25962">
        <ele>225</ele>
        <time>2016-07-07T04:18:21Z</time>
      </trkpt>
      <trkpt lat="42.95859" lon="2.25971">
        <ele>225</ele>
        <time>2016-07-07T04:20:21Z</time>
      </trkpt>
      <trkpt lat="42.95855" lon="2.25975">
        <ele>225</ele>
        <time>2016-07-07T04:22:21Z</time>
      </trkpt>
      <trkpt lat="42.95839" lon="2.2599">
        <ele>224</ele>
        <time>2016-07-07T04:24:21Z</time>
      </trkpt>
      <trkpt lat="42.95838" lon="2.25992">
        <ele>224</ele>
        <time>2016-07-07T04:26:21Z</time>
      </trkpt>
      <trkpt lat="42.95838" lon="2.25993">
        <ele>224</ele>
        <time>2016-07-07T04:28:21Z</time>
      </trkpt>
      <trkpt lat="42.9583" lon="2.25999">
        <ele>224</ele>
        <time>2016-07-07T04:30:21Z</time>
      </trkpt>
      <trkpt lat="42.95822" lon="2.26005">
        <ele>224</ele>
        <time>2016-07-07T04:32:21Z</time>
      </trkpt>
      <trkpt lat="42.9581" lon="2.26012">
        <ele>225</ele>
        <time>2016-07-07T04:34:21Z</time>
      </trkpt>
      <trkpt lat="42.95797" lon="2.26017">
        <ele>226</ele>
        <time>2016-07-07T04:36:21Z</time>
      </trkpt>
      <trkpt lat="42.95786" lon="2.2602">
        <ele>226</ele>
        <time>2016-07-07T04:38:21Z</time>
      </trkpt>
      <trkpt lat="42.95775" lon="2.26022">
        <ele>226</ele>
        <time>2016-07-07T04:40:21Z</time>
      </trkpt>
      <trkpt lat="42.9577" lon="2.26023">
        <ele>226</ele>
        <time>2016-07-07T04:42:21Z</time>
      </trkpt>
      <trkpt lat="42.95759" lon="2.26024">
        <ele>227</ele>
        <time>2016-07-07T04:44:21Z</time>
      </trkpt>
      <trkpt lat="42.95751" lon="2.26025">
        <ele>227</ele>
        <time>2016-07-07T04:46:21Z</time>
      </trkpt>
      <trkpt lat="42.95742" lon="2.26024">
        <ele>227</ele>
        <time>2016-07-07T04:48:21Z</time>
      </trkpt>
      <trkpt lat="42.95731" lon="2.26021">
        <ele>227</ele>
        <time>2016-07-07T04:50:21Z</time>
      </trkpt>
      <trkpt lat="42.95727" lon="2.2602">
        <ele>228</ele>
        <time>2016-07-07T04:52:21Z</time>
      </trkpt>
      <trkpt lat="42.95714" lon="2.26015">
        <ele>228</ele>
        <time>2016-07-07T04:54:21Z</time>
      </trkpt>
      <trkpt lat="42.95701" lon="2.26009">
        <ele>228</ele>
        <time>2016-07-07T04:56:21Z</time>
      </trkpt>
      <trkpt lat="42.95693" lon="2.26004">
        <ele>228</ele>
        <time>2016-07-07T04:58:21Z</time>
      </trkpt>
      <trkpt lat="42.95682" lon="2.25997">
        <ele>228</ele>
        <time>2016-07-07T05:00:21Z</time>
      </trkpt>
      <trkpt lat="42.95675" lon="2.25991">
        <ele>228</ele>
        <time>2016-07-07T05:02:21Z</time>
      </trkpt>
      <trkpt lat="42.95666" lon="2.25983">
        <ele>228</ele>
        <time>2016-07-07T05:04:21Z</time>
      </trkpt>
      <trkpt lat="42.95658" lon="2.25972">
        <ele>229</ele>
        <time>2016-07-07T05:06:21Z</time>
      </trkpt>
      <trkpt lat="42.95648" lon="2.2596">
        <ele>229</ele>
        <time>2016-07-07T05:08:21Z</time>
      </trkpt>
      <trkpt lat="42.9564" lon="2.25947">
        <ele>229</ele>
        <time>2016-07-07T05:10:21Z</time>
      </trkpt>
      <trkpt lat="42.95631" lon="2.25931">
        <ele>229</ele>
        <time>2016-07-07T05:12:21Z</time>
      </trkpt>
      <trkpt lat="42.9562" lon="2.25904">
        <ele>228</ele>
        <time>2016-07-07T05:14:21Z</time>
      </trkpt>
      <trkpt lat="42.95602" lon="2.2586">
        <ele>228</ele>
        <time>2016-07-07T05:16:21Z</time>
      </trkpt>
      <trkpt lat="42.95579" lon="2.25796">
        <ele>225</ele>
        <time>2016-07-07T05:18:21Z</time>
      </trkpt>
      <trkpt lat="42.95559" lon="2.25745">
        <ele>223</ele>
        <time>2016-07-07T05:20:21Z</time>
      </trkpt>
      <trkpt lat="42.95559" lon="2.25744">
        <ele>223</ele>
        <time>2016-07-07T05:22:21Z</time>
      </trkpt>
      <trkpt lat="42.95545" lon="2.25709">
        <ele>222</ele>
        <time>2016-07-07T05:24:21Z</time>
      </trkpt>
      <trkpt lat="42.95536" lon="2.25684">
        <ele>222</ele>
        <time>2016-07-07T05:26:21Z</time>
      </trkpt>
      <trkpt lat="42.95527" lon="2.25662">
        <ele>221</ele>
        <time>2016-07-07T05:28:21Z</time>
      </trkpt>
      <trkpt lat="42.95519" lon="2.25644">
        <ele>222</ele>
        <time>2016-07-07T05:30:21Z</time>
      </trkpt>
      <trkpt lat="42.95511" lon="2.25624">
        <ele>222</ele>
        <time>2016-07-07T05:32:21Z</time>
      </trkpt>
      <trkpt lat="42.95503" lon="2.25607">
        <ele>222</ele>
        <time>2016-07-07T05:34:21Z</time>
      </trkpt>
      <trkpt lat="42.95501" lon="2.25599">
        <ele>222</ele>
        <time>2016-07-07T05:36:21Z</time>
      </trkpt>
      <trkpt lat="42.95486" lon="2.25566">
        <ele>222</ele>
        <time>2016-07-07T05:38:21Z</time>
      </trkpt>
      <trkpt lat="42.95475" lon="2.25545">
        <ele>221</ele>
        <time>2016-07-07T05:40:21Z</time>
      </trkpt>
      <trkpt lat="42.95463" lon="2.25527">
        <ele>221</ele>
        <time>2016-07-07T05:42:21Z</time>
      </trkpt>
      <trkpt lat="42.95461" lon="2.25524">
        <ele>221</ele>
        <time>2016-07-07T05:44:21Z</time>
      </trkpt>
      <trkpt lat="42.95425" lon="2.25486">
        <ele>222</ele>
        <time>2016-07-07T05:46:21Z</time>
      </trkpt>
      <trkpt lat="42.95408" lon="2.25468">
        <ele>222</ele>
        <time>2016-07-07T05:48:21Z</time>
      </trkpt>
      <trkpt lat="42.95329" lon="2.2539">
        <ele>224</ele>
        <time>2016-07-07T05:50:21Z</time>
      </trkpt>
      <trkpt lat="42.95308" lon="2.25374">
        <ele>224</ele>
        <time>2016-07-07T05:52:21Z</time>
      </trkpt>
      <trkpt lat="42.9529" lon="2.25362">
        <ele>223</ele>
        <time>2016-07-07T05:54:21Z</time>
      </trkpt>
      <trkpt lat="42.95272" lon="2.25352">
        <ele>223</ele>
        <time>2016-07-07T05:56:21Z</time>
      </trkpt>
      <trkpt lat="42.95257" lon="2.25347">
        <ele>223</ele>
        <time>2016-07-07T05:58:21Z</time>
      </trkpt>
      <trkpt lat="42.95239" lon="2.25343">
        <ele>223</ele>
        <time>2016-07-07T06:00:21Z</time>
      </trkpt>
      <trkpt lat="42.95222" lon="2.25342">
        <ele>223</ele>
        <time>2016-07-07T06:02:21Z</time>
      </trkpt>
      <trkpt lat="42.9521" lon="2.25341">
        <ele>223</ele>
        <time>2016-07-07T06:04:21Z</time>
      </trkpt>
      <trkpt lat="42.95178" lon="2.25341">
        <ele>223</ele>
        <time>2016-07-07T06:06:21Z</time>
      </trkpt>
      <trkpt lat="42.95114" lon="2.25342">
        <ele>225</ele>
        <time>2016-07-07T06:08:21Z</time>
      </trkpt>
      <trkpt lat="42.95061" lon="2.25342">
        <ele>226</ele>
        <time>2016-07-07T06:10:21Z</time>
      </trkpt>
      <trkpt lat="42.95001" lon="2.25342">
        <ele>227</ele>
        <time>2016-07-07T06:12:21Z</time>
      </trkpt>
      <trkpt lat="42.94943" lon="2.25341">
        <ele>227</ele>
        <time>2016-07-07T06:14:21Z</time>
      </trkpt>
      <trkpt lat="42.94871" lon="2.2534">
        <ele>228</ele>
        <time>2016-07-07T06:16:21Z</time>
      </trkpt>
      <trkpt lat="42.94849" lon="2.25339">
        <ele>228</ele>
        <time>2016-07-07T06:18:21Z</time>
      </trkpt>
      <trkpt lat="42.94836" lon="2.2534">
        <ele>228</ele>
        <time>2016-07-07T06:20:21Z</time>
      </trkpt>
      <trkpt lat="42.94824" lon="2.2534">
        <ele>228</ele>
        <time>2016-07-07T06:22:21Z</time>
      </trkpt>
      <trkpt lat="42.94815" lon="2.25341">
        <ele>228</ele>
        <time>2016-07-07T06:24:21Z</time>
      </trkpt>
      <trkpt lat="42.94787" lon="2.25347">
        <ele>228</ele>
        <time>2016-07-07T06:26:21Z</time>
      </trkpt>
      <trkpt lat="42.94759" lon="2.25356">
        <ele>228</ele>
        <time>2016-07-07T06:28:21Z</time>
      </trkpt>
      <trkpt lat="42.94734" lon="2.25367">
        <ele>229</ele>
        <time>2016-07-07T06:30:21Z</time>
      </trkpt>
      <trkpt lat="42.947" lon="2.25385">
        <ele>229</ele>
        <time>2016-07-07T06:32:21Z</time>
      </trkpt>
      <trkpt lat="42.94682" lon="2.25398">
        <ele>229</ele>
        <time>2016-07-07T06:34:21Z</time>
      </trkpt>
      <trkpt lat="42.94678" lon="2.25405">
        <ele>229</ele>
        <time>2016-07-07T06:36:21Z</time>
      </trkpt>
      <trkpt lat="42.94656" lon="2.25422">
        <ele>230</ele>
        <time>2016-07-07T06:38:21Z</time>
      </trkpt>
      <trkpt lat="42.94637" lon="2.25439">
        <ele>233</ele>
        <time>2016-07-07T06:40:21Z</time>
      </trkpt>
      <trkpt lat="42.94624" lon="2.25451">
        <ele>234</ele>
        <time>2016-07-07T06:42:21Z</time>
      </trkpt>
      <trkpt lat="42.946" lon="2.25475">
        <ele>235</ele>
        <time>2016-07-07T06:44:21Z</time>
      </trkpt>
      <trkpt lat="42.94577" lon="2.25498">
        <ele>235</ele>
        <time>2016-07-07T06:46:21Z</time>
      </trkpt>
      <trkpt lat="42.94556" lon="2.25519">
        <ele>236</ele>
        <time>2016-07-07T06:48:21Z</time>
      </trkpt>
      <trkpt lat="42.94541" lon="2.25534">
        <ele>236</ele>
        <time>2016-07-07T06:50:21Z</time>
      </trkpt>
      <trkpt lat="42.94528" lon="2.25546">
        <ele>236</ele>
        <time>2016-07-07T06:52:21Z</time>
      </trkpt>
      <trkpt lat="42.94518" lon="2.25555">
        <ele>236</ele>
        <time>2016-07-07T06:54:21Z</time>
      </trkpt>
      <trkpt lat="42.94497" lon="2.25575">
        <ele>234</ele>
        <time>2016-07-07T06:56:21Z</time>
      </trkpt>
      <trkpt lat="42.94478" lon="2.25594">
        <ele>234</ele>
        <time>2016-07-07T06:58:21Z</time>
      </trkpt>
      <trkpt lat="42.94464" lon="2.25606">
        <ele>234</ele>
        <time>2016-07-07T07:00:21Z</time>
      </trkpt>
      <trkpt lat="42.94453" lon="2.25615">
        <ele>233</ele>
        <time>2016-07-07T07:02:21Z</time>
      </trkpt>
      <trkpt lat="42.94444" lon="2.2562">
        <ele>233</ele>
        <time>2016-07-07T07:04:21Z</time>
      </trkpt>
      <trkpt lat="42.94434" lon="2.25625">
        <ele>232</ele>
        <time>2016-07-07T07:06:21Z</time>
      </trkpt>
      <trkpt lat="42.94425" lon="2.25628">
        <ele>231</ele>
        <time>2016-07-07T07:08:21Z</time>
      </trkpt>
      <trkpt lat="42.94412" lon="2.25631">
        <ele>230</ele>
        <time>2016-07-07T07:10:21Z</time>
      </trkpt>
      <trkpt lat="42.94405" lon="2.25632">
        <ele>230</ele>
        <time>2016-07-07T07:12:21Z</time>
      </trkpt>
      <trkpt lat="42.944" lon="2.25631">
        <ele>230</ele>
        <time>2016-07-07T07:14:21Z</time>
      </trkpt>
      <trkpt lat="42.94391" lon="2.25629">
        <ele>230</ele>
        <time>2016-07-07T07:16:21Z</time>
      </trkpt>
      <trkpt lat="42.94382" lon="2.25627">
        <ele>230</ele>
        <time>2016-07-07T07:18:21Z</time>
      </trkpt>
      <trkpt lat="42.94375" lon="2.25624">
        <ele>230</ele>
        <time>2016-07-07T07:20:21Z</time>
      </trkpt>
      <trkpt lat="42.94367" lon="2.2562">
        <ele>230</ele>
        <time>2016-07-07T07:22:21Z</time>
      </trkpt>
      <trkpt lat="42.94358" lon="2.25615">
        <ele>230</ele>
        <time>2016-07-07T07:24:21Z</time>
      </trkpt>
      <trkpt lat="42.9435" lon="2.2561">
        <ele>230</ele>
        <time>2016-07-07T07:26:21Z</time>
      </trkpt>
      <trkpt lat="42.94342" lon="2.25602">
        <ele>230</ele>
        <time>2016-07-07T07:28:21Z</time>
      </trkpt>
      <trkpt lat="42.94335" lon="2.25594">
        <ele>230</ele>
        <time>2016-07-07T07:30:21Z</time>
      </trkpt>
      <trkpt lat="42.94328" lon="2.25586">
        <ele>230</ele>
        <time>2016-07-07T07:32:21Z</time>
      </trkpt>
      <trkpt lat="42.94321" lon="2.25577">
        <ele>230</ele>
        <time>2016-07-07T07:34:21Z</time>
      </trkpt>
      <trkpt lat="42.94311" lon="2.25564">
        <ele>229</ele>
        <time>2016-07-07T07:36:21Z</time>
      </trkpt>
      <trkpt lat="42.94299" lon="2.25548">
        <ele>229</ele>
        <time>2016-07-07T07:38:21Z</time>
      </trkpt>
      <trkpt lat="42.94299" lon="2.25548">
        <ele>229</ele>
        <time>2016-07-07T07:40:21Z</time>
      </trkpt>
      <trkpt lat="42.94293" lon="2.25561">
        <ele>229</ele>
        <time>2016-07-07T07:42:21Z</time>
      </trkpt>
      <trkpt lat="42.94285" lon="2.25584">
        <ele>230</ele>
        <time>2016-07-07T07:44:21Z</time>
      </trkpt>
      <trkpt lat="42.94273" lon="2.25619">
        <ele>230</ele>
        <time>2016-07-07T07:46:21Z</time>
      </trkpt>
      <trkpt lat="42.94244" lon="2.25706">
        <ele>228</ele>
        <time>2016-07-07T07:48:21Z</time>
      </trkpt>
      <trkpt lat="42.94233" lon="2.25736">
        <ele>227</ele>
        <time>2016-07-07T07:50:21Z</time>
      </trkpt>
      <trkpt lat="42.94214" lon="2.25786">
        <ele>227</ele>
        <time>2016-07-07T07:52:21Z</time>
      </trkpt>
      <trkpt lat="42.9421" lon="2.25798">
        <ele>228</ele>
        <time>2016-07-07T07:54:21Z</time>
      </trkpt>
      <trkpt lat="42.94207" lon="2.25806">
        <ele>228</ele>
        <time>2016-07-07T07:56:21Z</time>
      </trkpt>
      <trkpt lat="42.94207" lon="2.25806">
        <ele>228</ele>
        <time>2016-07-07T07:58:21Z</time>
      </trkpt>
      <trkpt lat="42.94181" lon="2.25791">
        <ele>227</ele>
        <time>2016-07-07T08:00:21Z</time>
      </trkpt>
      <trkpt lat="42.9416" lon="2.2578">
        <ele>227</ele>
        <time>2016-07-07T08:02:21Z</time>
      </trkpt>
      <trkpt lat="42.9415" lon="2.25775">
        <ele>227</ele>
        <time>2016-07-07T08:04:21Z</time>
      </trkpt>
      <trkpt lat="42.94144" lon="2.25773">
        <ele>227</ele>
        <time>2016-07-07T08:06:21Z</time>
      </trkpt>
      <trkpt lat="42.9414" lon="2.25772">
        <ele>227</ele>
        <time>2016-07-07T08:08:21Z</time>
      </trkpt>
      <trkpt lat="42.9413" lon="2.25769">
        <ele>227</ele>
        <time>2016-07-07T08:10:21Z</time>
      </trkpt>
      <trkpt lat="42.94118" lon="2.25767">
        <ele>227</ele>
        <time>2016-07-07T08:12:21Z</time>
      </trkpt>
      <trkpt lat="42.94107" lon="2.25764">
        <ele>228</ele>
        <time>2016-07-07T08:14:21Z</time>
      </trkpt>
      <trkpt lat="42.94098" lon="2.25764">
        <ele>228</ele>
        <time>2016-07-07T08:16:21Z</time>
      </trkpt>
      <trkpt lat="42.94094" lon="2.25764">
        <ele>228</ele>
        <time>2016-07-07T08:18:21Z</time>
      </trkpt>
      <trkpt lat="42.94094" lon="2.25764">
        <ele>228</ele>
        <time>2016-07-07T08:20:21Z</time>
      </trkpt>
      <trkpt lat="42.94096" lon="2.25742">
        <ele>228</ele>
        <time>2016-07-07T08:22:21Z</time>
      </trkpt>
      <trkpt lat="42.94104" lon="2.25657">
        <ele>229</ele>
        <time>2016-07-07T08:24:21Z</time>
      </trkpt>
      <trkpt lat="42.94105" lon="2.25645">
        <ele>229</ele>
        <time>2016-07-07T08:26:21Z</time>
      </trkpt>
      <trkpt lat="42.94105" lon="2.2563">
        <ele>229</ele>
        <time>2016-07-07T08:28:21Z</time>
      </trkpt>
      <trkpt lat="42.94106" lon="2.25619">
        <ele>229</ele>
        <time>2016-07-07T08:30:21Z</time>
      </trkpt>
      <trkpt lat="42.94107" lon="2.25614">
        <ele>230</ele>
        <time>2016-07-07T08:32:21Z</time>
      </trkpt>
      <trkpt lat="42.94108" lon="2.25609">
        <ele>230</ele>
        <time>2016-07-07T08:34:21Z</time>
      </trkpt>
      <trkpt lat="42.94111" lon="2.256">
        <ele>230</ele>
        <time>2016-07-07T08:36:21Z</time>
      </trkpt>
      <trkpt lat="42.94111" lon="2.256">
        <ele>230</ele>
        <time>2016-07-07T08:38:21Z</time>
      </trkpt>
      <trkpt lat="42.94105" lon="2.25588">
        <ele>230</ele>
        <time>2016-07-07T08:40:21Z</time>
      </trkpt>
      <trkpt lat="42.94101" lon="2.25581">
        <ele>231</ele>
        <time>2016-07-07T08:42:21Z</time>
      </trkpt>
      <trkpt lat="42.94098" lon="2.25575">
        <ele>231</ele>
        <time>2016-07-07T08:44:21Z</time>
      </trkpt>
      <trkpt lat="42.94098" lon="2.25565">
        <ele>231</ele>
        <time>2016-07-07T08:46:21Z</time>
      </trkpt>
      <trkpt lat="42.94098" lon="2.25563">
        <ele>231</ele>
        <time>2016-07-07T08:48:21Z</time>
      </trkpt>
      <trkpt lat="42.941" lon="2.25552">
        <ele>231</ele>
        <time>2016-07-07T08:50:21Z</time>
      </trkpt>
      <trkpt lat="42.94102" lon="2.25535">
        <ele>231</ele>
        <time>2016-07-07T08:52:21Z</time>
      </trkpt>
      <trkpt lat="42.9411" lon="2.25478">
        <ele>231</ele>
        <time>2016-07-07T08:54:21Z</time>
      </trkpt>
      <trkpt lat="42.94114" lon="2.25453">
        <ele>231</ele>
        <time>2016-07-07T08:56:21Z</time>
      </trkpt>
      <trkpt lat="42.94119" lon="2.25431">
        <ele>231</ele>
        <time>2016-07-07T08:58:21Z</time>
      </trkpt>
      <trkpt lat="42.94121" lon="2.25423">
        <ele>231</ele>
        <time>2016-07-07T09:00:21Z</time>
      </trkpt>
      <trkpt lat="42.94123" lon="2.25418">
        <ele>231</ele>
        <time>2016-07-07T09:02:21Z</time>
      </trkpt>
      <trkpt lat="42.94126" lon="2.25412">
        <ele>230</ele>
        <time>2016-07-07T09:04:21Z</time>
      </trkpt>
      <trkpt lat="42.9413" lon="2.25404">
        <ele>230</ele>
        <time>2016-07-07T09:06:21Z</time>
      </trkpt>
      <trkpt lat="42.94133" lon="2.25394">
        <ele>230</ele>
        <time>2016-07-07T09:08:21Z</time>
      </trkpt>
      <trkpt lat="42.94135" lon="2.25382">
        <ele>230</ele>
        <time>2016-07-07T09:10:21Z</time>
      </trkpt>
      <trkpt lat="42.94138" lon="2.25364">
        <ele>230</ele>
        <time>2016-07-07T09:12:21Z</time>
      </trkpt>
      <trkpt lat="42.9414" lon="2.25339">
        <ele>229</ele>
        <time>2016-07-07T09:14:21Z</time>
      </trkpt>
      <trkpt lat="42.9414" lon="2.25339">
        <ele>229</ele>
        <time>2016-07-07T09:16:21Z</time>
      </trkpt>
      <trkpt lat="42.94117" lon="2.25311">
        <ele>230</ele>
        <time>2016-07-07T09:18:21Z</time>
      </trkpt>
      <trkpt lat="42.94107" lon="2.25298">
        <ele>231</ele>
        <time>2016-07-07T09:20:21Z</time>
      </trkpt>
      <trkpt lat="42.94087" lon="2.25272">
        <ele>232</ele>
        <time>2016-07-07T09:22:21Z</time>
      </trkpt>
      <trkpt lat="42.94068" lon="2.25239">
        <ele>234</ele>
        <time>2016-07-07T09:24:21Z</time>
      </trkpt>
      <trkpt lat="42.94063" lon="2.2523">
        <ele>234</ele>
        <time>2016-07-07T09:26:21Z</time>
      </trkpt>
      <trkpt lat="42.94058" lon="2.25221">
        <ele>235</ele>
        <time>2016-07-07T09:28:21Z</time>
      </trkpt>
      <trkpt lat="42.94053" lon="2.25208">
        <ele>235</ele>
        <time>2016-07-07T09:30:21Z</time>
      </trkpt>
      <trkpt lat="42.94049" lon="2.25197">
        <ele>235</ele>
        <time>2016-07-07T09:32:21Z</time>
      </trkpt>
      <trkpt lat="42.94045" lon="2.25183">
        <ele>236</ele>
        <time>2016-07-07T09:34:21Z</time>
      </trkpt>
      <trkpt lat="42.94041" lon="2.25164">
        <ele>235</ele>
        <time>2016-07-07T09:36:21Z</time>
      </trkpt>
      <trkpt lat="42.94035" lon="2.25134">
        <ele>235</ele>
        <time>2016-07-07T09:38:21Z</time>
      </trkpt>
      <trkpt lat="42.94028" lon="2.2509">
        <ele>233</ele>
        <time>2016-07-07T09:40:21Z</time>
      </trkpt>
      <trkpt lat="42.94019" lon="2.25039">
        <ele>232</ele>
        <time>2016-07-07T09:42:21Z</time>
      </trkpt>
      <trkpt lat="42.9401" lon="2.24992">
        <ele>231</ele>
        <time>2016-07-07T09:44:21Z</time>
      </trkpt>
      <trkpt lat="42.93994" lon="2.24907">
        <ele>232</ele>
        <time>2016-07-07T09:46:21Z</time>
      </trkpt>
      <trkpt lat="42.93992" lon="2.24893">
        <ele>232</ele>
        <time>2016-07-07T09:48:21Z</time>
      </trkpt>
      <trkpt lat="42.93992" lon="2.24893">
        <ele>232</ele>
        <time>2016-07-07T09:50:21Z</time>
      </trkpt>
      <trkpt lat="42.94002" lon="2.24886">
        <ele>232</ele>
        <time>2016-07-07T09:52:21Z</time>
      </trkpt>
      <trkpt lat="42.9401" lon="2.2488">
        <ele>231</ele>
        <time>2016-07-07T09:54:21Z</time>
      </trkpt>
      <trkpt lat="42.94026" lon="2.24867">
        <ele>230</ele>
        <time>2016-07-07T09:56:21Z</time>
      </trkpt>
      <trkpt lat="42.9405" lon="2.24848">
        <ele>229</ele>
        <time>2016-07-07T09:58:21Z</time>
      </trkpt>
      <trkpt lat="42.94097" lon="2.24809">
        <ele>228</ele>
        <time>2016-07-07T10:00:21Z</time>
      </trkpt>
      <trkpt lat="42.94145" lon="2.24769">
        <ele>230</ele>
        <time>2016-07-07T10:02:21Z</time>
      </trkpt>
      <trkpt lat="42.94148" lon="2.2477">
        <ele>230</ele>
        <time>2016-07-07T10:04:21Z</time>
      </trkpt>
      <trkpt lat="42.94152" lon="2.24767">
        <ele>230</ele>
        <time>2016-07-07T10:06:21Z</time>
      </trkpt>
      <trkpt lat="42.94159" lon="2.24766">
        <ele>230</ele>
        <time>2016-07-07T10:08:21Z</time>
      </trkpt>
      <trkpt lat="42.94169" lon="2.24767">
        <ele>230</ele>
        <time>2016-07-07T10:10:21Z</time>
      </trkpt>
      <trkpt lat="42.94169" lon="2.24767">
        <ele>230</ele>
        <time>2016-07-07T10:12:21Z</time>
      </trkpt>
      <trkpt lat="42.94159" lon="2.24742">
        <ele>231</ele>
        <time>2016-07-07T10:14:21Z</time>
      </trkpt>
      <trkpt lat="42.94136" lon="2.24685">
        <ele>230</ele>
        <time>2016-07-07T10:16:21Z</time>
      </trkpt>
      <trkpt lat="42.94114" lon="2.24624">
        <ele>230</ele>
        <time>2016-07-07T10:18:21Z</time>
      </trkpt>
      <trkpt lat="42.94105" lon="2.24596">
        <ele>230</ele>
        <time>2016-07-07T10:20:21Z</time>
      </trkpt>
      <trkpt lat="42.94075" lon="2.24504">
        <ele>228</ele>
        <time>2016-07-07T10:22:21Z</time>
      </trkpt>
      <trkpt lat="42.94068" lon="2.24484">
        <ele>228</ele>
        <time>2016-07-07T10:24:21Z</time>
      </trkpt>
      <trkpt lat="42.94055" lon="2.24441">
        <ele>229</ele>
        <time>2016-07-07T10:26:21Z</time>
      </trkpt>
      <trkpt lat="42.94049" lon="2.24416">
        <ele>230</ele>
        <time>2016-07-07T10:28:21Z</time>
      </trkpt>
      <trkpt lat="42.94044" lon="2.24389">
        <ele>230</ele>
        <time>2016-07-07T10:30:21Z</time>
      </trkpt>
      <trkpt lat="42.94041" lon="2.24372">
        <ele>230</ele>
        <time>2016-07-07T10:32:21Z</time>
      </trkpt>
      <trkpt lat="42.94039" lon="2.24358">
        <ele>230</ele>
        <time>2016-07-07T10:34:21Z</time>
      </trkpt>
      <trkpt lat="42.94038" lon="2.24339">
        <ele>230</ele>
        <time>2016-07-07T10:36:21Z</time>
      </trkpt>
      <trkpt lat="42.94036" lon="2.24313">
        <ele>231</ele>
        <time>2016-07-07T10:38:21Z</time>
      </trkpt>
      <trkpt lat="42.94036" lon="2.2429">
        <ele>231</ele>
        <time>2016-07-07T10:40:21Z</time>
      </trkpt>
      <trkpt lat="42.94036" lon="2.24272">
        <ele>232</ele>
        <time>2016-07-07T10:42:21Z</time>
      </trkpt>
      <trkpt lat="42.94038" lon="2.24257">
        <ele>232</ele>
        <time>2016-07-07T10:44:21Z</time>
      </trkpt>
      <trkpt lat="42.94039" lon="2.24243">
        <ele>232</ele>
        <time>2016-07-07T10:46:21Z</time>
      </trkpt>
      <trkpt lat="42.94041" lon="2.24231">
        <ele>233</ele>
        <time>2016-07-07T10:48:21Z</time>
      </trkpt>
      <trkpt lat="42.94044" lon="2.24209">
        <ele>234</ele>
        <time>2016-07-07T10:50:21Z</time>
      </trkpt>
      <trkpt lat="42.94047" lon="2.24192">
        <ele>234</ele>
        <time>2016-07-07T10:52:21Z</time>
      </trkpt>
      <trkpt lat="42.94051" lon="2.24179">
        <ele>235</ele>
        <time>2016-07-07T10:54:21Z</time>
      </trkpt>
      <trkpt lat="42.94057" lon="2.24161">
        <ele>235</ele>
        <time>2016-07-07T10:56:21Z</time>
      </trkpt>
      <trkpt lat="42.94068" lon="2.24132">
        <ele>235</ele>
        <time>2016-07-07T10:58:21Z</time>
      </trkpt>
      <trkpt lat="42.94083" lon="2.24091">
        <ele>234</ele>
        <time>2016-07-07T11:00:21Z</time>
      </trkpt>
      <trkpt lat="42.94088" lon="2.24079">
        <ele>234</ele>
        <time>2016-07-07T11:02:21Z</time>
      </trkpt>
      <trkpt lat="42.94107" lon="2.24032">
        <ele>234</ele>
        <time>2016-07-07T11:04:21Z</time>
      </trkpt>
      <trkpt lat="42.94115" lon="2.24011">
        <ele>234</ele>
        <time>2016-07-07T11:06:21Z</time>
      </trkpt>
      <trkpt lat="42.94127" lon="2.23983">
        <ele>234</ele>
        <time>2016-07-07T11:08:21Z</time>
      </trkpt>
      <trkpt lat="42.94137" lon="2.23961">
        <ele>235</ele>
        <time>2016-07-07T11:10:21Z</time>
      </trkpt>
      <trkpt lat="42.94144" lon="2.23947">
        <ele>235</ele>
        <time>2016-07-07T11:12:21Z</time>
      </trkpt>
      <trkpt lat="42.94158" lon="2.23925">
        <ele>235</ele>
        <time>2016-07-07T11:14:21Z</time>
      </trkpt>
      <trkpt lat="42.94177" lon="2.23895">
        <ele>235</ele>
        <time>2016-07-07T11:16:21Z</time>
      </trkpt>
      <trkpt lat="42.94185" lon="2.23883">
        <ele>235</ele>
        <time>2016-07-07T11:18:21Z</time>
      </trkpt>
      <trkpt lat="42.94193" lon="2.23864">
        <ele>235</ele>
        <time>2016-07-07T11:20:21Z</time>
      </trkpt>
      <trkpt lat="42.94202" lon="2.23843">
        <ele>235</ele>
        <time>2016-07-07T11:22:21Z</time>
      </trkpt>
      <trkpt lat="42.94216" lon="2.23804">
        <ele>235</ele>
        <time>2016-07-07T11:24:21Z</time>
      </trkpt>
      <trkpt lat="42.94233" lon="2.23754">
        <ele>236</ele>
        <time>2016-07-07T11:26:21Z</time>
      </trkpt>
      <trkpt lat="42.94239" lon="2.23733">
        <ele>236</ele>
        <time>2016-07-07T11:28:21Z</time>
      </trkpt>
      <trkpt lat="42.9424" lon="2.23725">
        <ele>236</ele>
        <time>2016-07-07T11:30:21Z</time>
      </trkpt>
      <trkpt lat="42.94241" lon="2.23716">
        <ele>237</ele>
        <time>2016-07-07T11:32:21Z</time>
      </trkpt>
      <trkpt lat="42.94241" lon="2.23705">
        <ele>237</ele>
        <time>2016-07-07T11:34:21Z</time>
      </trkpt>
      <trkpt lat="42.94242" lon="2.23678">
        <ele>237</ele>
        <time>2016-07-07T11:36:21Z</time>
      </trkpt>
      <trkpt lat="42.94241" lon="2.2366">
        <ele>237</ele>
        <time>2016-07-07T11:38:21Z</time>
      </trkpt>
      <trkpt lat="42.94238" lon="2.23642">
        <ele>237</ele>
        <time>2016-07-07T11:40:21Z</time>
      </trkpt>
      <trkpt lat="42.94235" lon="2.23627">
        <ele>238</ele>
        <time>2016-07-07T11:42:21Z</time>
      </trkpt>
      <trkpt lat="42.94231" lon="2.23617">
        <ele>238</ele>
        <time>2016-07-07T11:44:21Z</time>
      </trkpt>
      <trkpt lat="42.94226" lon="2.23606">
        <ele>238</ele>
        <time>2016-07-07T11:46:21Z</time>
      </trkpt>
      <trkpt lat="42.9422" lon="2.23598">
        <ele>238</ele>
        <time>2016-07-07T11:48:21Z</time>
      </trkpt>
      <trkpt lat="42.94212" lon="2.23588">
        <ele>238</ele>
        <time>2016-07-07T11:50:21Z</time>
      </trkpt>
      <trkpt lat="42.94194" lon="2.23572">
        <ele>237</ele>
        <time>2016-07-07T11:52:21Z</time>
      </trkpt>
      <trkpt lat="42.94168" lon="2.23551">
        <ele>235</ele>
        <time>2016-07-07T11:54:21Z</time>
      </trkpt>
      <trkpt lat="42.94111" lon="2.23508">
        <ele>235</ele>
        <time>2016-07-07T11:56:21Z</time>
      </trkpt>
      <trkpt lat="42.94033" lon="2.23443">
        <ele>235</ele>
        <time>2016-07-07T11:58:21Z</time>
      </trkpt>
      <trkpt lat="42.94019" lon="2.23431">
        <ele>236</ele>
        <time>2016-07-07T12:00:21Z</time>
      </trkpt>
      <trkpt lat="42.93947" lon="2.23375">
        <ele>235</ele>
        <time>2016-07-07T12:02:21Z</time>
      </trkpt>
      <trkpt lat="42.9391" lon="2.23345">
        <ele>235</ele>
        <time>2016-07-07T12:04:21Z</time>
      </trkpt>
      <trkpt lat="42.93887" lon="2.23327">
        <ele>237</ele>
        <time>2016-07-07T12:06:21Z</time>
      </trkpt>
      <trkpt lat="42.93834" lon="2.23283">
        <ele>239</ele>
        <time>2016-07-07T12:08:21Z</time>
      </trkpt>
      <trkpt lat="42.93801" lon="2.23256">
        <ele>239</ele>
        <time>2016-07-07T12:10:21Z</time>
      </trkpt>
      <trkpt lat="42.93794" lon="2.2325">
        <ele>239</ele>
        <time>2016-07-07T12:12:21Z</time>
      </trkpt>
      <trkpt lat="42.93734" lon="2.23202">
        <ele>239</ele>
        <time>2016-07-07T12:14:21Z</time>
      </trkpt>
      <trkpt lat="42.9369" lon="2.23167">
        <ele>238</ele>
        <time>2016-07-07T12:16:21Z</time>
      </trkpt>
      <trkpt lat="42.93668" lon="2.2315">
        <ele>238</ele>
        <time>2016-07-07T12:18:21Z</time>
      </trkpt>
      <trkpt lat="42.93625" lon="2.23115">
        <ele>239</ele>
        <time>2016-07-07T12:20:21Z</time>
      </trkpt>
      <trkpt lat="42.93592" lon="2.23089">
        <ele>239</ele>
        <time>2016-07-07T12:22:21Z</time>
      </trkpt>
      <trkpt lat="42.93573" lon="2.23073">
        <ele>239</ele>
        <time>2016-07-07T12:24:21Z</time>
      </trkpt>
      <trkpt lat="42.93564" lon="2.23064">
        <ele>239</ele>
        <time>2016-07-07T12:26:21Z</time>
      </trkpt>
      <trkpt lat="42.93548" lon="2.23045">
        <ele>239</ele>
        <time>2016-07-07T12:28:21Z</time>
      </trkpt>
      <trkpt lat="42.93535" lon="2.23025">
        <ele>239</ele>
        <time>2016-07-07T12:30:21Z</time>
      </trkpt>
      <trkpt lat="42.93525" lon="2.23006">
        <ele>239</ele>
        <time>2016-07-07T12:32:21Z</time>
      </trkpt>
      <trkpt lat="42.93518" lon="2.22982">
        <ele>239</ele>
        <time>2016-07-07T12:34:21Z</time>
      </trkpt>
      <trkpt lat="42.93497" lon="2.22901">
        <ele>239</ele>
        <time>2016-07-07T12:36:21Z</time>
      </trkpt>
      <trkpt lat="42.93473" lon="2.22804">
        <ele>241</ele>
        <time>2016-07-07T12:38:21Z</time>
      </trkpt>
      <trkpt lat="42.9345" lon="2.22704">
        <ele>240</ele>
        <time>2016-07-07T12:40:21Z</time>
      </trkpt>
      <trkpt lat="42.93418" lon="2.22567">
        <ele>239</ele>
        <time>2016-07-07T12:42:21Z</time>
      </trkpt>
      <trkpt lat="42.93414" lon="2.22548">
        <ele>240</ele>
        <time>2016-07-07T12:44:21Z</time>
      </trkpt>
      <trkpt lat="42.93414" lon="2.22531">
        <ele>240</ele>
        <time>2016-07-07T12:46:21Z</time>
      </trkpt>
      <trkpt lat="42.93416" lon="2.22512">
        <ele>241</ele>
        <time>2016-07-07T12:48:21Z</time>
      </trkpt>
      <trkpt lat="42.93433" lon="2.22429">
        <ele>242</ele>
        <time>2016-07-07T12:50:21Z</time>
      </trkpt>
      <trkpt lat="42.9344" lon="2.22395">
        <ele>243</ele>
        <time>2016-07-07T12:52:21Z</time>
      </trkpt>
      <trkpt lat="42.93447" lon="2.22356">
        <ele>243</ele>
        <time>2016-07-07T12:54:21Z</time>
      </trkpt>
      <trkpt lat="42.93448" lon="2.2235">
        <ele>243</ele>
        <time>2016-07-07T12:56:21Z</time>
      </trkpt>
      <trkpt lat="42.93457" lon="2.22318">
        <ele>243</ele>
        <time>2016-07-07T12:58:21Z</time>
      </trkpt>
      <trkpt lat="42.93457" lon="2.22308">
        <ele>243</ele>
        <time>2016-07-07T13:00:21Z</time>
      </trkpt>
      <trkpt lat="42.93463" lon="2.22284">
        <ele>244</ele>
        <time>2016-07-07T13:02:21Z</time>
      </trkpt>
      <trkpt lat="42.93467" lon="2.22262">
        <ele>244</ele>
        <time>2016-07-07T13:04:21Z</time>
      </trkpt>
      <trkpt lat="42.9347" lon="2.22243">
        <ele>244</ele>
        <time>2016-07-07T13:06:21Z</time>
      </trkpt>
      <trkpt lat="42.93474" lon="2.22218">
        <ele>244</ele>
        <time>2016-07-07T13:08:21Z</time>
      </trkpt>
      <trkpt lat="42.93477" lon="2.22199">
        <ele>244</ele>
        <time>2016-07-07T13:10:21Z</time>
      </trkpt>
      <trkpt lat="42.9348" lon="2.22183">
        <ele>244</ele>
        <time>2016-07-07T13:12:21Z</time>
      </trkpt>
      <trkpt lat="42.93482" lon="2.22171">
        <ele>244</ele>
        <time>2016-07-07T13:14:21Z</time>
      </trkpt>
      <trkpt lat="42.93485" lon="2.22156">
        <ele>244</ele>
        <time>2016-07-07T13:16:21Z</time>
      </trkpt>
      <trkpt lat="42.93489" lon="2.22139">
        <ele>243</ele>
        <time>2016-07-07T13:18:21Z</time>
      </trkpt>
      <trkpt lat="42.93492" lon="2.22126">
        <ele>243</ele>
        <time>2016-07-07T13:20:21Z</time>
      </trkpt>
      <trkpt lat="42.93498" lon="2.22107">
        <ele>243</ele>
        <time>2016-07-07T13:22:21Z</time>
      </trkpt>
      <trkpt lat="42.93505" lon="2.22083">
        <ele>243</ele>
        <time>2016-07-07T13:24:21Z</time>
      </trkpt>
      <trkpt lat="42.93508" lon="2.22075">
        <ele>243</ele>
        <time>2016-07-07T13:26:21Z</time>
      </trkpt>
      <trkpt lat="42.9351" lon="2.22066">
        <ele>243</ele>
        <time>2016-07-07T13:28:21Z</time>
      </trkpt>
      <trkpt lat="42.9351" lon="2.2206">
        <ele>243</ele>
        <time>2016-07-07T13:30:21Z</time>
      </trkpt>
      <trkpt lat="42.93511" lon="2.22054">
        <ele>243</ele>
        <time>2016-07-07T13:32:21Z</time>
      </trkpt>
      <trkpt lat="42.93512" lon="2.22046">
        <ele>243</ele>
        <time>2016-07-07T13:34:21Z</time>
      </trkpt>
      <trkpt lat="42.93513" lon="2.22032">
        <ele>242</ele>
        <time>2016-07-07T13:36:21Z</time>
      </trkpt>
      <trkpt lat="42.93517" lon="2.21999">
        <ele>242</ele>
        <time>2016-07-07T13:38:21Z</time>
      </trkpt>
      <trkpt lat="42.93519" lon="2.21987">
        <ele>242</ele>
        <time>2016-07-07T13:40:21Z</time>
      </trkpt>
      <trkpt lat="42.93522" lon="2.21949">
        <ele>241</ele>
        <time>2016-07-07T13:42:21Z</time>
      </trkpt>
      <trkpt lat="42.93523" lon="2.21936">
        <ele>241</ele>
        <time>2016-07-07T13:44:21Z</time>
      </trkpt>
      <trkpt lat="42.93525" lon="2.21909">
        <ele>241</ele>
        <time>2016-07-07T13:46:21Z</time>
      </trkpt>
      <trkpt lat="42.93526" lon="2.219">
        <ele>241</ele>
        <time>2016-07-07T13:48:21Z</time>
      </trkpt>
      <trkpt lat="42.93527" lon="2.21869">
        <ele>242</ele>
        <time>2016-07-07T13:50:21Z</time>
      </trkpt>
      <trkpt lat="42.93528" lon="2.2185">
        <ele>242</ele>
        <time>2016-07-07T13:52:21Z</time>
      </trkpt>
      <trkpt lat="42.93528" lon="2.21837">
        <ele>242</ele>
        <time>2016-07-07T13:54:21Z</time>
      </trkpt>
      <trkpt lat="42.93526" lon="2.21812">
        <ele>242</ele>
        <time>2016-07-07T13:56:21Z</time>
      </trkpt>
      <trkpt lat="42.93521" lon="2.21745">
        <ele>242</ele>
        <time>2016-07-07T13:58:21Z</time>
      </trkpt>
      <trkpt lat="42.93519" lon="2.21709">
        <ele>242</ele>
        <time>2016-07-07T14:00:21Z</time>
      </trkpt>
      <trkpt lat="42.93516" lon="2.21676">
        <ele>242</ele>
        <time>2016-07-07T14:02:21Z</time>
      </trkpt>
      <trkpt lat="42.93511" lon="2.21629">
        <ele>241</ele>
        <time>2016-07-07T14:04:21Z</time>
      </trkpt>
      <trkpt lat="42.93509" lon="2.21562">
        <ele>242</ele>
        <time>2016-07-07T14:06:21Z</time>
      </trkpt>
      <trkpt lat="42.93506" lon="2.21497">
        <ele>243</ele>
        <time>2016-07-07T14:08:21Z</time>
      </trkpt>
      <trkpt lat="42.93506" lon="2.21492">
        <ele>243</ele>
        <time>2016-07-07T14:10:21Z</time>
      </trkpt>
      <trkpt lat="42.93503" lon="2.21453">
        <ele>244</ele>
        <time>2016-07-07T14:12:21Z</time>
      </trkpt>
      <trkpt lat="42.93502" lon="2.21443">
        <ele>244</ele>
        <time>2016-07-07T14:14:21Z</time>
      </trkpt>
      <trkpt lat="42.935" lon="2.21431">
        <ele>245</ele>
        <time>2016-07-07T14:16:21Z</time>
      </trkpt>
      <trkpt lat="42.93489" lon="2.21389">
        <ele>246</ele>
        <time>2016-07-07T14:18:21Z</time>
      </trkpt>
      <trkpt lat="42.93473" lon="2.2133">
        <ele>248</ele>
        <time>2016-07-07T14:20:21Z</time>
      </trkpt>
      <trkpt lat="42.93472" lon="2.21325">
        <ele>248</ele>
        <time>2016-07-07T14:22:21Z</time>
      </trkpt>
      <trkpt lat="42.9347" lon="2.2132">
        <ele>248</ele>
        <time>2016-07-07T14:24:21Z</time>
      </trkpt>
      <trkpt lat="42.93467" lon="2.21311">
        <ele>248</ele>
        <time>2016-07-07T14:26:21Z</time>
      </trkpt>
      <trkpt lat="42.93465" lon="2.21305">
        <ele>248</ele>
        <time>2016-07-07T14:28:21Z</time>
      </trkpt>
      <trkpt lat="42.93462" lon="2.213">
        <ele>248</ele>
        <time>2016-07-07T14:30:21Z</time>
      </trkpt>
      <trkpt lat="42.93458" lon="2.21292">
        <ele>248</ele>
        <time>2016-07-07T14:32:21Z</time>
      </trkpt>
      <trkpt lat="42.93453" lon="2.21284">
        <ele>248</ele>
        <time>2016-07-07T14:34:21Z</time>
      </trkpt>
      <trkpt lat="42.93447" lon="2.21277">
        <ele>248</ele>
        <time>2016-07-07T14:36:21Z</time>
      </trkpt>
      <trkpt lat="42.93439" lon="2.21267">
        <ele>248</ele>
        <time>2016-07-07T14:38:21Z</time>
      </trkpt>
      <trkpt lat="42.93429" lon="2.21256">
        <ele>248</ele>
        <time>2016-07-07T14:40:21Z</time>
      </trkpt>
      <trkpt lat="42.93423" lon="2.21248">
        <ele>248</ele>
        <time>2016-07-07T14:42:21Z</time>
      </trkpt>
      <trkpt lat="42.93418" lon="2.21242">
        <ele>248</ele>
        <time>2016-07-07T14:44:21Z</time>
      </trkpt>
      <trkpt lat="42.93414" lon="2.21236">
        <ele>248</ele>
        <time>2016-07-07T14:46:21Z</time>
      </trkpt>
      <trkpt lat="42.9341" lon="2.21229">
        <ele>248</ele>
        <time>2016-07-07T14:48:21Z</time>
      </trkpt>
      <trkpt lat="42.93408" lon="2.21224">
        <ele>248</ele>
        <time>2016-07-07T14:50:21Z</time>
      </trkpt>
      <trkpt lat="42.93407" lon="2.2122">
        <ele>248</ele>
        <time>2016-07-07T14:52:21Z</time>
      </trkpt>
      <trkpt lat="42.93407" lon="2.21215">
        <ele>248</ele>
        <time>2016-07-07T14:54:21Z</time>
      </trkpt>
      <trkpt lat="42.93407" lon="2.2121">
        <ele>248</ele>
        <time>2016-07-07T14:56:21Z</time>
      </trkpt>
      <trkpt lat="42.93407" lon="2.21199">
        <ele>248</ele>
        <time>2016-07-07T14:58:21Z</time>
      </trkpt>
      <trkpt lat="42.93407" lon="2.21194">
        <ele>248</ele>
        <time>2016-07-07T15:00:21Z</time>
      </trkpt>
      <trkpt lat="42.93407" lon="2.21178">
        <ele>248</ele>
        <time>2016-07-07T15:02:21Z</time>
      </trkpt>
      <trkpt lat="42.93407" lon="2.21171">
        <ele>248</ele>
        <time>2016-07-07T15:04:21Z</time>
      </trkpt>
      <trkpt lat="42.9341" lon="2.21101">
        <ele>251</ele>
        <time>2016-07-07T15:06:21Z</time>
      </trkpt>
      <trkpt lat="42.9341" lon="2.21088">
        <ele>251</ele>
        <time>2016-07-07T15:08:21Z</time>
      </trkpt>
      <trkpt lat="42.93408" lon="2.21078">
        <ele>251</ele>
        <time>2016-07-07T15:10:21Z</time>
      </trkpt>
      <trkpt lat="42.93405" lon="2.21061">
        <ele>251</ele>
        <time>2016-07-07T15:12:21Z</time>
      </trkpt>
      <trkpt lat="42.93403" lon="2.21046">
        <ele>251</ele>
        <time>2016-07-07T15:14:21Z</time>
      </trkpt>
      <trkpt lat="42.93399" lon="2.21028">
        <ele>251</ele>
        <time>2016-07-07T15:16:21Z</time>
      </trkpt>
      <trkpt lat="42.93396" lon="2.2101">
        <ele>251</ele>
        <time>2016-07-07T15:18:21Z</time>
      </trkpt>
      <trkpt lat="42.93395" lon="2.21003">
        <ele>250</ele>
        <time>2016-07-07T15:20:21Z</time>
      </trkpt>
      <trkpt lat="42.93394" lon="2.20991">
        <ele>251</ele>
        <time>2016-07-07T15:22:21Z</time>
      </trkpt>
      <trkpt lat="42.93393" lon="2.20984">
        <ele>251</ele>
        <time>2016-07-07T15:24:21Z</time>
      </trkpt>
      <trkpt lat="42.93391" lon="2.20959">
        <ele>251</ele>
        <time>2016-07-07T15:26:21Z</time>
      </trkpt>
      <trkpt lat="42.9339" lon="2.20938">
        <ele>252</ele>
        <time>2016-07-07T15:28:21Z</time>
      </trkpt>
      <trkpt lat="42.93389" lon="2.20933">
        <ele>252</ele>
        <time>2016-07-07T15:30:21Z</time>
      </trkpt>
      <trkpt lat="42.93388" lon="2.20918">
        <ele>252</ele>
        <time>2016-07-07T15:32:21Z</time>
      </trkpt>
      <trkpt lat="42.93386" lon="2.20891">
        <ele>253</ele>
        <time>2016-07-07T15:34:21Z</time>
      </trkpt>
      <trkpt lat="42.93384" lon="2.20862">
        <ele>253</ele>
        <time>2016-07-07T15:36:21Z</time>
      </trkpt>
      <trkpt lat="42.93383" lon="2.20832">
        <ele>254</ele>
        <time>2016-07-07T15:38:21Z</time>
      </trkpt>
      <trkpt lat="42.9338" lon="2.20806">
        <ele>253</ele>
        <time>2016-07-07T15:40:21Z</time>
      </trkpt>
      <trkpt lat="42.93376" lon="2.20769">
        <ele>252</ele>
        <time>2016-07-07T15:42:21Z</time>
      </trkpt>
      <trkpt lat="42.93373" lon="2.20746">
        <ele>252</ele>
        <time>2016-07-07T15:44:21Z</time>
      </trkpt>
      <trkpt lat="42.93373" lon="2.20746">
        <ele>252</ele>
        <time>2016-07-07T15:46:21Z</time>
      </trkpt>
      <trkpt lat="42.93376" lon="2.20746">
        <ele>252</ele>
        <time>2016-07-07T15:48:21Z</time>
      </trkpt>
      <trkpt lat="42.93378" lon="2.20745">
        <ele>252</ele>
        <time>2016-07-07T15:50:21Z</time>
      </trkpt>
      <trkpt lat="42.9338" lon="2.20744">
        <ele>252</ele>
        <time>2016-07-07T15:52:21Z</time>
      </trkpt>
      <trkpt lat="42.93386" lon="2.20742">
        <ele>253</ele>
        <time>2016-07-07T15:54:21Z</time>
      </trkpt>
      <trkpt lat="42.93393" lon="2.20739">
        <ele>253</ele>
        <time>2016-07-07T15:56:21Z</time>
      </trkpt>
      <trkpt lat="42.93403" lon="2.20734">
        <ele>254</ele>
        <time>2016-07-07T15:58:21Z</time>
      </trkpt>
      <trkpt lat="42.93415" lon="2.2073">
        <ele>255</ele>
        <time>2016-07-07T16:00:21Z</time>
      </trkpt>
      <trkpt lat="42.9342" lon="2.20729">
        <ele>256</ele>
        <time>2016-07-07T16:02:21Z</time>
      </trkpt>
      <trkpt lat="42.93425" lon="2.20728">
        <ele>256</ele>
        <time>2016-07-07T16:04:21Z</time>
      </trkpt>
      <trkpt lat="42.93428" lon="2.20728">
        <ele>257</ele>
        <time>2016-07-07T16:06:21Z</time>
      </trkpt>
      <trkpt lat="42.93431" lon="2.20728">
        <ele>257</ele>
        <time>2016-07-07T16:08:21Z</time>
      </trkpt>
      <trkpt lat="42.93434" lon="2.20727">
        <ele>258</ele>
        <time>2016-07-07T16:10:21Z</time>
      </trkpt>
      <trkpt lat="42.93437" lon="2.20726">
        <ele>258</ele>
        <time>2016-07-07T16:12:21Z</time>
      </trkpt>
      <trkpt lat="42.93442" lon="2.20723">
        <ele>259</ele>
        <time>2016-07-07T16:14:21Z</time>
      </trkpt>
      <trkpt lat="42.93445" lon="2.20719">
        <ele>259</ele>
        <time>2016-07-07T16:16:21Z</time>
      </trkpt>
      <trkpt lat="42.93449" lon="2.20711">
        <ele>259</ele>
        <time>2016-07-07T16:18:21Z</time>
      </trkpt>
      <trkpt lat="42.93457" lon="2.207">
        <ele>259</ele>
        <time>2016-07-07T16:20:21Z</time>
      </trkpt>
      <trkpt lat="42.93466" lon="2.20687">
        <ele>259</ele>
        <time>2016-07-07T16:22:21Z</time>
      </trkpt>
      <trkpt lat="42.93474" lon="2.20673">
        <ele>259</ele>
        <time>2016-07-07T16:24:21Z</time>
      </trkpt>
      <trkpt lat="42.93483" lon="2.20662">
        <ele>259</ele>
        <time>2016-07-07T16:26:21Z</time>
      </trkpt>
      <trkpt lat="42.93496" lon="2.20648">
        <ele>260</ele>
        <time>2016-07-07T16:28:21Z</time>
      </trkpt>
      <trkpt lat="42.93508" lon="2.20635">
        <ele>261</ele>
        <time>2016-07-07T16:30:21Z</time>
      </trkpt>
      <trkpt lat="42.93521" lon="2.20619">
        <ele>261</ele>
        <time>2016-07-07T16:32:21Z</time>
      </trkpt>
      <trkpt lat="42.93531" lon="2.2061">
        <ele>262</ele>
        <time>2016-07-07T16:34:21Z</time>
      </trkpt>
      <trkpt lat="42.93539" lon="2.20603">
        <ele>262</ele>
        <time>2016-07-07T16:36:21Z</time>
      </trkpt>
      <trkpt lat="42.93549" lon="2.20595">
        <ele>262</ele>
        <time>2016-07-07T16:38:21Z</time>
      </trkpt>
      <trkpt lat="42.93559" lon="2.20588">
        <ele>262</ele>
        <time>2016-07-07T16:40:21Z</time>
      </trkpt>
      <trkpt lat="42.93567" lon="2.20584">
        <ele>263</ele>
        <time>2016-07-07T16:42:21Z</time>
      </trkpt>
      <trkpt lat="42.93576" lon="2.20581">
        <ele>263</ele>
        <time>2016-07-07T16:44:21Z</time>
      </trkpt>
      <trkpt lat="42.93583" lon="2.2058">
        <ele>264</ele>
        <time>2016-07-07T16:46:21Z</time>
      </trkpt>
      <trkpt lat="42.9359" lon="2.20579">
        <ele>264</ele>
        <time>2016-07-07T16:48:21Z</time>
      </trkpt>
      <trkpt lat="42.93599" lon="2.20579">
        <ele>265</ele>
        <time>2016-07-07T16:50:21Z</time>
      </trkpt>
      <trkpt lat="42.93607" lon="2.20576">
        <ele>265</ele>
        <time>2016-07-07T16:52:21Z</time>
      </trkpt>
      <trkpt lat="42.93617" lon="2.20571">
        <ele>266</ele>
        <time>2016-07-07T16:54:21Z</time>
      </trkpt>
      <trkpt lat="42.93624" lon="2.20569">
        <ele>267</ele>
        <time>2016-07-07T16:56:21Z</time>
      </trkpt>
      <trkpt lat="42.9363" lon="2.20566">
        <ele>267</ele>
        <time>2016-07-07T16:58:21Z</time>
      </trkpt>
      <trkpt lat="42.93637" lon="2.20566">
        <ele>268</ele>
        <time>2016-07-07T17:00:21Z</time>
      </trkpt>
      <trkpt lat="42.93641" lon="2.20565">
        <ele>268</ele>
        <time>2016-07-07T17:02:21Z</time>
      </trkpt>
      <trkpt lat="42.93647" lon="2.20565">
        <ele>268</ele>
        <time>2016-07-07T17:04:21Z</time>
      </trkpt>
      <trkpt lat="42.93652" lon="2.20566">
        <ele>269</ele>
        <time>2016-07-07T17:06:21Z</time>
      </trkpt>
      <trkpt lat="42.9366" lon="2.20567">
        <ele>269</ele>
        <time>2016-07-07T17:08:21Z</time>
      </trkpt>
      <trkpt lat="42.9367" lon="2.20569">
        <ele>270</ele>
        <time>2016-07-07T17:10:21Z</time>
      </trkpt>
      <trkpt lat="42.93677" lon="2.20571">
        <ele>270</ele>
        <time>2016-07-07T17:12:21Z</time>
      </trkpt>
      <trkpt lat="42.93687" lon="2.20577">
        <ele>270</ele>
        <time>2016-07-07T17:14:21Z</time>
      </trkpt>
      <trkpt lat="42.93691" lon="2.20581">
        <ele>270</ele>
        <time>2016-07-07T17:16:21Z</time>
      </trkpt>
      <trkpt lat="42.93696" lon="2.20585">
        <ele>270</ele>
        <time>2016-07-07T17:18:21Z</time>
      </trkpt>
      <trkpt lat="42.93702" lon="2.20592">
        <ele>271</ele>
        <time>2016-07-07T17:20:21Z</time>
      </trkpt>
      <trkpt lat="42.9371" lon="2.206">
        <ele>272</ele>
        <time>2016-07-07T17:22:21Z</time>
      </trkpt>
      <trkpt lat="42.9371" lon="2.206">
        <ele>272</ele>
        <time>2016-07-07T17:24:21Z</time>
      </trkpt>
      <trkpt lat="42.93707" lon="2.20603">
        <ele>272</ele>
        <time>2016-07-07T17:26:21Z</time>
      </trkpt>
      <trkpt lat="42.93705" lon="2.20603">
        <ele>272</ele>
        <time>2016-07-07T17:28:21Z</time>
      </trkpt>
      <trkpt lat="42.93704" lon="2.20603">
        <ele>272</ele>
        <time>2016-07-07T17:30:21Z</time>
      </trkpt>
      <trkpt lat="42.93701" lon="2.20601">
        <ele>272</ele>
        <time>2016-07-07T17:32:21Z</time>
      </trkpt>
      <trkpt lat="42.93698" lon="2.20599">
        <ele>272</ele>
        <time>2016-07-07T17:34:21Z</time>
      </trkpt>
      <trkpt lat="42.93696" lon="2.20598">
        <ele>272</ele>
        <time>2016-07-07T17:36:21Z</time>
      </trkpt>
      <trkpt lat="42.93695" lon="2.20597">
        <ele>272</ele>
        <time>2016-07-07T17:38:21Z</time>
      </trkpt>
      <trkpt lat="42.93693" lon="2.20596">
        <ele>271</ele>
        <time>2016-07-07T17:40:21Z</time>
      </trkpt>
      <trkpt lat="42.93691" lon="2.20596">
        <ele>271</ele>
        <time>2016-07-07T17:42:21Z</time>
      </trkpt>
      <trkpt lat="42.93689" lon="2.20596">
        <ele>271</ele>
        <time>2016-07-07T17:44:21Z</time>
      </trkpt>
      <trkpt lat="42.93687" lon="2.20597">
        <ele>271</ele>
        <time>2016-07-07T17:46:21Z</time>
      </trkpt>
      <trkpt lat="42.93686" lon="2.20599">
        <ele>272</ele>
        <time>2016-07-07T17:48:21Z</time>
      </trkpt>
      <trkpt lat="42.93684" lon="2.20601">
        <ele>272</ele>
        <time>2016-07-07T17:50:21Z</time>
      </trkpt>
      <trkpt lat="42.93683" lon="2.20604">
        <ele>272</ele>
        <time>2016-07-07T17:52:21Z</time>
      </trkpt>
      <trkpt lat="42.93683" lon="2.20608">
        <ele>273</ele>
        <time>2016-07-07T17:54:21Z</time>
      </trkpt>
      <trkpt lat="42.93682" lon="2.20612">
        <ele>273</ele>
        <time>2016-07-07T17:56:21Z</time>
      </trkpt>
      <trkpt lat="42.93682" lon="2.20612">
        <ele>273</ele>
        <time>2016-07-07T17:58:21Z</time>
      </trkpt>
      <trkpt lat="42.93683" lon="2.20608">
        <ele>273</ele>
        <time>2016-07-07T18:00:21Z</time>
      </trkpt>
      <trkpt lat="42.93683" lon="2.20604">
        <ele>272</ele>
        <time>2016-07-07T18:02:21Z</time>
      </trkpt>
      <trkpt lat="42.93684" lon="2.20601">
        <ele>272</ele>
        <time>2016-07-07T18:04:21Z</time>
      </trkpt>
      <trkpt lat="42.93686" lon="2.20599">
        <ele>272</ele>
        <time>2016-07-07T18:06:21Z</time>
      </trkpt>
      <trkpt lat="42.93687" lon="2.20597">
        <ele>271</ele>
        <time>2016-07-07T18:08:21Z</time>
      </trkpt>
      <trkpt lat="42.93689" lon="2.20596">
        <ele>271</ele>
        <time>2016-07-07T18:10:21Z</time>
      </trkpt>
      <trkpt lat="42.93691" lon="2.20596">
        <ele>271</ele>
        <time>2016-07-07T18:12:21Z</time>
      </trkpt>
      <trkpt lat="42.93693" lon="2.20596">
        <ele>271</ele>
        <time>2016-07-07T18:14:21Z</time>
      </trkpt>
      <trkpt lat="42.93695" lon="2.20597">
        <ele>272</ele>
        <time>2016-07-07T18:16:21Z</time>
      </trkpt>
      <trkpt lat="42.93696" lon="2.20598">
        <ele>272</ele>
        <time>2016-07-07T18:18:21Z</time>
      </trkpt>
      <trkpt lat="42.93698" lon="2.20599">
        <ele>272</ele>
        <time>2016-07-07T18:20:21Z</time>
      </trkpt>
      <trkpt lat="42.93701" lon="2.20601">
        <ele>272</ele>
        <time>2016-07-07T18:22:21Z</time>
      </trkpt>
      <trkpt lat="42.93704" lon="2.20603">
        <ele>272</ele>
        <time>2016-07-07T18:24:21Z</time>
      </trkpt>
      <trkpt lat="42.93705" lon="2.20603">
        <ele>272</ele>
        <time>2016-07-07T18:26:21Z</time>
      </trkpt>
      <trkpt lat="42.93707" lon="2.20603">
        <ele>272</ele>
        <time>2016-07-07T18:28:21Z</time>
      </trkpt>
      <trkpt lat="42.9371" lon="2.206">
        <ele>272</ele>
        <time>2016-07-07T18:30:21Z</time>
      </trkpt>
      <trkpt lat="42.9371" lon="2.206">
        <ele>272</ele>
        <time>2016-07-07T18:32:21Z</time>
      </trkpt>
      <trkpt lat="42.93702" lon="2.20592">
        <ele>271</ele>
        <time>2016-07-07T18:34:21Z</time>
      </trkpt>
      <trkpt lat="42.93696" lon="2.20585">
        <ele>270</ele>
        <time>2016-07-07T18:36:21Z</time>
      </trkpt>
      <trkpt lat="42.93691" lon="2.20581">
        <ele>270</ele>
        <time>2016-07-07T18:38:21Z</time>
      </trkpt>
      <trkpt lat="42.93687" lon="2.20577">
        <ele>270</ele>
        <time>2016-07-07T18:40:21Z</time>
      </trkpt>
      <trkpt lat="42.93677" lon="2.20571">
        <ele>270</ele>
        <time>2016-07-07T18:42:21Z</time>
      </trkpt>
      <trkpt lat="42.9367" lon="2.20569">
        <ele>270</ele>
        <time>2016-07-07T18:44:21Z</time>
      </trkpt>
      <trkpt lat="42.9366" lon="2.20567">
        <ele>269</ele>
        <time>2016-07-07T18:46:21Z</time>
      </trkpt>
      <trkpt lat="42.93652" lon="2.20566">
        <ele>269</ele>
        <time>2016-07-07T18:48:21Z</time>
      </trkpt>
      <trkpt lat="42.93647" lon="2.20565">
        <ele>268</ele>
        <time>2016-07-07T18:50:21Z</time>
      </trkpt>
      <trkpt lat="42.93641" lon="2.20565">
        <ele>268</ele>
        <time>2016-07-07T18:52:21Z</time>
      </trkpt>
      <trkpt lat="42.93637" lon="2.20566">
        <ele>268</ele>
        <time>2016-07-07T18:54:21Z</time>
      </trkpt>
      <trkpt lat="42.9363" lon="2.20566">
        <ele>267</ele>
        <time>2016-07-07T18:56:21Z</time>
      </trkpt>
      <trkpt lat="42.93624" lon="2.20569">
        <ele>267</ele>
        <time>2016-07-07T18:58:21Z</time>
      </trkpt>
      <trkpt lat="42.93617" lon="2.20571">
        <ele>266</ele>
        <time>2016-07-07T19:00:21Z</time>
      </trkpt>
      <trkpt lat="42.93607" lon="2.20576">
        <ele>265</ele>
        <time>2016-07-07T19:02:21Z</time>
      </trkpt>
      <trkpt lat="42.93599" lon="2.20579">
        <ele>265</ele>
        <time>2016-07-07T19:04:21Z</time>
      </trkpt>
      <trkpt lat="42.9359" lon="2.20579">
        <ele>264</ele>
        <time>2016-07-07T19:06:21Z</time>
      </trkpt>
      <trkpt lat="42.93583" lon="2.2058">
        <ele>264</ele>
        <time>2016-07-07T19:08:21Z</time>
      </trkpt>
      <trkpt lat="42.93576" lon="2.20581">
        <ele>263</ele>
        <time>2016-07-07T19:10:21Z</time>
      </trkpt>
      <trkpt lat="42.93567" lon="2.20584">
        <ele>263</ele>
        <time>2016-07-07T19:12:21Z</time>
      </trkpt>
      <trkpt lat="42.93559" lon="2.20588">
        <ele>262</ele>
        <time>2016-07-07T19:14:21Z</time>
      </trkpt>
      <trkpt lat="42.93549" lon="2.20595">
        <ele>262</ele>
        <time>2016-07-07T19:16:21Z</time>
      </trkpt>
      <trkpt lat="42.93539" lon="2.20603">
        <ele>262</ele>
        <time>2016-07-07T19:18:21Z</time>
      </trkpt>
      <trkpt lat="42.93531" lon="2.2061">
        <ele>262</ele>
        <time>2016-07-07T19:20:21Z</time>
      </trkpt>
      <trkpt lat="42.93521" lon="2.20619">
        <ele>261</ele>
        <time>2016-07-07T19:22:21Z</time>
      </trkpt>
      <trkpt lat="42.93508" lon="2.20635">
        <ele>261</ele>
        <time>2016-07-07T19:24:21Z</time>
      </trkpt>
      <trkpt lat="42.93496" lon="2.20648">
        <ele>260</ele>
        <time>2016-07-07T19:26:21Z</time>
      </trkpt>
      <trkpt lat="42.93483" lon="2.20662">
        <ele>259</ele>
        <time>2016-07-07T19:28:21Z</time>
      </trkpt>
      <trkpt lat="42.93474" lon="2.20673">
        <ele>259</ele>
        <time>2016-07-07T19:30:21Z</time>
      </trkpt>
      <trkpt lat="42.93466" lon="2.20687">
        <ele>259</ele>
        <time>2016-07-07T19:32:21Z</time>
      </trkpt>
      <trkpt lat="42.93457" lon="2.207">
        <ele>259</ele>
        <time>2016-07-07T19:34:21Z</time>
      </trkpt>
      <trkpt lat="42.93449" lon="2.20711">
        <ele>259</ele>
        <time>2016-07-07T19:36:21Z</time>
      </trkpt>
      <trkpt lat="42.93445" lon="2.20719">
        <ele>259</ele>
        <time>2016-07-07T19:38:21Z</time>
      </trkpt>
      <trkpt lat="42.93442" lon="2.20723">
        <ele>259</ele>
        <time>2016-07-07T19:40:21Z</time>
      </trkpt>
      <trkpt lat="42.93437" lon="2.20726">
        <ele>258</ele>
        <time>2016-07-07T19:42:21Z</time>
      </trkpt>
      <trkpt lat="42.93434" lon="2.20727">
        <ele>258</ele>
        <time>2016-07-07T19:44:21Z</time>
      </trkpt>
      <trkpt lat="42.93431" lon="2.20728">
        <ele>257</ele>
        <time>2016-07-07T19:46:21Z</time>
      </trkpt>
      <trkpt lat="42.93428" lon="2.20728">
        <ele>257</ele>
        <time>2016-07-07T19:48:21Z</time>
      </trkpt>
      <trkpt lat="42.93425" lon="2.20728">
        <ele>256</ele>
        <time>2016-07-07T19:50:21Z</time>
      </trkpt>
      <trkpt lat="42.9342" lon="2.20729">
        <ele>256</ele>
        <time>2016-07-07T19:52:21Z</time>
      </trkpt>
      <trkpt lat="42.93415" lon="2.2073">
        <ele>255</ele>
        <time>2016-07-07T19:54:21Z</time>
      </trkpt>
      <trkpt lat="42.93403" lon="2.20734">
        <ele>254</ele>
        <time>2016-07-07T19:56:21Z</time>
      </trkpt>
      <trkpt lat="42.93393" lon="2.20739">
        <ele>253</ele>
        <time>2016-07-07T19:58:21Z</time>
      </trkpt>
      <trkpt lat="42.93386" lon="2.20742">
        <ele>253</ele>
        <time>2016-07-07T20:00:21Z</time>
      </trkpt>
      <trkpt lat="42.9338" lon="2.20744">
        <ele>252</ele>
        <time>2016-07-07T20:02:21Z</time>
      </trkpt>
      <trkpt lat="42.93378" lon="2.20745">
        <ele>252</ele>
        <time>2016-07-07T20:04:21Z</time>
      </trkpt>
      <trkpt lat="42.93376" lon="2.20746">
        <ele>252</ele>
        <time>2016-07-07T20:06:21Z</time>
      </trkpt>
      <trkpt lat="42.93373" lon="2.20746">
        <ele>252</ele>
        <time>2016-07-07T20:08:21Z</time>
      </trkpt>
      <trkpt lat="42.93373" lon="2.20746">
        <ele>252</ele>
        <time>2016-07-07T20:10:21Z</time>
      </trkpt>
      <trkpt lat="42.93369" lon="2.20722">
        <ele>251</ele>
        <time>2016-07-07T20:12:21Z</time>
      </trkpt>
      <trkpt lat="42.93367" lon="2.20707">
        <ele>251</ele>
        <time>2016-07-07T20:14:21Z</time>
      </trkpt>
      <trkpt lat="42.93366" lon="2.20695">
        <ele>251</ele>
        <time>2016-07-07T20:16:21Z</time>
      </trkpt>
      <trkpt lat="42.93366" lon="2.20688">
        <ele>251</ele>
        <time>2016-07-07T20:18:21Z</time>
      </trkpt>
      <trkpt lat="42.93366" lon="2.20681">
        <ele>251</ele>
        <time>2016-07-07T20:20:21Z</time>
      </trkpt>
      <trkpt lat="42.93366" lon="2.20675">
        <ele>251</ele>
        <time>2016-07-07T20:22:21Z</time>
      </trkpt>
      <trkpt lat="42.93367" lon="2.20669">
        <ele>251</ele>
        <time>2016-07-07T20:24:21Z</time>
      </trkpt>
      <trkpt lat="42.93368" lon="2.20657">
        <ele>251</ele>
        <time>2016-07-07T20:26:21Z</time>
      </trkpt>
      <trkpt lat="42.9337" lon="2.20649">
        <ele>251</ele>
        <time>2016-07-07T20:28:21Z</time>
      </trkpt>
      <trkpt lat="42.93371" lon="2.20642">
        <ele>251</ele>
        <time>2016-07-07T20:30:21Z</time>
      </trkpt>
      <trkpt lat="42.93374" lon="2.20629">
        <ele>252</ele>
        <time>2016-07-07T20:32:21Z</time>
      </trkpt>
      <trkpt lat="42.93381" lon="2.20605">
        <ele>253</ele>
        <time>2016-07-07T20:34:21Z</time>
      </trkpt>
      <trkpt lat="42.93387" lon="2.20584">
        <ele>253</ele>
        <time>2016-07-07T20:36:21Z</time>
      </trkpt>
      <trkpt lat="42.93392" lon="2.20566">
        <ele>254</ele>
        <time>2016-07-07T20:38:21Z</time>
      </trkpt>
      <trkpt lat="42.93399" lon="2.20533">
        <ele>255</ele>
        <time>2016-07-07T20:40:21Z</time>
      </trkpt>
      <trkpt lat="42.93405" lon="2.20508">
        <ele>256</ele>
        <time>2016-07-07T20:42:21Z</time>
      </trkpt>
      <trkpt lat="42.93413" lon="2.20477">
        <ele>257</ele>
        <time>2016-07-07T20:44:21Z</time>
      </trkpt>
      <trkpt lat="42.93419" lon="2.2045">
        <ele>259</ele>
        <time>2016-07-07T20:46:21Z</time>
      </trkpt>
      <trkpt lat="42.93423" lon="2.20431">
        <ele>260</ele>
        <time>2016-07-07T20:48:21Z</time>
      </trkpt>
      <trkpt lat="42.93426" lon="2.20413">
        <ele>261</ele>
        <time>2016-07-07T20:50:21Z</time>
      </trkpt>
      <trkpt lat="42.93428" lon="2.20393">
        <ele>261</ele>
        <time>2016-07-07T20:52:21Z</time>
      </trkpt>
      <trkpt lat="42.9343" lon="2.20373">
        <ele>261</ele>
        <time>2016-07-07T20:54:21Z</time>
      </trkpt>
      <trkpt lat="42.93433" lon="2.20337">
        <ele>262</ele>
        <time>2016-07-07T20:56:21Z</time>
      </trkpt>
      <trkpt lat="42.93436" lon="2.20307">
        <ele>262</ele>
        <time>2016-07-07T20:58:21Z</time>
      </trkpt>
      <trkpt lat="42.93439" lon="2.20288">
        <ele>262</ele>
        <time>2016-07-07T21:00:21Z</time>
      </trkpt>
      <trkpt lat="42.93441" lon="2.20273">
        <ele>262</ele>
        <time>2016-07-07T21:02:21Z</time>
      </trkpt>
      <trkpt lat="42.93444" lon="2.20259">
        <ele>262</ele>
        <time>2016-07-07T21:04:21Z</time>
      </trkpt>
      <trkpt lat="42.93448" lon="2.20248">
        <ele>263</ele>
        <time>2016-07-07T21:06:21Z</time>
      </trkpt>
      <trkpt lat="42.93453" lon="2.20233">
        <ele>263</ele>
        <time>2016-07-07T21:08:21Z</time>
      </trkpt>
      <trkpt lat="42.93461" lon="2.20215">
        <ele>263</ele>
        <time>2016-07-07T21:10:21Z</time>
      </trkpt>
      <trkpt lat="42.93468" lon="2.20198">
        <ele>263</ele>
        <time>2016-07-07T21:12:21Z</time>
      </trkpt>
      <trkpt lat="42.93474" lon="2.20184">
        <ele>263</ele>
        <time>2016-07-07T21:14:21Z</time>
      </trkpt>
      <trkpt lat="42.93481" lon="2.20167">
        <ele>262</ele>
        <time>2016-07-07T21:16:21Z</time>
      </trkpt>
      <trkpt lat="42.93488" lon="2.20145">
        <ele>262</ele>
        <time>2016-07-07T21:18:21Z</time>
      </trkpt>
      <trkpt lat="42.93497" lon="2.20121">
        <ele>261</ele>
        <time>2016-07-07T21:20:21Z</time>
      </trkpt>
      <trkpt lat="42.9351" lon="2.20086">
        <ele>259</ele>
        <time>2016-07-07T21:22:21Z</time>
      </trkpt>
      <trkpt lat="42.93516" lon="2.20069">
        <ele>259</ele>
        <time>2016-07-07T21:24:21Z</time>
      </trkpt>
      <trkpt lat="42.93523" lon="2.20047">
        <ele>259</ele>
        <time>2016-07-07T21:26:21Z</time>
      </trkpt>
      <trkpt lat="42.9353" lon="2.20016">
        <ele>258</ele>
        <time>2016-07-07T21:28:21Z</time>
      </trkpt>
      <trkpt lat="42.93532" lon="2.20007">
        <ele>258</ele>
        <time>2016-07-07T21:30:21Z</time>
      </trkpt>
      <trkpt lat="42.93541" lon="2.19971">
        <ele>258</ele>
        <time>2016-07-07T21:32:21Z</time>
      </trkpt>
      <trkpt lat="42.93547" lon="2.19947">
        <ele>258</ele>
        <time>2016-07-07T21:34:21Z</time>
      </trkpt>
      <trkpt lat="42.93549" lon="2.19941">
        <ele>258</ele>
        <time>2016-07-07T21:36:21Z</time>
      </trkpt>
      <trkpt lat="42.93551" lon="2.19935">
        <ele>258</ele>
        <time>2016-07-07T21:38:21Z</time>
      </trkpt>
      <trkpt lat="42.93552" lon="2.19932">
        <ele>258</ele>
        <time>2016-07-07T21:40:21Z</time>
      </trkpt>
      <trkpt lat="42.93554" lon="2.19928">
        <ele>258</ele>
        <time>2016-07-07T21:42:21Z</time>
      </trkpt>
      <trkpt lat="42.93575" lon="2.1988">
        <ele>258</ele>
        <time>2016-07-07T21:44:21Z</time>
      </trkpt>
      <trkpt lat="42.93582" lon="2.19864">
        <ele>258</ele>
        <time>2016-07-07T21:46:21Z</time>
      </trkpt>
      <trkpt lat="42.93599" lon="2.19823">
        <ele>258</ele>
        <time>2016-07-07T21:48:21Z</time>
      </trkpt>
      <trkpt lat="42.93624" lon="2.1977">
        <ele>258</ele>
        <time>2016-07-07T21:50:21Z</time>
      </trkpt>
      <trkpt lat="42.93629" lon="2.19758">
        <ele>258</ele>
        <time>2016-07-07T21:52:21Z</time>
      </trkpt>
      <trkpt lat="42.93636" lon="2.19744">
        <ele>258</ele>
        <time>2016-07-07T21:54:21Z</time>
      </trkpt>
      <trkpt lat="42.93645" lon="2.19723">
        <ele>258</ele>
        <time>2016-07-07T21:56:21Z</time>
      </trkpt>
      <trkpt lat="42.93667" lon="2.19678">
        <ele>259</ele>
        <time>2016-07-07T21:58:21Z</time>
      </trkpt>
      <trkpt lat="42.93684" lon="2.19644">
        <ele>262</ele>
        <time>2016-07-07T22:00:21Z</time>
      </trkpt>
      <trkpt lat="42.93694" lon="2.19621">
        <ele>263</ele>
        <time>2016-07-07T22:02:21Z</time>
      </trkpt>
      <trkpt lat="42.93699" lon="2.19609">
        <ele>264</ele>
        <time>2016-07-07T22:04:21Z</time>
      </trkpt>
      <trkpt lat="42.93709" lon="2.19588">
        <ele>265</ele>
        <time>2016-07-07T22:06:21Z</time>
      </trkpt>
      <trkpt lat="42.93718" lon="2.19571">
        <ele>265</ele>
        <time>2016-07-07T22:08:21Z</time>
      </trkpt>
      <trkpt lat="42.93726" lon="2.19553">
        <ele>265</ele>
        <time>2016-07-07T22:10:21Z</time>
      </trkpt>
      <trkpt lat="42.93734" lon="2.19538">
        <ele>265</ele>
        <time>2016-07-07T22:12:21Z</time>
      </trkpt>
      <trkpt lat="42.93744" lon="2.19523">
        <ele>265</ele>
        <time>2016-07-07T22:14:21Z</time>
      </trkpt>
      <trkpt lat="42.93782" lon="2.19467">
        <ele>268</ele>
        <time>2016-07-07T22:16:21Z</time>
      </trkpt>
      <trkpt lat="42.93808" lon="2.19425">
        <ele>268</ele>
        <time>2016-07-07T22:18:21Z</time>
      </trkpt>
      <trkpt lat="42.93822" lon="2.19404">
        <ele>267</ele>
        <time>2016-07-07T22:20:21Z</time>
      </trkpt>
      <trkpt lat="42.93835" lon="2.19384">
        <ele>267</ele>
        <time>2016-07-07T22:22:21Z</time>
      </trkpt>
      <trkpt lat="42.93844" lon="2.19368">
        <ele>268</ele>
        <time>2016-07-07T22:24:21Z</time>
      </trkpt>
      <trkpt lat="42.93847" lon="2.19361">
        <ele>268</ele>
        <time>2016-07-07T22:26:21Z</time>
      </trkpt>
      <trkpt lat="42.93849" lon="2.19356">
        <ele>268</ele>
        <time>2016-07-07T22:28:21Z</time>
      </trkpt>
      <trkpt lat="42.9385" lon="2.19351">
        <ele>268</ele>
        <time>2016-07-07T22:30:21Z</time>
      </trkpt>
      <trkpt lat="42.93851" lon="2.19345">
        <ele>268</ele>
        <time>2016-07-07T22:32:21Z</time>
      </trkpt>
      <trkpt lat="42.93851" lon="2.19338">
        <ele>268</ele>
        <time>2016-07-07T22:34:21Z</time>
      </trkpt>
      <trkpt lat="42.9385" lon="2.19325">
        <ele>267</ele>
        <time>2016-07-07T22:36:21Z</time>
      </trkpt>
      <trkpt lat="42.93844" lon="2.19288">
        <ele>266</ele>
        <time>2016-07-07T22:38:21Z</time>
      </trkpt>
      <trkpt lat="42.93843" lon="2.19285">
        <ele>266</ele>
        <time>2016-07-07T22:40:21Z</time>
      </trkpt>
      <trkpt lat="42.93842" lon="2.1928">
        <ele>266</ele>
        <time>2016-07-07T22:42:21Z</time>
      </trkpt>
      <trkpt lat="42.93841" lon="2.19273">
        <ele>266</ele>
        <time>2016-07-07T22:44:21Z</time>
      </trkpt>
      <trkpt lat="42.9384" lon="2.19268">
        <ele>266</ele>
        <time>2016-07-07T22:46:21Z</time>
      </trkpt>
      <trkpt lat="42.9384" lon="2.19261">
        <ele>266</ele>
        <time>2016-07-07T22:48:21Z</time>
      </trkpt>
      <trkpt lat="42.93839" lon="2.19249">
        <ele>266</ele>
        <time>2016-07-07T22:50:21Z</time>
      </trkpt>
      <trkpt lat="42.93839" lon="2.19236">
        <ele>265</ele>
        <time>2016-07-07T22:52:21Z</time>
      </trkpt>
      <trkpt lat="42.93838" lon="2.1922">
        <ele>265</ele>
        <time>2016-07-07T22:54:21Z</time>
      </trkpt>
      <trkpt lat="42.93838" lon="2.19211">
        <ele>265</ele>
        <time>2016-07-07T22:56:21Z</time>
      </trkpt>
      <trkpt lat="42.93838" lon="2.19205">
        <ele>265</ele>
        <time>2016-07-07T22:58:21Z</time>
      </trkpt>
      <trkpt lat="42.93839" lon="2.19196">
        <ele>265</ele>
        <time>2016-07-07T23:00:21Z</time>
      </trkpt>
      <trkpt lat="42.9384" lon="2.1919">
        <ele>265</ele>
        <time>2016-07-07T23:02:21Z</time>
      </trkpt>
      <trkpt lat="42.93842" lon="2.19181">
        <ele>265</ele>
        <time>2016-07-07T23:04:21Z</time>
      </trkpt>
      <trkpt lat="42.93843" lon="2.19174">
        <ele>265</ele>
        <time>2016-07-07T23:06:21Z</time>
      </trkpt>
      <trkpt lat="42.93845" lon="2.19168">
        <ele>265</ele>
        <time>2016-07-07T23:08:21Z</time>
      </trkpt>
      <trkpt lat="42.93848" lon="2.19161">
        <ele>266</ele>
        <time>2016-07-07T23:10:21Z</time>
      </trkpt>
      <trkpt lat="42.9385" lon="2.19156">
        <ele>266</ele>
        <time>2016-07-07T23:12:21Z</time>
      </trkpt>
      <trkpt lat="42.93852" lon="2.19152">
        <ele>266</ele>
        <time>2016-07-07T23:14:21Z</time>
      </trkpt>
      <trkpt lat="42.93855" lon="2.19148">
        <ele>266</ele>
        <time>2016-07-07T23:16:21Z</time>
      </trkpt>
      <trkpt lat="42.9386" lon="2.19143">
        <ele>267</ele>
        <time>2016-07-07T23:18:21Z</time>
      </trkpt>
      <trkpt lat="42.93873" lon="2.19126">
        <ele>267</ele>
        <time>2016-07-07T23:20:21Z</time>
      </trkpt>
      <trkpt lat="42.9388" lon="2.19117">
        <ele>268</ele>
        <time>2016-07-07T23:22:21Z</time>
      </trkpt>
      <trkpt lat="42.93893" lon="2.19093">
        <ele>268</ele>
        <time>2016-07-07T23:24:21Z</time>
      </trkpt>
      <trkpt lat="42.93898" lon="2.19085">
        <ele>268</ele>
        <time>2016-07-07T23:26:21Z</time>
      </trkpt>
      <trkpt lat="42.93906" lon="2.19068">
        <ele>268</ele>
        <time>2016-07-07T23:28:21Z</time>
      </trkpt>
      <trkpt lat="42.9391" lon="2.19061">
        <ele>269</ele>
        <time>2016-07-07T23:30:21Z</time>
      </trkpt>
      <trkpt lat="42.93914" lon="2.19051">
        <ele>269</ele>
        <time>2016-07-07T23:32:21Z</time>
      </trkpt>
      <trkpt lat="42.93917" lon="2.19042">
        <ele>269</ele>
        <time>2016-07-07T23:34:21Z</time>
      </trkpt>
      <trkpt lat="42.93919" lon="2.19037">
        <ele>269</ele>
        <time>2016-07-07T23:36:21Z</time>
      </trkpt>
      <trkpt lat="42.93923" lon="2.19018">
        <ele>270</ele>
        <time>2016-07-07T23:38:21Z</time>
      </trkpt>
      <trkpt lat="42.93926" lon="2.19004">
        <ele>270</ele>
        <time>2016-07-07T23:40:21Z</time>
      </trkpt>
      <trkpt lat="42.93929" lon="2.18988">
        <ele>270</ele>
        <time>2016-07-07T23:42:21Z</time>
      </trkpt>
      <trkpt lat="42.93933" lon="2.18973">
        <ele>270</ele>
        <time>2016-07-07T23:44:21Z</time>
      </trkpt>
      <trkpt lat="42.93937" lon="2.18961">
        <ele>270</ele>
        <time>2016-07-07T23:46:21Z</time>
      </trkpt>
      <trkpt lat="42.93943" lon="2.18946">
        <ele>270</ele>
        <time>2016-07-07T23:48:21Z</time>
      </trkpt>
      <trkpt lat="42.9395" lon="2.18935">
        <ele>271</ele>
        <time>2016-07-07T23:50:21Z</time>
      </trkpt>
      <trkpt lat="42.93956" lon="2.18925">
        <ele>271</ele>
        <time>2016-07-07T23:52:21Z</time>
      </trkpt>
      <trkpt lat="42.93964" lon="2.18914">
        <ele>271</ele>
        <time>2016-07-07T23:54:21Z</time>
      </trkpt>
      <trkpt lat="42.93971" lon="2.18907">
        <ele>272</ele>
        <time>2016-07-07T23:56:21Z</time>
      </trkpt>
      <trkpt lat="42.93978" lon="2.18901">
        <ele>272</ele>
        <time>2016-07-07T23:58:21Z</time>
      </trkpt>
      <trkpt lat="42.93987" lon="2.18894">
        <ele>272</ele>
        <time>2016-07-08T00:00:21Z</time>
      </trkpt>
      <trkpt lat="42.93999" lon="2.18888">
        <ele>273</ele>
        <time>2016-07-08T00:02:21Z</time>
      </trkpt>
      <trkpt lat="42.94012" lon="2.18881">
        <ele>273</ele>
        <time>2016-07-08T00:04:21Z</time>
      </trkpt>
      <trkpt lat="42.94025" lon="2.18875">
        <ele>273</ele>
        <time>2016-07-08T00:06:21Z</time>
      </trkpt>
      <trkpt lat="42.94036" lon="2.18869">
        <ele>273</ele>
        <time>2016-07-08T00:08:21Z</time>
      </trkpt>
      <trkpt lat="42.94045" lon="2.18864">
        <ele>274</ele>
        <time>2016-07-08T00:10:21Z</time>
      </trkpt>
      <trkpt lat="42.9405" lon="2.1886">
        <ele>274</ele>
        <time>2016-07-08T00:12:21Z</time>
      </trkpt>
      <trkpt lat="42.94054" lon="2.18856">
        <ele>274</ele>
        <time>2016-07-08T00:14:21Z</time>
      </trkpt>
      <trkpt lat="42.94058" lon="2.18851">
        <ele>273</ele>
        <time>2016-07-08T00:16:21Z</time>
      </trkpt>
      <trkpt lat="42.94062" lon="2.18844">
        <ele>273</ele>
        <time>2016-07-08T00:18:21Z</time>
      </trkpt>
      <trkpt lat="42.94066" lon="2.18834">
        <ele>273</ele>
        <time>2016-07-08T00:20:21Z</time>
      </trkpt>
      <trkpt lat="42.94068" lon="2.18828">
        <ele>273</ele>
        <time>2016-07-08T00:22:21Z</time>
      </trkpt>
      <trkpt lat="42.94071" lon="2.18821">
        <ele>273</ele>
        <time>2016-07-08T00:24:21Z</time>
      </trkpt>
      <trkpt lat="42.94072" lon="2.18817">
        <ele>273</ele>
        <time>2016-07-08T00:26:21Z</time>
      </trkpt>
      <trkpt lat="42.94079" lon="2.18797">
        <ele>273</ele>
        <time>2016-07-08T00:28:21Z</time>
      </trkpt>
      <trkpt lat="42.94087" lon="2.18769">
        <ele>272</ele>
        <time>2016-07-08T00:30:21Z</time>
      </trkpt>
      <trkpt lat="42.94098" lon="2.1873">
        <ele>273</ele>
        <time>2016-07-08T00:32:21Z</time>
      </trkpt>
      <trkpt lat="42.94103" lon="2.18714">
        <ele>274</ele>
        <time>2016-07-08T00:34:21Z</time>
      </trkpt>
      <trkpt lat="42.94105" lon="2.18707">
        <ele>274</ele>
        <time>2016-07-08T00:36:21Z</time>
      </trkpt>
      <trkpt lat="42.94118" lon="2.18664">
        <ele>276</ele>
        <time>2016-07-08T00:38:21Z</time>
      </trkpt>
      <trkpt lat="42.94139" lon="2.18594">
        <ele>279</ele>
        <time>2016-07-08T00:40:21Z</time>
      </trkpt>
      <trkpt lat="42.9416" lon="2.18525">
        <ele>279</ele>
        <time>2016-07-08T00:42:21Z</time>
      </trkpt>
      <trkpt lat="42.94169" lon="2.18495">
        <ele>279</ele>
        <time>2016-07-08T00:44:21Z</time>
      </trkpt>
      <trkpt lat="42.94174" lon="2.18478">
        <ele>280</ele>
        <time>2016-07-08T00:46:21Z</time>
      </trkpt>
      <trkpt lat="42.9418" lon="2.18464">
        <ele>281</ele>
        <time>2016-07-08T00:48:21Z</time>
      </trkpt>
      <trkpt lat="42.94192" lon="2.1844">
        <ele>282</ele>
        <time>2016-07-08T00:50:21Z</time>
      </trkpt>
      <trkpt lat="42.94201" lon="2.18423">
        <ele>283</ele>
        <time>2016-07-08T00:52:21Z</time>
      </trkpt>
      <trkpt lat="42.94206" lon="2.18412">
        <ele>283</ele>
        <time>2016-07-08T00:54:21Z</time>
      </trkpt>
      <trkpt lat="42.94211" lon="2.18399">
        <ele>283</ele>
        <time>2016-07-08T00:56:21Z</time>
      </trkpt>
      <trkpt lat="42.94214" lon="2.18389">
        <ele>283</ele>
        <time>2016-07-08T00:58:21Z</time>
      </trkpt>
      <trkpt lat="42.94217" lon="2.18375">
        <ele>282</ele>
        <time>2016-07-08T01:00:21Z</time>
      </trkpt>
      <trkpt lat="42.94221" lon="2.18347">
        <ele>280</ele>
        <time>2016-07-08T01:02:21Z</time>
      </trkpt>
      <trkpt lat="42.94225" lon="2.18326">
        <ele>279</ele>
        <time>2016-07-08T01:04:21Z</time>
      </trkpt>
      <trkpt lat="42.94226" lon="2.1832">
        <ele>279</ele>
        <time>2016-07-08T01:06:21Z</time>
      </trkpt>
      <trkpt lat="42.94228" lon="2.18305">
        <ele>279</ele>
        <time>2016-07-08T01:08:21Z</time>
      </trkpt>
      <trkpt lat="42.94236" lon="2.18263">
        <ele>278</ele>
        <time>2016-07-08T01:10:21Z</time>
      </trkpt>
      <trkpt lat="42.94246" lon="2.18213">
        <ele>278</ele>
        <time>2016-07-08T01:12:21Z</time>
      </trkpt>
      <trkpt lat="42.94261" lon="2.18142">
        <ele>280</ele>
        <time>2016-07-08T01:14:21Z</time>
      </trkpt>
      <trkpt lat="42.94278" lon="2.18061">
        <ele>281</ele>
        <time>2016-07-08T01:16:21Z</time>
      </trkpt>
      <trkpt lat="42.94287" lon="2.18016">
        <ele>281</ele>
        <time>2016-07-08T01:18:21Z</time>
      </trkpt>
      <trkpt lat="42.94293" lon="2.17995">
        <ele>281</ele>
        <time>2016-07-08T01:20:21Z</time>
      </trkpt>
      <trkpt lat="42.94295" lon="2.17983">
        <ele>281</ele>
        <time>2016-07-08T01:22:21Z</time>
      </trkpt>
      <trkpt lat="42.94295" lon="2.17975">
        <ele>281</ele>
        <time>2016-07-08T01:24:21Z</time>
      </trkpt>
      <trkpt lat="42.94296" lon="2.1797">
        <ele>281</ele>
        <time>2016-07-08T01:26:21Z</time>
      </trkpt>
      <trkpt lat="42.94296" lon="2.17961">
        <ele>282</ele>
        <time>2016-07-08T01:28:21Z</time>
      </trkpt>
      <trkpt lat="42.94295" lon="2.17937">
        <ele>282</ele>
        <time>2016-07-08T01:30:21Z</time>
      </trkpt>
      <trkpt lat="42.94293" lon="2.17915">
        <ele>282</ele>
        <time>2016-07-08T01:32:21Z</time>
      </trkpt>
      <trkpt lat="42.94287" lon="2.1784">
        <ele>281</ele>
        <time>2016-07-08T01:34:21Z</time>
      </trkpt>
      <trkpt lat="42.94286" lon="2.17823">
        <ele>281</ele>
        <time>2016-07-08T01:36:21Z</time>
      </trkpt>
      <trkpt lat="42.9428" lon="2.17752">
        <ele>281</ele>
        <time>2016-07-08T01:38:21Z</time>
      </trkpt>
      <trkpt lat="42.94278" lon="2.17719">
        <ele>281</ele>
        <time>2016-07-08T01:40:21Z</time>
      </trkpt>
      <trkpt lat="42.94273" lon="2.17656">
        <ele>283</ele>
        <time>2016-07-08T01:42:21Z</time>
      </trkpt>
      <trkpt lat="42.94271" lon="2.17621">
        <ele>284</ele>
        <time>2016-07-08T01:44:21Z</time>
      </trkpt>
      <trkpt lat="42.94266" lon="2.17561">
        <ele>285</ele>
        <time>2016-07-08T01:46:21Z</time>
      </trkpt>
      <trkpt lat="42.94258" lon="2.17449">
        <ele>285</ele>
        <time>2016-07-08T01:48:21Z</time>
      </trkpt>
      <trkpt lat="42.94256" lon="2.17428">
        <ele>285</ele>
        <time>2016-07-08T01:50:21Z</time>
      </trkpt>
      <trkpt lat="42.94254" lon="2.17403">
        <ele>286</ele>
        <time>2016-07-08T01:52:21Z</time>
      </trkpt>
      <trkpt lat="42.94252" lon="2.17383">
        <ele>287</ele>
        <time>2016-07-08T01:54:21Z</time>
      </trkpt>
      <trkpt lat="42.94246" lon="2.17325">
        <ele>289</ele>
        <time>2016-07-08T01:56:21Z</time>
      </trkpt>
      <trkpt lat="42.94243" lon="2.17299">
        <ele>289</ele>
        <time>2016-07-08T01:58:21Z</time>
      </trkpt>
      <trkpt lat="42.94241" lon="2.17276">
        <ele>289</ele>
        <time>2016-07-08T02:00:21Z</time>
      </trkpt>
      <trkpt lat="42.9424" lon="2.17258">
        <ele>290</ele>
        <time>2016-07-08T02:02:21Z</time>
      </trkpt>
      <trkpt lat="42.9424" lon="2.17235">
        <ele>290</ele>
        <time>2016-07-08T02:04:21Z</time>
      </trkpt>
      <trkpt lat="42.9424" lon="2.17211">
        <ele>290</ele>
        <time>2016-07-08T02:06:21Z</time>
      </trkpt>
      <trkpt lat="42.94242" lon="2.17168">
        <ele>291</ele>
        <time>2016-07-08T02:08:21Z</time>
      </trkpt>
      <trkpt lat="42.94246" lon="2.1711">
        <ele>291</ele>
        <time>2016-07-08T02:10:21Z</time>
      </trkpt>
      <trkpt lat="42.94247" lon="2.17086">
        <ele>291</ele>
        <time>2016-07-08T02:12:21Z</time>
      </trkpt>
      <trkpt lat="42.94246" lon="2.1707">
        <ele>291</ele>
        <time>2016-07-08T02:14:21Z</time>
      </trkpt>
      <trkpt lat="42.94247" lon="2.17043">
        <ele>291</ele>
        <time>2016-07-08T02:16:21Z</time>
      </trkpt>
      <trkpt lat="42.94246" lon="2.17003">
        <ele>291</ele>
        <time>2016-07-08T02:18:21Z</time>
      </trkpt>
      <trkpt lat="42.94244" lon="2.16952">
        <ele>293</ele>
        <time>2016-07-08T02:20:21Z</time>
      </trkpt>
      <trkpt lat="42.94243" lon="2.1695">
        <ele>293</ele>
        <time>2016-07-08T02:22:21Z</time>
      </trkpt>
      <trkpt lat="42.94243" lon="2.16943">
        <ele>293</ele>
        <time>2016-07-08T02:24:21Z</time>
      </trkpt>
      <trkpt lat="42.94242" lon="2.16887">
        <ele>293</ele>
        <time>2016-07-08T02:26:21Z</time>
      </trkpt>
      <trkpt lat="42.94239" lon="2.1681">
        <ele>293</ele>
        <time>2016-07-08T02:28:21Z</time>
      </trkpt>
      <trkpt lat="42.94236" lon="2.16735">
        <ele>294</ele>
        <time>2016-07-08T02:30:21Z</time>
      </trkpt>
      <trkpt lat="42.94234" lon="2.16662">
        <ele>297</ele>
        <time>2016-07-08T02:32:21Z</time>
      </trkpt>
      <trkpt lat="42.94232" lon="2.16623">
        <ele>297</ele>
        <time>2016-07-08T02:34:21Z</time>
      </trkpt>
      <trkpt lat="42.9423" lon="2.16564">
        <ele>297</ele>
        <time>2016-07-08T02:36:21Z</time>
      </trkpt>
      <trkpt lat="42.94228" lon="2.16508">
        <ele>296</ele>
        <time>2016-07-08T02:38:21Z</time>
      </trkpt>
      <trkpt lat="42.94226" lon="2.16461">
        <ele>296</ele>
        <time>2016-07-08T02:40:21Z</time>
      </trkpt>
      <trkpt lat="42.94226" lon="2.16454">
        <ele>297</ele>
        <time>2016-07-08T02:42:21Z</time>
      </trkpt>
      <trkpt lat="42.94217" lon="2.16372">
        <ele>298</ele>
        <time>2016-07-08T02:44:21Z</time>
      </trkpt>
      <trkpt lat="42.94215" lon="2.16358">
        <ele>298</ele>
        <time>2016-07-08T02:46:21Z</time>
      </trkpt>
      <trkpt lat="42.94213" lon="2.16341">
        <ele>298</ele>
        <time>2016-07-08T02:48:21Z</time>
      </trkpt>
      <trkpt lat="42.94211" lon="2.16318">
        <ele>299</ele>
        <time>2016-07-08T02:50:21Z</time>
      </trkpt>
      <trkpt lat="42.94209" lon="2.16292">
        <ele>300</ele>
        <time>2016-07-08T02:52:21Z</time>
      </trkpt>
      <trkpt lat="42.94207" lon="2.16251">
        <ele>302</ele>
        <time>2016-07-08T02:54:21Z</time>
      </trkpt>
      <trkpt lat="42.94203" lon="2.16201">
        <ele>301</ele>
        <time>2016-07-08T02:56:21Z</time>
      </trkpt>
      <trkpt lat="42.94199" lon="2.16149">
        <ele>301</ele>
        <time>2016-07-08T02:58:21Z</time>
      </trkpt>
      <trkpt lat="42.94192" lon="2.16077">
        <ele>301</ele>
        <time>2016-07-08T03:00:21Z</time>
      </trkpt>
      <trkpt lat="42.94186" lon="2.16015">
        <ele>304</ele>
        <time>2016-07-08T03:02:21Z</time>
      </trkpt>
      <trkpt lat="42.94185" lon="2.16003">
        <ele>304</ele>
        <time>2016-07-08T03:04:21Z</time>
      </trkpt>
      <trkpt lat="42.94183" lon="2.15992">
        <ele>305</ele>
        <time>2016-07-08T03:06:21Z</time>
      </trkpt>
      <trkpt lat="42.94181" lon="2.15979">
        <ele>306</ele>
        <time>2016-07-08T03:08:21Z</time>
      </trkpt>
      <trkpt lat="42.94178" lon="2.15967">
        <ele>306</ele>
        <time>2016-07-08T03:10:21Z</time>
      </trkpt>
      <trkpt lat="42.94173" lon="2.15952">
        <ele>306</ele>
        <time>2016-07-08T03:12:21Z</time>
      </trkpt>
      <trkpt lat="42.9416" lon="2.15914">
        <ele>307</ele>
        <time>2016-07-08T03:14:21Z</time>
      </trkpt>
      <trkpt lat="42.94152" lon="2.15891">
        <ele>308</ele>
        <time>2016-07-08T03:16:21Z</time>
      </trkpt>
      <trkpt lat="42.94149" lon="2.15882">
        <ele>309</ele>
        <time>2016-07-08T03:18:21Z</time>
      </trkpt>
      <trkpt lat="42.94143" lon="2.15869">
        <ele>309</ele>
        <time>2016-07-08T03:20:21Z</time>
      </trkpt>
      <trkpt lat="42.94136" lon="2.15851">
        <ele>309</ele>
        <time>2016-07-08T03:22:21Z</time>
      </trkpt>
      <trkpt lat="42.94133" lon="2.15844">
        <ele>309</ele>
        <time>2016-07-08T03:24:21Z</time>
      </trkpt>
      <trkpt lat="42.94126" lon="2.15832">
        <ele>308</ele>
        <time>2016-07-08T03:26:21Z</time>
      </trkpt>
      <trkpt lat="42.94121" lon="2.15826">
        <ele>307</ele>
        <time>2016-07-08T03:28:21Z</time>
      </trkpt>
      <trkpt lat="42.94115" lon="2.15819">
        <ele>305</ele>
        <time>2016-07-08T03:30:21Z</time>
      </trkpt>
      <trkpt lat="42.94095" lon="2.15796">
        <ele>302</ele>
        <time>2016-07-08T03:32:21Z</time>
      </trkpt>
      <trkpt lat="42.94065" lon="2.15764">
        <ele>299</ele>
        <time>2016-07-08T03:34:21Z</time>
      </trkpt>
      <trkpt lat="42.9406" lon="2.15757">
        <ele>299</ele>
        <time>2016-07-08T03:36:21Z</time>
      </trkpt>
      <trkpt lat="42.94056" lon="2.15751">
        <ele>299</ele>
        <time>2016-07-08T03:38:21Z</time>
      </trkpt>
      <trkpt lat="42.94053" lon="2.15745">
        <ele>299</ele>
        <time>2016-07-08T03:40:21Z</time>
      </trkpt>
      <trkpt lat="42.94051" lon="2.1574">
        <ele>299</ele>
        <time>2016-07-08T03:42:21Z</time>
      </trkpt>
      <trkpt lat="42.94046" lon="2.15725">
        <ele>300</ele>
        <time>2016-07-08T03:44:21Z</time>
      </trkpt>
      <trkpt lat="42.93944" lon="2.15324">
        <ele>309</ele>
        <time>2016-07-08T03:46:21Z</time>
      </trkpt>
      <trkpt lat="42.93929" lon="2.15272">
        <ele>306</ele>
        <time>2016-07-08T03:48:21Z</time>
      </trkpt>
      <trkpt lat="42.93927" lon="2.15258">
        <ele>306</ele>
        <time>2016-07-08T03:50:21Z</time>
      </trkpt>
      <trkpt lat="42.93926" lon="2.1525">
        <ele>306</ele>
        <time>2016-07-08T03:52:21Z</time>
      </trkpt>
      <trkpt lat="42.93926" lon="2.15243">
        <ele>306</ele>
        <time>2016-07-08T03:54:21Z</time>
      </trkpt>
      <trkpt lat="42.93925" lon="2.15222">
        <ele>306</ele>
        <time>2016-07-08T03:56:21Z</time>
      </trkpt>
      <trkpt lat="42.93924" lon="2.15174">
        <ele>307</ele>
        <time>2016-07-08T03:58:21Z</time>
      </trkpt>
      <trkpt lat="42.93923" lon="2.15104">
        <ele>310</ele>
        <time>2016-07-08T04:00:21Z</time>
      </trkpt>
      <trkpt lat="42.93921" lon="2.15046">
        <ele>313</ele>
        <time>2016-07-08T04:02:21Z</time>
      </trkpt>
      <trkpt lat="42.9392" lon="2.15018">
        <ele>314</ele>
        <time>2016-07-08T04:04:21Z</time>
      </trkpt>
      <trkpt lat="42.93918" lon="2.15002">
        <ele>314</ele>
        <time>2016-07-08T04:06:21Z</time>
      </trkpt>
      <trkpt lat="42.93916" lon="2.14988">
        <ele>314</ele>
        <time>2016-07-08T04:08:21Z</time>
      </trkpt>
      <trkpt lat="42.93914" lon="2.14977">
        <ele>314</ele>
        <time>2016-07-08T04:10:21Z</time>
      </trkpt>
      <trkpt lat="42.93912" lon="2.14971">
        <ele>313</ele>
        <time>2016-07-08T04:12:21Z</time>
      </trkpt>
      <trkpt lat="42.93909" lon="2.14962">
        <ele>313</ele>
        <time>2016-07-08T04:14:21Z</time>
      </trkpt>
      <trkpt lat="42.93905" lon="2.14951">
        <ele>313</ele>
        <time>2016-07-08T04:16:21Z</time>
      </trkpt>
      <trkpt lat="42.93899" lon="2.14934">
        <ele>313</ele>
        <time>2016-07-08T04:18:21Z</time>
      </trkpt>
      <trkpt lat="42.93874" lon="2.1487">
        <ele>312</ele>
        <time>2016-07-08T04:20:21Z</time>
      </trkpt>
      <trkpt lat="42.93866" lon="2.14852">
        <ele>311</ele>
        <time>2016-07-08T04:22:21Z</time>
      </trkpt>
      <trkpt lat="42.93859" lon="2.14838">
        <ele>311</ele>
        <time>2016-07-08T04:24:21Z</time>
      </trkpt>
      <trkpt lat="42.93853" lon="2.14826">
        <ele>311</ele>
        <time>2016-07-08T04:26:21Z</time>
      </trkpt>
      <trkpt lat="42.93847" lon="2.14816">
        <ele>311</ele>
        <time>2016-07-08T04:28:21Z</time>
      </trkpt>
      <trkpt lat="42.93829" lon="2.1478">
        <ele>312</ele>
        <time>2016-07-08T04:30:21Z</time>
      </trkpt>
      <trkpt lat="42.93808" lon="2.14739">
        <ele>312</ele>
        <time>2016-07-08T04:32:21Z</time>
      </trkpt>
      <trkpt lat="42.93791" lon="2.14708">
        <ele>313</ele>
        <time>2016-07-08T04:34:21Z</time>
      </trkpt>
      <trkpt lat="42.93749" lon="2.14627">
        <ele>312</ele>
        <time>2016-07-08T04:36:21Z</time>
      </trkpt>
      <trkpt lat="42.93737" lon="2.14605">
        <ele>313</ele>
        <time>2016-07-08T04:38:21Z</time>
      </trkpt>
      <trkpt lat="42.93731" lon="2.1459">
        <ele>314</ele>
        <time>2016-07-08T04:40:21Z</time>
      </trkpt>
      <trkpt lat="42.93729" lon="2.14579">
        <ele>314</ele>
        <time>2016-07-08T04:42:21Z</time>
      </trkpt>
      <trkpt lat="42.93725" lon="2.14555">
        <ele>315</ele>
        <time>2016-07-08T04:44:21Z</time>
      </trkpt>
      <trkpt lat="42.93724" lon="2.14527">
        <ele>316</ele>
        <time>2016-07-08T04:46:21Z</time>
      </trkpt>
      <trkpt lat="42.9372" lon="2.14488">
        <ele>318</ele>
        <time>2016-07-08T04:48:21Z</time>
      </trkpt>
      <trkpt lat="42.93712" lon="2.1442">
        <ele>319</ele>
        <time>2016-07-08T04:50:21Z</time>
      </trkpt>
      <trkpt lat="42.93711" lon="2.14407">
        <ele>319</ele>
        <time>2016-07-08T04:52:21Z</time>
      </trkpt>
      <trkpt lat="42.9371" lon="2.14395">
        <ele>320</ele>
        <time>2016-07-08T04:54:21Z</time>
      </trkpt>
      <trkpt lat="42.9371" lon="2.14378">
        <ele>320</ele>
        <time>2016-07-08T04:56:21Z</time>
      </trkpt>
      <trkpt lat="42.93711" lon="2.14365">
        <ele>320</ele>
        <time>2016-07-08T04:58:21Z</time>
      </trkpt>
      <trkpt lat="42.93712" lon="2.14348">
        <ele>320</ele>
        <time>2016-07-08T05:00:21Z</time>
      </trkpt>
      <trkpt lat="42.93714" lon="2.14333">
        <ele>321</ele>
        <time>2016-07-08T05:02:21Z</time>
      </trkpt>
      <trkpt lat="42.93716" lon="2.14321">
        <ele>321</ele>
        <time>2016-07-08T05:04:21Z</time>
      </trkpt>
      <trkpt lat="42.93716" lon="2.14316">
        <ele>321</ele>
        <time>2016-07-08T05:06:21Z</time>
      </trkpt>
      <trkpt lat="42.93717" lon="2.1431">
        <ele>321</ele>
        <time>2016-07-08T05:08:21Z</time>
      </trkpt>
      <trkpt lat="42.93718" lon="2.14297">
        <ele>320</ele>
        <time>2016-07-08T05:10:21Z</time>
      </trkpt>
      <trkpt lat="42.93717" lon="2.14282">
        <ele>320</ele>
        <time>2016-07-08T05:12:21Z</time>
      </trkpt>
      <trkpt lat="42.93714" lon="2.1424">
        <ele>318</ele>
        <time>2016-07-08T05:14:21Z</time>
      </trkpt>
      <trkpt lat="42.93709" lon="2.14195">
        <ele>317</ele>
        <time>2016-07-08T05:16:21Z</time>
      </trkpt>
      <trkpt lat="42.93707" lon="2.14174">
        <ele>316</ele>
        <time>2016-07-08T05:18:21Z</time>
      </trkpt>
      <trkpt lat="42.93706" lon="2.14163">
        <ele>316</ele>
        <time>2016-07-08T05:20:21Z</time>
      </trkpt>
      <trkpt lat="42.93704" lon="2.14153">
        <ele>316</ele>
        <time>2016-07-08T05:22:21Z</time>
      </trkpt>
      <trkpt lat="42.93697" lon="2.14087">
        <ele>318</ele>
        <time>2016-07-08T05:24:21Z</time>
      </trkpt>
      <trkpt lat="42.93692" lon="2.14034">
        <ele>320</ele>
        <time>2016-07-08T05:26:21Z</time>
      </trkpt>
      <trkpt lat="42.93692" lon="2.13999">
        <ele>322</ele>
        <time>2016-07-08T05:28:21Z</time>
      </trkpt>
      <trkpt lat="42.93692" lon="2.13999">
        <ele>322</ele>
        <time>2016-07-08T05:30:21Z</time>
      </trkpt>
      <trkpt lat="42.9369" lon="2.13997">
        <ele>321</ele>
        <time>2016-07-08T05:32:21Z</time>
      </trkpt>
      <trkpt lat="42.93689" lon="2.13996">
        <ele>321</ele>
        <time>2016-07-08T05:34:21Z</time>
      </trkpt>
      <trkpt lat="42.93687" lon="2.13995">
        <ele>321</ele>
        <time>2016-07-08T05:36:21Z</time>
      </trkpt>
      <trkpt lat="42.93687" lon="2.13992">
        <ele>321</ele>
        <time>2016-07-08T05:38:21Z</time>
      </trkpt>
      <trkpt lat="42.93686" lon="2.13988">
        <ele>321</ele>
        <time>2016-07-08T05:40:21Z</time>
      </trkpt>
      <trkpt lat="42.93686" lon="2.13949">
        <ele>322</ele>
        <time>2016-07-08T05:42:21Z</time>
      </trkpt>
      <trkpt lat="42.93686" lon="2.13929">
        <ele>322</ele>
        <time>2016-07-08T05:44:21Z</time>
      </trkpt>
      <trkpt lat="42.93682" lon="2.13874">
        <ele>320</ele>
        <time>2016-07-08T05:46:21Z</time>
      </trkpt>
      <trkpt lat="42.93663" lon="2.13525">
        <ele>321</ele>
        <time>2016-07-08T05:48:21Z</time>
      </trkpt>
      <trkpt lat="42.9366" lon="2.13488">
        <ele>322</ele>
        <time>2016-07-08T05:50:21Z</time>
      </trkpt>
      <trkpt lat="42.93658" lon="2.13452">
        <ele>323</ele>
        <time>2016-07-08T05:52:21Z</time>
      </trkpt>
      <trkpt lat="42.93657" lon="2.1343">
        <ele>324</ele>
        <time>2016-07-08T05:54:21Z</time>
      </trkpt>
      <trkpt lat="42.93656" lon="2.13404">
        <ele>325</ele>
        <time>2016-07-08T05:56:21Z</time>
      </trkpt>
      <trkpt lat="42.93654" lon="2.13366">
        <ele>326</ele>
        <time>2016-07-08T05:58:21Z</time>
      </trkpt>
      <trkpt lat="42.93652" lon="2.13339">
        <ele>328</ele>
        <time>2016-07-08T06:00:21Z</time>
      </trkpt>
      <trkpt lat="42.93649" lon="2.13325">
        <ele>328</ele>
        <time>2016-07-08T06:02:21Z</time>
      </trkpt>
      <trkpt lat="42.93643" lon="2.13305">
        <ele>328</ele>
        <time>2016-07-08T06:04:21Z</time>
      </trkpt>
      <trkpt lat="42.93633" lon="2.13273">
        <ele>328</ele>
        <time>2016-07-08T06:06:21Z</time>
      </trkpt>
      <trkpt lat="42.9363" lon="2.13261">
        <ele>328</ele>
        <time>2016-07-08T06:08:21Z</time>
      </trkpt>
      <trkpt lat="42.93629" lon="2.13247">
        <ele>329</ele>
        <time>2016-07-08T06:10:21Z</time>
      </trkpt>
      <trkpt lat="42.93627" lon="2.1324">
        <ele>329</ele>
        <time>2016-07-08T06:12:21Z</time>
      </trkpt>
      <trkpt lat="42.93623" lon="2.13232">
        <ele>328</ele>
        <time>2016-07-08T06:14:21Z</time>
      </trkpt>
      <trkpt lat="42.93616" lon="2.13222">
        <ele>328</ele>
        <time>2016-07-08T06:16:21Z</time>
      </trkpt>
      <trkpt lat="42.93607" lon="2.13205">
        <ele>327</ele>
        <time>2016-07-08T06:18:21Z</time>
      </trkpt>
      <trkpt lat="42.93602" lon="2.13182">
        <ele>327</ele>
        <time>2016-07-08T06:20:21Z</time>
      </trkpt>
      <trkpt lat="42.93596" lon="2.1316">
        <ele>326</ele>
        <time>2016-07-08T06:22:21Z</time>
      </trkpt>
      <trkpt lat="42.93598" lon="2.13154">
        <ele>327</ele>
        <time>2016-07-08T06:24:21Z</time>
      </trkpt>
      <trkpt lat="42.936" lon="2.13144">
        <ele>328</ele>
        <time>2016-07-08T06:26:21Z</time>
      </trkpt>
      <trkpt lat="42.93601" lon="2.13138">
        <ele>328</ele>
        <time>2016-07-08T06:28:21Z</time>
      </trkpt>
      <trkpt lat="42.936" lon="2.13122">
        <ele>328</ele>
        <time>2016-07-08T06:30:21Z</time>
      </trkpt>
      <trkpt lat="42.93599" lon="2.13111">
        <ele>328</ele>
        <time>2016-07-08T06:32:21Z</time>
      </trkpt>
      <trkpt lat="42.93597" lon="2.13089">
        <ele>328</ele>
        <time>2016-07-08T06:34:21Z</time>
      </trkpt>
      <trkpt lat="42.93594" lon="2.13054">
        <ele>329</ele>
        <time>2016-07-08T06:36:21Z</time>
      </trkpt>
      <trkpt lat="42.9359" lon="2.13004">
        <ele>329</ele>
        <time>2016-07-08T06:38:21Z</time>
      </trkpt>
      <trkpt lat="42.93586" lon="2.12959">
        <ele>331</ele>
        <time>2016-07-08T06:40:21Z</time>
      </trkpt>
      <trkpt lat="42.93581" lon="2.12936">
        <ele>331</ele>
        <time>2016-07-08T06:42:21Z</time>
      </trkpt>
      <trkpt lat="42.93577" lon="2.12915">
        <ele>332</ele>
        <time>2016-07-08T06:44:21Z</time>
      </trkpt>
      <trkpt lat="42.93572" lon="2.12893">
        <ele>333</ele>
        <time>2016-07-08T06:46:21Z</time>
      </trkpt>
      <trkpt lat="42.93563" lon="2.1286">
        <ele>335</ele>
        <time>2016-07-08T06:48:21Z</time>
      </trkpt>
      <trkpt lat="42.93553" lon="2.12829">
        <ele>336</ele>
        <time>2016-07-08T06:50:21Z</time>
      </trkpt>
      <trkpt lat="42.93551" lon="2.12803">
        <ele>337</ele>
        <time>2016-07-08T06:52:21Z</time>
      </trkpt>
      <trkpt lat="42.93547" lon="2.12748">
        <ele>340</ele>
        <time>2016-07-08T06:54:21Z</time>
      </trkpt>
      <trkpt lat="42.93547" lon="2.12733">
        <ele>340</ele>
        <time>2016-07-08T06:56:21Z</time>
      </trkpt>
      <trkpt lat="42.93547" lon="2.12724">
        <ele>340</ele>
        <time>2016-07-08T06:58:21Z</time>
      </trkpt>
      <trkpt lat="42.93548" lon="2.12702">
        <ele>341</ele>
        <time>2016-07-08T07:00:21Z</time>
      </trkpt>
      <trkpt lat="42.93549" lon="2.12677">
        <ele>342</ele>
        <time>2016-07-08T07:02:21Z</time>
      </trkpt>
      <trkpt lat="42.93551" lon="2.12648">
        <ele>342</ele>
        <time>2016-07-08T07:04:21Z</time>
      </trkpt>
      <trkpt lat="42.93554" lon="2.12615">
        <ele>343</ele>
        <time>2016-07-08T07:06:21Z</time>
      </trkpt>
      <trkpt lat="42.9356" lon="2.12575">
        <ele>344</ele>
        <time>2016-07-08T07:08:21Z</time>
      </trkpt>
      <trkpt lat="42.9356" lon="2.12561">
        <ele>344</ele>
        <time>2016-07-08T07:10:21Z</time>
      </trkpt>
      <trkpt lat="42.93559" lon="2.12555">
        <ele>344</ele>
        <time>2016-07-08T07:12:21Z</time>
      </trkpt>
      <trkpt lat="42.93558" lon="2.12546">
        <ele>345</ele>
        <time>2016-07-08T07:14:21Z</time>
      </trkpt>
      <trkpt lat="42.93557" lon="2.12537">
        <ele>345</ele>
        <time>2016-07-08T07:16:21Z</time>
      </trkpt>
      <trkpt lat="42.93553" lon="2.12518">
        <ele>345</ele>
        <time>2016-07-08T07:18:21Z</time>
      </trkpt>
      <trkpt lat="42.93546" lon="2.1249">
        <ele>346</ele>
        <time>2016-07-08T07:20:21Z</time>
      </trkpt>
      <trkpt lat="42.93533" lon="2.12433">
        <ele>346</ele>
        <time>2016-07-08T07:22:21Z</time>
      </trkpt>
      <trkpt lat="42.93531" lon="2.12421">
        <ele>346</ele>
        <time>2016-07-08T07:24:21Z</time>
      </trkpt>
      <trkpt lat="42.93532" lon="2.12418">
        <ele>346</ele>
        <time>2016-07-08T07:26:21Z</time>
      </trkpt>
      <trkpt lat="42.93532" lon="2.12413">
        <ele>346</ele>
        <time>2016-07-08T07:28:21Z</time>
      </trkpt>
      <trkpt lat="42.93532" lon="2.12406">
        <ele>347</ele>
        <time>2016-07-08T07:30:21Z</time>
      </trkpt>
      <trkpt lat="42.93533" lon="2.12327">
        <ele>350</ele>
        <time>2016-07-08T07:32:21Z</time>
      </trkpt>
      <trkpt lat="42.93535" lon="2.12311">
        <ele>351</ele>
        <time>2016-07-08T07:34:21Z</time>
      </trkpt>
      <trkpt lat="42.93536" lon="2.12301">
        <ele>352</ele>
        <time>2016-07-08T07:36:21Z</time>
      </trkpt>
      <trkpt lat="42.93543" lon="2.12271">
        <ele>353</ele>
        <time>2016-07-08T07:38:21Z</time>
      </trkpt>
      <trkpt lat="42.93554" lon="2.12238">
        <ele>355</ele>
        <time>2016-07-08T07:40:21Z</time>
      </trkpt>
      <trkpt lat="42.93556" lon="2.1223">
        <ele>356</ele>
        <time>2016-07-08T07:42:21Z</time>
      </trkpt>
      <trkpt lat="42.93559" lon="2.12224">
        <ele>356</ele>
        <time>2016-07-08T07:44:21Z</time>
      </trkpt>
      <trkpt lat="42.93564" lon="2.12213">
        <ele>357</ele>
        <time>2016-07-08T07:46:21Z</time>
      </trkpt>
      <trkpt lat="42.93567" lon="2.12207">
        <ele>357</ele>
        <time>2016-07-08T07:48:21Z</time>
      </trkpt>
      <trkpt lat="42.93571" lon="2.12195">
        <ele>358</ele>
        <time>2016-07-08T07:50:21Z</time>
      </trkpt>
      <trkpt lat="42.93579" lon="2.12162">
        <ele>359</ele>
        <time>2016-07-08T07:52:21Z</time>
      </trkpt>
      <trkpt lat="42.93586" lon="2.12125">
        <ele>361</ele>
        <time>2016-07-08T07:54:21Z</time>
      </trkpt>
      <trkpt lat="42.93588" lon="2.12111">
        <ele>362</ele>
        <time>2016-07-08T07:56:21Z</time>
      </trkpt>
      <trkpt lat="42.93589" lon="2.12097">
        <ele>363</ele>
        <time>2016-07-08T07:58:21Z</time>
      </trkpt>
      <trkpt lat="42.93588" lon="2.12074">
        <ele>364</ele>
        <time>2016-07-08T08:00:21Z</time>
      </trkpt>
      <trkpt lat="42.93587" lon="2.12064">
        <ele>365</ele>
        <time>2016-07-08T08:02:21Z</time>
      </trkpt>
      <trkpt lat="42.93578" lon="2.12004">
        <ele>369</ele>
        <time>2016-07-08T08:04:21Z</time>
      </trkpt>
      <trkpt lat="42.9357" lon="2.1194">
        <ele>373</ele>
        <time>2016-07-08T08:06:21Z</time>
      </trkpt>
      <trkpt lat="42.93567" lon="2.11923">
        <ele>375</ele>
        <time>2016-07-08T08:08:21Z</time>
      </trkpt>
      <trkpt lat="42.93565" lon="2.11917">
        <ele>375</ele>
        <time>2016-07-08T08:10:21Z</time>
      </trkpt>
      <trkpt lat="42.93562" lon="2.1191">
        <ele>375</ele>
        <time>2016-07-08T08:12:21Z</time>
      </trkpt>
      <trkpt lat="42.93557" lon="2.119">
        <ele>376</ele>
        <time>2016-07-08T08:14:21Z</time>
      </trkpt>
      <trkpt lat="42.93553" lon="2.11887">
        <ele>377</ele>
        <time>2016-07-08T08:16:21Z</time>
      </trkpt>
      <trkpt lat="42.93552" lon="2.11881">
        <ele>377</ele>
        <time>2016-07-08T08:18:21Z</time>
      </trkpt>
      <trkpt lat="42.93551" lon="2.11872">
        <ele>378</ele>
        <time>2016-07-08T08:20:21Z</time>
      </trkpt>
      <trkpt lat="42.93549" lon="2.11857">
        <ele>378</ele>
        <time>2016-07-08T08:22:21Z</time>
      </trkpt>
      <trkpt lat="42.9355" lon="2.11834">
        <ele>380</ele>
        <time>2016-07-08T08:24:21Z</time>
      </trkpt>
      <trkpt lat="42.93552" lon="2.1182">
        <ele>382</ele>
        <time>2016-07-08T08:26:21Z</time>
      </trkpt>
      <trkpt lat="42.93554" lon="2.11813">
        <ele>382</ele>
        <time>2016-07-08T08:28:21Z</time>
      </trkpt>
      <trkpt lat="42.93555" lon="2.11805">
        <ele>383</ele>
        <time>2016-07-08T08:30:21Z</time>
      </trkpt>
      <trkpt lat="42.93555" lon="2.11795">
        <ele>384</ele>
        <time>2016-07-08T08:32:21Z</time>
      </trkpt>
      <trkpt lat="42.93554" lon="2.11779">
        <ele>385</ele>
        <time>2016-07-08T08:34:21Z</time>
      </trkpt>
      <trkpt lat="42.93553" lon="2.11762">
        <ele>386</ele>
        <time>2016-07-08T08:36:21Z</time>
      </trkpt>
      <trkpt lat="42.93553" lon="2.11749">
        <ele>387</ele>
        <time>2016-07-08T08:38:21Z</time>
      </trkpt>
      <trkpt lat="42.93554" lon="2.11745">
        <ele>388</ele>
        <time>2016-07-08T08:40:21Z</time>
      </trkpt>
      <trkpt lat="42.93555" lon="2.11744">
        <ele>388</ele>
        <time>2016-07-08T08:42:21Z</time>
      </trkpt>
      <trkpt lat="42.93557" lon="2.11743">
        <ele>388</ele>
        <time>2016-07-08T08:44:21Z</time>
      </trkpt>
      <trkpt lat="42.93557" lon="2.11743">
        <ele>388</ele>
        <time>2016-07-08T08:46:21Z</time>
      </trkpt>
      <trkpt lat="42.93551" lon="2.11685">
        <ele>389</ele>
        <time>2016-07-08T08:48:21Z</time>
      </trkpt>
      <trkpt lat="42.93551" lon="2.11667">
        <ele>389</ele>
        <time>2016-07-08T08:50:21Z</time>
      </trkpt>
      <trkpt lat="42.93551" lon="2.11654">
        <ele>390</ele>
        <time>2016-07-08T08:52:21Z</time>
      </trkpt>
      <trkpt lat="42.93552" lon="2.11638">
        <ele>391</ele>
        <time>2016-07-08T08:54:21Z</time>
      </trkpt>
      <trkpt lat="42.93554" lon="2.11618">
        <ele>392</ele>
        <time>2016-07-08T08:56:21Z</time>
      </trkpt>
      <trkpt lat="42.93556" lon="2.11604">
        <ele>393</ele>
        <time>2016-07-08T08:58:21Z</time>
      </trkpt>
      <trkpt lat="42.93558" lon="2.11586">
        <ele>394</ele>
        <time>2016-07-08T09:00:21Z</time>
      </trkpt>
      <trkpt lat="42.93558" lon="2.11548">
        <ele>396</ele>
        <time>2016-07-08T09:02:21Z</time>
      </trkpt>
      <trkpt lat="42.93557" lon="2.11532">
        <ele>396</ele>
        <time>2016-07-08T09:04:21Z</time>
      </trkpt>
      <trkpt lat="42.93555" lon="2.11521">
        <ele>396</ele>
        <time>2016-07-08T09:06:21Z</time>
      </trkpt>
      <trkpt lat="42.93553" lon="2.11506">
        <ele>397</ele>
        <time>2016-07-08T09:08:21Z</time>
      </trkpt>
      <trkpt lat="42.93551" lon="2.11494">
        <ele>398</ele>
        <time>2016-07-08T09:10:21Z</time>
      </trkpt>
      <trkpt lat="42.9355" lon="2.11483">
        <ele>398</ele>
        <time>2016-07-08T09:12:21Z</time>
      </trkpt>
      <trkpt lat="42.93549" lon="2.11468">
        <ele>399</ele>
        <time>2016-07-08T09:14:21Z</time>
      </trkpt>
      <trkpt lat="42.93549" lon="2.11465">
        <ele>399</ele>
        <time>2016-07-08T09:16:21Z</time>
      </trkpt>
      <trkpt lat="42.9355" lon="2.11458">
        <ele>399</ele>
        <time>2016-07-08T09:18:21Z</time>
      </trkpt>
      <trkpt lat="42.93551" lon="2.11452">
        <ele>400</ele>
        <time>2016-07-08T09:20:21Z</time>
      </trkpt>
      <trkpt lat="42.93551" lon="2.11447">
        <ele>400</ele>
        <time>2016-07-08T09:22:21Z</time>
      </trkpt>
      <trkpt lat="42.93551" lon="2.11443">
        <ele>400</ele>
        <time>2016-07-08T09:24:21Z</time>
      </trkpt>
      <trkpt lat="42.9355" lon="2.11418">
        <ele>401</ele>
        <time>2016-07-08T09:26:21Z</time>
      </trkpt>
      <trkpt lat="42.9355" lon="2.11402">
        <ele>403</ele>
        <time>2016-07-08T09:28:21Z</time>
      </trkpt>
      <trkpt lat="42.9355" lon="2.11391">
        <ele>404</ele>
        <time>2016-07-08T09:30:21Z</time>
      </trkpt>
      <trkpt lat="42.93549" lon="2.11383">
        <ele>405</ele>
        <time>2016-07-08T09:32:21Z</time>
      </trkpt>
      <trkpt lat="42.93548" lon="2.11376">
        <ele>406</ele>
        <time>2016-07-08T09:34:21Z</time>
      </trkpt>
      <trkpt lat="42.93546" lon="2.11368">
        <ele>407</ele>
        <time>2016-07-08T09:36:21Z</time>
      </trkpt>
      <trkpt lat="42.93544" lon="2.11361">
        <ele>407</ele>
        <time>2016-07-08T09:38:21Z</time>
      </trkpt>
      <trkpt lat="42.93533" lon="2.1133">
        <ele>410</ele>
        <time>2016-07-08T09:40:21Z</time>
      </trkpt>
      <trkpt lat="42.93518" lon="2.11298">
        <ele>412</ele>
        <time>2016-07-08T09:42:21Z</time>
      </trkpt>
      <trkpt lat="42.93515" lon="2.11294">
        <ele>412</ele>
        <time>2016-07-08T09:44:21Z</time>
      </trkpt>
      <trkpt lat="42.93513" lon="2.11291">
        <ele>412</ele>
        <time>2016-07-08T09:46:21Z</time>
      </trkpt>
      <trkpt lat="42.9351" lon="2.1129">
        <ele>412</ele>
        <time>2016-07-08T09:48:21Z</time>
      </trkpt>
      <trkpt lat="42.93507" lon="2.1129">
        <ele>411</ele>
        <time>2016-07-08T09:50:21Z</time>
      </trkpt>
      <trkpt lat="42.93504" lon="2.1129">
        <ele>411</ele>
        <time>2016-07-08T09:52:21Z</time>
      </trkpt>
      <trkpt lat="42.93495" lon="2.11296">
        <ele>411</ele>
        <time>2016-07-08T09:54:21Z</time>
      </trkpt>
      <trkpt lat="42.9347" lon="2.11314">
        <ele>414</ele>
        <time>2016-07-08T09:56:21Z</time>
      </trkpt>
      <trkpt lat="42.93462" lon="2.11321">
        <ele>415</ele>
        <time>2016-07-08T09:58:21Z</time>
      </trkpt>
      <trkpt lat="42.93459" lon="2.11323">
        <ele>415</ele>
        <time>2016-07-08T10:00:21Z</time>
      </trkpt>
      <trkpt lat="42.93457" lon="2.11324">
        <ele>415</ele>
        <time>2016-07-08T10:02:21Z</time>
      </trkpt>
      <trkpt lat="42.93453" lon="2.11324">
        <ele>416</ele>
        <time>2016-07-08T10:04:21Z</time>
      </trkpt>
      <trkpt lat="42.93446" lon="2.11322">
        <ele>417</ele>
        <time>2016-07-08T10:06:21Z</time>
      </trkpt>
      <trkpt lat="42.93442" lon="2.1132">
        <ele>418</ele>
        <time>2016-07-08T10:08:21Z</time>
      </trkpt>
      <trkpt lat="42.93439" lon="2.11316">
        <ele>419</ele>
        <time>2016-07-08T10:10:21Z</time>
      </trkpt>
      <trkpt lat="42.93436" lon="2.1131">
        <ele>420</ele>
        <time>2016-07-08T10:12:21Z</time>
      </trkpt>
      <trkpt lat="42.93434" lon="2.11304">
        <ele>421</ele>
        <time>2016-07-08T10:14:21Z</time>
      </trkpt>
      <trkpt lat="42.93433" lon="2.11299">
        <ele>421</ele>
        <time>2016-07-08T10:16:21Z</time>
      </trkpt>
      <trkpt lat="42.93433" lon="2.1129">
        <ele>421</ele>
        <time>2016-07-08T10:18:21Z</time>
      </trkpt>
      <trkpt lat="42.93433" lon="2.11256">
        <ele>423</ele>
        <time>2016-07-08T10:20:21Z</time>
      </trkpt>
      <trkpt lat="42.93435" lon="2.11101">
        <ele>438</ele>
        <time>2016-07-08T10:22:21Z</time>
      </trkpt>
      <trkpt lat="42.93435" lon="2.11086">
        <ele>440</ele>
        <time>2016-07-08T10:24:21Z</time>
      </trkpt>
      <trkpt lat="42.93437" lon="2.11069">
        <ele>441</ele>
        <time>2016-07-08T10:26:21Z</time>
      </trkpt>
      <trkpt lat="42.93438" lon="2.11058">
        <ele>442</ele>
        <time>2016-07-08T10:28:21Z</time>
      </trkpt>
      <trkpt lat="42.93439" lon="2.11049">
        <ele>443</ele>
        <time>2016-07-08T10:30:21Z</time>
      </trkpt>
      <trkpt lat="42.93439" lon="2.11037">
        <ele>444</ele>
        <time>2016-07-08T10:32:21Z</time>
      </trkpt>
      <trkpt lat="42.93438" lon="2.11022">
        <ele>445</ele>
        <time>2016-07-08T10:34:21Z</time>
      </trkpt>
      <trkpt lat="42.93435" lon="2.11009">
        <ele>446</ele>
        <time>2016-07-08T10:36:21Z</time>
      </trkpt>
      <trkpt lat="42.93419" lon="2.10967">
        <ele>447</ele>
        <time>2016-07-08T10:38:21Z</time>
      </trkpt>
      <trkpt lat="42.93418" lon="2.10964">
        <ele>447</ele>
        <time>2016-07-08T10:40:21Z</time>
      </trkpt>
      <trkpt lat="42.93419" lon="2.10961">
        <ele>447</ele>
        <time>2016-07-08T10:42:21Z</time>
      </trkpt>
      <trkpt lat="42.9342" lon="2.10959">
        <ele>447</ele>
        <time>2016-07-08T10:44:21Z</time>
      </trkpt>
      <trkpt lat="42.9342" lon="2.10959">
        <ele>447</ele>
        <time>2016-07-08T10:46:21Z</time>
      </trkpt>
      <trkpt lat="42.93416" lon="2.10951">
        <ele>447</ele>
        <time>2016-07-08T10:48:21Z</time>
      </trkpt>
      <trkpt lat="42.93414" lon="2.10944">
        <ele>448</ele>
        <time>2016-07-08T10:50:21Z</time>
      </trkpt>
      <trkpt lat="42.93413" lon="2.10937">
        <ele>449</ele>
        <time>2016-07-08T10:52:21Z</time>
      </trkpt>
      <trkpt lat="42.93412" lon="2.10929">
        <ele>449</ele>
        <time>2016-07-08T10:54:21Z</time>
      </trkpt>
      <trkpt lat="42.93413" lon="2.10922">
        <ele>449</ele>
        <time>2016-07-08T10:56:21Z</time>
      </trkpt>
      <trkpt lat="42.93414" lon="2.10913">
        <ele>449</ele>
        <time>2016-07-08T10:58:21Z</time>
      </trkpt>
      <trkpt lat="42.9342" lon="2.10894">
        <ele>449</ele>
        <time>2016-07-08T11:00:21Z</time>
      </trkpt>
      <trkpt lat="42.9342" lon="2.10894">
        <ele>449</ele>
        <time>2016-07-08T11:02:21Z</time>
      </trkpt>
      <trkpt lat="42.93415" lon="2.10891">
        <ele>449</ele>
        <time>2016-07-08T11:04:21Z</time>
      </trkpt>
      <trkpt lat="42.93414" lon="2.10889">
        <ele>449</ele>
        <time>2016-07-08T11:06:21Z</time>
      </trkpt>
      <trkpt lat="42.93413" lon="2.10886">
        <ele>449</ele>
        <time>2016-07-08T11:08:21Z</time>
      </trkpt>
      <trkpt lat="42.93409" lon="2.1086">
        <ele>449</ele>
        <time>2016-07-08T11:10:21Z</time>
      </trkpt>
      <trkpt lat="42.93405" lon="2.10815">
        <ele>448</ele>
        <time>2016-07-08T11:12:21Z</time>
      </trkpt>
      <trkpt lat="42.93404" lon="2.10796">
        <ele>446</ele>
        <time>2016-07-08T11:14:21Z</time>
      </trkpt>
      <trkpt lat="42.93403" lon="2.10782">
        <ele>445</ele>
        <time>2016-07-08T11:16:21Z</time>
      </trkpt>
      <trkpt lat="42.93401" lon="2.10765">
        <ele>444</ele>
        <time>2016-07-08T11:18:21Z</time>
      </trkpt>
      <trkpt lat="42.93396" lon="2.10744">
        <ele>442</ele>
        <time>2016-07-08T11:20:21Z</time>
      </trkpt>
      <trkpt lat="42.93392" lon="2.10732">
        <ele>442</ele>
        <time>2016-07-08T11:22:21Z</time>
      </trkpt>
      <trkpt lat="42.93388" lon="2.10723">
        <ele>441</ele>
        <time>2016-07-08T11:24:21Z</time>
      </trkpt>
      <trkpt lat="42.93388" lon="2.10723">
        <ele>441</ele>
        <time>2016-07-08T11:26:21Z</time>
      </trkpt>
      <trkpt lat="42.93388" lon="2.10718">
        <ele>440</ele>
        <time>2016-07-08T11:28:21Z</time>
      </trkpt>
      <trkpt lat="42.93388" lon="2.10715">
        <ele>440</ele>
        <time>2016-07-08T11:30:21Z</time>
      </trkpt>
      <trkpt lat="42.93387" lon="2.10711">
        <ele>440</ele>
        <time>2016-07-08T11:32:21Z</time>
      </trkpt>
      <trkpt lat="42.93384" lon="2.10702">
        <ele>439</ele>
        <time>2016-07-08T11:34:21Z</time>
      </trkpt>
      <trkpt lat="42.93382" lon="2.10696">
        <ele>438</ele>
        <time>2016-07-08T11:36:21Z</time>
      </trkpt>
      <trkpt lat="42.93382" lon="2.10688">
        <ele>438</ele>
        <time>2016-07-08T11:38:21Z</time>
      </trkpt>
      <trkpt lat="42.93381" lon="2.10678">
        <ele>437</ele>
        <time>2016-07-08T11:40:21Z</time>
      </trkpt>
      <trkpt lat="42.93383" lon="2.10663">
        <ele>435</ele>
        <time>2016-07-08T11:42:21Z</time>
      </trkpt>
      <trkpt lat="42.93387" lon="2.10634">
        <ele>432</ele>
        <time>2016-07-08T11:44:21Z</time>
      </trkpt>
      <trkpt lat="42.93393" lon="2.10611">
        <ele>430</ele>
        <time>2016-07-08T11:46:21Z</time>
      </trkpt>
      <trkpt lat="42.93397" lon="2.10602">
        <ele>429</ele>
        <time>2016-07-08T11:48:21Z</time>
      </trkpt>
      <trkpt lat="42.934" lon="2.10591">
        <ele>428</ele>
        <time>2016-07-08T11:50:21Z</time>
      </trkpt>
      <trkpt lat="42.93405" lon="2.10576">
        <ele>427</ele>
        <time>2016-07-08T11:52:21Z</time>
      </trkpt>
      <trkpt lat="42.93414" lon="2.10554">
        <ele>427</ele>
        <time>2016-07-08T11:54:21Z</time>
      </trkpt>
      <trkpt lat="42.93419" lon="2.10533">
        <ele>426</ele>
        <time>2016-07-08T11:56:21Z</time>
      </trkpt>
      <trkpt lat="42.93423" lon="2.10521">
        <ele>426</ele>
        <time>2016-07-08T11:58:21Z</time>
      </trkpt>
      <trkpt lat="42.93424" lon="2.10511">
        <ele>426</ele>
        <time>2016-07-08T12:00:21Z</time>
      </trkpt>
      <trkpt lat="42.93424" lon="2.10502">
        <ele>425</ele>
        <time>2016-07-08T12:02:21Z</time>
      </trkpt>
      <trkpt lat="42.93424" lon="2.10493">
        <ele>425</ele>
        <time>2016-07-08T12:04:21Z</time>
      </trkpt>
      <trkpt lat="42.93424" lon="2.10484">
        <ele>425</ele>
        <time>2016-07-08T12:06:21Z</time>
      </trkpt>
      <trkpt lat="42.93424" lon="2.10476">
        <ele>425</ele>
        <time>2016-07-08T12:08:21Z</time>
      </trkpt>
      <trkpt lat="42.93426" lon="2.10469">
        <ele>426</ele>
        <time>2016-07-08T12:10:21Z</time>
      </trkpt>
      <trkpt lat="42.93428" lon="2.10465">
        <ele>426</ele>
        <time>2016-07-08T12:12:21Z</time>
      </trkpt>
      <trkpt lat="42.93432" lon="2.10455">
        <ele>426</ele>
        <time>2016-07-08T12:14:21Z</time>
      </trkpt>
      <trkpt lat="42.93434" lon="2.10448">
        <ele>427</ele>
        <time>2016-07-08T12:16:21Z</time>
      </trkpt>
      <trkpt lat="42.93435" lon="2.10437">
        <ele>427</ele>
        <time>2016-07-08T12:18:21Z</time>
      </trkpt>
      <trkpt lat="42.93437" lon="2.10424">
        <ele>427</ele>
        <time>2016-07-08T12:20:21Z</time>
      </trkpt>
      <trkpt lat="42.93438" lon="2.10399">
        <ele>428</ele>
        <time>2016-07-08T12:22:21Z</time>
      </trkpt>
      <trkpt lat="42.93439" lon="2.1036">
        <ele>431</ele>
        <time>2016-07-08T12:24:21Z</time>
      </trkpt>
      <trkpt lat="42.9344" lon="2.1033">
        <ele>432</ele>
        <time>2016-07-08T12:26:21Z</time>
      </trkpt>
      <trkpt lat="42.9344" lon="2.10318">
        <ele>433</ele>
        <time>2016-07-08T12:28:21Z</time>
      </trkpt>
      <trkpt lat="42.9344" lon="2.10305">
        <ele>433</ele>
        <time>2016-07-08T12:30:21Z</time>
      </trkpt>
      <trkpt lat="42.93439" lon="2.10279">
        <ele>434</ele>
        <time>2016-07-08T12:32:21Z</time>
      </trkpt>
      <trkpt lat="42.93441" lon="2.1025">
        <ele>435</ele>
        <time>2016-07-08T12:34:21Z</time>
      </trkpt>
      <trkpt lat="42.93442" lon="2.10239">
        <ele>436</ele>
        <time>2016-07-08T12:36:21Z</time>
      </trkpt>
      <trkpt lat="42.93441" lon="2.10227">
        <ele>436</ele>
        <time>2016-07-08T12:38:21Z</time>
      </trkpt>
      <trkpt lat="42.93439" lon="2.10216">
        <ele>436</ele>
        <time>2016-07-08T12:40:21Z</time>
      </trkpt>
      <trkpt lat="42.93436" lon="2.10202">
        <ele>436</ele>
        <time>2016-07-08T12:42:21Z</time>
      </trkpt>
      <trkpt lat="42.9343" lon="2.10186">
        <ele>436</ele>
        <time>2016-07-08T12:44:21Z</time>
      </trkpt>
      <trkpt lat="42.93428" lon="2.10174">
        <ele>436</ele>
        <time>2016-07-08T12:46:21Z</time>
      </trkpt>
      <trkpt lat="42.93428" lon="2.10164">
        <ele>437</ele>
        <time>2016-07-08T12:48:21Z</time>
      </trkpt>
      <trkpt lat="42.93428" lon="2.10158">
        <ele>437</ele>
        <time>2016-07-08T12:50:21Z</time>
      </trkpt>
      <trkpt lat="42.93426" lon="2.10147">
        <ele>438</ele>
        <time>2016-07-08T12:52:21Z</time>
      </trkpt>
      <trkpt lat="42.93424" lon="2.1014">
        <ele>438</ele>
        <time>2016-07-08T12:54:21Z</time>
      </trkpt>
      <trkpt lat="42.93422" lon="2.10134">
        <ele>438</ele>
        <time>2016-07-08T12:56:21Z</time>
      </trkpt>
      <trkpt lat="42.93418" lon="2.10123">
        <ele>438</ele>
        <time>2016-07-08T12:58:21Z</time>
      </trkpt>
      <trkpt lat="42.93415" lon="2.10114">
        <ele>439</ele>
        <time>2016-07-08T13:00:21Z</time>
      </trkpt>
      <trkpt lat="42.93412" lon="2.10105">
        <ele>439</ele>
        <time>2016-07-08T13:02:21Z</time>
      </trkpt>
      <trkpt lat="42.93411" lon="2.10096">
        <ele>440</ele>
        <time>2016-07-08T13:04:21Z</time>
      </trkpt>
      <trkpt lat="42.9341" lon="2.10087">
        <ele>441</ele>
        <time>2016-07-08T13:06:21Z</time>
      </trkpt>
      <trkpt lat="42.9341" lon="2.10042">
        <ele>443</ele>
        <time>2016-07-08T13:08:21Z</time>
      </trkpt>
      <trkpt lat="42.93414" lon="2.09954">
        <ele>446</ele>
        <time>2016-07-08T13:10:21Z</time>
      </trkpt>
      <trkpt lat="42.93414" lon="2.09934">
        <ele>447</ele>
        <time>2016-07-08T13:12:21Z</time>
      </trkpt>
      <trkpt lat="42.93412" lon="2.09922">
        <ele>447</ele>
        <time>2016-07-08T13:14:21Z</time>
      </trkpt>
      <trkpt lat="42.93406" lon="2.09902">
        <ele>447</ele>
        <time>2016-07-08T13:16:21Z</time>
      </trkpt>
      <trkpt lat="42.93404" lon="2.09883">
        <ele>447</ele>
        <time>2016-07-08T13:18:21Z</time>
      </trkpt>
      <trkpt lat="42.93405" lon="2.09866">
        <ele>448</ele>
        <time>2016-07-08T13:20:21Z</time>
      </trkpt>
      <trkpt lat="42.93408" lon="2.09855">
        <ele>448</ele>
        <time>2016-07-08T13:22:21Z</time>
      </trkpt>
      <trkpt lat="42.93411" lon="2.09844">
        <ele>449</ele>
        <time>2016-07-08T13:24:21Z</time>
      </trkpt>
      <trkpt lat="42.93415" lon="2.09831">
        <ele>450</ele>
        <time>2016-07-08T13:26:21Z</time>
      </trkpt>
      <trkpt lat="42.9342" lon="2.09811">
        <ele>451</ele>
        <time>2016-07-08T13:28:21Z</time>
      </trkpt>
      <trkpt lat="42.93426" lon="2.09792">
        <ele>453</ele>
        <time>2016-07-08T13:30:21Z</time>
      </trkpt>
      <trkpt lat="42.93427" lon="2.0978">
        <ele>454</ele>
        <time>2016-07-08T13:32:21Z</time>
      </trkpt>
      <trkpt lat="42.93427" lon="2.09768">
        <ele>454</ele>
        <time>2016-07-08T13:34:21Z</time>
      </trkpt>
      <trkpt lat="42.93426" lon="2.09757">
        <ele>454</ele>
        <time>2016-07-08T13:36:21Z</time>
      </trkpt>
      <trkpt lat="42.93423" lon="2.09748">
        <ele>454</ele>
        <time>2016-07-08T13:38:21Z</time>
      </trkpt>
      <trkpt lat="42.93418" lon="2.09738">
        <ele>454</ele>
        <time>2016-07-08T13:40:21Z</time>
      </trkpt>
      <trkpt lat="42.93415" lon="2.09732">
        <ele>454</ele>
        <time>2016-07-08T13:42:21Z</time>
      </trkpt>
      <trkpt lat="42.93411" lon="2.09726">
        <ele>454</ele>
        <time>2016-07-08T13:44:21Z</time>
      </trkpt>
      <trkpt lat="42.93407" lon="2.09716">
        <ele>454</ele>
        <time>2016-07-08T13:46:21Z</time>
      </trkpt>
      <trkpt lat="42.93403" lon="2.09706">
        <ele>455</ele>
        <time>2016-07-08T13:48:21Z</time>
      </trkpt>
      <trkpt lat="42.93399" lon="2.09692">
        <ele>455</ele>
        <time>2016-07-08T13:50:21Z</time>
      </trkpt>
      <trkpt lat="42.93394" lon="2.09672">
        <ele>455</ele>
        <time>2016-07-08T13:52:21Z</time>
      </trkpt>
      <trkpt lat="42.93394" lon="2.09636">
        <ele>456</ele>
        <time>2016-07-08T13:54:21Z</time>
      </trkpt>
      <trkpt lat="42.93396" lon="2.09601">
        <ele>456</ele>
        <time>2016-07-08T13:56:21Z</time>
      </trkpt>
      <trkpt lat="42.93399" lon="2.09582">
        <ele>457</ele>
        <time>2016-07-08T13:58:21Z</time>
      </trkpt>
      <trkpt lat="42.93402" lon="2.09556">
        <ele>458</ele>
        <time>2016-07-08T14:00:21Z</time>
      </trkpt>
      <trkpt lat="42.9341" lon="2.09523">
        <ele>460</ele>
        <time>2016-07-08T14:02:21Z</time>
      </trkpt>
      <trkpt lat="42.93417" lon="2.09501">
        <ele>462</ele>
        <time>2016-07-08T14:04:21Z</time>
      </trkpt>
      <trkpt lat="42.93425" lon="2.09484">
        <ele>464</ele>
        <time>2016-07-08T14:06:21Z</time>
      </trkpt>
      <trkpt lat="42.93435" lon="2.09466">
        <ele>467</ele>
        <time>2016-07-08T14:08:21Z</time>
      </trkpt>
      <trkpt lat="42.93439" lon="2.09458">
        <ele>468</ele>
        <time>2016-07-08T14:10:21Z</time>
      </trkpt>
      <trkpt lat="42.93441" lon="2.0945">
        <ele>468</ele>
        <time>2016-07-08T14:12:21Z</time>
      </trkpt>
      <trkpt lat="42.93441" lon="2.09444">
        <ele>468</ele>
        <time>2016-07-08T14:14:21Z</time>
      </trkpt>
      <trkpt lat="42.93439" lon="2.09431">
        <ele>469</ele>
        <time>2016-07-08T14:16:21Z</time>
      </trkpt>
      <trkpt lat="42.93438" lon="2.0942">
        <ele>469</ele>
        <time>2016-07-08T14:18:21Z</time>
      </trkpt>
      <trkpt lat="42.93437" lon="2.09407">
        <ele>469</ele>
        <time>2016-07-08T14:20:21Z</time>
      </trkpt>
      <trkpt lat="42.93437" lon="2.09393">
        <ele>469</ele>
        <time>2016-07-08T14:22:21Z</time>
      </trkpt>
      <trkpt lat="42.93438" lon="2.09382">
        <ele>470</ele>
        <time>2016-07-08T14:24:21Z</time>
      </trkpt>
      <trkpt lat="42.93442" lon="2.09364">
        <ele>471</ele>
        <time>2016-07-08T14:26:21Z</time>
      </trkpt>
      <trkpt lat="42.93445" lon="2.0935">
        <ele>472</ele>
        <time>2016-07-08T14:28:21Z</time>
      </trkpt>
      <trkpt lat="42.93448" lon="2.09337">
        <ele>473</ele>
        <time>2016-07-08T14:30:21Z</time>
      </trkpt>
      <trkpt lat="42.9345" lon="2.09317">
        <ele>474</ele>
        <time>2016-07-08T14:32:21Z</time>
      </trkpt>
      <trkpt lat="42.9345" lon="2.09309">
        <ele>474</ele>
        <time>2016-07-08T14:34:21Z</time>
      </trkpt>
      <trkpt lat="42.93447" lon="2.09299">
        <ele>473</ele>
        <time>2016-07-08T14:36:21Z</time>
      </trkpt>
      <trkpt lat="42.93439" lon="2.09277">
        <ele>472</ele>
        <time>2016-07-08T14:38:21Z</time>
      </trkpt>
      <trkpt lat="42.9343" lon="2.09257">
        <ele>470</ele>
        <time>2016-07-08T14:40:21Z</time>
      </trkpt>
      <trkpt lat="42.93423" lon="2.09245">
        <ele>469</ele>
        <time>2016-07-08T14:42:21Z</time>
      </trkpt>
      <trkpt lat="42.93418" lon="2.09221">
        <ele>469</ele>
        <time>2016-07-08T14:44:21Z</time>
      </trkpt>
      <trkpt lat="42.93416" lon="2.09201">
        <ele>470</ele>
        <time>2016-07-08T14:46:21Z</time>
      </trkpt>
      <trkpt lat="42.9341" lon="2.09154">
        <ele>473</ele>
        <time>2016-07-08T14:48:21Z</time>
      </trkpt>
      <trkpt lat="42.93406" lon="2.09125">
        <ele>475</ele>
        <time>2016-07-08T14:50:21Z</time>
      </trkpt>
      <trkpt lat="42.93405" lon="2.09111">
        <ele>476</ele>
        <time>2016-07-08T14:52:21Z</time>
      </trkpt>
      <trkpt lat="42.93403" lon="2.09096">
        <ele>477</ele>
        <time>2016-07-08T14:54:21Z</time>
      </trkpt>
      <trkpt lat="42.93402" lon="2.09078">
        <ele>479</ele>
        <time>2016-07-08T14:56:21Z</time>
      </trkpt>
      <trkpt lat="42.93402" lon="2.09062">
        <ele>479</ele>
        <time>2016-07-08T14:58:21Z</time>
      </trkpt>
      <trkpt lat="42.93399" lon="2.09039">
        <ele>480</ele>
        <time>2016-07-08T15:00:21Z</time>
      </trkpt>
      <trkpt lat="42.93397" lon="2.09028">
        <ele>481</ele>
        <time>2016-07-08T15:02:21Z</time>
      </trkpt>
      <trkpt lat="42.93393" lon="2.09017">
        <ele>481</ele>
        <time>2016-07-08T15:04:21Z</time>
      </trkpt>
      <trkpt lat="42.93382" lon="2.08989">
        <ele>482</ele>
        <time>2016-07-08T15:06:21Z</time>
      </trkpt>
      <trkpt lat="42.93377" lon="2.08972">
        <ele>484</ele>
        <time>2016-07-08T15:08:21Z</time>
      </trkpt>
      <trkpt lat="42.93373" lon="2.08955">
        <ele>485</ele>
        <time>2016-07-08T15:10:21Z</time>
      </trkpt>
      <trkpt lat="42.93369" lon="2.08939">
        <ele>487</ele>
        <time>2016-07-08T15:12:21Z</time>
      </trkpt>
      <trkpt lat="42.93366" lon="2.08929">
        <ele>488</ele>
        <time>2016-07-08T15:14:21Z</time>
      </trkpt>
      <trkpt lat="42.93362" lon="2.08915">
        <ele>489</ele>
        <time>2016-07-08T15:16:21Z</time>
      </trkpt>
      <trkpt lat="42.93353" lon="2.08883">
        <ele>490</ele>
        <time>2016-07-08T15:18:21Z</time>
      </trkpt>
      <trkpt lat="42.9335" lon="2.08864">
        <ele>491</ele>
        <time>2016-07-08T15:20:21Z</time>
      </trkpt>
      <trkpt lat="42.93346" lon="2.08844">
        <ele>492</ele>
        <time>2016-07-08T15:22:21Z</time>
      </trkpt>
      <trkpt lat="42.93343" lon="2.08825">
        <ele>493</ele>
        <time>2016-07-08T15:24:21Z</time>
      </trkpt>
      <trkpt lat="42.9334" lon="2.0879">
        <ele>495</ele>
        <time>2016-07-08T15:26:21Z</time>
      </trkpt>
      <trkpt lat="42.93335" lon="2.08767">
        <ele>495</ele>
        <time>2016-07-08T15:28:21Z</time>
      </trkpt>
      <trkpt lat="42.93331" lon="2.08757">
        <ele>495</ele>
        <time>2016-07-08T15:30:21Z</time>
      </trkpt>
      <trkpt lat="42.93322" lon="2.0874">
        <ele>496</ele>
        <time>2016-07-08T15:32:21Z</time>
      </trkpt>
      <trkpt lat="42.93317" lon="2.08731">
        <ele>497</ele>
        <time>2016-07-08T15:34:21Z</time>
      </trkpt>
      <trkpt lat="42.93312" lon="2.08712">
        <ele>498</ele>
        <time>2016-07-08T15:36:21Z</time>
      </trkpt>
      <trkpt lat="42.93309" lon="2.0869">
        <ele>499</ele>
        <time>2016-07-08T15:38:21Z</time>
      </trkpt>
      <trkpt lat="42.93304" lon="2.08675">
        <ele>499</ele>
        <time>2016-07-08T15:40:21Z</time>
      </trkpt>
      <trkpt lat="42.93301" lon="2.0866">
        <ele>500</ele>
        <time>2016-07-08T15:42:21Z</time>
      </trkpt>
      <trkpt lat="42.93299" lon="2.08639">
        <ele>500</ele>
        <time>2016-07-08T15:44:21Z</time>
      </trkpt>
      <trkpt lat="42.933" lon="2.08622">
        <ele>501</ele>
        <time>2016-07-08T15:46:21Z</time>
      </trkpt>
      <trkpt lat="42.93302" lon="2.0861">
        <ele>502</ele>
        <time>2016-07-08T15:48:21Z</time>
      </trkpt>
      <trkpt lat="42.93305" lon="2.08589">
        <ele>503</ele>
        <time>2016-07-08T15:50:21Z</time>
      </trkpt>
      <trkpt lat="42.93306" lon="2.08578">
        <ele>504</ele>
        <time>2016-07-08T15:52:21Z</time>
      </trkpt>
      <trkpt lat="42.93311" lon="2.08556">
        <ele>505</ele>
        <time>2016-07-08T15:54:21Z</time>
      </trkpt>
      <trkpt lat="42.93314" lon="2.08546">
        <ele>506</ele>
        <time>2016-07-08T15:56:21Z</time>
      </trkpt>
      <trkpt lat="42.93316" lon="2.08537">
        <ele>506</ele>
        <time>2016-07-08T15:58:21Z</time>
      </trkpt>
      <trkpt lat="42.93315" lon="2.08521">
        <ele>506</ele>
        <time>2016-07-08T16:00:21Z</time>
      </trkpt>
      <trkpt lat="42.93314" lon="2.08509">
        <ele>506</ele>
        <time>2016-07-08T16:02:21Z</time>
      </trkpt>
      <trkpt lat="42.93314" lon="2.08497">
        <ele>506</ele>
        <time>2016-07-08T16:04:21Z</time>
      </trkpt>
      <trkpt lat="42.93315" lon="2.08482">
        <ele>506</ele>
        <time>2016-07-08T16:06:21Z</time>
      </trkpt>
      <trkpt lat="42.93316" lon="2.08468">
        <ele>507</ele>
        <time>2016-07-08T16:08:21Z</time>
      </trkpt>
      <trkpt lat="42.93319" lon="2.08455">
        <ele>507</ele>
        <time>2016-07-08T16:10:21Z</time>
      </trkpt>
      <trkpt lat="42.93321" lon="2.08445">
        <ele>507</ele>
        <time>2016-07-08T16:12:21Z</time>
      </trkpt>
      <trkpt lat="42.93325" lon="2.08422">
        <ele>508</ele>
        <time>2016-07-08T16:14:21Z</time>
      </trkpt>
      <trkpt lat="42.93328" lon="2.0841">
        <ele>508</ele>
        <time>2016-07-08T16:16:21Z</time>
      </trkpt>
      <trkpt lat="42.93329" lon="2.08398">
        <ele>508</ele>
        <time>2016-07-08T16:18:21Z</time>
      </trkpt>
      <trkpt lat="42.93329" lon="2.08388">
        <ele>508</ele>
        <time>2016-07-08T16:20:21Z</time>
      </trkpt>
      <trkpt lat="42.93327" lon="2.08378">
        <ele>508</ele>
        <time>2016-07-08T16:22:21Z</time>
      </trkpt>
      <trkpt lat="42.93324" lon="2.08365">
        <ele>508</ele>
        <time>2016-07-08T16:24:21Z</time>
      </trkpt>
      <trkpt lat="42.93323" lon="2.08354">
        <ele>509</ele>
        <time>2016-07-08T16:26:21Z</time>
      </trkpt>
      <trkpt lat="42.93321" lon="2.08341">
        <ele>509</ele>
        <time>2016-07-08T16:28:21Z</time>
      </trkpt>
      <trkpt lat="42.93319" lon="2.08329">
        <ele>509</ele>
        <time>2016-07-08T16:30:21Z</time>
      </trkpt>
      <trkpt lat="42.93319" lon="2.08316">
        <ele>509</ele>
        <time>2016-07-08T16:32:21Z</time>
      </trkpt>
      <trkpt lat="42.93319" lon="2.08304">
        <ele>509</ele>
        <time>2016-07-08T16:34:21Z</time>
      </trkpt>
      <trkpt lat="42.93321" lon="2.08291">
        <ele>508</ele>
        <time>2016-07-08T16:36:21Z</time>
      </trkpt>
      <trkpt lat="42.93323" lon="2.08281">
        <ele>508</ele>
        <time>2016-07-08T16:38:21Z</time>
      </trkpt>
      <trkpt lat="42.93324" lon="2.08268">
        <ele>508</ele>
        <time>2016-07-08T16:40:21Z</time>
      </trkpt>
      <trkpt lat="42.93325" lon="2.08261">
        <ele>508</ele>
        <time>2016-07-08T16:42:21Z</time>
      </trkpt>
      <trkpt lat="42.93326" lon="2.08249">
        <ele>508</ele>
        <time>2016-07-08T16:44:21Z</time>
      </trkpt>
      <trkpt lat="42.93327" lon="2.0824">
        <ele>508</ele>
        <time>2016-07-08T16:46:21Z</time>
      </trkpt>
      <trkpt lat="42.93328" lon="2.08228">
        <ele>509</ele>
        <time>2016-07-08T16:48:21Z</time>
      </trkpt>
      <trkpt lat="42.9333" lon="2.08217">
        <ele>509</ele>
        <time>2016-07-08T16:50:21Z</time>
      </trkpt>
      <trkpt lat="42.93334" lon="2.08205">
        <ele>510</ele>
        <time>2016-07-08T16:52:21Z</time>
      </trkpt>
      <trkpt lat="42.9334" lon="2.08189">
        <ele>511</ele>
        <time>2016-07-08T16:54:21Z</time>
      </trkpt>
      <trkpt lat="42.93345" lon="2.08179">
        <ele>512</ele>
        <time>2016-07-08T16:56:21Z</time>
      </trkpt>
      <trkpt lat="42.93351" lon="2.0817">
        <ele>513</ele>
        <time>2016-07-08T16:58:21Z</time>
      </trkpt>
      <trkpt lat="42.93364" lon="2.08152">
        <ele>515</ele>
        <time>2016-07-08T17:00:21Z</time>
      </trkpt>
      <trkpt lat="42.93366" lon="2.08143">
        <ele>515</ele>
        <time>2016-07-08T17:02:21Z</time>
      </trkpt>
      <trkpt lat="42.93367" lon="2.08137">
        <ele>516</ele>
        <time>2016-07-08T17:04:21Z</time>
      </trkpt>
      <trkpt lat="42.93367" lon="2.08119">
        <ele>517</ele>
        <time>2016-07-08T17:06:21Z</time>
      </trkpt>
      <trkpt lat="42.93364" lon="2.08106">
        <ele>517</ele>
        <time>2016-07-08T17:08:21Z</time>
      </trkpt>
      <trkpt lat="42.93363" lon="2.08096">
        <ele>518</ele>
        <time>2016-07-08T17:10:21Z</time>
      </trkpt>
      <trkpt lat="42.93361" lon="2.08085">
        <ele>518</ele>
        <time>2016-07-08T17:12:21Z</time>
      </trkpt>
      <trkpt lat="42.9336" lon="2.08078">
        <ele>518</ele>
        <time>2016-07-08T17:14:21Z</time>
      </trkpt>
      <trkpt lat="42.93356" lon="2.08063">
        <ele>519</ele>
        <time>2016-07-08T17:16:21Z</time>
      </trkpt>
      <trkpt lat="42.93349" lon="2.08048">
        <ele>520</ele>
        <time>2016-07-08T17:18:21Z</time>
      </trkpt>
      <trkpt lat="42.93345" lon="2.08035">
        <ele>520</ele>
        <time>2016-07-08T17:20:21Z</time>
      </trkpt>
      <trkpt lat="42.93337" lon="2.08017">
        <ele>520</ele>
        <time>2016-07-08T17:22:21Z</time>
      </trkpt>
      <trkpt lat="42.93331" lon="2.08003">
        <ele>520</ele>
        <time>2016-07-08T17:24:21Z</time>
      </trkpt>
      <trkpt lat="42.93326" lon="2.07994">
        <ele>521</ele>
        <time>2016-07-08T17:26:21Z</time>
      </trkpt>
      <trkpt lat="42.93322" lon="2.07983">
        <ele>522</ele>
        <time>2016-07-08T17:28:21Z</time>
      </trkpt>
      <trkpt lat="42.93319" lon="2.07975">
        <ele>523</ele>
        <time>2016-07-08T17:30:21Z</time>
      </trkpt>
      <trkpt lat="42.93307" lon="2.07958">
        <ele>525</ele>
        <time>2016-07-08T17:32:21Z</time>
      </trkpt>
      <trkpt lat="42.93298" lon="2.07957">
        <ele>525</ele>
        <time>2016-07-08T17:34:21Z</time>
      </trkpt>
      <trkpt lat="42.93292" lon="2.07956">
        <ele>525</ele>
        <time>2016-07-08T17:36:21Z</time>
      </trkpt>
      <trkpt lat="42.93284" lon="2.07955">
        <ele>525</ele>
        <time>2016-07-08T17:38:21Z</time>
      </trkpt>
      <trkpt lat="42.93278" lon="2.07954">
        <ele>525</ele>
        <time>2016-07-08T17:40:21Z</time>
      </trkpt>
      <trkpt lat="42.93274" lon="2.07952">
        <ele>525</ele>
        <time>2016-07-08T17:42:21Z</time>
      </trkpt>
      <trkpt lat="42.93271" lon="2.0795">
        <ele>525</ele>
        <time>2016-07-08T17:44:21Z</time>
      </trkpt>
      <trkpt lat="42.93258" lon="2.07951">
        <ele>525</ele>
        <time>2016-07-08T17:46:21Z</time>
      </trkpt>
      <trkpt lat="42.93258" lon="2.07951">
        <ele>525</ele>
        <time>2016-07-08T17:48:21Z</time>
      </trkpt>
      <trkpt lat="42.93257" lon="2.07942">
        <ele>525</ele>
        <time>2016-07-08T17:50:21Z</time>
      </trkpt>
      <trkpt lat="42.93257" lon="2.07935">
        <ele>526</ele>
        <time>2016-07-08T17:52:21Z</time>
      </trkpt>
      <trkpt lat="42.93257" lon="2.07925">
        <ele>527</ele>
        <time>2016-07-08T17:54:21Z</time>
      </trkpt>
      <trkpt lat="42.93259" lon="2.07915">
        <ele>528</ele>
        <time>2016-07-08T17:56:21Z</time>
      </trkpt>
      <trkpt lat="42.93262" lon="2.07897">
        <ele>529</ele>
        <time>2016-07-08T17:58:21Z</time>
      </trkpt>
      <trkpt lat="42.93262" lon="2.07889">
        <ele>530</ele>
        <time>2016-07-08T18:00:21Z</time>
      </trkpt>
      <trkpt lat="42.93264" lon="2.07885">
        <ele>531</ele>
        <time>2016-07-08T18:02:21Z</time>
      </trkpt>
      <trkpt lat="42.93267" lon="2.07879">
        <ele>531</ele>
        <time>2016-07-08T18:04:21Z</time>
      </trkpt>
      <trkpt lat="42.9327" lon="2.07874">
        <ele>532</ele>
        <time>2016-07-08T18:06:21Z</time>
      </trkpt>
      <trkpt lat="42.93274" lon="2.07867">
        <ele>533</ele>
        <time>2016-07-08T18:08:21Z</time>
      </trkpt>
      <trkpt lat="42.93278" lon="2.07862">
        <ele>534</ele>
        <time>2016-07-08T18:10:21Z</time>
      </trkpt>
      <trkpt lat="42.93281" lon="2.07856">
        <ele>535</ele>
        <time>2016-07-08T18:12:21Z</time>
      </trkpt>
      <trkpt lat="42.93284" lon="2.07851">
        <ele>536</ele>
        <time>2016-07-08T18:14:21Z</time>
      </trkpt>
      <trkpt lat="42.93285" lon="2.07847">
        <ele>536</ele>
        <time>2016-07-08T18:16:21Z</time>
      </trkpt>
      <trkpt lat="42.93285" lon="2.0784">
        <ele>537</ele>
        <time>2016-07-08T18:18:21Z</time>
      </trkpt>
      <trkpt lat="42.93285" lon="2.07833">
        <ele>538</ele>
        <time>2016-07-08T18:20:21Z</time>
      </trkpt>
      <trkpt lat="42.93285" lon="2.07825">
        <ele>538</ele>
        <time>2016-07-08T18:22:21Z</time>
      </trkpt>
      <trkpt lat="42.93284" lon="2.07818">
        <ele>539</ele>
        <time>2016-07-08T18:24:21Z</time>
      </trkpt>
      <trkpt lat="42.9328" lon="2.07791">
        <ele>540</ele>
        <time>2016-07-08T18:26:21Z</time>
      </trkpt>
      <trkpt lat="42.93276" lon="2.07767">
        <ele>542</ele>
        <time>2016-07-08T18:28:21Z</time>
      </trkpt>
      <trkpt lat="42.93272" lon="2.07746">
        <ele>542</ele>
        <time>2016-07-08T18:30:21Z</time>
      </trkpt>
      <trkpt lat="42.9327" lon="2.07739">
        <ele>543</ele>
        <time>2016-07-08T18:32:21Z</time>
      </trkpt>
      <trkpt lat="42.93268" lon="2.07726">
        <ele>543</ele>
        <time>2016-07-08T18:34:21Z</time>
      </trkpt>
      <trkpt lat="42.93268" lon="2.07718">
        <ele>544</ele>
        <time>2016-07-08T18:36:21Z</time>
      </trkpt>
      <trkpt lat="42.93268" lon="2.07711">
        <ele>545</ele>
        <time>2016-07-08T18:38:21Z</time>
      </trkpt>
      <trkpt lat="42.93268" lon="2.07704">
        <ele>546</ele>
        <time>2016-07-08T18:40:21Z</time>
      </trkpt>
      <trkpt lat="42.93269" lon="2.07696">
        <ele>547</ele>
        <time>2016-07-08T18:42:21Z</time>
      </trkpt>
      <trkpt lat="42.93271" lon="2.07676">
        <ele>550</ele>
        <time>2016-07-08T18:44:21Z</time>
      </trkpt>
      <trkpt lat="42.93275" lon="2.07661">
        <ele>552</ele>
        <time>2016-07-08T18:46:21Z</time>
      </trkpt>
      <trkpt lat="42.93276" lon="2.07656">
        <ele>553</ele>
        <time>2016-07-08T18:48:21Z</time>
      </trkpt>
      <trkpt lat="42.93276" lon="2.07647">
        <ele>554</ele>
        <time>2016-07-08T18:50:21Z</time>
      </trkpt>
      <trkpt lat="42.93276" lon="2.07641">
        <ele>554</ele>
        <time>2016-07-08T18:52:21Z</time>
      </trkpt>
      <trkpt lat="42.93276" lon="2.07633">
        <ele>555</ele>
        <time>2016-07-08T18:54:21Z</time>
      </trkpt>
      <trkpt lat="42.93276" lon="2.07625">
        <ele>556</ele>
        <time>2016-07-08T18:56:21Z</time>
      </trkpt>
      <trkpt lat="42.93274" lon="2.07617">
        <ele>556</ele>
        <time>2016-07-08T18:58:21Z</time>
      </trkpt>
      <trkpt lat="42.93273" lon="2.07611">
        <ele>556</ele>
        <time>2016-07-08T19:00:21Z</time>
      </trkpt>
      <trkpt lat="42.93271" lon="2.07596">
        <ele>557</ele>
        <time>2016-07-08T19:02:21Z</time>
      </trkpt>
      <trkpt lat="42.93268" lon="2.07585">
        <ele>558</ele>
        <time>2016-07-08T19:04:21Z</time>
      </trkpt>
      <trkpt lat="42.93265" lon="2.07577">
        <ele>558</ele>
        <time>2016-07-08T19:06:21Z</time>
      </trkpt>
      <trkpt lat="42.93259" lon="2.07567">
        <ele>557</ele>
        <time>2016-07-08T19:08:21Z</time>
      </trkpt>
      <trkpt lat="42.93251" lon="2.07556">
        <ele>557</ele>
        <time>2016-07-08T19:10:21Z</time>
      </trkpt>
      <trkpt lat="42.93244" lon="2.07545">
        <ele>558</ele>
        <time>2016-07-08T19:12:21Z</time>
      </trkpt>
      <trkpt lat="42.93241" lon="2.07539">
        <ele>559</ele>
        <time>2016-07-08T19:14:21Z</time>
      </trkpt>
      <trkpt lat="42.9324" lon="2.07534">
        <ele>559</ele>
        <time>2016-07-08T19:16:21Z</time>
      </trkpt>
      <trkpt lat="42.9324" lon="2.07529">
        <ele>560</ele>
        <time>2016-07-08T19:18:21Z</time>
      </trkpt>
      <trkpt lat="42.9324" lon="2.07529">
        <ele>560</ele>
        <time>2016-07-08T19:20:21Z</time>
      </trkpt>
      <trkpt lat="42.93235" lon="2.07519">
        <ele>561</ele>
        <time>2016-07-08T19:22:21Z</time>
      </trkpt>
      <trkpt lat="42.93229" lon="2.07504">
        <ele>562</ele>
        <time>2016-07-08T19:24:21Z</time>
      </trkpt>
      <trkpt lat="42.93229" lon="2.07504">
        <ele>562</ele>
        <time>2016-07-08T19:26:21Z</time>
      </trkpt>
      <trkpt lat="42.93222" lon="2.07503">
        <ele>562</ele>
        <time>2016-07-08T19:28:21Z</time>
      </trkpt>
      <trkpt lat="42.93214" lon="2.07501">
        <ele>562</ele>
        <time>2016-07-08T19:30:21Z</time>
      </trkpt>
      <trkpt lat="42.93207" lon="2.07493">
        <ele>562</ele>
        <time>2016-07-08T19:32:21Z</time>
      </trkpt>
      <trkpt lat="42.93201" lon="2.07485">
        <ele>561</ele>
        <time>2016-07-08T19:34:21Z</time>
      </trkpt>
      <trkpt lat="42.93196" lon="2.07478">
        <ele>561</ele>
        <time>2016-07-08T19:36:21Z</time>
      </trkpt>
      <trkpt lat="42.93191" lon="2.07468">
        <ele>561</ele>
        <time>2016-07-08T19:38:21Z</time>
      </trkpt>
      <trkpt lat="42.9317" lon="2.07395">
        <ele>558</ele>
        <time>2016-07-08T19:40:21Z</time>
      </trkpt>
      <trkpt lat="42.93169" lon="2.07385">
        <ele>557</ele>
        <time>2016-07-08T19:42:21Z</time>
      </trkpt>
      <trkpt lat="42.93168" lon="2.07376">
        <ele>557</ele>
        <time>2016-07-08T19:44:21Z</time>
      </trkpt>
      <trkpt lat="42.93167" lon="2.07369">
        <ele>557</ele>
        <time>2016-07-08T19:46:21Z</time>
      </trkpt>
      <trkpt lat="42.93167" lon="2.07361">
        <ele>556</ele>
        <time>2016-07-08T19:48:21Z</time>
      </trkpt>
      <trkpt lat="42.93169" lon="2.07354">
        <ele>556</ele>
        <time>2016-07-08T19:50:21Z</time>
      </trkpt>
      <trkpt lat="42.9317" lon="2.07346">
        <ele>555</ele>
        <time>2016-07-08T19:52:21Z</time>
      </trkpt>
      <trkpt lat="42.93172" lon="2.07339">
        <ele>555</ele>
        <time>2016-07-08T19:54:21Z</time>
      </trkpt>
      <trkpt lat="42.93175" lon="2.07329">
        <ele>554</ele>
        <time>2016-07-08T19:56:21Z</time>
      </trkpt>
      <trkpt lat="42.93194" lon="2.07278">
        <ele>554</ele>
        <time>2016-07-08T19:58:21Z</time>
      </trkpt>
      <trkpt lat="42.93196" lon="2.07265">
        <ele>554</ele>
        <time>2016-07-08T20:00:21Z</time>
      </trkpt>
      <trkpt lat="42.93196" lon="2.07253">
        <ele>554</ele>
        <time>2016-07-08T20:02:21Z</time>
      </trkpt>
      <trkpt lat="42.93194" lon="2.07242">
        <ele>554</ele>
        <time>2016-07-08T20:04:21Z</time>
      </trkpt>
      <trkpt lat="42.93188" lon="2.0723">
        <ele>554</ele>
        <time>2016-07-08T20:06:21Z</time>
      </trkpt>
      <trkpt lat="42.93179" lon="2.07222">
        <ele>554</ele>
        <time>2016-07-08T20:08:21Z</time>
      </trkpt>
      <trkpt lat="42.93169" lon="2.07216">
        <ele>555</ele>
        <time>2016-07-08T20:10:21Z</time>
      </trkpt>
      <trkpt lat="42.93138" lon="2.07203">
        <ele>559</ele>
        <time>2016-07-08T20:12:21Z</time>
      </trkpt>
      <trkpt lat="42.93127" lon="2.07196">
        <ele>561</ele>
        <time>2016-07-08T20:14:21Z</time>
      </trkpt>
      <trkpt lat="42.93122" lon="2.07193">
        <ele>561</ele>
        <time>2016-07-08T20:16:21Z</time>
      </trkpt>
      <trkpt lat="42.93119" lon="2.07189">
        <ele>562</ele>
        <time>2016-07-08T20:18:21Z</time>
      </trkpt>
      <trkpt lat="42.93115" lon="2.07182">
        <ele>562</ele>
        <time>2016-07-08T20:20:21Z</time>
      </trkpt>
      <trkpt lat="42.93111" lon="2.07173">
        <ele>562</ele>
        <time>2016-07-08T20:22:21Z</time>
      </trkpt>
      <trkpt lat="42.93105" lon="2.07144">
        <ele>562</ele>
        <time>2016-07-08T20:24:21Z</time>
      </trkpt>
      <trkpt lat="42.931" lon="2.07115">
        <ele>563</ele>
        <time>2016-07-08T20:26:21Z</time>
      </trkpt>
      <trkpt lat="42.93095" lon="2.07087">
        <ele>564</ele>
        <time>2016-07-08T20:28:21Z</time>
      </trkpt>
      <trkpt lat="42.93093" lon="2.07058">
        <ele>564</ele>
        <time>2016-07-08T20:30:21Z</time>
      </trkpt>
      <trkpt lat="42.93093" lon="2.07053">
        <ele>564</ele>
        <time>2016-07-08T20:32:21Z</time>
      </trkpt>
      <trkpt lat="42.93093" lon="2.07047">
        <ele>564</ele>
        <time>2016-07-08T20:34:21Z</time>
      </trkpt>
      <trkpt lat="42.93094" lon="2.07038">
        <ele>564</ele>
        <time>2016-07-08T20:36:21Z</time>
      </trkpt>
      <trkpt lat="42.93095" lon="2.07031">
        <ele>564</ele>
        <time>2016-07-08T20:38:21Z</time>
      </trkpt>
      <trkpt lat="42.93097" lon="2.07017">
        <ele>563</ele>
        <time>2016-07-08T20:40:21Z</time>
      </trkpt>
      <trkpt lat="42.93097" lon="2.06998">
        <ele>563</ele>
        <time>2016-07-08T20:42:21Z</time>
      </trkpt>
      <trkpt lat="42.93097" lon="2.06982">
        <ele>564</ele>
        <time>2016-07-08T20:44:21Z</time>
      </trkpt>
      <trkpt lat="42.93098" lon="2.06977">
        <ele>563</ele>
        <time>2016-07-08T20:46:21Z</time>
      </trkpt>
      <trkpt lat="42.93098" lon="2.06972">
        <ele>563</ele>
        <time>2016-07-08T20:48:21Z</time>
      </trkpt>
      <trkpt lat="42.93098" lon="2.0697">
        <ele>563</ele>
        <time>2016-07-08T20:50:21Z</time>
      </trkpt>
      <trkpt lat="42.93098" lon="2.06953">
        <ele>564</ele>
        <time>2016-07-08T20:52:21Z</time>
      </trkpt>
      <trkpt lat="42.931" lon="2.06932">
        <ele>563</ele>
        <time>2016-07-08T20:54:21Z</time>
      </trkpt>
      <trkpt lat="42.93103" lon="2.06895">
        <ele>563</ele>
        <time>2016-07-08T20:56:21Z</time>
      </trkpt>
      <trkpt lat="42.93107" lon="2.06838">
        <ele>562</ele>
        <time>2016-07-08T20:58:21Z</time>
      </trkpt>
      <trkpt lat="42.93111" lon="2.06774">
        <ele>560</ele>
        <time>2016-07-08T21:00:21Z</time>
      </trkpt>
      <trkpt lat="42.93112" lon="2.06761">
        <ele>560</ele>
        <time>2016-07-08T21:02:21Z</time>
      </trkpt>
      <trkpt lat="42.93112" lon="2.0674">
        <ele>560</ele>
        <time>2016-07-08T21:04:21Z</time>
      </trkpt>
      <trkpt lat="42.93112" lon="2.06717">
        <ele>560</ele>
        <time>2016-07-08T21:06:21Z</time>
      </trkpt>
      <trkpt lat="42.93112" lon="2.06706">
        <ele>560</ele>
        <time>2016-07-08T21:08:21Z</time>
      </trkpt>
      <trkpt lat="42.93114" lon="2.0669">
        <ele>560</ele>
        <time>2016-07-08T21:10:21Z</time>
      </trkpt>
      <trkpt lat="42.93116" lon="2.06677">
        <ele>559</ele>
        <time>2016-07-08T21:12:21Z</time>
      </trkpt>
      <trkpt lat="42.93118" lon="2.06663">
        <ele>558</ele>
        <time>2016-07-08T21:14:21Z</time>
      </trkpt>
      <trkpt lat="42.93121" lon="2.06638">
        <ele>556</ele>
        <time>2016-07-08T21:16:21Z</time>
      </trkpt>
      <trkpt lat="42.93123" lon="2.0659">
        <ele>553</ele>
        <time>2016-07-08T21:18:21Z</time>
      </trkpt>
      <trkpt lat="42.93126" lon="2.06482">
        <ele>554</ele>
        <time>2016-07-08T21:20:21Z</time>
      </trkpt>
      <trkpt lat="42.9313" lon="2.0639">
        <ele>552</ele>
        <time>2016-07-08T21:22:21Z</time>
      </trkpt>
      <trkpt lat="42.93131" lon="2.06311">
        <ele>551</ele>
        <time>2016-07-08T21:24:21Z</time>
      </trkpt>
      <trkpt lat="42.93132" lon="2.06206">
        <ele>552</ele>
        <time>2016-07-08T21:26:21Z</time>
      </trkpt>
      <trkpt lat="42.93133" lon="2.06187">
        <ele>552</ele>
        <time>2016-07-08T21:28:21Z</time>
      </trkpt>
      <trkpt lat="42.93135" lon="2.06143">
        <ele>551</ele>
        <time>2016-07-08T21:30:21Z</time>
      </trkpt>
      <trkpt lat="42.93151" lon="2.05986">
        <ele>545</ele>
        <time>2016-07-08T21:32:21Z</time>
      </trkpt>
      <trkpt lat="42.93158" lon="2.05906">
        <ele>545</ele>
        <time>2016-07-08T21:34:21Z</time>
      </trkpt>
      <trkpt lat="42.93163" lon="2.05837">
        <ele>546</ele>
        <time>2016-07-08T21:36:21Z</time>
      </trkpt>
      <trkpt lat="42.93169" lon="2.05741">
        <ele>548</ele>
        <time>2016-07-08T21:38:21Z</time>
      </trkpt>
      <trkpt lat="42.93174" lon="2.05633">
        <ele>545</ele>
        <time>2016-07-08T21:40:21Z</time>
      </trkpt>
      <trkpt lat="42.93173" lon="2.05598">
        <ele>545</ele>
        <time>2016-07-08T21:42:21Z</time>
      </trkpt>
      <trkpt lat="42.9317" lon="2.05563">
        <ele>545</ele>
        <time>2016-07-08T21:44:21Z</time>
      </trkpt>
      <trkpt lat="42.93169" lon="2.05534">
        <ele>545</ele>
        <time>2016-07-08T21:46:21Z</time>
      </trkpt>
      <trkpt lat="42.9317" lon="2.05496">
        <ele>544</ele>
        <time>2016-07-08T21:48:21Z</time>
      </trkpt>
      <trkpt lat="42.93168" lon="2.05464">
        <ele>543</ele>
        <time>2016-07-08T21:50:21Z</time>
      </trkpt>
      <trkpt lat="42.93166" lon="2.0544">
        <ele>543</ele>
        <time>2016-07-08T21:52:21Z</time>
      </trkpt>
      <trkpt lat="42.93166" lon="2.05432">
        <ele>543</ele>
        <time>2016-07-08T21:54:21Z</time>
      </trkpt>
      <trkpt lat="42.93165" lon="2.05422">
        <ele>543</ele>
        <time>2016-07-08T21:56:21Z</time>
      </trkpt>
      <trkpt lat="42.93162" lon="2.0541">
        <ele>543</ele>
        <time>2016-07-08T21:58:21Z</time>
      </trkpt>
      <trkpt lat="42.93147" lon="2.05363">
        <ele>542</ele>
        <time>2016-07-08T22:00:21Z</time>
      </trkpt>
      <trkpt lat="42.93145" lon="2.05354">
        <ele>541</ele>
        <time>2016-07-08T22:02:21Z</time>
      </trkpt>
      <trkpt lat="42.93141" lon="2.05343">
        <ele>541</ele>
        <time>2016-07-08T22:04:21Z</time>
      </trkpt>
      <trkpt lat="42.93133" lon="2.05304">
        <ele>537</ele>
        <time>2016-07-08T22:06:21Z</time>
      </trkpt>
      <trkpt lat="42.93129" lon="2.05279">
        <ele>534</ele>
        <time>2016-07-08T22:08:21Z</time>
      </trkpt>
      <trkpt lat="42.93127" lon="2.05273">
        <ele>533</ele>
        <time>2016-07-08T22:10:21Z</time>
      </trkpt>
      <trkpt lat="42.93124" lon="2.05267">
        <ele>533</ele>
        <time>2016-07-08T22:12:21Z</time>
      </trkpt>
      <trkpt lat="42.93121" lon="2.05264">
        <ele>533</ele>
        <time>2016-07-08T22:14:21Z</time>
      </trkpt>
      <trkpt lat="42.93118" lon="2.05261">
        <ele>533</ele>
        <time>2016-07-08T22:16:21Z</time>
      </trkpt>
      <trkpt lat="42.93112" lon="2.05259">
        <ele>533</ele>
        <time>2016-07-08T22:18:21Z</time>
      </trkpt>
      <trkpt lat="42.93103" lon="2.05259">
        <ele>534</ele>
        <time>2016-07-08T22:20:21Z</time>
      </trkpt>
      <trkpt lat="42.93085" lon="2.05267">
        <ele>537</ele>
        <time>2016-07-08T22:22:21Z</time>
      </trkpt>
      <trkpt lat="42.93063" lon="2.05275">
        <ele>537</ele>
        <time>2016-07-08T22:24:21Z</time>
      </trkpt>
      <trkpt lat="42.93051" lon="2.05276">
        <ele>536</ele>
        <time>2016-07-08T22:26:21Z</time>
      </trkpt>
      <trkpt lat="42.93036" lon="2.05275">
        <ele>534</ele>
        <time>2016-07-08T22:28:21Z</time>
      </trkpt>
      <trkpt lat="42.93027" lon="2.05278">
        <ele>534</ele>
        <time>2016-07-08T22:30:21Z</time>
      </trkpt>
      <trkpt lat="42.93022" lon="2.05279">
        <ele>533</ele>
        <time>2016-07-08T22:32:21Z</time>
      </trkpt>
      <trkpt lat="42.9302" lon="2.0528">
        <ele>533</ele>
        <time>2016-07-08T22:34:21Z</time>
      </trkpt>
      <trkpt lat="42.93017" lon="2.05282">
        <ele>533</ele>
        <time>2016-07-08T22:36:21Z</time>
      </trkpt>
      <trkpt lat="42.93013" lon="2.05285">
        <ele>533</ele>
        <time>2016-07-08T22:38:21Z</time>
      </trkpt>
      <trkpt lat="42.93008" lon="2.0529">
        <ele>534</ele>
        <time>2016-07-08T22:40:21Z</time>
      </trkpt>
      <trkpt lat="42.92999" lon="2.053">
        <ele>535</ele>
        <time>2016-07-08T22:42:21Z</time>
      </trkpt>
      <trkpt lat="42.92949" lon="2.05366">
        <ele>543</ele>
        <time>2016-07-08T22:44:21Z</time>
      </trkpt>
      <trkpt lat="42.92941" lon="2.05374">
        <ele>543</ele>
        <time>2016-07-08T22:46:21Z</time>
      </trkpt>
      <trkpt lat="42.92901" lon="2.0541">
        <ele>544</ele>
        <time>2016-07-08T22:48:21Z</time>
      </trkpt>
      <trkpt lat="42.92897" lon="2.05413">
        <ele>545</ele>
        <time>2016-07-08T22:50:21Z</time>
      </trkpt>
      <trkpt lat="42.92892" lon="2.05414">
        <ele>544</ele>
        <time>2016-07-08T22:52:21Z</time>
      </trkpt>
      <trkpt lat="42.92887" lon="2.05415">
        <ele>544</ele>
        <time>2016-07-08T22:54:21Z</time>
      </trkpt>
      <trkpt lat="42.92882" lon="2.05414">
        <ele>543</ele>
        <time>2016-07-08T22:56:21Z</time>
      </trkpt>
      <trkpt lat="42.92876" lon="2.05413">
        <ele>543</ele>
        <time>2016-07-08T22:58:21Z</time>
      </trkpt>
      <trkpt lat="42.9287" lon="2.0541">
        <ele>542</ele>
        <time>2016-07-08T23:00:21Z</time>
      </trkpt>
      <trkpt lat="42.92865" lon="2.05405">
        <ele>540</ele>
        <time>2016-07-08T23:02:21Z</time>
      </trkpt>
      <trkpt lat="42.92858" lon="2.05399">
        <ele>539</ele>
        <time>2016-07-08T23:04:21Z</time>
      </trkpt>
      <trkpt lat="42.92852" lon="2.05395">
        <ele>538</ele>
        <time>2016-07-08T23:06:21Z</time>
      </trkpt>
      <trkpt lat="42.92846" lon="2.05392">
        <ele>537</ele>
        <time>2016-07-08T23:08:21Z</time>
      </trkpt>
      <trkpt lat="42.92841" lon="2.05391">
        <ele>537</ele>
        <time>2016-07-08T23:10:21Z</time>
      </trkpt>
      <trkpt lat="42.92834" lon="2.05389">
        <ele>536</ele>
        <time>2016-07-08T23:12:21Z</time>
      </trkpt>
      <trkpt lat="42.92811" lon="2.05385">
        <ele>537</ele>
        <time>2016-07-08T23:14:21Z</time>
      </trkpt>
      <trkpt lat="42.92806" lon="2.05384">
        <ele>537</ele>
        <time>2016-07-08T23:16:21Z</time>
      </trkpt>
      <trkpt lat="42.92802" lon="2.05382">
        <ele>537</ele>
        <time>2016-07-08T23:18:21Z</time>
      </trkpt>
      <trkpt lat="42.92798" lon="2.05379">
        <ele>537</ele>
        <time>2016-07-08T23:20:21Z</time>
      </trkpt>
      <trkpt lat="42.92794" lon="2.05376">
        <ele>537</ele>
        <time>2016-07-08T23:22:21Z</time>
      </trkpt>
      <trkpt lat="42.92792" lon="2.05373">
        <ele>537</ele>
        <time>2016-07-08T23:24:21Z</time>
      </trkpt>
      <trkpt lat="42.9279" lon="2.0537">
        <ele>537</ele>
        <time>2016-07-08T23:26:21Z</time>
      </trkpt>
      <trkpt lat="42.92787" lon="2.05364">
        <ele>536</ele>
        <time>2016-07-08T23:28:21Z</time>
      </trkpt>
      <trkpt lat="42.92786" lon="2.0536">
        <ele>536</ele>
        <time>2016-07-08T23:30:21Z</time>
      </trkpt>
      <trkpt lat="42.9276" lon="2.05279">
        <ele>533</ele>
        <time>2016-07-08T23:32:21Z</time>
      </trkpt>
      <trkpt lat="42.92759" lon="2.05276">
        <ele>533</ele>
        <time>2016-07-08T23:34:21Z</time>
      </trkpt>
      <trkpt lat="42.92756" lon="2.05268">
        <ele>532</ele>
        <time>2016-07-08T23:36:21Z</time>
      </trkpt>
      <trkpt lat="42.92753" lon="2.05263">
        <ele>532</ele>
        <time>2016-07-08T23:38:21Z</time>
      </trkpt>
      <trkpt lat="42.9275" lon="2.05257">
        <ele>532</ele>
        <time>2016-07-08T23:40:21Z</time>
      </trkpt>
      <trkpt lat="42.92747" lon="2.05251">
        <ele>532</ele>
        <time>2016-07-08T23:42:21Z</time>
      </trkpt>
      <trkpt lat="42.92742" lon="2.05245">
        <ele>532</ele>
        <time>2016-07-08T23:44:21Z</time>
      </trkpt>
      <trkpt lat="42.92714" lon="2.05213">
        <ele>533</ele>
        <time>2016-07-08T23:46:21Z</time>
      </trkpt>
      <trkpt lat="42.9271" lon="2.05209">
        <ele>533</ele>
        <time>2016-07-08T23:48:21Z</time>
      </trkpt>
      <trkpt lat="42.92706" lon="2.05202">
        <ele>533</ele>
        <time>2016-07-08T23:50:21Z</time>
      </trkpt>
      <trkpt lat="42.92703" lon="2.05193">
        <ele>532</ele>
        <time>2016-07-08T23:52:21Z</time>
      </trkpt>
      <trkpt lat="42.92701" lon="2.05184">
        <ele>532</ele>
        <time>2016-07-08T23:54:21Z</time>
      </trkpt>
      <trkpt lat="42.92699" lon="2.05173">
        <ele>531</ele>
        <time>2016-07-08T23:56:21Z</time>
      </trkpt>
      <trkpt lat="42.92698" lon="2.05164">
        <ele>531</ele>
        <time>2016-07-08T23:58:21Z</time>
      </trkpt>
      <trkpt lat="42.92698" lon="2.05154">
        <ele>531</ele>
        <time>2016-07-09T00:00:21Z</time>
      </trkpt>
      <trkpt lat="42.92696" lon="2.05142">
        <ele>530</ele>
        <time>2016-07-09T00:02:21Z</time>
      </trkpt>
      <trkpt lat="42.92693" lon="2.05133">
        <ele>530</ele>
        <time>2016-07-09T00:04:21Z</time>
      </trkpt>
      <trkpt lat="42.9269" lon="2.05127">
        <ele>530</ele>
        <time>2016-07-09T00:06:21Z</time>
      </trkpt>
      <trkpt lat="42.92681" lon="2.05117">
        <ele>530</ele>
        <time>2016-07-09T00:08:21Z</time>
      </trkpt>
      <trkpt lat="42.92634" lon="2.05073">
        <ele>529</ele>
        <time>2016-07-09T00:10:21Z</time>
      </trkpt>
      <trkpt lat="42.92621" lon="2.05062">
        <ele>528</ele>
        <time>2016-07-09T00:12:21Z</time>
      </trkpt>
      <trkpt lat="42.92615" lon="2.05058">
        <ele>528</ele>
        <time>2016-07-09T00:14:21Z</time>
      </trkpt>
      <trkpt lat="42.92609" lon="2.05056">
        <ele>527</ele>
        <time>2016-07-09T00:16:21Z</time>
      </trkpt>
      <trkpt lat="42.92605" lon="2.05055">
        <ele>527</ele>
        <time>2016-07-09T00:18:21Z</time>
      </trkpt>
      <trkpt lat="42.92599" lon="2.05055">
        <ele>527</ele>
        <time>2016-07-09T00:20:21Z</time>
      </trkpt>
      <trkpt lat="42.92592" lon="2.05055">
        <ele>528</ele>
        <time>2016-07-09T00:22:21Z</time>
      </trkpt>
      <trkpt lat="42.92547" lon="2.05057">
        <ele>525</ele>
        <time>2016-07-09T00:24:21Z</time>
      </trkpt>
      <trkpt lat="42.92542" lon="2.05058">
        <ele>525</ele>
        <time>2016-07-09T00:26:21Z</time>
      </trkpt>
      <trkpt lat="42.92538" lon="2.05061">
        <ele>524</ele>
        <time>2016-07-09T00:28:21Z</time>
      </trkpt>
      <trkpt lat="42.92532" lon="2.05063">
        <ele>524</ele>
        <time>2016-07-09T00:30:21Z</time>
      </trkpt>
      <trkpt lat="42.92512" lon="2.05077">
        <ele>523</ele>
        <time>2016-07-09T00:32:21Z</time>
      </trkpt>
      <trkpt lat="42.92488" lon="2.05097">
        <ele>522</ele>
        <time>2016-07-09T00:34:21Z</time>
      </trkpt>
      <trkpt lat="42.92472" lon="2.05111">
        <ele>522</ele>
        <time>2016-07-09T00:36:21Z</time>
      </trkpt>
      <trkpt lat="42.92454" lon="2.05133">
        <ele>522</ele>
        <time>2016-07-09T00:38:21Z</time>
      </trkpt>
      <trkpt lat="42.92436" lon="2.05158">
        <ele>521</ele>
        <time>2016-07-09T00:40:21Z</time>
      </trkpt>
      <trkpt lat="42.92431" lon="2.05164">
        <ele>520</ele>
        <time>2016-07-09T00:42:21Z</time>
      </trkpt>
      <trkpt lat="42.92428" lon="2.05166">
        <ele>520</ele>
        <time>2016-07-09T00:44:21Z</time>
      </trkpt>
      <trkpt lat="42.92423" lon="2.05168">
        <ele>520</ele>
        <time>2016-07-09T00:46:21Z</time>
      </trkpt>
      <trkpt lat="42.92416" lon="2.05168">
        <ele>519</ele>
        <time>2016-07-09T00:48:21Z</time>
      </trkpt>
      <trkpt lat="42.92413" lon="2.05167">
        <ele>519</ele>
        <time>2016-07-09T00:50:21Z</time>
      </trkpt>
      <trkpt lat="42.9241" lon="2.05165">
        <ele>518</ele>
        <time>2016-07-09T00:52:21Z</time>
      </trkpt>
      <trkpt lat="42.92408" lon="2.0516">
        <ele>518</ele>
        <time>2016-07-09T00:54:21Z</time>
      </trkpt>
      <trkpt lat="42.92406" lon="2.05156">
        <ele>517</ele>
        <time>2016-07-09T00:56:21Z</time>
      </trkpt>
      <trkpt lat="42.92405" lon="2.05148">
        <ele>517</ele>
        <time>2016-07-09T00:58:21Z</time>
      </trkpt>
      <trkpt lat="42.92405" lon="2.05142">
        <ele>517</ele>
        <time>2016-07-09T01:00:21Z</time>
      </trkpt>
      <trkpt lat="42.92405" lon="2.05135">
        <ele>517</ele>
        <time>2016-07-09T01:02:21Z</time>
      </trkpt>
      <trkpt lat="42.92405" lon="2.05125">
        <ele>517</ele>
        <time>2016-07-09T01:04:21Z</time>
      </trkpt>
      <trkpt lat="42.92405" lon="2.05116">
        <ele>516</ele>
        <time>2016-07-09T01:06:21Z</time>
      </trkpt>
      <trkpt lat="42.92406" lon="2.05101">
        <ele>516</ele>
        <time>2016-07-09T01:08:21Z</time>
      </trkpt>
      <trkpt lat="42.92406" lon="2.05079">
        <ele>516</ele>
        <time>2016-07-09T01:10:21Z</time>
      </trkpt>
      <trkpt lat="42.92405" lon="2.05019">
        <ele>514</ele>
        <time>2016-07-09T01:12:21Z</time>
      </trkpt>
      <trkpt lat="42.92406" lon="2.05013">
        <ele>514</ele>
        <time>2016-07-09T01:14:21Z</time>
      </trkpt>
      <trkpt lat="42.92407" lon="2.05006">
        <ele>514</ele>
        <time>2016-07-09T01:16:21Z</time>
      </trkpt>
      <trkpt lat="42.92419" lon="2.04976">
        <ele>514</ele>
        <time>2016-07-09T01:18:21Z</time>
      </trkpt>
      <trkpt lat="42.9242" lon="2.04972">
        <ele>514</ele>
        <time>2016-07-09T01:20:21Z</time>
      </trkpt>
      <trkpt lat="42.92421" lon="2.04966">
        <ele>513</ele>
        <time>2016-07-09T01:22:21Z</time>
      </trkpt>
      <trkpt lat="42.92421" lon="2.04961">
        <ele>513</ele>
        <time>2016-07-09T01:24:21Z</time>
      </trkpt>
      <trkpt lat="42.92421" lon="2.04956">
        <ele>513</ele>
        <time>2016-07-09T01:26:21Z</time>
      </trkpt>
      <trkpt lat="42.9242" lon="2.04952">
        <ele>513</ele>
        <time>2016-07-09T01:28:21Z</time>
      </trkpt>
      <trkpt lat="42.92419" lon="2.04949">
        <ele>513</ele>
        <time>2016-07-09T01:30:21Z</time>
      </trkpt>
      <trkpt lat="42.92417" lon="2.04945">
        <ele>512</ele>
        <time>2016-07-09T01:32:21Z</time>
      </trkpt>
      <trkpt lat="42.92415" lon="2.04942">
        <ele>512</ele>
        <time>2016-07-09T01:34:21Z</time>
      </trkpt>
      <trkpt lat="42.92412" lon="2.04939">
        <ele>512</ele>
        <time>2016-07-09T01:36:21Z</time>
      </trkpt>
      <trkpt lat="42.92409" lon="2.04938">
        <ele>511</ele>
        <time>2016-07-09T01:38:21Z</time>
      </trkpt>
      <trkpt lat="42.92405" lon="2.04938">
        <ele>511</ele>
        <time>2016-07-09T01:40:21Z</time>
      </trkpt>
      <trkpt lat="42.924" lon="2.04938">
        <ele>510</ele>
        <time>2016-07-09T01:42:21Z</time>
      </trkpt>
      <trkpt lat="42.92394" lon="2.0494">
        <ele>510</ele>
        <time>2016-07-09T01:44:21Z</time>
      </trkpt>
      <trkpt lat="42.9239" lon="2.04942">
        <ele>510</ele>
        <time>2016-07-09T01:46:21Z</time>
      </trkpt>
      <trkpt lat="42.92386" lon="2.04946">
        <ele>509</ele>
        <time>2016-07-09T01:48:21Z</time>
      </trkpt>
      <trkpt lat="42.92379" lon="2.04949">
        <ele>509</ele>
        <time>2016-07-09T01:50:21Z</time>
      </trkpt>
      <trkpt lat="42.92375" lon="2.04949">
        <ele>509</ele>
        <time>2016-07-09T01:52:21Z</time>
      </trkpt>
      <trkpt lat="42.92367" lon="2.04949">
        <ele>508</ele>
        <time>2016-07-09T01:54:21Z</time>
      </trkpt>
      <trkpt lat="42.92363" lon="2.04948">
        <ele>507</ele>
        <time>2016-07-09T01:56:21Z</time>
      </trkpt>
      <trkpt lat="42.92358" lon="2.04946">
        <ele>507</ele>
        <time>2016-07-09T01:58:21Z</time>
      </trkpt>
      <trkpt lat="42.92352" lon="2.04944">
        <ele>506</ele>
        <time>2016-07-09T02:00:21Z</time>
      </trkpt>
      <trkpt lat="42.92341" lon="2.04937">
        <ele>505</ele>
        <time>2016-07-09T02:02:21Z</time>
      </trkpt>
      <trkpt lat="42.92337" lon="2.04935">
        <ele>504</ele>
        <time>2016-07-09T02:04:21Z</time>
      </trkpt>
      <trkpt lat="42.92333" lon="2.04933">
        <ele>504</ele>
        <time>2016-07-09T02:06:21Z</time>
      </trkpt>
      <trkpt lat="42.9233" lon="2.04932">
        <ele>504</ele>
        <time>2016-07-09T02:08:21Z</time>
      </trkpt>
      <trkpt lat="42.92326" lon="2.04932">
        <ele>503</ele>
        <time>2016-07-09T02:10:21Z</time>
      </trkpt>
      <trkpt lat="42.92323" lon="2.04932">
        <ele>503</ele>
        <time>2016-07-09T02:12:21Z</time>
      </trkpt>
      <trkpt lat="42.9232" lon="2.04932">
        <ele>503</ele>
        <time>2016-07-09T02:14:21Z</time>
      </trkpt>
      <trkpt lat="42.92317" lon="2.04933">
        <ele>503</ele>
        <time>2016-07-09T02:16:21Z</time>
      </trkpt>
      <trkpt lat="42.92316" lon="2.04934">
        <ele>503</ele>
        <time>2016-07-09T02:18:21Z</time>
      </trkpt>
      <trkpt lat="42.92311" lon="2.04935">
        <ele>503</ele>
        <time>2016-07-09T02:20:21Z</time>
      </trkpt>
      <trkpt lat="42.92307" lon="2.04939">
        <ele>503</ele>
        <time>2016-07-09T02:22:21Z</time>
      </trkpt>
      <trkpt lat="42.92302" lon="2.04946">
        <ele>503</ele>
        <time>2016-07-09T02:24:21Z</time>
      </trkpt>
      <trkpt lat="42.92295" lon="2.04953">
        <ele>503</ele>
        <time>2016-07-09T02:26:21Z</time>
      </trkpt>
      <trkpt lat="42.92291" lon="2.04957">
        <ele>503</ele>
        <time>2016-07-09T02:28:21Z</time>
      </trkpt>
      <trkpt lat="42.92287" lon="2.0496">
        <ele>503</ele>
        <time>2016-07-09T02:30:21Z</time>
      </trkpt>
      <trkpt lat="42.92281" lon="2.04961">
        <ele>503</ele>
        <time>2016-07-09T02:32:21Z</time>
      </trkpt>
      <trkpt lat="42.92276" lon="2.04962">
        <ele>502</ele>
        <time>2016-07-09T02:34:21Z</time>
      </trkpt>
      <trkpt lat="42.92269" lon="2.04961">
        <ele>502</ele>
        <time>2016-07-09T02:36:21Z</time>
      </trkpt>
      <trkpt lat="42.92262" lon="2.04957">
        <ele>502</ele>
        <time>2016-07-09T02:38:21Z</time>
      </trkpt>
      <trkpt lat="42.92257" lon="2.04953">
        <ele>501</ele>
        <time>2016-07-09T02:40:21Z</time>
      </trkpt>
      <trkpt lat="42.92248" lon="2.04941">
        <ele>501</ele>
        <time>2016-07-09T02:42:21Z</time>
      </trkpt>
      <trkpt lat="42.92241" lon="2.04932">
        <ele>501</ele>
        <time>2016-07-09T02:44:21Z</time>
      </trkpt>
      <trkpt lat="42.92234" lon="2.04926">
        <ele>501</ele>
        <time>2016-07-09T02:46:21Z</time>
      </trkpt>
      <trkpt lat="42.92227" lon="2.04922">
        <ele>500</ele>
        <time>2016-07-09T02:48:21Z</time>
      </trkpt>
      <trkpt lat="42.9222" lon="2.04919">
        <ele>500</ele>
        <time>2016-07-09T02:50:21Z</time>
      </trkpt>
      <trkpt lat="42.92214" lon="2.04915">
        <ele>500</ele>
        <time>2016-07-09T02:52:21Z</time>
      </trkpt>
      <trkpt lat="42.92211" lon="2.04914">
        <ele>499</ele>
        <time>2016-07-09T02:54:21Z</time>
      </trkpt>
      <trkpt lat="42.92209" lon="2.04913">
        <ele>499</ele>
        <time>2016-07-09T02:56:21Z</time>
      </trkpt>
      <trkpt lat="42.92205" lon="2.04909">
        <ele>499</ele>
        <time>2016-07-09T02:58:21Z</time>
      </trkpt>
      <trkpt lat="42.92201" lon="2.04903">
        <ele>498</ele>
        <time>2016-07-09T03:00:21Z</time>
      </trkpt>
      <trkpt lat="42.92199" lon="2.049">
        <ele>498</ele>
        <time>2016-07-09T03:02:21Z</time>
      </trkpt>
      <trkpt lat="42.92197" lon="2.04895">
        <ele>498</ele>
        <time>2016-07-09T03:04:21Z</time>
      </trkpt>
      <trkpt lat="42.92195" lon="2.04886">
        <ele>497</ele>
        <time>2016-07-09T03:06:21Z</time>
      </trkpt>
      <trkpt lat="42.92188" lon="2.04847">
        <ele>495</ele>
        <time>2016-07-09T03:08:21Z</time>
      </trkpt>
      <trkpt lat="42.92187" lon="2.0484">
        <ele>494</ele>
        <time>2016-07-09T03:10:21Z</time>
      </trkpt>
      <trkpt lat="42.92185" lon="2.04831">
        <ele>493</ele>
        <time>2016-07-09T03:12:21Z</time>
      </trkpt>
      <trkpt lat="42.92182" lon="2.04825">
        <ele>493</ele>
        <time>2016-07-09T03:14:21Z</time>
      </trkpt>
      <trkpt lat="42.9218" lon="2.04818">
        <ele>492</ele>
        <time>2016-07-09T03:16:21Z</time>
      </trkpt>
      <trkpt lat="42.92174" lon="2.0481">
        <ele>491</ele>
        <time>2016-07-09T03:18:21Z</time>
      </trkpt>
      <trkpt lat="42.92169" lon="2.04803">
        <ele>490</ele>
        <time>2016-07-09T03:20:21Z</time>
      </trkpt>
      <trkpt lat="42.92164" lon="2.04799">
        <ele>490</ele>
        <time>2016-07-09T03:22:21Z</time>
      </trkpt>
      <trkpt lat="42.92159" lon="2.04794">
        <ele>490</ele>
        <time>2016-07-09T03:24:21Z</time>
      </trkpt>
      <trkpt lat="42.92152" lon="2.04788">
        <ele>489</ele>
        <time>2016-07-09T03:26:21Z</time>
      </trkpt>
      <trkpt lat="42.92133" lon="2.04767">
        <ele>487</ele>
        <time>2016-07-09T03:28:21Z</time>
      </trkpt>
      <trkpt lat="42.92129" lon="2.04765">
        <ele>487</ele>
        <time>2016-07-09T03:30:21Z</time>
      </trkpt>
      <trkpt lat="42.92124" lon="2.04762">
        <ele>487</ele>
        <time>2016-07-09T03:32:21Z</time>
      </trkpt>
      <trkpt lat="42.92118" lon="2.04759">
        <ele>487</ele>
        <time>2016-07-09T03:34:21Z</time>
      </trkpt>
      <trkpt lat="42.92113" lon="2.04757">
        <ele>486</ele>
        <time>2016-07-09T03:36:21Z</time>
      </trkpt>
      <trkpt lat="42.92109" lon="2.04756">
        <ele>486</ele>
        <time>2016-07-09T03:38:21Z</time>
      </trkpt>
      <trkpt lat="42.92107" lon="2.04757">
        <ele>486</ele>
        <time>2016-07-09T03:40:21Z</time>
      </trkpt>
      <trkpt lat="42.92107" lon="2.04757">
        <ele>486</ele>
        <time>2016-07-09T03:42:21Z</time>
      </trkpt>
      <trkpt lat="42.92104" lon="2.04758">
        <ele>487</ele>
        <time>2016-07-09T03:44:21Z</time>
      </trkpt>
      <trkpt lat="42.921" lon="2.0476">
        <ele>487</ele>
        <time>2016-07-09T03:46:21Z</time>
      </trkpt>
      <trkpt lat="42.92082" lon="2.04775">
        <ele>487</ele>
        <time>2016-07-09T03:48:21Z</time>
      </trkpt>
      <trkpt lat="42.92042" lon="2.04808">
        <ele>487</ele>
        <time>2016-07-09T03:50:21Z</time>
      </trkpt>
      <trkpt lat="42.92042" lon="2.04808">
        <ele>487</ele>
        <time>2016-07-09T03:52:21Z</time>
      </trkpt>
      <trkpt lat="42.92056" lon="2.04752">
        <ele>484</ele>
        <time>2016-07-09T03:54:21Z</time>
      </trkpt>
      <trkpt lat="42.92063" lon="2.04727">
        <ele>484</ele>
        <time>2016-07-09T03:56:21Z</time>
      </trkpt>
      <trkpt lat="42.92068" lon="2.04709">
        <ele>483</ele>
        <time>2016-07-09T03:58:21Z</time>
      </trkpt>
      <trkpt lat="42.92072" lon="2.04694">
        <ele>483</ele>
        <time>2016-07-09T04:00:21Z</time>
      </trkpt>
      <trkpt lat="42.92078" lon="2.04672">
        <ele>482</ele>
        <time>2016-07-09T04:02:21Z</time>
      </trkpt>
      <trkpt lat="42.9208" lon="2.04662">
        <ele>482</ele>
        <time>2016-07-09T04:04:21Z</time>
      </trkpt>
      <trkpt lat="42.92081" lon="2.04654">
        <ele>483</ele>
        <time>2016-07-09T04:06:21Z</time>
      </trkpt>
      <trkpt lat="42.92082" lon="2.04648">
        <ele>483</ele>
        <time>2016-07-09T04:08:21Z</time>
      </trkpt>
      <trkpt lat="42.92082" lon="2.04643">
        <ele>484</ele>
        <time>2016-07-09T04:10:21Z</time>
      </trkpt>
      <trkpt lat="42.92082" lon="2.04639">
        <ele>484</ele>
        <time>2016-07-09T04:12:21Z</time>
      </trkpt>
      <trkpt lat="42.92082" lon="2.04634">
        <ele>485</ele>
        <time>2016-07-09T04:14:21Z</time>
      </trkpt>
      <trkpt lat="42.92081" lon="2.04627">
        <ele>485</ele>
        <time>2016-07-09T04:16:21Z</time>
      </trkpt>
      <trkpt lat="42.92073" lon="2.04588">
        <ele>488</ele>
        <time>2016-07-09T04:18:21Z</time>
      </trkpt>
      <trkpt lat="42.92073" lon="2.04588">
        <ele>488</ele>
        <time>2016-07-09T04:20:21Z</time>
      </trkpt>
      <trkpt lat="42.92042" lon="2.04595">
        <ele>486</ele>
        <time>2016-07-09T04:22:21Z</time>
      </trkpt>
      <trkpt lat="42.92002" lon="2.04606">
        <ele>482</ele>
        <time>2016-07-09T04:24:21Z</time>
      </trkpt>
      <trkpt lat="42.91999" lon="2.04608">
        <ele>482</ele>
        <time>2016-07-09T04:26:21Z</time>
      </trkpt>
      <trkpt lat="42.91996" lon="2.0461">
        <ele>482</ele>
        <time>2016-07-09T04:28:21Z</time>
      </trkpt>
      <trkpt lat="42.91994" lon="2.04615">
        <ele>481</ele>
        <time>2016-07-09T04:30:21Z</time>
      </trkpt>
      <trkpt lat="42.91994" lon="2.0462">
        <ele>481</ele>
        <time>2016-07-09T04:32:21Z</time>
      </trkpt>
      <trkpt lat="42.91993" lon="2.04626">
        <ele>480</ele>
        <time>2016-07-09T04:34:21Z</time>
      </trkpt>
      <trkpt lat="42.91992" lon="2.0463">
        <ele>480</ele>
        <time>2016-07-09T04:36:21Z</time>
      </trkpt>
      <trkpt lat="42.91991" lon="2.04636">
        <ele>479</ele>
        <time>2016-07-09T04:38:21Z</time>
      </trkpt>
      <trkpt lat="42.91991" lon="2.04636">
        <ele>479</ele>
        <time>2016-07-09T04:40:21Z</time>
      </trkpt>
      <trkpt lat="42.91979" lon="2.0463">
        <ele>479</ele>
        <time>2016-07-09T04:42:21Z</time>
      </trkpt>
      <trkpt lat="42.91976" lon="2.04628">
        <ele>479</ele>
        <time>2016-07-09T04:44:21Z</time>
      </trkpt>
      <trkpt lat="42.91974" lon="2.04627">
        <ele>479</ele>
        <time>2016-07-09T04:46:21Z</time>
      </trkpt>
      <trkpt lat="42.91969" lon="2.04622">
        <ele>479</ele>
        <time>2016-07-09T04:48:21Z</time>
      </trkpt>
      <trkpt lat="42.91955" lon="2.0461">
        <ele>479</ele>
        <time>2016-07-09T04:50:21Z</time>
      </trkpt>
      <trkpt lat="42.91947" lon="2.04603">
        <ele>479</ele>
        <time>2016-07-09T04:52:21Z</time>
      </trkpt>
      <trkpt lat="42.91943" lon="2.04598">
        <ele>479</ele>
        <time>2016-07-09T04:54:21Z</time>
      </trkpt>
      <trkpt lat="42.91937" lon="2.0459">
        <ele>479</ele>
        <time>2016-07-09T04:56:21Z</time>
      </trkpt>
      <trkpt lat="42.91931" lon="2.04581">
        <ele>479</ele>
        <time>2016-07-09T04:58:21Z</time>
      </trkpt>
      <trkpt lat="42.91929" lon="2.04575">
        <ele>479</ele>
        <time>2016-07-09T05:00:21Z</time>
      </trkpt>
      <trkpt lat="42.91918" lon="2.04553">
        <ele>480</ele>
        <time>2016-07-09T05:02:21Z</time>
      </trkpt>
      <trkpt lat="42.91915" lon="2.0455">
        <ele>480</ele>
        <time>2016-07-09T05:04:21Z</time>
      </trkpt>
      <trkpt lat="42.91911" lon="2.04546">
        <ele>480</ele>
        <time>2016-07-09T05:06:21Z</time>
      </trkpt>
      <trkpt lat="42.91894" lon="2.04532">
        <ele>480</ele>
        <time>2016-07-09T05:08:21Z</time>
      </trkpt>
      <trkpt lat="42.9188" lon="2.04524">
        <ele>479</ele>
        <time>2016-07-09T05:10:21Z</time>
      </trkpt>
      <trkpt lat="42.91869" lon="2.04517">
        <ele>479</ele>
        <time>2016-07-09T05:12:21Z</time>
      </trkpt>
      <trkpt lat="42.91863" lon="2.04515">
        <ele>479</ele>
        <time>2016-07-09T05:14:21Z</time>
      </trkpt>
      <trkpt lat="42.91859" lon="2.04514">
        <ele>479</ele>
        <time>2016-07-09T05:16:21Z</time>
      </trkpt>
      <trkpt lat="42.91827" lon="2.04508">
        <ele>479</ele>
        <time>2016-07-09T05:18:21Z</time>
      </trkpt>
      <trkpt lat="42.91816" lon="2.04506">
        <ele>479</ele>
        <time>2016-07-09T05:20:21Z</time>
      </trkpt>
      <trkpt lat="42.91808" lon="2.04505">
        <ele>479</ele>
        <time>2016-07-09T05:22:21Z</time>
      </trkpt>
      <trkpt lat="42.918" lon="2.04506">
        <ele>479</ele>
        <time>2016-07-09T05:24:21Z</time>
      </trkpt>
      <trkpt lat="42.91795" lon="2.04507">
        <ele>479</ele>
        <time>2016-07-09T05:26:21Z</time>
      </trkpt>
      <trkpt lat="42.91789" lon="2.04508">
        <ele>479</ele>
        <time>2016-07-09T05:28:21Z</time>
      </trkpt>
      <trkpt lat="42.91762" lon="2.04509">
        <ele>479</ele>
        <time>2016-07-09T05:30:21Z</time>
      </trkpt>
      <trkpt lat="42.91762" lon="2.04509">
        <ele>479</ele>
        <time>2016-07-09T05:32:21Z</time>
      </trkpt>
      <trkpt lat="42.91738" lon="2.04501">
        <ele>480</ele>
        <time>2016-07-09T05:34:21Z</time>
      </trkpt>
      <trkpt lat="42.91722" lon="2.04496">
        <ele>480</ele>
        <time>2016-07-09T05:36:21Z</time>
      </trkpt>
      <trkpt lat="42.91714" lon="2.0449">
        <ele>481</ele>
        <time>2016-07-09T05:38:21Z</time>
      </trkpt>
      <trkpt lat="42.91711" lon="2.04487">
        <ele>481</ele>
        <time>2016-07-09T05:40:21Z</time>
      </trkpt>
      <trkpt lat="42.91708" lon="2.04483">
        <ele>482</ele>
        <time>2016-07-09T05:42:21Z</time>
      </trkpt>
      <trkpt lat="42.91707" lon="2.04478">
        <ele>482</ele>
        <time>2016-07-09T05:44:21Z</time>
      </trkpt>
      <trkpt lat="42.91707" lon="2.04478">
        <ele>482</ele>
        <time>2016-07-09T05:46:21Z</time>
      </trkpt>
      <trkpt lat="42.91694" lon="2.04465">
        <ele>483</ele>
        <time>2016-07-09T05:48:21Z</time>
      </trkpt>
      <trkpt lat="42.91679" lon="2.04444">
        <ele>484</ele>
        <time>2016-07-09T05:50:21Z</time>
      </trkpt>
      <trkpt lat="42.91664" lon="2.04423">
        <ele>483</ele>
        <time>2016-07-09T05:52:21Z</time>
      </trkpt>
      <trkpt lat="42.91655" lon="2.04409">
        <ele>485</ele>
        <time>2016-07-09T05:54:21Z</time>
      </trkpt>
      <trkpt lat="42.91644" lon="2.04401">
        <ele>485</ele>
        <time>2016-07-09T05:56:21Z</time>
      </trkpt>
      <trkpt lat="42.91631" lon="2.04397">
        <ele>484</ele>
        <time>2016-07-09T05:58:21Z</time>
      </trkpt>
      <trkpt lat="42.91611" lon="2.04396">
        <ele>483</ele>
        <time>2016-07-09T06:00:21Z</time>
      </trkpt>
      <trkpt lat="42.91578" lon="2.04397">
        <ele>480</ele>
        <time>2016-07-09T06:02:21Z</time>
      </trkpt>
      <trkpt lat="42.91547" lon="2.04397">
        <ele>481</ele>
        <time>2016-07-09T06:04:21Z</time>
      </trkpt>
      <trkpt lat="42.91503" lon="2.04396">
        <ele>483</ele>
        <time>2016-07-09T06:06:21Z</time>
      </trkpt>
      <trkpt lat="42.91496" lon="2.04396">
        <ele>483</ele>
        <time>2016-07-09T06:08:21Z</time>
      </trkpt>
      <trkpt lat="42.91496" lon="2.04396">
        <ele>483</ele>
        <time>2016-07-09T06:10:21Z</time>
      </trkpt>
      <trkpt lat="42.91498" lon="2.04382">
        <ele>483</ele>
        <time>2016-07-09T06:12:21Z</time>
      </trkpt>
      <trkpt lat="42.91504" lon="2.04333">
        <ele>485</ele>
        <time>2016-07-09T06:14:21Z</time>
      </trkpt>
      <trkpt lat="42.91509" lon="2.04298">
        <ele>487</ele>
        <time>2016-07-09T06:16:21Z</time>
      </trkpt>
      <trkpt lat="42.91511" lon="2.04278">
        <ele>488</ele>
        <time>2016-07-09T06:18:21Z</time>
      </trkpt>
      <trkpt lat="42.91511" lon="2.04258">
        <ele>490</ele>
        <time>2016-07-09T06:20:21Z</time>
      </trkpt>
      <trkpt lat="42.91512" lon="2.04237">
        <ele>491</ele>
        <time>2016-07-09T06:22:21Z</time>
      </trkpt>
      <trkpt lat="42.91514" lon="2.04217">
        <ele>492</ele>
        <time>2016-07-09T06:24:21Z</time>
      </trkpt>
      <trkpt lat="42.91516" lon="2.042">
        <ele>493</ele>
        <time>2016-07-09T06:26:21Z</time>
      </trkpt>
      <trkpt lat="42.91519" lon="2.04189">
        <ele>494</ele>
        <time>2016-07-09T06:28:21Z</time>
      </trkpt>
      <trkpt lat="42.91523" lon="2.04178">
        <ele>494</ele>
        <time>2016-07-09T06:30:21Z</time>
      </trkpt>
      <trkpt lat="42.9153" lon="2.04162">
        <ele>495</ele>
        <time>2016-07-09T06:32:21Z</time>
      </trkpt>
      <trkpt lat="42.91538" lon="2.04143">
        <ele>496</ele>
        <time>2016-07-09T06:34:21Z</time>
      </trkpt>
      <trkpt lat="42.91544" lon="2.0413">
        <ele>496</ele>
        <time>2016-07-09T06:36:21Z</time>
      </trkpt>
      <trkpt lat="42.91545" lon="2.04127">
        <ele>496</ele>
        <time>2016-07-09T06:38:21Z</time>
      </trkpt>
      <trkpt lat="42.91545" lon="2.04125">
        <ele>496</ele>
        <time>2016-07-09T06:40:21Z</time>
      </trkpt>
      <trkpt lat="42.91541" lon="2.04116">
        <ele>496</ele>
        <time>2016-07-09T06:42:21Z</time>
      </trkpt>
      <trkpt lat="42.91528" lon="2.0409">
        <ele>497</ele>
        <time>2016-07-09T06:44:21Z</time>
      </trkpt>
      <trkpt lat="42.91517" lon="2.04068">
        <ele>496</ele>
        <time>2016-07-09T06:46:21Z</time>
      </trkpt>
      <trkpt lat="42.91507" lon="2.04051">
        <ele>496</ele>
        <time>2016-07-09T06:48:21Z</time>
      </trkpt>
      <trkpt lat="42.91506" lon="2.04048">
        <ele>496</ele>
        <time>2016-07-09T06:50:21Z</time>
      </trkpt>
      <trkpt lat="42.915" lon="2.04034">
        <ele>495</ele>
        <time>2016-07-09T06:52:21Z</time>
      </trkpt>
      <trkpt lat="42.91487" lon="2.04">
        <ele>494</ele>
        <time>2016-07-09T06:54:21Z</time>
      </trkpt>
      <trkpt lat="42.91475" lon="2.03974">
        <ele>494</ele>
        <time>2016-07-09T06:56:21Z</time>
      </trkpt>
      <trkpt lat="42.91469" lon="2.03964">
        <ele>494</ele>
        <time>2016-07-09T06:58:21Z</time>
      </trkpt>
      <trkpt lat="42.91466" lon="2.03961">
        <ele>494</ele>
        <time>2016-07-09T07:00:21Z</time>
      </trkpt>
      <trkpt lat="42.91462" lon="2.03957">
        <ele>494</ele>
        <time>2016-07-09T07:02:21Z</time>
      </trkpt>
      <trkpt lat="42.91452" lon="2.03949">
        <ele>494</ele>
        <time>2016-07-09T07:04:21Z</time>
      </trkpt>
      <trkpt lat="42.91441" lon="2.03939">
        <ele>494</ele>
        <time>2016-07-09T07:06:21Z</time>
      </trkpt>
      <trkpt lat="42.91422" lon="2.03918">
        <ele>494</ele>
        <time>2016-07-09T07:08:21Z</time>
      </trkpt>
      <trkpt lat="42.91403" lon="2.03899">
        <ele>495</ele>
        <time>2016-07-09T07:10:21Z</time>
      </trkpt>
      <trkpt lat="42.91389" lon="2.03882">
        <ele>495</ele>
        <time>2016-07-09T07:12:21Z</time>
      </trkpt>
      <trkpt lat="42.91374" lon="2.03863">
        <ele>496</ele>
        <time>2016-07-09T07:14:21Z</time>
      </trkpt>
      <trkpt lat="42.91362" lon="2.03845">
        <ele>497</ele>
        <time>2016-07-09T07:16:21Z</time>
      </trkpt>
      <trkpt lat="42.91352" lon="2.03832">
        <ele>497</ele>
        <time>2016-07-09T07:18:21Z</time>
      </trkpt>
      <trkpt lat="42.91344" lon="2.0382">
        <ele>497</ele>
        <time>2016-07-09T07:20:21Z</time>
      </trkpt>
      <trkpt lat="42.91336" lon="2.03809">
        <ele>497</ele>
        <time>2016-07-09T07:22:21Z</time>
      </trkpt>
      <trkpt lat="42.91331" lon="2.038">
        <ele>497</ele>
        <time>2016-07-09T07:24:21Z</time>
      </trkpt>
      <trkpt lat="42.91324" lon="2.03783">
        <ele>497</ele>
        <time>2016-07-09T07:26:21Z</time>
      </trkpt>
      <trkpt lat="42.91322" lon="2.03776">
        <ele>497</ele>
        <time>2016-07-09T07:28:21Z</time>
      </trkpt>
      <trkpt lat="42.91322" lon="2.03776">
        <ele>497</ele>
        <time>2016-07-09T07:30:21Z</time>
      </trkpt>
      <trkpt lat="42.91319" lon="2.03769">
        <ele>497</ele>
        <time>2016-07-09T07:32:21Z</time>
      </trkpt>
      <trkpt lat="42.91311" lon="2.03739">
        <ele>498</ele>
        <time>2016-07-09T07:34:21Z</time>
      </trkpt>
      <trkpt lat="42.91306" lon="2.03721">
        <ele>498</ele>
        <time>2016-07-09T07:36:21Z</time>
      </trkpt>
      <trkpt lat="42.913" lon="2.03707">
        <ele>499</ele>
        <time>2016-07-09T07:38:21Z</time>
      </trkpt>
      <trkpt lat="42.91295" lon="2.03697">
        <ele>499</ele>
        <time>2016-07-09T07:40:21Z</time>
      </trkpt>
      <trkpt lat="42.91283" lon="2.03682">
        <ele>499</ele>
        <time>2016-07-09T07:42:21Z</time>
      </trkpt>
      <trkpt lat="42.91274" lon="2.03674">
        <ele>500</ele>
        <time>2016-07-09T07:44:21Z</time>
      </trkpt>
      <trkpt lat="42.91271" lon="2.03669">
        <ele>500</ele>
        <time>2016-07-09T07:46:21Z</time>
      </trkpt>
      <trkpt lat="42.91269" lon="2.03661">
        <ele>500</ele>
        <time>2016-07-09T07:48:21Z</time>
      </trkpt>
      <trkpt lat="42.91267" lon="2.03647">
        <ele>501</ele>
        <time>2016-07-09T07:50:21Z</time>
      </trkpt>
      <trkpt lat="42.91265" lon="2.03627">
        <ele>502</ele>
        <time>2016-07-09T07:52:21Z</time>
      </trkpt>
      <trkpt lat="42.91263" lon="2.03612">
        <ele>503</ele>
        <time>2016-07-09T07:54:21Z</time>
      </trkpt>
      <trkpt lat="42.91259" lon="2.03599">
        <ele>503</ele>
        <time>2016-07-09T07:56:21Z</time>
      </trkpt>
      <trkpt lat="42.91248" lon="2.03575">
        <ele>504</ele>
        <time>2016-07-09T07:58:21Z</time>
      </trkpt>
      <trkpt lat="42.91237" lon="2.03549">
        <ele>505</ele>
        <time>2016-07-09T08:00:21Z</time>
      </trkpt>
      <trkpt lat="42.9123" lon="2.03534">
        <ele>505</ele>
        <time>2016-07-09T08:02:21Z</time>
      </trkpt>
      <trkpt lat="42.91226" lon="2.03527">
        <ele>505</ele>
        <time>2016-07-09T08:04:21Z</time>
      </trkpt>
      <trkpt lat="42.91219" lon="2.03518">
        <ele>505</ele>
        <time>2016-07-09T08:06:21Z</time>
      </trkpt>
      <trkpt lat="42.91214" lon="2.03511">
        <ele>505</ele>
        <time>2016-07-09T08:08:21Z</time>
      </trkpt>
      <trkpt lat="42.91205" lon="2.03494">
        <ele>506</ele>
        <time>2016-07-09T08:10:21Z</time>
      </trkpt>
      <trkpt lat="42.91188" lon="2.03464">
        <ele>507</ele>
        <time>2016-07-09T08:12:21Z</time>
      </trkpt>
      <trkpt lat="42.91176" lon="2.03441">
        <ele>508</ele>
        <time>2016-07-09T08:14:21Z</time>
      </trkpt>
      <trkpt lat="42.91168" lon="2.0343">
        <ele>508</ele>
        <time>2016-07-09T08:16:21Z</time>
      </trkpt>
      <trkpt lat="42.9116" lon="2.0342">
        <ele>509</ele>
        <time>2016-07-09T08:18:21Z</time>
      </trkpt>
      <trkpt lat="42.91149" lon="2.03407">
        <ele>510</ele>
        <time>2016-07-09T08:20:21Z</time>
      </trkpt>
      <trkpt lat="42.91142" lon="2.03399">
        <ele>510</ele>
        <time>2016-07-09T08:22:21Z</time>
      </trkpt>
      <trkpt lat="42.91134" lon="2.03384">
        <ele>511</ele>
        <time>2016-07-09T08:24:21Z</time>
      </trkpt>
      <trkpt lat="42.91124" lon="2.03359">
        <ele>513</ele>
        <time>2016-07-09T08:26:21Z</time>
      </trkpt>
      <trkpt lat="42.91113" lon="2.0333">
        <ele>514</ele>
        <time>2016-07-09T08:28:21Z</time>
      </trkpt>
      <trkpt lat="42.91106" lon="2.03309">
        <ele>516</ele>
        <time>2016-07-09T08:30:21Z</time>
      </trkpt>
      <trkpt lat="42.91098" lon="2.03289">
        <ele>518</ele>
        <time>2016-07-09T08:32:21Z</time>
      </trkpt>
      <trkpt lat="42.91089" lon="2.0327">
        <ele>519</ele>
        <time>2016-07-09T08:34:21Z</time>
      </trkpt>
      <trkpt lat="42.91077" lon="2.03248">
        <ele>520</ele>
        <time>2016-07-09T08:36:21Z</time>
      </trkpt>
      <trkpt lat="42.91066" lon="2.03231">
        <ele>521</ele>
        <time>2016-07-09T08:38:21Z</time>
      </trkpt>
      <trkpt lat="42.91055" lon="2.03215">
        <ele>522</ele>
        <time>2016-07-09T08:40:21Z</time>
      </trkpt>
      <trkpt lat="42.91046" lon="2.03198">
        <ele>523</ele>
        <time>2016-07-09T08:42:21Z</time>
      </trkpt>
      <trkpt lat="42.91037" lon="2.03181">
        <ele>524</ele>
        <time>2016-07-09T08:44:21Z</time>
      </trkpt>
      <trkpt lat="42.91027" lon="2.03162">
        <ele>525</ele>
        <time>2016-07-09T08:46:21Z</time>
      </trkpt>
      <trkpt lat="42.91021" lon="2.03151">
        <ele>526</ele>
        <time>2016-07-09T08:48:21Z</time>
      </trkpt>
      <trkpt lat="42.91019" lon="2.03148">
        <ele>526</ele>
        <time>2016-07-09T08:50:21Z</time>
      </trkpt>
      <trkpt lat="42.91013" lon="2.03138">
        <ele>527</ele>
        <time>2016-07-09T08:52:21Z</time>
      </trkpt>
      <trkpt lat="42.91013" lon="2.03138">
        <ele>527</ele>
        <time>2016-07-09T08:54:21Z</time>
      </trkpt>
      <trkpt lat="42.9101" lon="2.03119">
        <ele>528</ele>
        <time>2016-07-09T08:56:21Z</time>
      </trkpt>
      <trkpt lat="42.91007" lon="2.03107">
        <ele>529</ele>
        <time>2016-07-09T08:58:21Z</time>
      </trkpt>
      <trkpt lat="42.91005" lon="2.03099">
        <ele>529</ele>
        <time>2016-07-09T09:00:21Z</time>
      </trkpt>
      <trkpt lat="42.91" lon="2.03089">
        <ele>530</ele>
        <time>2016-07-09T09:02:21Z</time>
      </trkpt>
      <trkpt lat="42.91" lon="2.03089">
        <ele>530</ele>
        <time>2016-07-09T09:04:21Z</time>
      </trkpt>
      <trkpt lat="42.91002" lon="2.03077">
        <ele>531</ele>
        <time>2016-07-09T09:06:21Z</time>
      </trkpt>
      <trkpt lat="42.91007" lon="2.03066">
        <ele>532</ele>
        <time>2016-07-09T09:08:21Z</time>
      </trkpt>
      <trkpt lat="42.91016" lon="2.03056">
        <ele>534</ele>
        <time>2016-07-09T09:10:21Z</time>
      </trkpt>
      <trkpt lat="42.91026" lon="2.03051">
        <ele>535</ele>
        <time>2016-07-09T09:12:21Z</time>
      </trkpt>
      <trkpt lat="42.91033" lon="2.03048">
        <ele>536</ele>
        <time>2016-07-09T09:14:21Z</time>
      </trkpt>
      <trkpt lat="42.91041" lon="2.03049">
        <ele>537</ele>
        <time>2016-07-09T09:16:21Z</time>
      </trkpt>
      <trkpt lat="42.91049" lon="2.03051">
        <ele>538</ele>
        <time>2016-07-09T09:18:21Z</time>
      </trkpt>
      <trkpt lat="42.91057" lon="2.03055">
        <ele>538</ele>
        <time>2016-07-09T09:20:21Z</time>
      </trkpt>
      <trkpt lat="42.9107" lon="2.03066">
        <ele>538</ele>
        <time>2016-07-09T09:22:21Z</time>
      </trkpt>
      <trkpt lat="42.91087" lon="2.03079">
        <ele>538</ele>
        <time>2016-07-09T09:24:21Z</time>
      </trkpt>
      <trkpt lat="42.91095" lon="2.03084">
        <ele>539</ele>
        <time>2016-07-09T09:26:21Z</time>
      </trkpt>
      <trkpt lat="42.91102" lon="2.03085">
        <ele>541</ele>
        <time>2016-07-09T09:28:21Z</time>
      </trkpt>
      <trkpt lat="42.91106" lon="2.03084">
        <ele>542</ele>
        <time>2016-07-09T09:30:21Z</time>
      </trkpt>
      <trkpt lat="42.91111" lon="2.03081">
        <ele>544</ele>
        <time>2016-07-09T09:32:21Z</time>
      </trkpt>
      <trkpt lat="42.91116" lon="2.03074">
        <ele>546</ele>
        <time>2016-07-09T09:34:21Z</time>
      </trkpt>
      <trkpt lat="42.91118" lon="2.03067">
        <ele>548</ele>
        <time>2016-07-09T09:36:21Z</time>
      </trkpt>
      <trkpt lat="42.91118" lon="2.03056">
        <ele>549</ele>
        <time>2016-07-09T09:38:21Z</time>
      </trkpt>
      <trkpt lat="42.91117" lon="2.03048">
        <ele>550</ele>
        <time>2016-07-09T09:40:21Z</time>
      </trkpt>
      <trkpt lat="42.91113" lon="2.03037">
        <ele>551</ele>
        <time>2016-07-09T09:42:21Z</time>
      </trkpt>
      <trkpt lat="42.91106" lon="2.03018">
        <ele>552</ele>
        <time>2016-07-09T09:44:21Z</time>
      </trkpt>
      <trkpt lat="42.91104" lon="2.03008">
        <ele>553</ele>
        <time>2016-07-09T09:46:21Z</time>
      </trkpt>
      <trkpt lat="42.91104" lon="2.03001">
        <ele>555</ele>
        <time>2016-07-09T09:48:21Z</time>
      </trkpt>
      <trkpt lat="42.91106" lon="2.02987">
        <ele>556</ele>
        <time>2016-07-09T09:50:21Z</time>
      </trkpt>
      <trkpt lat="42.91108" lon="2.02974">
        <ele>557</ele>
        <time>2016-07-09T09:52:21Z</time>
      </trkpt>
      <trkpt lat="42.91108" lon="2.02963">
        <ele>558</ele>
        <time>2016-07-09T09:54:21Z</time>
      </trkpt>
      <trkpt lat="42.91107" lon="2.02956">
        <ele>558</ele>
        <time>2016-07-09T09:56:21Z</time>
      </trkpt>
      <trkpt lat="42.91104" lon="2.02943">
        <ele>558</ele>
        <time>2016-07-09T09:58:21Z</time>
      </trkpt>
      <trkpt lat="42.91098" lon="2.02927">
        <ele>559</ele>
        <time>2016-07-09T10:00:21Z</time>
      </trkpt>
      <trkpt lat="42.91092" lon="2.02913">
        <ele>559</ele>
        <time>2016-07-09T10:02:21Z</time>
      </trkpt>
      <trkpt lat="42.91084" lon="2.029">
        <ele>558</ele>
        <time>2016-07-09T10:04:21Z</time>
      </trkpt>
      <trkpt lat="42.91081" lon="2.02892">
        <ele>558</ele>
        <time>2016-07-09T10:06:21Z</time>
      </trkpt>
      <trkpt lat="42.9108" lon="2.02884">
        <ele>559</ele>
        <time>2016-07-09T10:08:21Z</time>
      </trkpt>
      <trkpt lat="42.9108" lon="2.02876">
        <ele>560</ele>
        <time>2016-07-09T10:10:21Z</time>
      </trkpt>
      <trkpt lat="42.91083" lon="2.02868">
        <ele>560</ele>
        <time>2016-07-09T10:12:21Z</time>
      </trkpt>
      <trkpt lat="42.91087" lon="2.02861">
        <ele>561</ele>
        <time>2016-07-09T10:14:21Z</time>
      </trkpt>
      <trkpt lat="42.91094" lon="2.02857">
        <ele>563</ele>
        <time>2016-07-09T10:16:21Z</time>
      </trkpt>
      <trkpt lat="42.91102" lon="2.02855">
        <ele>564</ele>
        <time>2016-07-09T10:18:21Z</time>
      </trkpt>
      <trkpt lat="42.91109" lon="2.02853">
        <ele>565</ele>
        <time>2016-07-09T10:20:21Z</time>
      </trkpt>
      <trkpt lat="42.91113" lon="2.0285">
        <ele>565</ele>
        <time>2016-07-09T10:22:21Z</time>
      </trkpt>
      <trkpt lat="42.91119" lon="2.02844">
        <ele>566</ele>
        <time>2016-07-09T10:24:21Z</time>
      </trkpt>
      <trkpt lat="42.91123" lon="2.02834">
        <ele>567</ele>
        <time>2016-07-09T10:26:21Z</time>
      </trkpt>
      <trkpt lat="42.91128" lon="2.02822">
        <ele>569</ele>
        <time>2016-07-09T10:28:21Z</time>
      </trkpt>
      <trkpt lat="42.91132" lon="2.02816">
        <ele>571</ele>
        <time>2016-07-09T10:30:21Z</time>
      </trkpt>
      <trkpt lat="42.9114" lon="2.02813">
        <ele>572</ele>
        <time>2016-07-09T10:32:21Z</time>
      </trkpt>
      <trkpt lat="42.91149" lon="2.02812">
        <ele>573</ele>
        <time>2016-07-09T10:34:21Z</time>
      </trkpt>
      <trkpt lat="42.9116" lon="2.02813">
        <ele>575</ele>
        <time>2016-07-09T10:36:21Z</time>
      </trkpt>
      <trkpt lat="42.91167" lon="2.02812">
        <ele>576</ele>
        <time>2016-07-09T10:38:21Z</time>
      </trkpt>
      <trkpt lat="42.91179" lon="2.0281">
        <ele>578</ele>
        <time>2016-07-09T10:40:21Z</time>
      </trkpt>
      <trkpt lat="42.9119" lon="2.0281">
        <ele>579</ele>
        <time>2016-07-09T10:42:21Z</time>
      </trkpt>
      <trkpt lat="42.91199" lon="2.02809">
        <ele>580</ele>
        <time>2016-07-09T10:44:21Z</time>
      </trkpt>
      <trkpt lat="42.91206" lon="2.0281">
        <ele>581</ele>
        <time>2016-07-09T10:46:21Z</time>
      </trkpt>
      <trkpt lat="42.91218" lon="2.0281">
        <ele>583</ele>
        <time>2016-07-09T10:48:21Z</time>
      </trkpt>
      <trkpt lat="42.91229" lon="2.02811">
        <ele>584</ele>
        <time>2016-07-09T10:50:21Z</time>
      </trkpt>
      <trkpt lat="42.91234" lon="2.0281">
        <ele>585</ele>
        <time>2016-07-09T10:52:21Z</time>
      </trkpt>
      <trkpt lat="42.91239" lon="2.02806">
        <ele>586</ele>
        <time>2016-07-09T10:54:21Z</time>
      </trkpt>
      <trkpt lat="42.91245" lon="2.02795">
        <ele>588</ele>
        <time>2016-07-09T10:56:21Z</time>
      </trkpt>
      <trkpt lat="42.91245" lon="2.02795">
        <ele>588</ele>
        <time>2016-07-09T10:58:21Z</time>
      </trkpt>
      <trkpt lat="42.91246" lon="2.0279">
        <ele>589</ele>
        <time>2016-07-09T11:00:21Z</time>
      </trkpt>
      <trkpt lat="42.91246" lon="2.02784">
        <ele>590</ele>
        <time>2016-07-09T11:02:21Z</time>
      </trkpt>
      <trkpt lat="42.91244" lon="2.02775">
        <ele>591</ele>
        <time>2016-07-09T11:04:21Z</time>
      </trkpt>
      <trkpt lat="42.91237" lon="2.02765">
        <ele>592</ele>
        <time>2016-07-09T11:06:21Z</time>
      </trkpt>
      <trkpt lat="42.91225" lon="2.02751">
        <ele>593</ele>
        <time>2016-07-09T11:08:21Z</time>
      </trkpt>
      <trkpt lat="42.91218" lon="2.02742">
        <ele>593</ele>
        <time>2016-07-09T11:10:21Z</time>
      </trkpt>
      <trkpt lat="42.91213" lon="2.02729">
        <ele>594</ele>
        <time>2016-07-09T11:12:21Z</time>
      </trkpt>
      <trkpt lat="42.91207" lon="2.02711">
        <ele>596</ele>
        <time>2016-07-09T11:14:21Z</time>
      </trkpt>
      <trkpt lat="42.91203" lon="2.027">
        <ele>597</ele>
        <time>2016-07-09T11:16:21Z</time>
      </trkpt>
      <trkpt lat="42.91196" lon="2.02687">
        <ele>597</ele>
        <time>2016-07-09T11:18:21Z</time>
      </trkpt>
      <trkpt lat="42.91189" lon="2.02674">
        <ele>598</ele>
        <time>2016-07-09T11:20:21Z</time>
      </trkpt>
      <trkpt lat="42.91178" lon="2.02655">
        <ele>599</ele>
        <time>2016-07-09T11:22:21Z</time>
      </trkpt>
      <trkpt lat="42.9117" lon="2.02642">
        <ele>599</ele>
        <time>2016-07-09T11:24:21Z</time>
      </trkpt>
      <trkpt lat="42.91163" lon="2.02627">
        <ele>600</ele>
        <time>2016-07-09T11:26:21Z</time>
      </trkpt>
      <trkpt lat="42.91154" lon="2.02609">
        <ele>601</ele>
        <time>2016-07-09T11:28:21Z</time>
      </trkpt>
      <trkpt lat="42.91152" lon="2.02606">
        <ele>601</ele>
        <time>2016-07-09T11:30:21Z</time>
      </trkpt>
      <trkpt lat="42.9115" lon="2.02598">
        <ele>602</ele>
        <time>2016-07-09T11:32:21Z</time>
      </trkpt>
      <trkpt lat="42.9115" lon="2.02588">
        <ele>603</ele>
        <time>2016-07-09T11:34:21Z</time>
      </trkpt>
      <trkpt lat="42.91152" lon="2.02578">
        <ele>605</ele>
        <time>2016-07-09T11:36:21Z</time>
      </trkpt>
      <trkpt lat="42.91154" lon="2.02572">
        <ele>607</ele>
        <time>2016-07-09T11:38:21Z</time>
      </trkpt>
      <trkpt lat="42.91162" lon="2.02568">
        <ele>609</ele>
        <time>2016-07-09T11:40:21Z</time>
      </trkpt>
      <trkpt lat="42.91164" lon="2.02566">
        <ele>610</ele>
        <time>2016-07-09T11:42:21Z</time>
      </trkpt>
      <trkpt lat="42.91167" lon="2.02565">
        <ele>611</ele>
        <time>2016-07-09T11:44:21Z</time>
      </trkpt>
      <trkpt lat="42.91171" lon="2.02566">
        <ele>611</ele>
        <time>2016-07-09T11:46:21Z</time>
      </trkpt>
      <trkpt lat="42.91175" lon="2.02567">
        <ele>612</ele>
        <time>2016-07-09T11:48:21Z</time>
      </trkpt>
      <trkpt lat="42.91179" lon="2.02569">
        <ele>612</ele>
        <time>2016-07-09T11:50:21Z</time>
      </trkpt>
      <trkpt lat="42.91183" lon="2.02572">
        <ele>612</ele>
        <time>2016-07-09T11:52:21Z</time>
      </trkpt>
      <trkpt lat="42.91187" lon="2.02575">
        <ele>612</ele>
        <time>2016-07-09T11:54:21Z</time>
      </trkpt>
      <trkpt lat="42.9119" lon="2.02578">
        <ele>612</ele>
        <time>2016-07-09T11:56:21Z</time>
      </trkpt>
      <trkpt lat="42.91206" lon="2.02593">
        <ele>613</ele>
        <time>2016-07-09T11:58:21Z</time>
      </trkpt>
      <trkpt lat="42.91216" lon="2.02602">
        <ele>613</ele>
        <time>2016-07-09T12:00:21Z</time>
      </trkpt>
      <trkpt lat="42.9122" lon="2.02607">
        <ele>613</ele>
        <time>2016-07-09T12:02:21Z</time>
      </trkpt>
      <trkpt lat="42.91225" lon="2.02613">
        <ele>613</ele>
        <time>2016-07-09T12:04:21Z</time>
      </trkpt>
      <trkpt lat="42.91232" lon="2.02624">
        <ele>612</ele>
        <time>2016-07-09T12:06:21Z</time>
      </trkpt>
      <trkpt lat="42.91242" lon="2.02633">
        <ele>613</ele>
        <time>2016-07-09T12:08:21Z</time>
      </trkpt>
      <trkpt lat="42.91254" lon="2.0264">
        <ele>614</ele>
        <time>2016-07-09T12:10:21Z</time>
      </trkpt>
      <trkpt lat="42.91263" lon="2.02645">
        <ele>615</ele>
        <time>2016-07-09T12:12:21Z</time>
      </trkpt>
      <trkpt lat="42.9128" lon="2.02653">
        <ele>617</ele>
        <time>2016-07-09T12:14:21Z</time>
      </trkpt>
      <trkpt lat="42.91291" lon="2.02657">
        <ele>619</ele>
        <time>2016-07-09T12:16:21Z</time>
      </trkpt>
      <trkpt lat="42.91295" lon="2.02661">
        <ele>619</ele>
        <time>2016-07-09T12:18:21Z</time>
      </trkpt>
      <trkpt lat="42.913" lon="2.02665">
        <ele>619</ele>
        <time>2016-07-09T12:20:21Z</time>
      </trkpt>
      <trkpt lat="42.91305" lon="2.02672">
        <ele>620</ele>
        <time>2016-07-09T12:22:21Z</time>
      </trkpt>
      <trkpt lat="42.91308" lon="2.02681">
        <ele>619</ele>
        <time>2016-07-09T12:24:21Z</time>
      </trkpt>
      <trkpt lat="42.91314" lon="2.02696">
        <ele>619</ele>
        <time>2016-07-09T12:26:21Z</time>
      </trkpt>
      <trkpt lat="42.9132" lon="2.02707">
        <ele>619</ele>
        <time>2016-07-09T12:28:21Z</time>
      </trkpt>
      <trkpt lat="42.91322" lon="2.02709">
        <ele>619</ele>
        <time>2016-07-09T12:30:21Z</time>
      </trkpt>
      <trkpt lat="42.91324" lon="2.02711">
        <ele>620</ele>
        <time>2016-07-09T12:32:21Z</time>
      </trkpt>
      <trkpt lat="42.91327" lon="2.02714">
        <ele>620</ele>
        <time>2016-07-09T12:34:21Z</time>
      </trkpt>
      <trkpt lat="42.91331" lon="2.02718">
        <ele>621</ele>
        <time>2016-07-09T12:36:21Z</time>
      </trkpt>
      <trkpt lat="42.91331" lon="2.02718">
        <ele>621</ele>
        <time>2016-07-09T12:38:21Z</time>
      </trkpt>
      <trkpt lat="42.91331" lon="2.02709">
        <ele>621</ele>
        <time>2016-07-09T12:40:21Z</time>
      </trkpt>
      <trkpt lat="42.91331" lon="2.02703">
        <ele>622</ele>
        <time>2016-07-09T12:42:21Z</time>
      </trkpt>
      <trkpt lat="42.9133" lon="2.02698">
        <ele>622</ele>
        <time>2016-07-09T12:44:21Z</time>
      </trkpt>
      <trkpt lat="42.91329" lon="2.02694">
        <ele>622</ele>
        <time>2016-07-09T12:46:21Z</time>
      </trkpt>
      <trkpt lat="42.91328" lon="2.02688">
        <ele>623</ele>
        <time>2016-07-09T12:48:21Z</time>
      </trkpt>
      <trkpt lat="42.91324" lon="2.02678">
        <ele>623</ele>
        <time>2016-07-09T12:50:21Z</time>
      </trkpt>
      <trkpt lat="42.9132" lon="2.02668">
        <ele>623</ele>
        <time>2016-07-09T12:52:21Z</time>
      </trkpt>
      <trkpt lat="42.91308" lon="2.02641">
        <ele>625</ele>
        <time>2016-07-09T12:54:21Z</time>
      </trkpt>
      <trkpt lat="42.91297" lon="2.02618">
        <ele>626</ele>
        <time>2016-07-09T12:56:21Z</time>
      </trkpt>
      <trkpt lat="42.91288" lon="2.02603">
        <ele>626</ele>
        <time>2016-07-09T12:58:21Z</time>
      </trkpt>
      <trkpt lat="42.91278" lon="2.02587">
        <ele>627</ele>
        <time>2016-07-09T13:00:21Z</time>
      </trkpt>
      <trkpt lat="42.91254" lon="2.02557">
        <ele>627</ele>
        <time>2016-07-09T13:02:21Z</time>
      </trkpt>
      <trkpt lat="42.91241" lon="2.02538">
        <ele>628</ele>
        <time>2016-07-09T13:04:21Z</time>
      </trkpt>
      <trkpt lat="42.91233" lon="2.02522">
        <ele>629</ele>
        <time>2016-07-09T13:06:21Z</time>
      </trkpt>
      <trkpt lat="42.91221" lon="2.02491">
        <ele>632</ele>
        <time>2016-07-09T13:08:21Z</time>
      </trkpt>
      <trkpt lat="42.91217" lon="2.02482">
        <ele>633</ele>
        <time>2016-07-09T13:10:21Z</time>
      </trkpt>
      <trkpt lat="42.91214" lon="2.02478">
        <ele>633</ele>
        <time>2016-07-09T13:12:21Z</time>
      </trkpt>
      <trkpt lat="42.91211" lon="2.02475">
        <ele>633</ele>
        <time>2016-07-09T13:14:21Z</time>
      </trkpt>
      <trkpt lat="42.91207" lon="2.02471">
        <ele>633</ele>
        <time>2016-07-09T13:16:21Z</time>
      </trkpt>
      <trkpt lat="42.91203" lon="2.02469">
        <ele>632</ele>
        <time>2016-07-09T13:18:21Z</time>
      </trkpt>
      <trkpt lat="42.91199" lon="2.02468">
        <ele>632</ele>
        <time>2016-07-09T13:20:21Z</time>
      </trkpt>
      <trkpt lat="42.91194" lon="2.02467">
        <ele>631</ele>
        <time>2016-07-09T13:22:21Z</time>
      </trkpt>
      <trkpt lat="42.91188" lon="2.02468">
        <ele>630</ele>
        <time>2016-07-09T13:24:21Z</time>
      </trkpt>
      <trkpt lat="42.91179" lon="2.02469">
        <ele>629</ele>
        <time>2016-07-09T13:26:21Z</time>
      </trkpt>
      <trkpt lat="42.91169" lon="2.02471">
        <ele>627</ele>
        <time>2016-07-09T13:28:21Z</time>
      </trkpt>
      <trkpt lat="42.91164" lon="2.0247">
        <ele>626</ele>
        <time>2016-07-09T13:30:21Z</time>
      </trkpt>
      <trkpt lat="42.9116" lon="2.02469">
        <ele>625</ele>
        <time>2016-07-09T13:32:21Z</time>
      </trkpt>
      <trkpt lat="42.91156" lon="2.02467">
        <ele>624</ele>
        <time>2016-07-09T13:34:21Z</time>
      </trkpt>
      <trkpt lat="42.91153" lon="2.02463">
        <ele>624</ele>
        <time>2016-07-09T13:36:21Z</time>
      </trkpt>
      <trkpt lat="42.9115" lon="2.02455">
        <ele>625</ele>
        <time>2016-07-09T13:38:21Z</time>
      </trkpt>
      <trkpt lat="42.91143" lon="2.02434">
        <ele>627</ele>
        <time>2016-07-09T13:40:21Z</time>
      </trkpt>
      <trkpt lat="42.91133" lon="2.02399">
        <ele>630</ele>
        <time>2016-07-09T13:42:21Z</time>
      </trkpt>
      <trkpt lat="42.91121" lon="2.02363">
        <ele>633</ele>
        <time>2016-07-09T13:44:21Z</time>
      </trkpt>
      <trkpt lat="42.91107" lon="2.02322">
        <ele>637</ele>
        <time>2016-07-09T13:46:21Z</time>
      </trkpt>
      <trkpt lat="42.91095" lon="2.02287">
        <ele>642</ele>
        <time>2016-07-09T13:48:21Z</time>
      </trkpt>
      <trkpt lat="42.91086" lon="2.02263">
        <ele>645</ele>
        <time>2016-07-09T13:50:21Z</time>
      </trkpt>
      <trkpt lat="42.91075" lon="2.02241">
        <ele>647</ele>
        <time>2016-07-09T13:52:21Z</time>
      </trkpt>
      <trkpt lat="42.91058" lon="2.02212">
        <ele>649</ele>
        <time>2016-07-09T13:54:21Z</time>
      </trkpt>
      <trkpt lat="42.91044" lon="2.02187">
        <ele>650</ele>
        <time>2016-07-09T13:56:21Z</time>
      </trkpt>
      <trkpt lat="42.91036" lon="2.02174">
        <ele>651</ele>
        <time>2016-07-09T13:58:21Z</time>
      </trkpt>
      <trkpt lat="42.91026" lon="2.02157">
        <ele>652</ele>
        <time>2016-07-09T14:00:21Z</time>
      </trkpt>
      <trkpt lat="42.9102" lon="2.02147">
        <ele>652</ele>
        <time>2016-07-09T14:02:21Z</time>
      </trkpt>
      <trkpt lat="42.91011" lon="2.02136">
        <ele>653</ele>
        <time>2016-07-09T14:04:21Z</time>
      </trkpt>
      <trkpt lat="42.91003" lon="2.02128">
        <ele>653</ele>
        <time>2016-07-09T14:06:21Z</time>
      </trkpt>
      <trkpt lat="42.90979" lon="2.02108">
        <ele>653</ele>
        <time>2016-07-09T14:08:21Z</time>
      </trkpt>
      <trkpt lat="42.9096" lon="2.02085">
        <ele>655</ele>
        <time>2016-07-09T14:10:21Z</time>
      </trkpt>
      <trkpt lat="42.90942" lon="2.02054">
        <ele>656</ele>
        <time>2016-07-09T14:12:21Z</time>
      </trkpt>
      <trkpt lat="42.90927" lon="2.02028">
        <ele>655</ele>
        <time>2016-07-09T14:14:21Z</time>
      </trkpt>
      <trkpt lat="42.90918" lon="2.02011">
        <ele>655</ele>
        <time>2016-07-09T14:16:21Z</time>
      </trkpt>
      <trkpt lat="42.90915" lon="2.02006">
        <ele>656</ele>
        <time>2016-07-09T14:18:21Z</time>
      </trkpt>
      <trkpt lat="42.90914" lon="2.02001">
        <ele>657</ele>
        <time>2016-07-09T14:20:21Z</time>
      </trkpt>
      <trkpt lat="42.90913" lon="2.01997">
        <ele>657</ele>
        <time>2016-07-09T14:22:21Z</time>
      </trkpt>
      <trkpt lat="42.90913" lon="2.01991">
        <ele>657</ele>
        <time>2016-07-09T14:24:21Z</time>
      </trkpt>
      <trkpt lat="42.90912" lon="2.01984">
        <ele>658</ele>
        <time>2016-07-09T14:26:21Z</time>
      </trkpt>
      <trkpt lat="42.90912" lon="2.01975">
        <ele>658</ele>
        <time>2016-07-09T14:28:21Z</time>
      </trkpt>
      <trkpt lat="42.90913" lon="2.0197">
        <ele>658</ele>
        <time>2016-07-09T14:30:21Z</time>
      </trkpt>
      <trkpt lat="42.90915" lon="2.01966">
        <ele>658</ele>
        <time>2016-07-09T14:32:21Z</time>
      </trkpt>
      <trkpt lat="42.90917" lon="2.0196">
        <ele>658</ele>
        <time>2016-07-09T14:34:21Z</time>
      </trkpt>
      <trkpt lat="42.90923" lon="2.01943">
        <ele>659</ele>
        <time>2016-07-09T14:36:21Z</time>
      </trkpt>
      <trkpt lat="42.90929" lon="2.0193">
        <ele>660</ele>
        <time>2016-07-09T14:38:21Z</time>
      </trkpt>
      <trkpt lat="42.9093" lon="2.01924">
        <ele>661</ele>
        <time>2016-07-09T14:40:21Z</time>
      </trkpt>
      <trkpt lat="42.90932" lon="2.01917">
        <ele>661</ele>
        <time>2016-07-09T14:42:21Z</time>
      </trkpt>
      <trkpt lat="42.90932" lon="2.01911">
        <ele>661</ele>
        <time>2016-07-09T14:44:21Z</time>
      </trkpt>
      <trkpt lat="42.90932" lon="2.01904">
        <ele>661</ele>
        <time>2016-07-09T14:46:21Z</time>
      </trkpt>
      <trkpt lat="42.90932" lon="2.01897">
        <ele>660</ele>
        <time>2016-07-09T14:48:21Z</time>
      </trkpt>
      <trkpt lat="42.90931" lon="2.0189">
        <ele>660</ele>
        <time>2016-07-09T14:50:21Z</time>
      </trkpt>
      <trkpt lat="42.90928" lon="2.01873">
        <ele>660</ele>
        <time>2016-07-09T14:52:21Z</time>
      </trkpt>
      <trkpt lat="42.90926" lon="2.01862">
        <ele>659</ele>
        <time>2016-07-09T14:54:21Z</time>
      </trkpt>
      <trkpt lat="42.90924" lon="2.01851">
        <ele>659</ele>
        <time>2016-07-09T14:56:21Z</time>
      </trkpt>
      <trkpt lat="42.90924" lon="2.0184">
        <ele>659</ele>
        <time>2016-07-09T14:58:21Z</time>
      </trkpt>
      <trkpt lat="42.90924" lon="2.01831">
        <ele>659</ele>
        <time>2016-07-09T15:00:21Z</time>
      </trkpt>
      <trkpt lat="42.90925" lon="2.01822">
        <ele>659</ele>
        <time>2016-07-09T15:02:21Z</time>
      </trkpt>
      <trkpt lat="42.90926" lon="2.01815">
        <ele>660</ele>
        <time>2016-07-09T15:04:21Z</time>
      </trkpt>
      <trkpt lat="42.90928" lon="2.01805">
        <ele>660</ele>
        <time>2016-07-09T15:06:21Z</time>
      </trkpt>
      <trkpt lat="42.90932" lon="2.01796">
        <ele>660</ele>
        <time>2016-07-09T15:08:21Z</time>
      </trkpt>
      <trkpt lat="42.90939" lon="2.01783">
        <ele>659</ele>
        <time>2016-07-09T15:10:21Z</time>
      </trkpt>
      <trkpt lat="42.90945" lon="2.01776">
        <ele>658</ele>
        <time>2016-07-09T15:12:21Z</time>
      </trkpt>
      <trkpt lat="42.90954" lon="2.01764">
        <ele>657</ele>
        <time>2016-07-09T15:14:21Z</time>
      </trkpt>
      <trkpt lat="42.90963" lon="2.01754">
        <ele>656</ele>
        <time>2016-07-09T15:16:21Z</time>
      </trkpt>
      <trkpt lat="42.90967" lon="2.01746">
        <ele>655</ele>
        <time>2016-07-09T15:18:21Z</time>
      </trkpt>
      <trkpt lat="42.9097" lon="2.01741">
        <ele>654</ele>
        <time>2016-07-09T15:20:21Z</time>
      </trkpt>
      <trkpt lat="42.90971" lon="2.01736">
        <ele>654</ele>
        <time>2016-07-09T15:22:21Z</time>
      </trkpt>
      <trkpt lat="42.90973" lon="2.0173">
        <ele>654</ele>
        <time>2016-07-09T15:24:21Z</time>
      </trkpt>
      <trkpt lat="42.90973" lon="2.01725">
        <ele>654</ele>
        <time>2016-07-09T15:26:21Z</time>
      </trkpt>
      <trkpt lat="42.90973" lon="2.01722">
        <ele>654</ele>
        <time>2016-07-09T15:28:21Z</time>
      </trkpt>
      <trkpt lat="42.90973" lon="2.01716">
        <ele>654</ele>
        <time>2016-07-09T15:30:21Z</time>
      </trkpt>
      <trkpt lat="42.90973" lon="2.0171">
        <ele>654</ele>
        <time>2016-07-09T15:32:21Z</time>
      </trkpt>
      <trkpt lat="42.90971" lon="2.01699">
        <ele>655</ele>
        <time>2016-07-09T15:34:21Z</time>
      </trkpt>
      <trkpt lat="42.90969" lon="2.01681">
        <ele>655</ele>
        <time>2016-07-09T15:36:21Z</time>
      </trkpt>
      <trkpt lat="42.90968" lon="2.01669">
        <ele>656</ele>
        <time>2016-07-09T15:38:21Z</time>
      </trkpt>
      <trkpt lat="42.90968" lon="2.01656">
        <ele>655</ele>
        <time>2016-07-09T15:40:21Z</time>
      </trkpt>
      <trkpt lat="42.90969" lon="2.01637">
        <ele>654</ele>
        <time>2016-07-09T15:42:21Z</time>
      </trkpt>
      <trkpt lat="42.90971" lon="2.01614">
        <ele>652</ele>
        <time>2016-07-09T15:44:21Z</time>
      </trkpt>
      <trkpt lat="42.90972" lon="2.016">
        <ele>651</ele>
        <time>2016-07-09T15:46:21Z</time>
      </trkpt>
      <trkpt lat="42.90971" lon="2.0159">
        <ele>651</ele>
        <time>2016-07-09T15:48:21Z</time>
      </trkpt>
      <trkpt lat="42.90971" lon="2.01578">
        <ele>651</ele>
        <time>2016-07-09T15:50:21Z</time>
      </trkpt>
      <trkpt lat="42.90969" lon="2.0155">
        <ele>651</ele>
        <time>2016-07-09T15:52:21Z</time>
      </trkpt>
      <trkpt lat="42.90969" lon="2.01537">
        <ele>651</ele>
        <time>2016-07-09T15:54:21Z</time>
      </trkpt>
      <trkpt lat="42.9097" lon="2.01524">
        <ele>650</ele>
        <time>2016-07-09T15:56:21Z</time>
      </trkpt>
      <trkpt lat="42.90971" lon="2.01507">
        <ele>650</ele>
        <time>2016-07-09T15:58:21Z</time>
      </trkpt>
      <trkpt lat="42.90973" lon="2.01489">
        <ele>650</ele>
        <time>2016-07-09T16:00:21Z</time>
      </trkpt>
      <trkpt lat="42.90987" lon="2.01369">
        <ele>650</ele>
        <time>2016-07-09T16:02:21Z</time>
      </trkpt>
      <trkpt lat="42.9099" lon="2.01335">
        <ele>649</ele>
        <time>2016-07-09T16:04:21Z</time>
      </trkpt>
      <trkpt lat="42.90992" lon="2.01308">
        <ele>649</ele>
        <time>2016-07-09T16:06:21Z</time>
      </trkpt>
      <trkpt lat="42.90996" lon="2.01238">
        <ele>649</ele>
        <time>2016-07-09T16:08:21Z</time>
      </trkpt>
      <trkpt lat="42.90998" lon="2.01224">
        <ele>649</ele>
        <time>2016-07-09T16:10:21Z</time>
      </trkpt>
      <trkpt lat="42.91003" lon="2.01199">
        <ele>647</ele>
        <time>2016-07-09T16:12:21Z</time>
      </trkpt>
      <trkpt lat="42.91006" lon="2.01183">
        <ele>646</ele>
        <time>2016-07-09T16:14:21Z</time>
      </trkpt>
      <trkpt lat="42.91007" lon="2.01172">
        <ele>645</ele>
        <time>2016-07-09T16:16:21Z</time>
      </trkpt>
      <trkpt lat="42.91007" lon="2.01162">
        <ele>645</ele>
        <time>2016-07-09T16:18:21Z</time>
      </trkpt>
      <trkpt lat="42.91007" lon="2.01153">
        <ele>645</ele>
        <time>2016-07-09T16:20:21Z</time>
      </trkpt>
      <trkpt lat="42.91006" lon="2.01146">
        <ele>646</ele>
        <time>2016-07-09T16:22:21Z</time>
      </trkpt>
      <trkpt lat="42.91003" lon="2.01136">
        <ele>647</ele>
        <time>2016-07-09T16:24:21Z</time>
      </trkpt>
      <trkpt lat="42.90996" lon="2.0111">
        <ele>649</ele>
        <time>2016-07-09T16:26:21Z</time>
      </trkpt>
      <trkpt lat="42.90995" lon="2.01101">
        <ele>649</ele>
        <time>2016-07-09T16:28:21Z</time>
      </trkpt>
      <trkpt lat="42.90994" lon="2.01092">
        <ele>650</ele>
        <time>2016-07-09T16:30:21Z</time>
      </trkpt>
      <trkpt lat="42.90993" lon="2.01076">
        <ele>649</ele>
        <time>2016-07-09T16:32:21Z</time>
      </trkpt>
      <trkpt lat="42.90994" lon="2.01054">
        <ele>647</ele>
        <time>2016-07-09T16:34:21Z</time>
      </trkpt>
      <trkpt lat="42.90993" lon="2.01042">
        <ele>646</ele>
        <time>2016-07-09T16:36:21Z</time>
      </trkpt>
      <trkpt lat="42.90993" lon="2.01035">
        <ele>645</ele>
        <time>2016-07-09T16:38:21Z</time>
      </trkpt>
      <trkpt lat="42.9099" lon="2.01027">
        <ele>645</ele>
        <time>2016-07-09T16:40:21Z</time>
      </trkpt>
      <trkpt lat="42.90986" lon="2.01016">
        <ele>645</ele>
        <time>2016-07-09T16:42:21Z</time>
      </trkpt>
      <trkpt lat="42.90952" lon="2.00951">
        <ele>646</ele>
        <time>2016-07-09T16:44:21Z</time>
      </trkpt>
      <trkpt lat="42.90938" lon="2.00923">
        <ele>647</ele>
        <time>2016-07-09T16:46:21Z</time>
      </trkpt>
      <trkpt lat="42.90929" lon="2.00906">
        <ele>647</ele>
        <time>2016-07-09T16:48:21Z</time>
      </trkpt>
      <trkpt lat="42.90924" lon="2.00891">
        <ele>648</ele>
        <time>2016-07-09T16:50:21Z</time>
      </trkpt>
      <trkpt lat="42.90922" lon="2.00884">
        <ele>648</ele>
        <time>2016-07-09T16:52:21Z</time>
      </trkpt>
      <trkpt lat="42.90921" lon="2.00876">
        <ele>647</ele>
        <time>2016-07-09T16:54:21Z</time>
      </trkpt>
      <trkpt lat="42.90921" lon="2.00868">
        <ele>647</ele>
        <time>2016-07-09T16:56:21Z</time>
      </trkpt>
      <trkpt lat="42.90923" lon="2.00855">
        <ele>646</ele>
        <time>2016-07-09T16:58:21Z</time>
      </trkpt>
      <trkpt lat="42.90925" lon="2.00843">
        <ele>645</ele>
        <time>2016-07-09T17:00:21Z</time>
      </trkpt>
      <trkpt lat="42.90927" lon="2.00828">
        <ele>645</ele>
        <time>2016-07-09T17:02:21Z</time>
      </trkpt>
      <trkpt lat="42.9093" lon="2.00817">
        <ele>645</ele>
        <time>2016-07-09T17:04:21Z</time>
      </trkpt>
      <trkpt lat="42.90932" lon="2.00808">
        <ele>645</ele>
        <time>2016-07-09T17:06:21Z</time>
      </trkpt>
      <trkpt lat="42.90935" lon="2.008">
        <ele>644</ele>
        <time>2016-07-09T17:08:21Z</time>
      </trkpt>
      <trkpt lat="42.90939" lon="2.00791">
        <ele>644</ele>
        <time>2016-07-09T17:10:21Z</time>
      </trkpt>
      <trkpt lat="42.90944" lon="2.00781">
        <ele>643</ele>
        <time>2016-07-09T17:12:21Z</time>
      </trkpt>
      <trkpt lat="42.90951" lon="2.00771">
        <ele>642</ele>
        <time>2016-07-09T17:14:21Z</time>
      </trkpt>
      <trkpt lat="42.90957" lon="2.00762">
        <ele>641</ele>
        <time>2016-07-09T17:16:21Z</time>
      </trkpt>
      <trkpt lat="42.90961" lon="2.00754">
        <ele>640</ele>
        <time>2016-07-09T17:18:21Z</time>
      </trkpt>
      <trkpt lat="42.90964" lon="2.00749">
        <ele>639</ele>
        <time>2016-07-09T17:20:21Z</time>
      </trkpt>
      <trkpt lat="42.90967" lon="2.00743">
        <ele>639</ele>
        <time>2016-07-09T17:22:21Z</time>
      </trkpt>
      <trkpt lat="42.9097" lon="2.00737">
        <ele>638</ele>
        <time>2016-07-09T17:24:21Z</time>
      </trkpt>
      <trkpt lat="42.90972" lon="2.00728">
        <ele>638</ele>
        <time>2016-07-09T17:26:21Z</time>
      </trkpt>
      <trkpt lat="42.90977" lon="2.00705">
        <ele>638</ele>
        <time>2016-07-09T17:28:21Z</time>
      </trkpt>
      <trkpt lat="42.90984" lon="2.00666">
        <ele>638</ele>
        <time>2016-07-09T17:30:21Z</time>
      </trkpt>
      <trkpt lat="42.90989" lon="2.00631">
        <ele>637</ele>
        <time>2016-07-09T17:32:21Z</time>
      </trkpt>
      <trkpt lat="42.90991" lon="2.00607">
        <ele>637</ele>
        <time>2016-07-09T17:34:21Z</time>
      </trkpt>
      <trkpt lat="42.90991" lon="2.00574">
        <ele>638</ele>
        <time>2016-07-09T17:36:21Z</time>
      </trkpt>
      <trkpt lat="42.90991" lon="2.00539">
        <ele>641</ele>
        <time>2016-07-09T17:38:21Z</time>
      </trkpt>
      <trkpt lat="42.90994" lon="2.00511">
        <ele>642</ele>
        <time>2016-07-09T17:40:21Z</time>
      </trkpt>
      <trkpt lat="42.91005" lon="2.00452">
        <ele>643</ele>
        <time>2016-07-09T17:42:21Z</time>
      </trkpt>
      <trkpt lat="42.91009" lon="2.00429">
        <ele>643</ele>
        <time>2016-07-09T17:44:21Z</time>
      </trkpt>
      <trkpt lat="42.91011" lon="2.0041">
        <ele>643</ele>
        <time>2016-07-09T17:46:21Z</time>
      </trkpt>
      <trkpt lat="42.91011" lon="2.00395">
        <ele>643</ele>
        <time>2016-07-09T17:48:21Z</time>
      </trkpt>
      <trkpt lat="42.91009" lon="2.00377">
        <ele>644</ele>
        <time>2016-07-09T17:50:21Z</time>
      </trkpt>
      <trkpt lat="42.91008" lon="2.0036">
        <ele>644</ele>
        <time>2016-07-09T17:52:21Z</time>
      </trkpt>
      <trkpt lat="42.91007" lon="2.00348">
        <ele>644</ele>
        <time>2016-07-09T17:54:21Z</time>
      </trkpt>
      <trkpt lat="42.91007" lon="2.0034">
        <ele>644</ele>
        <time>2016-07-09T17:56:21Z</time>
      </trkpt>
      <trkpt lat="42.91008" lon="2.00332">
        <ele>644</ele>
        <time>2016-07-09T17:58:21Z</time>
      </trkpt>
      <trkpt lat="42.91013" lon="2.00316">
        <ele>643</ele>
        <time>2016-07-09T18:00:21Z</time>
      </trkpt>
      <trkpt lat="42.91021" lon="2.00287">
        <ele>643</ele>
        <time>2016-07-09T18:02:21Z</time>
      </trkpt>
      <trkpt lat="42.91026" lon="2.00267">
        <ele>642</ele>
        <time>2016-07-09T18:04:21Z</time>
      </trkpt>
      <trkpt lat="42.91031" lon="2.00249">
        <ele>642</ele>
        <time>2016-07-09T18:06:21Z</time>
      </trkpt>
      <trkpt lat="42.91032" lon="2.00245">
        <ele>642</ele>
        <time>2016-07-09T18:08:21Z</time>
      </trkpt>
      <trkpt lat="42.91032" lon="2.00241">
        <ele>642</ele>
        <time>2016-07-09T18:10:21Z</time>
      </trkpt>
      <trkpt lat="42.91031" lon="2.00235">
        <ele>642</ele>
        <time>2016-07-09T18:12:21Z</time>
      </trkpt>
      <trkpt lat="42.9103" lon="2.0023">
        <ele>643</ele>
        <time>2016-07-09T18:14:21Z</time>
      </trkpt>
      <trkpt lat="42.91028" lon="2.00223">
        <ele>644</ele>
        <time>2016-07-09T18:16:21Z</time>
      </trkpt>
      <trkpt lat="42.91015" lon="2.00188">
        <ele>649</ele>
        <time>2016-07-09T18:18:21Z</time>
      </trkpt>
      <trkpt lat="42.91011" lon="2.00178">
        <ele>651</ele>
        <time>2016-07-09T18:20:21Z</time>
      </trkpt>
      <trkpt lat="42.9101" lon="2.00171">
        <ele>651</ele>
        <time>2016-07-09T18:22:21Z</time>
      </trkpt>
      <trkpt lat="42.9101" lon="2.00163">
        <ele>652</ele>
        <time>2016-07-09T18:24:21Z</time>
      </trkpt>
      <trkpt lat="42.9101" lon="2.00157">
        <ele>653</ele>
        <time>2016-07-09T18:26:21Z</time>
      </trkpt>
      <trkpt lat="42.91012" lon="2.00151">
        <ele>652</ele>
        <time>2016-07-09T18:28:21Z</time>
      </trkpt>
      <trkpt lat="42.91013" lon="2.00146">
        <ele>653</ele>
        <time>2016-07-09T18:30:21Z</time>
      </trkpt>
      <trkpt lat="42.91015" lon="2.00143">
        <ele>652</ele>
        <time>2016-07-09T18:32:21Z</time>
      </trkpt>
      <trkpt lat="42.91017" lon="2.0014">
        <ele>652</ele>
        <time>2016-07-09T18:34:21Z</time>
      </trkpt>
      <trkpt lat="42.91021" lon="2.00137">
        <ele>651</ele>
        <time>2016-07-09T18:36:21Z</time>
      </trkpt>
      <trkpt lat="42.91024" lon="2.00134">
        <ele>650</ele>
        <time>2016-07-09T18:38:21Z</time>
      </trkpt>
      <trkpt lat="42.91041" lon="2.00127">
        <ele>645</ele>
        <time>2016-07-09T18:40:21Z</time>
      </trkpt>
      <trkpt lat="42.91048" lon="2.00123">
        <ele>642</ele>
        <time>2016-07-09T18:42:21Z</time>
      </trkpt>
      <trkpt lat="42.91052" lon="2.00118">
        <ele>641</ele>
        <time>2016-07-09T18:44:21Z</time>
      </trkpt>
      <trkpt lat="42.91056" lon="2.00114">
        <ele>640</ele>
        <time>2016-07-09T18:46:21Z</time>
      </trkpt>
      <trkpt lat="42.91058" lon="2.0011">
        <ele>640</ele>
        <time>2016-07-09T18:48:21Z</time>
      </trkpt>
      <trkpt lat="42.9106" lon="2.00105">
        <ele>640</ele>
        <time>2016-07-09T18:50:21Z</time>
      </trkpt>
      <trkpt lat="42.91062" lon="2.00099">
        <ele>639</ele>
        <time>2016-07-09T18:52:21Z</time>
      </trkpt>
      <trkpt lat="42.91063" lon="2.00093">
        <ele>640</ele>
        <time>2016-07-09T18:54:21Z</time>
      </trkpt>
      <trkpt lat="42.91063" lon="2.00087">
        <ele>640</ele>
        <time>2016-07-09T18:56:21Z</time>
      </trkpt>
      <trkpt lat="42.91064" lon="2.0008">
        <ele>640</ele>
        <time>2016-07-09T18:58:21Z</time>
      </trkpt>
      <trkpt lat="42.91063" lon="2.00051">
        <ele>641</ele>
        <time>2016-07-09T19:00:21Z</time>
      </trkpt>
      <trkpt lat="42.91064" lon="2.00007">
        <ele>641</ele>
        <time>2016-07-09T19:02:21Z</time>
      </trkpt>
      <trkpt lat="42.91065" lon="1.99979">
        <ele>608</ele>
        <time>2016-07-09T19:04:21Z</time>
      </trkpt>
      <trkpt lat="42.91069" lon="1.99946">
        <ele>610</ele>
        <time>2016-07-09T19:06:21Z</time>
      </trkpt>
      <trkpt lat="42.91072" lon="1.99897">
        <ele>611</ele>
        <time>2016-07-09T19:08:21Z</time>
      </trkpt>
      <trkpt lat="42.91072" lon="1.99796">
        <ele>614</ele>
        <time>2016-07-09T19:10:21Z</time>
      </trkpt>
      <trkpt lat="42.91072" lon="1.99777">
        <ele>617</ele>
        <time>2016-07-09T19:12:21Z</time>
      </trkpt>
      <trkpt lat="42.91073" lon="1.99765">
        <ele>619</ele>
        <time>2016-07-09T19:14:21Z</time>
      </trkpt>
      <trkpt lat="42.91074" lon="1.99755">
        <ele>620</ele>
        <time>2016-07-09T19:16:21Z</time>
      </trkpt>
      <trkpt lat="42.91077" lon="1.99743">
        <ele>620</ele>
        <time>2016-07-09T19:18:21Z</time>
      </trkpt>
      <trkpt lat="42.9108" lon="1.99734">
        <ele>620</ele>
        <time>2016-07-09T19:20:21Z</time>
      </trkpt>
      <trkpt lat="42.91085" lon="1.99724">
        <ele>619</ele>
        <time>2016-07-09T19:22:21Z</time>
      </trkpt>
      <trkpt lat="42.91097" lon="1.99707">
        <ele>615</ele>
        <time>2016-07-09T19:24:21Z</time>
      </trkpt>
      <trkpt lat="42.91105" lon="1.99693">
        <ele>613</ele>
        <time>2016-07-09T19:26:21Z</time>
      </trkpt>
      <trkpt lat="42.91116" lon="1.99674">
        <ele>611</ele>
        <time>2016-07-09T19:28:21Z</time>
      </trkpt>
      <trkpt lat="42.9113" lon="1.99645">
        <ele>607</ele>
        <time>2016-07-09T19:30:21Z</time>
      </trkpt>
      <trkpt lat="42.91141" lon="1.99619">
        <ele>605</ele>
        <time>2016-07-09T19:32:21Z</time>
      </trkpt>
      <trkpt lat="42.91145" lon="1.99604">
        <ele>604</ele>
        <time>2016-07-09T19:34:21Z</time>
      </trkpt>
      <trkpt lat="42.91149" lon="1.99589">
        <ele>604</ele>
        <time>2016-07-09T19:36:21Z</time>
      </trkpt>
      <trkpt lat="42.9115" lon="1.99573">
        <ele>605</ele>
        <time>2016-07-09T19:38:21Z</time>
      </trkpt>
      <trkpt lat="42.91152" lon="1.99545">
        <ele>606</ele>
        <time>2016-07-09T19:40:21Z</time>
      </trkpt>
      <trkpt lat="42.91154" lon="1.99527">
        <ele>607</ele>
        <time>2016-07-09T19:42:21Z</time>
      </trkpt>
      <trkpt lat="42.91156" lon="1.99507">
        <ele>608</ele>
        <time>2016-07-09T19:44:21Z</time>
      </trkpt>
      <trkpt lat="42.91158" lon="1.99489">
        <ele>608</ele>
        <time>2016-07-09T19:46:21Z</time>
      </trkpt>
      <trkpt lat="42.9116" lon="1.99475">
        <ele>608</ele>
        <time>2016-07-09T19:48:21Z</time>
      </trkpt>
      <trkpt lat="42.91164" lon="1.99456">
        <ele>608</ele>
        <time>2016-07-09T19:50:21Z</time>
      </trkpt>
      <trkpt lat="42.91166" lon="1.99447">
        <ele>608</ele>
        <time>2016-07-09T19:52:21Z</time>
      </trkpt>
      <trkpt lat="42.91169" lon="1.99433">
        <ele>608</ele>
        <time>2016-07-09T19:54:21Z</time>
      </trkpt>
      <trkpt lat="42.91171" lon="1.99413">
        <ele>609</ele>
        <time>2016-07-09T19:56:21Z</time>
      </trkpt>
      <trkpt lat="42.91172" lon="1.99392">
        <ele>610</ele>
        <time>2016-07-09T19:58:21Z</time>
      </trkpt>
      <trkpt lat="42.91172" lon="1.99355">
        <ele>611</ele>
        <time>2016-07-09T20:00:21Z</time>
      </trkpt>
      <trkpt lat="42.91173" lon="1.99336">
        <ele>611</ele>
        <time>2016-07-09T20:02:21Z</time>
      </trkpt>
      <trkpt lat="42.91176" lon="1.99312">
        <ele>612</ele>
        <time>2016-07-09T20:04:21Z</time>
      </trkpt>
      <trkpt lat="42.9118" lon="1.99263">
        <ele>614</ele>
        <time>2016-07-09T20:06:21Z</time>
      </trkpt>
      <trkpt lat="42.91182" lon="1.99245">
        <ele>614</ele>
        <time>2016-07-09T20:08:21Z</time>
      </trkpt>
      <trkpt lat="42.91181" lon="1.99231">
        <ele>614</ele>
        <time>2016-07-09T20:10:21Z</time>
      </trkpt>
      <trkpt lat="42.9118" lon="1.99216">
        <ele>613</ele>
        <time>2016-07-09T20:12:21Z</time>
      </trkpt>
      <trkpt lat="42.91178" lon="1.99196">
        <ele>613</ele>
        <time>2016-07-09T20:14:21Z</time>
      </trkpt>
      <trkpt lat="42.91175" lon="1.9917">
        <ele>613</ele>
        <time>2016-07-09T20:16:21Z</time>
      </trkpt>
      <trkpt lat="42.9117" lon="1.99137">
        <ele>613</ele>
        <time>2016-07-09T20:18:21Z</time>
      </trkpt>
      <trkpt lat="42.91165" lon="1.99106">
        <ele>613</ele>
        <time>2016-07-09T20:20:21Z</time>
      </trkpt>
      <trkpt lat="42.91163" lon="1.99059">
        <ele>613</ele>
        <time>2016-07-09T20:22:21Z</time>
      </trkpt>
      <trkpt lat="42.9116" lon="1.99002">
        <ele>612</ele>
        <time>2016-07-09T20:24:21Z</time>
      </trkpt>
      <trkpt lat="42.91152" lon="1.98896">
        <ele>611</ele>
        <time>2016-07-09T20:26:21Z</time>
      </trkpt>
      <trkpt lat="42.91144" lon="1.98768">
        <ele>610</ele>
        <time>2016-07-09T20:28:21Z</time>
      </trkpt>
      <trkpt lat="42.91143" lon="1.98753">
        <ele>610</ele>
        <time>2016-07-09T20:30:21Z</time>
      </trkpt>
      <trkpt lat="42.91142" lon="1.98738">
        <ele>610</ele>
        <time>2016-07-09T20:32:21Z</time>
      </trkpt>
      <trkpt lat="42.91139" lon="1.98705">
        <ele>610</ele>
        <time>2016-07-09T20:34:21Z</time>
      </trkpt>
      <trkpt lat="42.91118" lon="1.98477">
        <ele>608</ele>
        <time>2016-07-09T20:36:21Z</time>
      </trkpt>
      <trkpt lat="42.91109" lon="1.98274">
        <ele>599</ele>
        <time>2016-07-09T20:38:21Z</time>
      </trkpt>
      <trkpt lat="42.91106" lon="1.98197">
        <ele>595</ele>
        <time>2016-07-09T20:40:21Z</time>
      </trkpt>
      <trkpt lat="42.91105" lon="1.98175">
        <ele>594</ele>
        <time>2016-07-09T20:42:21Z</time>
      </trkpt>
      <trkpt lat="42.91104" lon="1.98166">
        <ele>594</ele>
        <time>2016-07-09T20:44:21Z</time>
      </trkpt>
      <trkpt lat="42.91103" lon="1.98158">
        <ele>594</ele>
        <time>2016-07-09T20:46:21Z</time>
      </trkpt>
      <trkpt lat="42.91102" lon="1.98153">
        <ele>594</ele>
        <time>2016-07-09T20:48:21Z</time>
      </trkpt>
      <trkpt lat="42.911" lon="1.98147">
        <ele>594</ele>
        <time>2016-07-09T20:50:21Z</time>
      </trkpt>
      <trkpt lat="42.91098" lon="1.98142">
        <ele>595</ele>
        <time>2016-07-09T20:52:21Z</time>
      </trkpt>
      <trkpt lat="42.91091" lon="1.98132">
        <ele>596</ele>
        <time>2016-07-09T20:54:21Z</time>
      </trkpt>
      <trkpt lat="42.91081" lon="1.98118">
        <ele>599</ele>
        <time>2016-07-09T20:56:21Z</time>
      </trkpt>
      <trkpt lat="42.91072" lon="1.98108">
        <ele>600</ele>
        <time>2016-07-09T20:58:21Z</time>
      </trkpt>
      <trkpt lat="42.91068" lon="1.98103">
        <ele>601</ele>
        <time>2016-07-09T21:00:21Z</time>
      </trkpt>
      <trkpt lat="42.91065" lon="1.98097">
        <ele>601</ele>
        <time>2016-07-09T21:02:21Z</time>
      </trkpt>
      <trkpt lat="42.91064" lon="1.98092">
        <ele>601</ele>
        <time>2016-07-09T21:04:21Z</time>
      </trkpt>
      <trkpt lat="42.91061" lon="1.98085">
        <ele>601</ele>
        <time>2016-07-09T21:06:21Z</time>
      </trkpt>
      <trkpt lat="42.91061" lon="1.98078">
        <ele>601</ele>
        <time>2016-07-09T21:08:21Z</time>
      </trkpt>
      <trkpt lat="42.91062" lon="1.98049">
        <ele>598</ele>
        <time>2016-07-09T21:10:21Z</time>
      </trkpt>
      <trkpt lat="42.91064" lon="1.9804">
        <ele>597</ele>
        <time>2016-07-09T21:12:21Z</time>
      </trkpt>
      <trkpt lat="42.91066" lon="1.98033">
        <ele>596</ele>
        <time>2016-07-09T21:14:21Z</time>
      </trkpt>
      <trkpt lat="42.91069" lon="1.98026">
        <ele>595</ele>
        <time>2016-07-09T21:16:21Z</time>
      </trkpt>
      <trkpt lat="42.91072" lon="1.98021">
        <ele>594</ele>
        <time>2016-07-09T21:18:21Z</time>
      </trkpt>
      <trkpt lat="42.91083" lon="1.98006">
        <ele>590</ele>
        <time>2016-07-09T21:20:21Z</time>
      </trkpt>
      <trkpt lat="42.91092" lon="1.97991">
        <ele>586</ele>
        <time>2016-07-09T21:22:21Z</time>
      </trkpt>
      <trkpt lat="42.91096" lon="1.97982">
        <ele>584</ele>
        <time>2016-07-09T21:24:21Z</time>
      </trkpt>
      <trkpt lat="42.91098" lon="1.97972">
        <ele>583</ele>
        <time>2016-07-09T21:26:21Z</time>
      </trkpt>
      <trkpt lat="42.91099" lon="1.97964">
        <ele>582</ele>
        <time>2016-07-09T21:28:21Z</time>
      </trkpt>
      <trkpt lat="42.91099" lon="1.97956">
        <ele>581</ele>
        <time>2016-07-09T21:30:21Z</time>
      </trkpt>
      <trkpt lat="42.91101" lon="1.97924">
        <ele>578</ele>
        <time>2016-07-09T21:32:21Z</time>
      </trkpt>
      <trkpt lat="42.91105" lon="1.97846">
        <ele>572</ele>
        <time>2016-07-09T21:34:21Z</time>
      </trkpt>
      <trkpt lat="42.91107" lon="1.97775">
        <ele>571</ele>
        <time>2016-07-09T21:36:21Z</time>
      </trkpt>
      <trkpt lat="42.91106" lon="1.97751">
        <ele>571</ele>
        <time>2016-07-09T21:38:21Z</time>
      </trkpt>
      <trkpt lat="42.91105" lon="1.97738">
        <ele>572</ele>
        <time>2016-07-09T21:40:21Z</time>
      </trkpt>
      <trkpt lat="42.91103" lon="1.97724">
        <ele>573</ele>
        <time>2016-07-09T21:42:21Z</time>
      </trkpt>
      <trkpt lat="42.911" lon="1.97707">
        <ele>574</ele>
        <time>2016-07-09T21:44:21Z</time>
      </trkpt>
      <trkpt lat="42.91097" lon="1.97699">
        <ele>575</ele>
        <time>2016-07-09T21:46:21Z</time>
      </trkpt>
      <trkpt lat="42.91095" lon="1.97694">
        <ele>575</ele>
        <time>2016-07-09T21:48:21Z</time>
      </trkpt>
      <trkpt lat="42.91093" lon="1.97689">
        <ele>576</ele>
        <time>2016-07-09T21:50:21Z</time>
      </trkpt>
      <trkpt lat="42.91087" lon="1.97682">
        <ele>577</ele>
        <time>2016-07-09T21:52:21Z</time>
      </trkpt>
      <trkpt lat="42.91081" lon="1.97677">
        <ele>578</ele>
        <time>2016-07-09T21:54:21Z</time>
      </trkpt>
      <trkpt lat="42.91073" lon="1.97672">
        <ele>580</ele>
        <time>2016-07-09T21:56:21Z</time>
      </trkpt>
      <trkpt lat="42.91064" lon="1.97665">
        <ele>582</ele>
        <time>2016-07-09T21:58:21Z</time>
      </trkpt>
      <trkpt lat="42.91061" lon="1.97661">
        <ele>583</ele>
        <time>2016-07-09T22:00:21Z</time>
      </trkpt>
      <trkpt lat="42.91058" lon="1.97658">
        <ele>583</ele>
        <time>2016-07-09T22:02:21Z</time>
      </trkpt>
      <trkpt lat="42.91056" lon="1.97655">
        <ele>584</ele>
        <time>2016-07-09T22:04:21Z</time>
      </trkpt>
      <trkpt lat="42.91053" lon="1.97647">
        <ele>585</ele>
        <time>2016-07-09T22:06:21Z</time>
      </trkpt>
      <trkpt lat="42.91051" lon="1.97636">
        <ele>585</ele>
        <time>2016-07-09T22:08:21Z</time>
      </trkpt>
      <trkpt lat="42.9105" lon="1.976">
        <ele>587</ele>
        <time>2016-07-09T22:10:21Z</time>
      </trkpt>
      <trkpt lat="42.91051" lon="1.97569">
        <ele>587</ele>
        <time>2016-07-09T22:12:21Z</time>
      </trkpt>
      <trkpt lat="42.91051" lon="1.97549">
        <ele>588</ele>
        <time>2016-07-09T22:14:21Z</time>
      </trkpt>
      <trkpt lat="42.9105" lon="1.97524">
        <ele>589</ele>
        <time>2016-07-09T22:16:21Z</time>
      </trkpt>
      <trkpt lat="42.91049" lon="1.97498">
        <ele>590</ele>
        <time>2016-07-09T22:18:21Z</time>
      </trkpt>
      <trkpt lat="42.91047" lon="1.97468">
        <ele>590</ele>
        <time>2016-07-09T22:20:21Z</time>
      </trkpt>
      <trkpt lat="42.91047" lon="1.97452">
        <ele>589</ele>
        <time>2016-07-09T22:22:21Z</time>
      </trkpt>
      <trkpt lat="42.91047" lon="1.97435">
        <ele>589</ele>
        <time>2016-07-09T22:24:21Z</time>
      </trkpt>
      <trkpt lat="42.91049" lon="1.97419">
        <ele>589</ele>
        <time>2016-07-09T22:26:21Z</time>
      </trkpt>
      <trkpt lat="42.91051" lon="1.97405">
        <ele>589</ele>
        <time>2016-07-09T22:28:21Z</time>
      </trkpt>
      <trkpt lat="42.91053" lon="1.97392">
        <ele>589</ele>
        <time>2016-07-09T22:30:21Z</time>
      </trkpt>
      <trkpt lat="42.91053" lon="1.97392">
        <ele>589</ele>
        <time>2016-07-09T22:32:21Z</time>
      </trkpt>
      <trkpt lat="42.9105" lon="1.97388">
        <ele>589</ele>
        <time>2016-07-09T22:34:21Z</time>
      </trkpt>
      <trkpt lat="42.91049" lon="1.97388">
        <ele>589</ele>
        <time>2016-07-09T22:36:21Z</time>
      </trkpt>
      <trkpt lat="42.91049" lon="1.97387">
        <ele>589</ele>
        <time>2016-07-09T22:38:21Z</time>
      </trkpt>
      <trkpt lat="42.91048" lon="1.97385">
        <ele>588</ele>
        <time>2016-07-09T22:40:21Z</time>
      </trkpt>
      <trkpt lat="42.91045" lon="1.9738">
        <ele>588</ele>
        <time>2016-07-09T22:42:21Z</time>
      </trkpt>
      <trkpt lat="42.91044" lon="1.97376">
        <ele>588</ele>
        <time>2016-07-09T22:44:21Z</time>
      </trkpt>
      <trkpt lat="42.91044" lon="1.97371">
        <ele>588</ele>
        <time>2016-07-09T22:46:21Z</time>
      </trkpt>
      <trkpt lat="42.91043" lon="1.97362">
        <ele>587</ele>
        <time>2016-07-09T22:48:21Z</time>
      </trkpt>
      <trkpt lat="42.91044" lon="1.97337">
        <ele>587</ele>
        <time>2016-07-09T22:50:21Z</time>
      </trkpt>
      <trkpt lat="42.91044" lon="1.97318">
        <ele>586</ele>
        <time>2016-07-09T22:52:21Z</time>
      </trkpt>
      <trkpt lat="42.91044" lon="1.97303">
        <ele>586</ele>
        <time>2016-07-09T22:54:21Z</time>
      </trkpt>
      <trkpt lat="42.91043" lon="1.9729">
        <ele>586</ele>
        <time>2016-07-09T22:56:21Z</time>
      </trkpt>
      <trkpt lat="42.91043" lon="1.97277">
        <ele>586</ele>
        <time>2016-07-09T22:58:21Z</time>
      </trkpt>
      <trkpt lat="42.91042" lon="1.97266">
        <ele>585</ele>
        <time>2016-07-09T23:00:21Z</time>
      </trkpt>
      <trkpt lat="42.91041" lon="1.97257">
        <ele>585</ele>
        <time>2016-07-09T23:02:21Z</time>
      </trkpt>
      <trkpt lat="42.91039" lon="1.97247">
        <ele>585</ele>
        <time>2016-07-09T23:04:21Z</time>
      </trkpt>
      <trkpt lat="42.91037" lon="1.97237">
        <ele>584</ele>
        <time>2016-07-09T23:06:21Z</time>
      </trkpt>
      <trkpt lat="42.91036" lon="1.9723">
        <ele>584</ele>
        <time>2016-07-09T23:08:21Z</time>
      </trkpt>
      <trkpt lat="42.91035" lon="1.97222">
        <ele>583</ele>
        <time>2016-07-09T23:10:21Z</time>
      </trkpt>
      <trkpt lat="42.91035" lon="1.97213">
        <ele>583</ele>
        <time>2016-07-09T23:12:21Z</time>
      </trkpt>
      <trkpt lat="42.91035" lon="1.97205">
        <ele>583</ele>
        <time>2016-07-09T23:14:21Z</time>
      </trkpt>
      <trkpt lat="42.91035" lon="1.97195">
        <ele>582</ele>
        <time>2016-07-09T23:16:21Z</time>
      </trkpt>
      <trkpt lat="42.91035" lon="1.97183">
        <ele>582</ele>
        <time>2016-07-09T23:18:21Z</time>
      </trkpt>
      <trkpt lat="42.91035" lon="1.9717">
        <ele>582</ele>
        <time>2016-07-09T23:20:21Z</time>
      </trkpt>
      <trkpt lat="42.91037" lon="1.97151">
        <ele>581</ele>
        <time>2016-07-09T23:22:21Z</time>
      </trkpt>
      <trkpt lat="42.91039" lon="1.97136">
        <ele>580</ele>
        <time>2016-07-09T23:24:21Z</time>
      </trkpt>
      <trkpt lat="42.91041" lon="1.97117">
        <ele>580</ele>
        <time>2016-07-09T23:26:21Z</time>
      </trkpt>
      <trkpt lat="42.91043" lon="1.97104">
        <ele>579</ele>
        <time>2016-07-09T23:28:21Z</time>
      </trkpt>
      <trkpt lat="42.91045" lon="1.97093">
        <ele>579</ele>
        <time>2016-07-09T23:30:21Z</time>
      </trkpt>
      <trkpt lat="42.91045" lon="1.97087">
        <ele>579</ele>
        <time>2016-07-09T23:32:21Z</time>
      </trkpt>
      <trkpt lat="42.91046" lon="1.97082">
        <ele>578</ele>
        <time>2016-07-09T23:34:21Z</time>
      </trkpt>
      <trkpt lat="42.91046" lon="1.97076">
        <ele>578</ele>
        <time>2016-07-09T23:36:21Z</time>
      </trkpt>
      <trkpt lat="42.91046" lon="1.97069">
        <ele>578</ele>
        <time>2016-07-09T23:38:21Z</time>
      </trkpt>
      <trkpt lat="42.91045" lon="1.97048">
        <ele>576</ele>
        <time>2016-07-09T23:40:21Z</time>
      </trkpt>
      <trkpt lat="42.91043" lon="1.97022">
        <ele>575</ele>
        <time>2016-07-09T23:42:21Z</time>
      </trkpt>
      <trkpt lat="42.91042" lon="1.97">
        <ele>574</ele>
        <time>2016-07-09T23:44:21Z</time>
      </trkpt>
      <trkpt lat="42.91041" lon="1.96981">
        <ele>572</ele>
        <time>2016-07-09T23:46:21Z</time>
      </trkpt>
      <trkpt lat="42.9104" lon="1.96972">
        <ele>572</ele>
        <time>2016-07-09T23:48:21Z</time>
      </trkpt>
      <trkpt lat="42.91039" lon="1.96967">
        <ele>571</ele>
        <time>2016-07-09T23:50:21Z</time>
      </trkpt>
      <trkpt lat="42.91037" lon="1.96963">
        <ele>571</ele>
        <time>2016-07-09T23:52:21Z</time>
      </trkpt>
      <trkpt lat="42.91035" lon="1.96958">
        <ele>570</ele>
        <time>2016-07-09T23:54:21Z</time>
      </trkpt>
      <trkpt lat="42.91034" lon="1.96958">
        <ele>570</ele>
        <time>2016-07-09T23:56:21Z</time>
      </trkpt>
      <trkpt lat="42.91032" lon="1.96954">
        <ele>570</ele>
        <time>2016-07-09T23:58:21Z</time>
      </trkpt>
      <trkpt lat="42.91028" lon="1.9695">
        <ele>569</ele>
        <time>2016-07-10T00:00:21Z</time>
      </trkpt>
      <trkpt lat="42.91024" lon="1.96945">
        <ele>569</ele>
        <time>2016-07-10T00:02:21Z</time>
      </trkpt>
      <trkpt lat="42.91023" lon="1.96942">
        <ele>568</ele>
        <time>2016-07-10T00:04:21Z</time>
      </trkpt>
      <trkpt lat="42.91022" lon="1.96937">
        <ele>568</ele>
        <time>2016-07-10T00:06:21Z</time>
      </trkpt>
      <trkpt lat="42.91021" lon="1.96932">
        <ele>568</ele>
        <time>2016-07-10T00:08:21Z</time>
      </trkpt>
      <trkpt lat="42.9102" lon="1.96925">
        <ele>567</ele>
        <time>2016-07-10T00:10:21Z</time>
      </trkpt>
      <trkpt lat="42.91021" lon="1.96914">
        <ele>567</ele>
        <time>2016-07-10T00:12:21Z</time>
      </trkpt>
      <trkpt lat="42.91021" lon="1.96903">
        <ele>566</ele>
        <time>2016-07-10T00:14:21Z</time>
      </trkpt>
      <trkpt lat="42.91021" lon="1.9688">
        <ele>565</ele>
        <time>2016-07-10T00:16:21Z</time>
      </trkpt>
      <trkpt lat="42.91022" lon="1.9686">
        <ele>565</ele>
        <time>2016-07-10T00:18:21Z</time>
      </trkpt>
      <trkpt lat="42.91023" lon="1.96846">
        <ele>564</ele>
        <time>2016-07-10T00:20:21Z</time>
      </trkpt>
      <trkpt lat="42.91023" lon="1.96838">
        <ele>564</ele>
        <time>2016-07-10T00:22:21Z</time>
      </trkpt>
      <trkpt lat="42.91024" lon="1.9683">
        <ele>564</ele>
        <time>2016-07-10T00:24:21Z</time>
      </trkpt>
      <trkpt lat="42.91026" lon="1.96823">
        <ele>564</ele>
        <time>2016-07-10T00:26:21Z</time>
      </trkpt>
      <trkpt lat="42.91027" lon="1.96817">
        <ele>563</ele>
        <time>2016-07-10T00:28:21Z</time>
      </trkpt>
      <trkpt lat="42.91028" lon="1.96812">
        <ele>563</ele>
        <time>2016-07-10T00:30:21Z</time>
      </trkpt>
      <trkpt lat="42.9103" lon="1.96807">
        <ele>563</ele>
        <time>2016-07-10T00:32:21Z</time>
      </trkpt>
      <trkpt lat="42.91032" lon="1.96802">
        <ele>563</ele>
        <time>2016-07-10T00:34:21Z</time>
      </trkpt>
      <trkpt lat="42.91036" lon="1.96796">
        <ele>563</ele>
        <time>2016-07-10T00:36:21Z</time>
      </trkpt>
      <trkpt lat="42.91042" lon="1.9679">
        <ele>563</ele>
        <time>2016-07-10T00:38:21Z</time>
      </trkpt>
      <trkpt lat="42.9105" lon="1.96781">
        <ele>564</ele>
        <time>2016-07-10T00:40:21Z</time>
      </trkpt>
      <trkpt lat="42.91054" lon="1.96775">
        <ele>564</ele>
        <time>2016-07-10T00:42:21Z</time>
      </trkpt>
      <trkpt lat="42.91055" lon="1.9677">
        <ele>564</ele>
        <time>2016-07-10T00:44:21Z</time>
      </trkpt>
      <trkpt lat="42.91056" lon="1.96766">
        <ele>563</ele>
        <time>2016-07-10T00:46:21Z</time>
      </trkpt>
      <trkpt lat="42.91057" lon="1.96763">
        <ele>563</ele>
        <time>2016-07-10T00:48:21Z</time>
      </trkpt>
      <trkpt lat="42.91057" lon="1.96758">
        <ele>563</ele>
        <time>2016-07-10T00:50:21Z</time>
      </trkpt>
      <trkpt lat="42.91057" lon="1.96752">
        <ele>563</ele>
        <time>2016-07-10T00:52:21Z</time>
      </trkpt>
      <trkpt lat="42.91056" lon="1.96745">
        <ele>563</ele>
        <time>2016-07-10T00:54:21Z</time>
      </trkpt>
      <trkpt lat="42.91054" lon="1.96736">
        <ele>562</ele>
        <time>2016-07-10T00:56:21Z</time>
      </trkpt>
      <trkpt lat="42.91053" lon="1.96726">
        <ele>562</ele>
        <time>2016-07-10T00:58:21Z</time>
      </trkpt>
      <trkpt lat="42.9105" lon="1.9671">
        <ele>561</ele>
        <time>2016-07-10T01:00:21Z</time>
      </trkpt>
      <trkpt lat="42.91049" lon="1.96694">
        <ele>560</ele>
        <time>2016-07-10T01:02:21Z</time>
      </trkpt>
      <trkpt lat="42.91049" lon="1.96685">
        <ele>560</ele>
        <time>2016-07-10T01:04:21Z</time>
      </trkpt>
      <trkpt lat="42.91049" lon="1.96677">
        <ele>559</ele>
        <time>2016-07-10T01:06:21Z</time>
      </trkpt>
      <trkpt lat="42.91049" lon="1.96675">
        <ele>559</ele>
        <time>2016-07-10T01:08:21Z</time>
      </trkpt>
      <trkpt lat="42.9105" lon="1.96662">
        <ele>559</ele>
        <time>2016-07-10T01:10:21Z</time>
      </trkpt>
      <trkpt lat="42.91051" lon="1.96643">
        <ele>559</ele>
        <time>2016-07-10T01:12:21Z</time>
      </trkpt>
      <trkpt lat="42.91052" lon="1.96633">
        <ele>559</ele>
        <time>2016-07-10T01:14:21Z</time>
      </trkpt>
      <trkpt lat="42.91052" lon="1.96626">
        <ele>559</ele>
        <time>2016-07-10T01:16:21Z</time>
      </trkpt>
      <trkpt lat="42.91051" lon="1.96616">
        <ele>559</ele>
        <time>2016-07-10T01:18:21Z</time>
      </trkpt>
      <trkpt lat="42.91051" lon="1.96607">
        <ele>559</ele>
        <time>2016-07-10T01:20:21Z</time>
      </trkpt>
      <trkpt lat="42.9105" lon="1.96598">
        <ele>558</ele>
        <time>2016-07-10T01:22:21Z</time>
      </trkpt>
      <trkpt lat="42.91048" lon="1.96591">
        <ele>558</ele>
        <time>2016-07-10T01:24:21Z</time>
      </trkpt>
      <trkpt lat="42.91047" lon="1.96587">
        <ele>558</ele>
        <time>2016-07-10T01:26:21Z</time>
      </trkpt>
      <trkpt lat="42.91048" lon="1.96581">
        <ele>558</ele>
        <time>2016-07-10T01:28:21Z</time>
      </trkpt>
      <trkpt lat="42.91048" lon="1.96576">
        <ele>558</ele>
        <time>2016-07-10T01:30:21Z</time>
      </trkpt>
      <trkpt lat="42.91049" lon="1.96568">
        <ele>558</ele>
        <time>2016-07-10T01:32:21Z</time>
      </trkpt>
      <trkpt lat="42.9105" lon="1.9656">
        <ele>558</ele>
        <time>2016-07-10T01:34:21Z</time>
      </trkpt>
      <trkpt lat="42.9105" lon="1.96553">
        <ele>558</ele>
        <time>2016-07-10T01:36:21Z</time>
      </trkpt>
      <trkpt lat="42.91049" lon="1.96545">
        <ele>557</ele>
        <time>2016-07-10T01:38:21Z</time>
      </trkpt>
      <trkpt lat="42.91048" lon="1.96537">
        <ele>557</ele>
        <time>2016-07-10T01:40:21Z</time>
      </trkpt>
      <trkpt lat="42.91044" lon="1.96528">
        <ele>556</ele>
        <time>2016-07-10T01:42:21Z</time>
      </trkpt>
      <trkpt lat="42.91042" lon="1.96523">
        <ele>556</ele>
        <time>2016-07-10T01:44:21Z</time>
      </trkpt>
      <trkpt lat="42.91041" lon="1.9652">
        <ele>556</ele>
        <time>2016-07-10T01:46:21Z</time>
      </trkpt>
      <trkpt lat="42.9104" lon="1.96514">
        <ele>555</ele>
        <time>2016-07-10T01:48:21Z</time>
      </trkpt>
      <trkpt lat="42.91039" lon="1.96505">
        <ele>555</ele>
        <time>2016-07-10T01:50:21Z</time>
      </trkpt>
      <trkpt lat="42.91038" lon="1.96493">
        <ele>555</ele>
        <time>2016-07-10T01:52:21Z</time>
      </trkpt>
      <trkpt lat="42.91036" lon="1.96481">
        <ele>554</ele>
        <time>2016-07-10T01:54:21Z</time>
      </trkpt>
      <trkpt lat="42.91034" lon="1.96472">
        <ele>554</ele>
        <time>2016-07-10T01:56:21Z</time>
      </trkpt>
      <trkpt lat="42.91033" lon="1.96463">
        <ele>553</ele>
        <time>2016-07-10T01:58:21Z</time>
      </trkpt>
      <trkpt lat="42.9103" lon="1.96455">
        <ele>552</ele>
        <time>2016-07-10T02:00:21Z</time>
      </trkpt>
      <trkpt lat="42.91029" lon="1.96452">
        <ele>552</ele>
        <time>2016-07-10T02:02:21Z</time>
      </trkpt>
      <trkpt lat="42.9102" lon="1.96426">
        <ele>550</ele>
        <time>2016-07-10T02:04:21Z</time>
      </trkpt>
      <trkpt lat="42.91014" lon="1.96406">
        <ele>548</ele>
        <time>2016-07-10T02:06:21Z</time>
      </trkpt>
      <trkpt lat="42.91008" lon="1.96389">
        <ele>546</ele>
        <time>2016-07-10T02:08:21Z</time>
      </trkpt>
      <trkpt lat="42.91004" lon="1.96378">
        <ele>545</ele>
        <time>2016-07-10T02:10:21Z</time>
      </trkpt>
      <trkpt lat="42.90999" lon="1.96365">
        <ele>543</ele>
        <time>2016-07-10T02:12:21Z</time>
      </trkpt>
      <trkpt lat="42.90994" lon="1.96352">
        <ele>543</ele>
        <time>2016-07-10T02:14:21Z</time>
      </trkpt>
      <trkpt lat="42.90991" lon="1.96341">
        <ele>542</ele>
        <time>2016-07-10T02:16:21Z</time>
      </trkpt>
      <trkpt lat="42.90989" lon="1.96333">
        <ele>542</ele>
        <time>2016-07-10T02:18:21Z</time>
      </trkpt>
      <trkpt lat="42.90988" lon="1.96327">
        <ele>542</ele>
        <time>2016-07-10T02:20:21Z</time>
      </trkpt>
      <trkpt lat="42.90988" lon="1.96325">
        <ele>542</ele>
        <time>2016-07-10T02:22:21Z</time>
      </trkpt>
      <trkpt lat="42.90987" lon="1.96318">
        <ele>541</ele>
        <time>2016-07-10T02:24:21Z</time>
      </trkpt>
      <trkpt lat="42.90986" lon="1.96314">
        <ele>541</ele>
        <time>2016-07-10T02:26:21Z</time>
      </trkpt>
      <trkpt lat="42.90987" lon="1.96308">
        <ele>541</ele>
        <time>2016-07-10T02:28:21Z</time>
      </trkpt>
      <trkpt lat="42.90987" lon="1.96301">
        <ele>541</ele>
        <time>2016-07-10T02:30:21Z</time>
      </trkpt>
      <trkpt lat="42.90987" lon="1.96293">
        <ele>541</ele>
        <time>2016-07-10T02:32:21Z</time>
      </trkpt>
      <trkpt lat="42.90987" lon="1.96287">
        <ele>541</ele>
        <time>2016-07-10T02:34:21Z</time>
      </trkpt>
      <trkpt lat="42.90988" lon="1.96278">
        <ele>540</ele>
        <time>2016-07-10T02:36:21Z</time>
      </trkpt>
      <trkpt lat="42.90988" lon="1.96271">
        <ele>540</ele>
        <time>2016-07-10T02:38:21Z</time>
      </trkpt>
      <trkpt lat="42.90988" lon="1.96263">
        <ele>540</ele>
        <time>2016-07-10T02:40:21Z</time>
      </trkpt>
      <trkpt lat="42.9099" lon="1.96255">
        <ele>540</ele>
        <time>2016-07-10T02:42:21Z</time>
      </trkpt>
      <trkpt lat="42.90991" lon="1.96245">
        <ele>540</ele>
        <time>2016-07-10T02:44:21Z</time>
      </trkpt>
      <trkpt lat="42.90993" lon="1.96233">
        <ele>539</ele>
        <time>2016-07-10T02:46:21Z</time>
      </trkpt>
      <trkpt lat="42.90995" lon="1.96223">
        <ele>539</ele>
        <time>2016-07-10T02:48:21Z</time>
      </trkpt>
      <trkpt lat="42.90996" lon="1.96214">
        <ele>539</ele>
        <time>2016-07-10T02:50:21Z</time>
      </trkpt>
      <trkpt lat="42.90998" lon="1.962">
        <ele>539</ele>
        <time>2016-07-10T02:52:21Z</time>
      </trkpt>
      <trkpt lat="42.90999" lon="1.96194">
        <ele>539</ele>
        <time>2016-07-10T02:54:21Z</time>
      </trkpt>
      <trkpt lat="42.91" lon="1.96178">
        <ele>538</ele>
        <time>2016-07-10T02:56:21Z</time>
      </trkpt>
      <trkpt lat="42.91001" lon="1.96176">
        <ele>538</ele>
        <time>2016-07-10T02:58:21Z</time>
      </trkpt>
      <trkpt lat="42.91003" lon="1.96156">
        <ele>538</ele>
        <time>2016-07-10T03:00:21Z</time>
      </trkpt>
      <trkpt lat="42.91004" lon="1.96142">
        <ele>538</ele>
        <time>2016-07-10T03:02:21Z</time>
      </trkpt>
      <trkpt lat="42.91004" lon="1.96132">
        <ele>538</ele>
        <time>2016-07-10T03:04:21Z</time>
      </trkpt>
      <trkpt lat="42.91005" lon="1.96119">
        <ele>538</ele>
        <time>2016-07-10T03:06:21Z</time>
      </trkpt>
      <trkpt lat="42.91006" lon="1.96109">
        <ele>538</ele>
        <time>2016-07-10T03:08:21Z</time>
      </trkpt>
      <trkpt lat="42.91006" lon="1.96099">
        <ele>538</ele>
        <time>2016-07-10T03:10:21Z</time>
      </trkpt>
      <trkpt lat="42.91006" lon="1.96092">
        <ele>538</ele>
        <time>2016-07-10T03:12:21Z</time>
      </trkpt>
      <trkpt lat="42.91007" lon="1.96086">
        <ele>538</ele>
        <time>2016-07-10T03:14:21Z</time>
      </trkpt>
      <trkpt lat="42.91006" lon="1.96079">
        <ele>537</ele>
        <time>2016-07-10T03:16:21Z</time>
      </trkpt>
      <trkpt lat="42.91006" lon="1.9607">
        <ele>537</ele>
        <time>2016-07-10T03:18:21Z</time>
      </trkpt>
      <trkpt lat="42.91004" lon="1.96058">
        <ele>537</ele>
        <time>2016-07-10T03:20:21Z</time>
      </trkpt>
      <trkpt lat="42.91003" lon="1.96044">
        <ele>536</ele>
        <time>2016-07-10T03:22:21Z</time>
      </trkpt>
      <trkpt lat="42.91001" lon="1.96027">
        <ele>536</ele>
        <time>2016-07-10T03:24:21Z</time>
      </trkpt>
      <trkpt lat="42.91" lon="1.96012">
        <ele>535</ele>
        <time>2016-07-10T03:26:21Z</time>
      </trkpt>
      <trkpt lat="42.91" lon="1.96004">
        <ele>535</ele>
        <time>2016-07-10T03:28:21Z</time>
      </trkpt>
      <trkpt lat="42.91" lon="1.95994">
        <ele>535</ele>
        <time>2016-07-10T03:30:21Z</time>
      </trkpt>
      <trkpt lat="42.91" lon="1.95984">
        <ele>535</ele>
        <time>2016-07-10T03:32:21Z</time>
      </trkpt>
      <trkpt lat="42.91" lon="1.95972">
        <ele>534</ele>
        <time>2016-07-10T03:34:21Z</time>
      </trkpt>
      <trkpt lat="42.91" lon="1.95955">
        <ele>534</ele>
        <time>2016-07-10T03:36:21Z</time>
      </trkpt>
      <trkpt lat="42.91" lon="1.95941">
        <ele>534</ele>
        <time>2016-07-10T03:38:21Z</time>
      </trkpt>
      <trkpt lat="42.90999" lon="1.95932">
        <ele>533</ele>
        <time>2016-07-10T03:40:21Z</time>
      </trkpt>
      <trkpt lat="42.90999" lon="1.95923">
        <ele>533</ele>
        <time>2016-07-10T03:42:21Z</time>
      </trkpt>
      <trkpt lat="42.91" lon="1.95916">
        <ele>533</ele>
        <time>2016-07-10T03:44:21Z</time>
      </trkpt>
      <trkpt lat="42.91" lon="1.9591">
        <ele>533</ele>
        <time>2016-07-10T03:46:21Z</time>
      </trkpt>
      <trkpt lat="42.91001" lon="1.95902">
        <ele>533</ele>
        <time>2016-07-10T03:48:21Z</time>
      </trkpt>
      <trkpt lat="42.91003" lon="1.95889">
        <ele>533</ele>
        <time>2016-07-10T03:50:21Z</time>
      </trkpt>
      <trkpt lat="42.91006" lon="1.95876">
        <ele>533</ele>
        <time>2016-07-10T03:52:21Z</time>
      </trkpt>
      <trkpt lat="42.91007" lon="1.95869">
        <ele>533</ele>
        <time>2016-07-10T03:54:21Z</time>
      </trkpt>
      <trkpt lat="42.91009" lon="1.95861">
        <ele>533</ele>
        <time>2016-07-10T03:56:21Z</time>
      </trkpt>
      <trkpt lat="42.91009" lon="1.95857">
        <ele>533</ele>
        <time>2016-07-10T03:58:21Z</time>
      </trkpt>
      <trkpt lat="42.91009" lon="1.95852">
        <ele>533</ele>
        <time>2016-07-10T04:00:21Z</time>
      </trkpt>
      <trkpt lat="42.91009" lon="1.95846">
        <ele>533</ele>
        <time>2016-07-10T04:02:21Z</time>
      </trkpt>
      <trkpt lat="42.91008" lon="1.9584">
        <ele>533</ele>
        <time>2016-07-10T04:04:21Z</time>
      </trkpt>
      <trkpt lat="42.91007" lon="1.95835">
        <ele>532</ele>
        <time>2016-07-10T04:06:21Z</time>
      </trkpt>
      <trkpt lat="42.91006" lon="1.9583">
        <ele>532</ele>
        <time>2016-07-10T04:08:21Z</time>
      </trkpt>
      <trkpt lat="42.91005" lon="1.95822">
        <ele>532</ele>
        <time>2016-07-10T04:10:21Z</time>
      </trkpt>
      <trkpt lat="42.91003" lon="1.95813">
        <ele>531</ele>
        <time>2016-07-10T04:12:21Z</time>
      </trkpt>
      <trkpt lat="42.91002" lon="1.958">
        <ele>531</ele>
        <time>2016-07-10T04:14:21Z</time>
      </trkpt>
      <trkpt lat="42.91001" lon="1.95789">
        <ele>530</ele>
        <time>2016-07-10T04:16:21Z</time>
      </trkpt>
      <trkpt lat="42.91" lon="1.9578">
        <ele>530</ele>
        <time>2016-07-10T04:18:21Z</time>
      </trkpt>
      <trkpt lat="42.90998" lon="1.95768">
        <ele>529</ele>
        <time>2016-07-10T04:20:21Z</time>
      </trkpt>
      <trkpt lat="42.90997" lon="1.9576">
        <ele>529</ele>
        <time>2016-07-10T04:22:21Z</time>
      </trkpt>
      <trkpt lat="42.90996" lon="1.95754">
        <ele>529</ele>
        <time>2016-07-10T04:24:21Z</time>
      </trkpt>
      <trkpt lat="42.90996" lon="1.95749">
        <ele>529</ele>
        <time>2016-07-10T04:26:21Z</time>
      </trkpt>
      <trkpt lat="42.90995" lon="1.95745">
        <ele>529</ele>
        <time>2016-07-10T04:28:21Z</time>
      </trkpt>
      <trkpt lat="42.90995" lon="1.9574">
        <ele>529</ele>
        <time>2016-07-10T04:30:21Z</time>
      </trkpt>
      <trkpt lat="42.90995" lon="1.95734">
        <ele>529</ele>
        <time>2016-07-10T04:32:21Z</time>
      </trkpt>
      <trkpt lat="42.90995" lon="1.95729">
        <ele>528</ele>
        <time>2016-07-10T04:34:21Z</time>
      </trkpt>
      <trkpt lat="42.90996" lon="1.95724">
        <ele>528</ele>
        <time>2016-07-10T04:36:21Z</time>
      </trkpt>
      <trkpt lat="42.90996" lon="1.95722">
        <ele>528</ele>
        <time>2016-07-10T04:38:21Z</time>
      </trkpt>
      <trkpt lat="42.90996" lon="1.95714">
        <ele>528</ele>
        <time>2016-07-10T04:40:21Z</time>
      </trkpt>
      <trkpt lat="42.90998" lon="1.95703">
        <ele>528</ele>
        <time>2016-07-10T04:42:21Z</time>
      </trkpt>
      <trkpt lat="42.91" lon="1.95689">
        <ele>528</ele>
        <time>2016-07-10T04:44:21Z</time>
      </trkpt>
      <trkpt lat="42.91003" lon="1.95671">
        <ele>529</ele>
        <time>2016-07-10T04:46:21Z</time>
      </trkpt>
      <trkpt lat="42.91007" lon="1.95652">
        <ele>529</ele>
        <time>2016-07-10T04:48:21Z</time>
      </trkpt>
      <trkpt lat="42.9101" lon="1.95636">
        <ele>529</ele>
        <time>2016-07-10T04:50:21Z</time>
      </trkpt>
      <trkpt lat="42.91012" lon="1.9563">
        <ele>529</ele>
        <time>2016-07-10T04:52:21Z</time>
      </trkpt>
      <trkpt lat="42.91012" lon="1.95624">
        <ele>529</ele>
        <time>2016-07-10T04:54:21Z</time>
      </trkpt>
      <trkpt lat="42.91013" lon="1.95618">
        <ele>529</ele>
        <time>2016-07-10T04:56:21Z</time>
      </trkpt>
      <trkpt lat="42.91014" lon="1.9561">
        <ele>529</ele>
        <time>2016-07-10T04:58:21Z</time>
      </trkpt>
      <trkpt lat="42.91014" lon="1.95602">
        <ele>529</ele>
        <time>2016-07-10T05:00:21Z</time>
      </trkpt>
      <trkpt lat="42.91015" lon="1.95596">
        <ele>529</ele>
        <time>2016-07-10T05:02:21Z</time>
      </trkpt>
      <trkpt lat="42.91015" lon="1.9559">
        <ele>529</ele>
        <time>2016-07-10T05:04:21Z</time>
      </trkpt>
      <trkpt lat="42.91015" lon="1.95583">
        <ele>529</ele>
        <time>2016-07-10T05:06:21Z</time>
      </trkpt>
      <trkpt lat="42.91015" lon="1.95575">
        <ele>529</ele>
        <time>2016-07-10T05:08:21Z</time>
      </trkpt>
      <trkpt lat="42.91014" lon="1.95563">
        <ele>528</ele>
        <time>2016-07-10T05:10:21Z</time>
      </trkpt>
      <trkpt lat="42.91013" lon="1.95556">
        <ele>528</ele>
        <time>2016-07-10T05:12:21Z</time>
      </trkpt>
      <trkpt lat="42.91013" lon="1.95549">
        <ele>528</ele>
        <time>2016-07-10T05:14:21Z</time>
      </trkpt>
      <trkpt lat="42.91013" lon="1.95542">
        <ele>527</ele>
        <time>2016-07-10T05:16:21Z</time>
      </trkpt>
      <trkpt lat="42.91013" lon="1.95534">
        <ele>527</ele>
        <time>2016-07-10T05:18:21Z</time>
      </trkpt>
      <trkpt lat="42.91014" lon="1.95525">
        <ele>527</ele>
        <time>2016-07-10T05:20:21Z</time>
      </trkpt>
      <trkpt lat="42.91015" lon="1.95514">
        <ele>527</ele>
        <time>2016-07-10T05:22:21Z</time>
      </trkpt>
      <trkpt lat="42.91015" lon="1.95506">
        <ele>527</ele>
        <time>2016-07-10T05:24:21Z</time>
      </trkpt>
      <trkpt lat="42.91016" lon="1.95498">
        <ele>527</ele>
        <time>2016-07-10T05:26:21Z</time>
      </trkpt>
      <trkpt lat="42.91016" lon="1.95492">
        <ele>527</ele>
        <time>2016-07-10T05:28:21Z</time>
      </trkpt>
      <trkpt lat="42.91016" lon="1.95486">
        <ele>527</ele>
        <time>2016-07-10T05:30:21Z</time>
      </trkpt>
      <trkpt lat="42.91016" lon="1.95486">
        <ele>527</ele>
        <time>2016-07-10T05:32:21Z</time>
      </trkpt>
      <trkpt lat="42.91016" lon="1.95481">
        <ele>527</ele>
        <time>2016-07-10T05:34:21Z</time>
      </trkpt>
      <trkpt lat="42.91015" lon="1.95473">
        <ele>526</ele>
        <time>2016-07-10T05:36:21Z</time>
      </trkpt>
      <trkpt lat="42.91014" lon="1.95466">
        <ele>526</ele>
        <time>2016-07-10T05:38:21Z</time>
      </trkpt>
      <trkpt lat="42.9101" lon="1.95451">
        <ele>525</ele>
        <time>2016-07-10T05:40:21Z</time>
      </trkpt>
      <trkpt lat="42.91007" lon="1.95438">
        <ele>525</ele>
        <time>2016-07-10T05:42:21Z</time>
      </trkpt>
      <trkpt lat="42.91006" lon="1.95432">
        <ele>524</ele>
        <time>2016-07-10T05:44:21Z</time>
      </trkpt>
      <trkpt lat="42.91006" lon="1.95428">
        <ele>524</ele>
        <time>2016-07-10T05:46:21Z</time>
      </trkpt>
      <trkpt lat="42.91005" lon="1.95422">
        <ele>524</ele>
        <time>2016-07-10T05:48:21Z</time>
      </trkpt>
      <trkpt lat="42.91005" lon="1.95416">
        <ele>524</ele>
        <time>2016-07-10T05:50:21Z</time>
      </trkpt>
      <trkpt lat="42.91005" lon="1.95408">
        <ele>524</ele>
        <time>2016-07-10T05:52:21Z</time>
      </trkpt>
      <trkpt lat="42.91008" lon="1.9539">
        <ele>524</ele>
        <time>2016-07-10T05:54:21Z</time>
      </trkpt>
      <trkpt lat="42.9101" lon="1.95373">
        <ele>524</ele>
        <time>2016-07-10T05:56:21Z</time>
      </trkpt>
      <trkpt lat="42.91013" lon="1.95356">
        <ele>524</ele>
        <time>2016-07-10T05:58:21Z</time>
      </trkpt>
      <trkpt lat="42.91016" lon="1.9534">
        <ele>524</ele>
        <time>2016-07-10T06:00:21Z</time>
      </trkpt>
      <trkpt lat="42.9102" lon="1.9532">
        <ele>524</ele>
        <time>2016-07-10T06:02:21Z</time>
      </trkpt>
      <trkpt lat="42.91023" lon="1.95306">
        <ele>524</ele>
        <time>2016-07-10T06:04:21Z</time>
      </trkpt>
      <trkpt lat="42.91026" lon="1.95288">
        <ele>525</ele>
        <time>2016-07-10T06:06:21Z</time>
      </trkpt>
      <trkpt lat="42.91031" lon="1.95269">
        <ele>525</ele>
        <time>2016-07-10T06:08:21Z</time>
      </trkpt>
      <trkpt lat="42.91034" lon="1.95252">
        <ele>525</ele>
        <time>2016-07-10T06:10:21Z</time>
      </trkpt>
      <trkpt lat="42.91037" lon="1.95233">
        <ele>525</ele>
        <time>2016-07-10T06:12:21Z</time>
      </trkpt>
      <trkpt lat="42.9104" lon="1.95218">
        <ele>525</ele>
        <time>2016-07-10T06:14:21Z</time>
      </trkpt>
      <trkpt lat="42.91043" lon="1.95206">
        <ele>526</ele>
        <time>2016-07-10T06:16:21Z</time>
      </trkpt>
      <trkpt lat="42.91044" lon="1.95196">
        <ele>526</ele>
        <time>2016-07-10T06:18:21Z</time>
      </trkpt>
      <trkpt lat="42.91045" lon="1.95191">
        <ele>526</ele>
        <time>2016-07-10T06:20:21Z</time>
      </trkpt>
      <trkpt lat="42.91046" lon="1.95182">
        <ele>526</ele>
        <time>2016-07-10T06:22:21Z</time>
      </trkpt>
      <trkpt lat="42.91046" lon="1.95174">
        <ele>525</ele>
        <time>2016-07-10T06:24:21Z</time>
      </trkpt>
      <trkpt lat="42.91046" lon="1.95165">
        <ele>525</ele>
        <time>2016-07-10T06:26:21Z</time>
      </trkpt>
      <trkpt lat="42.91045" lon="1.95154">
        <ele>525</ele>
        <time>2016-07-10T06:28:21Z</time>
      </trkpt>
      <trkpt lat="42.91044" lon="1.95141">
        <ele>524</ele>
        <time>2016-07-10T06:30:21Z</time>
      </trkpt>
      <trkpt lat="42.91042" lon="1.9513">
        <ele>524</ele>
        <time>2016-07-10T06:32:21Z</time>
      </trkpt>
      <trkpt lat="42.91041" lon="1.95116">
        <ele>523</ele>
        <time>2016-07-10T06:34:21Z</time>
      </trkpt>
      <trkpt lat="42.9104" lon="1.95101">
        <ele>523</ele>
        <time>2016-07-10T06:36:21Z</time>
      </trkpt>
      <trkpt lat="42.91039" lon="1.95085">
        <ele>522</ele>
        <time>2016-07-10T06:38:21Z</time>
      </trkpt>
      <trkpt lat="42.91039" lon="1.9507">
        <ele>522</ele>
        <time>2016-07-10T06:40:21Z</time>
      </trkpt>
      <trkpt lat="42.91038" lon="1.95053">
        <ele>521</ele>
        <time>2016-07-10T06:42:21Z</time>
      </trkpt>
      <trkpt lat="42.91037" lon="1.95034">
        <ele>520</ele>
        <time>2016-07-10T06:44:21Z</time>
      </trkpt>
      <trkpt lat="42.91036" lon="1.95021">
        <ele>520</ele>
        <time>2016-07-10T06:46:21Z</time>
      </trkpt>
      <trkpt lat="42.91035" lon="1.95007">
        <ele>519</ele>
        <time>2016-07-10T06:48:21Z</time>
      </trkpt>
      <trkpt lat="42.91032" lon="1.9499">
        <ele>519</ele>
        <time>2016-07-10T06:50:21Z</time>
      </trkpt>
      <trkpt lat="42.91032" lon="1.9499">
        <ele>519</ele>
        <time>2016-07-10T06:52:21Z</time>
      </trkpt>
      <trkpt lat="42.91035" lon="1.94986">
        <ele>519</ele>
        <time>2016-07-10T06:54:21Z</time>
      </trkpt>
      <trkpt lat="42.91037" lon="1.9498">
        <ele>519</ele>
        <time>2016-07-10T06:56:21Z</time>
      </trkpt>
      <trkpt lat="42.91038" lon="1.94971">
        <ele>519</ele>
        <time>2016-07-10T06:58:21Z</time>
      </trkpt>
      <trkpt lat="42.91038" lon="1.9496">
        <ele>519</ele>
        <time>2016-07-10T07:00:21Z</time>
      </trkpt>
      <trkpt lat="42.9104" lon="1.94946">
        <ele>519</ele>
        <time>2016-07-10T07:02:21Z</time>
      </trkpt>
      <trkpt lat="42.91041" lon="1.94934">
        <ele>519</ele>
        <time>2016-07-10T07:04:21Z</time>
      </trkpt>
      <trkpt lat="42.91043" lon="1.9491">
        <ele>519</ele>
        <time>2016-07-10T07:06:21Z</time>
      </trkpt>
      <trkpt lat="42.91044" lon="1.94895">
        <ele>518</ele>
        <time>2016-07-10T07:08:21Z</time>
      </trkpt>
      <trkpt lat="42.91043" lon="1.94876">
        <ele>518</ele>
        <time>2016-07-10T07:10:21Z</time>
      </trkpt>
      <trkpt lat="42.91042" lon="1.94857">
        <ele>517</ele>
        <time>2016-07-10T07:12:21Z</time>
      </trkpt>
      <trkpt lat="42.91041" lon="1.94834">
        <ele>516</ele>
        <time>2016-07-10T07:14:21Z</time>
      </trkpt>
      <trkpt lat="42.9104" lon="1.9482">
        <ele>516</ele>
        <time>2016-07-10T07:16:21Z</time>
      </trkpt>
      <trkpt lat="42.91039" lon="1.948">
        <ele>515</ele>
        <time>2016-07-10T07:18:21Z</time>
      </trkpt>
      <trkpt lat="42.91037" lon="1.94784">
        <ele>514</ele>
        <time>2016-07-10T07:20:21Z</time>
      </trkpt>
      <trkpt lat="42.91036" lon="1.94768">
        <ele>514</ele>
        <time>2016-07-10T07:22:21Z</time>
      </trkpt>
      <trkpt lat="42.91034" lon="1.94753">
        <ele>513</ele>
        <time>2016-07-10T07:24:21Z</time>
      </trkpt>
      <trkpt lat="42.91033" lon="1.94739">
        <ele>513</ele>
        <time>2016-07-10T07:26:21Z</time>
      </trkpt>
      <trkpt lat="42.91031" lon="1.94726">
        <ele>512</ele>
        <time>2016-07-10T07:28:21Z</time>
      </trkpt>
      <trkpt lat="42.91032" lon="1.94711">
        <ele>512</ele>
        <time>2016-07-10T07:30:21Z</time>
      </trkpt>
      <trkpt lat="42.91033" lon="1.94696">
        <ele>512</ele>
        <time>2016-07-10T07:32:21Z</time>
      </trkpt>
      <trkpt lat="42.91034" lon="1.94683">
        <ele>512</ele>
        <time>2016-07-10T07:34:21Z</time>
      </trkpt>
      <trkpt lat="42.91036" lon="1.94671">
        <ele>512</ele>
        <time>2016-07-10T07:36:21Z</time>
      </trkpt>
      <trkpt lat="42.91039" lon="1.94659">
        <ele>512</ele>
        <time>2016-07-10T07:38:21Z</time>
      </trkpt>
      <trkpt lat="42.91043" lon="1.94649">
        <ele>513</ele>
        <time>2016-07-10T07:40:21Z</time>
      </trkpt>
      <trkpt lat="42.91048" lon="1.94637">
        <ele>514</ele>
        <time>2016-07-10T07:42:21Z</time>
      </trkpt>
      <trkpt lat="42.91051" lon="1.94627">
        <ele>514</ele>
        <time>2016-07-10T07:44:21Z</time>
      </trkpt>
      <trkpt lat="42.91057" lon="1.94616">
        <ele>515</ele>
        <time>2016-07-10T07:46:21Z</time>
      </trkpt>
      <trkpt lat="42.9106" lon="1.94607">
        <ele>516</ele>
        <time>2016-07-10T07:48:21Z</time>
      </trkpt>
      <trkpt lat="42.91063" lon="1.94596">
        <ele>516</ele>
        <time>2016-07-10T07:50:21Z</time>
      </trkpt>
      <trkpt lat="42.91066" lon="1.94584">
        <ele>516</ele>
        <time>2016-07-10T07:52:21Z</time>
      </trkpt>
      <trkpt lat="42.91068" lon="1.94574">
        <ele>517</ele>
        <time>2016-07-10T07:54:21Z</time>
      </trkpt>
      <trkpt lat="42.91068" lon="1.94564">
        <ele>516</ele>
        <time>2016-07-10T07:56:21Z</time>
      </trkpt>
      <trkpt lat="42.91068" lon="1.94557">
        <ele>516</ele>
        <time>2016-07-10T07:58:21Z</time>
      </trkpt>
      <trkpt lat="42.91067" lon="1.94554">
        <ele>516</ele>
        <time>2016-07-10T08:00:21Z</time>
      </trkpt>
      <trkpt lat="42.91066" lon="1.94551">
        <ele>516</ele>
        <time>2016-07-10T08:02:21Z</time>
      </trkpt>
      <trkpt lat="42.91065" lon="1.94549">
        <ele>516</ele>
        <time>2016-07-10T08:04:21Z</time>
      </trkpt>
      <trkpt lat="42.91061" lon="1.94544">
        <ele>515</ele>
        <time>2016-07-10T08:06:21Z</time>
      </trkpt>
      <trkpt lat="42.91058" lon="1.9454">
        <ele>514</ele>
        <time>2016-07-10T08:08:21Z</time>
      </trkpt>
      <trkpt lat="42.91055" lon="1.94536">
        <ele>513</ele>
        <time>2016-07-10T08:10:21Z</time>
      </trkpt>
      <trkpt lat="42.91054" lon="1.94535">
        <ele>513</ele>
        <time>2016-07-10T08:12:21Z</time>
      </trkpt>
      <trkpt lat="42.91054" lon="1.94533">
        <ele>513</ele>
        <time>2016-07-10T08:14:21Z</time>
      </trkpt>
      <trkpt lat="42.91053" lon="1.9453">
        <ele>513</ele>
        <time>2016-07-10T08:16:21Z</time>
      </trkpt>
      <trkpt lat="42.91053" lon="1.94525">
        <ele>513</ele>
        <time>2016-07-10T08:18:21Z</time>
      </trkpt>
      <trkpt lat="42.91053" lon="1.94524">
        <ele>513</ele>
        <time>2016-07-10T08:20:21Z</time>
      </trkpt>
      <trkpt lat="42.91054" lon="1.94514">
        <ele>513</ele>
        <time>2016-07-10T08:22:21Z</time>
      </trkpt>
      <trkpt lat="42.91054" lon="1.94513">
        <ele>513</ele>
        <time>2016-07-10T08:24:21Z</time>
      </trkpt>
      <trkpt lat="42.91055" lon="1.94508">
        <ele>513</ele>
        <time>2016-07-10T08:26:21Z</time>
      </trkpt>
      <trkpt lat="42.91055" lon="1.94506">
        <ele>513</ele>
        <time>2016-07-10T08:28:21Z</time>
      </trkpt>
      <trkpt lat="42.91057" lon="1.945">
        <ele>513</ele>
        <time>2016-07-10T08:30:21Z</time>
      </trkpt>
      <trkpt lat="42.91057" lon="1.945">
        <ele>513</ele>
        <time>2016-07-10T08:32:21Z</time>
      </trkpt>
      <trkpt lat="42.91055" lon="1.9448">
        <ele>512</ele>
        <time>2016-07-10T08:34:21Z</time>
      </trkpt>
      <trkpt lat="42.91055" lon="1.94461">
        <ele>512</ele>
        <time>2016-07-10T08:36:21Z</time>
      </trkpt>
      <trkpt lat="42.91054" lon="1.94444">
        <ele>512</ele>
        <time>2016-07-10T08:38:21Z</time>
      </trkpt>
      <trkpt lat="42.91053" lon="1.94431">
        <ele>511</ele>
        <time>2016-07-10T08:40:21Z</time>
      </trkpt>
      <trkpt lat="42.91048" lon="1.9441">
        <ele>510</ele>
        <time>2016-07-10T08:42:21Z</time>
      </trkpt>
      <trkpt lat="42.91045" lon="1.94397">
        <ele>510</ele>
        <time>2016-07-10T08:44:21Z</time>
      </trkpt>
      <trkpt lat="42.91035" lon="1.94372">
        <ele>507</ele>
        <time>2016-07-10T08:46:21Z</time>
      </trkpt>
      <trkpt lat="42.91026" lon="1.9435">
        <ele>506</ele>
        <time>2016-07-10T08:48:21Z</time>
      </trkpt>
      <trkpt lat="42.91018" lon="1.94333">
        <ele>504</ele>
        <time>2016-07-10T08:50:21Z</time>
      </trkpt>
      <trkpt lat="42.90994" lon="1.9428">
        <ele>502</ele>
        <time>2016-07-10T08:52:21Z</time>
      </trkpt>
      <trkpt lat="42.90975" lon="1.94239">
        <ele>501</ele>
        <time>2016-07-10T08:54:21Z</time>
      </trkpt>
      <trkpt lat="42.90957" lon="1.94199">
        <ele>501</ele>
        <time>2016-07-10T08:56:21Z</time>
      </trkpt>
      <trkpt lat="42.90944" lon="1.94171">
        <ele>501</ele>
        <time>2016-07-10T08:58:21Z</time>
      </trkpt>
      <trkpt lat="42.9093" lon="1.94141">
        <ele>501</ele>
        <time>2016-07-10T09:00:21Z</time>
      </trkpt>
      <trkpt lat="42.90915" lon="1.94107">
        <ele>500</ele>
        <time>2016-07-10T09:02:21Z</time>
      </trkpt>
      <trkpt lat="42.90901" lon="1.94077">
        <ele>500</ele>
        <time>2016-07-10T09:04:21Z</time>
      </trkpt>
      <trkpt lat="42.90888" lon="1.94048">
        <ele>500</ele>
        <time>2016-07-10T09:06:21Z</time>
      </trkpt>
      <trkpt lat="42.9088" lon="1.94029">
        <ele>500</ele>
        <time>2016-07-10T09:08:21Z</time>
      </trkpt>
      <trkpt lat="42.90876" lon="1.94021">
        <ele>500</ele>
        <time>2016-07-10T09:10:21Z</time>
      </trkpt>
      <trkpt lat="42.90872" lon="1.94015">
        <ele>500</ele>
        <time>2016-07-10T09:12:21Z</time>
      </trkpt>
      <trkpt lat="42.90869" lon="1.9401">
        <ele>500</ele>
        <time>2016-07-10T09:14:21Z</time>
      </trkpt>
      <trkpt lat="42.90864" lon="1.94003">
        <ele>500</ele>
        <time>2016-07-10T09:16:21Z</time>
      </trkpt>
      <trkpt lat="42.90842" lon="1.93983">
        <ele>500</ele>
        <time>2016-07-10T09:18:21Z</time>
      </trkpt>
      <trkpt lat="42.90835" lon="1.93979">
        <ele>500</ele>
        <time>2016-07-10T09:20:21Z</time>
      </trkpt>
      <trkpt lat="42.90828" lon="1.93974">
        <ele>500</ele>
        <time>2016-07-10T09:22:21Z</time>
      </trkpt>
      <trkpt lat="42.90752" lon="1.93913">
        <ele>500</ele>
        <time>2016-07-10T09:24:21Z</time>
      </trkpt>
      <trkpt lat="42.90723" lon="1.9389">
        <ele>500</ele>
        <time>2016-07-10T09:26:21Z</time>
      </trkpt>
      <trkpt lat="42.90673" lon="1.93851">
        <ele>500</ele>
        <time>2016-07-10T09:28:21Z</time>
      </trkpt>
      <trkpt lat="42.90663" lon="1.93842">
        <ele>500</ele>
        <time>2016-07-10T09:30:21Z</time>
      </trkpt>
      <trkpt lat="42.90656" lon="1.93837">
        <ele>500</ele>
        <time>2016-07-10T09:32:21Z</time>
      </trkpt>
      <trkpt lat="42.90576" lon="1.93774">
        <ele>500</ele>
        <time>2016-07-10T09:34:21Z</time>
      </trkpt>
      <trkpt lat="42.90565" lon="1.93765">
        <ele>500</ele>
        <time>2016-07-10T09:36:21Z</time>
      </trkpt>
      <trkpt lat="42.90555" lon="1.93756">
        <ele>500</ele>
        <time>2016-07-10T09:38:21Z</time>
      </trkpt>
      <trkpt lat="42.90545" lon="1.93747">
        <ele>500</ele>
        <time>2016-07-10T09:40:21Z</time>
      </trkpt>
      <trkpt lat="42.90538" lon="1.93739">
        <ele>500</ele>
        <time>2016-07-10T09:42:21Z</time>
      </trkpt>
      <trkpt lat="42.90531" lon="1.9373">
        <ele>500</ele>
        <time>2016-07-10T09:44:21Z</time>
      </trkpt>
      <trkpt lat="42.90503" lon="1.93689">
        <ele>499</ele>
        <time>2016-07-10T09:46:21Z</time>
      </trkpt>
      <trkpt lat="42.9049" lon="1.93671">
        <ele>499</ele>
        <time>2016-07-10T09:48:21Z</time>
      </trkpt>
      <trkpt lat="42.90484" lon="1.93661">
        <ele>499</ele>
        <time>2016-07-10T09:50:21Z</time>
      </trkpt>
      <trkpt lat="42.90477" lon="1.93651">
        <ele>499</ele>
        <time>2016-07-10T09:52:21Z</time>
      </trkpt>
      <trkpt lat="42.90437" lon="1.93592">
        <ele>499</ele>
        <time>2016-07-10T09:54:21Z</time>
      </trkpt>
      <trkpt lat="42.90426" lon="1.93575">
        <ele>499</ele>
        <time>2016-07-10T09:56:21Z</time>
      </trkpt>
      <trkpt lat="42.90384" lon="1.93512">
        <ele>499</ele>
        <time>2016-07-10T09:58:21Z</time>
      </trkpt>
      <trkpt lat="42.90342" lon="1.93442">
        <ele>499</ele>
        <time>2016-07-10T10:00:21Z</time>
      </trkpt>
      <trkpt lat="42.90326" lon="1.93418">
        <ele>499</ele>
        <time>2016-07-10T10:02:21Z</time>
      </trkpt>
      <trkpt lat="42.90324" lon="1.93414">
        <ele>499</ele>
        <time>2016-07-10T10:04:21Z</time>
      </trkpt>
      <trkpt lat="42.90322" lon="1.93411">
        <ele>499</ele>
        <time>2016-07-10T10:06:21Z</time>
      </trkpt>
      <trkpt lat="42.90322" lon="1.93409">
        <ele>499</ele>
        <time>2016-07-10T10:08:21Z</time>
      </trkpt>
      <trkpt lat="42.90321" lon="1.93406">
        <ele>499</ele>
        <time>2016-07-10T10:10:21Z</time>
      </trkpt>
      <trkpt lat="42.90321" lon="1.93401">
        <ele>499</ele>
        <time>2016-07-10T10:12:21Z</time>
      </trkpt>
      <trkpt lat="42.90321" lon="1.93395">
        <ele>499</ele>
        <time>2016-07-10T10:14:21Z</time>
      </trkpt>
      <trkpt lat="42.90321" lon="1.93395">
        <ele>499</ele>
        <time>2016-07-10T10:16:21Z</time>
      </trkpt>
      <trkpt lat="42.90311" lon="1.93403">
        <ele>499</ele>
        <time>2016-07-10T10:18:21Z</time>
      </trkpt>
      <trkpt lat="42.90301" lon="1.93412">
        <ele>499</ele>
        <time>2016-07-10T10:20:21Z</time>
      </trkpt>
      <trkpt lat="42.90293" lon="1.93419">
        <ele>499</ele>
        <time>2016-07-10T10:22:21Z</time>
      </trkpt>
      <trkpt lat="42.9028" lon="1.93431">
        <ele>499</ele>
        <time>2016-07-10T10:24:21Z</time>
      </trkpt>
      <trkpt lat="42.9028" lon="1.93431">
        <ele>499</ele>
        <time>2016-07-10T10:26:21Z</time>
      </trkpt>
      <trkpt lat="42.90259" lon="1.93389">
        <ele>499</ele>
        <time>2016-07-10T10:28:21Z</time>
      </trkpt>
      <trkpt lat="42.90252" lon="1.93379">
        <ele>499</ele>
        <time>2016-07-10T10:30:21Z</time>
      </trkpt>
      <trkpt lat="42.90245" lon="1.93377">
        <ele>499</ele>
        <time>2016-07-10T10:32:21Z</time>
      </trkpt>
      <trkpt lat="42.90234" lon="1.93376">
        <ele>499</ele>
        <time>2016-07-10T10:34:21Z</time>
      </trkpt>
      <trkpt lat="42.90234" lon="1.93376">
        <ele>499</ele>
        <time>2016-07-10T10:36:21Z</time>
      </trkpt>
      <trkpt lat="42.90235" lon="1.93369">
        <ele>499</ele>
        <time>2016-07-10T10:38:21Z</time>
      </trkpt>
      <trkpt lat="42.90236" lon="1.93356">
        <ele>499</ele>
        <time>2016-07-10T10:40:21Z</time>
      </trkpt>
      <trkpt lat="42.90237" lon="1.93342">
        <ele>499</ele>
        <time>2016-07-10T10:42:21Z</time>
      </trkpt>
      <trkpt lat="42.90237" lon="1.93328">
        <ele>499</ele>
        <time>2016-07-10T10:44:21Z</time>
      </trkpt>
      <trkpt lat="42.90237" lon="1.93311">
        <ele>499</ele>
        <time>2016-07-10T10:46:21Z</time>
      </trkpt>
      <trkpt lat="42.90237" lon="1.93287">
        <ele>500</ele>
        <time>2016-07-10T10:48:21Z</time>
      </trkpt>
      <trkpt lat="42.90237" lon="1.93273">
        <ele>500</ele>
        <time>2016-07-10T10:50:21Z</time>
      </trkpt>
      <trkpt lat="42.90235" lon="1.93257">
        <ele>500</ele>
        <time>2016-07-10T10:52:21Z</time>
      </trkpt>
      <trkpt lat="42.90231" lon="1.93236">
        <ele>501</ele>
        <time>2016-07-10T10:54:21Z</time>
      </trkpt>
      <trkpt lat="42.90227" lon="1.93221">
        <ele>501</ele>
        <time>2016-07-10T10:56:21Z</time>
      </trkpt>
      <trkpt lat="42.90225" lon="1.93205">
        <ele>502</ele>
        <time>2016-07-10T10:58:21Z</time>
      </trkpt>
      <trkpt lat="42.90225" lon="1.93193">
        <ele>502</ele>
        <time>2016-07-10T11:00:21Z</time>
      </trkpt>
      <trkpt lat="42.90224" lon="1.93179">
        <ele>503</ele>
        <time>2016-07-10T11:02:21Z</time>
      </trkpt>
      <trkpt lat="42.90222" lon="1.93165">
        <ele>503</ele>
        <time>2016-07-10T11:04:21Z</time>
      </trkpt>
      <trkpt lat="42.90219" lon="1.93148">
        <ele>504</ele>
        <time>2016-07-10T11:06:21Z</time>
      </trkpt>
      <trkpt lat="42.90217" lon="1.93135">
        <ele>505</ele>
        <time>2016-07-10T11:08:21Z</time>
      </trkpt>
      <trkpt lat="42.90215" lon="1.93122">
        <ele>505</ele>
        <time>2016-07-10T11:10:21Z</time>
      </trkpt>
      <trkpt lat="42.90213" lon="1.93108">
        <ele>506</ele>
        <time>2016-07-10T11:12:21Z</time>
      </trkpt>
      <trkpt lat="42.90208" lon="1.93088">
        <ele>506</ele>
        <time>2016-07-10T11:14:21Z</time>
      </trkpt>
      <trkpt lat="42.90202" lon="1.93072">
        <ele>505</ele>
        <time>2016-07-10T11:16:21Z</time>
      </trkpt>
      <trkpt lat="42.9019" lon="1.93028">
        <ele>504</ele>
        <time>2016-07-10T11:18:21Z</time>
      </trkpt>
      <trkpt lat="42.90179" lon="1.92991">
        <ele>503</ele>
        <time>2016-07-10T11:20:21Z</time>
      </trkpt>
      <trkpt lat="42.90178" lon="1.92988">
        <ele>502</ele>
        <time>2016-07-10T11:22:21Z</time>
      </trkpt>
      <trkpt lat="42.90178" lon="1.92988">
        <ele>502</ele>
        <time>2016-07-10T11:24:21Z</time>
      </trkpt>
      <trkpt lat="42.90165" lon="1.92943">
        <ele>501</ele>
        <time>2016-07-10T11:26:21Z</time>
      </trkpt>
      <trkpt lat="42.90158" lon="1.92922">
        <ele>502</ele>
        <time>2016-07-10T11:28:21Z</time>
      </trkpt>
      <trkpt lat="42.90153" lon="1.92909">
        <ele>502</ele>
        <time>2016-07-10T11:30:21Z</time>
      </trkpt>
      <trkpt lat="42.90138" lon="1.92884">
        <ele>502</ele>
        <time>2016-07-10T11:32:21Z</time>
      </trkpt>
      <trkpt lat="42.90125" lon="1.92868">
        <ele>502</ele>
        <time>2016-07-10T11:34:21Z</time>
      </trkpt>
      <trkpt lat="42.90125" lon="1.92868">
        <ele>502</ele>
        <time>2016-07-10T11:36:21Z</time>
      </trkpt>
      <trkpt lat="42.90111" lon="1.92866">
        <ele>502</ele>
        <time>2016-07-10T11:38:21Z</time>
      </trkpt>
      <trkpt lat="42.90104" lon="1.92866">
        <ele>501</ele>
        <time>2016-07-10T11:40:21Z</time>
      </trkpt>
      <trkpt lat="42.90089" lon="1.92868">
        <ele>501</ele>
        <time>2016-07-10T11:42:21Z</time>
      </trkpt>
      <trkpt lat="42.90085" lon="1.92868">
        <ele>501</ele>
        <time>2016-07-10T11:44:21Z</time>
      </trkpt>
      <trkpt lat="42.90082" lon="1.92867">
        <ele>501</ele>
        <time>2016-07-10T11:46:21Z</time>
      </trkpt>
      <trkpt lat="42.90073" lon="1.92866">
        <ele>501</ele>
        <time>2016-07-10T11:48:21Z</time>
      </trkpt>
      <trkpt lat="42.90063" lon="1.92864">
        <ele>500</ele>
        <time>2016-07-10T11:50:21Z</time>
      </trkpt>
      <trkpt lat="42.90046" lon="1.9286">
        <ele>500</ele>
        <time>2016-07-10T11:52:21Z</time>
      </trkpt>
      <trkpt lat="42.90026" lon="1.92852">
        <ele>500</ele>
        <time>2016-07-10T11:54:21Z</time>
      </trkpt>
      <trkpt lat="42.9001" lon="1.92845">
        <ele>500</ele>
        <time>2016-07-10T11:56:21Z</time>
      </trkpt>
      <trkpt lat="42.89991" lon="1.92835">
        <ele>500</ele>
        <time>2016-07-10T11:58:21Z</time>
      </trkpt>
      <trkpt lat="42.89977" lon="1.92825">
        <ele>500</ele>
        <time>2016-07-10T12:00:21Z</time>
      </trkpt>
      <trkpt lat="42.89968" lon="1.92817">
        <ele>500</ele>
        <time>2016-07-10T12:02:21Z</time>
      </trkpt>
      <trkpt lat="42.89962" lon="1.92808">
        <ele>500</ele>
        <time>2016-07-10T12:04:21Z</time>
      </trkpt>
      <trkpt lat="42.89957" lon="1.928">
        <ele>500</ele>
        <time>2016-07-10T12:06:21Z</time>
      </trkpt>
      <trkpt lat="42.89951" lon="1.92788">
        <ele>500</ele>
        <time>2016-07-10T12:08:21Z</time>
      </trkpt>
      <trkpt lat="42.89944" lon="1.92773">
        <ele>500</ele>
        <time>2016-07-10T12:10:21Z</time>
      </trkpt>
      <trkpt lat="42.89936" lon="1.92756">
        <ele>500</ele>
        <time>2016-07-10T12:12:21Z</time>
      </trkpt>
      <trkpt lat="42.89931" lon="1.92745">
        <ele>500</ele>
        <time>2016-07-10T12:14:21Z</time>
      </trkpt>
      <trkpt lat="42.89922" lon="1.92731">
        <ele>501</ele>
        <time>2016-07-10T12:16:21Z</time>
      </trkpt>
      <trkpt lat="42.89912" lon="1.92718">
        <ele>501</ele>
        <time>2016-07-10T12:18:21Z</time>
      </trkpt>
      <trkpt lat="42.89896" lon="1.927">
        <ele>501</ele>
        <time>2016-07-10T12:20:21Z</time>
      </trkpt>
      <trkpt lat="42.89886" lon="1.92686">
        <ele>501</ele>
        <time>2016-07-10T12:22:21Z</time>
      </trkpt>
      <trkpt lat="42.89868" lon="1.92666">
        <ele>501</ele>
        <time>2016-07-10T12:24:21Z</time>
      </trkpt>
      <trkpt lat="42.89856" lon="1.92652">
        <ele>502</ele>
        <time>2016-07-10T12:26:21Z</time>
      </trkpt>
      <trkpt lat="42.8985" lon="1.92642">
        <ele>503</ele>
        <time>2016-07-10T12:28:21Z</time>
      </trkpt>
      <trkpt lat="42.89849" lon="1.9264">
        <ele>503</ele>
        <time>2016-07-10T12:30:21Z</time>
      </trkpt>
      <trkpt lat="42.89846" lon="1.92632">
        <ele>504</ele>
        <time>2016-07-10T12:32:21Z</time>
      </trkpt>
      <trkpt lat="42.89842" lon="1.92623">
        <ele>504</ele>
        <time>2016-07-10T12:34:21Z</time>
      </trkpt>
      <trkpt lat="42.89835" lon="1.92615">
        <ele>505</ele>
        <time>2016-07-10T12:36:21Z</time>
      </trkpt>
      <trkpt lat="42.8982" lon="1.92599">
        <ele>507</ele>
        <time>2016-07-10T12:38:21Z</time>
      </trkpt>
      <trkpt lat="42.89808" lon="1.92585">
        <ele>509</ele>
        <time>2016-07-10T12:40:21Z</time>
      </trkpt>
      <trkpt lat="42.89795" lon="1.92565">
        <ele>512</ele>
        <time>2016-07-10T12:42:21Z</time>
      </trkpt>
      <trkpt lat="42.89792" lon="1.92564">
        <ele>512</ele>
        <time>2016-07-10T12:44:21Z</time>
      </trkpt>
      <trkpt lat="42.8979" lon="1.92565">
        <ele>512</ele>
        <time>2016-07-10T12:46:21Z</time>
      </trkpt>
      <trkpt lat="42.89787" lon="1.92574">
        <ele>511</ele>
        <time>2016-07-10T12:48:21Z</time>
      </trkpt>
      <trkpt lat="42.89782" lon="1.92583">
        <ele>511</ele>
        <time>2016-07-10T12:50:21Z</time>
      </trkpt>
      <trkpt lat="42.89772" lon="1.92595">
        <ele>510</ele>
        <time>2016-07-10T12:52:21Z</time>
      </trkpt>
      <trkpt lat="42.89751" lon="1.9261">
        <ele>510</ele>
        <time>2016-07-10T12:54:21Z</time>
      </trkpt>
      <trkpt lat="42.89742" lon="1.92615">
        <ele>510</ele>
        <time>2016-07-10T12:56:21Z</time>
      </trkpt>
      <trkpt lat="42.89733" lon="1.92616">
        <ele>511</ele>
        <time>2016-07-10T12:58:21Z</time>
      </trkpt>
      <trkpt lat="42.89725" lon="1.92615">
        <ele>511</ele>
        <time>2016-07-10T13:00:21Z</time>
      </trkpt>
      <trkpt lat="42.89713" lon="1.92612">
        <ele>512</ele>
        <time>2016-07-10T13:02:21Z</time>
      </trkpt>
      <trkpt lat="42.89702" lon="1.9261">
        <ele>513</ele>
        <time>2016-07-10T13:04:21Z</time>
      </trkpt>
      <trkpt lat="42.89691" lon="1.92615">
        <ele>514</ele>
        <time>2016-07-10T13:06:21Z</time>
      </trkpt>
      <trkpt lat="42.89681" lon="1.92623">
        <ele>514</ele>
        <time>2016-07-10T13:08:21Z</time>
      </trkpt>
      <trkpt lat="42.89671" lon="1.92636">
        <ele>514</ele>
        <time>2016-07-10T13:10:21Z</time>
      </trkpt>
      <trkpt lat="42.89661" lon="1.92649">
        <ele>514</ele>
        <time>2016-07-10T13:12:21Z</time>
      </trkpt>
      <trkpt lat="42.89652" lon="1.92657">
        <ele>514</ele>
        <time>2016-07-10T13:14:21Z</time>
      </trkpt>
      <trkpt lat="42.89644" lon="1.92664">
        <ele>515</ele>
        <time>2016-07-10T13:16:21Z</time>
      </trkpt>
      <trkpt lat="42.89634" lon="1.92667">
        <ele>515</ele>
        <time>2016-07-10T13:18:21Z</time>
      </trkpt>
      <trkpt lat="42.89622" lon="1.92669">
        <ele>516</ele>
        <time>2016-07-10T13:20:21Z</time>
      </trkpt>
      <trkpt lat="42.89606" lon="1.92665">
        <ele>517</ele>
        <time>2016-07-10T13:22:21Z</time>
      </trkpt>
      <trkpt lat="42.89586" lon="1.92659">
        <ele>519</ele>
        <time>2016-07-10T13:24:21Z</time>
      </trkpt>
      <trkpt lat="42.89571" lon="1.92657">
        <ele>519</ele>
        <time>2016-07-10T13:26:21Z</time>
      </trkpt>
      <trkpt lat="42.89559" lon="1.92656">
        <ele>519</ele>
        <time>2016-07-10T13:28:21Z</time>
      </trkpt>
      <trkpt lat="42.89547" lon="1.92656">
        <ele>519</ele>
        <time>2016-07-10T13:30:21Z</time>
      </trkpt>
      <trkpt lat="42.89533" lon="1.92657">
        <ele>519</ele>
        <time>2016-07-10T13:32:21Z</time>
      </trkpt>
      <trkpt lat="42.89522" lon="1.92658">
        <ele>519</ele>
        <time>2016-07-10T13:34:21Z</time>
      </trkpt>
      <trkpt lat="42.89507" lon="1.92656">
        <ele>519</ele>
        <time>2016-07-10T13:36:21Z</time>
      </trkpt>
      <trkpt lat="42.89498" lon="1.9265">
        <ele>519</ele>
        <time>2016-07-10T13:38:21Z</time>
      </trkpt>
      <trkpt lat="42.8949" lon="1.92645">
        <ele>520</ele>
        <time>2016-07-10T13:40:21Z</time>
      </trkpt>
      <trkpt lat="42.89483" lon="1.92637">
        <ele>520</ele>
        <time>2016-07-10T13:42:21Z</time>
      </trkpt>
      <trkpt lat="42.89471" lon="1.92629">
        <ele>520</ele>
        <time>2016-07-10T13:44:21Z</time>
      </trkpt>
      <trkpt lat="42.89462" lon="1.92625">
        <ele>520</ele>
        <time>2016-07-10T13:46:21Z</time>
      </trkpt>
      <trkpt lat="42.89452" lon="1.92623">
        <ele>520</ele>
        <time>2016-07-10T13:48:21Z</time>
      </trkpt>
      <trkpt lat="42.89441" lon="1.92623">
        <ele>520</ele>
        <time>2016-07-10T13:50:21Z</time>
      </trkpt>
      <trkpt lat="42.89432" lon="1.92623">
        <ele>520</ele>
        <time>2016-07-10T13:52:21Z</time>
      </trkpt>
      <trkpt lat="42.89422" lon="1.92624">
        <ele>521</ele>
        <time>2016-07-10T13:54:21Z</time>
      </trkpt>
      <trkpt lat="42.89414" lon="1.92628">
        <ele>520</ele>
        <time>2016-07-10T13:56:21Z</time>
      </trkpt>
      <trkpt lat="42.89408" lon="1.92633">
        <ele>520</ele>
        <time>2016-07-10T13:58:21Z</time>
      </trkpt>
      <trkpt lat="42.89399" lon="1.92641">
        <ele>520</ele>
        <time>2016-07-10T14:00:21Z</time>
      </trkpt>
      <trkpt lat="42.89385" lon="1.92652">
        <ele>519</ele>
        <time>2016-07-10T14:02:21Z</time>
      </trkpt>
      <trkpt lat="42.89375" lon="1.92659">
        <ele>519</ele>
        <time>2016-07-10T14:04:21Z</time>
      </trkpt>
      <trkpt lat="42.89367" lon="1.92665">
        <ele>519</ele>
        <time>2016-07-10T14:06:21Z</time>
      </trkpt>
      <trkpt lat="42.89358" lon="1.92668">
        <ele>519</ele>
        <time>2016-07-10T14:08:21Z</time>
      </trkpt>
      <trkpt lat="42.89344" lon="1.92673">
        <ele>520</ele>
        <time>2016-07-10T14:10:21Z</time>
      </trkpt>
      <trkpt lat="42.89328" lon="1.92676">
        <ele>521</ele>
        <time>2016-07-10T14:12:21Z</time>
      </trkpt>
      <trkpt lat="42.89313" lon="1.92674">
        <ele>522</ele>
        <time>2016-07-10T14:14:21Z</time>
      </trkpt>
      <trkpt lat="42.89304" lon="1.92668">
        <ele>522</ele>
        <time>2016-07-10T14:16:21Z</time>
      </trkpt>
      <trkpt lat="42.89303" lon="1.92667">
        <ele>522</ele>
        <time>2016-07-10T14:18:21Z</time>
      </trkpt>
      <trkpt lat="42.89296" lon="1.92658">
        <ele>522</ele>
        <time>2016-07-10T14:20:21Z</time>
      </trkpt>
      <trkpt lat="42.8929" lon="1.92648">
        <ele>522</ele>
        <time>2016-07-10T14:22:21Z</time>
      </trkpt>
      <trkpt lat="42.89284" lon="1.92638">
        <ele>522</ele>
        <time>2016-07-10T14:24:21Z</time>
      </trkpt>
      <trkpt lat="42.89283" lon="1.92636">
        <ele>522</ele>
        <time>2016-07-10T14:26:21Z</time>
      </trkpt>
      <trkpt lat="42.89267" lon="1.92622">
        <ele>522</ele>
        <time>2016-07-10T14:28:21Z</time>
      </trkpt>
      <trkpt lat="42.89252" lon="1.92607">
        <ele>522</ele>
        <time>2016-07-10T14:30:21Z</time>
      </trkpt>
      <trkpt lat="42.89245" lon="1.92596">
        <ele>522</ele>
        <time>2016-07-10T14:32:21Z</time>
      </trkpt>
      <trkpt lat="42.89235" lon="1.92571">
        <ele>522</ele>
        <time>2016-07-10T14:34:21Z</time>
      </trkpt>
      <trkpt lat="42.89229" lon="1.92553">
        <ele>522</ele>
        <time>2016-07-10T14:36:21Z</time>
      </trkpt>
      <trkpt lat="42.89224" lon="1.92536">
        <ele>521</ele>
        <time>2016-07-10T14:38:21Z</time>
      </trkpt>
      <trkpt lat="42.89219" lon="1.92524">
        <ele>521</ele>
        <time>2016-07-10T14:40:21Z</time>
      </trkpt>
      <trkpt lat="42.89215" lon="1.9251">
        <ele>521</ele>
        <time>2016-07-10T14:42:21Z</time>
      </trkpt>
      <trkpt lat="42.89209" lon="1.92491">
        <ele>520</ele>
        <time>2016-07-10T14:44:21Z</time>
      </trkpt>
      <trkpt lat="42.89205" lon="1.92475">
        <ele>520</ele>
        <time>2016-07-10T14:46:21Z</time>
      </trkpt>
      <trkpt lat="42.89201" lon="1.92459">
        <ele>520</ele>
        <time>2016-07-10T14:48:21Z</time>
      </trkpt>
      <trkpt lat="42.89198" lon="1.9244">
        <ele>521</ele>
        <time>2016-07-10T14:50:21Z</time>
      </trkpt>
      <trkpt lat="42.89195" lon="1.92419">
        <ele>521</ele>
        <time>2016-07-10T14:52:21Z</time>
      </trkpt>
      <trkpt lat="42.89193" lon="1.92401">
        <ele>521</ele>
        <time>2016-07-10T14:54:21Z</time>
      </trkpt>
      <trkpt lat="42.89191" lon="1.92376">
        <ele>521</ele>
        <time>2016-07-10T14:56:21Z</time>
      </trkpt>
      <trkpt lat="42.89188" lon="1.92351">
        <ele>522</ele>
        <time>2016-07-10T14:58:21Z</time>
      </trkpt>
      <trkpt lat="42.89185" lon="1.92316">
        <ele>522</ele>
        <time>2016-07-10T15:00:21Z</time>
      </trkpt>
      <trkpt lat="42.8918" lon="1.92273">
        <ele>522</ele>
        <time>2016-07-10T15:02:21Z</time>
      </trkpt>
      <trkpt lat="42.89173" lon="1.9223">
        <ele>521</ele>
        <time>2016-07-10T15:04:21Z</time>
      </trkpt>
      <trkpt lat="42.89165" lon="1.92158">
        <ele>521</ele>
        <time>2016-07-10T15:06:21Z</time>
      </trkpt>
      <trkpt lat="42.89158" lon="1.92081">
        <ele>523</ele>
        <time>2016-07-10T15:08:21Z</time>
      </trkpt>
      <trkpt lat="42.8915" lon="1.92022">
        <ele>525</ele>
        <time>2016-07-10T15:10:21Z</time>
      </trkpt>
      <trkpt lat="42.89147" lon="1.91989">
        <ele>526</ele>
        <time>2016-07-10T15:12:21Z</time>
      </trkpt>
      <trkpt lat="42.89143" lon="1.91962">
        <ele>527</ele>
        <time>2016-07-10T15:14:21Z</time>
      </trkpt>
      <trkpt lat="42.8914" lon="1.91942">
        <ele>527</ele>
        <time>2016-07-10T15:16:21Z</time>
      </trkpt>
      <trkpt lat="42.89138" lon="1.91928">
        <ele>527</ele>
        <time>2016-07-10T15:18:21Z</time>
      </trkpt>
      <trkpt lat="42.89131" lon="1.91877">
        <ele>529</ele>
        <time>2016-07-10T15:20:21Z</time>
      </trkpt>
      <trkpt lat="42.89126" lon="1.91829">
        <ele>530</ele>
        <time>2016-07-10T15:22:21Z</time>
      </trkpt>
      <trkpt lat="42.89122" lon="1.91787">
        <ele>532</ele>
        <time>2016-07-10T15:24:21Z</time>
      </trkpt>
      <trkpt lat="42.89118" lon="1.91758">
        <ele>532</ele>
        <time>2016-07-10T15:26:21Z</time>
      </trkpt>
      <trkpt lat="42.89116" lon="1.91742">
        <ele>533</ele>
        <time>2016-07-10T15:28:21Z</time>
      </trkpt>
      <trkpt lat="42.89114" lon="1.91729">
        <ele>533</ele>
        <time>2016-07-10T15:30:21Z</time>
      </trkpt>
      <trkpt lat="42.89114" lon="1.91726">
        <ele>533</ele>
        <time>2016-07-10T15:32:21Z</time>
      </trkpt>
      <trkpt lat="42.89115" lon="1.91723">
        <ele>534</ele>
        <time>2016-07-10T15:34:21Z</time>
      </trkpt>
      <trkpt lat="42.89119" lon="1.91717">
        <ele>536</ele>
        <time>2016-07-10T15:36:21Z</time>
      </trkpt>
      <trkpt lat="42.89119" lon="1.91707">
        <ele>537</ele>
        <time>2016-07-10T15:38:21Z</time>
      </trkpt>
      <trkpt lat="42.89118" lon="1.91699">
        <ele>537</ele>
        <time>2016-07-10T15:40:21Z</time>
      </trkpt>
      <trkpt lat="42.89115" lon="1.91688">
        <ele>537</ele>
        <time>2016-07-10T15:42:21Z</time>
      </trkpt>
      <trkpt lat="42.89113" lon="1.91677">
        <ele>537</ele>
        <time>2016-07-10T15:44:21Z</time>
      </trkpt>
      <trkpt lat="42.89109" lon="1.91662">
        <ele>536</ele>
        <time>2016-07-10T15:46:21Z</time>
      </trkpt>
      <trkpt lat="42.89105" lon="1.91645">
        <ele>535</ele>
        <time>2016-07-10T15:48:21Z</time>
      </trkpt>
      <trkpt lat="42.891" lon="1.91632">
        <ele>534</ele>
        <time>2016-07-10T15:50:21Z</time>
      </trkpt>
      <trkpt lat="42.89096" lon="1.9162">
        <ele>533</ele>
        <time>2016-07-10T15:52:21Z</time>
      </trkpt>
      <trkpt lat="42.89092" lon="1.91607">
        <ele>532</ele>
        <time>2016-07-10T15:54:21Z</time>
      </trkpt>
      <trkpt lat="42.89085" lon="1.91589">
        <ele>530</ele>
        <time>2016-07-10T15:56:21Z</time>
      </trkpt>
      <trkpt lat="42.89073" lon="1.9156">
        <ele>530</ele>
        <time>2016-07-10T15:58:21Z</time>
      </trkpt>
      <trkpt lat="42.89068" lon="1.91541">
        <ele>531</ele>
        <time>2016-07-10T16:00:21Z</time>
      </trkpt>
      <trkpt lat="42.89068" lon="1.91541">
        <ele>531</ele>
        <time>2016-07-10T16:02:21Z</time>
      </trkpt>
      <trkpt lat="42.89065" lon="1.91526">
        <ele>532</ele>
        <time>2016-07-10T16:04:21Z</time>
      </trkpt>
      <trkpt lat="42.89061" lon="1.91515">
        <ele>532</ele>
        <time>2016-07-10T16:06:21Z</time>
      </trkpt>
      <trkpt lat="42.89054" lon="1.9149">
        <ele>532</ele>
        <time>2016-07-10T16:08:21Z</time>
      </trkpt>
      <trkpt lat="42.8905" lon="1.91479">
        <ele>532</ele>
        <time>2016-07-10T16:10:21Z</time>
      </trkpt>
      <trkpt lat="42.89046" lon="1.91467">
        <ele>531</ele>
        <time>2016-07-10T16:12:21Z</time>
      </trkpt>
      <trkpt lat="42.89042" lon="1.91457">
        <ele>531</ele>
        <time>2016-07-10T16:14:21Z</time>
      </trkpt>
      <trkpt lat="42.89041" lon="1.91455">
        <ele>531</ele>
        <time>2016-07-10T16:16:21Z</time>
      </trkpt>
      <trkpt lat="42.89038" lon="1.91448">
        <ele>531</ele>
        <time>2016-07-10T16:18:21Z</time>
      </trkpt>
      <trkpt lat="42.89031" lon="1.91431">
        <ele>530</ele>
        <time>2016-07-10T16:20:21Z</time>
      </trkpt>
      <trkpt lat="42.89026" lon="1.91415">
        <ele>530</ele>
        <time>2016-07-10T16:22:21Z</time>
      </trkpt>
      <trkpt lat="42.89021" lon="1.91395">
        <ele>531</ele>
        <time>2016-07-10T16:24:21Z</time>
      </trkpt>
      <trkpt lat="42.89013" lon="1.91374">
        <ele>532</ele>
        <time>2016-07-10T16:26:21Z</time>
      </trkpt>
      <trkpt lat="42.89009" lon="1.91366">
        <ele>533</ele>
        <time>2016-07-10T16:28:21Z</time>
      </trkpt>
      <trkpt lat="42.89003" lon="1.91352">
        <ele>533</ele>
        <time>2016-07-10T16:30:21Z</time>
      </trkpt>
      <trkpt lat="42.88993" lon="1.91331">
        <ele>534</ele>
        <time>2016-07-10T16:32:21Z</time>
      </trkpt>
      <trkpt lat="42.88987" lon="1.91315">
        <ele>536</ele>
        <time>2016-07-10T16:34:21Z</time>
      </trkpt>
      <trkpt lat="42.88982" lon="1.91301">
        <ele>537</ele>
        <time>2016-07-10T16:36:21Z</time>
      </trkpt>
      <trkpt lat="42.88976" lon="1.91282">
        <ele>538</ele>
        <time>2016-07-10T16:38:21Z</time>
      </trkpt>
      <trkpt lat="42.88971" lon="1.91267">
        <ele>539</ele>
        <time>2016-07-10T16:40:21Z</time>
      </trkpt>
      <trkpt lat="42.88966" lon="1.91253">
        <ele>539</ele>
        <time>2016-07-10T16:42:21Z</time>
      </trkpt>
      <trkpt lat="42.8896" lon="1.91241">
        <ele>539</ele>
        <time>2016-07-10T16:44:21Z</time>
      </trkpt>
      <trkpt lat="42.88955" lon="1.9123">
        <ele>539</ele>
        <time>2016-07-10T16:46:21Z</time>
      </trkpt>
      <trkpt lat="42.8895" lon="1.91219">
        <ele>539</ele>
        <time>2016-07-10T16:48:21Z</time>
      </trkpt>
      <trkpt lat="42.88944" lon="1.91208">
        <ele>538</ele>
        <time>2016-07-10T16:50:21Z</time>
      </trkpt>
      <trkpt lat="42.8894" lon="1.91196">
        <ele>538</ele>
        <time>2016-07-10T16:52:21Z</time>
      </trkpt>
      <trkpt lat="42.88935" lon="1.91184">
        <ele>538</ele>
        <time>2016-07-10T16:54:21Z</time>
      </trkpt>
      <trkpt lat="42.88932" lon="1.91173">
        <ele>538</ele>
        <time>2016-07-10T16:56:21Z</time>
      </trkpt>
      <trkpt lat="42.88929" lon="1.91159">
        <ele>538</ele>
        <time>2016-07-10T16:58:21Z</time>
      </trkpt>
      <trkpt lat="42.88925" lon="1.91145">
        <ele>538</ele>
        <time>2016-07-10T17:00:21Z</time>
      </trkpt>
      <trkpt lat="42.88921" lon="1.91133">
        <ele>538</ele>
        <time>2016-07-10T17:02:21Z</time>
      </trkpt>
      <trkpt lat="42.88917" lon="1.91124">
        <ele>538</ele>
        <time>2016-07-10T17:04:21Z</time>
      </trkpt>
      <trkpt lat="42.88913" lon="1.91114">
        <ele>538</ele>
        <time>2016-07-10T17:06:21Z</time>
      </trkpt>
      <trkpt lat="42.88909" lon="1.91106">
        <ele>538</ele>
        <time>2016-07-10T17:08:21Z</time>
      </trkpt>
      <trkpt lat="42.88905" lon="1.91096">
        <ele>538</ele>
        <time>2016-07-10T17:10:21Z</time>
      </trkpt>
      <trkpt lat="42.88899" lon="1.91074">
        <ele>539</ele>
        <time>2016-07-10T17:12:21Z</time>
      </trkpt>
      <trkpt lat="42.88895" lon="1.91059">
        <ele>540</ele>
        <time>2016-07-10T17:14:21Z</time>
      </trkpt>
      <trkpt lat="42.88892" lon="1.91042">
        <ele>541</ele>
        <time>2016-07-10T17:16:21Z</time>
      </trkpt>
      <trkpt lat="42.88889" lon="1.91026">
        <ele>543</ele>
        <time>2016-07-10T17:18:21Z</time>
      </trkpt>
      <trkpt lat="42.88886" lon="1.91012">
        <ele>544</ele>
        <time>2016-07-10T17:20:21Z</time>
      </trkpt>
      <trkpt lat="42.88884" lon="1.90998">
        <ele>545</ele>
        <time>2016-07-10T17:22:21Z</time>
      </trkpt>
      <trkpt lat="42.88883" lon="1.90984">
        <ele>546</ele>
        <time>2016-07-10T17:24:21Z</time>
      </trkpt>
      <trkpt lat="42.88882" lon="1.9097">
        <ele>547</ele>
        <time>2016-07-10T17:26:21Z</time>
      </trkpt>
      <trkpt lat="42.88881" lon="1.90958">
        <ele>548</ele>
        <time>2016-07-10T17:28:21Z</time>
      </trkpt>
      <trkpt lat="42.88879" lon="1.90945">
        <ele>549</ele>
        <time>2016-07-10T17:30:21Z</time>
      </trkpt>
      <trkpt lat="42.88876" lon="1.90928">
        <ele>550</ele>
        <time>2016-07-10T17:32:21Z</time>
      </trkpt>
      <trkpt lat="42.88873" lon="1.90912">
        <ele>550</ele>
        <time>2016-07-10T17:34:21Z</time>
      </trkpt>
      <trkpt lat="42.88868" lon="1.90894">
        <ele>549</ele>
        <time>2016-07-10T17:36:21Z</time>
      </trkpt>
      <trkpt lat="42.88859" lon="1.90862">
        <ele>547</ele>
        <time>2016-07-10T17:38:21Z</time>
      </trkpt>
      <trkpt lat="42.88853" lon="1.90841">
        <ele>546</ele>
        <time>2016-07-10T17:40:21Z</time>
      </trkpt>
      <trkpt lat="42.88849" lon="1.90821">
        <ele>545</ele>
        <time>2016-07-10T17:42:21Z</time>
      </trkpt>
      <trkpt lat="42.88844" lon="1.90797">
        <ele>544</ele>
        <time>2016-07-10T17:44:21Z</time>
      </trkpt>
      <trkpt lat="42.88838" lon="1.90771">
        <ele>543</ele>
        <time>2016-07-10T17:46:21Z</time>
      </trkpt>
      <trkpt lat="42.88833" lon="1.90756">
        <ele>543</ele>
        <time>2016-07-10T17:48:21Z</time>
      </trkpt>
      <trkpt lat="42.88826" lon="1.90746">
        <ele>543</ele>
        <time>2016-07-10T17:50:21Z</time>
      </trkpt>
      <trkpt lat="42.88823" lon="1.90741">
        <ele>543</ele>
        <time>2016-07-10T17:52:21Z</time>
      </trkpt>
      <trkpt lat="42.88817" lon="1.90734">
        <ele>543</ele>
        <time>2016-07-10T17:54:21Z</time>
      </trkpt>
      <trkpt lat="42.88812" lon="1.9073">
        <ele>542</ele>
        <time>2016-07-10T17:56:21Z</time>
      </trkpt>
      <trkpt lat="42.88804" lon="1.90728">
        <ele>542</ele>
        <time>2016-07-10T17:58:21Z</time>
      </trkpt>
      <trkpt lat="42.888" lon="1.9072">
        <ele>542</ele>
        <time>2016-07-10T18:00:21Z</time>
      </trkpt>
      <trkpt lat="42.88797" lon="1.90715">
        <ele>542</ele>
        <time>2016-07-10T18:02:21Z</time>
      </trkpt>
      <trkpt lat="42.88793" lon="1.90707">
        <ele>542</ele>
        <time>2016-07-10T18:04:21Z</time>
      </trkpt>
      <trkpt lat="42.88789" lon="1.907">
        <ele>542</ele>
        <time>2016-07-10T18:06:21Z</time>
      </trkpt>
      <trkpt lat="42.88785" lon="1.9069">
        <ele>542</ele>
        <time>2016-07-10T18:08:21Z</time>
      </trkpt>
      <trkpt lat="42.88775" lon="1.90661">
        <ele>542</ele>
        <time>2016-07-10T18:10:21Z</time>
      </trkpt>
      <trkpt lat="42.88771" lon="1.90649">
        <ele>542</ele>
        <time>2016-07-10T18:12:21Z</time>
      </trkpt>
      <trkpt lat="42.88768" lon="1.90638">
        <ele>542</ele>
        <time>2016-07-10T18:14:21Z</time>
      </trkpt>
      <trkpt lat="42.88767" lon="1.90627">
        <ele>542</ele>
        <time>2016-07-10T18:16:21Z</time>
      </trkpt>
      <trkpt lat="42.88765" lon="1.90614">
        <ele>543</ele>
        <time>2016-07-10T18:18:21Z</time>
      </trkpt>
      <trkpt lat="42.88764" lon="1.90601">
        <ele>543</ele>
        <time>2016-07-10T18:20:21Z</time>
      </trkpt>
      <trkpt lat="42.88762" lon="1.90589">
        <ele>543</ele>
        <time>2016-07-10T18:22:21Z</time>
      </trkpt>
      <trkpt lat="42.8876" lon="1.90578">
        <ele>543</ele>
        <time>2016-07-10T18:24:21Z</time>
      </trkpt>
      <trkpt lat="42.8875" lon="1.90541">
        <ele>542</ele>
        <time>2016-07-10T18:26:21Z</time>
      </trkpt>
      <trkpt lat="42.88743" lon="1.90521">
        <ele>542</ele>
        <time>2016-07-10T18:28:21Z</time>
      </trkpt>
      <trkpt lat="42.88737" lon="1.90507">
        <ele>542</ele>
        <time>2016-07-10T18:30:21Z</time>
      </trkpt>
      <trkpt lat="42.88735" lon="1.90503">
        <ele>542</ele>
        <time>2016-07-10T18:32:21Z</time>
      </trkpt>
      <trkpt lat="42.88732" lon="1.90497">
        <ele>542</ele>
        <time>2016-07-10T18:34:21Z</time>
      </trkpt>
      <trkpt lat="42.88727" lon="1.90486">
        <ele>542</ele>
        <time>2016-07-10T18:36:21Z</time>
      </trkpt>
      <trkpt lat="42.88725" lon="1.90476">
        <ele>542</ele>
        <time>2016-07-10T18:38:21Z</time>
      </trkpt>
      <trkpt lat="42.88724" lon="1.90466">
        <ele>542</ele>
        <time>2016-07-10T18:40:21Z</time>
      </trkpt>
      <trkpt lat="42.88723" lon="1.90453">
        <ele>543</ele>
        <time>2016-07-10T18:42:21Z</time>
      </trkpt>
      <trkpt lat="42.88719" lon="1.90437">
        <ele>543</ele>
        <time>2016-07-10T18:44:21Z</time>
      </trkpt>
      <trkpt lat="42.88716" lon="1.90423">
        <ele>543</ele>
        <time>2016-07-10T18:46:21Z</time>
      </trkpt>
      <trkpt lat="42.8871" lon="1.90408">
        <ele>543</ele>
        <time>2016-07-10T18:48:21Z</time>
      </trkpt>
      <trkpt lat="42.88705" lon="1.90396">
        <ele>543</ele>
        <time>2016-07-10T18:50:21Z</time>
      </trkpt>
      <trkpt lat="42.88702" lon="1.90388">
        <ele>544</ele>
        <time>2016-07-10T18:52:21Z</time>
      </trkpt>
      <trkpt lat="42.88699" lon="1.90372">
        <ele>544</ele>
        <time>2016-07-10T18:54:21Z</time>
      </trkpt>
      <trkpt lat="42.88695" lon="1.90352">
        <ele>544</ele>
        <time>2016-07-10T18:56:21Z</time>
      </trkpt>
      <trkpt lat="42.8869" lon="1.90334">
        <ele>544</ele>
        <time>2016-07-10T18:58:21Z</time>
      </trkpt>
      <trkpt lat="42.88686" lon="1.9032">
        <ele>544</ele>
        <time>2016-07-10T19:00:21Z</time>
      </trkpt>
      <trkpt lat="42.88679" lon="1.903">
        <ele>544</ele>
        <time>2016-07-10T19:02:21Z</time>
      </trkpt>
      <trkpt lat="42.88669" lon="1.90271">
        <ele>542</ele>
        <time>2016-07-10T19:04:21Z</time>
      </trkpt>
      <trkpt lat="42.88663" lon="1.90255">
        <ele>542</ele>
        <time>2016-07-10T19:06:21Z</time>
      </trkpt>
      <trkpt lat="42.88653" lon="1.9022">
        <ele>543</ele>
        <time>2016-07-10T19:08:21Z</time>
      </trkpt>
      <trkpt lat="42.88644" lon="1.90194">
        <ele>543</ele>
        <time>2016-07-10T19:10:21Z</time>
      </trkpt>
      <trkpt lat="42.88632" lon="1.90157">
        <ele>543</ele>
        <time>2016-07-10T19:12:21Z</time>
      </trkpt>
      <trkpt lat="42.88632" lon="1.90157">
        <ele>543</ele>
        <time>2016-07-10T19:14:21Z</time>
      </trkpt>
      <trkpt lat="42.88615" lon="1.90103">
        <ele>543</ele>
        <time>2016-07-10T19:16:21Z</time>
      </trkpt>
      <trkpt lat="42.88603" lon="1.9007">
        <ele>542</ele>
        <time>2016-07-10T19:18:21Z</time>
      </trkpt>
      <trkpt lat="42.88587" lon="1.90033">
        <ele>540</ele>
        <time>2016-07-10T19:20:21Z</time>
      </trkpt>
      <trkpt lat="42.88587" lon="1.90033">
        <ele>540</ele>
        <time>2016-07-10T19:22:21Z</time>
      </trkpt>
      <trkpt lat="42.88587" lon="1.90031">
        <ele>540</ele>
        <time>2016-07-10T19:24:21Z</time>
      </trkpt>
      <trkpt lat="42.88587" lon="1.90028">
        <ele>540</ele>
        <time>2016-07-10T19:26:21Z</time>
      </trkpt>
      <trkpt lat="42.88586" lon="1.90022">
        <ele>540</ele>
        <time>2016-07-10T19:28:21Z</time>
      </trkpt>
      <trkpt lat="42.88583" lon="1.90009">
        <ele>540</ele>
        <time>2016-07-10T19:30:21Z</time>
      </trkpt>
      <trkpt lat="42.88582" lon="1.90001">
        <ele>540</ele>
        <time>2016-07-10T19:32:21Z</time>
      </trkpt>
      <trkpt lat="42.88576" lon="1.89967">
        <ele>540</ele>
        <time>2016-07-10T19:34:21Z</time>
      </trkpt>
      <trkpt lat="42.88573" lon="1.89954">
        <ele>540</ele>
        <time>2016-07-10T19:36:21Z</time>
      </trkpt>
      <trkpt lat="42.88569" lon="1.89937">
        <ele>540</ele>
        <time>2016-07-10T19:38:21Z</time>
      </trkpt>
      <trkpt lat="42.88564" lon="1.89918">
        <ele>540</ele>
        <time>2016-07-10T19:40:21Z</time>
      </trkpt>
      <trkpt lat="42.8856" lon="1.899">
        <ele>540</ele>
        <time>2016-07-10T19:42:21Z</time>
      </trkpt>
      <trkpt lat="42.88555" lon="1.89884">
        <ele>540</ele>
        <time>2016-07-10T19:44:21Z</time>
      </trkpt>
      <trkpt lat="42.8855" lon="1.89867">
        <ele>540</ele>
        <time>2016-07-10T19:46:21Z</time>
      </trkpt>
      <trkpt lat="42.88545" lon="1.89849">
        <ele>540</ele>
        <time>2016-07-10T19:48:21Z</time>
      </trkpt>
      <trkpt lat="42.88539" lon="1.89837">
        <ele>540</ele>
        <time>2016-07-10T19:50:21Z</time>
      </trkpt>
      <trkpt lat="42.88532" lon="1.89829">
        <ele>540</ele>
        <time>2016-07-10T19:52:21Z</time>
      </trkpt>
      <trkpt lat="42.88525" lon="1.89824">
        <ele>540</ele>
        <time>2016-07-10T19:54:21Z</time>
      </trkpt>
      <trkpt lat="42.88517" lon="1.8982">
        <ele>540</ele>
        <time>2016-07-10T19:56:21Z</time>
      </trkpt>
      <trkpt lat="42.88505" lon="1.89818">
        <ele>540</ele>
        <time>2016-07-10T19:58:21Z</time>
      </trkpt>
      <trkpt lat="42.88488" lon="1.89815">
        <ele>540</ele>
        <time>2016-07-10T20:00:21Z</time>
      </trkpt>
      <trkpt lat="42.88478" lon="1.89808">
        <ele>540</ele>
        <time>2016-07-10T20:02:21Z</time>
      </trkpt>
      <trkpt lat="42.8847" lon="1.89801">
        <ele>540</ele>
        <time>2016-07-10T20:04:21Z</time>
      </trkpt>
      <trkpt lat="42.88458" lon="1.89785">
        <ele>540</ele>
        <time>2016-07-10T20:06:21Z</time>
      </trkpt>
      <trkpt lat="42.88447" lon="1.89771">
        <ele>540</ele>
        <time>2016-07-10T20:08:21Z</time>
      </trkpt>
      <trkpt lat="42.88438" lon="1.89762">
        <ele>540</ele>
        <time>2016-07-10T20:10:21Z</time>
      </trkpt>
      <trkpt lat="42.88428" lon="1.89753">
        <ele>540</ele>
        <time>2016-07-10T20:12:21Z</time>
      </trkpt>
      <trkpt lat="42.88416" lon="1.89743">
        <ele>540</ele>
        <time>2016-07-10T20:14:21Z</time>
      </trkpt>
      <trkpt lat="42.88404" lon="1.89732">
        <ele>540</ele>
        <time>2016-07-10T20:16:21Z</time>
      </trkpt>
      <trkpt lat="42.88393" lon="1.89719">
        <ele>540</ele>
        <time>2016-07-10T20:18:21Z</time>
      </trkpt>
      <trkpt lat="42.88379" lon="1.89702">
        <ele>540</ele>
        <time>2016-07-10T20:20:21Z</time>
      </trkpt>
      <trkpt lat="42.88365" lon="1.89681">
        <ele>540</ele>
        <time>2016-07-10T20:22:21Z</time>
      </trkpt>
      <trkpt lat="42.88352" lon="1.89661">
        <ele>540</ele>
        <time>2016-07-10T20:24:21Z</time>
      </trkpt>
      <trkpt lat="42.88346" lon="1.89651">
        <ele>540</ele>
        <time>2016-07-10T20:26:21Z</time>
      </trkpt>
      <trkpt lat="42.8834" lon="1.89645">
        <ele>540</ele>
        <time>2016-07-10T20:28:21Z</time>
      </trkpt>
      <trkpt lat="42.88328" lon="1.89636">
        <ele>540</ele>
        <time>2016-07-10T20:30:21Z</time>
      </trkpt>
      <trkpt lat="42.88308" lon="1.89625">
        <ele>540</ele>
        <time>2016-07-10T20:32:21Z</time>
      </trkpt>
      <trkpt lat="42.88288" lon="1.89615">
        <ele>540</ele>
        <time>2016-07-10T20:34:21Z</time>
      </trkpt>
      <trkpt lat="42.88261" lon="1.89602">
        <ele>540</ele>
        <time>2016-07-10T20:36:21Z</time>
      </trkpt>
      <trkpt lat="42.88249" lon="1.89595">
        <ele>540</ele>
        <time>2016-07-10T20:38:21Z</time>
      </trkpt>
      <trkpt lat="42.88236" lon="1.89586">
        <ele>540</ele>
        <time>2016-07-10T20:40:21Z</time>
      </trkpt>
      <trkpt lat="42.88225" lon="1.89575">
        <ele>540</ele>
        <time>2016-07-10T20:42:21Z</time>
      </trkpt>
      <trkpt lat="42.88214" lon="1.89565">
        <ele>540</ele>
        <time>2016-07-10T20:44:21Z</time>
      </trkpt>
      <trkpt lat="42.88199" lon="1.89551">
        <ele>540</ele>
        <time>2016-07-10T20:46:21Z</time>
      </trkpt>
      <trkpt lat="42.88186" lon="1.89539">
        <ele>540</ele>
        <time>2016-07-10T20:48:21Z</time>
      </trkpt>
      <trkpt lat="42.88177" lon="1.89531">
        <ele>540</ele>
        <time>2016-07-10T20:50:21Z</time>
      </trkpt>
      <trkpt lat="42.8817" lon="1.89525">
        <ele>540</ele>
        <time>2016-07-10T20:52:21Z</time>
      </trkpt>
      <trkpt lat="42.88162" lon="1.89519">
        <ele>540</ele>
        <time>2016-07-10T20:54:21Z</time>
      </trkpt>
      <trkpt lat="42.88152" lon="1.89513">
        <ele>540</ele>
        <time>2016-07-10T20:56:21Z</time>
      </trkpt>
      <trkpt lat="42.88132" lon="1.895">
        <ele>540</ele>
        <time>2016-07-10T20:58:21Z</time>
      </trkpt>
      <trkpt lat="42.88118" lon="1.89492">
        <ele>540</ele>
        <time>2016-07-10T21:00:21Z</time>
      </trkpt>
      <trkpt lat="42.88098" lon="1.8948">
        <ele>541</ele>
        <time>2016-07-10T21:02:21Z</time>
      </trkpt>
      <trkpt lat="42.88088" lon="1.89475">
        <ele>541</ele>
        <time>2016-07-10T21:04:21Z</time>
      </trkpt>
      <trkpt lat="42.88082" lon="1.89471">
        <ele>541</ele>
        <time>2016-07-10T21:06:21Z</time>
      </trkpt>
      <trkpt lat="42.88076" lon="1.89465">
        <ele>541</ele>
        <time>2016-07-10T21:08:21Z</time>
      </trkpt>
      <trkpt lat="42.88072" lon="1.8946">
        <ele>541</ele>
        <time>2016-07-10T21:10:21Z</time>
      </trkpt>
      <trkpt lat="42.88069" lon="1.89456">
        <ele>541</ele>
        <time>2016-07-10T21:12:21Z</time>
      </trkpt>
      <trkpt lat="42.88064" lon="1.89447">
        <ele>541</ele>
        <time>2016-07-10T21:14:21Z</time>
      </trkpt>
      <trkpt lat="42.88062" lon="1.89441">
        <ele>542</ele>
        <time>2016-07-10T21:16:21Z</time>
      </trkpt>
      <trkpt lat="42.88054" lon="1.89423">
        <ele>542</ele>
        <time>2016-07-10T21:18:21Z</time>
      </trkpt>
      <trkpt lat="42.88049" lon="1.89409">
        <ele>542</ele>
        <time>2016-07-10T21:20:21Z</time>
      </trkpt>
      <trkpt lat="42.88047" lon="1.89402">
        <ele>542</ele>
        <time>2016-07-10T21:22:21Z</time>
      </trkpt>
      <trkpt lat="42.88049" lon="1.89392">
        <ele>543</ele>
        <time>2016-07-10T21:24:21Z</time>
      </trkpt>
      <trkpt lat="42.88049" lon="1.89387">
        <ele>543</ele>
        <time>2016-07-10T21:26:21Z</time>
      </trkpt>
      <trkpt lat="42.88048" lon="1.89376">
        <ele>544</ele>
        <time>2016-07-10T21:28:21Z</time>
      </trkpt>
      <trkpt lat="42.88048" lon="1.89363">
        <ele>544</ele>
        <time>2016-07-10T21:30:21Z</time>
      </trkpt>
      <trkpt lat="42.88047" lon="1.89354">
        <ele>545</ele>
        <time>2016-07-10T21:32:21Z</time>
      </trkpt>
      <trkpt lat="42.88047" lon="1.89339">
        <ele>545</ele>
        <time>2016-07-10T21:34:21Z</time>
      </trkpt>
      <trkpt lat="42.88047" lon="1.89334">
        <ele>545</ele>
        <time>2016-07-10T21:36:21Z</time>
      </trkpt>
      <trkpt lat="42.88053" lon="1.89315">
        <ele>547</ele>
        <time>2016-07-10T21:38:21Z</time>
      </trkpt>
      <trkpt lat="42.88054" lon="1.89304">
        <ele>548</ele>
        <time>2016-07-10T21:40:21Z</time>
      </trkpt>
      <trkpt lat="42.88055" lon="1.89298">
        <ele>548</ele>
        <time>2016-07-10T21:42:21Z</time>
      </trkpt>
      <trkpt lat="42.88056" lon="1.89291">
        <ele>549</ele>
        <time>2016-07-10T21:44:21Z</time>
      </trkpt>
      <trkpt lat="42.88056" lon="1.89279">
        <ele>550</ele>
        <time>2016-07-10T21:46:21Z</time>
      </trkpt>
      <trkpt lat="42.88056" lon="1.89253">
        <ele>551</ele>
        <time>2016-07-10T21:48:21Z</time>
      </trkpt>
      <trkpt lat="42.88056" lon="1.89244">
        <ele>552</ele>
        <time>2016-07-10T21:50:21Z</time>
      </trkpt>
      <trkpt lat="42.88055" lon="1.89233">
        <ele>552</ele>
        <time>2016-07-10T21:52:21Z</time>
      </trkpt>
      <trkpt lat="42.88055" lon="1.89226">
        <ele>552</ele>
        <time>2016-07-10T21:54:21Z</time>
      </trkpt>
      <trkpt lat="42.88054" lon="1.8922">
        <ele>552</ele>
        <time>2016-07-10T21:56:21Z</time>
      </trkpt>
      <trkpt lat="42.88053" lon="1.89213">
        <ele>552</ele>
        <time>2016-07-10T21:58:21Z</time>
      </trkpt>
      <trkpt lat="42.88051" lon="1.89206">
        <ele>552</ele>
        <time>2016-07-10T22:00:21Z</time>
      </trkpt>
      <trkpt lat="42.88046" lon="1.89189">
        <ele>552</ele>
        <time>2016-07-10T22:02:21Z</time>
      </trkpt>
      <trkpt lat="42.88042" lon="1.89176">
        <ele>552</ele>
        <time>2016-07-10T22:04:21Z</time>
      </trkpt>
      <trkpt lat="42.88033" lon="1.89155">
        <ele>551</ele>
        <time>2016-07-10T22:06:21Z</time>
      </trkpt>
      <trkpt lat="42.88026" lon="1.89135">
        <ele>551</ele>
        <time>2016-07-10T22:08:21Z</time>
      </trkpt>
      <trkpt lat="42.88021" lon="1.8912">
        <ele>551</ele>
        <time>2016-07-10T22:10:21Z</time>
      </trkpt>
      <trkpt lat="42.88021" lon="1.89107">
        <ele>551</ele>
        <time>2016-07-10T22:12:21Z</time>
      </trkpt>
      <trkpt lat="42.88022" lon="1.89098">
        <ele>551</ele>
        <time>2016-07-10T22:14:21Z</time>
      </trkpt>
      <trkpt lat="42.88029" lon="1.8907">
        <ele>553</ele>
        <time>2016-07-10T22:16:21Z</time>
      </trkpt>
      <trkpt lat="42.88036" lon="1.89043">
        <ele>555</ele>
        <time>2016-07-10T22:18:21Z</time>
      </trkpt>
      <trkpt lat="42.88042" lon="1.89016">
        <ele>557</ele>
        <time>2016-07-10T22:20:21Z</time>
      </trkpt>
      <trkpt lat="42.88051" lon="1.88983">
        <ele>559</ele>
        <time>2016-07-10T22:22:21Z</time>
      </trkpt>
      <trkpt lat="42.88061" lon="1.88941">
        <ele>559</ele>
        <time>2016-07-10T22:24:21Z</time>
      </trkpt>
      <trkpt lat="42.88068" lon="1.88915">
        <ele>560</ele>
        <time>2016-07-10T22:26:21Z</time>
      </trkpt>
      <trkpt lat="42.88074" lon="1.88898">
        <ele>560</ele>
        <time>2016-07-10T22:28:21Z</time>
      </trkpt>
      <trkpt lat="42.88086" lon="1.88867">
        <ele>561</ele>
        <time>2016-07-10T22:30:21Z</time>
      </trkpt>
      <trkpt lat="42.88102" lon="1.88829">
        <ele>566</ele>
        <time>2016-07-10T22:32:21Z</time>
      </trkpt>
      <trkpt lat="42.88121" lon="1.88786">
        <ele>570</ele>
        <time>2016-07-10T22:34:21Z</time>
      </trkpt>
      <trkpt lat="42.88138" lon="1.88747">
        <ele>573</ele>
        <time>2016-07-10T22:36:21Z</time>
      </trkpt>
      <trkpt lat="42.88158" lon="1.88702">
        <ele>574</ele>
        <time>2016-07-10T22:38:21Z</time>
      </trkpt>
      <trkpt lat="42.88174" lon="1.88673">
        <ele>575</ele>
        <time>2016-07-10T22:40:21Z</time>
      </trkpt>
      <trkpt lat="42.88181" lon="1.88664">
        <ele>576</ele>
        <time>2016-07-10T22:42:21Z</time>
      </trkpt>
      <trkpt lat="42.88188" lon="1.88655">
        <ele>578</ele>
        <time>2016-07-10T22:44:21Z</time>
      </trkpt>
      <trkpt lat="42.88197" lon="1.88646">
        <ele>580</ele>
        <time>2016-07-10T22:46:21Z</time>
      </trkpt>
      <trkpt lat="42.88206" lon="1.88637">
        <ele>582</ele>
        <time>2016-07-10T22:48:21Z</time>
      </trkpt>
      <trkpt lat="42.88216" lon="1.88629">
        <ele>585</ele>
        <time>2016-07-10T22:50:21Z</time>
      </trkpt>
      <trkpt lat="42.88222" lon="1.88623">
        <ele>586</ele>
        <time>2016-07-10T22:52:21Z</time>
      </trkpt>
      <trkpt lat="42.88226" lon="1.88616">
        <ele>586</ele>
        <time>2016-07-10T22:54:21Z</time>
      </trkpt>
      <trkpt lat="42.88229" lon="1.88609">
        <ele>586</ele>
        <time>2016-07-10T22:56:21Z</time>
      </trkpt>
      <trkpt lat="42.8823" lon="1.88604">
        <ele>586</ele>
        <time>2016-07-10T22:58:21Z</time>
      </trkpt>
      <trkpt lat="42.8823" lon="1.88597">
        <ele>585</ele>
        <time>2016-07-10T23:00:21Z</time>
      </trkpt>
      <trkpt lat="42.88229" lon="1.88591">
        <ele>584</ele>
        <time>2016-07-10T23:02:21Z</time>
      </trkpt>
      <trkpt lat="42.88226" lon="1.88578">
        <ele>583</ele>
        <time>2016-07-10T23:04:21Z</time>
      </trkpt>
      <trkpt lat="42.88223" lon="1.88565">
        <ele>582</ele>
        <time>2016-07-10T23:06:21Z</time>
      </trkpt>
      <trkpt lat="42.88222" lon="1.88553">
        <ele>581</ele>
        <time>2016-07-10T23:08:21Z</time>
      </trkpt>
      <trkpt lat="42.88221" lon="1.88539">
        <ele>580</ele>
        <time>2016-07-10T23:10:21Z</time>
      </trkpt>
      <trkpt lat="42.88222" lon="1.88525">
        <ele>580</ele>
        <time>2016-07-10T23:12:21Z</time>
      </trkpt>
      <trkpt lat="42.88224" lon="1.88507">
        <ele>579</ele>
        <time>2016-07-10T23:14:21Z</time>
      </trkpt>
      <trkpt lat="42.88226" lon="1.88488">
        <ele>579</ele>
        <time>2016-07-10T23:16:21Z</time>
      </trkpt>
      <trkpt lat="42.88231" lon="1.88465">
        <ele>579</ele>
        <time>2016-07-10T23:18:21Z</time>
      </trkpt>
      <trkpt lat="42.88235" lon="1.88453">
        <ele>579</ele>
        <time>2016-07-10T23:20:21Z</time>
      </trkpt>
      <trkpt lat="42.8824" lon="1.88443">
        <ele>580</ele>
        <time>2016-07-10T23:22:21Z</time>
      </trkpt>
      <trkpt lat="42.88249" lon="1.88427">
        <ele>580</ele>
        <time>2016-07-10T23:24:21Z</time>
      </trkpt>
      <trkpt lat="42.88257" lon="1.88417">
        <ele>581</ele>
        <time>2016-07-10T23:26:21Z</time>
      </trkpt>
      <trkpt lat="42.88279" lon="1.8839">
        <ele>583</ele>
        <time>2016-07-10T23:28:21Z</time>
      </trkpt>
      <trkpt lat="42.88293" lon="1.88372">
        <ele>585</ele>
        <time>2016-07-10T23:30:21Z</time>
      </trkpt>
      <trkpt lat="42.88301" lon="1.88358">
        <ele>585</ele>
        <time>2016-07-10T23:32:21Z</time>
      </trkpt>
      <trkpt lat="42.88307" lon="1.88343">
        <ele>585</ele>
        <time>2016-07-10T23:34:21Z</time>
      </trkpt>
      <trkpt lat="42.88312" lon="1.88327">
        <ele>585</ele>
        <time>2016-07-10T23:36:21Z</time>
      </trkpt>
      <trkpt lat="42.88316" lon="1.88309">
        <ele>585</ele>
        <time>2016-07-10T23:38:21Z</time>
      </trkpt>
      <trkpt lat="42.88319" lon="1.8829">
        <ele>585</ele>
        <time>2016-07-10T23:40:21Z</time>
      </trkpt>
      <trkpt lat="42.88321" lon="1.88271">
        <ele>585</ele>
        <time>2016-07-10T23:42:21Z</time>
      </trkpt>
      <trkpt lat="42.88323" lon="1.88248">
        <ele>585</ele>
        <time>2016-07-10T23:44:21Z</time>
      </trkpt>
      <trkpt lat="42.88324" lon="1.88233">
        <ele>585</ele>
        <time>2016-07-10T23:46:21Z</time>
      </trkpt>
      <trkpt lat="42.88323" lon="1.88213">
        <ele>585</ele>
        <time>2016-07-10T23:48:21Z</time>
      </trkpt>
      <trkpt lat="42.88322" lon="1.88193">
        <ele>585</ele>
        <time>2016-07-10T23:50:21Z</time>
      </trkpt>
      <trkpt lat="42.88321" lon="1.88173">
        <ele>584</ele>
        <time>2016-07-10T23:52:21Z</time>
      </trkpt>
      <trkpt lat="42.88322" lon="1.88158">
        <ele>584</ele>
        <time>2016-07-10T23:54:21Z</time>
      </trkpt>
      <trkpt lat="42.88323" lon="1.88143">
        <ele>584</ele>
        <time>2016-07-10T23:56:21Z</time>
      </trkpt>
      <trkpt lat="42.88325" lon="1.88122">
        <ele>584</ele>
        <time>2016-07-10T23:58:21Z</time>
      </trkpt>
      <trkpt lat="42.88328" lon="1.88102">
        <ele>584</ele>
        <time>2016-07-11T00:00:21Z</time>
      </trkpt>
      <trkpt lat="42.88335" lon="1.88073">
        <ele>584</ele>
        <time>2016-07-11T00:02:21Z</time>
      </trkpt>
      <trkpt lat="42.88339" lon="1.88054">
        <ele>585</ele>
        <time>2016-07-11T00:04:21Z</time>
      </trkpt>
      <trkpt lat="42.88345" lon="1.88033">
        <ele>586</ele>
        <time>2016-07-11T00:06:21Z</time>
      </trkpt>
      <trkpt lat="42.88352" lon="1.88">
        <ele>586</ele>
        <time>2016-07-11T00:08:21Z</time>
      </trkpt>
      <trkpt lat="42.88353" lon="1.87988">
        <ele>586</ele>
        <time>2016-07-11T00:10:21Z</time>
      </trkpt>
      <trkpt lat="42.88357" lon="1.87965">
        <ele>586</ele>
        <time>2016-07-11T00:12:21Z</time>
      </trkpt>
      <trkpt lat="42.88359" lon="1.87953">
        <ele>586</ele>
        <time>2016-07-11T00:14:21Z</time>
      </trkpt>
      <trkpt lat="42.88362" lon="1.87929">
        <ele>586</ele>
        <time>2016-07-11T00:16:21Z</time>
      </trkpt>
      <trkpt lat="42.88363" lon="1.87916">
        <ele>586</ele>
        <time>2016-07-11T00:18:21Z</time>
      </trkpt>
      <trkpt lat="42.88371" lon="1.8785">
        <ele>586</ele>
        <time>2016-07-11T00:20:21Z</time>
      </trkpt>
      <trkpt lat="42.88378" lon="1.87783">
        <ele>587</ele>
        <time>2016-07-11T00:22:21Z</time>
      </trkpt>
      <trkpt lat="42.88382" lon="1.87747">
        <ele>587</ele>
        <time>2016-07-11T00:24:21Z</time>
      </trkpt>
      <trkpt lat="42.88383" lon="1.87735">
        <ele>587</ele>
        <time>2016-07-11T00:26:21Z</time>
      </trkpt>
      <trkpt lat="42.88384" lon="1.87723">
        <ele>587</ele>
        <time>2016-07-11T00:28:21Z</time>
      </trkpt>
      <trkpt lat="42.88384" lon="1.87713">
        <ele>587</ele>
        <time>2016-07-11T00:30:21Z</time>
      </trkpt>
      <trkpt lat="42.88384" lon="1.87702">
        <ele>588</ele>
        <time>2016-07-11T00:32:21Z</time>
      </trkpt>
      <trkpt lat="42.88384" lon="1.87691">
        <ele>588</ele>
        <time>2016-07-11T00:34:21Z</time>
      </trkpt>
      <trkpt lat="42.88383" lon="1.87668">
        <ele>588</ele>
        <time>2016-07-11T00:36:21Z</time>
      </trkpt>
      <trkpt lat="42.88382" lon="1.87645">
        <ele>588</ele>
        <time>2016-07-11T00:38:21Z</time>
      </trkpt>
      <trkpt lat="42.88382" lon="1.87635">
        <ele>588</ele>
        <time>2016-07-11T00:40:21Z</time>
      </trkpt>
      <trkpt lat="42.88382" lon="1.87624">
        <ele>588</ele>
        <time>2016-07-11T00:42:21Z</time>
      </trkpt>
      <trkpt lat="42.88383" lon="1.87608">
        <ele>589</ele>
        <time>2016-07-11T00:44:21Z</time>
      </trkpt>
      <trkpt lat="42.88384" lon="1.87587">
        <ele>589</ele>
        <time>2016-07-11T00:46:21Z</time>
      </trkpt>
      <trkpt lat="42.88385" lon="1.87578">
        <ele>590</ele>
        <time>2016-07-11T00:48:21Z</time>
      </trkpt>
      <trkpt lat="42.88386" lon="1.87563">
        <ele>590</ele>
        <time>2016-07-11T00:50:21Z</time>
      </trkpt>
      <trkpt lat="42.88387" lon="1.87552">
        <ele>590</ele>
        <time>2016-07-11T00:52:21Z</time>
      </trkpt>
      <trkpt lat="42.88387" lon="1.87543">
        <ele>590</ele>
        <time>2016-07-11T00:54:21Z</time>
      </trkpt>
      <trkpt lat="42.88387" lon="1.87528">
        <ele>590</ele>
        <time>2016-07-11T00:56:21Z</time>
      </trkpt>
      <trkpt lat="42.88387" lon="1.87515">
        <ele>591</ele>
        <time>2016-07-11T00:58:21Z</time>
      </trkpt>
      <trkpt lat="42.88385" lon="1.87496">
        <ele>590</ele>
        <time>2016-07-11T01:00:21Z</time>
      </trkpt>
      <trkpt lat="42.88384" lon="1.87487">
        <ele>590</ele>
        <time>2016-07-11T01:02:21Z</time>
      </trkpt>
      <trkpt lat="42.88383" lon="1.87478">
        <ele>590</ele>
        <time>2016-07-11T01:04:21Z</time>
      </trkpt>
      <trkpt lat="42.88381" lon="1.87469">
        <ele>590</ele>
        <time>2016-07-11T01:06:21Z</time>
      </trkpt>
      <trkpt lat="42.88379" lon="1.87457">
        <ele>590</ele>
        <time>2016-07-11T01:08:21Z</time>
      </trkpt>
      <trkpt lat="42.88373" lon="1.87435">
        <ele>590</ele>
        <time>2016-07-11T01:10:21Z</time>
      </trkpt>
      <trkpt lat="42.88372" lon="1.87427">
        <ele>590</ele>
        <time>2016-07-11T01:12:21Z</time>
      </trkpt>
      <trkpt lat="42.8837" lon="1.87415">
        <ele>589</ele>
        <time>2016-07-11T01:14:21Z</time>
      </trkpt>
      <trkpt lat="42.8837" lon="1.87405">
        <ele>590</ele>
        <time>2016-07-11T01:16:21Z</time>
      </trkpt>
      <trkpt lat="42.88371" lon="1.87396">
        <ele>590</ele>
        <time>2016-07-11T01:18:21Z</time>
      </trkpt>
      <trkpt lat="42.88374" lon="1.87385">
        <ele>590</ele>
        <time>2016-07-11T01:20:21Z</time>
      </trkpt>
      <trkpt lat="42.88377" lon="1.8737">
        <ele>591</ele>
        <time>2016-07-11T01:22:21Z</time>
      </trkpt>
      <trkpt lat="42.88381" lon="1.87355">
        <ele>592</ele>
        <time>2016-07-11T01:24:21Z</time>
      </trkpt>
      <trkpt lat="42.88389" lon="1.87324">
        <ele>593</ele>
        <time>2016-07-11T01:26:21Z</time>
      </trkpt>
      <trkpt lat="42.88391" lon="1.87314">
        <ele>593</ele>
        <time>2016-07-11T01:28:21Z</time>
      </trkpt>
      <trkpt lat="42.88394" lon="1.87298">
        <ele>594</ele>
        <time>2016-07-11T01:30:21Z</time>
      </trkpt>
      <trkpt lat="42.88395" lon="1.87271">
        <ele>594</ele>
        <time>2016-07-11T01:32:21Z</time>
      </trkpt>
      <trkpt lat="42.88398" lon="1.87229">
        <ele>595</ele>
        <time>2016-07-11T01:34:21Z</time>
      </trkpt>
      <trkpt lat="42.88401" lon="1.87163">
        <ele>595</ele>
        <time>2016-07-11T01:36:21Z</time>
      </trkpt>
      <trkpt lat="42.88403" lon="1.87106">
        <ele>596</ele>
        <time>2016-07-11T01:38:21Z</time>
      </trkpt>
      <trkpt lat="42.88405" lon="1.87065">
        <ele>596</ele>
        <time>2016-07-11T01:40:21Z</time>
      </trkpt>
      <trkpt lat="42.88408" lon="1.87016">
        <ele>597</ele>
        <time>2016-07-11T01:42:21Z</time>
      </trkpt>
      <trkpt lat="42.88408" lon="1.87006">
        <ele>597</ele>
        <time>2016-07-11T01:44:21Z</time>
      </trkpt>
      <trkpt lat="42.88409" lon="1.86995">
        <ele>597</ele>
        <time>2016-07-11T01:46:21Z</time>
      </trkpt>
      <trkpt lat="42.8841" lon="1.8697">
        <ele>597</ele>
        <time>2016-07-11T01:48:21Z</time>
      </trkpt>
      <trkpt lat="42.88411" lon="1.86938">
        <ele>598</ele>
        <time>2016-07-11T01:50:21Z</time>
      </trkpt>
      <trkpt lat="42.88413" lon="1.86903">
        <ele>598</ele>
        <time>2016-07-11T01:52:21Z</time>
      </trkpt>
      <trkpt lat="42.88413" lon="1.86875">
        <ele>598</ele>
        <time>2016-07-11T01:54:21Z</time>
      </trkpt>
      <trkpt lat="42.88413" lon="1.86854">
        <ele>598</ele>
        <time>2016-07-11T01:56:21Z</time>
      </trkpt>
      <trkpt lat="42.88412" lon="1.86843">
        <ele>598</ele>
        <time>2016-07-11T01:58:21Z</time>
      </trkpt>
      <trkpt lat="42.8841" lon="1.86827">
        <ele>598</ele>
        <time>2016-07-11T02:00:21Z</time>
      </trkpt>
      <trkpt lat="42.88404" lon="1.86784">
        <ele>598</ele>
        <time>2016-07-11T02:02:21Z</time>
      </trkpt>
      <trkpt lat="42.88392" lon="1.86688">
        <ele>600</ele>
        <time>2016-07-11T02:04:21Z</time>
      </trkpt>
      <trkpt lat="42.88388" lon="1.86661">
        <ele>600</ele>
        <time>2016-07-11T02:06:21Z</time>
      </trkpt>
      <trkpt lat="42.88387" lon="1.86653">
        <ele>600</ele>
        <time>2016-07-11T02:08:21Z</time>
      </trkpt>
      <trkpt lat="42.88385" lon="1.86645">
        <ele>600</ele>
        <time>2016-07-11T02:10:21Z</time>
      </trkpt>
      <trkpt lat="42.88383" lon="1.86638">
        <ele>601</ele>
        <time>2016-07-11T02:12:21Z</time>
      </trkpt>
      <trkpt lat="42.88381" lon="1.86631">
        <ele>601</ele>
        <time>2016-07-11T02:14:21Z</time>
      </trkpt>
      <trkpt lat="42.88378" lon="1.86624">
        <ele>601</ele>
        <time>2016-07-11T02:16:21Z</time>
      </trkpt>
      <trkpt lat="42.88374" lon="1.86618">
        <ele>601</ele>
        <time>2016-07-11T02:18:21Z</time>
      </trkpt>
      <trkpt lat="42.88372" lon="1.86615">
        <ele>601</ele>
        <time>2016-07-11T02:20:21Z</time>
      </trkpt>
      <trkpt lat="42.88369" lon="1.86612">
        <ele>601</ele>
        <time>2016-07-11T02:22:21Z</time>
      </trkpt>
      <trkpt lat="42.88365" lon="1.86606">
        <ele>600</ele>
        <time>2016-07-11T02:24:21Z</time>
      </trkpt>
      <trkpt lat="42.8835" lon="1.8659">
        <ele>600</ele>
        <time>2016-07-11T02:26:21Z</time>
      </trkpt>
      <trkpt lat="42.88332" lon="1.86573">
        <ele>599</ele>
        <time>2016-07-11T02:28:21Z</time>
      </trkpt>
      <trkpt lat="42.88322" lon="1.86563">
        <ele>600</ele>
        <time>2016-07-11T02:30:21Z</time>
      </trkpt>
      <trkpt lat="42.88308" lon="1.86554">
        <ele>600</ele>
        <time>2016-07-11T02:32:21Z</time>
      </trkpt>
      <trkpt lat="42.8829" lon="1.86542">
        <ele>601</ele>
        <time>2016-07-11T02:34:21Z</time>
      </trkpt>
      <trkpt lat="42.88275" lon="1.86535">
        <ele>602</ele>
        <time>2016-07-11T02:36:21Z</time>
      </trkpt>
      <trkpt lat="42.88255" lon="1.86525">
        <ele>602</ele>
        <time>2016-07-11T02:38:21Z</time>
      </trkpt>
      <trkpt lat="42.88238" lon="1.86517">
        <ele>604</ele>
        <time>2016-07-11T02:40:21Z</time>
      </trkpt>
      <trkpt lat="42.88225" lon="1.86512">
        <ele>606</ele>
        <time>2016-07-11T02:42:21Z</time>
      </trkpt>
      <trkpt lat="42.88211" lon="1.86507">
        <ele>609</ele>
        <time>2016-07-11T02:44:21Z</time>
      </trkpt>
      <trkpt lat="42.8819" lon="1.86501">
        <ele>612</ele>
        <time>2016-07-11T02:46:21Z</time>
      </trkpt>
      <trkpt lat="42.88175" lon="1.86496">
        <ele>614</ele>
        <time>2016-07-11T02:48:21Z</time>
      </trkpt>
      <trkpt lat="42.8817" lon="1.86492">
        <ele>615</ele>
        <time>2016-07-11T02:50:21Z</time>
      </trkpt>
      <trkpt lat="42.88165" lon="1.86487">
        <ele>617</ele>
        <time>2016-07-11T02:52:21Z</time>
      </trkpt>
      <trkpt lat="42.88163" lon="1.86482">
        <ele>619</ele>
        <time>2016-07-11T02:54:21Z</time>
      </trkpt>
      <trkpt lat="42.8816" lon="1.86476">
        <ele>621</ele>
        <time>2016-07-11T02:56:21Z</time>
      </trkpt>
      <trkpt lat="42.88158" lon="1.86459">
        <ele>624</ele>
        <time>2016-07-11T02:58:21Z</time>
      </trkpt>
      <trkpt lat="42.88157" lon="1.86442">
        <ele>626</ele>
        <time>2016-07-11T03:00:21Z</time>
      </trkpt>
      <trkpt lat="42.88154" lon="1.8642">
        <ele>629</ele>
        <time>2016-07-11T03:02:21Z</time>
      </trkpt>
      <trkpt lat="42.8815" lon="1.86402">
        <ele>634</ele>
        <time>2016-07-11T03:04:21Z</time>
      </trkpt>
      <trkpt lat="42.88148" lon="1.86385">
        <ele>636</ele>
        <time>2016-07-11T03:06:21Z</time>
      </trkpt>
      <trkpt lat="42.88148" lon="1.86371">
        <ele>637</ele>
        <time>2016-07-11T03:08:21Z</time>
      </trkpt>
      <trkpt lat="42.88151" lon="1.86357">
        <ele>636</ele>
        <time>2016-07-11T03:10:21Z</time>
      </trkpt>
      <trkpt lat="42.88156" lon="1.86344">
        <ele>633</ele>
        <time>2016-07-11T03:12:21Z</time>
      </trkpt>
      <trkpt lat="42.88163" lon="1.86328">
        <ele>628</ele>
        <time>2016-07-11T03:14:21Z</time>
      </trkpt>
      <trkpt lat="42.88171" lon="1.86311">
        <ele>629</ele>
        <time>2016-07-11T03:16:21Z</time>
      </trkpt>
      <trkpt lat="42.88176" lon="1.86299">
        <ele>633</ele>
        <time>2016-07-11T03:18:21Z</time>
      </trkpt>
      <trkpt lat="42.88179" lon="1.86291">
        <ele>636</ele>
        <time>2016-07-11T03:20:21Z</time>
      </trkpt>
      <trkpt lat="42.88182" lon="1.86275">
        <ele>640</ele>
        <time>2016-07-11T03:22:21Z</time>
      </trkpt>
      <trkpt lat="42.88182" lon="1.86266">
        <ele>641</ele>
        <time>2016-07-11T03:24:21Z</time>
      </trkpt>
      <trkpt lat="42.88182" lon="1.86257">
        <ele>642</ele>
        <time>2016-07-11T03:26:21Z</time>
      </trkpt>
      <trkpt lat="42.88182" lon="1.86249">
        <ele>643</ele>
        <time>2016-07-11T03:28:21Z</time>
      </trkpt>
      <trkpt lat="42.88179" lon="1.86235">
        <ele>643</ele>
        <time>2016-07-11T03:30:21Z</time>
      </trkpt>
      <trkpt lat="42.88176" lon="1.86225">
        <ele>641</ele>
        <time>2016-07-11T03:32:21Z</time>
      </trkpt>
      <trkpt lat="42.88172" lon="1.86214">
        <ele>639</ele>
        <time>2016-07-11T03:34:21Z</time>
      </trkpt>
      <trkpt lat="42.8816" lon="1.86182">
        <ele>639</ele>
        <time>2016-07-11T03:36:21Z</time>
      </trkpt>
      <trkpt lat="42.88155" lon="1.86168">
        <ele>640</ele>
        <time>2016-07-11T03:38:21Z</time>
      </trkpt>
      <trkpt lat="42.88148" lon="1.86143">
        <ele>640</ele>
        <time>2016-07-11T03:40:21Z</time>
      </trkpt>
      <trkpt lat="42.88146" lon="1.86136">
        <ele>639</ele>
        <time>2016-07-11T03:42:21Z</time>
      </trkpt>
      <trkpt lat="42.88141" lon="1.86124">
        <ele>638</ele>
        <time>2016-07-11T03:44:21Z</time>
      </trkpt>
      <trkpt lat="42.88134" lon="1.86105">
        <ele>637</ele>
        <time>2016-07-11T03:46:21Z</time>
      </trkpt>
      <trkpt lat="42.88131" lon="1.86096">
        <ele>635</ele>
        <time>2016-07-11T03:48:21Z</time>
      </trkpt>
      <trkpt lat="42.88129" lon="1.86092">
        <ele>635</ele>
        <time>2016-07-11T03:50:21Z</time>
      </trkpt>
      <trkpt lat="42.88128" lon="1.86085">
        <ele>634</ele>
        <time>2016-07-11T03:52:21Z</time>
      </trkpt>
      <trkpt lat="42.88127" lon="1.86079">
        <ele>633</ele>
        <time>2016-07-11T03:54:21Z</time>
      </trkpt>
      <trkpt lat="42.88126" lon="1.86071">
        <ele>633</ele>
        <time>2016-07-11T03:56:21Z</time>
      </trkpt>
      <trkpt lat="42.88126" lon="1.86063">
        <ele>632</ele>
        <time>2016-07-11T03:58:21Z</time>
      </trkpt>
      <trkpt lat="42.88128" lon="1.86051">
        <ele>631</ele>
        <time>2016-07-11T04:00:21Z</time>
      </trkpt>
      <trkpt lat="42.88131" lon="1.86036">
        <ele>631</ele>
        <time>2016-07-11T04:02:21Z</time>
      </trkpt>
      <trkpt lat="42.88137" lon="1.86014">
        <ele>630</ele>
        <time>2016-07-11T04:04:21Z</time>
      </trkpt>
      <trkpt lat="42.88142" lon="1.85992">
        <ele>630</ele>
        <time>2016-07-11T04:06:21Z</time>
      </trkpt>
      <trkpt lat="42.88144" lon="1.85984">
        <ele>630</ele>
        <time>2016-07-11T04:08:21Z</time>
      </trkpt>
      <trkpt lat="42.88148" lon="1.85971">
        <ele>630</ele>
        <time>2016-07-11T04:10:21Z</time>
      </trkpt>
      <trkpt lat="42.88153" lon="1.8596">
        <ele>631</ele>
        <time>2016-07-11T04:12:21Z</time>
      </trkpt>
      <trkpt lat="42.88157" lon="1.85954">
        <ele>631</ele>
        <time>2016-07-11T04:14:21Z</time>
      </trkpt>
      <trkpt lat="42.88161" lon="1.85949">
        <ele>631</ele>
        <time>2016-07-11T04:16:21Z</time>
      </trkpt>
      <trkpt lat="42.88166" lon="1.85942">
        <ele>632</ele>
        <time>2016-07-11T04:18:21Z</time>
      </trkpt>
      <trkpt lat="42.88169" lon="1.85937">
        <ele>633</ele>
        <time>2016-07-11T04:20:21Z</time>
      </trkpt>
      <trkpt lat="42.88171" lon="1.85932">
        <ele>634</ele>
        <time>2016-07-11T04:22:21Z</time>
      </trkpt>
      <trkpt lat="42.88171" lon="1.85926">
        <ele>634</ele>
        <time>2016-07-11T04:24:21Z</time>
      </trkpt>
      <trkpt lat="42.88172" lon="1.85921">
        <ele>634</ele>
        <time>2016-07-11T04:26:21Z</time>
      </trkpt>
      <trkpt lat="42.88171" lon="1.85909">
        <ele>633</ele>
        <time>2016-07-11T04:28:21Z</time>
      </trkpt>
      <trkpt lat="42.8817" lon="1.85894">
        <ele>632</ele>
        <time>2016-07-11T04:30:21Z</time>
      </trkpt>
      <trkpt lat="42.88169" lon="1.85887">
        <ele>632</ele>
        <time>2016-07-11T04:32:21Z</time>
      </trkpt>
      <trkpt lat="42.8817" lon="1.85879">
        <ele>632</ele>
        <time>2016-07-11T04:34:21Z</time>
      </trkpt>
      <trkpt lat="42.88173" lon="1.85863">
        <ele>633</ele>
        <time>2016-07-11T04:36:21Z</time>
      </trkpt>
      <trkpt lat="42.88175" lon="1.85855">
        <ele>634</ele>
        <time>2016-07-11T04:38:21Z</time>
      </trkpt>
      <trkpt lat="42.88179" lon="1.85839">
        <ele>635</ele>
        <time>2016-07-11T04:40:21Z</time>
      </trkpt>
      <trkpt lat="42.88184" lon="1.85823">
        <ele>637</ele>
        <time>2016-07-11T04:42:21Z</time>
      </trkpt>
      <trkpt lat="42.88187" lon="1.85806">
        <ele>639</ele>
        <time>2016-07-11T04:44:21Z</time>
      </trkpt>
      <trkpt lat="42.88188" lon="1.85798">
        <ele>639</ele>
        <time>2016-07-11T04:46:21Z</time>
      </trkpt>
      <trkpt lat="42.88188" lon="1.85789">
        <ele>640</ele>
        <time>2016-07-11T04:48:21Z</time>
      </trkpt>
      <trkpt lat="42.88187" lon="1.85781">
        <ele>639</ele>
        <time>2016-07-11T04:50:21Z</time>
      </trkpt>
      <trkpt lat="42.88186" lon="1.85773">
        <ele>639</ele>
        <time>2016-07-11T04:52:21Z</time>
      </trkpt>
      <trkpt lat="42.88183" lon="1.85756">
        <ele>639</ele>
        <time>2016-07-11T04:54:21Z</time>
      </trkpt>
      <trkpt lat="42.88178" lon="1.8574">
        <ele>637</ele>
        <time>2016-07-11T04:56:21Z</time>
      </trkpt>
      <trkpt lat="42.88175" lon="1.85731">
        <ele>636</ele>
        <time>2016-07-11T04:58:21Z</time>
      </trkpt>
      <trkpt lat="42.88171" lon="1.85716">
        <ele>635</ele>
        <time>2016-07-11T05:00:21Z</time>
      </trkpt>
      <trkpt lat="42.88168" lon="1.85705">
        <ele>634</ele>
        <time>2016-07-11T05:02:21Z</time>
      </trkpt>
      <trkpt lat="42.88167" lon="1.85696">
        <ele>634</ele>
        <time>2016-07-11T05:04:21Z</time>
      </trkpt>
      <trkpt lat="42.88166" lon="1.85678">
        <ele>634</ele>
        <time>2016-07-11T05:06:21Z</time>
      </trkpt>
      <trkpt lat="42.88164" lon="1.8566">
        <ele>635</ele>
        <time>2016-07-11T05:08:21Z</time>
      </trkpt>
      <trkpt lat="42.88163" lon="1.85637">
        <ele>636</ele>
        <time>2016-07-11T05:10:21Z</time>
      </trkpt>
      <trkpt lat="42.8816" lon="1.85607">
        <ele>637</ele>
        <time>2016-07-11T05:12:21Z</time>
      </trkpt>
      <trkpt lat="42.88158" lon="1.85588">
        <ele>638</ele>
        <time>2016-07-11T05:14:21Z</time>
      </trkpt>
      <trkpt lat="42.88156" lon="1.85578">
        <ele>638</ele>
        <time>2016-07-11T05:16:21Z</time>
      </trkpt>
      <trkpt lat="42.88155" lon="1.85565">
        <ele>638</ele>
        <time>2016-07-11T05:18:21Z</time>
      </trkpt>
      <trkpt lat="42.88154" lon="1.85551">
        <ele>638</ele>
        <time>2016-07-11T05:20:21Z</time>
      </trkpt>
      <trkpt lat="42.88154" lon="1.8553">
        <ele>639</ele>
        <time>2016-07-11T05:22:21Z</time>
      </trkpt>
      <trkpt lat="42.88155" lon="1.85511">
        <ele>640</ele>
        <time>2016-07-11T05:24:21Z</time>
      </trkpt>
      <trkpt lat="42.88155" lon="1.85491">
        <ele>641</ele>
        <time>2016-07-11T05:26:21Z</time>
      </trkpt>
      <trkpt lat="42.88155" lon="1.85474">
        <ele>642</ele>
        <time>2016-07-11T05:28:21Z</time>
      </trkpt>
      <trkpt lat="42.88154" lon="1.85461">
        <ele>643</ele>
        <time>2016-07-11T05:30:21Z</time>
      </trkpt>
      <trkpt lat="42.88154" lon="1.85452">
        <ele>643</ele>
        <time>2016-07-11T05:32:21Z</time>
      </trkpt>
      <trkpt lat="42.88152" lon="1.85442">
        <ele>643</ele>
        <time>2016-07-11T05:34:21Z</time>
      </trkpt>
      <trkpt lat="42.88151" lon="1.85432">
        <ele>643</ele>
        <time>2016-07-11T05:36:21Z</time>
      </trkpt>
      <trkpt lat="42.88145" lon="1.85405">
        <ele>643</ele>
        <time>2016-07-11T05:38:21Z</time>
      </trkpt>
      <trkpt lat="42.88137" lon="1.85366">
        <ele>645</ele>
        <time>2016-07-11T05:40:21Z</time>
      </trkpt>
      <trkpt lat="42.88131" lon="1.85338">
        <ele>645</ele>
        <time>2016-07-11T05:42:21Z</time>
      </trkpt>
      <trkpt lat="42.88123" lon="1.85302">
        <ele>646</ele>
        <time>2016-07-11T05:44:21Z</time>
      </trkpt>
      <trkpt lat="42.88117" lon="1.85276">
        <ele>647</ele>
        <time>2016-07-11T05:46:21Z</time>
      </trkpt>
      <trkpt lat="42.88115" lon="1.85265">
        <ele>647</ele>
        <time>2016-07-11T05:48:21Z</time>
      </trkpt>
      <trkpt lat="42.88113" lon="1.85253">
        <ele>648</ele>
        <time>2016-07-11T05:50:21Z</time>
      </trkpt>
      <trkpt lat="42.88111" lon="1.85241">
        <ele>648</ele>
        <time>2016-07-11T05:52:21Z</time>
      </trkpt>
      <trkpt lat="42.88108" lon="1.85217">
        <ele>650</ele>
        <time>2016-07-11T05:54:21Z</time>
      </trkpt>
      <trkpt lat="42.88105" lon="1.85193">
        <ele>651</ele>
        <time>2016-07-11T05:56:21Z</time>
      </trkpt>
      <trkpt lat="42.88104" lon="1.85182">
        <ele>652</ele>
        <time>2016-07-11T05:58:21Z</time>
      </trkpt>
      <trkpt lat="42.88102" lon="1.85169">
        <ele>652</ele>
        <time>2016-07-11T06:00:21Z</time>
      </trkpt>
      <trkpt lat="42.88096" lon="1.85146">
        <ele>652</ele>
        <time>2016-07-11T06:02:21Z</time>
      </trkpt>
      <trkpt lat="42.8809" lon="1.85122">
        <ele>653</ele>
        <time>2016-07-11T06:04:21Z</time>
      </trkpt>
      <trkpt lat="42.88083" lon="1.85099">
        <ele>652</ele>
        <time>2016-07-11T06:06:21Z</time>
      </trkpt>
      <trkpt lat="42.88079" lon="1.85088">
        <ele>653</ele>
        <time>2016-07-11T06:08:21Z</time>
      </trkpt>
      <trkpt lat="42.88075" lon="1.85076">
        <ele>653</ele>
        <time>2016-07-11T06:10:21Z</time>
      </trkpt>
      <trkpt lat="42.88071" lon="1.85065">
        <ele>653</ele>
        <time>2016-07-11T06:12:21Z</time>
      </trkpt>
      <trkpt lat="42.88063" lon="1.85043">
        <ele>652</ele>
        <time>2016-07-11T06:14:21Z</time>
      </trkpt>
      <trkpt lat="42.88057" lon="1.85021">
        <ele>652</ele>
        <time>2016-07-11T06:16:21Z</time>
      </trkpt>
      <trkpt lat="42.88051" lon="1.84998">
        <ele>652</ele>
        <time>2016-07-11T06:18:21Z</time>
      </trkpt>
      <trkpt lat="42.88048" lon="1.84979">
        <ele>652</ele>
        <time>2016-07-11T06:20:21Z</time>
      </trkpt>
      <trkpt lat="42.88046" lon="1.84964">
        <ele>653</ele>
        <time>2016-07-11T06:22:21Z</time>
      </trkpt>
      <trkpt lat="42.88042" lon="1.84929">
        <ele>653</ele>
        <time>2016-07-11T06:24:21Z</time>
      </trkpt>
      <trkpt lat="42.88039" lon="1.84893">
        <ele>654</ele>
        <time>2016-07-11T06:26:21Z</time>
      </trkpt>
      <trkpt lat="42.88034" lon="1.84836">
        <ele>655</ele>
        <time>2016-07-11T06:28:21Z</time>
      </trkpt>
      <trkpt lat="42.88033" lon="1.84808">
        <ele>656</ele>
        <time>2016-07-11T06:30:21Z</time>
      </trkpt>
      <trkpt lat="42.88032" lon="1.84786">
        <ele>657</ele>
        <time>2016-07-11T06:32:21Z</time>
      </trkpt>
      <trkpt lat="42.88032" lon="1.84772">
        <ele>657</ele>
        <time>2016-07-11T06:34:21Z</time>
      </trkpt>
      <trkpt lat="42.88032" lon="1.84761">
        <ele>658</ele>
        <time>2016-07-11T06:36:21Z</time>
      </trkpt>
      <trkpt lat="42.88033" lon="1.84747">
        <ele>659</ele>
        <time>2016-07-11T06:38:21Z</time>
      </trkpt>
      <trkpt lat="42.88034" lon="1.84726">
        <ele>660</ele>
        <time>2016-07-11T06:40:21Z</time>
      </trkpt>
      <trkpt lat="42.88035" lon="1.84704">
        <ele>662</ele>
        <time>2016-07-11T06:42:21Z</time>
      </trkpt>
      <trkpt lat="42.88035" lon="1.84682">
        <ele>663</ele>
        <time>2016-07-11T06:44:21Z</time>
      </trkpt>
      <trkpt lat="42.88034" lon="1.84657">
        <ele>664</ele>
        <time>2016-07-11T06:46:21Z</time>
      </trkpt>
      <trkpt lat="42.88033" lon="1.84624">
        <ele>665</ele>
        <time>2016-07-11T06:48:21Z</time>
      </trkpt>
      <trkpt lat="42.88032" lon="1.84593">
        <ele>666</ele>
        <time>2016-07-11T06:50:21Z</time>
      </trkpt>
      <trkpt lat="42.88032" lon="1.84561">
        <ele>667</ele>
        <time>2016-07-11T06:52:21Z</time>
      </trkpt>
      <trkpt lat="42.88032" lon="1.84532">
        <ele>669</ele>
        <time>2016-07-11T06:54:21Z</time>
      </trkpt>
      <trkpt lat="42.88032" lon="1.84501">
        <ele>670</ele>
        <time>2016-07-11T06:56:21Z</time>
      </trkpt>
      <trkpt lat="42.88032" lon="1.84482">
        <ele>671</ele>
        <time>2016-07-11T06:58:21Z</time>
      </trkpt>
      <trkpt lat="42.88031" lon="1.84461">
        <ele>672</ele>
        <time>2016-07-11T07:00:21Z</time>
      </trkpt>
      <trkpt lat="42.88029" lon="1.84418">
        <ele>674</ele>
        <time>2016-07-11T07:02:21Z</time>
      </trkpt>
      <trkpt lat="42.88028" lon="1.84401">
        <ele>675</ele>
        <time>2016-07-11T07:04:21Z</time>
      </trkpt>
      <trkpt lat="42.88029" lon="1.84391">
        <ele>676</ele>
        <time>2016-07-11T07:06:21Z</time>
      </trkpt>
      <trkpt lat="42.8803" lon="1.84374">
        <ele>677</ele>
        <time>2016-07-11T07:08:21Z</time>
      </trkpt>
      <trkpt lat="42.88033" lon="1.84357">
        <ele>679</ele>
        <time>2016-07-11T07:10:21Z</time>
      </trkpt>
      <trkpt lat="42.8804" lon="1.84333">
        <ele>682</ele>
        <time>2016-07-11T07:12:21Z</time>
      </trkpt>
      <trkpt lat="42.88046" lon="1.84317">
        <ele>684</ele>
        <time>2016-07-11T07:14:21Z</time>
      </trkpt>
      <trkpt lat="42.8806" lon="1.84276">
        <ele>688</ele>
        <time>2016-07-11T07:16:21Z</time>
      </trkpt>
      <trkpt lat="42.88063" lon="1.8426">
        <ele>688</ele>
        <time>2016-07-11T07:18:21Z</time>
      </trkpt>
      <trkpt lat="42.88065" lon="1.84246">
        <ele>689</ele>
        <time>2016-07-11T07:20:21Z</time>
      </trkpt>
      <trkpt lat="42.88068" lon="1.84231">
        <ele>691</ele>
        <time>2016-07-11T07:22:21Z</time>
      </trkpt>
      <trkpt lat="42.8807" lon="1.84221">
        <ele>692</ele>
        <time>2016-07-11T07:24:21Z</time>
      </trkpt>
      <trkpt lat="42.88073" lon="1.84215">
        <ele>693</ele>
        <time>2016-07-11T07:26:21Z</time>
      </trkpt>
      <trkpt lat="42.88076" lon="1.8421">
        <ele>693</ele>
        <time>2016-07-11T07:28:21Z</time>
      </trkpt>
      <trkpt lat="42.88079" lon="1.84206">
        <ele>694</ele>
        <time>2016-07-11T07:30:21Z</time>
      </trkpt>
      <trkpt lat="42.88083" lon="1.84203">
        <ele>694</ele>
        <time>2016-07-11T07:32:21Z</time>
      </trkpt>
      <trkpt lat="42.88091" lon="1.84198">
        <ele>696</ele>
        <time>2016-07-11T07:34:21Z</time>
      </trkpt>
      <trkpt lat="42.88105" lon="1.84189">
        <ele>701</ele>
        <time>2016-07-11T07:36:21Z</time>
      </trkpt>
      <trkpt lat="42.88117" lon="1.84178">
        <ele>705</ele>
        <time>2016-07-11T07:38:21Z</time>
      </trkpt>
      <trkpt lat="42.8813" lon="1.84167">
        <ele>708</ele>
        <time>2016-07-11T07:40:21Z</time>
      </trkpt>
      <trkpt lat="42.88143" lon="1.84155">
        <ele>712</ele>
        <time>2016-07-11T07:42:21Z</time>
      </trkpt>
      <trkpt lat="42.88152" lon="1.84144">
        <ele>715</ele>
        <time>2016-07-11T07:44:21Z</time>
      </trkpt>
      <trkpt lat="42.88159" lon="1.84135">
        <ele>717</ele>
        <time>2016-07-11T07:46:21Z</time>
      </trkpt>
      <trkpt lat="42.88165" lon="1.84125">
        <ele>718</ele>
        <time>2016-07-11T07:48:21Z</time>
      </trkpt>
      <trkpt lat="42.88172" lon="1.84108">
        <ele>721</ele>
        <time>2016-07-11T07:50:21Z</time>
      </trkpt>
      <trkpt lat="42.88173" lon="1.84097">
        <ele>722</ele>
        <time>2016-07-11T07:52:21Z</time>
      </trkpt>
      <trkpt lat="42.88174" lon="1.84092">
        <ele>722</ele>
        <time>2016-07-11T07:54:21Z</time>
      </trkpt>
      <trkpt lat="42.88174" lon="1.84086">
        <ele>722</ele>
        <time>2016-07-11T07:56:21Z</time>
      </trkpt>
      <trkpt lat="42.88173" lon="1.84081">
        <ele>722</ele>
        <time>2016-07-11T07:58:21Z</time>
      </trkpt>
      <trkpt lat="42.88172" lon="1.84077">
        <ele>722</ele>
        <time>2016-07-11T08:00:21Z</time>
      </trkpt>
      <trkpt lat="42.8817" lon="1.84073">
        <ele>722</ele>
        <time>2016-07-11T08:02:21Z</time>
      </trkpt>
      <trkpt lat="42.88168" lon="1.84071">
        <ele>721</ele>
        <time>2016-07-11T08:04:21Z</time>
      </trkpt>
      <trkpt lat="42.88165" lon="1.84069">
        <ele>720</ele>
        <time>2016-07-11T08:06:21Z</time>
      </trkpt>
      <trkpt lat="42.88161" lon="1.84068">
        <ele>720</ele>
        <time>2016-07-11T08:08:21Z</time>
      </trkpt>
      <trkpt lat="42.88158" lon="1.84067">
        <ele>719</ele>
        <time>2016-07-11T08:10:21Z</time>
      </trkpt>
      <trkpt lat="42.88155" lon="1.84068">
        <ele>719</ele>
        <time>2016-07-11T08:12:21Z</time>
      </trkpt>
      <trkpt lat="42.88152" lon="1.84069">
        <ele>719</ele>
        <time>2016-07-11T08:14:21Z</time>
      </trkpt>
      <trkpt lat="42.88146" lon="1.84074">
        <ele>717</ele>
        <time>2016-07-11T08:16:21Z</time>
      </trkpt>
      <trkpt lat="42.8814" lon="1.84083">
        <ele>716</ele>
        <time>2016-07-11T08:18:21Z</time>
      </trkpt>
      <trkpt lat="42.88135" lon="1.8409">
        <ele>715</ele>
        <time>2016-07-11T08:20:21Z</time>
      </trkpt>
      <trkpt lat="42.88129" lon="1.84097">
        <ele>713</ele>
        <time>2016-07-11T08:22:21Z</time>
      </trkpt>
      <trkpt lat="42.88122" lon="1.84101">
        <ele>712</ele>
        <time>2016-07-11T08:24:21Z</time>
      </trkpt>
      <trkpt lat="42.88114" lon="1.84103">
        <ele>710</ele>
        <time>2016-07-11T08:26:21Z</time>
      </trkpt>
      <trkpt lat="42.88105" lon="1.84105">
        <ele>708</ele>
        <time>2016-07-11T08:28:21Z</time>
      </trkpt>
      <trkpt lat="42.88088" lon="1.84108">
        <ele>705</ele>
        <time>2016-07-11T08:30:21Z</time>
      </trkpt>
      <trkpt lat="42.88076" lon="1.8411">
        <ele>705</ele>
        <time>2016-07-11T08:32:21Z</time>
      </trkpt>
      <trkpt lat="42.88053" lon="1.84113">
        <ele>708</ele>
        <time>2016-07-11T08:34:21Z</time>
      </trkpt>
      <trkpt lat="42.88041" lon="1.84113">
        <ele>709</ele>
        <time>2016-07-11T08:36:21Z</time>
      </trkpt>
      <trkpt lat="42.88032" lon="1.84113">
        <ele>710</ele>
        <time>2016-07-11T08:38:21Z</time>
      </trkpt>
      <trkpt lat="42.88019" lon="1.84114">
        <ele>712</ele>
        <time>2016-07-11T08:40:21Z</time>
      </trkpt>
      <trkpt lat="42.88013" lon="1.84117">
        <ele>712</ele>
        <time>2016-07-11T08:42:21Z</time>
      </trkpt>
      <trkpt lat="42.88002" lon="1.84126">
        <ele>712</ele>
        <time>2016-07-11T08:44:21Z</time>
      </trkpt>
      <trkpt lat="42.8799" lon="1.84138">
        <ele>711</ele>
        <time>2016-07-11T08:46:21Z</time>
      </trkpt>
      <trkpt lat="42.87975" lon="1.84154">
        <ele>709</ele>
        <time>2016-07-11T08:48:21Z</time>
      </trkpt>
      <trkpt lat="42.87955" lon="1.84177">
        <ele>707</ele>
        <time>2016-07-11T08:50:21Z</time>
      </trkpt>
      <trkpt lat="42.87945" lon="1.8419">
        <ele>706</ele>
        <time>2016-07-11T08:52:21Z</time>
      </trkpt>
      <trkpt lat="42.87937" lon="1.84201">
        <ele>705</ele>
        <time>2016-07-11T08:54:21Z</time>
      </trkpt>
      <trkpt lat="42.8793" lon="1.84208">
        <ele>704</ele>
        <time>2016-07-11T08:56:21Z</time>
      </trkpt>
      <trkpt lat="42.87926" lon="1.84211">
        <ele>704</ele>
        <time>2016-07-11T08:58:21Z</time>
      </trkpt>
      <trkpt lat="42.87917" lon="1.84212">
        <ele>705</ele>
        <time>2016-07-11T09:00:21Z</time>
      </trkpt>
      <trkpt lat="42.87908" lon="1.84209">
        <ele>706</ele>
        <time>2016-07-11T09:02:21Z</time>
      </trkpt>
      <trkpt lat="42.87904" lon="1.84206">
        <ele>706</ele>
        <time>2016-07-11T09:04:21Z</time>
      </trkpt>
      <trkpt lat="42.87895" lon="1.842">
        <ele>708</ele>
        <time>2016-07-11T09:06:21Z</time>
      </trkpt>
      <trkpt lat="42.87885" lon="1.84194">
        <ele>709</ele>
        <time>2016-07-11T09:08:21Z</time>
      </trkpt>
      <trkpt lat="42.8788" lon="1.84192">
        <ele>710</ele>
        <time>2016-07-11T09:10:21Z</time>
      </trkpt>
      <trkpt lat="42.87868" lon="1.8419">
        <ele>710</ele>
        <time>2016-07-11T09:12:21Z</time>
      </trkpt>
      <trkpt lat="42.87856" lon="1.8419">
        <ele>710</ele>
        <time>2016-07-11T09:14:21Z</time>
      </trkpt>
      <trkpt lat="42.87848" lon="1.84191">
        <ele>709</ele>
        <time>2016-07-11T09:16:21Z</time>
      </trkpt>
      <trkpt lat="42.87834" lon="1.84193">
        <ele>709</ele>
        <time>2016-07-11T09:18:21Z</time>
      </trkpt>
      <trkpt lat="42.87819" lon="1.84192">
        <ele>708</ele>
        <time>2016-07-11T09:20:21Z</time>
      </trkpt>
      <trkpt lat="42.87796" lon="1.8419">
        <ele>707</ele>
        <time>2016-07-11T09:22:21Z</time>
      </trkpt>
      <trkpt lat="42.87774" lon="1.84187">
        <ele>706</ele>
        <time>2016-07-11T09:24:21Z</time>
      </trkpt>
      <trkpt lat="42.87762" lon="1.84184">
        <ele>705</ele>
        <time>2016-07-11T09:26:21Z</time>
      </trkpt>
      <trkpt lat="42.87753" lon="1.8418">
        <ele>705</ele>
        <time>2016-07-11T09:28:21Z</time>
      </trkpt>
      <trkpt lat="42.87741" lon="1.84173">
        <ele>707</ele>
        <time>2016-07-11T09:30:21Z</time>
      </trkpt>
      <trkpt lat="42.87735" lon="1.84169">
        <ele>708</ele>
        <time>2016-07-11T09:32:21Z</time>
      </trkpt>
      <trkpt lat="42.87725" lon="1.8416">
        <ele>711</ele>
        <time>2016-07-11T09:34:21Z</time>
      </trkpt>
      <trkpt lat="42.87716" lon="1.84152">
        <ele>714</ele>
        <time>2016-07-11T09:36:21Z</time>
      </trkpt>
      <trkpt lat="42.87711" lon="1.84146">
        <ele>716</ele>
        <time>2016-07-11T09:38:21Z</time>
      </trkpt>
      <trkpt lat="42.87703" lon="1.84134">
        <ele>719</ele>
        <time>2016-07-11T09:40:21Z</time>
      </trkpt>
      <trkpt lat="42.877" lon="1.84122">
        <ele>723</ele>
        <time>2016-07-11T09:42:21Z</time>
      </trkpt>
      <trkpt lat="42.87697" lon="1.84113">
        <ele>725</ele>
        <time>2016-07-11T09:44:21Z</time>
      </trkpt>
      <trkpt lat="42.87695" lon="1.84104">
        <ele>727</ele>
        <time>2016-07-11T09:46:21Z</time>
      </trkpt>
      <trkpt lat="42.87692" lon="1.84094">
        <ele>729</ele>
        <time>2016-07-11T09:48:21Z</time>
      </trkpt>
      <trkpt lat="42.87687" lon="1.84084">
        <ele>731</ele>
        <time>2016-07-11T09:50:21Z</time>
      </trkpt>
      <trkpt lat="42.87683" lon="1.84078">
        <ele>733</ele>
        <time>2016-07-11T09:52:21Z</time>
      </trkpt>
      <trkpt lat="42.87676" lon="1.84068">
        <ele>737</ele>
        <time>2016-07-11T09:54:21Z</time>
      </trkpt>
      <trkpt lat="42.87667" lon="1.8406">
        <ele>739</ele>
        <time>2016-07-11T09:56:21Z</time>
      </trkpt>
      <trkpt lat="42.8765" lon="1.84047">
        <ele>745</ele>
        <time>2016-07-11T09:58:21Z</time>
      </trkpt>
      <trkpt lat="42.87637" lon="1.84038">
        <ele>749</ele>
        <time>2016-07-11T10:00:21Z</time>
      </trkpt>
      <trkpt lat="42.87625" lon="1.84029">
        <ele>752</ele>
        <time>2016-07-11T10:02:21Z</time>
      </trkpt>
      <trkpt lat="42.87613" lon="1.84022">
        <ele>754</ele>
        <time>2016-07-11T10:04:21Z</time>
      </trkpt>
      <trkpt lat="42.87608" lon="1.84018">
        <ele>755</ele>
        <time>2016-07-11T10:06:21Z</time>
      </trkpt>
      <trkpt lat="42.87594" lon="1.84012">
        <ele>756</ele>
        <time>2016-07-11T10:08:21Z</time>
      </trkpt>
      <trkpt lat="42.87586" lon="1.8401">
        <ele>756</ele>
        <time>2016-07-11T10:10:21Z</time>
      </trkpt>
      <trkpt lat="42.87573" lon="1.84007">
        <ele>757</ele>
        <time>2016-07-11T10:12:21Z</time>
      </trkpt>
      <trkpt lat="42.87562" lon="1.84004">
        <ele>758</ele>
        <time>2016-07-11T10:14:21Z</time>
      </trkpt>
      <trkpt lat="42.87554" lon="1.84">
        <ele>758</ele>
        <time>2016-07-11T10:16:21Z</time>
      </trkpt>
      <trkpt lat="42.87545" lon="1.83993">
        <ele>760</ele>
        <time>2016-07-11T10:18:21Z</time>
      </trkpt>
      <trkpt lat="42.87533" lon="1.83983">
        <ele>763</ele>
        <time>2016-07-11T10:20:21Z</time>
      </trkpt>
      <trkpt lat="42.87525" lon="1.83976">
        <ele>764</ele>
        <time>2016-07-11T10:22:21Z</time>
      </trkpt>
      <trkpt lat="42.87515" lon="1.83968">
        <ele>766</ele>
        <time>2016-07-11T10:24:21Z</time>
      </trkpt>
      <trkpt lat="42.87505" lon="1.83958">
        <ele>767</ele>
        <time>2016-07-11T10:26:21Z</time>
      </trkpt>
      <trkpt lat="42.87495" lon="1.83947">
        <ele>768</ele>
        <time>2016-07-11T10:28:21Z</time>
      </trkpt>
      <trkpt lat="42.87485" lon="1.83936">
        <ele>769</ele>
        <time>2016-07-11T10:30:21Z</time>
      </trkpt>
      <trkpt lat="42.87475" lon="1.83928">
        <ele>769</ele>
        <time>2016-07-11T10:32:21Z</time>
      </trkpt>
      <trkpt lat="42.8747" lon="1.83923">
        <ele>769</ele>
        <time>2016-07-11T10:34:21Z</time>
      </trkpt>
      <trkpt lat="42.87459" lon="1.83915">
        <ele>769</ele>
        <time>2016-07-11T10:36:21Z</time>
      </trkpt>
      <trkpt lat="42.87448" lon="1.83906">
        <ele>770</ele>
        <time>2016-07-11T10:38:21Z</time>
      </trkpt>
      <trkpt lat="42.87434" lon="1.83891">
        <ele>773</ele>
        <time>2016-07-11T10:40:21Z</time>
      </trkpt>
      <trkpt lat="42.87426" lon="1.83879">
        <ele>775</ele>
        <time>2016-07-11T10:42:21Z</time>
      </trkpt>
      <trkpt lat="42.87419" lon="1.83867">
        <ele>778</ele>
        <time>2016-07-11T10:44:21Z</time>
      </trkpt>
      <trkpt lat="42.87411" lon="1.83854">
        <ele>781</ele>
        <time>2016-07-11T10:46:21Z</time>
      </trkpt>
      <trkpt lat="42.87404" lon="1.83842">
        <ele>785</ele>
        <time>2016-07-11T10:48:21Z</time>
      </trkpt>
      <trkpt lat="42.87395" lon="1.83832">
        <ele>787</ele>
        <time>2016-07-11T10:50:21Z</time>
      </trkpt>
      <trkpt lat="42.87384" lon="1.83825">
        <ele>788</ele>
        <time>2016-07-11T10:52:21Z</time>
      </trkpt>
      <trkpt lat="42.87372" lon="1.83819">
        <ele>789</ele>
        <time>2016-07-11T10:54:21Z</time>
      </trkpt>
      <trkpt lat="42.87354" lon="1.83813">
        <ele>790</ele>
        <time>2016-07-11T10:56:21Z</time>
      </trkpt>
      <trkpt lat="42.87327" lon="1.83808">
        <ele>789</ele>
        <time>2016-07-11T10:58:21Z</time>
      </trkpt>
      <trkpt lat="42.87307" lon="1.83804">
        <ele>792</ele>
        <time>2016-07-11T11:00:21Z</time>
      </trkpt>
      <trkpt lat="42.87283" lon="1.83802">
        <ele>795</ele>
        <time>2016-07-11T11:02:21Z</time>
      </trkpt>
      <trkpt lat="42.87267" lon="1.83806">
        <ele>795</ele>
        <time>2016-07-11T11:04:21Z</time>
      </trkpt>
      <trkpt lat="42.87258" lon="1.8381">
        <ele>795</ele>
        <time>2016-07-11T11:06:21Z</time>
      </trkpt>
      <trkpt lat="42.87251" lon="1.83816">
        <ele>794</ele>
        <time>2016-07-11T11:08:21Z</time>
      </trkpt>
      <trkpt lat="42.87244" lon="1.83821">
        <ele>795</ele>
        <time>2016-07-11T11:10:21Z</time>
      </trkpt>
      <trkpt lat="42.87241" lon="1.83822">
        <ele>795</ele>
        <time>2016-07-11T11:12:21Z</time>
      </trkpt>
      <trkpt lat="42.87236" lon="1.83821">
        <ele>797</ele>
        <time>2016-07-11T11:14:21Z</time>
      </trkpt>
      <trkpt lat="42.87231" lon="1.83816">
        <ele>799</ele>
        <time>2016-07-11T11:16:21Z</time>
      </trkpt>
      <trkpt lat="42.87231" lon="1.83807">
        <ele>800</ele>
        <time>2016-07-11T11:18:21Z</time>
      </trkpt>
      <trkpt lat="42.87235" lon="1.83798">
        <ele>801</ele>
        <time>2016-07-11T11:20:21Z</time>
      </trkpt>
      <trkpt lat="42.87241" lon="1.83795">
        <ele>801</ele>
        <time>2016-07-11T11:22:21Z</time>
      </trkpt>
      <trkpt lat="42.87252" lon="1.8379">
        <ele>800</ele>
        <time>2016-07-11T11:24:21Z</time>
      </trkpt>
      <trkpt lat="42.87259" lon="1.83788">
        <ele>800</ele>
        <time>2016-07-11T11:26:21Z</time>
      </trkpt>
      <trkpt lat="42.87268" lon="1.83786">
        <ele>800</ele>
        <time>2016-07-11T11:28:21Z</time>
      </trkpt>
      <trkpt lat="42.87276" lon="1.83786">
        <ele>799</ele>
        <time>2016-07-11T11:30:21Z</time>
      </trkpt>
      <trkpt lat="42.87283" lon="1.83786">
        <ele>799</ele>
        <time>2016-07-11T11:32:21Z</time>
      </trkpt>
      <trkpt lat="42.87289" lon="1.83787">
        <ele>798</ele>
        <time>2016-07-11T11:34:21Z</time>
      </trkpt>
      <trkpt lat="42.87295" lon="1.83787">
        <ele>798</ele>
        <time>2016-07-11T11:36:21Z</time>
      </trkpt>
      <trkpt lat="42.873" lon="1.83781">
        <ele>799</ele>
        <time>2016-07-11T11:38:21Z</time>
      </trkpt>
      <trkpt lat="42.87299" lon="1.83775">
        <ele>801</ele>
        <time>2016-07-11T11:40:21Z</time>
      </trkpt>
      <trkpt lat="42.87298" lon="1.83771">
        <ele>802</ele>
        <time>2016-07-11T11:42:21Z</time>
      </trkpt>
      <trkpt lat="42.87294" lon="1.83767">
        <ele>803</ele>
        <time>2016-07-11T11:44:21Z</time>
      </trkpt>
      <trkpt lat="42.87289" lon="1.83766">
        <ele>803</ele>
        <time>2016-07-11T11:46:21Z</time>
      </trkpt>
      <trkpt lat="42.87281" lon="1.83768">
        <ele>803</ele>
        <time>2016-07-11T11:48:21Z</time>
      </trkpt>
      <trkpt lat="42.87263" lon="1.83773">
        <ele>803</ele>
        <time>2016-07-11T11:50:21Z</time>
      </trkpt>
      <trkpt lat="42.87234" lon="1.83785">
        <ele>804</ele>
        <time>2016-07-11T11:52:21Z</time>
      </trkpt>
      <trkpt lat="42.8722" lon="1.83792">
        <ele>805</ele>
        <time>2016-07-11T11:54:21Z</time>
      </trkpt>
      <trkpt lat="42.87212" lon="1.838">
        <ele>805</ele>
        <time>2016-07-11T11:56:21Z</time>
      </trkpt>
      <trkpt lat="42.87192" lon="1.8382">
        <ele>807</ele>
        <time>2016-07-11T11:58:21Z</time>
      </trkpt>
      <trkpt lat="42.87183" lon="1.83826">
        <ele>808</ele>
        <time>2016-07-11T12:00:21Z</time>
      </trkpt>
      <trkpt lat="42.87177" lon="1.83831">
        <ele>809</ele>
        <time>2016-07-11T12:02:21Z</time>
      </trkpt>
      <trkpt lat="42.8717" lon="1.83831">
        <ele>810</ele>
        <time>2016-07-11T12:04:21Z</time>
      </trkpt>
      <trkpt lat="42.87164" lon="1.83828">
        <ele>812</ele>
        <time>2016-07-11T12:06:21Z</time>
      </trkpt>
      <trkpt lat="42.87161" lon="1.83821">
        <ele>814</ele>
        <time>2016-07-11T12:08:21Z</time>
      </trkpt>
      <trkpt lat="42.87162" lon="1.83812">
        <ele>814</ele>
        <time>2016-07-11T12:10:21Z</time>
      </trkpt>
      <trkpt lat="42.87166" lon="1.83806">
        <ele>814</ele>
        <time>2016-07-11T12:12:21Z</time>
      </trkpt>
      <trkpt lat="42.87174" lon="1.83801">
        <ele>813</ele>
        <time>2016-07-11T12:14:21Z</time>
      </trkpt>
      <trkpt lat="42.87181" lon="1.83799">
        <ele>812</ele>
        <time>2016-07-11T12:16:21Z</time>
      </trkpt>
      <trkpt lat="42.87189" lon="1.83795">
        <ele>811</ele>
        <time>2016-07-11T12:18:21Z</time>
      </trkpt>
      <trkpt lat="42.87195" lon="1.83792">
        <ele>810</ele>
        <time>2016-07-11T12:20:21Z</time>
      </trkpt>
      <trkpt lat="42.87204" lon="1.83786">
        <ele>809</ele>
        <time>2016-07-11T12:22:21Z</time>
      </trkpt>
      <trkpt lat="42.87212" lon="1.83779">
        <ele>809</ele>
        <time>2016-07-11T12:24:21Z</time>
      </trkpt>
      <trkpt lat="42.87222" lon="1.8377">
        <ele>809</ele>
        <time>2016-07-11T12:26:21Z</time>
      </trkpt>
      <trkpt lat="42.87235" lon="1.8376">
        <ele>808</ele>
        <time>2016-07-11T12:28:21Z</time>
      </trkpt>
      <trkpt lat="42.87245" lon="1.83754">
        <ele>808</ele>
        <time>2016-07-11T12:30:21Z</time>
      </trkpt>
      <trkpt lat="42.87254" lon="1.83751">
        <ele>808</ele>
        <time>2016-07-11T12:32:21Z</time>
      </trkpt>
      <trkpt lat="42.8727" lon="1.83747">
        <ele>809</ele>
        <time>2016-07-11T12:34:21Z</time>
      </trkpt>
      <trkpt lat="42.87284" lon="1.83741">
        <ele>812</ele>
        <time>2016-07-11T12:36:21Z</time>
      </trkpt>
      <trkpt lat="42.87287" lon="1.83734">
        <ele>815</ele>
        <time>2016-07-11T12:38:21Z</time>
      </trkpt>
      <trkpt lat="42.87286" lon="1.83728">
        <ele>817</ele>
        <time>2016-07-11T12:40:21Z</time>
      </trkpt>
      <trkpt lat="42.87283" lon="1.83723">
        <ele>820</ele>
        <time>2016-07-11T12:42:21Z</time>
      </trkpt>
      <trkpt lat="42.87277" lon="1.83722">
        <ele>820</ele>
        <time>2016-07-11T12:44:21Z</time>
      </trkpt>
      <trkpt lat="42.87267" lon="1.83726">
        <ele>818</ele>
        <time>2016-07-11T12:46:21Z</time>
      </trkpt>
      <trkpt lat="42.87248" lon="1.83738">
        <ele>813</ele>
        <time>2016-07-11T12:48:21Z</time>
      </trkpt>
      <trkpt lat="42.87224" lon="1.83752">
        <ele>811</ele>
        <time>2016-07-11T12:50:21Z</time>
      </trkpt>
      <trkpt lat="42.87209" lon="1.8376">
        <ele>812</ele>
        <time>2016-07-11T12:52:21Z</time>
      </trkpt>
      <trkpt lat="42.87196" lon="1.83767">
        <ele>813</ele>
        <time>2016-07-11T12:54:21Z</time>
      </trkpt>
      <trkpt lat="42.87183" lon="1.83774">
        <ele>815</ele>
        <time>2016-07-11T12:56:21Z</time>
      </trkpt>
      <trkpt lat="42.87171" lon="1.83779">
        <ele>816</ele>
        <time>2016-07-11T12:58:21Z</time>
      </trkpt>
      <trkpt lat="42.87158" lon="1.83784">
        <ele>818</ele>
        <time>2016-07-11T13:00:21Z</time>
      </trkpt>
      <trkpt lat="42.87143" lon="1.83789">
        <ele>821</ele>
        <time>2016-07-11T13:02:21Z</time>
      </trkpt>
      <trkpt lat="42.87124" lon="1.83793">
        <ele>824</ele>
        <time>2016-07-11T13:04:21Z</time>
      </trkpt>
      <trkpt lat="42.8711" lon="1.83796">
        <ele>827</ele>
        <time>2016-07-11T13:06:21Z</time>
      </trkpt>
      <trkpt lat="42.87096" lon="1.83798">
        <ele>830</ele>
        <time>2016-07-11T13:08:21Z</time>
      </trkpt>
      <trkpt lat="42.87083" lon="1.83798">
        <ele>832</ele>
        <time>2016-07-11T13:10:21Z</time>
      </trkpt>
      <trkpt lat="42.87057" lon="1.83795">
        <ele>835</ele>
        <time>2016-07-11T13:12:21Z</time>
      </trkpt>
      <trkpt lat="42.87044" lon="1.83793">
        <ele>836</ele>
        <time>2016-07-11T13:14:21Z</time>
      </trkpt>
      <trkpt lat="42.87019" lon="1.83788">
        <ele>839</ele>
        <time>2016-07-11T13:16:21Z</time>
      </trkpt>
      <trkpt lat="42.86995" lon="1.83784">
        <ele>841</ele>
        <time>2016-07-11T13:18:21Z</time>
      </trkpt>
      <trkpt lat="42.86974" lon="1.83782">
        <ele>843</ele>
        <time>2016-07-11T13:20:21Z</time>
      </trkpt>
      <trkpt lat="42.86959" lon="1.83779">
        <ele>844</ele>
        <time>2016-07-11T13:22:21Z</time>
      </trkpt>
      <trkpt lat="42.86941" lon="1.83774">
        <ele>846</ele>
        <time>2016-07-11T13:24:21Z</time>
      </trkpt>
      <trkpt lat="42.86929" lon="1.83766">
        <ele>847</ele>
        <time>2016-07-11T13:26:21Z</time>
      </trkpt>
      <trkpt lat="42.86917" lon="1.83756">
        <ele>849</ele>
        <time>2016-07-11T13:28:21Z</time>
      </trkpt>
      <trkpt lat="42.86908" lon="1.83746">
        <ele>850</ele>
        <time>2016-07-11T13:30:21Z</time>
      </trkpt>
      <trkpt lat="42.86898" lon="1.83733">
        <ele>852</ele>
        <time>2016-07-11T13:32:21Z</time>
      </trkpt>
      <trkpt lat="42.86888" lon="1.83717">
        <ele>855</ele>
        <time>2016-07-11T13:34:21Z</time>
      </trkpt>
      <trkpt lat="42.86863" lon="1.83667">
        <ele>859</ele>
        <time>2016-07-11T13:36:21Z</time>
      </trkpt>
      <trkpt lat="42.86838" lon="1.83617">
        <ele>861</ele>
        <time>2016-07-11T13:38:21Z</time>
      </trkpt>
      <trkpt lat="42.86819" lon="1.8358">
        <ele>862</ele>
        <time>2016-07-11T13:40:21Z</time>
      </trkpt>
      <trkpt lat="42.86811" lon="1.83565">
        <ele>863</ele>
        <time>2016-07-11T13:42:21Z</time>
      </trkpt>
      <trkpt lat="42.86799" lon="1.83542">
        <ele>864</ele>
        <time>2016-07-11T13:44:21Z</time>
      </trkpt>
      <trkpt lat="42.86793" lon="1.8353">
        <ele>865</ele>
        <time>2016-07-11T13:46:21Z</time>
      </trkpt>
      <trkpt lat="42.86793" lon="1.8353">
        <ele>865</ele>
        <time>2016-07-11T13:48:21Z</time>
      </trkpt>
      <trkpt lat="42.86762" lon="1.83539">
        <ele>864</ele>
        <time>2016-07-11T13:50:21Z</time>
      </trkpt>
      <trkpt lat="42.86749" lon="1.8354">
        <ele>863</ele>
        <time>2016-07-11T13:52:21Z</time>
      </trkpt>
      <trkpt lat="42.86742" lon="1.8354">
        <ele>863</ele>
        <time>2016-07-11T13:54:21Z</time>
      </trkpt>
      <trkpt lat="42.86734" lon="1.83538">
        <ele>864</ele>
        <time>2016-07-11T13:56:21Z</time>
      </trkpt>
      <trkpt lat="42.8672" lon="1.83529">
        <ele>865</ele>
        <time>2016-07-11T13:58:21Z</time>
      </trkpt>
      <trkpt lat="42.86704" lon="1.83518">
        <ele>866</ele>
        <time>2016-07-11T14:00:21Z</time>
      </trkpt>
      <trkpt lat="42.86692" lon="1.83513">
        <ele>867</ele>
        <time>2016-07-11T14:02:21Z</time>
      </trkpt>
      <trkpt lat="42.86685" lon="1.83516">
        <ele>867</ele>
        <time>2016-07-11T14:04:21Z</time>
      </trkpt>
      <trkpt lat="42.86678" lon="1.83524">
        <ele>866</ele>
        <time>2016-07-11T14:06:21Z</time>
      </trkpt>
      <trkpt lat="42.86674" lon="1.83531">
        <ele>866</ele>
        <time>2016-07-11T14:08:21Z</time>
      </trkpt>
      <trkpt lat="42.86672" lon="1.83534">
        <ele>866</ele>
        <time>2016-07-11T14:10:21Z</time>
      </trkpt>
      <trkpt lat="42.86669" lon="1.83545">
        <ele>865</ele>
        <time>2016-07-11T14:12:21Z</time>
      </trkpt>
      <trkpt lat="42.86668" lon="1.83561">
        <ele>864</ele>
        <time>2016-07-11T14:14:21Z</time>
      </trkpt>
      <trkpt lat="42.86671" lon="1.83575">
        <ele>863</ele>
        <time>2016-07-11T14:16:21Z</time>
      </trkpt>
      <trkpt lat="42.86673" lon="1.83579">
        <ele>863</ele>
        <time>2016-07-11T14:18:21Z</time>
      </trkpt>
      <trkpt lat="42.86678" lon="1.8359">
        <ele>863</ele>
        <time>2016-07-11T14:20:21Z</time>
      </trkpt>
      <trkpt lat="42.86693" lon="1.8363">
        <ele>866</ele>
        <time>2016-07-11T14:22:21Z</time>
      </trkpt>
      <trkpt lat="42.86693" lon="1.83639">
        <ele>866</ele>
        <time>2016-07-11T14:24:21Z</time>
      </trkpt>
      <trkpt lat="42.86686" lon="1.83652">
        <ele>868</ele>
        <time>2016-07-11T14:26:21Z</time>
      </trkpt>
      <trkpt lat="42.86668" lon="1.83676">
        <ele>875</ele>
        <time>2016-07-11T14:28:21Z</time>
      </trkpt>
      <trkpt lat="42.86662" lon="1.83694">
        <ele>882</ele>
        <time>2016-07-11T14:30:21Z</time>
      </trkpt>
      <trkpt lat="42.86653" lon="1.83697">
        <ele>886</ele>
        <time>2016-07-11T14:32:21Z</time>
      </trkpt>
      <trkpt lat="42.86645" lon="1.83704">
        <ele>890</ele>
        <time>2016-07-11T14:34:21Z</time>
      </trkpt>
      <trkpt lat="42.86642" lon="1.83716">
        <ele>894</ele>
        <time>2016-07-11T14:36:21Z</time>
      </trkpt>
      <trkpt lat="42.86656" lon="1.8376">
        <ele>902</ele>
        <time>2016-07-11T14:38:21Z</time>
      </trkpt>
      <trkpt lat="42.86656" lon="1.83768">
        <ele>904</ele>
        <time>2016-07-11T14:40:21Z</time>
      </trkpt>
      <trkpt lat="42.86652" lon="1.83773">
        <ele>906</ele>
        <time>2016-07-11T14:42:21Z</time>
      </trkpt>
      <trkpt lat="42.86624" lon="1.83774">
        <ele>914</ele>
        <time>2016-07-11T14:44:21Z</time>
      </trkpt>
      <trkpt lat="42.86617" lon="1.83777">
        <ele>917</ele>
        <time>2016-07-11T14:46:21Z</time>
      </trkpt>
      <trkpt lat="42.86614" lon="1.83788">
        <ele>920</ele>
        <time>2016-07-11T14:48:21Z</time>
      </trkpt>
      <trkpt lat="42.8662" lon="1.83821">
        <ele>926</ele>
        <time>2016-07-11T14:50:21Z</time>
      </trkpt>
      <trkpt lat="42.86639" lon="1.83851">
        <ele>927</ele>
        <time>2016-07-11T14:52:21Z</time>
      </trkpt>
      <trkpt lat="42.86651" lon="1.83877">
        <ele>930</ele>
        <time>2016-07-11T14:54:21Z</time>
      </trkpt>
      <trkpt lat="42.86652" lon="1.83899">
        <ele>935</ele>
        <time>2016-07-11T14:56:21Z</time>
      </trkpt>
      <trkpt lat="42.8665" lon="1.8391">
        <ele>938</ele>
        <time>2016-07-11T14:58:21Z</time>
      </trkpt>
      <trkpt lat="42.8665" lon="1.8391">
        <ele>938</ele>
        <time>2016-07-11T15:00:21Z</time>
      </trkpt>
      <trkpt lat="42.86639" lon="1.83896">
        <ele>936</ele>
        <time>2016-07-11T15:02:21Z</time>
      </trkpt>
      <trkpt lat="42.86613" lon="1.8387">
        <ele>935</ele>
        <time>2016-07-11T15:04:21Z</time>
      </trkpt>
      <trkpt lat="42.8659" lon="1.83848">
        <ele>937</ele>
        <time>2016-07-11T15:06:21Z</time>
      </trkpt>
      <trkpt lat="42.86572" lon="1.83831">
        <ele>939</ele>
        <time>2016-07-11T15:08:21Z</time>
      </trkpt>
      <trkpt lat="42.86564" lon="1.83815">
        <ele>938</ele>
        <time>2016-07-11T15:10:21Z</time>
      </trkpt>
      <trkpt lat="42.8656" lon="1.83804">
        <ele>937</ele>
        <time>2016-07-11T15:12:21Z</time>
      </trkpt>
      <trkpt lat="42.86558" lon="1.83791">
        <ele>936</ele>
        <time>2016-07-11T15:14:21Z</time>
      </trkpt>
      <trkpt lat="42.86556" lon="1.83769">
        <ele>933</ele>
        <time>2016-07-11T15:16:21Z</time>
      </trkpt>
      <trkpt lat="42.86553" lon="1.83757">
        <ele>932</ele>
        <time>2016-07-11T15:18:21Z</time>
      </trkpt>
      <trkpt lat="42.86549" lon="1.83743">
        <ele>931</ele>
        <time>2016-07-11T15:20:21Z</time>
      </trkpt>
      <trkpt lat="42.8654" lon="1.83721">
        <ele>929</ele>
        <time>2016-07-11T15:22:21Z</time>
      </trkpt>
      <trkpt lat="42.86526" lon="1.83695">
        <ele>929</ele>
        <time>2016-07-11T15:24:21Z</time>
      </trkpt>
      <trkpt lat="42.86506" lon="1.83658">
        <ele>929</ele>
        <time>2016-07-11T15:26:21Z</time>
      </trkpt>
      <trkpt lat="42.86494" lon="1.83632">
        <ele>927</ele>
        <time>2016-07-11T15:28:21Z</time>
      </trkpt>
      <trkpt lat="42.86488" lon="1.83612">
        <ele>924</ele>
        <time>2016-07-11T15:30:21Z</time>
      </trkpt>
      <trkpt lat="42.86484" lon="1.83598">
        <ele>923</ele>
        <time>2016-07-11T15:32:21Z</time>
      </trkpt>
      <trkpt lat="42.86482" lon="1.83586">
        <ele>921</ele>
        <time>2016-07-11T15:34:21Z</time>
      </trkpt>
      <trkpt lat="42.86483" lon="1.8357">
        <ele>916</ele>
        <time>2016-07-11T15:36:21Z</time>
      </trkpt>
      <trkpt lat="42.86484" lon="1.83554">
        <ele>912</ele>
        <time>2016-07-11T15:38:21Z</time>
      </trkpt>
      <trkpt lat="42.86481" lon="1.83539">
        <ele>909</ele>
        <time>2016-07-11T15:40:21Z</time>
      </trkpt>
      <trkpt lat="42.86475" lon="1.83522">
        <ele>907</ele>
        <time>2016-07-11T15:42:21Z</time>
      </trkpt>
      <trkpt lat="42.86467" lon="1.83506">
        <ele>906</ele>
        <time>2016-07-11T15:44:21Z</time>
      </trkpt>
      <trkpt lat="42.86455" lon="1.83486">
        <ele>906</ele>
        <time>2016-07-11T15:46:21Z</time>
      </trkpt>
      <trkpt lat="42.86448" lon="1.83478">
        <ele>906</ele>
        <time>2016-07-11T15:48:21Z</time>
      </trkpt>
      <trkpt lat="42.86431" lon="1.83457">
        <ele>906</ele>
        <time>2016-07-11T15:50:21Z</time>
      </trkpt>
      <trkpt lat="42.86408" lon="1.8342">
        <ele>903</ele>
        <time>2016-07-11T15:52:21Z</time>
      </trkpt>
      <trkpt lat="42.86378" lon="1.83372">
        <ele>905</ele>
        <time>2016-07-11T15:54:21Z</time>
      </trkpt>
      <trkpt lat="42.86355" lon="1.83337">
        <ele>904</ele>
        <time>2016-07-11T15:56:21Z</time>
      </trkpt>
      <trkpt lat="42.86333" lon="1.83302">
        <ele>905</ele>
        <time>2016-07-11T15:58:21Z</time>
      </trkpt>
      <trkpt lat="42.86314" lon="1.83272">
        <ele>906</ele>
        <time>2016-07-11T16:00:21Z</time>
      </trkpt>
      <trkpt lat="42.86296" lon="1.83241">
        <ele>906</ele>
        <time>2016-07-11T16:02:21Z</time>
      </trkpt>
      <trkpt lat="42.86288" lon="1.83226">
        <ele>907</ele>
        <time>2016-07-11T16:04:21Z</time>
      </trkpt>
      <trkpt lat="42.86284" lon="1.83216">
        <ele>907</ele>
        <time>2016-07-11T16:06:21Z</time>
      </trkpt>
      <trkpt lat="42.86282" lon="1.83205">
        <ele>907</ele>
        <time>2016-07-11T16:08:21Z</time>
      </trkpt>
      <trkpt lat="42.86283" lon="1.83191">
        <ele>905</ele>
        <time>2016-07-11T16:10:21Z</time>
      </trkpt>
      <trkpt lat="42.86284" lon="1.83179">
        <ele>904</ele>
        <time>2016-07-11T16:12:21Z</time>
      </trkpt>
      <trkpt lat="42.86287" lon="1.83167">
        <ele>903</ele>
        <time>2016-07-11T16:14:21Z</time>
      </trkpt>
      <trkpt lat="42.863" lon="1.83146">
        <ele>901</ele>
        <time>2016-07-11T16:16:21Z</time>
      </trkpt>
      <trkpt lat="42.8632" lon="1.83117">
        <ele>899</ele>
        <time>2016-07-11T16:18:21Z</time>
      </trkpt>
      <trkpt lat="42.86326" lon="1.83107">
        <ele>899</ele>
        <time>2016-07-11T16:20:21Z</time>
      </trkpt>
      <trkpt lat="42.86334" lon="1.83094">
        <ele>899</ele>
        <time>2016-07-11T16:22:21Z</time>
      </trkpt>
      <trkpt lat="42.8634" lon="1.83085">
        <ele>899</ele>
        <time>2016-07-11T16:24:21Z</time>
      </trkpt>
      <trkpt lat="42.86352" lon="1.83066">
        <ele>900</ele>
        <time>2016-07-11T16:26:21Z</time>
      </trkpt>
      <trkpt lat="42.86366" lon="1.83043">
        <ele>901</ele>
        <time>2016-07-11T16:28:21Z</time>
      </trkpt>
      <trkpt lat="42.86379" lon="1.83025">
        <ele>902</ele>
        <time>2016-07-11T16:30:21Z</time>
      </trkpt>
      <trkpt lat="42.86394" lon="1.83002">
        <ele>904</ele>
        <time>2016-07-11T16:32:21Z</time>
      </trkpt>
      <trkpt lat="42.86409" lon="1.82979">
        <ele>907</ele>
        <time>2016-07-11T16:34:21Z</time>
      </trkpt>
      <trkpt lat="42.86414" lon="1.82974">
        <ele>908</ele>
        <time>2016-07-11T16:36:21Z</time>
      </trkpt>
      <trkpt lat="42.86414" lon="1.82974">
        <ele>908</ele>
        <time>2016-07-11T16:38:21Z</time>
      </trkpt>
      <trkpt lat="42.86433" lon="1.82993">
        <ele>906</ele>
        <time>2016-07-11T16:40:21Z</time>
      </trkpt>
      <trkpt lat="42.86447" lon="1.83007">
        <ele>905</ele>
        <time>2016-07-11T16:42:21Z</time>
      </trkpt>
      <trkpt lat="42.86469" lon="1.83024">
        <ele>904</ele>
        <time>2016-07-11T16:44:21Z</time>
      </trkpt>
      <trkpt lat="42.86502" lon="1.83048">
        <ele>902</ele>
        <time>2016-07-11T16:46:21Z</time>
      </trkpt>
      <trkpt lat="42.86537" lon="1.83077">
        <ele>901</ele>
        <time>2016-07-11T16:48:21Z</time>
      </trkpt>
      <trkpt lat="42.86557" lon="1.83096">
        <ele>900</ele>
        <time>2016-07-11T16:50:21Z</time>
      </trkpt>
      <trkpt lat="42.86567" lon="1.83099">
        <ele>900</ele>
        <time>2016-07-11T16:52:21Z</time>
      </trkpt>
      <trkpt lat="42.86585" lon="1.83112">
        <ele>900</ele>
        <time>2016-07-11T16:54:21Z</time>
      </trkpt>
      <trkpt lat="42.86607" lon="1.83127">
        <ele>901</ele>
        <time>2016-07-11T16:56:21Z</time>
      </trkpt>
      <trkpt lat="42.86629" lon="1.83143">
        <ele>900</ele>
        <time>2016-07-11T16:58:21Z</time>
      </trkpt>
      <trkpt lat="42.86643" lon="1.83151">
        <ele>900</ele>
        <time>2016-07-11T17:00:21Z</time>
      </trkpt>
      <trkpt lat="42.86656" lon="1.83159">
        <ele>899</ele>
        <time>2016-07-11T17:02:21Z</time>
      </trkpt>
      <trkpt lat="42.86663" lon="1.83162">
        <ele>899</ele>
        <time>2016-07-11T17:04:21Z</time>
      </trkpt>
      <trkpt lat="42.86677" lon="1.83168">
        <ele>899</ele>
        <time>2016-07-11T17:06:21Z</time>
      </trkpt>
      <trkpt lat="42.8669" lon="1.83171">
        <ele>901</ele>
        <time>2016-07-11T17:08:21Z</time>
      </trkpt>
      <trkpt lat="42.86709" lon="1.83177">
        <ele>902</ele>
        <time>2016-07-11T17:10:21Z</time>
      </trkpt>
      <trkpt lat="42.86724" lon="1.83181">
        <ele>903</ele>
        <time>2016-07-11T17:12:21Z</time>
      </trkpt>
      <trkpt lat="42.86744" lon="1.83188">
        <ele>904</ele>
        <time>2016-07-11T17:14:21Z</time>
      </trkpt>
      <trkpt lat="42.86758" lon="1.83193">
        <ele>905</ele>
        <time>2016-07-11T17:16:21Z</time>
      </trkpt>
      <trkpt lat="42.86772" lon="1.83199">
        <ele>906</ele>
        <time>2016-07-11T17:18:21Z</time>
      </trkpt>
      <trkpt lat="42.86785" lon="1.83206">
        <ele>907</ele>
        <time>2016-07-11T17:20:21Z</time>
      </trkpt>
      <trkpt lat="42.86791" lon="1.8321">
        <ele>907</ele>
        <time>2016-07-11T17:22:21Z</time>
      </trkpt>
      <trkpt lat="42.86803" lon="1.83218">
        <ele>907</ele>
        <time>2016-07-11T17:24:21Z</time>
      </trkpt>
      <trkpt lat="42.8681" lon="1.83222">
        <ele>907</ele>
        <time>2016-07-11T17:26:21Z</time>
      </trkpt>
      <trkpt lat="42.86816" lon="1.83227">
        <ele>906</ele>
        <time>2016-07-11T17:28:21Z</time>
      </trkpt>
      <trkpt lat="42.86822" lon="1.8323">
        <ele>906</ele>
        <time>2016-07-11T17:30:21Z</time>
      </trkpt>
      <trkpt lat="42.86834" lon="1.83237">
        <ele>906</ele>
        <time>2016-07-11T17:32:21Z</time>
      </trkpt>
      <trkpt lat="42.86843" lon="1.83242">
        <ele>906</ele>
        <time>2016-07-11T17:34:21Z</time>
      </trkpt>
      <trkpt lat="42.86854" lon="1.83246">
        <ele>907</ele>
        <time>2016-07-11T17:36:21Z</time>
      </trkpt>
      <trkpt lat="42.86866" lon="1.83251">
        <ele>908</ele>
        <time>2016-07-11T17:38:21Z</time>
      </trkpt>
      <trkpt lat="42.86872" lon="1.83253">
        <ele>909</ele>
        <time>2016-07-11T17:40:21Z</time>
      </trkpt>
      <trkpt lat="42.86879" lon="1.83255">
        <ele>910</ele>
        <time>2016-07-11T17:42:21Z</time>
      </trkpt>
      <trkpt lat="42.86886" lon="1.83256">
        <ele>912</ele>
        <time>2016-07-11T17:44:21Z</time>
      </trkpt>
      <trkpt lat="42.86898" lon="1.83257">
        <ele>914</ele>
        <time>2016-07-11T17:46:21Z</time>
      </trkpt>
      <trkpt lat="42.86904" lon="1.83257">
        <ele>915</ele>
        <time>2016-07-11T17:48:21Z</time>
      </trkpt>
      <trkpt lat="42.86912" lon="1.83257">
        <ele>917</ele>
        <time>2016-07-11T17:50:21Z</time>
      </trkpt>
      <trkpt lat="42.86917" lon="1.83258">
        <ele>917</ele>
        <time>2016-07-11T17:52:21Z</time>
      </trkpt>
      <trkpt lat="42.86931" lon="1.83256">
        <ele>919</ele>
        <time>2016-07-11T17:54:21Z</time>
      </trkpt>
      <trkpt lat="42.86938" lon="1.83255">
        <ele>920</ele>
        <time>2016-07-11T17:56:21Z</time>
      </trkpt>
      <trkpt lat="42.86944" lon="1.83253">
        <ele>921</ele>
        <time>2016-07-11T17:58:21Z</time>
      </trkpt>
      <trkpt lat="42.86951" lon="1.83252">
        <ele>922</ele>
        <time>2016-07-11T18:00:21Z</time>
      </trkpt>
      <trkpt lat="42.86963" lon="1.83249">
        <ele>923</ele>
        <time>2016-07-11T18:02:21Z</time>
      </trkpt>
      <trkpt lat="42.86996" lon="1.8324">
        <ele>928</ele>
        <time>2016-07-11T18:04:21Z</time>
      </trkpt>
      <trkpt lat="42.87012" lon="1.83236">
        <ele>930</ele>
        <time>2016-07-11T18:06:21Z</time>
      </trkpt>
      <trkpt lat="42.8703" lon="1.83233">
        <ele>932</ele>
        <time>2016-07-11T18:08:21Z</time>
      </trkpt>
      <trkpt lat="42.87041" lon="1.83232">
        <ele>933</ele>
        <time>2016-07-11T18:10:21Z</time>
      </trkpt>
      <trkpt lat="42.87054" lon="1.83231">
        <ele>934</ele>
        <time>2016-07-11T18:12:21Z</time>
      </trkpt>
      <trkpt lat="42.87065" lon="1.8323">
        <ele>935</ele>
        <time>2016-07-11T18:14:21Z</time>
      </trkpt>
      <trkpt lat="42.87087" lon="1.83231">
        <ele>937</ele>
        <time>2016-07-11T18:16:21Z</time>
      </trkpt>
      <trkpt lat="42.87114" lon="1.83232">
        <ele>939</ele>
        <time>2016-07-11T18:18:21Z</time>
      </trkpt>
      <trkpt lat="42.87137" lon="1.83231">
        <ele>941</ele>
        <time>2016-07-11T18:20:21Z</time>
      </trkpt>
      <trkpt lat="42.8714" lon="1.83231">
        <ele>941</ele>
        <time>2016-07-11T18:22:21Z</time>
      </trkpt>
      <trkpt lat="42.87143" lon="1.8323">
        <ele>942</ele>
        <time>2016-07-11T18:24:21Z</time>
      </trkpt>
      <trkpt lat="42.87146" lon="1.83229">
        <ele>942</ele>
        <time>2016-07-11T18:26:21Z</time>
      </trkpt>
      <trkpt lat="42.87147" lon="1.83228">
        <ele>942</ele>
        <time>2016-07-11T18:28:21Z</time>
      </trkpt>
      <trkpt lat="42.87149" lon="1.83226">
        <ele>943</ele>
        <time>2016-07-11T18:30:21Z</time>
      </trkpt>
      <trkpt lat="42.87151" lon="1.83225">
        <ele>943</ele>
        <time>2016-07-11T18:32:21Z</time>
      </trkpt>
      <trkpt lat="42.87152" lon="1.83223">
        <ele>944</ele>
        <time>2016-07-11T18:34:21Z</time>
      </trkpt>
      <trkpt lat="42.87153" lon="1.83221">
        <ele>944</ele>
        <time>2016-07-11T18:36:21Z</time>
      </trkpt>
      <trkpt lat="42.87154" lon="1.83219">
        <ele>945</ele>
        <time>2016-07-11T18:38:21Z</time>
      </trkpt>
      <trkpt lat="42.87155" lon="1.83215">
        <ele>946</ele>
        <time>2016-07-11T18:40:21Z</time>
      </trkpt>
      <trkpt lat="42.87155" lon="1.83215">
        <ele>946</ele>
        <time>2016-07-11T18:42:21Z</time>
      </trkpt>
      <trkpt lat="42.87154" lon="1.83212">
        <ele>946</ele>
        <time>2016-07-11T18:44:21Z</time>
      </trkpt>
      <trkpt lat="42.87153" lon="1.8321">
        <ele>946</ele>
        <time>2016-07-11T18:46:21Z</time>
      </trkpt>
      <trkpt lat="42.87151" lon="1.83208">
        <ele>947</ele>
        <time>2016-07-11T18:48:21Z</time>
      </trkpt>
      <trkpt lat="42.87147" lon="1.83203">
        <ele>947</ele>
        <time>2016-07-11T18:50:21Z</time>
      </trkpt>
      <trkpt lat="42.87142" lon="1.83199">
        <ele>947</ele>
        <time>2016-07-11T18:52:21Z</time>
      </trkpt>
      <trkpt lat="42.87131" lon="1.8319">
        <ele>948</ele>
        <time>2016-07-11T18:54:21Z</time>
      </trkpt>
      <trkpt lat="42.87121" lon="1.83181">
        <ele>949</ele>
        <time>2016-07-11T18:56:21Z</time>
      </trkpt>
      <trkpt lat="42.87114" lon="1.83174">
        <ele>949</ele>
        <time>2016-07-11T18:58:21Z</time>
      </trkpt>
      <trkpt lat="42.87108" lon="1.83168">
        <ele>949</ele>
        <time>2016-07-11T19:00:21Z</time>
      </trkpt>
      <trkpt lat="42.87104" lon="1.83166">
        <ele>949</ele>
        <time>2016-07-11T19:02:21Z</time>
      </trkpt>
      <trkpt lat="42.87097" lon="1.83162">
        <ele>950</ele>
        <time>2016-07-11T19:04:21Z</time>
      </trkpt>
      <trkpt lat="42.87087" lon="1.83157">
        <ele>950</ele>
        <time>2016-07-11T19:06:21Z</time>
      </trkpt>
      <trkpt lat="42.87081" lon="1.83153">
        <ele>950</ele>
        <time>2016-07-11T19:08:21Z</time>
      </trkpt>
      <trkpt lat="42.87077" lon="1.83151">
        <ele>951</ele>
        <time>2016-07-11T19:10:21Z</time>
      </trkpt>
      <trkpt lat="42.87075" lon="1.83148">
        <ele>951</ele>
        <time>2016-07-11T19:12:21Z</time>
      </trkpt>
      <trkpt lat="42.87074" lon="1.83145">
        <ele>952</ele>
        <time>2016-07-11T19:14:21Z</time>
      </trkpt>
      <trkpt lat="42.87073" lon="1.83142">
        <ele>953</ele>
        <time>2016-07-11T19:16:21Z</time>
      </trkpt>
      <trkpt lat="42.87072" lon="1.83139">
        <ele>953</ele>
        <time>2016-07-11T19:18:21Z</time>
      </trkpt>
      <trkpt lat="42.87072" lon="1.83139">
        <ele>953</ele>
        <time>2016-07-11T19:20:21Z</time>
      </trkpt>
      <trkpt lat="42.87072" lon="1.83136">
        <ele>954</ele>
        <time>2016-07-11T19:22:21Z</time>
      </trkpt>
      <trkpt lat="42.87074" lon="1.83133">
        <ele>955</ele>
        <time>2016-07-11T19:24:21Z</time>
      </trkpt>
      <trkpt lat="42.87076" lon="1.83131">
        <ele>955</ele>
        <time>2016-07-11T19:26:21Z</time>
      </trkpt>
      <trkpt lat="42.87079" lon="1.8313">
        <ele>956</ele>
        <time>2016-07-11T19:28:21Z</time>
      </trkpt>
      <trkpt lat="42.87085" lon="1.83129">
        <ele>956</ele>
        <time>2016-07-11T19:30:21Z</time>
      </trkpt>
      <trkpt lat="42.87096" lon="1.83127">
        <ele>958</ele>
        <time>2016-07-11T19:32:21Z</time>
      </trkpt>
      <trkpt lat="42.87112" lon="1.83124">
        <ele>960</ele>
        <time>2016-07-11T19:34:21Z</time>
      </trkpt>
      <trkpt lat="42.87129" lon="1.83123">
        <ele>962</ele>
        <time>2016-07-11T19:36:21Z</time>
      </trkpt>
      <trkpt lat="42.87164" lon="1.83124">
        <ele>964</ele>
        <time>2016-07-11T19:38:21Z</time>
      </trkpt>
      <trkpt lat="42.87177" lon="1.83124">
        <ele>966</ele>
        <time>2016-07-11T19:40:21Z</time>
      </trkpt>
      <trkpt lat="42.87182" lon="1.83125">
        <ele>967</ele>
        <time>2016-07-11T19:42:21Z</time>
      </trkpt>
      <trkpt lat="42.87185" lon="1.83126">
        <ele>967</ele>
        <time>2016-07-11T19:44:21Z</time>
      </trkpt>
      <trkpt lat="42.87188" lon="1.83129">
        <ele>967</ele>
        <time>2016-07-11T19:46:21Z</time>
      </trkpt>
      <trkpt lat="42.87195" lon="1.83138">
        <ele>966</ele>
        <time>2016-07-11T19:48:21Z</time>
      </trkpt>
      <trkpt lat="42.87201" lon="1.83148">
        <ele>965</ele>
        <time>2016-07-11T19:50:21Z</time>
      </trkpt>
      <trkpt lat="42.87204" lon="1.8315">
        <ele>965</ele>
        <time>2016-07-11T19:52:21Z</time>
      </trkpt>
      <trkpt lat="42.87206" lon="1.83151">
        <ele>965</ele>
        <time>2016-07-11T19:54:21Z</time>
      </trkpt>
      <trkpt lat="42.87209" lon="1.83151">
        <ele>965</ele>
        <time>2016-07-11T19:56:21Z</time>
      </trkpt>
      <trkpt lat="42.87211" lon="1.8315">
        <ele>966</ele>
        <time>2016-07-11T19:58:21Z</time>
      </trkpt>
      <trkpt lat="42.87212" lon="1.83148">
        <ele>966</ele>
        <time>2016-07-11T20:00:21Z</time>
      </trkpt>
      <trkpt lat="42.87213" lon="1.83146">
        <ele>967</ele>
        <time>2016-07-11T20:02:21Z</time>
      </trkpt>
      <trkpt lat="42.87213" lon="1.83142">
        <ele>968</ele>
        <time>2016-07-11T20:04:21Z</time>
      </trkpt>
      <trkpt lat="42.87212" lon="1.83138">
        <ele>968</ele>
        <time>2016-07-11T20:06:21Z</time>
      </trkpt>
      <trkpt lat="42.87209" lon="1.83132">
        <ele>969</ele>
        <time>2016-07-11T20:08:21Z</time>
      </trkpt>
      <trkpt lat="42.87203" lon="1.83123">
        <ele>970</ele>
        <time>2016-07-11T20:10:21Z</time>
      </trkpt>
      <trkpt lat="42.87191" lon="1.83105">
        <ele>972</ele>
        <time>2016-07-11T20:12:21Z</time>
      </trkpt>
      <trkpt lat="42.87184" lon="1.83094">
        <ele>973</ele>
        <time>2016-07-11T20:14:21Z</time>
      </trkpt>
      <trkpt lat="42.87182" lon="1.8309">
        <ele>973</ele>
        <time>2016-07-11T20:16:21Z</time>
      </trkpt>
      <trkpt lat="42.87182" lon="1.83085">
        <ele>974</ele>
        <time>2016-07-11T20:18:21Z</time>
      </trkpt>
      <trkpt lat="42.87183" lon="1.83082">
        <ele>975</ele>
        <time>2016-07-11T20:20:21Z</time>
      </trkpt>
      <trkpt lat="42.87186" lon="1.83078">
        <ele>976</ele>
        <time>2016-07-11T20:22:21Z</time>
      </trkpt>
      <trkpt lat="42.87189" lon="1.83077">
        <ele>976</ele>
        <time>2016-07-11T20:24:21Z</time>
      </trkpt>
      <trkpt lat="42.87191" lon="1.83077">
        <ele>976</ele>
        <time>2016-07-11T20:26:21Z</time>
      </trkpt>
      <trkpt lat="42.87193" lon="1.83078">
        <ele>977</ele>
        <time>2016-07-11T20:28:21Z</time>
      </trkpt>
      <trkpt lat="42.87195" lon="1.83079">
        <ele>977</ele>
        <time>2016-07-11T20:30:21Z</time>
      </trkpt>
      <trkpt lat="42.87197" lon="1.83083">
        <ele>976</ele>
        <time>2016-07-11T20:32:21Z</time>
      </trkpt>
      <trkpt lat="42.87219" lon="1.8312">
        <ele>972</ele>
        <time>2016-07-11T20:34:21Z</time>
      </trkpt>
      <trkpt lat="42.87236" lon="1.83148">
        <ele>970</ele>
        <time>2016-07-11T20:36:21Z</time>
      </trkpt>
      <trkpt lat="42.87247" lon="1.83172">
        <ele>968</ele>
        <time>2016-07-11T20:38:21Z</time>
      </trkpt>
      <trkpt lat="42.87261" lon="1.83202">
        <ele>969</ele>
        <time>2016-07-11T20:40:21Z</time>
      </trkpt>
      <trkpt lat="42.87289" lon="1.83257">
        <ele>969</ele>
        <time>2016-07-11T20:42:21Z</time>
      </trkpt>
      <trkpt lat="42.87301" lon="1.83278">
        <ele>968</ele>
        <time>2016-07-11T20:44:21Z</time>
      </trkpt>
      <trkpt lat="42.87315" lon="1.83306">
        <ele>967</ele>
        <time>2016-07-11T20:46:21Z</time>
      </trkpt>
      <trkpt lat="42.8732" lon="1.83318">
        <ele>965</ele>
        <time>2016-07-11T20:48:21Z</time>
      </trkpt>
      <trkpt lat="42.87324" lon="1.8333">
        <ele>964</ele>
        <time>2016-07-11T20:50:21Z</time>
      </trkpt>
      <trkpt lat="42.87328" lon="1.83337">
        <ele>963</ele>
        <time>2016-07-11T20:52:21Z</time>
      </trkpt>
      <trkpt lat="42.8733" lon="1.83338">
        <ele>964</ele>
        <time>2016-07-11T20:54:21Z</time>
      </trkpt>
      <trkpt lat="42.87332" lon="1.83339">
        <ele>964</ele>
        <time>2016-07-11T20:56:21Z</time>
      </trkpt>
      <trkpt lat="42.87334" lon="1.83339">
        <ele>965</ele>
        <time>2016-07-11T20:58:21Z</time>
      </trkpt>
      <trkpt lat="42.87336" lon="1.83337">
        <ele>967</ele>
        <time>2016-07-11T21:00:21Z</time>
      </trkpt>
      <trkpt lat="42.87338" lon="1.83334">
        <ele>969</ele>
        <time>2016-07-11T21:02:21Z</time>
      </trkpt>
      <trkpt lat="42.87338" lon="1.83331">
        <ele>969</ele>
        <time>2016-07-11T21:04:21Z</time>
      </trkpt>
      <trkpt lat="42.87336" lon="1.83325">
        <ele>970</ele>
        <time>2016-07-11T21:06:21Z</time>
      </trkpt>
      <trkpt lat="42.8733" lon="1.83311">
        <ele>970</ele>
        <time>2016-07-11T21:08:21Z</time>
      </trkpt>
      <trkpt lat="42.87322" lon="1.8329">
        <ele>973</ele>
        <time>2016-07-11T21:10:21Z</time>
      </trkpt>
      <trkpt lat="42.87313" lon="1.83254">
        <ele>978</ele>
        <time>2016-07-11T21:12:21Z</time>
      </trkpt>
      <trkpt lat="42.87306" lon="1.83214">
        <ele>985</ele>
        <time>2016-07-11T21:14:21Z</time>
      </trkpt>
      <trkpt lat="42.87301" lon="1.83189">
        <ele>989</ele>
        <time>2016-07-11T21:16:21Z</time>
      </trkpt>
      <trkpt lat="42.873" lon="1.83173">
        <ele>993</ele>
        <time>2016-07-11T21:18:21Z</time>
      </trkpt>
      <trkpt lat="42.873" lon="1.83158">
        <ele>996</ele>
        <time>2016-07-11T21:20:21Z</time>
      </trkpt>
      <trkpt lat="42.87304" lon="1.83118">
        <ele>1005</ele>
        <time>2016-07-11T21:22:21Z</time>
      </trkpt>
      <trkpt lat="42.87305" lon="1.83092">
        <ele>1011</ele>
        <time>2016-07-11T21:24:21Z</time>
      </trkpt>
      <trkpt lat="42.87308" lon="1.83047">
        <ele>1017</ele>
        <time>2016-07-11T21:26:21Z</time>
      </trkpt>
      <trkpt lat="42.87312" lon="1.83017">
        <ele>1021</ele>
        <time>2016-07-11T21:28:21Z</time>
      </trkpt>
      <trkpt lat="42.87316" lon="1.82998">
        <ele>1024</ele>
        <time>2016-07-11T21:30:21Z</time>
      </trkpt>
      <trkpt lat="42.87321" lon="1.82978">
        <ele>1024</ele>
        <time>2016-07-11T21:32:21Z</time>
      </trkpt>
      <trkpt lat="42.87332" lon="1.8295">
        <ele>1026</ele>
        <time>2016-07-11T21:34:21Z</time>
      </trkpt>
      <trkpt lat="42.8734" lon="1.82929">
        <ele>1027</ele>
        <time>2016-07-11T21:36:21Z</time>
      </trkpt>
      <trkpt lat="42.87347" lon="1.82912">
        <ele>1027</ele>
        <time>2016-07-11T21:38:21Z</time>
      </trkpt>
      <trkpt lat="42.87359" lon="1.82887">
        <ele>1028</ele>
        <time>2016-07-11T21:40:21Z</time>
      </trkpt>
      <trkpt lat="42.87367" lon="1.82877">
        <ele>1029</ele>
        <time>2016-07-11T21:42:21Z</time>
      </trkpt>
      <trkpt lat="42.87374" lon="1.82868">
        <ele>1030</ele>
        <time>2016-07-11T21:44:21Z</time>
      </trkpt>
      <trkpt lat="42.87378" lon="1.82864">
        <ele>1030</ele>
        <time>2016-07-11T21:46:21Z</time>
      </trkpt>
      <trkpt lat="42.87387" lon="1.82856">
        <ele>1032</ele>
        <time>2016-07-11T21:48:21Z</time>
      </trkpt>
      <trkpt lat="42.87388" lon="1.82855">
        <ele>1032</ele>
        <time>2016-07-11T21:50:21Z</time>
      </trkpt>
      <trkpt lat="42.87394" lon="1.82848">
        <ele>1033</ele>
        <time>2016-07-11T21:52:21Z</time>
      </trkpt>
      <trkpt lat="42.87398" lon="1.82844">
        <ele>1033</ele>
        <time>2016-07-11T21:54:21Z</time>
      </trkpt>
      <trkpt lat="42.87407" lon="1.82829">
        <ele>1034</ele>
        <time>2016-07-11T21:56:21Z</time>
      </trkpt>
      <trkpt lat="42.87415" lon="1.82815">
        <ele>1036</ele>
        <time>2016-07-11T21:58:21Z</time>
      </trkpt>
      <trkpt lat="42.87422" lon="1.82798">
        <ele>1036</ele>
        <time>2016-07-11T22:00:21Z</time>
      </trkpt>
      <trkpt lat="42.87424" lon="1.82791">
        <ele>1036</ele>
        <time>2016-07-11T22:02:21Z</time>
      </trkpt>
      <trkpt lat="42.87425" lon="1.82783">
        <ele>1035</ele>
        <time>2016-07-11T22:04:21Z</time>
      </trkpt>
      <trkpt lat="42.87426" lon="1.82772">
        <ele>1035</ele>
        <time>2016-07-11T22:06:21Z</time>
      </trkpt>
      <trkpt lat="42.87426" lon="1.82766">
        <ele>1035</ele>
        <time>2016-07-11T22:08:21Z</time>
      </trkpt>
      <trkpt lat="42.87426" lon="1.82759">
        <ele>1034</ele>
        <time>2016-07-11T22:10:21Z</time>
      </trkpt>
      <trkpt lat="42.87425" lon="1.82747">
        <ele>1034</ele>
        <time>2016-07-11T22:12:21Z</time>
      </trkpt>
      <trkpt lat="42.87422" lon="1.82737">
        <ele>1034</ele>
        <time>2016-07-11T22:14:21Z</time>
      </trkpt>
      <trkpt lat="42.87419" lon="1.8273">
        <ele>1034</ele>
        <time>2016-07-11T22:16:21Z</time>
      </trkpt>
      <trkpt lat="42.87414" lon="1.8272">
        <ele>1033</ele>
        <time>2016-07-11T22:18:21Z</time>
      </trkpt>
      <trkpt lat="42.87409" lon="1.82712">
        <ele>1032</ele>
        <time>2016-07-11T22:20:21Z</time>
      </trkpt>
      <trkpt lat="42.87401" lon="1.82699">
        <ele>1030</ele>
        <time>2016-07-11T22:22:21Z</time>
      </trkpt>
      <trkpt lat="42.87397" lon="1.82691">
        <ele>1029</ele>
        <time>2016-07-11T22:24:21Z</time>
      </trkpt>
      <trkpt lat="42.87395" lon="1.82684">
        <ele>1029</ele>
        <time>2016-07-11T22:26:21Z</time>
      </trkpt>
      <trkpt lat="42.87393" lon="1.82675">
        <ele>1029</ele>
        <time>2016-07-11T22:28:21Z</time>
      </trkpt>
      <trkpt lat="42.87392" lon="1.82666">
        <ele>1029</ele>
        <time>2016-07-11T22:30:21Z</time>
      </trkpt>
      <trkpt lat="42.87392" lon="1.82657">
        <ele>1030</ele>
        <time>2016-07-11T22:32:21Z</time>
      </trkpt>
      <trkpt lat="42.87393" lon="1.82646">
        <ele>1031</ele>
        <time>2016-07-11T22:34:21Z</time>
      </trkpt>
      <trkpt lat="42.87395" lon="1.82632">
        <ele>1033</ele>
        <time>2016-07-11T22:36:21Z</time>
      </trkpt>
      <trkpt lat="42.87398" lon="1.82614">
        <ele>1035</ele>
        <time>2016-07-11T22:38:21Z</time>
      </trkpt>
      <trkpt lat="42.87401" lon="1.82603">
        <ele>1037</ele>
        <time>2016-07-11T22:40:21Z</time>
      </trkpt>
      <trkpt lat="42.87403" lon="1.82591">
        <ele>1038</ele>
        <time>2016-07-11T22:42:21Z</time>
      </trkpt>
      <trkpt lat="42.87404" lon="1.82578">
        <ele>1039</ele>
        <time>2016-07-11T22:44:21Z</time>
      </trkpt>
      <trkpt lat="42.87405" lon="1.82566">
        <ele>1040</ele>
        <time>2016-07-11T22:46:21Z</time>
      </trkpt>
      <trkpt lat="42.87406" lon="1.82552">
        <ele>1042</ele>
        <time>2016-07-11T22:48:21Z</time>
      </trkpt>
      <trkpt lat="42.87406" lon="1.82537">
        <ele>1043</ele>
        <time>2016-07-11T22:50:21Z</time>
      </trkpt>
      <trkpt lat="42.87406" lon="1.82501">
        <ele>1046</ele>
        <time>2016-07-11T22:52:21Z</time>
      </trkpt>
      <trkpt lat="42.87406" lon="1.82486">
        <ele>1047</ele>
        <time>2016-07-11T22:54:21Z</time>
      </trkpt>
      <trkpt lat="42.87406" lon="1.82475">
        <ele>1048</ele>
        <time>2016-07-11T22:56:21Z</time>
      </trkpt>
      <trkpt lat="42.87407" lon="1.82456">
        <ele>1049</ele>
        <time>2016-07-11T22:58:21Z</time>
      </trkpt>
      <trkpt lat="42.87407" lon="1.82443">
        <ele>1050</ele>
        <time>2016-07-11T23:00:21Z</time>
      </trkpt>
      <trkpt lat="42.87409" lon="1.82413">
        <ele>1051</ele>
        <time>2016-07-11T23:02:21Z</time>
      </trkpt>
      <trkpt lat="42.87411" lon="1.82393">
        <ele>1051</ele>
        <time>2016-07-11T23:04:21Z</time>
      </trkpt>
      <trkpt lat="42.87412" lon="1.82379">
        <ele>1051</ele>
        <time>2016-07-11T23:06:21Z</time>
      </trkpt>
      <trkpt lat="42.87416" lon="1.82365">
        <ele>1050</ele>
        <time>2016-07-11T23:08:21Z</time>
      </trkpt>
      <trkpt lat="42.87417" lon="1.8236">
        <ele>1050</ele>
        <time>2016-07-11T23:10:21Z</time>
      </trkpt>
      <trkpt lat="42.87424" lon="1.82344">
        <ele>1051</ele>
        <time>2016-07-11T23:12:21Z</time>
      </trkpt>
      <trkpt lat="42.87432" lon="1.82331">
        <ele>1052</ele>
        <time>2016-07-11T23:14:21Z</time>
      </trkpt>
      <trkpt lat="42.87441" lon="1.82319">
        <ele>1052</ele>
        <time>2016-07-11T23:16:21Z</time>
      </trkpt>
      <trkpt lat="42.8745" lon="1.82307">
        <ele>1052</ele>
        <time>2016-07-11T23:18:21Z</time>
      </trkpt>
      <trkpt lat="42.87477" lon="1.82284">
        <ele>1050</ele>
        <time>2016-07-11T23:20:21Z</time>
      </trkpt>
      <trkpt lat="42.87489" lon="1.82275">
        <ele>1049</ele>
        <time>2016-07-11T23:22:21Z</time>
      </trkpt>
      <trkpt lat="42.8751" lon="1.82256">
        <ele>1047</ele>
        <time>2016-07-11T23:24:21Z</time>
      </trkpt>
      <trkpt lat="42.87523" lon="1.82243">
        <ele>1046</ele>
        <time>2016-07-11T23:26:21Z</time>
      </trkpt>
      <trkpt lat="42.87552" lon="1.82212">
        <ele>1042</ele>
        <time>2016-07-11T23:28:21Z</time>
      </trkpt>
      <trkpt lat="42.87568" lon="1.82195">
        <ele>1039</ele>
        <time>2016-07-11T23:30:21Z</time>
      </trkpt>
      <trkpt lat="42.87585" lon="1.82178">
        <ele>1036</ele>
        <time>2016-07-11T23:32:21Z</time>
      </trkpt>
      <trkpt lat="42.87597" lon="1.82169">
        <ele>1034</ele>
        <time>2016-07-11T23:34:21Z</time>
      </trkpt>
      <trkpt lat="42.87603" lon="1.82166">
        <ele>1034</ele>
        <time>2016-07-11T23:36:21Z</time>
      </trkpt>
      <trkpt lat="42.87608" lon="1.82164">
        <ele>1035</ele>
        <time>2016-07-11T23:38:21Z</time>
      </trkpt>
      <trkpt lat="42.87615" lon="1.82162">
        <ele>1035</ele>
        <time>2016-07-11T23:40:21Z</time>
      </trkpt>
      <trkpt lat="42.87621" lon="1.82161">
        <ele>1035</ele>
        <time>2016-07-11T23:42:21Z</time>
      </trkpt>
      <trkpt lat="42.87627" lon="1.8216">
        <ele>1036</ele>
        <time>2016-07-11T23:44:21Z</time>
      </trkpt>
      <trkpt lat="42.87638" lon="1.82159">
        <ele>1037</ele>
        <time>2016-07-11T23:46:21Z</time>
      </trkpt>
      <trkpt lat="42.87644" lon="1.82158">
        <ele>1038</ele>
        <time>2016-07-11T23:48:21Z</time>
      </trkpt>
      <trkpt lat="42.8765" lon="1.82155">
        <ele>1038</ele>
        <time>2016-07-11T23:50:21Z</time>
      </trkpt>
      <trkpt lat="42.87656" lon="1.82151">
        <ele>1038</ele>
        <time>2016-07-11T23:52:21Z</time>
      </trkpt>
      <trkpt lat="42.8766" lon="1.82148">
        <ele>1037</ele>
        <time>2016-07-11T23:54:21Z</time>
      </trkpt>
      <trkpt lat="42.87665" lon="1.82142">
        <ele>1037</ele>
        <time>2016-07-11T23:56:21Z</time>
      </trkpt>
      <trkpt lat="42.87673" lon="1.8213">
        <ele>1033</ele>
        <time>2016-07-11T23:58:21Z</time>
      </trkpt>
      <trkpt lat="42.87678" lon="1.82122">
        <ele>1031</ele>
        <time>2016-07-12T00:00:21Z</time>
      </trkpt>
      <trkpt lat="42.87682" lon="1.82114">
        <ele>1029</ele>
        <time>2016-07-12T00:02:21Z</time>
      </trkpt>
      <trkpt lat="42.87686" lon="1.82106">
        <ele>1027</ele>
        <time>2016-07-12T00:04:21Z</time>
      </trkpt>
      <trkpt lat="42.87689" lon="1.82098">
        <ele>1025</ele>
        <time>2016-07-12T00:06:21Z</time>
      </trkpt>
      <trkpt lat="42.87693" lon="1.82086">
        <ele>1023</ele>
        <time>2016-07-12T00:08:21Z</time>
      </trkpt>
      <trkpt lat="42.87699" lon="1.8206">
        <ele>1017</ele>
        <time>2016-07-12T00:10:21Z</time>
      </trkpt>
      <trkpt lat="42.87702" lon="1.82039">
        <ele>1013</ele>
        <time>2016-07-12T00:12:21Z</time>
      </trkpt>
      <trkpt lat="42.87708" lon="1.82008">
        <ele>1007</ele>
        <time>2016-07-12T00:14:21Z</time>
      </trkpt>
      <trkpt lat="42.87715" lon="1.81983">
        <ele>1002</ele>
        <time>2016-07-12T00:16:21Z</time>
      </trkpt>
      <trkpt lat="42.87724" lon="1.8196">
        <ele>998</ele>
        <time>2016-07-12T00:18:21Z</time>
      </trkpt>
      <trkpt lat="42.87731" lon="1.81943">
        <ele>996</ele>
        <time>2016-07-12T00:20:21Z</time>
      </trkpt>
      <trkpt lat="42.87737" lon="1.81931">
        <ele>994</ele>
        <time>2016-07-12T00:22:21Z</time>
      </trkpt>
      <trkpt lat="42.87743" lon="1.81919">
        <ele>992</ele>
        <time>2016-07-12T00:24:21Z</time>
      </trkpt>
      <trkpt lat="42.87746" lon="1.81915">
        <ele>992</ele>
        <time>2016-07-12T00:26:21Z</time>
      </trkpt>
      <trkpt lat="42.87749" lon="1.81912">
        <ele>992</ele>
        <time>2016-07-12T00:28:21Z</time>
      </trkpt>
      <trkpt lat="42.87752" lon="1.8191">
        <ele>991</ele>
        <time>2016-07-12T00:30:21Z</time>
      </trkpt>
      <trkpt lat="42.87755" lon="1.81909">
        <ele>990</ele>
        <time>2016-07-12T00:32:21Z</time>
      </trkpt>
      <trkpt lat="42.87758" lon="1.81909">
        <ele>990</ele>
        <time>2016-07-12T00:34:21Z</time>
      </trkpt>
      <trkpt lat="42.87761" lon="1.8191">
        <ele>989</ele>
        <time>2016-07-12T00:36:21Z</time>
      </trkpt>
      <trkpt lat="42.87763" lon="1.81912">
        <ele>990</ele>
        <time>2016-07-12T00:38:21Z</time>
      </trkpt>
      <trkpt lat="42.87766" lon="1.81916">
        <ele>990</ele>
        <time>2016-07-12T00:40:21Z</time>
      </trkpt>
      <trkpt lat="42.8777" lon="1.81925">
        <ele>991</ele>
        <time>2016-07-12T00:42:21Z</time>
      </trkpt>
      <trkpt lat="42.87775" lon="1.81938">
        <ele>992</ele>
        <time>2016-07-12T00:44:21Z</time>
      </trkpt>
      <trkpt lat="42.87789" lon="1.81977">
        <ele>995</ele>
        <time>2016-07-12T00:46:21Z</time>
      </trkpt>
      <trkpt lat="42.87794" lon="1.81993">
        <ele>997</ele>
        <time>2016-07-12T00:48:21Z</time>
      </trkpt>
      <trkpt lat="42.87799" lon="1.82011">
        <ele>997</ele>
        <time>2016-07-12T00:50:21Z</time>
      </trkpt>
      <trkpt lat="42.87807" lon="1.82043">
        <ele>998</ele>
        <time>2016-07-12T00:52:21Z</time>
      </trkpt>
      <trkpt lat="42.87809" lon="1.8205">
        <ele>998</ele>
        <time>2016-07-12T00:54:21Z</time>
      </trkpt>
      <trkpt lat="42.87812" lon="1.82057">
        <ele>997</ele>
        <time>2016-07-12T00:56:21Z</time>
      </trkpt>
      <trkpt lat="42.87815" lon="1.82063">
        <ele>996</ele>
        <time>2016-07-12T00:58:21Z</time>
      </trkpt>
      <trkpt lat="42.87819" lon="1.82069">
        <ele>995</ele>
        <time>2016-07-12T01:00:21Z</time>
      </trkpt>
      <trkpt lat="42.87824" lon="1.82075">
        <ele>994</ele>
        <time>2016-07-12T01:02:21Z</time>
      </trkpt>
      <trkpt lat="42.87832" lon="1.82083">
        <ele>991</ele>
        <time>2016-07-12T01:04:21Z</time>
      </trkpt>
      <trkpt lat="42.87843" lon="1.82097">
        <ele>989</ele>
        <time>2016-07-12T01:06:21Z</time>
      </trkpt>
      <trkpt lat="42.8785" lon="1.8211">
        <ele>987</ele>
        <time>2016-07-12T01:08:21Z</time>
      </trkpt>
      <trkpt lat="42.87855" lon="1.82123">
        <ele>986</ele>
        <time>2016-07-12T01:10:21Z</time>
      </trkpt>
      <trkpt lat="42.87858" lon="1.82128">
        <ele>985</ele>
        <time>2016-07-12T01:12:21Z</time>
      </trkpt>
      <trkpt lat="42.87862" lon="1.82132">
        <ele>984</ele>
        <time>2016-07-12T01:14:21Z</time>
      </trkpt>
      <trkpt lat="42.87866" lon="1.82133">
        <ele>983</ele>
        <time>2016-07-12T01:16:21Z</time>
      </trkpt>
      <trkpt lat="42.8787" lon="1.82132">
        <ele>982</ele>
        <time>2016-07-12T01:18:21Z</time>
      </trkpt>
      <trkpt lat="42.87874" lon="1.82129">
        <ele>981</ele>
        <time>2016-07-12T01:20:21Z</time>
      </trkpt>
      <trkpt lat="42.87879" lon="1.82122">
        <ele>979</ele>
        <time>2016-07-12T01:22:21Z</time>
      </trkpt>
      <trkpt lat="42.87886" lon="1.82108">
        <ele>977</ele>
        <time>2016-07-12T01:24:21Z</time>
      </trkpt>
      <trkpt lat="42.87892" lon="1.82095">
        <ele>976</ele>
        <time>2016-07-12T01:26:21Z</time>
      </trkpt>
      <trkpt lat="42.87902" lon="1.82073">
        <ele>972</ele>
        <time>2016-07-12T01:28:21Z</time>
      </trkpt>
      <trkpt lat="42.87909" lon="1.82055">
        <ele>970</ele>
        <time>2016-07-12T01:30:21Z</time>
      </trkpt>
      <trkpt lat="42.87912" lon="1.82048">
        <ele>969</ele>
        <time>2016-07-12T01:32:21Z</time>
      </trkpt>
      <trkpt lat="42.87917" lon="1.82034">
        <ele>967</ele>
        <time>2016-07-12T01:34:21Z</time>
      </trkpt>
      <trkpt lat="42.8793" lon="1.81974">
        <ele>965</ele>
        <time>2016-07-12T01:36:21Z</time>
      </trkpt>
      <trkpt lat="42.87943" lon="1.81914">
        <ele>964</ele>
        <time>2016-07-12T01:38:21Z</time>
      </trkpt>
      <trkpt lat="42.87954" lon="1.81863">
        <ele>961</ele>
        <time>2016-07-12T01:40:21Z</time>
      </trkpt>
      <trkpt lat="42.87961" lon="1.81836">
        <ele>959</ele>
        <time>2016-07-12T01:42:21Z</time>
      </trkpt>
      <trkpt lat="42.87965" lon="1.81823">
        <ele>958</ele>
        <time>2016-07-12T01:44:21Z</time>
      </trkpt>
      <trkpt lat="42.8797" lon="1.81812">
        <ele>958</ele>
        <time>2016-07-12T01:46:21Z</time>
      </trkpt>
      <trkpt lat="42.87978" lon="1.81796">
        <ele>958</ele>
        <time>2016-07-12T01:48:21Z</time>
      </trkpt>
      <trkpt lat="42.87987" lon="1.81781">
        <ele>957</ele>
        <time>2016-07-12T01:50:21Z</time>
      </trkpt>
      <trkpt lat="42.87992" lon="1.81773">
        <ele>957</ele>
        <time>2016-07-12T01:52:21Z</time>
      </trkpt>
      <trkpt lat="42.87997" lon="1.81766">
        <ele>957</ele>
        <time>2016-07-12T01:54:21Z</time>
      </trkpt>
      <trkpt lat="42.88" lon="1.81759">
        <ele>957</ele>
        <time>2016-07-12T01:56:21Z</time>
      </trkpt>
      <trkpt lat="42.88004" lon="1.8175">
        <ele>957</ele>
        <time>2016-07-12T01:58:21Z</time>
      </trkpt>
      <trkpt lat="42.88007" lon="1.8174">
        <ele>956</ele>
        <time>2016-07-12T02:00:21Z</time>
      </trkpt>
      <trkpt lat="42.88011" lon="1.81726">
        <ele>955</ele>
        <time>2016-07-12T02:02:21Z</time>
      </trkpt>
      <trkpt lat="42.88013" lon="1.81714">
        <ele>954</ele>
        <time>2016-07-12T02:04:21Z</time>
      </trkpt>
      <trkpt lat="42.88014" lon="1.81704">
        <ele>953</ele>
        <time>2016-07-12T02:06:21Z</time>
      </trkpt>
      <trkpt lat="42.88016" lon="1.81691">
        <ele>952</ele>
        <time>2016-07-12T02:08:21Z</time>
      </trkpt>
      <trkpt lat="42.88017" lon="1.81678">
        <ele>950</ele>
        <time>2016-07-12T02:10:21Z</time>
      </trkpt>
      <trkpt lat="42.88017" lon="1.81667">
        <ele>949</ele>
        <time>2016-07-12T02:12:21Z</time>
      </trkpt>
      <trkpt lat="42.88017" lon="1.81655">
        <ele>946</ele>
        <time>2016-07-12T02:14:21Z</time>
      </trkpt>
      <trkpt lat="42.88017" lon="1.81643">
        <ele>944</ele>
        <time>2016-07-12T02:16:21Z</time>
      </trkpt>
      <trkpt lat="42.88015" lon="1.8163">
        <ele>941</ele>
        <time>2016-07-12T02:18:21Z</time>
      </trkpt>
      <trkpt lat="42.88014" lon="1.81618">
        <ele>939</ele>
        <time>2016-07-12T02:20:21Z</time>
      </trkpt>
      <trkpt lat="42.88013" lon="1.81608">
        <ele>937</ele>
        <time>2016-07-12T02:22:21Z</time>
      </trkpt>
      <trkpt lat="42.88014" lon="1.81602">
        <ele>936</ele>
        <time>2016-07-12T02:24:21Z</time>
      </trkpt>
      <trkpt lat="42.88015" lon="1.81596">
        <ele>935</ele>
        <time>2016-07-12T02:26:21Z</time>
      </trkpt>
      <trkpt lat="42.88017" lon="1.81591">
        <ele>935</ele>
        <time>2016-07-12T02:28:21Z</time>
      </trkpt>
      <trkpt lat="42.88019" lon="1.81587">
        <ele>935</ele>
        <time>2016-07-12T02:30:21Z</time>
      </trkpt>
      <trkpt lat="42.88021" lon="1.81584">
        <ele>935</ele>
        <time>2016-07-12T02:32:21Z</time>
      </trkpt>
      <trkpt lat="42.88025" lon="1.81579">
        <ele>935</ele>
        <time>2016-07-12T02:34:21Z</time>
      </trkpt>
      <trkpt lat="42.88031" lon="1.81575">
        <ele>936</ele>
        <time>2016-07-12T02:36:21Z</time>
      </trkpt>
      <trkpt lat="42.88036" lon="1.81571">
        <ele>937</ele>
        <time>2016-07-12T02:38:21Z</time>
      </trkpt>
      <trkpt lat="42.88045" lon="1.81565">
        <ele>938</ele>
        <time>2016-07-12T02:40:21Z</time>
      </trkpt>
      <trkpt lat="42.88051" lon="1.81562">
        <ele>940</ele>
        <time>2016-07-12T02:42:21Z</time>
      </trkpt>
      <trkpt lat="42.88058" lon="1.81556">
        <ele>941</ele>
        <time>2016-07-12T02:44:21Z</time>
      </trkpt>
      <trkpt lat="42.88062" lon="1.8155">
        <ele>941</ele>
        <time>2016-07-12T02:46:21Z</time>
      </trkpt>
      <trkpt lat="42.88066" lon="1.81544">
        <ele>940</ele>
        <time>2016-07-12T02:48:21Z</time>
      </trkpt>
      <trkpt lat="42.88069" lon="1.81535">
        <ele>939</ele>
        <time>2016-07-12T02:50:21Z</time>
      </trkpt>
      <trkpt lat="42.88071" lon="1.81527">
        <ele>938</ele>
        <time>2016-07-12T02:52:21Z</time>
      </trkpt>
      <trkpt lat="42.88075" lon="1.8151">
        <ele>936</ele>
        <time>2016-07-12T02:54:21Z</time>
      </trkpt>
      <trkpt lat="42.88081" lon="1.81484">
        <ele>932</ele>
        <time>2016-07-12T02:56:21Z</time>
      </trkpt>
      <trkpt lat="42.88087" lon="1.8145">
        <ele>926</ele>
        <time>2016-07-12T02:58:21Z</time>
      </trkpt>
      <trkpt lat="42.8809" lon="1.81432">
        <ele>924</ele>
        <time>2016-07-12T03:00:21Z</time>
      </trkpt>
      <trkpt lat="42.88091" lon="1.81418">
        <ele>921</ele>
        <time>2016-07-12T03:02:21Z</time>
      </trkpt>
      <trkpt lat="42.88091" lon="1.81364">
        <ele>911</ele>
        <time>2016-07-12T03:04:21Z</time>
      </trkpt>
      <trkpt lat="42.88091" lon="1.81355">
        <ele>910</ele>
        <time>2016-07-12T03:06:21Z</time>
      </trkpt>
      <trkpt lat="42.88092" lon="1.81342">
        <ele>908</ele>
        <time>2016-07-12T03:08:21Z</time>
      </trkpt>
      <trkpt lat="42.88093" lon="1.81333">
        <ele>906</ele>
        <time>2016-07-12T03:10:21Z</time>
      </trkpt>
      <trkpt lat="42.88095" lon="1.81324">
        <ele>906</ele>
        <time>2016-07-12T03:12:21Z</time>
      </trkpt>
      <trkpt lat="42.88097" lon="1.81311">
        <ele>905</ele>
        <time>2016-07-12T03:14:21Z</time>
      </trkpt>
      <trkpt lat="42.88099" lon="1.81303">
        <ele>905</ele>
        <time>2016-07-12T03:16:21Z</time>
      </trkpt>
      <trkpt lat="42.88102" lon="1.81296">
        <ele>905</ele>
        <time>2016-07-12T03:18:21Z</time>
      </trkpt>
      <trkpt lat="42.88106" lon="1.81288">
        <ele>906</ele>
        <time>2016-07-12T03:20:21Z</time>
      </trkpt>
      <trkpt lat="42.8811" lon="1.8128">
        <ele>906</ele>
        <time>2016-07-12T03:22:21Z</time>
      </trkpt>
      <trkpt lat="42.88114" lon="1.81273">
        <ele>907</ele>
        <time>2016-07-12T03:24:21Z</time>
      </trkpt>
      <trkpt lat="42.88118" lon="1.81266">
        <ele>907</ele>
        <time>2016-07-12T03:26:21Z</time>
      </trkpt>
      <trkpt lat="42.88123" lon="1.81258">
        <ele>908</ele>
        <time>2016-07-12T03:28:21Z</time>
      </trkpt>
      <trkpt lat="42.88158" lon="1.81215">
        <ele>911</ele>
        <time>2016-07-12T03:30:21Z</time>
      </trkpt>
      <trkpt lat="42.88177" lon="1.81187">
        <ele>910</ele>
        <time>2016-07-12T03:32:21Z</time>
      </trkpt>
      <trkpt lat="42.8819" lon="1.81162">
        <ele>909</ele>
        <time>2016-07-12T03:34:21Z</time>
      </trkpt>
      <trkpt lat="42.8821" lon="1.81121">
        <ele>907</ele>
        <time>2016-07-12T03:36:21Z</time>
      </trkpt>
      <trkpt lat="42.88226" lon="1.81086">
        <ele>906</ele>
        <time>2016-07-12T03:38:21Z</time>
      </trkpt>
      <trkpt lat="42.88232" lon="1.81072">
        <ele>905</ele>
        <time>2016-07-12T03:40:21Z</time>
      </trkpt>
      <trkpt lat="42.88242" lon="1.81047">
        <ele>904</ele>
        <time>2016-07-12T03:42:21Z</time>
      </trkpt>
      <trkpt lat="42.88252" lon="1.81019">
        <ele>902</ele>
        <time>2016-07-12T03:44:21Z</time>
      </trkpt>
      <trkpt lat="42.88258" lon="1.81">
        <ele>901</ele>
        <time>2016-07-12T03:46:21Z</time>
      </trkpt>
      <trkpt lat="42.88263" lon="1.80982">
        <ele>900</ele>
        <time>2016-07-12T03:48:21Z</time>
      </trkpt>
      <trkpt lat="42.88272" lon="1.80942">
        <ele>896</ele>
        <time>2016-07-12T03:50:21Z</time>
      </trkpt>
      <trkpt lat="42.88283" lon="1.80887">
        <ele>890</ele>
        <time>2016-07-12T03:52:21Z</time>
      </trkpt>
      <trkpt lat="42.88288" lon="1.80858">
        <ele>887</ele>
        <time>2016-07-12T03:54:21Z</time>
      </trkpt>
      <trkpt lat="42.88289" lon="1.80842">
        <ele>884</ele>
        <time>2016-07-12T03:56:21Z</time>
      </trkpt>
      <trkpt lat="42.8829" lon="1.80834">
        <ele>882</ele>
        <time>2016-07-12T03:58:21Z</time>
      </trkpt>
      <trkpt lat="42.8829" lon="1.80828">
        <ele>881</ele>
        <time>2016-07-12T04:00:21Z</time>
      </trkpt>
      <trkpt lat="42.88288" lon="1.80809">
        <ele>877</ele>
        <time>2016-07-12T04:02:21Z</time>
      </trkpt>
      <trkpt lat="42.88286" lon="1.80799">
        <ele>875</ele>
        <time>2016-07-12T04:04:21Z</time>
      </trkpt>
      <trkpt lat="42.88284" lon="1.80774">
        <ele>870</ele>
        <time>2016-07-12T04:06:21Z</time>
      </trkpt>
      <trkpt lat="42.88284" lon="1.80766">
        <ele>869</ele>
        <time>2016-07-12T04:08:21Z</time>
      </trkpt>
      <trkpt lat="42.88284" lon="1.80757">
        <ele>868</ele>
        <time>2016-07-12T04:10:21Z</time>
      </trkpt>
      <trkpt lat="42.88286" lon="1.80747">
        <ele>867</ele>
        <time>2016-07-12T04:12:21Z</time>
      </trkpt>
      <trkpt lat="42.88287" lon="1.80738">
        <ele>865</ele>
        <time>2016-07-12T04:14:21Z</time>
      </trkpt>
      <trkpt lat="42.88288" lon="1.80728">
        <ele>864</ele>
        <time>2016-07-12T04:16:21Z</time>
      </trkpt>
      <trkpt lat="42.88291" lon="1.80713">
        <ele>862</ele>
        <time>2016-07-12T04:18:21Z</time>
      </trkpt>
      <trkpt lat="42.88294" lon="1.80702">
        <ele>861</ele>
        <time>2016-07-12T04:20:21Z</time>
      </trkpt>
      <trkpt lat="42.88296" lon="1.80695">
        <ele>861</ele>
        <time>2016-07-12T04:22:21Z</time>
      </trkpt>
      <trkpt lat="42.883" lon="1.80688">
        <ele>861</ele>
        <time>2016-07-12T04:24:21Z</time>
      </trkpt>
      <trkpt lat="42.88303" lon="1.80684">
        <ele>861</ele>
        <time>2016-07-12T04:26:21Z</time>
      </trkpt>
      <trkpt lat="42.88309" lon="1.80675">
        <ele>861</ele>
        <time>2016-07-12T04:28:21Z</time>
      </trkpt>
      <trkpt lat="42.88316" lon="1.80668">
        <ele>861</ele>
        <time>2016-07-12T04:30:21Z</time>
      </trkpt>
      <trkpt lat="42.88323" lon="1.80661">
        <ele>862</ele>
        <time>2016-07-12T04:32:21Z</time>
      </trkpt>
      <trkpt lat="42.88346" lon="1.8065">
        <ele>866</ele>
        <time>2016-07-12T04:34:21Z</time>
      </trkpt>
      <trkpt lat="42.88368" lon="1.80639">
        <ele>870</ele>
        <time>2016-07-12T04:36:21Z</time>
      </trkpt>
      <trkpt lat="42.88378" lon="1.80632">
        <ele>871</ele>
        <time>2016-07-12T04:38:21Z</time>
      </trkpt>
      <trkpt lat="42.88382" lon="1.80628">
        <ele>872</ele>
        <time>2016-07-12T04:40:21Z</time>
      </trkpt>
      <trkpt lat="42.88387" lon="1.80621">
        <ele>872</ele>
        <time>2016-07-12T04:42:21Z</time>
      </trkpt>
      <trkpt lat="42.8839" lon="1.80616">
        <ele>872</ele>
        <time>2016-07-12T04:44:21Z</time>
      </trkpt>
      <trkpt lat="42.88393" lon="1.8061">
        <ele>871</ele>
        <time>2016-07-12T04:46:21Z</time>
      </trkpt>
      <trkpt lat="42.88396" lon="1.80599">
        <ele>870</ele>
        <time>2016-07-12T04:48:21Z</time>
      </trkpt>
      <trkpt lat="42.88399" lon="1.80587">
        <ele>868</ele>
        <time>2016-07-12T04:50:21Z</time>
      </trkpt>
      <trkpt lat="42.88407" lon="1.8054">
        <ele>862</ele>
        <time>2016-07-12T04:52:21Z</time>
      </trkpt>
      <trkpt lat="42.88413" lon="1.80502">
        <ele>858</ele>
        <time>2016-07-12T04:54:21Z</time>
      </trkpt>
      <trkpt lat="42.88417" lon="1.80479">
        <ele>855</ele>
        <time>2016-07-12T04:56:21Z</time>
      </trkpt>
      <trkpt lat="42.88418" lon="1.80474">
        <ele>854</ele>
        <time>2016-07-12T04:58:21Z</time>
      </trkpt>
      <trkpt lat="42.8842" lon="1.8047">
        <ele>854</ele>
        <time>2016-07-12T05:00:21Z</time>
      </trkpt>
      <trkpt lat="42.88423" lon="1.80465">
        <ele>854</ele>
        <time>2016-07-12T05:02:21Z</time>
      </trkpt>
      <trkpt lat="42.88426" lon="1.80461">
        <ele>855</ele>
        <time>2016-07-12T05:04:21Z</time>
      </trkpt>
      <trkpt lat="42.88431" lon="1.8046">
        <ele>856</ele>
        <time>2016-07-12T05:06:21Z</time>
      </trkpt>
      <trkpt lat="42.88439" lon="1.80459">
        <ele>859</ele>
        <time>2016-07-12T05:08:21Z</time>
      </trkpt>
      <trkpt lat="42.88452" lon="1.80459">
        <ele>863</ele>
        <time>2016-07-12T05:10:21Z</time>
      </trkpt>
      <trkpt lat="42.88456" lon="1.80457">
        <ele>864</ele>
        <time>2016-07-12T05:12:21Z</time>
      </trkpt>
      <trkpt lat="42.8846" lon="1.80452">
        <ele>864</ele>
        <time>2016-07-12T05:14:21Z</time>
      </trkpt>
      <trkpt lat="42.88462" lon="1.80448">
        <ele>864</ele>
        <time>2016-07-12T05:16:21Z</time>
      </trkpt>
      <trkpt lat="42.88464" lon="1.80444">
        <ele>864</ele>
        <time>2016-07-12T05:18:21Z</time>
      </trkpt>
      <trkpt lat="42.88465" lon="1.80437">
        <ele>863</ele>
        <time>2016-07-12T05:20:21Z</time>
      </trkpt>
      <trkpt lat="42.88466" lon="1.80425">
        <ele>861</ele>
        <time>2016-07-12T05:22:21Z</time>
      </trkpt>
      <trkpt lat="42.88465" lon="1.80408">
        <ele>857</ele>
        <time>2016-07-12T05:24:21Z</time>
      </trkpt>
      <trkpt lat="42.88465" lon="1.8038">
        <ele>851</ele>
        <time>2016-07-12T05:26:21Z</time>
      </trkpt>
      <trkpt lat="42.88467" lon="1.80365">
        <ele>848</ele>
        <time>2016-07-12T05:28:21Z</time>
      </trkpt>
      <trkpt lat="42.8847" lon="1.80354">
        <ele>847</ele>
        <time>2016-07-12T05:30:21Z</time>
      </trkpt>
      <trkpt lat="42.88477" lon="1.80341">
        <ele>847</ele>
        <time>2016-07-12T05:32:21Z</time>
      </trkpt>
      <trkpt lat="42.88483" lon="1.80332">
        <ele>847</ele>
        <time>2016-07-12T05:34:21Z</time>
      </trkpt>
      <trkpt lat="42.88494" lon="1.80316">
        <ele>848</ele>
        <time>2016-07-12T05:36:21Z</time>
      </trkpt>
      <trkpt lat="42.88504" lon="1.80302">
        <ele>848</ele>
        <time>2016-07-12T05:38:21Z</time>
      </trkpt>
      <trkpt lat="42.88509" lon="1.80289">
        <ele>847</ele>
        <time>2016-07-12T05:40:21Z</time>
      </trkpt>
      <trkpt lat="42.88511" lon="1.80281">
        <ele>846</ele>
        <time>2016-07-12T05:42:21Z</time>
      </trkpt>
      <trkpt lat="42.88514" lon="1.8027">
        <ele>845</ele>
        <time>2016-07-12T05:44:21Z</time>
      </trkpt>
      <trkpt lat="42.88515" lon="1.80255">
        <ele>842</ele>
        <time>2016-07-12T05:46:21Z</time>
      </trkpt>
      <trkpt lat="42.88516" lon="1.80236">
        <ele>838</ele>
        <time>2016-07-12T05:48:21Z</time>
      </trkpt>
      <trkpt lat="42.88517" lon="1.80191">
        <ele>828</ele>
        <time>2016-07-12T05:50:21Z</time>
      </trkpt>
      <trkpt lat="42.8852" lon="1.8016">
        <ele>822</ele>
        <time>2016-07-12T05:52:21Z</time>
      </trkpt>
      <trkpt lat="42.88524" lon="1.80145">
        <ele>820</ele>
        <time>2016-07-12T05:54:21Z</time>
      </trkpt>
      <trkpt lat="42.88526" lon="1.80136">
        <ele>819</ele>
        <time>2016-07-12T05:56:21Z</time>
      </trkpt>
      <trkpt lat="42.88534" lon="1.80118">
        <ele>819</ele>
        <time>2016-07-12T05:58:21Z</time>
      </trkpt>
      <trkpt lat="42.88539" lon="1.80106">
        <ele>818</ele>
        <time>2016-07-12T06:00:21Z</time>
      </trkpt>
      <trkpt lat="42.88551" lon="1.8008">
        <ele>817</ele>
        <time>2016-07-12T06:02:21Z</time>
      </trkpt>
      <trkpt lat="42.88552" lon="1.80077">
        <ele>817</ele>
        <time>2016-07-12T06:04:21Z</time>
      </trkpt>
      <trkpt lat="42.88561" lon="1.80045">
        <ele>815</ele>
        <time>2016-07-12T06:06:21Z</time>
      </trkpt>
      <trkpt lat="42.88589" lon="1.79951">
        <ele>808</ele>
        <time>2016-07-12T06:08:21Z</time>
      </trkpt>
      <trkpt lat="42.88603" lon="1.79917">
        <ele>808</ele>
        <time>2016-07-12T06:10:21Z</time>
      </trkpt>
      <trkpt lat="42.88605" lon="1.7991">
        <ele>808</ele>
        <time>2016-07-12T06:12:21Z</time>
      </trkpt>
      <trkpt lat="42.88606" lon="1.79904">
        <ele>807</ele>
        <time>2016-07-12T06:14:21Z</time>
      </trkpt>
      <trkpt lat="42.88606" lon="1.79897">
        <ele>806</ele>
        <time>2016-07-12T06:16:21Z</time>
      </trkpt>
      <trkpt lat="42.88604" lon="1.79883">
        <ele>803</ele>
        <time>2016-07-12T06:18:21Z</time>
      </trkpt>
      <trkpt lat="42.88592" lon="1.79842">
        <ele>790</ele>
        <time>2016-07-12T06:20:21Z</time>
      </trkpt>
      <trkpt lat="42.8859" lon="1.79827">
        <ele>787</ele>
        <time>2016-07-12T06:22:21Z</time>
      </trkpt>
      <trkpt lat="42.88589" lon="1.79812">
        <ele>785</ele>
        <time>2016-07-12T06:24:21Z</time>
      </trkpt>
      <trkpt lat="42.88589" lon="1.7979">
        <ele>783</ele>
        <time>2016-07-12T06:26:21Z</time>
      </trkpt>
      <trkpt lat="42.88588" lon="1.79775">
        <ele>781</ele>
        <time>2016-07-12T06:28:21Z</time>
      </trkpt>
      <trkpt lat="42.88591" lon="1.79738">
        <ele>779</ele>
        <time>2016-07-12T06:30:21Z</time>
      </trkpt>
      <trkpt lat="42.88592" lon="1.79708">
        <ele>776</ele>
        <time>2016-07-12T06:32:21Z</time>
      </trkpt>
      <trkpt lat="42.88594" lon="1.79683">
        <ele>775</ele>
        <time>2016-07-12T06:34:21Z</time>
      </trkpt>
      <trkpt lat="42.88597" lon="1.79662">
        <ele>773</ele>
        <time>2016-07-12T06:36:21Z</time>
      </trkpt>
      <trkpt lat="42.886" lon="1.79647">
        <ele>773</ele>
        <time>2016-07-12T06:38:21Z</time>
      </trkpt>
      <trkpt lat="42.88605" lon="1.79626">
        <ele>772</ele>
        <time>2016-07-12T06:40:21Z</time>
      </trkpt>
      <trkpt lat="42.88613" lon="1.79599">
        <ele>770</ele>
        <time>2016-07-12T06:42:21Z</time>
      </trkpt>
      <trkpt lat="42.88619" lon="1.79579">
        <ele>769</ele>
        <time>2016-07-12T06:44:21Z</time>
      </trkpt>
      <trkpt lat="42.88621" lon="1.79569">
        <ele>769</ele>
        <time>2016-07-12T06:46:21Z</time>
      </trkpt>
      <trkpt lat="42.88622" lon="1.7956">
        <ele>768</ele>
        <time>2016-07-12T06:48:21Z</time>
      </trkpt>
      <trkpt lat="42.88623" lon="1.79549">
        <ele>767</ele>
        <time>2016-07-12T06:50:21Z</time>
      </trkpt>
      <trkpt lat="42.88625" lon="1.79539">
        <ele>767</ele>
        <time>2016-07-12T06:52:21Z</time>
      </trkpt>
      <trkpt lat="42.88625" lon="1.79531">
        <ele>766</ele>
        <time>2016-07-12T06:54:21Z</time>
      </trkpt>
      <trkpt lat="42.88625" lon="1.79523">
        <ele>765</ele>
        <time>2016-07-12T06:56:21Z</time>
      </trkpt>
      <trkpt lat="42.88623" lon="1.79503">
        <ele>764</ele>
        <time>2016-07-12T06:58:21Z</time>
      </trkpt>
      <trkpt lat="42.88621" lon="1.7948">
        <ele>763</ele>
        <time>2016-07-12T07:00:21Z</time>
      </trkpt>
      <trkpt lat="42.8862" lon="1.79469">
        <ele>762</ele>
        <time>2016-07-12T07:02:21Z</time>
      </trkpt>
      <trkpt lat="42.88619" lon="1.79462">
        <ele>762</ele>
        <time>2016-07-12T07:04:21Z</time>
      </trkpt>
      <trkpt lat="42.88619" lon="1.79456">
        <ele>762</ele>
        <time>2016-07-12T07:06:21Z</time>
      </trkpt>
      <trkpt lat="42.88619" lon="1.7945">
        <ele>761</ele>
        <time>2016-07-12T07:08:21Z</time>
      </trkpt>
      <trkpt lat="42.88619" lon="1.79439">
        <ele>761</ele>
        <time>2016-07-12T07:10:21Z</time>
      </trkpt>
      <trkpt lat="42.8862" lon="1.79433">
        <ele>761</ele>
        <time>2016-07-12T07:12:21Z</time>
      </trkpt>
      <trkpt lat="42.88621" lon="1.79425">
        <ele>761</ele>
        <time>2016-07-12T07:14:21Z</time>
      </trkpt>
      <trkpt lat="42.88623" lon="1.79418">
        <ele>761</ele>
        <time>2016-07-12T07:16:21Z</time>
      </trkpt>
      <trkpt lat="42.88626" lon="1.7941">
        <ele>760</ele>
        <time>2016-07-12T07:18:21Z</time>
      </trkpt>
      <trkpt lat="42.88629" lon="1.79402">
        <ele>760</ele>
        <time>2016-07-12T07:20:21Z</time>
      </trkpt>
      <trkpt lat="42.88632" lon="1.79398">
        <ele>760</ele>
        <time>2016-07-12T07:22:21Z</time>
      </trkpt>
      <trkpt lat="42.88636" lon="1.79392">
        <ele>760</ele>
        <time>2016-07-12T07:24:21Z</time>
      </trkpt>
      <trkpt lat="42.8865" lon="1.79377">
        <ele>760</ele>
        <time>2016-07-12T07:26:21Z</time>
      </trkpt>
      <trkpt lat="42.88665" lon="1.79364">
        <ele>759</ele>
        <time>2016-07-12T07:28:21Z</time>
      </trkpt>
      <trkpt lat="42.88677" lon="1.79354">
        <ele>759</ele>
        <time>2016-07-12T07:30:21Z</time>
      </trkpt>
      <trkpt lat="42.88695" lon="1.79344">
        <ele>759</ele>
        <time>2016-07-12T07:32:21Z</time>
      </trkpt>
      <trkpt lat="42.88717" lon="1.79336">
        <ele>758</ele>
        <time>2016-07-12T07:34:21Z</time>
      </trkpt>
      <trkpt lat="42.88731" lon="1.79332">
        <ele>758</ele>
        <time>2016-07-12T07:36:21Z</time>
      </trkpt>
      <trkpt lat="42.8874" lon="1.7933">
        <ele>758</ele>
        <time>2016-07-12T07:38:21Z</time>
      </trkpt>
      <trkpt lat="42.88744" lon="1.79329">
        <ele>758</ele>
        <time>2016-07-12T07:40:21Z</time>
      </trkpt>
      <trkpt lat="42.88751" lon="1.79328">
        <ele>758</ele>
        <time>2016-07-12T07:42:21Z</time>
      </trkpt>
      <trkpt lat="42.88764" lon="1.79326">
        <ele>758</ele>
        <time>2016-07-12T07:44:21Z</time>
      </trkpt>
      <trkpt lat="42.88775" lon="1.79322">
        <ele>759</ele>
        <time>2016-07-12T07:46:21Z</time>
      </trkpt>
      <trkpt lat="42.88784" lon="1.79317">
        <ele>758</ele>
        <time>2016-07-12T07:48:21Z</time>
      </trkpt>
      <trkpt lat="42.8879" lon="1.79312">
        <ele>758</ele>
        <time>2016-07-12T07:50:21Z</time>
      </trkpt>
      <trkpt lat="42.88797" lon="1.79308">
        <ele>758</ele>
        <time>2016-07-12T07:52:21Z</time>
      </trkpt>
      <trkpt lat="42.88808" lon="1.793">
        <ele>757</ele>
        <time>2016-07-12T07:54:21Z</time>
      </trkpt>
      <trkpt lat="42.88836" lon="1.7928">
        <ele>753</ele>
        <time>2016-07-12T07:56:21Z</time>
      </trkpt>
      <trkpt lat="42.88865" lon="1.79257">
        <ele>750</ele>
        <time>2016-07-12T07:58:21Z</time>
      </trkpt>
      <trkpt lat="42.88879" lon="1.79249">
        <ele>749</ele>
        <time>2016-07-12T08:00:21Z</time>
      </trkpt>
      <trkpt lat="42.8889" lon="1.79244">
        <ele>748</ele>
        <time>2016-07-12T08:02:21Z</time>
      </trkpt>
      <trkpt lat="42.889" lon="1.79241">
        <ele>748</ele>
        <time>2016-07-12T08:04:21Z</time>
      </trkpt>
      <trkpt lat="42.88918" lon="1.79237">
        <ele>748</ele>
        <time>2016-07-12T08:06:21Z</time>
      </trkpt>
      <trkpt lat="42.88957" lon="1.79226">
        <ele>747</ele>
        <time>2016-07-12T08:08:21Z</time>
      </trkpt>
      <trkpt lat="42.8897" lon="1.7922">
        <ele>746</ele>
        <time>2016-07-12T08:10:21Z</time>
      </trkpt>
      <trkpt lat="42.89" lon="1.79206">
        <ele>743</ele>
        <time>2016-07-12T08:12:21Z</time>
      </trkpt>
      <trkpt lat="42.89009" lon="1.79204">
        <ele>742</ele>
        <time>2016-07-12T08:14:21Z</time>
      </trkpt>
      <trkpt lat="42.89042" lon="1.79192">
        <ele>736</ele>
        <time>2016-07-12T08:16:21Z</time>
      </trkpt>
      <trkpt lat="42.89061" lon="1.79187">
        <ele>732</ele>
        <time>2016-07-12T08:18:21Z</time>
      </trkpt>
      <trkpt lat="42.89068" lon="1.79185">
        <ele>731</ele>
        <time>2016-07-12T08:20:21Z</time>
      </trkpt>
      <trkpt lat="42.8908" lon="1.79185">
        <ele>729</ele>
        <time>2016-07-12T08:22:21Z</time>
      </trkpt>
      <trkpt lat="42.89098" lon="1.79187">
        <ele>728</ele>
        <time>2016-07-12T08:24:21Z</time>
      </trkpt>
      <trkpt lat="42.8912" lon="1.79192">
        <ele>726</ele>
        <time>2016-07-12T08:26:21Z</time>
      </trkpt>
      <trkpt lat="42.89134" lon="1.79196">
        <ele>725</ele>
        <time>2016-07-12T08:28:21Z</time>
      </trkpt>
      <trkpt lat="42.89148" lon="1.792">
        <ele>724</ele>
        <time>2016-07-12T08:30:21Z</time>
      </trkpt>
      <trkpt lat="42.89155" lon="1.79204">
        <ele>723</ele>
        <time>2016-07-12T08:32:21Z</time>
      </trkpt>
      <trkpt lat="42.8916" lon="1.79206">
        <ele>723</ele>
        <time>2016-07-12T08:34:21Z</time>
      </trkpt>
      <trkpt lat="42.89168" lon="1.79212">
        <ele>723</ele>
        <time>2016-07-12T08:36:21Z</time>
      </trkpt>
      <trkpt lat="42.89173" lon="1.79218">
        <ele>723</ele>
        <time>2016-07-12T08:38:21Z</time>
      </trkpt>
      <trkpt lat="42.89183" lon="1.79228">
        <ele>722</ele>
        <time>2016-07-12T08:40:21Z</time>
      </trkpt>
      <trkpt lat="42.89191" lon="1.79238">
        <ele>722</ele>
        <time>2016-07-12T08:42:21Z</time>
      </trkpt>
      <trkpt lat="42.89196" lon="1.79243">
        <ele>722</ele>
        <time>2016-07-12T08:44:21Z</time>
      </trkpt>
      <trkpt lat="42.89207" lon="1.79252">
        <ele>720</ele>
        <time>2016-07-12T08:46:21Z</time>
      </trkpt>
      <trkpt lat="42.89218" lon="1.79258">
        <ele>719</ele>
        <time>2016-07-12T08:48:21Z</time>
      </trkpt>
      <trkpt lat="42.89238" lon="1.79268">
        <ele>715</ele>
        <time>2016-07-12T08:50:21Z</time>
      </trkpt>
      <trkpt lat="42.89253" lon="1.79278">
        <ele>713</ele>
        <time>2016-07-12T08:52:21Z</time>
      </trkpt>
      <trkpt lat="42.89266" lon="1.7929">
        <ele>713</ele>
        <time>2016-07-12T08:54:21Z</time>
      </trkpt>
      <trkpt lat="42.89277" lon="1.793">
        <ele>712</ele>
        <time>2016-07-12T08:56:21Z</time>
      </trkpt>
      <trkpt lat="42.89287" lon="1.79309">
        <ele>711</ele>
        <time>2016-07-12T08:58:21Z</time>
      </trkpt>
      <trkpt lat="42.89298" lon="1.79317">
        <ele>709</ele>
        <time>2016-07-12T09:00:21Z</time>
      </trkpt>
      <trkpt lat="42.8931" lon="1.79326">
        <ele>707</ele>
        <time>2016-07-12T09:02:21Z</time>
      </trkpt>
      <trkpt lat="42.8933" lon="1.79338">
        <ele>703</ele>
        <time>2016-07-12T09:04:21Z</time>
      </trkpt>
      <trkpt lat="42.89349" lon="1.7935">
        <ele>701</ele>
        <time>2016-07-12T09:06:21Z</time>
      </trkpt>
      <trkpt lat="42.89349" lon="1.7935">
        <ele>701</ele>
        <time>2016-07-12T09:08:21Z</time>
      </trkpt>
      <trkpt lat="42.89349" lon="1.79357">
        <ele>701</ele>
        <time>2016-07-12T09:10:21Z</time>
      </trkpt>
      <trkpt lat="42.89349" lon="1.79359">
        <ele>702</ele>
        <time>2016-07-12T09:12:21Z</time>
      </trkpt>
      <trkpt lat="42.89351" lon="1.79361">
        <ele>701</ele>
        <time>2016-07-12T09:14:21Z</time>
      </trkpt>
      <trkpt lat="42.89353" lon="1.79364">
        <ele>701</ele>
        <time>2016-07-12T09:16:21Z</time>
      </trkpt>
      <trkpt lat="42.89358" lon="1.79367">
        <ele>700</ele>
        <time>2016-07-12T09:18:21Z</time>
      </trkpt>
      <trkpt lat="42.89362" lon="1.79374">
        <ele>700</ele>
        <time>2016-07-12T09:20:21Z</time>
      </trkpt>
      <trkpt lat="42.89366" lon="1.7938">
        <ele>700</ele>
        <time>2016-07-12T09:22:21Z</time>
      </trkpt>
      <trkpt lat="42.8937" lon="1.79387">
        <ele>699</ele>
        <time>2016-07-12T09:24:21Z</time>
      </trkpt>
      <trkpt lat="42.89374" lon="1.79395">
        <ele>699</ele>
        <time>2016-07-12T09:26:21Z</time>
      </trkpt>
      <trkpt lat="42.89378" lon="1.79402">
        <ele>699</ele>
        <time>2016-07-12T09:28:21Z</time>
      </trkpt>
      <trkpt lat="42.89381" lon="1.79407">
        <ele>698</ele>
        <time>2016-07-12T09:30:21Z</time>
      </trkpt>
      <trkpt lat="42.89385" lon="1.79413">
        <ele>697</ele>
        <time>2016-07-12T09:32:21Z</time>
      </trkpt>
      <trkpt lat="42.89389" lon="1.79417">
        <ele>697</ele>
        <time>2016-07-12T09:34:21Z</time>
      </trkpt>
      <trkpt lat="42.89395" lon="1.79422">
        <ele>696</ele>
        <time>2016-07-12T09:36:21Z</time>
      </trkpt>
      <trkpt lat="42.89404" lon="1.79429">
        <ele>695</ele>
        <time>2016-07-12T09:38:21Z</time>
      </trkpt>
      <trkpt lat="42.89414" lon="1.79436">
        <ele>694</ele>
        <time>2016-07-12T09:40:21Z</time>
      </trkpt>
      <trkpt lat="42.89421" lon="1.79441">
        <ele>693</ele>
        <time>2016-07-12T09:42:21Z</time>
      </trkpt>
      <trkpt lat="42.89428" lon="1.79446">
        <ele>693</ele>
        <time>2016-07-12T09:44:21Z</time>
      </trkpt>
      <trkpt lat="42.89434" lon="1.79451">
        <ele>693</ele>
        <time>2016-07-12T09:46:21Z</time>
      </trkpt>
      <trkpt lat="42.89439" lon="1.79457">
        <ele>693</ele>
        <time>2016-07-12T09:48:21Z</time>
      </trkpt>
      <trkpt lat="42.89443" lon="1.79465">
        <ele>693</ele>
        <time>2016-07-12T09:50:21Z</time>
      </trkpt>
      <trkpt lat="42.89447" lon="1.79476">
        <ele>694</ele>
        <time>2016-07-12T09:52:21Z</time>
      </trkpt>
      <trkpt lat="42.89454" lon="1.79497">
        <ele>694</ele>
        <time>2016-07-12T09:54:21Z</time>
      </trkpt>
      <trkpt lat="42.89461" lon="1.79513">
        <ele>694</ele>
        <time>2016-07-12T09:56:21Z</time>
      </trkpt>
      <trkpt lat="42.89469" lon="1.79536">
        <ele>695</ele>
        <time>2016-07-12T09:58:21Z</time>
      </trkpt>
      <trkpt lat="42.89471" lon="1.79548">
        <ele>696</ele>
        <time>2016-07-12T10:00:21Z</time>
      </trkpt>
      <trkpt lat="42.89475" lon="1.79562">
        <ele>696</ele>
        <time>2016-07-12T10:02:21Z</time>
      </trkpt>
      <trkpt lat="42.89478" lon="1.79579">
        <ele>697</ele>
        <time>2016-07-12T10:04:21Z</time>
      </trkpt>
      <trkpt lat="42.89481" lon="1.79597">
        <ele>698</ele>
        <time>2016-07-12T10:06:21Z</time>
      </trkpt>
      <trkpt lat="42.89485" lon="1.79615">
        <ele>699</ele>
        <time>2016-07-12T10:08:21Z</time>
      </trkpt>
      <trkpt lat="42.89489" lon="1.79628">
        <ele>699</ele>
        <time>2016-07-12T10:10:21Z</time>
      </trkpt>
      <trkpt lat="42.89494" lon="1.79648">
        <ele>700</ele>
        <time>2016-07-12T10:12:21Z</time>
      </trkpt>
      <trkpt lat="42.89497" lon="1.79656">
        <ele>700</ele>
        <time>2016-07-12T10:14:21Z</time>
      </trkpt>
      <trkpt lat="42.895" lon="1.79666">
        <ele>700</ele>
        <time>2016-07-12T10:16:21Z</time>
      </trkpt>
      <trkpt lat="42.89504" lon="1.79682">
        <ele>701</ele>
        <time>2016-07-12T10:18:21Z</time>
      </trkpt>
      <trkpt lat="42.89509" lon="1.79698">
        <ele>701</ele>
        <time>2016-07-12T10:20:21Z</time>
      </trkpt>
      <trkpt lat="42.89514" lon="1.79714">
        <ele>701</ele>
        <time>2016-07-12T10:22:21Z</time>
      </trkpt>
      <trkpt lat="42.89518" lon="1.79729">
        <ele>701</ele>
        <time>2016-07-12T10:24:21Z</time>
      </trkpt>
      <trkpt lat="42.89521" lon="1.79741">
        <ele>701</ele>
        <time>2016-07-12T10:26:21Z</time>
      </trkpt>
      <trkpt lat="42.89522" lon="1.79764">
        <ele>703</ele>
        <time>2016-07-12T10:28:21Z</time>
      </trkpt>
      <trkpt lat="42.89519" lon="1.79786">
        <ele>706</ele>
        <time>2016-07-12T10:30:21Z</time>
      </trkpt>
      <trkpt lat="42.89509" lon="1.79803">
        <ele>710</ele>
        <time>2016-07-12T10:32:21Z</time>
      </trkpt>
      <trkpt lat="42.89443" lon="1.79857">
        <ele>733</ele>
        <time>2016-07-12T10:34:21Z</time>
      </trkpt>
      <trkpt lat="42.89443" lon="1.79857">
        <ele>733</ele>
        <time>2016-07-12T10:36:21Z</time>
      </trkpt>
      <trkpt lat="42.8956" lon="1.8002">
        <ele>745</ele>
        <time>2016-07-12T10:38:21Z</time>
      </trkpt>
      <trkpt lat="42.89588" lon="1.80027">
        <ele>741</ele>
        <time>2016-07-12T10:40:21Z</time>
      </trkpt>
      <trkpt lat="42.89624" lon="1.80043">
        <ele>730</ele>
        <time>2016-07-12T10:42:21Z</time>
      </trkpt>
      <trkpt lat="42.89638" lon="1.8006">
        <ele>728</ele>
        <time>2016-07-12T10:44:21Z</time>
      </trkpt>
      <trkpt lat="42.89657" lon="1.80105">
        <ele>727</ele>
        <time>2016-07-12T10:46:21Z</time>
      </trkpt>
      <trkpt lat="42.89706" lon="1.80218">
        <ele>725</ele>
        <time>2016-07-12T10:48:21Z</time>
      </trkpt>
      <trkpt lat="42.89726" lon="1.8025">
        <ele>722</ele>
        <time>2016-07-12T10:50:21Z</time>
      </trkpt>
      <trkpt lat="42.89733" lon="1.80262">
        <ele>720</ele>
        <time>2016-07-12T10:52:21Z</time>
      </trkpt>
      <trkpt lat="42.89737" lon="1.80274">
        <ele>720</ele>
        <time>2016-07-12T10:54:21Z</time>
      </trkpt>
      <trkpt lat="42.89748" lon="1.80313">
        <ele>722</ele>
        <time>2016-07-12T10:56:21Z</time>
      </trkpt>
      <trkpt lat="42.8976" lon="1.8035">
        <ele>721</ele>
        <time>2016-07-12T10:58:21Z</time>
      </trkpt>
      <trkpt lat="42.89764" lon="1.80358">
        <ele>720</ele>
        <time>2016-07-12T11:00:21Z</time>
      </trkpt>
      <trkpt lat="42.89778" lon="1.80367">
        <ele>714</ele>
        <time>2016-07-12T11:02:21Z</time>
      </trkpt>
      <trkpt lat="42.89778" lon="1.80367">
        <ele>714</ele>
        <time>2016-07-12T11:04:21Z</time>
      </trkpt>
      <trkpt lat="42.89776" lon="1.80363">
        <ele>714</ele>
        <time>2016-07-12T11:06:21Z</time>
      </trkpt>
      <trkpt lat="42.89775" lon="1.80348">
        <ele>712</ele>
        <time>2016-07-12T11:08:21Z</time>
      </trkpt>
      <trkpt lat="42.89774" lon="1.80311">
        <ele>707</ele>
        <time>2016-07-12T11:10:21Z</time>
      </trkpt>
      <trkpt lat="42.89775" lon="1.80303">
        <ele>705</ele>
        <time>2016-07-12T11:12:21Z</time>
      </trkpt>
      <trkpt lat="42.89777" lon="1.80299">
        <ele>703</ele>
        <time>2016-07-12T11:14:21Z</time>
      </trkpt>
      <trkpt lat="42.89782" lon="1.80303">
        <ele>701</ele>
        <time>2016-07-12T11:16:21Z</time>
      </trkpt>
      <trkpt lat="42.89789" lon="1.80316">
        <ele>699</ele>
        <time>2016-07-12T11:18:21Z</time>
      </trkpt>
      <trkpt lat="42.89799" lon="1.80332">
        <ele>696</ele>
        <time>2016-07-12T11:20:21Z</time>
      </trkpt>
      <trkpt lat="42.89829" lon="1.80368">
        <ele>686</ele>
        <time>2016-07-12T11:22:21Z</time>
      </trkpt>
      <trkpt lat="42.89839" lon="1.80385">
        <ele>685</ele>
        <time>2016-07-12T11:24:21Z</time>
      </trkpt>
      <trkpt lat="42.89854" lon="1.80417">
        <ele>683</ele>
        <time>2016-07-12T11:26:21Z</time>
      </trkpt>
      <trkpt lat="42.89865" lon="1.80447">
        <ele>682</ele>
        <time>2016-07-12T11:28:21Z</time>
      </trkpt>
      <trkpt lat="42.89872" lon="1.80467">
        <ele>681</ele>
        <time>2016-07-12T11:30:21Z</time>
      </trkpt>
      <trkpt lat="42.89884" lon="1.80482">
        <ele>676</ele>
        <time>2016-07-12T11:32:21Z</time>
      </trkpt>
      <trkpt lat="42.89895" lon="1.80495">
        <ele>671</ele>
        <time>2016-07-12T11:34:21Z</time>
      </trkpt>
      <trkpt lat="42.89899" lon="1.80502">
        <ele>670</ele>
        <time>2016-07-12T11:36:21Z</time>
      </trkpt>
      <trkpt lat="42.89904" lon="1.80515">
        <ele>669</ele>
        <time>2016-07-12T11:38:21Z</time>
      </trkpt>
      <trkpt lat="42.89923" lon="1.8058">
        <ele>672</ele>
        <time>2016-07-12T11:40:21Z</time>
      </trkpt>
      <trkpt lat="42.89927" lon="1.80594">
        <ele>673</ele>
        <time>2016-07-12T11:42:21Z</time>
      </trkpt>
      <trkpt lat="42.89937" lon="1.80617">
        <ele>672</ele>
        <time>2016-07-12T11:44:21Z</time>
      </trkpt>
      <trkpt lat="42.89943" lon="1.80634">
        <ele>672</ele>
        <time>2016-07-12T11:46:21Z</time>
      </trkpt>
      <trkpt lat="42.89946" lon="1.80648">
        <ele>672</ele>
        <time>2016-07-12T11:48:21Z</time>
      </trkpt>
      <trkpt lat="42.89952" lon="1.80664">
        <ele>671</ele>
        <time>2016-07-12T11:50:21Z</time>
      </trkpt>
      <trkpt lat="42.89964" lon="1.80685">
        <ele>667</ele>
        <time>2016-07-12T11:52:21Z</time>
      </trkpt>
      <trkpt lat="42.89978" lon="1.80699">
        <ele>661</ele>
        <time>2016-07-12T11:54:21Z</time>
      </trkpt>
      <trkpt lat="42.90003" lon="1.80747">
        <ele>653</ele>
        <time>2016-07-12T11:56:21Z</time>
      </trkpt>
      <trkpt lat="42.90011" lon="1.80762">
        <ele>654</ele>
        <time>2016-07-12T11:58:21Z</time>
      </trkpt>
      <trkpt lat="42.90015" lon="1.8078">
        <ele>655</ele>
        <time>2016-07-12T12:00:21Z</time>
      </trkpt>
      <trkpt lat="42.9002" lon="1.80792">
        <ele>655</ele>
        <time>2016-07-12T12:02:21Z</time>
      </trkpt>
      <trkpt lat="42.90031" lon="1.80804">
        <ele>653</ele>
        <time>2016-07-12T12:04:21Z</time>
      </trkpt>
      <trkpt lat="42.90036" lon="1.80812">
        <ele>653</ele>
        <time>2016-07-12T12:06:21Z</time>
      </trkpt>
      <trkpt lat="42.90039" lon="1.80826">
        <ele>653</ele>
        <time>2016-07-12T12:08:21Z</time>
      </trkpt>
      <trkpt lat="42.90046" lon="1.80846">
        <ele>652</ele>
        <time>2016-07-12T12:10:21Z</time>
      </trkpt>
      <trkpt lat="42.9005" lon="1.80871">
        <ele>651</ele>
        <time>2016-07-12T12:12:21Z</time>
      </trkpt>
      <trkpt lat="42.90056" lon="1.80902">
        <ele>650</ele>
        <time>2016-07-12T12:14:21Z</time>
      </trkpt>
      <trkpt lat="42.90062" lon="1.80927">
        <ele>648</ele>
        <time>2016-07-12T12:16:21Z</time>
      </trkpt>
      <trkpt lat="42.90072" lon="1.80957">
        <ele>644</ele>
        <time>2016-07-12T12:18:21Z</time>
      </trkpt>
      <trkpt lat="42.90086" lon="1.81013">
        <ele>641</ele>
        <time>2016-07-12T12:20:21Z</time>
      </trkpt>
      <trkpt lat="42.90099" lon="1.81058">
        <ele>639</ele>
        <time>2016-07-12T12:22:21Z</time>
      </trkpt>
      <trkpt lat="42.9011" lon="1.81085">
        <ele>639</ele>
        <time>2016-07-12T12:24:21Z</time>
      </trkpt>
      <trkpt lat="42.90114" lon="1.8109">
        <ele>639</ele>
        <time>2016-07-12T12:26:21Z</time>
      </trkpt>
      <trkpt lat="42.90117" lon="1.81091">
        <ele>639</ele>
        <time>2016-07-12T12:28:21Z</time>
      </trkpt>
      <trkpt lat="42.90121" lon="1.81092">
        <ele>639</ele>
        <time>2016-07-12T12:30:21Z</time>
      </trkpt>
      <trkpt lat="42.90135" lon="1.81089">
        <ele>639</ele>
        <time>2016-07-12T12:32:21Z</time>
      </trkpt>
      <trkpt lat="42.90142" lon="1.81093">
        <ele>639</ele>
        <time>2016-07-12T12:34:21Z</time>
      </trkpt>
      <trkpt lat="42.90142" lon="1.81093">
        <ele>639</ele>
        <time>2016-07-12T12:36:21Z</time>
      </trkpt>
      <trkpt lat="42.90146" lon="1.8109">
        <ele>639</ele>
        <time>2016-07-12T12:38:21Z</time>
      </trkpt>
      <trkpt lat="42.9015" lon="1.81086">
        <ele>639</ele>
        <time>2016-07-12T12:40:21Z</time>
      </trkpt>
      <trkpt lat="42.90156" lon="1.81081">
        <ele>639</ele>
        <time>2016-07-12T12:42:21Z</time>
      </trkpt>
      <trkpt lat="42.90166" lon="1.81075">
        <ele>639</ele>
        <time>2016-07-12T12:44:21Z</time>
      </trkpt>
      <trkpt lat="42.90175" lon="1.8107">
        <ele>639</ele>
        <time>2016-07-12T12:46:21Z</time>
      </trkpt>
      <trkpt lat="42.90182" lon="1.81065">
        <ele>639</ele>
        <time>2016-07-12T12:48:21Z</time>
      </trkpt>
      <trkpt lat="42.90187" lon="1.81061">
        <ele>638</ele>
        <time>2016-07-12T12:50:21Z</time>
      </trkpt>
      <trkpt lat="42.90189" lon="1.81059">
        <ele>638</ele>
        <time>2016-07-12T12:52:21Z</time>
      </trkpt>
      <trkpt lat="42.90191" lon="1.81057">
        <ele>638</ele>
        <time>2016-07-12T12:54:21Z</time>
      </trkpt>
      <trkpt lat="42.90192" lon="1.81054">
        <ele>638</ele>
        <time>2016-07-12T12:56:21Z</time>
      </trkpt>
      <trkpt lat="42.90193" lon="1.8105">
        <ele>638</ele>
        <time>2016-07-12T12:58:21Z</time>
      </trkpt>
      <trkpt lat="42.90194" lon="1.81047">
        <ele>638</ele>
        <time>2016-07-12T13:00:21Z</time>
      </trkpt>
      <trkpt lat="42.90195" lon="1.81043">
        <ele>638</ele>
        <time>2016-07-12T13:02:21Z</time>
      </trkpt>
      <trkpt lat="42.90195" lon="1.81038">
        <ele>638</ele>
        <time>2016-07-12T13:04:21Z</time>
      </trkpt>
      <trkpt lat="42.90196" lon="1.81032">
        <ele>638</ele>
        <time>2016-07-12T13:06:21Z</time>
      </trkpt>
      <trkpt lat="42.90197" lon="1.81027">
        <ele>638</ele>
        <time>2016-07-12T13:08:21Z</time>
      </trkpt>
      <trkpt lat="42.90199" lon="1.81022">
        <ele>638</ele>
        <time>2016-07-12T13:10:21Z</time>
      </trkpt>
      <trkpt lat="42.902" lon="1.81017">
        <ele>638</ele>
        <time>2016-07-12T13:12:21Z</time>
      </trkpt>
      <trkpt lat="42.90202" lon="1.81013">
        <ele>638</ele>
        <time>2016-07-12T13:14:21Z</time>
      </trkpt>
      <trkpt lat="42.90205" lon="1.81009">
        <ele>638</ele>
        <time>2016-07-12T13:16:21Z</time>
      </trkpt>
      <trkpt lat="42.90209" lon="1.81004">
        <ele>638</ele>
        <time>2016-07-12T13:18:21Z</time>
      </trkpt>
      <trkpt lat="42.90217" lon="1.80994">
        <ele>639</ele>
        <time>2016-07-12T13:20:21Z</time>
      </trkpt>
      <trkpt lat="42.9022" lon="1.80992">
        <ele>639</ele>
        <time>2016-07-12T13:22:21Z</time>
      </trkpt>
      <trkpt lat="42.90224" lon="1.80988">
        <ele>639</ele>
        <time>2016-07-12T13:24:21Z</time>
      </trkpt>
      <trkpt lat="42.90228" lon="1.80984">
        <ele>639</ele>
        <time>2016-07-12T13:26:21Z</time>
      </trkpt>
      <trkpt lat="42.90235" lon="1.80979">
        <ele>639</ele>
        <time>2016-07-12T13:28:21Z</time>
      </trkpt>
      <trkpt lat="42.90249" lon="1.80967">
        <ele>639</ele>
        <time>2016-07-12T13:30:21Z</time>
      </trkpt>
      <trkpt lat="42.90249" lon="1.80967">
        <ele>639</ele>
        <time>2016-07-12T13:32:21Z</time>
      </trkpt>
      <trkpt lat="42.90265" lon="1.81006">
        <ele>639</ele>
        <time>2016-07-12T13:34:21Z</time>
      </trkpt>
      <trkpt lat="42.90274" lon="1.81024">
        <ele>640</ele>
        <time>2016-07-12T13:36:21Z</time>
      </trkpt>
      <trkpt lat="42.90287" lon="1.81049">
        <ele>639</ele>
        <time>2016-07-12T13:38:21Z</time>
      </trkpt>
      <trkpt lat="42.90293" lon="1.81065">
        <ele>639</ele>
        <time>2016-07-12T13:40:21Z</time>
      </trkpt>
      <trkpt lat="42.90297" lon="1.81079">
        <ele>638</ele>
        <time>2016-07-12T13:42:21Z</time>
      </trkpt>
      <trkpt lat="42.903" lon="1.81093">
        <ele>637</ele>
        <time>2016-07-12T13:44:21Z</time>
      </trkpt>
      <trkpt lat="42.90304" lon="1.81121">
        <ele>636</ele>
        <time>2016-07-12T13:46:21Z</time>
      </trkpt>
      <trkpt lat="42.90309" lon="1.81138">
        <ele>634</ele>
        <time>2016-07-12T13:48:21Z</time>
      </trkpt>
      <trkpt lat="42.90316" lon="1.81155">
        <ele>633</ele>
        <time>2016-07-12T13:50:21Z</time>
      </trkpt>
      <trkpt lat="42.90343" lon="1.81205">
        <ele>631</ele>
        <time>2016-07-12T13:52:21Z</time>
      </trkpt>
      <trkpt lat="42.90351" lon="1.81222">
        <ele>630</ele>
        <time>2016-07-12T13:54:21Z</time>
      </trkpt>
      <trkpt lat="42.90354" lon="1.81231">
        <ele>630</ele>
        <time>2016-07-12T13:56:21Z</time>
      </trkpt>
      <trkpt lat="42.9036" lon="1.81248">
        <ele>629</ele>
        <time>2016-07-12T13:58:21Z</time>
      </trkpt>
      <trkpt lat="42.90365" lon="1.81272">
        <ele>627</ele>
        <time>2016-07-12T14:00:21Z</time>
      </trkpt>
      <trkpt lat="42.90372" lon="1.81297">
        <ele>625</ele>
        <time>2016-07-12T14:02:21Z</time>
      </trkpt>
      <trkpt lat="42.90376" lon="1.81309">
        <ele>624</ele>
        <time>2016-07-12T14:04:21Z</time>
      </trkpt>
      <trkpt lat="42.9038" lon="1.81317">
        <ele>624</ele>
        <time>2016-07-12T14:06:21Z</time>
      </trkpt>
      <trkpt lat="42.90388" lon="1.81333">
        <ele>622</ele>
        <time>2016-07-12T14:08:21Z</time>
      </trkpt>
      <trkpt lat="42.90397" lon="1.81349">
        <ele>622</ele>
        <time>2016-07-12T14:10:21Z</time>
      </trkpt>
      <trkpt lat="42.90406" lon="1.81359">
        <ele>621</ele>
        <time>2016-07-12T14:12:21Z</time>
      </trkpt>
      <trkpt lat="42.90484" lon="1.81439">
        <ele>620</ele>
        <time>2016-07-12T14:14:21Z</time>
      </trkpt>
      <trkpt lat="42.90506" lon="1.81462">
        <ele>619</ele>
        <time>2016-07-12T14:16:21Z</time>
      </trkpt>
      <trkpt lat="42.90512" lon="1.81468">
        <ele>619</ele>
        <time>2016-07-12T14:18:21Z</time>
      </trkpt>
      <trkpt lat="42.90528" lon="1.81486">
        <ele>619</ele>
        <time>2016-07-12T14:20:21Z</time>
      </trkpt>
      <trkpt lat="42.90541" lon="1.81501">
        <ele>618</ele>
        <time>2016-07-12T14:22:21Z</time>
      </trkpt>
      <trkpt lat="42.90551" lon="1.81514">
        <ele>618</ele>
        <time>2016-07-12T14:24:21Z</time>
      </trkpt>
      <trkpt lat="42.90559" lon="1.81525">
        <ele>618</ele>
        <time>2016-07-12T14:26:21Z</time>
      </trkpt>
      <trkpt lat="42.90575" lon="1.81549">
        <ele>617</ele>
        <time>2016-07-12T14:28:21Z</time>
      </trkpt>
      <trkpt lat="42.90597" lon="1.81581">
        <ele>615</ele>
        <time>2016-07-12T14:30:21Z</time>
      </trkpt>
      <trkpt lat="42.90623" lon="1.81619">
        <ele>612</ele>
        <time>2016-07-12T14:32:21Z</time>
      </trkpt>
      <trkpt lat="42.90651" lon="1.81661">
        <ele>611</ele>
        <time>2016-07-12T14:34:21Z</time>
      </trkpt>
      <trkpt lat="42.90668" lon="1.81688">
        <ele>610</ele>
        <time>2016-07-12T14:36:21Z</time>
      </trkpt>
      <trkpt lat="42.90681" lon="1.81709">
        <ele>609</ele>
        <time>2016-07-12T14:38:21Z</time>
      </trkpt>
      <trkpt lat="42.90687" lon="1.81721">
        <ele>608</ele>
        <time>2016-07-12T14:40:21Z</time>
      </trkpt>
      <trkpt lat="42.90691" lon="1.81728">
        <ele>608</ele>
        <time>2016-07-12T14:42:21Z</time>
      </trkpt>
      <trkpt lat="42.90702" lon="1.81751">
        <ele>607</ele>
        <time>2016-07-12T14:44:21Z</time>
      </trkpt>
      <trkpt lat="42.90709" lon="1.81766">
        <ele>607</ele>
        <time>2016-07-12T14:46:21Z</time>
      </trkpt>
      <trkpt lat="42.90709" lon="1.81768">
        <ele>607</ele>
        <time>2016-07-12T14:48:21Z</time>
      </trkpt>
      <trkpt lat="42.90712" lon="1.81774">
        <ele>607</ele>
        <time>2016-07-12T14:50:21Z</time>
      </trkpt>
      <trkpt lat="42.90719" lon="1.81792">
        <ele>607</ele>
        <time>2016-07-12T14:52:21Z</time>
      </trkpt>
      <trkpt lat="42.90743" lon="1.81853">
        <ele>606</ele>
        <time>2016-07-12T14:54:21Z</time>
      </trkpt>
      <trkpt lat="42.90775" lon="1.81938">
        <ele>605</ele>
        <time>2016-07-12T14:56:21Z</time>
      </trkpt>
      <trkpt lat="42.90797" lon="1.81997">
        <ele>604</ele>
        <time>2016-07-12T14:58:21Z</time>
      </trkpt>
      <trkpt lat="42.90811" lon="1.82033">
        <ele>603</ele>
        <time>2016-07-12T15:00:21Z</time>
      </trkpt>
      <trkpt lat="42.90828" lon="1.82077">
        <ele>601</ele>
        <time>2016-07-12T15:02:21Z</time>
      </trkpt>
      <trkpt lat="42.9083" lon="1.82083">
        <ele>601</ele>
        <time>2016-07-12T15:04:21Z</time>
      </trkpt>
      <trkpt lat="42.90856" lon="1.82153">
        <ele>601</ele>
        <time>2016-07-12T15:06:21Z</time>
      </trkpt>
      <trkpt lat="42.90868" lon="1.82185">
        <ele>601</ele>
        <time>2016-07-12T15:08:21Z</time>
      </trkpt>
      <trkpt lat="42.90871" lon="1.82195">
        <ele>601</ele>
        <time>2016-07-12T15:10:21Z</time>
      </trkpt>
      <trkpt lat="42.90874" lon="1.82207">
        <ele>601</ele>
        <time>2016-07-12T15:12:21Z</time>
      </trkpt>
      <trkpt lat="42.90877" lon="1.82221">
        <ele>600</ele>
        <time>2016-07-12T15:14:21Z</time>
      </trkpt>
      <trkpt lat="42.90889" lon="1.8228">
        <ele>600</ele>
        <time>2016-07-12T15:16:21Z</time>
      </trkpt>
      <trkpt lat="42.90891" lon="1.82289">
        <ele>600</ele>
        <time>2016-07-12T15:18:21Z</time>
      </trkpt>
      <trkpt lat="42.909" lon="1.82315">
        <ele>600</ele>
        <time>2016-07-12T15:20:21Z</time>
      </trkpt>
      <trkpt lat="42.90901" lon="1.82319">
        <ele>600</ele>
        <time>2016-07-12T15:22:21Z</time>
      </trkpt>
      <trkpt lat="42.90909" lon="1.82332">
        <ele>600</ele>
        <time>2016-07-12T15:24:21Z</time>
      </trkpt>
      <trkpt lat="42.90919" lon="1.82343">
        <ele>600</ele>
        <time>2016-07-12T15:26:21Z</time>
      </trkpt>
      <trkpt lat="42.90941" lon="1.82366">
        <ele>600</ele>
        <time>2016-07-12T15:28:21Z</time>
      </trkpt>
      <trkpt lat="42.90952" lon="1.82376">
        <ele>599</ele>
        <time>2016-07-12T15:30:21Z</time>
      </trkpt>
      <trkpt lat="42.90996" lon="1.8242">
        <ele>599</ele>
        <time>2016-07-12T15:32:21Z</time>
      </trkpt>
      <trkpt lat="42.91023" lon="1.82447">
        <ele>599</ele>
        <time>2016-07-12T15:34:21Z</time>
      </trkpt>
      <trkpt lat="42.9108" lon="1.82505">
        <ele>598</ele>
        <time>2016-07-12T15:36:21Z</time>
      </trkpt>
      <trkpt lat="42.91102" lon="1.82528">
        <ele>597</ele>
        <time>2016-07-12T15:38:21Z</time>
      </trkpt>
      <trkpt lat="42.91125" lon="1.82551">
        <ele>596</ele>
        <time>2016-07-12T15:40:21Z</time>
      </trkpt>
      <trkpt lat="42.91139" lon="1.82565">
        <ele>596</ele>
        <time>2016-07-12T15:42:21Z</time>
      </trkpt>
      <trkpt lat="42.91158" lon="1.82585">
        <ele>595</ele>
        <time>2016-07-12T15:44:21Z</time>
      </trkpt>
      <trkpt lat="42.91169" lon="1.82595">
        <ele>595</ele>
        <time>2016-07-12T15:46:21Z</time>
      </trkpt>
      <trkpt lat="42.91181" lon="1.82609">
        <ele>594</ele>
        <time>2016-07-12T15:48:21Z</time>
      </trkpt>
      <trkpt lat="42.91185" lon="1.82613">
        <ele>594</ele>
        <time>2016-07-12T15:50:21Z</time>
      </trkpt>
      <trkpt lat="42.91187" lon="1.82619">
        <ele>594</ele>
        <time>2016-07-12T15:52:21Z</time>
      </trkpt>
      <trkpt lat="42.91194" lon="1.8263">
        <ele>593</ele>
        <time>2016-07-12T15:54:21Z</time>
      </trkpt>
      <trkpt lat="42.91202" lon="1.8264">
        <ele>593</ele>
        <time>2016-07-12T15:56:21Z</time>
      </trkpt>
      <trkpt lat="42.91207" lon="1.82648">
        <ele>593</ele>
        <time>2016-07-12T15:58:21Z</time>
      </trkpt>
      <trkpt lat="42.91216" lon="1.8266">
        <ele>592</ele>
        <time>2016-07-12T16:00:21Z</time>
      </trkpt>
      <trkpt lat="42.91219" lon="1.82664">
        <ele>592</ele>
        <time>2016-07-12T16:02:21Z</time>
      </trkpt>
      <trkpt lat="42.91222" lon="1.82669">
        <ele>592</ele>
        <time>2016-07-12T16:04:21Z</time>
      </trkpt>
      <trkpt lat="42.91233" lon="1.82685">
        <ele>591</ele>
        <time>2016-07-12T16:06:21Z</time>
      </trkpt>
      <trkpt lat="42.91242" lon="1.82697">
        <ele>590</ele>
        <time>2016-07-12T16:08:21Z</time>
      </trkpt>
      <trkpt lat="42.91247" lon="1.82704">
        <ele>590</ele>
        <time>2016-07-12T16:10:21Z</time>
      </trkpt>
      <trkpt lat="42.91253" lon="1.82713">
        <ele>589</ele>
        <time>2016-07-12T16:12:21Z</time>
      </trkpt>
      <trkpt lat="42.91263" lon="1.82729">
        <ele>588</ele>
        <time>2016-07-12T16:14:21Z</time>
      </trkpt>
      <trkpt lat="42.9127" lon="1.82742">
        <ele>587</ele>
        <time>2016-07-12T16:16:21Z</time>
      </trkpt>
      <trkpt lat="42.91272" lon="1.82744">
        <ele>587</ele>
        <time>2016-07-12T16:18:21Z</time>
      </trkpt>
      <trkpt lat="42.91279" lon="1.8275">
        <ele>587</ele>
        <time>2016-07-12T16:20:21Z</time>
      </trkpt>
      <trkpt lat="42.91287" lon="1.82767">
        <ele>586</ele>
        <time>2016-07-12T16:22:21Z</time>
      </trkpt>
      <trkpt lat="42.91303" lon="1.82799">
        <ele>585</ele>
        <time>2016-07-12T16:24:21Z</time>
      </trkpt>
      <trkpt lat="42.91315" lon="1.82823">
        <ele>585</ele>
        <time>2016-07-12T16:26:21Z</time>
      </trkpt>
      <trkpt lat="42.91337" lon="1.82868">
        <ele>584</ele>
        <time>2016-07-12T16:28:21Z</time>
      </trkpt>
      <trkpt lat="42.91365" lon="1.82927">
        <ele>583</ele>
        <time>2016-07-12T16:30:21Z</time>
      </trkpt>
      <trkpt lat="42.9139" lon="1.82977">
        <ele>582</ele>
        <time>2016-07-12T16:32:21Z</time>
      </trkpt>
      <trkpt lat="42.91404" lon="1.83001">
        <ele>582</ele>
        <time>2016-07-12T16:34:21Z</time>
      </trkpt>
      <trkpt lat="42.91419" lon="1.83031">
        <ele>582</ele>
        <time>2016-07-12T16:36:21Z</time>
      </trkpt>
      <trkpt lat="42.91433" lon="1.83053">
        <ele>581</ele>
        <time>2016-07-12T16:38:21Z</time>
      </trkpt>
      <trkpt lat="42.91443" lon="1.83064">
        <ele>581</ele>
        <time>2016-07-12T16:40:21Z</time>
      </trkpt>
      <trkpt lat="42.91452" lon="1.83075">
        <ele>581</ele>
        <time>2016-07-12T16:42:21Z</time>
      </trkpt>
      <trkpt lat="42.91462" lon="1.83084">
        <ele>580</ele>
        <time>2016-07-12T16:44:21Z</time>
      </trkpt>
      <trkpt lat="42.91471" lon="1.83091">
        <ele>580</ele>
        <time>2016-07-12T16:46:21Z</time>
      </trkpt>
      <trkpt lat="42.91485" lon="1.83102">
        <ele>580</ele>
        <time>2016-07-12T16:48:21Z</time>
      </trkpt>
      <trkpt lat="42.91485" lon="1.83102">
        <ele>580</ele>
        <time>2016-07-12T16:50:21Z</time>
      </trkpt>
      <trkpt lat="42.91483" lon="1.83112">
        <ele>580</ele>
        <time>2016-07-12T16:52:21Z</time>
      </trkpt>
      <trkpt lat="42.91483" lon="1.83119">
        <ele>580</ele>
        <time>2016-07-12T16:54:21Z</time>
      </trkpt>
      <trkpt lat="42.91483" lon="1.83127">
        <ele>580</ele>
        <time>2016-07-12T16:56:21Z</time>
      </trkpt>
      <trkpt lat="42.91485" lon="1.83134">
        <ele>580</ele>
        <time>2016-07-12T16:58:21Z</time>
      </trkpt>
      <trkpt lat="42.9149" lon="1.83144">
        <ele>580</ele>
        <time>2016-07-12T17:00:21Z</time>
      </trkpt>
      <trkpt lat="42.91504" lon="1.83165">
        <ele>580</ele>
        <time>2016-07-12T17:02:21Z</time>
      </trkpt>
      <trkpt lat="42.91552" lon="1.83241">
        <ele>579</ele>
        <time>2016-07-12T17:04:21Z</time>
      </trkpt>
      <trkpt lat="42.91566" lon="1.8326">
        <ele>579</ele>
        <time>2016-07-12T17:06:21Z</time>
      </trkpt>
      <trkpt lat="42.91577" lon="1.83271">
        <ele>579</ele>
        <time>2016-07-12T17:08:21Z</time>
      </trkpt>
      <trkpt lat="42.91598" lon="1.83292">
        <ele>578</ele>
        <time>2016-07-12T17:10:21Z</time>
      </trkpt>
      <trkpt lat="42.91621" lon="1.83314">
        <ele>578</ele>
        <time>2016-07-12T17:12:21Z</time>
      </trkpt>
      <trkpt lat="42.91645" lon="1.83337">
        <ele>577</ele>
        <time>2016-07-12T17:14:21Z</time>
      </trkpt>
      <trkpt lat="42.91658" lon="1.8335">
        <ele>576</ele>
        <time>2016-07-12T17:16:21Z</time>
      </trkpt>
      <trkpt lat="42.9167" lon="1.83365">
        <ele>576</ele>
        <time>2016-07-12T17:18:21Z</time>
      </trkpt>
      <trkpt lat="42.91685" lon="1.83381">
        <ele>575</ele>
        <time>2016-07-12T17:20:21Z</time>
      </trkpt>
      <trkpt lat="42.91686" lon="1.83381">
        <ele>575</ele>
        <time>2016-07-12T17:22:21Z</time>
      </trkpt>
      <trkpt lat="42.91695" lon="1.8339">
        <ele>575</ele>
        <time>2016-07-12T17:24:21Z</time>
      </trkpt>
      <trkpt lat="42.91704" lon="1.83395">
        <ele>574</ele>
        <time>2016-07-12T17:26:21Z</time>
      </trkpt>
      <trkpt lat="42.91728" lon="1.83408">
        <ele>574</ele>
        <time>2016-07-12T17:28:21Z</time>
      </trkpt>
      <trkpt lat="42.91752" lon="1.83421">
        <ele>574</ele>
        <time>2016-07-12T17:30:21Z</time>
      </trkpt>
      <trkpt lat="42.91764" lon="1.83429">
        <ele>573</ele>
        <time>2016-07-12T17:32:21Z</time>
      </trkpt>
      <trkpt lat="42.91771" lon="1.83435">
        <ele>573</ele>
        <time>2016-07-12T17:34:21Z</time>
      </trkpt>
      <trkpt lat="42.91775" lon="1.83438">
        <ele>573</ele>
        <time>2016-07-12T17:36:21Z</time>
      </trkpt>
      <trkpt lat="42.91778" lon="1.83443">
        <ele>573</ele>
        <time>2016-07-12T17:38:21Z</time>
      </trkpt>
      <trkpt lat="42.9178" lon="1.8345">
        <ele>572</ele>
        <time>2016-07-12T17:40:21Z</time>
      </trkpt>
      <trkpt lat="42.9178" lon="1.8345">
        <ele>572</ele>
        <time>2016-07-12T17:42:21Z</time>
      </trkpt>
      <trkpt lat="42.91785" lon="1.83443">
        <ele>573</ele>
        <time>2016-07-12T17:44:21Z</time>
      </trkpt>
      <trkpt lat="42.91785" lon="1.83443">
        <ele>573</ele>
        <time>2016-07-12T17:46:21Z</time>
      </trkpt>
      <trkpt lat="42.91791" lon="1.83448">
        <ele>572</ele>
        <time>2016-07-12T17:48:21Z</time>
      </trkpt>
      <trkpt lat="42.918" lon="1.83455">
        <ele>572</ele>
        <time>2016-07-12T17:50:21Z</time>
      </trkpt>
      <trkpt lat="42.91814" lon="1.83464">
        <ele>572</ele>
        <time>2016-07-12T17:52:21Z</time>
      </trkpt>
      <trkpt lat="42.91833" lon="1.83481">
        <ele>571</ele>
        <time>2016-07-12T17:54:21Z</time>
      </trkpt>
      <trkpt lat="42.91859" lon="1.83502">
        <ele>569</ele>
        <time>2016-07-12T17:56:21Z</time>
      </trkpt>
      <trkpt lat="42.9188" lon="1.8352">
        <ele>568</ele>
        <time>2016-07-12T17:58:21Z</time>
      </trkpt>
      <trkpt lat="42.91901" lon="1.8354">
        <ele>567</ele>
        <time>2016-07-12T18:00:21Z</time>
      </trkpt>
      <trkpt lat="42.91914" lon="1.83555">
        <ele>566</ele>
        <time>2016-07-12T18:02:21Z</time>
      </trkpt>
      <trkpt lat="42.9193" lon="1.83574">
        <ele>565</ele>
        <time>2016-07-12T18:04:21Z</time>
      </trkpt>
      <trkpt lat="42.91939" lon="1.8359">
        <ele>565</ele>
        <time>2016-07-12T18:06:21Z</time>
      </trkpt>
      <trkpt lat="42.91949" lon="1.83601">
        <ele>564</ele>
        <time>2016-07-12T18:08:21Z</time>
      </trkpt>
      <trkpt lat="42.91956" lon="1.8361">
        <ele>564</ele>
        <time>2016-07-12T18:10:21Z</time>
      </trkpt>
      <trkpt lat="42.9196" lon="1.83613">
        <ele>564</ele>
        <time>2016-07-12T18:12:21Z</time>
      </trkpt>
      <trkpt lat="42.91974" lon="1.83626">
        <ele>564</ele>
        <time>2016-07-12T18:14:21Z</time>
      </trkpt>
      <trkpt lat="42.91997" lon="1.83648">
        <ele>563</ele>
        <time>2016-07-12T18:16:21Z</time>
      </trkpt>
      <trkpt lat="42.92028" lon="1.8368">
        <ele>563</ele>
        <time>2016-07-12T18:18:21Z</time>
      </trkpt>
      <trkpt lat="42.92052" lon="1.83706">
        <ele>562</ele>
        <time>2016-07-12T18:20:21Z</time>
      </trkpt>
      <trkpt lat="42.9207" lon="1.83726">
        <ele>562</ele>
        <time>2016-07-12T18:22:21Z</time>
      </trkpt>
      <trkpt lat="42.92081" lon="1.83738">
        <ele>562</ele>
        <time>2016-07-12T18:24:21Z</time>
      </trkpt>
      <trkpt lat="42.92098" lon="1.83751">
        <ele>562</ele>
        <time>2016-07-12T18:26:21Z</time>
      </trkpt>
      <trkpt lat="42.92115" lon="1.83762">
        <ele>561</ele>
        <time>2016-07-12T18:28:21Z</time>
      </trkpt>
      <trkpt lat="42.92143" lon="1.8378">
        <ele>561</ele>
        <time>2016-07-12T18:30:21Z</time>
      </trkpt>
      <trkpt lat="42.92163" lon="1.83793">
        <ele>561</ele>
        <time>2016-07-12T18:32:21Z</time>
      </trkpt>
      <trkpt lat="42.92182" lon="1.83807">
        <ele>560</ele>
        <time>2016-07-12T18:34:21Z</time>
      </trkpt>
      <trkpt lat="42.92204" lon="1.83817">
        <ele>559</ele>
        <time>2016-07-12T18:36:21Z</time>
      </trkpt>
      <trkpt lat="42.92236" lon="1.8383">
        <ele>558</ele>
        <time>2016-07-12T18:38:21Z</time>
      </trkpt>
      <trkpt lat="42.92252" lon="1.83837">
        <ele>557</ele>
        <time>2016-07-12T18:40:21Z</time>
      </trkpt>
      <trkpt lat="42.92254" lon="1.83838">
        <ele>557</ele>
        <time>2016-07-12T18:42:21Z</time>
      </trkpt>
      <trkpt lat="42.92261" lon="1.83841">
        <ele>557</ele>
        <time>2016-07-12T18:44:21Z</time>
      </trkpt>
      <trkpt lat="42.92276" lon="1.8385">
        <ele>556</ele>
        <time>2016-07-12T18:46:21Z</time>
      </trkpt>
      <trkpt lat="42.92281" lon="1.83852">
        <ele>556</ele>
        <time>2016-07-12T18:48:21Z</time>
      </trkpt>
      <trkpt lat="42.92307" lon="1.83864">
        <ele>555</ele>
        <time>2016-07-12T18:50:21Z</time>
      </trkpt>
      <trkpt lat="42.9232" lon="1.8387">
        <ele>554</ele>
        <time>2016-07-12T18:52:21Z</time>
      </trkpt>
      <trkpt lat="42.92335" lon="1.83879">
        <ele>554</ele>
        <time>2016-07-12T18:54:21Z</time>
      </trkpt>
      <trkpt lat="42.92347" lon="1.83886">
        <ele>553</ele>
        <time>2016-07-12T18:56:21Z</time>
      </trkpt>
      <trkpt lat="42.92374" lon="1.83908">
        <ele>551</ele>
        <time>2016-07-12T18:58:21Z</time>
      </trkpt>
      <trkpt lat="42.92403" lon="1.83928">
        <ele>549</ele>
        <time>2016-07-12T19:00:21Z</time>
      </trkpt>
      <trkpt lat="42.9241" lon="1.83935">
        <ele>549</ele>
        <time>2016-07-12T19:02:21Z</time>
      </trkpt>
      <trkpt lat="42.92427" lon="1.83956">
        <ele>548</ele>
        <time>2016-07-12T19:04:21Z</time>
      </trkpt>
      <trkpt lat="42.92445" lon="1.83977">
        <ele>547</ele>
        <time>2016-07-12T19:06:21Z</time>
      </trkpt>
      <trkpt lat="42.92452" lon="1.83985">
        <ele>547</ele>
        <time>2016-07-12T19:08:21Z</time>
      </trkpt>
      <trkpt lat="42.92461" lon="1.8399">
        <ele>547</ele>
        <time>2016-07-12T19:10:21Z</time>
      </trkpt>
      <trkpt lat="42.9247" lon="1.83994">
        <ele>547</ele>
        <time>2016-07-12T19:12:21Z</time>
      </trkpt>
      <trkpt lat="42.92481" lon="1.83997">
        <ele>546</ele>
        <time>2016-07-12T19:14:21Z</time>
      </trkpt>
      <trkpt lat="42.92491" lon="1.84">
        <ele>546</ele>
        <time>2016-07-12T19:16:21Z</time>
      </trkpt>
      <trkpt lat="42.92532" lon="1.84013">
        <ele>546</ele>
        <time>2016-07-12T19:18:21Z</time>
      </trkpt>
      <trkpt lat="42.92532" lon="1.84013">
        <ele>546</ele>
        <time>2016-07-12T19:20:21Z</time>
      </trkpt>
      <trkpt lat="42.92543" lon="1.83895">
        <ele>548</ele>
        <time>2016-07-12T19:22:21Z</time>
      </trkpt>
      <trkpt lat="42.92544" lon="1.83855">
        <ele>549</ele>
        <time>2016-07-12T19:24:21Z</time>
      </trkpt>
      <trkpt lat="42.92544" lon="1.83855">
        <ele>549</ele>
        <time>2016-07-12T19:26:21Z</time>
      </trkpt>
      <trkpt lat="42.92535" lon="1.83844">
        <ele>549</ele>
        <time>2016-07-12T19:28:21Z</time>
      </trkpt>
      <trkpt lat="42.92526" lon="1.83831">
        <ele>550</ele>
        <time>2016-07-12T19:30:21Z</time>
      </trkpt>
      <trkpt lat="42.92523" lon="1.83824">
        <ele>550</ele>
        <time>2016-07-12T19:32:21Z</time>
      </trkpt>
      <trkpt lat="42.92523" lon="1.83824">
        <ele>550</ele>
        <time>2016-07-12T19:34:21Z</time>
      </trkpt>
      <trkpt lat="42.92527" lon="1.83822">
        <ele>550</ele>
        <time>2016-07-12T19:36:21Z</time>
      </trkpt>
      <trkpt lat="42.92529" lon="1.83821">
        <ele>550</ele>
        <time>2016-07-12T19:38:21Z</time>
      </trkpt>
      <trkpt lat="42.92531" lon="1.83821">
        <ele>550</ele>
        <time>2016-07-12T19:40:21Z</time>
      </trkpt>
      <trkpt lat="42.92534" lon="1.8382">
        <ele>550</ele>
        <time>2016-07-12T19:42:21Z</time>
      </trkpt>
      <trkpt lat="42.92537" lon="1.8382">
        <ele>550</ele>
        <time>2016-07-12T19:44:21Z</time>
      </trkpt>
      <trkpt lat="42.92541" lon="1.83821">
        <ele>550</ele>
        <time>2016-07-12T19:46:21Z</time>
      </trkpt>
      <trkpt lat="42.92563" lon="1.83827">
        <ele>549</ele>
        <time>2016-07-12T19:48:21Z</time>
      </trkpt>
      <trkpt lat="42.92594" lon="1.83832">
        <ele>549</ele>
        <time>2016-07-12T19:50:21Z</time>
      </trkpt>
      <trkpt lat="42.92655" lon="1.83852">
        <ele>546</ele>
        <time>2016-07-12T19:52:21Z</time>
      </trkpt>
      <trkpt lat="42.92662" lon="1.83854">
        <ele>546</ele>
        <time>2016-07-12T19:54:21Z</time>
      </trkpt>
      <trkpt lat="42.92731" lon="1.83876">
        <ele>543</ele>
        <time>2016-07-12T19:56:21Z</time>
      </trkpt>
      <trkpt lat="42.92754" lon="1.83883">
        <ele>542</ele>
        <time>2016-07-12T19:58:21Z</time>
      </trkpt>
      <trkpt lat="42.92762" lon="1.83886">
        <ele>542</ele>
        <time>2016-07-12T20:00:21Z</time>
      </trkpt>
      <trkpt lat="42.92794" lon="1.83897">
        <ele>542</ele>
        <time>2016-07-12T20:02:21Z</time>
      </trkpt>
      <trkpt lat="42.9282" lon="1.83906">
        <ele>541</ele>
        <time>2016-07-12T20:04:21Z</time>
      </trkpt>
      <trkpt lat="42.92841" lon="1.83911">
        <ele>541</ele>
        <time>2016-07-12T20:06:21Z</time>
      </trkpt>
      <trkpt lat="42.92852" lon="1.83914">
        <ele>541</ele>
        <time>2016-07-12T20:08:21Z</time>
      </trkpt>
      <trkpt lat="42.92879" lon="1.83923">
        <ele>540</ele>
        <time>2016-07-12T20:10:21Z</time>
      </trkpt>
      <trkpt lat="42.92908" lon="1.83932">
        <ele>540</ele>
        <time>2016-07-12T20:12:21Z</time>
      </trkpt>
      <trkpt lat="42.92946" lon="1.83944">
        <ele>540</ele>
        <time>2016-07-12T20:14:21Z</time>
      </trkpt>
      <trkpt lat="42.93002" lon="1.83961">
        <ele>540</ele>
        <time>2016-07-12T20:16:21Z</time>
      </trkpt>
      <trkpt lat="42.93016" lon="1.83966">
        <ele>540</ele>
        <time>2016-07-12T20:18:21Z</time>
      </trkpt>
      <trkpt lat="42.93034" lon="1.8397">
        <ele>540</ele>
        <time>2016-07-12T20:20:21Z</time>
      </trkpt>
      <trkpt lat="42.93049" lon="1.8397">
        <ele>540</ele>
        <time>2016-07-12T20:22:21Z</time>
      </trkpt>
      <trkpt lat="42.93061" lon="1.83967">
        <ele>540</ele>
        <time>2016-07-12T20:24:21Z</time>
      </trkpt>
      <trkpt lat="42.93085" lon="1.83962">
        <ele>540</ele>
        <time>2016-07-12T20:26:21Z</time>
      </trkpt>
      <trkpt lat="42.9312" lon="1.8395">
        <ele>540</ele>
        <time>2016-07-12T20:28:21Z</time>
      </trkpt>
      <trkpt lat="42.9319" lon="1.83927">
        <ele>540</ele>
        <time>2016-07-12T20:30:21Z</time>
      </trkpt>
      <trkpt lat="42.93247" lon="1.83908">
        <ele>540</ele>
        <time>2016-07-12T20:32:21Z</time>
      </trkpt>
      <trkpt lat="42.9328" lon="1.83896">
        <ele>540</ele>
        <time>2016-07-12T20:34:21Z</time>
      </trkpt>
      <trkpt lat="42.93303" lon="1.83888">
        <ele>540</ele>
        <time>2016-07-12T20:36:21Z</time>
      </trkpt>
      <trkpt lat="42.93321" lon="1.83883">
        <ele>540</ele>
        <time>2016-07-12T20:38:21Z</time>
      </trkpt>
      <trkpt lat="42.93321" lon="1.83883">
        <ele>540</ele>
        <time>2016-07-12T20:40:21Z</time>
      </trkpt>
      <trkpt lat="42.93345" lon="1.8391">
        <ele>540</ele>
        <time>2016-07-12T20:42:21Z</time>
      </trkpt>
      <trkpt lat="42.93345" lon="1.8391">
        <ele>540</ele>
        <time>2016-07-12T20:44:21Z</time>
      </trkpt>
      <trkpt lat="42.93355" lon="1.83878">
        <ele>540</ele>
        <time>2016-07-12T20:46:21Z</time>
      </trkpt>
      <trkpt lat="42.93359" lon="1.8387">
        <ele>540</ele>
        <time>2016-07-12T20:48:21Z</time>
      </trkpt>
      <trkpt lat="42.93359" lon="1.8387">
        <ele>540</ele>
        <time>2016-07-12T20:50:21Z</time>
      </trkpt>
      <trkpt lat="42.93363" lon="1.83861">
        <ele>540</ele>
        <time>2016-07-12T20:52:21Z</time>
      </trkpt>
      <trkpt lat="42.93412" lon="1.83727">
        <ele>540</ele>
        <time>2016-07-12T20:54:21Z</time>
      </trkpt>
      <trkpt lat="42.9342" lon="1.83704">
        <ele>540</ele>
        <time>2016-07-12T20:56:21Z</time>
      </trkpt>
      <trkpt lat="42.93435" lon="1.83673">
        <ele>541</ele>
        <time>2016-07-12T20:58:21Z</time>
      </trkpt>
      <trkpt lat="42.93465" lon="1.83615">
        <ele>540</ele>
        <time>2016-07-12T21:00:21Z</time>
      </trkpt>
      <trkpt lat="42.93509" lon="1.8353">
        <ele>541</ele>
        <time>2016-07-12T21:02:21Z</time>
      </trkpt>
      <trkpt lat="42.93521" lon="1.83506">
        <ele>543</ele>
        <time>2016-07-12T21:04:21Z</time>
      </trkpt>
      <trkpt lat="42.93526" lon="1.83497">
        <ele>543</ele>
        <time>2016-07-12T21:06:21Z</time>
      </trkpt>
      <trkpt lat="42.9353" lon="1.83488">
        <ele>544</ele>
        <time>2016-07-12T21:08:21Z</time>
      </trkpt>
      <trkpt lat="42.93546" lon="1.83447">
        <ele>545</ele>
        <time>2016-07-12T21:10:21Z</time>
      </trkpt>
      <trkpt lat="42.93555" lon="1.83422">
        <ele>545</ele>
        <time>2016-07-12T21:12:21Z</time>
      </trkpt>
      <trkpt lat="42.9357" lon="1.83383">
        <ele>545</ele>
        <time>2016-07-12T21:14:21Z</time>
      </trkpt>
      <trkpt lat="42.93577" lon="1.83368">
        <ele>545</ele>
        <time>2016-07-12T21:16:21Z</time>
      </trkpt>
      <trkpt lat="42.93584" lon="1.83352">
        <ele>545</ele>
        <time>2016-07-12T21:18:21Z</time>
      </trkpt>
      <trkpt lat="42.93597" lon="1.83325">
        <ele>546</ele>
        <time>2016-07-12T21:20:21Z</time>
      </trkpt>
      <trkpt lat="42.93627" lon="1.83262">
        <ele>549</ele>
        <time>2016-07-12T21:22:21Z</time>
      </trkpt>
      <trkpt lat="42.93639" lon="1.83238">
        <ele>550</ele>
        <time>2016-07-12T21:24:21Z</time>
      </trkpt>
      <trkpt lat="42.9366" lon="1.83193">
        <ele>551</ele>
        <time>2016-07-12T21:26:21Z</time>
      </trkpt>
      <trkpt lat="42.93672" lon="1.83165">
        <ele>552</ele>
        <time>2016-07-12T21:28:21Z</time>
      </trkpt>
      <trkpt lat="42.93678" lon="1.83151">
        <ele>554</ele>
        <time>2016-07-12T21:30:21Z</time>
      </trkpt>
      <trkpt lat="42.93688" lon="1.8313">
        <ele>555</ele>
        <time>2016-07-12T21:32:21Z</time>
      </trkpt>
      <trkpt lat="42.93698" lon="1.83109">
        <ele>557</ele>
        <time>2016-07-12T21:34:21Z</time>
      </trkpt>
      <trkpt lat="42.93708" lon="1.83091">
        <ele>558</ele>
        <time>2016-07-12T21:36:21Z</time>
      </trkpt>
      <trkpt lat="42.93711" lon="1.83085">
        <ele>559</ele>
        <time>2016-07-12T21:38:21Z</time>
      </trkpt>
      <trkpt lat="42.93719" lon="1.83072">
        <ele>560</ele>
        <time>2016-07-12T21:40:21Z</time>
      </trkpt>
      <trkpt lat="42.93732" lon="1.83047">
        <ele>562</ele>
        <time>2016-07-12T21:42:21Z</time>
      </trkpt>
      <trkpt lat="42.93735" lon="1.8304">
        <ele>562</ele>
        <time>2016-07-12T21:44:21Z</time>
      </trkpt>
      <trkpt lat="42.93739" lon="1.83029">
        <ele>562</ele>
        <time>2016-07-12T21:46:21Z</time>
      </trkpt>
      <trkpt lat="42.93741" lon="1.83016">
        <ele>562</ele>
        <time>2016-07-12T21:48:21Z</time>
      </trkpt>
      <trkpt lat="42.93742" lon="1.8301">
        <ele>562</ele>
        <time>2016-07-12T21:50:21Z</time>
      </trkpt>
      <trkpt lat="42.93743" lon="1.82997">
        <ele>562</ele>
        <time>2016-07-12T21:52:21Z</time>
      </trkpt>
      <trkpt lat="42.93747" lon="1.82966">
        <ele>563</ele>
        <time>2016-07-12T21:54:21Z</time>
      </trkpt>
      <trkpt lat="42.93752" lon="1.82931">
        <ele>564</ele>
        <time>2016-07-12T21:56:21Z</time>
      </trkpt>
      <trkpt lat="42.93757" lon="1.82907">
        <ele>565</ele>
        <time>2016-07-12T21:58:21Z</time>
      </trkpt>
      <trkpt lat="42.93764" lon="1.82858">
        <ele>565</ele>
        <time>2016-07-12T22:00:21Z</time>
      </trkpt>
      <trkpt lat="42.93769" lon="1.82836">
        <ele>566</ele>
        <time>2016-07-12T22:02:21Z</time>
      </trkpt>
      <trkpt lat="42.93774" lon="1.82799">
        <ele>566</ele>
        <time>2016-07-12T22:04:21Z</time>
      </trkpt>
      <trkpt lat="42.93784" lon="1.82752">
        <ele>567</ele>
        <time>2016-07-12T22:06:21Z</time>
      </trkpt>
      <trkpt lat="42.93792" lon="1.82722">
        <ele>568</ele>
        <time>2016-07-12T22:08:21Z</time>
      </trkpt>
      <trkpt lat="42.93799" lon="1.82702">
        <ele>568</ele>
        <time>2016-07-12T22:10:21Z</time>
      </trkpt>
      <trkpt lat="42.93813" lon="1.82669">
        <ele>568</ele>
        <time>2016-07-12T22:12:21Z</time>
      </trkpt>
      <trkpt lat="42.93843" lon="1.82607">
        <ele>570</ele>
        <time>2016-07-12T22:14:21Z</time>
      </trkpt>
      <trkpt lat="42.9385" lon="1.82594">
        <ele>571</ele>
        <time>2016-07-12T22:16:21Z</time>
      </trkpt>
      <trkpt lat="42.93854" lon="1.82582">
        <ele>572</ele>
        <time>2016-07-12T22:18:21Z</time>
      </trkpt>
      <trkpt lat="42.93857" lon="1.82572">
        <ele>572</ele>
        <time>2016-07-12T22:20:21Z</time>
      </trkpt>
      <trkpt lat="42.93859" lon="1.82561">
        <ele>572</ele>
        <time>2016-07-12T22:22:21Z</time>
      </trkpt>
      <trkpt lat="42.93861" lon="1.82547">
        <ele>572</ele>
        <time>2016-07-12T22:24:21Z</time>
      </trkpt>
      <trkpt lat="42.93862" lon="1.82531">
        <ele>572</ele>
        <time>2016-07-12T22:26:21Z</time>
      </trkpt>
      <trkpt lat="42.93864" lon="1.82518">
        <ele>572</ele>
        <time>2016-07-12T22:28:21Z</time>
      </trkpt>
      <trkpt lat="42.93866" lon="1.82504">
        <ele>572</ele>
        <time>2016-07-12T22:30:21Z</time>
      </trkpt>
      <trkpt lat="42.9387" lon="1.82486">
        <ele>572</ele>
        <time>2016-07-12T22:32:21Z</time>
      </trkpt>
      <trkpt lat="42.93876" lon="1.82455">
        <ele>572</ele>
        <time>2016-07-12T22:34:21Z</time>
      </trkpt>
      <trkpt lat="42.93881" lon="1.82417">
        <ele>571</ele>
        <time>2016-07-12T22:36:21Z</time>
      </trkpt>
      <trkpt lat="42.93886" lon="1.82392">
        <ele>572</ele>
        <time>2016-07-12T22:38:21Z</time>
      </trkpt>
      <trkpt lat="42.93905" lon="1.8232">
        <ele>572</ele>
        <time>2016-07-12T22:40:21Z</time>
      </trkpt>
      <trkpt lat="42.93921" lon="1.82262">
        <ele>574</ele>
        <time>2016-07-12T22:42:21Z</time>
      </trkpt>
      <trkpt lat="42.93924" lon="1.82249">
        <ele>574</ele>
        <time>2016-07-12T22:44:21Z</time>
      </trkpt>
      <trkpt lat="42.93926" lon="1.82238">
        <ele>575</ele>
        <time>2016-07-12T22:46:21Z</time>
      </trkpt>
      <trkpt lat="42.9393" lon="1.8222">
        <ele>576</ele>
        <time>2016-07-12T22:48:21Z</time>
      </trkpt>
      <trkpt lat="42.93932" lon="1.82203">
        <ele>576</ele>
        <time>2016-07-12T22:50:21Z</time>
      </trkpt>
      <trkpt lat="42.93932" lon="1.82186">
        <ele>576</ele>
        <time>2016-07-12T22:52:21Z</time>
      </trkpt>
      <trkpt lat="42.93929" lon="1.82165">
        <ele>575</ele>
        <time>2016-07-12T22:54:21Z</time>
      </trkpt>
      <trkpt lat="42.93926" lon="1.82142">
        <ele>575</ele>
        <time>2016-07-12T22:56:21Z</time>
      </trkpt>
      <trkpt lat="42.93925" lon="1.82128">
        <ele>575</ele>
        <time>2016-07-12T22:58:21Z</time>
      </trkpt>
      <trkpt lat="42.93926" lon="1.8211">
        <ele>575</ele>
        <time>2016-07-12T23:00:21Z</time>
      </trkpt>
      <trkpt lat="42.9393" lon="1.82081">
        <ele>576</ele>
        <time>2016-07-12T23:02:21Z</time>
      </trkpt>
      <trkpt lat="42.93938" lon="1.82034">
        <ele>577</ele>
        <time>2016-07-12T23:04:21Z</time>
      </trkpt>
      <trkpt lat="42.93953" lon="1.8195">
        <ele>579</ele>
        <time>2016-07-12T23:06:21Z</time>
      </trkpt>
      <trkpt lat="42.93967" lon="1.81868">
        <ele>580</ele>
        <time>2016-07-12T23:08:21Z</time>
      </trkpt>
      <trkpt lat="42.93978" lon="1.81804">
        <ele>580</ele>
        <time>2016-07-12T23:10:21Z</time>
      </trkpt>
      <trkpt lat="42.93989" lon="1.81759">
        <ele>580</ele>
        <time>2016-07-12T23:12:21Z</time>
      </trkpt>
      <trkpt lat="42.94003" lon="1.81703">
        <ele>580</ele>
        <time>2016-07-12T23:14:21Z</time>
      </trkpt>
      <trkpt lat="42.94006" lon="1.81691">
        <ele>581</ele>
        <time>2016-07-12T23:16:21Z</time>
      </trkpt>
      <trkpt lat="42.94024" lon="1.81614">
        <ele>581</ele>
        <time>2016-07-12T23:18:21Z</time>
      </trkpt>
      <trkpt lat="42.94037" lon="1.81564">
        <ele>582</ele>
        <time>2016-07-12T23:20:21Z</time>
      </trkpt>
      <trkpt lat="42.94045" lon="1.81531">
        <ele>582</ele>
        <time>2016-07-12T23:22:21Z</time>
      </trkpt>
      <trkpt lat="42.94053" lon="1.81498">
        <ele>582</ele>
        <time>2016-07-12T23:24:21Z</time>
      </trkpt>
      <trkpt lat="42.94073" lon="1.81431">
        <ele>581</ele>
        <time>2016-07-12T23:26:21Z</time>
      </trkpt>
      <trkpt lat="42.94095" lon="1.81363">
        <ele>582</ele>
        <time>2016-07-12T23:28:21Z</time>
      </trkpt>
      <trkpt lat="42.94113" lon="1.81307">
        <ele>583</ele>
        <time>2016-07-12T23:30:21Z</time>
      </trkpt>
      <trkpt lat="42.94126" lon="1.81269">
        <ele>583</ele>
        <time>2016-07-12T23:32:21Z</time>
      </trkpt>
      <trkpt lat="42.94128" lon="1.81262">
        <ele>583</ele>
        <time>2016-07-12T23:34:21Z</time>
      </trkpt>
      <trkpt lat="42.94136" lon="1.81233">
        <ele>583</ele>
        <time>2016-07-12T23:36:21Z</time>
      </trkpt>
      <trkpt lat="42.94144" lon="1.81208">
        <ele>583</ele>
        <time>2016-07-12T23:38:21Z</time>
      </trkpt>
      <trkpt lat="42.94146" lon="1.81198">
        <ele>583</ele>
        <time>2016-07-12T23:40:21Z</time>
      </trkpt>
      <trkpt lat="42.94149" lon="1.81183">
        <ele>583</ele>
        <time>2016-07-12T23:42:21Z</time>
      </trkpt>
      <trkpt lat="42.94152" lon="1.81163">
        <ele>582</ele>
        <time>2016-07-12T23:44:21Z</time>
      </trkpt>
      <trkpt lat="42.94157" lon="1.81128">
        <ele>582</ele>
        <time>2016-07-12T23:46:21Z</time>
      </trkpt>
      <trkpt lat="42.94162" lon="1.81088">
        <ele>581</ele>
        <time>2016-07-12T23:48:21Z</time>
      </trkpt>
      <trkpt lat="42.94168" lon="1.81042">
        <ele>580</ele>
        <time>2016-07-12T23:50:21Z</time>
      </trkpt>
      <trkpt lat="42.94176" lon="1.80993">
        <ele>579</ele>
        <time>2016-07-12T23:52:21Z</time>
      </trkpt>
      <trkpt lat="42.94179" lon="1.80968">
        <ele>579</ele>
        <time>2016-07-12T23:54:21Z</time>
      </trkpt>
      <trkpt lat="42.94183" lon="1.80945">
        <ele>578</ele>
        <time>2016-07-12T23:56:21Z</time>
      </trkpt>
      <trkpt lat="42.94189" lon="1.80913">
        <ele>578</ele>
        <time>2016-07-12T23:58:21Z</time>
      </trkpt>
      <trkpt lat="42.94197" lon="1.80872">
        <ele>577</ele>
        <time>2016-07-13T00:00:21Z</time>
      </trkpt>
      <trkpt lat="42.94213" lon="1.80801">
        <ele>576</ele>
        <time>2016-07-13T00:02:21Z</time>
      </trkpt>
      <trkpt lat="42.94222" lon="1.80753">
        <ele>574</ele>
        <time>2016-07-13T00:04:21Z</time>
      </trkpt>
      <trkpt lat="42.94228" lon="1.80724">
        <ele>573</ele>
        <time>2016-07-13T00:06:21Z</time>
      </trkpt>
      <trkpt lat="42.94234" lon="1.80693">
        <ele>571</ele>
        <time>2016-07-13T00:08:21Z</time>
      </trkpt>
      <trkpt lat="42.94236" lon="1.80683">
        <ele>571</ele>
        <time>2016-07-13T00:10:21Z</time>
      </trkpt>
      <trkpt lat="42.94237" lon="1.8067">
        <ele>570</ele>
        <time>2016-07-13T00:12:21Z</time>
      </trkpt>
      <trkpt lat="42.94238" lon="1.80655">
        <ele>569</ele>
        <time>2016-07-13T00:14:21Z</time>
      </trkpt>
      <trkpt lat="42.94238" lon="1.80628">
        <ele>567</ele>
        <time>2016-07-13T00:16:21Z</time>
      </trkpt>
      <trkpt lat="42.94237" lon="1.80602">
        <ele>566</ele>
        <time>2016-07-13T00:18:21Z</time>
      </trkpt>
      <trkpt lat="42.94236" lon="1.80572">
        <ele>564</ele>
        <time>2016-07-13T00:20:21Z</time>
      </trkpt>
      <trkpt lat="42.94237" lon="1.80556">
        <ele>563</ele>
        <time>2016-07-13T00:22:21Z</time>
      </trkpt>
      <trkpt lat="42.94239" lon="1.80521">
        <ele>562</ele>
        <time>2016-07-13T00:24:21Z</time>
      </trkpt>
      <trkpt lat="42.94243" lon="1.80475">
        <ele>561</ele>
        <time>2016-07-13T00:26:21Z</time>
      </trkpt>
      <trkpt lat="42.94246" lon="1.80445">
        <ele>561</ele>
        <time>2016-07-13T00:28:21Z</time>
      </trkpt>
      <trkpt lat="42.94248" lon="1.80431">
        <ele>560</ele>
        <time>2016-07-13T00:30:21Z</time>
      </trkpt>
      <trkpt lat="42.94253" lon="1.80408">
        <ele>560</ele>
        <time>2016-07-13T00:32:21Z</time>
      </trkpt>
      <trkpt lat="42.9426" lon="1.80373">
        <ele>560</ele>
        <time>2016-07-13T00:34:21Z</time>
      </trkpt>
      <trkpt lat="42.94267" lon="1.80342">
        <ele>560</ele>
        <time>2016-07-13T00:36:21Z</time>
      </trkpt>
      <trkpt lat="42.94273" lon="1.80325">
        <ele>560</ele>
        <time>2016-07-13T00:38:21Z</time>
      </trkpt>
      <trkpt lat="42.94282" lon="1.80299">
        <ele>560</ele>
        <time>2016-07-13T00:40:21Z</time>
      </trkpt>
      <trkpt lat="42.94291" lon="1.80269">
        <ele>560</ele>
        <time>2016-07-13T00:42:21Z</time>
      </trkpt>
      <trkpt lat="42.94296" lon="1.80252">
        <ele>560</ele>
        <time>2016-07-13T00:44:21Z</time>
      </trkpt>
      <trkpt lat="42.943" lon="1.80233">
        <ele>559</ele>
        <time>2016-07-13T00:46:21Z</time>
      </trkpt>
      <trkpt lat="42.94305" lon="1.80205">
        <ele>559</ele>
        <time>2016-07-13T00:48:21Z</time>
      </trkpt>
      <trkpt lat="42.94307" lon="1.80192">
        <ele>559</ele>
        <time>2016-07-13T00:50:21Z</time>
      </trkpt>
      <trkpt lat="42.94309" lon="1.80175">
        <ele>558</ele>
        <time>2016-07-13T00:52:21Z</time>
      </trkpt>
      <trkpt lat="42.9431" lon="1.80163">
        <ele>558</ele>
        <time>2016-07-13T00:54:21Z</time>
      </trkpt>
      <trkpt lat="42.9431" lon="1.80153">
        <ele>558</ele>
        <time>2016-07-13T00:56:21Z</time>
      </trkpt>
      <trkpt lat="42.9431" lon="1.80142">
        <ele>558</ele>
        <time>2016-07-13T00:58:21Z</time>
      </trkpt>
      <trkpt lat="42.9431" lon="1.80126">
        <ele>558</ele>
        <time>2016-07-13T01:00:21Z</time>
      </trkpt>
      <trkpt lat="42.9431" lon="1.80103">
        <ele>558</ele>
        <time>2016-07-13T01:02:21Z</time>
      </trkpt>
      <trkpt lat="42.94311" lon="1.80085">
        <ele>558</ele>
        <time>2016-07-13T01:04:21Z</time>
      </trkpt>
      <trkpt lat="42.94315" lon="1.80059">
        <ele>557</ele>
        <time>2016-07-13T01:06:21Z</time>
      </trkpt>
      <trkpt lat="42.94321" lon="1.80008">
        <ele>556</ele>
        <time>2016-07-13T01:08:21Z</time>
      </trkpt>
      <trkpt lat="42.94326" lon="1.79969">
        <ele>555</ele>
        <time>2016-07-13T01:10:21Z</time>
      </trkpt>
      <trkpt lat="42.94332" lon="1.79927">
        <ele>553</ele>
        <time>2016-07-13T01:12:21Z</time>
      </trkpt>
      <trkpt lat="42.94336" lon="1.79905">
        <ele>552</ele>
        <time>2016-07-13T01:14:21Z</time>
      </trkpt>
      <trkpt lat="42.94342" lon="1.79886">
        <ele>551</ele>
        <time>2016-07-13T01:16:21Z</time>
      </trkpt>
      <trkpt lat="42.94349" lon="1.79865">
        <ele>551</ele>
        <time>2016-07-13T01:18:21Z</time>
      </trkpt>
      <trkpt lat="42.94353" lon="1.7985">
        <ele>550</ele>
        <time>2016-07-13T01:20:21Z</time>
      </trkpt>
      <trkpt lat="42.94356" lon="1.79835">
        <ele>550</ele>
        <time>2016-07-13T01:22:21Z</time>
      </trkpt>
      <trkpt lat="42.9436" lon="1.79812">
        <ele>549</ele>
        <time>2016-07-13T01:24:21Z</time>
      </trkpt>
      <trkpt lat="42.94365" lon="1.79774">
        <ele>547</ele>
        <time>2016-07-13T01:26:21Z</time>
      </trkpt>
      <trkpt lat="42.94369" lon="1.79739">
        <ele>546</ele>
        <time>2016-07-13T01:28:21Z</time>
      </trkpt>
      <trkpt lat="42.9437" lon="1.79725">
        <ele>545</ele>
        <time>2016-07-13T01:30:21Z</time>
      </trkpt>
      <trkpt lat="42.9437" lon="1.79709">
        <ele>544</ele>
        <time>2016-07-13T01:32:21Z</time>
      </trkpt>
      <trkpt lat="42.9437" lon="1.79698">
        <ele>544</ele>
        <time>2016-07-13T01:34:21Z</time>
      </trkpt>
      <trkpt lat="42.9437" lon="1.7969">
        <ele>544</ele>
        <time>2016-07-13T01:36:21Z</time>
      </trkpt>
      <trkpt lat="42.94369" lon="1.7967">
        <ele>543</ele>
        <time>2016-07-13T01:38:21Z</time>
      </trkpt>
      <trkpt lat="42.94368" lon="1.79655">
        <ele>542</ele>
        <time>2016-07-13T01:40:21Z</time>
      </trkpt>
      <trkpt lat="42.94366" lon="1.79643">
        <ele>541</ele>
        <time>2016-07-13T01:42:21Z</time>
      </trkpt>
      <trkpt lat="42.94364" lon="1.79629">
        <ele>540</ele>
        <time>2016-07-13T01:44:21Z</time>
      </trkpt>
      <trkpt lat="42.94362" lon="1.79613">
        <ele>540</ele>
        <time>2016-07-13T01:46:21Z</time>
      </trkpt>
      <trkpt lat="42.94361" lon="1.79602">
        <ele>539</ele>
        <time>2016-07-13T01:48:21Z</time>
      </trkpt>
      <trkpt lat="42.94361" lon="1.79596">
        <ele>539</ele>
        <time>2016-07-13T01:50:21Z</time>
      </trkpt>
      <trkpt lat="42.94362" lon="1.79586">
        <ele>538</ele>
        <time>2016-07-13T01:52:21Z</time>
      </trkpt>
      <trkpt lat="42.94363" lon="1.79576">
        <ele>537</ele>
        <time>2016-07-13T01:54:21Z</time>
      </trkpt>
      <trkpt lat="42.94366" lon="1.79564">
        <ele>535</ele>
        <time>2016-07-13T01:56:21Z</time>
      </trkpt>
      <trkpt lat="42.94367" lon="1.79558">
        <ele>535</ele>
        <time>2016-07-13T01:58:21Z</time>
      </trkpt>
      <trkpt lat="42.9437" lon="1.79552">
        <ele>534</ele>
        <time>2016-07-13T02:00:21Z</time>
      </trkpt>
      <trkpt lat="42.94376" lon="1.79543">
        <ele>532</ele>
        <time>2016-07-13T02:02:21Z</time>
      </trkpt>
      <trkpt lat="42.94383" lon="1.79535">
        <ele>531</ele>
        <time>2016-07-13T02:04:21Z</time>
      </trkpt>
      <trkpt lat="42.94389" lon="1.79527">
        <ele>529</ele>
        <time>2016-07-13T02:06:21Z</time>
      </trkpt>
      <trkpt lat="42.94398" lon="1.7952">
        <ele>528</ele>
        <time>2016-07-13T02:08:21Z</time>
      </trkpt>
      <trkpt lat="42.9441" lon="1.79512">
        <ele>526</ele>
        <time>2016-07-13T02:10:21Z</time>
      </trkpt>
      <trkpt lat="42.94421" lon="1.79502">
        <ele>525</ele>
        <time>2016-07-13T02:12:21Z</time>
      </trkpt>
      <trkpt lat="42.94427" lon="1.79494">
        <ele>526</ele>
        <time>2016-07-13T02:14:21Z</time>
      </trkpt>
      <trkpt lat="42.9443" lon="1.79489">
        <ele>526</ele>
        <time>2016-07-13T02:16:21Z</time>
      </trkpt>
      <trkpt lat="42.94432" lon="1.79482">
        <ele>525</ele>
        <time>2016-07-13T02:18:21Z</time>
      </trkpt>
      <trkpt lat="42.94434" lon="1.79475">
        <ele>525</ele>
        <time>2016-07-13T02:20:21Z</time>
      </trkpt>
      <trkpt lat="42.94436" lon="1.79466">
        <ele>524</ele>
        <time>2016-07-13T02:22:21Z</time>
      </trkpt>
      <trkpt lat="42.94441" lon="1.79428">
        <ele>520</ele>
        <time>2016-07-13T02:24:21Z</time>
      </trkpt>
      <trkpt lat="42.94446" lon="1.79396">
        <ele>516</ele>
        <time>2016-07-13T02:26:21Z</time>
      </trkpt>
      <trkpt lat="42.94453" lon="1.79363">
        <ele>513</ele>
        <time>2016-07-13T02:28:21Z</time>
      </trkpt>
      <trkpt lat="42.9446" lon="1.79333">
        <ele>510</ele>
        <time>2016-07-13T02:30:21Z</time>
      </trkpt>
      <trkpt lat="42.94469" lon="1.79303">
        <ele>509</ele>
        <time>2016-07-13T02:32:21Z</time>
      </trkpt>
      <trkpt lat="42.9448" lon="1.79271">
        <ele>508</ele>
        <time>2016-07-13T02:34:21Z</time>
      </trkpt>
      <trkpt lat="42.94487" lon="1.79257">
        <ele>509</ele>
        <time>2016-07-13T02:36:21Z</time>
      </trkpt>
      <trkpt lat="42.94494" lon="1.79245">
        <ele>510</ele>
        <time>2016-07-13T02:38:21Z</time>
      </trkpt>
      <trkpt lat="42.94509" lon="1.79226">
        <ele>513</ele>
        <time>2016-07-13T02:40:21Z</time>
      </trkpt>
      <trkpt lat="42.94538" lon="1.7919">
        <ele>519</ele>
        <time>2016-07-13T02:42:21Z</time>
      </trkpt>
      <trkpt lat="42.94565" lon="1.79157">
        <ele>522</ele>
        <time>2016-07-13T02:44:21Z</time>
      </trkpt>
      <trkpt lat="42.94587" lon="1.7913">
        <ele>525</ele>
        <time>2016-07-13T02:46:21Z</time>
      </trkpt>
      <trkpt lat="42.94609" lon="1.79104">
        <ele>530</ele>
        <time>2016-07-13T02:48:21Z</time>
      </trkpt>
      <trkpt lat="42.94619" lon="1.7909">
        <ele>531</ele>
        <time>2016-07-13T02:50:21Z</time>
      </trkpt>
      <trkpt lat="42.94625" lon="1.79079">
        <ele>531</ele>
        <time>2016-07-13T02:52:21Z</time>
      </trkpt>
      <trkpt lat="42.94632" lon="1.79064">
        <ele>530</ele>
        <time>2016-07-13T02:54:21Z</time>
      </trkpt>
      <trkpt lat="42.94639" lon="1.79045">
        <ele>527</ele>
        <time>2016-07-13T02:56:21Z</time>
      </trkpt>
      <trkpt lat="42.94648" lon="1.79018">
        <ele>523</ele>
        <time>2016-07-13T02:58:21Z</time>
      </trkpt>
      <trkpt lat="42.94652" lon="1.79008">
        <ele>521</ele>
        <time>2016-07-13T03:00:21Z</time>
      </trkpt>
      <trkpt lat="42.94657" lon="1.79">
        <ele>520</ele>
        <time>2016-07-13T03:02:21Z</time>
      </trkpt>
      <trkpt lat="42.94664" lon="1.7899">
        <ele>521</ele>
        <time>2016-07-13T03:04:21Z</time>
      </trkpt>
      <trkpt lat="42.94685" lon="1.78972">
        <ele>524</ele>
        <time>2016-07-13T03:06:21Z</time>
      </trkpt>
      <trkpt lat="42.9472" lon="1.78942">
        <ele>528</ele>
        <time>2016-07-13T03:08:21Z</time>
      </trkpt>
      <trkpt lat="42.94754" lon="1.78912">
        <ele>531</ele>
        <time>2016-07-13T03:10:21Z</time>
      </trkpt>
      <trkpt lat="42.94762" lon="1.78905">
        <ele>531</ele>
        <time>2016-07-13T03:12:21Z</time>
      </trkpt>
      <trkpt lat="42.94772" lon="1.78897">
        <ele>531</ele>
        <time>2016-07-13T03:14:21Z</time>
      </trkpt>
      <trkpt lat="42.9478" lon="1.78891">
        <ele>531</ele>
        <time>2016-07-13T03:16:21Z</time>
      </trkpt>
      <trkpt lat="42.94791" lon="1.78885">
        <ele>532</ele>
        <time>2016-07-13T03:18:21Z</time>
      </trkpt>
      <trkpt lat="42.94802" lon="1.78877">
        <ele>532</ele>
        <time>2016-07-13T03:20:21Z</time>
      </trkpt>
      <trkpt lat="42.94807" lon="1.78872">
        <ele>532</ele>
        <time>2016-07-13T03:22:21Z</time>
      </trkpt>
      <trkpt lat="42.94811" lon="1.78868">
        <ele>532</ele>
        <time>2016-07-13T03:24:21Z</time>
      </trkpt>
      <trkpt lat="42.94814" lon="1.78862">
        <ele>531</ele>
        <time>2016-07-13T03:26:21Z</time>
      </trkpt>
      <trkpt lat="42.94817" lon="1.78855">
        <ele>531</ele>
        <time>2016-07-13T03:28:21Z</time>
      </trkpt>
      <trkpt lat="42.94821" lon="1.78843">
        <ele>529</ele>
        <time>2016-07-13T03:30:21Z</time>
      </trkpt>
      <trkpt lat="42.94823" lon="1.7883">
        <ele>527</ele>
        <time>2016-07-13T03:32:21Z</time>
      </trkpt>
      <trkpt lat="42.94826" lon="1.78808">
        <ele>525</ele>
        <time>2016-07-13T03:34:21Z</time>
      </trkpt>
      <trkpt lat="42.94826" lon="1.78808">
        <ele>525</ele>
        <time>2016-07-13T03:36:21Z</time>
      </trkpt>
      <trkpt lat="42.9483" lon="1.78807">
        <ele>525</ele>
        <time>2016-07-13T03:38:21Z</time>
      </trkpt>
      <trkpt lat="42.94851" lon="1.78803">
        <ele>527</ele>
        <time>2016-07-13T03:40:21Z</time>
      </trkpt>
      <trkpt lat="42.94873" lon="1.78798">
        <ele>528</ele>
        <time>2016-07-13T03:42:21Z</time>
      </trkpt>
      <trkpt lat="42.94883" lon="1.78799">
        <ele>529</ele>
        <time>2016-07-13T03:44:21Z</time>
      </trkpt>
      <trkpt lat="42.94902" lon="1.78799">
        <ele>531</ele>
        <time>2016-07-13T03:46:21Z</time>
      </trkpt>
      <trkpt lat="42.94911" lon="1.78799">
        <ele>532</ele>
        <time>2016-07-13T03:48:21Z</time>
      </trkpt>
      <trkpt lat="42.94919" lon="1.78798">
        <ele>532</ele>
        <time>2016-07-13T03:50:21Z</time>
      </trkpt>
      <trkpt lat="42.94924" lon="1.78795">
        <ele>532</ele>
        <time>2016-07-13T03:52:21Z</time>
      </trkpt>
      <trkpt lat="42.94929" lon="1.78793">
        <ele>532</ele>
        <time>2016-07-13T03:54:21Z</time>
      </trkpt>
      <trkpt lat="42.94932" lon="1.78791">
        <ele>532</ele>
        <time>2016-07-13T03:56:21Z</time>
      </trkpt>
      <trkpt lat="42.94935" lon="1.78791">
        <ele>532</ele>
        <time>2016-07-13T03:58:21Z</time>
      </trkpt>
      <trkpt lat="42.94961" lon="1.78789">
        <ele>532</ele>
        <time>2016-07-13T04:00:21Z</time>
      </trkpt>
      <trkpt lat="42.94991" lon="1.78787">
        <ele>533</ele>
        <time>2016-07-13T04:02:21Z</time>
      </trkpt>
      <trkpt lat="42.95018" lon="1.78792">
        <ele>534</ele>
        <time>2016-07-13T04:04:21Z</time>
      </trkpt>
      <trkpt lat="42.95047" lon="1.78798">
        <ele>535</ele>
        <time>2016-07-13T04:06:21Z</time>
      </trkpt>
      <trkpt lat="42.95089" lon="1.78816">
        <ele>537</ele>
        <time>2016-07-13T04:08:21Z</time>
      </trkpt>
      <trkpt lat="42.95136" lon="1.78837">
        <ele>542</ele>
        <time>2016-07-13T04:10:21Z</time>
      </trkpt>
      <trkpt lat="42.95164" lon="1.78842">
        <ele>544</ele>
        <time>2016-07-13T04:12:21Z</time>
      </trkpt>
      <trkpt lat="42.95182" lon="1.7884">
        <ele>544</ele>
        <time>2016-07-13T04:14:21Z</time>
      </trkpt>
      <trkpt lat="42.95208" lon="1.78832">
        <ele>544</ele>
        <time>2016-07-13T04:16:21Z</time>
      </trkpt>
      <trkpt lat="42.95236" lon="1.78811">
        <ele>543</ele>
        <time>2016-07-13T04:18:21Z</time>
      </trkpt>
      <trkpt lat="42.95272" lon="1.78782">
        <ele>541</ele>
        <time>2016-07-13T04:20:21Z</time>
      </trkpt>
      <trkpt lat="42.95295" lon="1.78774">
        <ele>541</ele>
        <time>2016-07-13T04:22:21Z</time>
      </trkpt>
      <trkpt lat="42.95325" lon="1.7878">
        <ele>545</ele>
        <time>2016-07-13T04:24:21Z</time>
      </trkpt>
      <trkpt lat="42.95353" lon="1.78791">
        <ele>548</ele>
        <time>2016-07-13T04:26:21Z</time>
      </trkpt>
      <trkpt lat="42.95395" lon="1.78787">
        <ele>550</ele>
        <time>2016-07-13T04:28:21Z</time>
      </trkpt>
      <trkpt lat="42.9543" lon="1.78773">
        <ele>550</ele>
        <time>2016-07-13T04:30:21Z</time>
      </trkpt>
      <trkpt lat="42.95458" lon="1.78756">
        <ele>547</ele>
        <time>2016-07-13T04:32:21Z</time>
      </trkpt>
      <trkpt lat="42.95473" lon="1.78734">
        <ele>545</ele>
        <time>2016-07-13T04:34:21Z</time>
      </trkpt>
      <trkpt lat="42.95484" lon="1.78702">
        <ele>540</ele>
        <time>2016-07-13T04:36:21Z</time>
      </trkpt>
      <trkpt lat="42.95497" lon="1.78673">
        <ele>537</ele>
        <time>2016-07-13T04:38:21Z</time>
      </trkpt>
      <trkpt lat="42.95516" lon="1.78667">
        <ele>537</ele>
        <time>2016-07-13T04:40:21Z</time>
      </trkpt>
      <trkpt lat="42.95547" lon="1.78661">
        <ele>538</ele>
        <time>2016-07-13T04:42:21Z</time>
      </trkpt>
      <trkpt lat="42.9557" lon="1.7865">
        <ele>538</ele>
        <time>2016-07-13T04:44:21Z</time>
      </trkpt>
      <trkpt lat="42.9557" lon="1.7865">
        <ele>538</ele>
        <time>2016-07-13T04:46:21Z</time>
      </trkpt>
      <trkpt lat="42.95578" lon="1.78638">
        <ele>537</ele>
        <time>2016-07-13T04:48:21Z</time>
      </trkpt>
      <trkpt lat="42.95586" lon="1.78624">
        <ele>536</ele>
        <time>2016-07-13T04:50:21Z</time>
      </trkpt>
      <trkpt lat="42.95593" lon="1.78615">
        <ele>535</ele>
        <time>2016-07-13T04:52:21Z</time>
      </trkpt>
      <trkpt lat="42.95598" lon="1.78609">
        <ele>535</ele>
        <time>2016-07-13T04:54:21Z</time>
      </trkpt>
      <trkpt lat="42.95605" lon="1.78604">
        <ele>536</ele>
        <time>2016-07-13T04:56:21Z</time>
      </trkpt>
      <trkpt lat="42.95612" lon="1.78598">
        <ele>536</ele>
        <time>2016-07-13T04:58:21Z</time>
      </trkpt>
      <trkpt lat="42.95618" lon="1.78593">
        <ele>536</ele>
        <time>2016-07-13T05:00:21Z</time>
      </trkpt>
      <trkpt lat="42.95623" lon="1.78586">
        <ele>536</ele>
        <time>2016-07-13T05:02:21Z</time>
      </trkpt>
      <trkpt lat="42.95626" lon="1.7858">
        <ele>535</ele>
        <time>2016-07-13T05:04:21Z</time>
      </trkpt>
      <trkpt lat="42.95631" lon="1.78568">
        <ele>535</ele>
        <time>2016-07-13T05:06:21Z</time>
      </trkpt>
      <trkpt lat="42.95636" lon="1.78555">
        <ele>534</ele>
        <time>2016-07-13T05:08:21Z</time>
      </trkpt>
      <trkpt lat="42.95641" lon="1.7854">
        <ele>533</ele>
        <time>2016-07-13T05:10:21Z</time>
      </trkpt>
      <trkpt lat="42.95647" lon="1.78526">
        <ele>533</ele>
        <time>2016-07-13T05:12:21Z</time>
      </trkpt>
      <trkpt lat="42.95656" lon="1.78504">
        <ele>532</ele>
        <time>2016-07-13T05:14:21Z</time>
      </trkpt>
      <trkpt lat="42.95668" lon="1.7848">
        <ele>531</ele>
        <time>2016-07-13T05:16:21Z</time>
      </trkpt>
      <trkpt lat="42.95676" lon="1.78468">
        <ele>531</ele>
        <time>2016-07-13T05:18:21Z</time>
      </trkpt>
      <trkpt lat="42.95685" lon="1.78453">
        <ele>531</ele>
        <time>2016-07-13T05:20:21Z</time>
      </trkpt>
      <trkpt lat="42.95692" lon="1.78443">
        <ele>531</ele>
        <time>2016-07-13T05:22:21Z</time>
      </trkpt>
      <trkpt lat="42.95699" lon="1.7844">
        <ele>531</ele>
        <time>2016-07-13T05:24:21Z</time>
      </trkpt>
      <trkpt lat="42.957" lon="1.78438">
        <ele>531</ele>
        <time>2016-07-13T05:26:21Z</time>
      </trkpt>
      <trkpt lat="42.957" lon="1.78438">
        <ele>531</ele>
        <time>2016-07-13T05:28:21Z</time>
      </trkpt>
      <trkpt lat="42.95702" lon="1.78436">
        <ele>531</ele>
        <time>2016-07-13T05:30:21Z</time>
      </trkpt>
      <trkpt lat="42.9571" lon="1.78417">
        <ele>530</ele>
        <time>2016-07-13T05:32:21Z</time>
      </trkpt>
      <trkpt lat="42.9572" lon="1.78396">
        <ele>529</ele>
        <time>2016-07-13T05:34:21Z</time>
      </trkpt>
      <trkpt lat="42.95731" lon="1.78384">
        <ele>529</ele>
        <time>2016-07-13T05:36:21Z</time>
      </trkpt>
      <trkpt lat="42.95741" lon="1.78371">
        <ele>528</ele>
        <time>2016-07-13T05:38:21Z</time>
      </trkpt>
      <trkpt lat="42.95751" lon="1.78356">
        <ele>527</ele>
        <time>2016-07-13T05:40:21Z</time>
      </trkpt>
      <trkpt lat="42.9576" lon="1.7834">
        <ele>525</ele>
        <time>2016-07-13T05:42:21Z</time>
      </trkpt>
      <trkpt lat="42.95768" lon="1.78324">
        <ele>523</ele>
        <time>2016-07-13T05:44:21Z</time>
      </trkpt>
      <trkpt lat="42.95777" lon="1.78307">
        <ele>520</ele>
        <time>2016-07-13T05:46:21Z</time>
      </trkpt>
      <trkpt lat="42.95782" lon="1.7829">
        <ele>518</ele>
        <time>2016-07-13T05:48:21Z</time>
      </trkpt>
      <trkpt lat="42.95789" lon="1.78277">
        <ele>515</ele>
        <time>2016-07-13T05:50:21Z</time>
      </trkpt>
      <trkpt lat="42.95797" lon="1.78259">
        <ele>512</ele>
        <time>2016-07-13T05:52:21Z</time>
      </trkpt>
      <trkpt lat="42.95805" lon="1.78246">
        <ele>510</ele>
        <time>2016-07-13T05:54:21Z</time>
      </trkpt>
      <trkpt lat="42.95809" lon="1.78244">
        <ele>509</ele>
        <time>2016-07-13T05:56:21Z</time>
      </trkpt>
      <trkpt lat="42.95816" lon="1.78245">
        <ele>509</ele>
        <time>2016-07-13T05:58:21Z</time>
      </trkpt>
      <trkpt lat="42.95833" lon="1.78252">
        <ele>508</ele>
        <time>2016-07-13T06:00:21Z</time>
      </trkpt>
      <trkpt lat="42.95837" lon="1.78251">
        <ele>509</ele>
        <time>2016-07-13T06:02:21Z</time>
      </trkpt>
      <trkpt lat="42.95841" lon="1.78247">
        <ele>509</ele>
        <time>2016-07-13T06:04:21Z</time>
      </trkpt>
      <trkpt lat="42.95845" lon="1.78236">
        <ele>508</ele>
        <time>2016-07-13T06:06:21Z</time>
      </trkpt>
      <trkpt lat="42.95849" lon="1.78221">
        <ele>506</ele>
        <time>2016-07-13T06:08:21Z</time>
      </trkpt>
      <trkpt lat="42.95852" lon="1.78207">
        <ele>505</ele>
        <time>2016-07-13T06:10:21Z</time>
      </trkpt>
      <trkpt lat="42.95858" lon="1.78182">
        <ele>502</ele>
        <time>2016-07-13T06:12:21Z</time>
      </trkpt>
      <trkpt lat="42.95863" lon="1.78163">
        <ele>500</ele>
        <time>2016-07-13T06:14:21Z</time>
      </trkpt>
      <trkpt lat="42.95871" lon="1.78147">
        <ele>500</ele>
        <time>2016-07-13T06:16:21Z</time>
      </trkpt>
      <trkpt lat="42.9588" lon="1.78133">
        <ele>499</ele>
        <time>2016-07-13T06:18:21Z</time>
      </trkpt>
      <trkpt lat="42.95893" lon="1.78118">
        <ele>499</ele>
        <time>2016-07-13T06:20:21Z</time>
      </trkpt>
      <trkpt lat="42.95902" lon="1.78104">
        <ele>498</ele>
        <time>2016-07-13T06:22:21Z</time>
      </trkpt>
      <trkpt lat="42.95913" lon="1.78084">
        <ele>496</ele>
        <time>2016-07-13T06:24:21Z</time>
      </trkpt>
      <trkpt lat="42.95918" lon="1.78072">
        <ele>495</ele>
        <time>2016-07-13T06:26:21Z</time>
      </trkpt>
      <trkpt lat="42.95925" lon="1.78061">
        <ele>494</ele>
        <time>2016-07-13T06:28:21Z</time>
      </trkpt>
      <trkpt lat="42.95934" lon="1.78048">
        <ele>493</ele>
        <time>2016-07-13T06:30:21Z</time>
      </trkpt>
      <trkpt lat="42.95943" lon="1.78038">
        <ele>492</ele>
        <time>2016-07-13T06:32:21Z</time>
      </trkpt>
      <trkpt lat="42.95952" lon="1.78025">
        <ele>491</ele>
        <time>2016-07-13T06:34:21Z</time>
      </trkpt>
      <trkpt lat="42.95959" lon="1.78016">
        <ele>490</ele>
        <time>2016-07-13T06:36:21Z</time>
      </trkpt>
      <trkpt lat="42.95964" lon="1.78009">
        <ele>489</ele>
        <time>2016-07-13T06:38:21Z</time>
      </trkpt>
      <trkpt lat="42.95966" lon="1.78002">
        <ele>488</ele>
        <time>2016-07-13T06:40:21Z</time>
      </trkpt>
      <trkpt lat="42.95965" lon="1.77994">
        <ele>487</ele>
        <time>2016-07-13T06:42:21Z</time>
      </trkpt>
      <trkpt lat="42.95963" lon="1.77987">
        <ele>487</ele>
        <time>2016-07-13T06:44:21Z</time>
      </trkpt>
      <trkpt lat="42.95961" lon="1.77982">
        <ele>486</ele>
        <time>2016-07-13T06:46:21Z</time>
      </trkpt>
      <trkpt lat="42.95959" lon="1.77976">
        <ele>486</ele>
        <time>2016-07-13T06:48:21Z</time>
      </trkpt>
      <trkpt lat="42.95959" lon="1.77969">
        <ele>485</ele>
        <time>2016-07-13T06:50:21Z</time>
      </trkpt>
      <trkpt lat="42.95961" lon="1.77961">
        <ele>484</ele>
        <time>2016-07-13T06:52:21Z</time>
      </trkpt>
      <trkpt lat="42.95963" lon="1.77952">
        <ele>483</ele>
        <time>2016-07-13T06:54:21Z</time>
      </trkpt>
      <trkpt lat="42.95968" lon="1.77939">
        <ele>481</ele>
        <time>2016-07-13T06:56:21Z</time>
      </trkpt>
      <trkpt lat="42.95969" lon="1.77928">
        <ele>480</ele>
        <time>2016-07-13T06:58:21Z</time>
      </trkpt>
      <trkpt lat="42.9597" lon="1.7792">
        <ele>479</ele>
        <time>2016-07-13T07:00:21Z</time>
      </trkpt>
      <trkpt lat="42.9597" lon="1.77911">
        <ele>478</ele>
        <time>2016-07-13T07:02:21Z</time>
      </trkpt>
      <trkpt lat="42.95968" lon="1.77899">
        <ele>477</ele>
        <time>2016-07-13T07:04:21Z</time>
      </trkpt>
      <trkpt lat="42.95967" lon="1.77881">
        <ele>475</ele>
        <time>2016-07-13T07:06:21Z</time>
      </trkpt>
      <trkpt lat="42.95967" lon="1.77871">
        <ele>474</ele>
        <time>2016-07-13T07:08:21Z</time>
      </trkpt>
      <trkpt lat="42.95967" lon="1.77864">
        <ele>473</ele>
        <time>2016-07-13T07:10:21Z</time>
      </trkpt>
      <trkpt lat="42.95969" lon="1.77855">
        <ele>472</ele>
        <time>2016-07-13T07:12:21Z</time>
      </trkpt>
      <trkpt lat="42.9597" lon="1.77844">
        <ele>470</ele>
        <time>2016-07-13T07:14:21Z</time>
      </trkpt>
      <trkpt lat="42.95971" lon="1.77835">
        <ele>469</ele>
        <time>2016-07-13T07:16:21Z</time>
      </trkpt>
      <trkpt lat="42.95971" lon="1.77819">
        <ele>467</ele>
        <time>2016-07-13T07:18:21Z</time>
      </trkpt>
      <trkpt lat="42.95971" lon="1.77806">
        <ele>465</ele>
        <time>2016-07-13T07:20:21Z</time>
      </trkpt>
      <trkpt lat="42.9597" lon="1.77795">
        <ele>464</ele>
        <time>2016-07-13T07:22:21Z</time>
      </trkpt>
      <trkpt lat="42.95966" lon="1.77782">
        <ele>463</ele>
        <time>2016-07-13T07:24:21Z</time>
      </trkpt>
      <trkpt lat="42.95963" lon="1.77774">
        <ele>462</ele>
        <time>2016-07-13T07:26:21Z</time>
      </trkpt>
      <trkpt lat="42.95959" lon="1.7777">
        <ele>461</ele>
        <time>2016-07-13T07:28:21Z</time>
      </trkpt>
      <trkpt lat="42.9595" lon="1.77766">
        <ele>462</ele>
        <time>2016-07-13T07:30:21Z</time>
      </trkpt>
      <trkpt lat="42.9594" lon="1.7776">
        <ele>462</ele>
        <time>2016-07-13T07:32:21Z</time>
      </trkpt>
      <trkpt lat="42.95935" lon="1.77753">
        <ele>461</ele>
        <time>2016-07-13T07:34:21Z</time>
      </trkpt>
      <trkpt lat="42.95931" lon="1.77746">
        <ele>460</ele>
        <time>2016-07-13T07:36:21Z</time>
      </trkpt>
      <trkpt lat="42.9593" lon="1.77738">
        <ele>460</ele>
        <time>2016-07-13T07:38:21Z</time>
      </trkpt>
      <trkpt lat="42.9593" lon="1.7772">
        <ele>457</ele>
        <time>2016-07-13T07:40:21Z</time>
      </trkpt>
      <trkpt lat="42.9593" lon="1.77709">
        <ele>456</ele>
        <time>2016-07-13T07:42:21Z</time>
      </trkpt>
      <trkpt lat="42.9593" lon="1.77709">
        <ele>456</ele>
        <time>2016-07-13T07:44:21Z</time>
      </trkpt>
      <trkpt lat="42.95932" lon="1.777">
        <ele>455</ele>
        <time>2016-07-13T07:46:21Z</time>
      </trkpt>
      <trkpt lat="42.95935" lon="1.7769">
        <ele>453</ele>
        <time>2016-07-13T07:48:21Z</time>
      </trkpt>
      <trkpt lat="42.9594" lon="1.7768">
        <ele>452</ele>
        <time>2016-07-13T07:50:21Z</time>
      </trkpt>
      <trkpt lat="42.95945" lon="1.77671">
        <ele>450</ele>
        <time>2016-07-13T07:52:21Z</time>
      </trkpt>
      <trkpt lat="42.95947" lon="1.77663">
        <ele>449</ele>
        <time>2016-07-13T07:54:21Z</time>
      </trkpt>
      <trkpt lat="42.95947" lon="1.77657">
        <ele>448</ele>
        <time>2016-07-13T07:56:21Z</time>
      </trkpt>
      <trkpt lat="42.95942" lon="1.77643">
        <ele>447</ele>
        <time>2016-07-13T07:58:21Z</time>
      </trkpt>
      <trkpt lat="42.95935" lon="1.77629">
        <ele>446</ele>
        <time>2016-07-13T08:00:21Z</time>
      </trkpt>
      <trkpt lat="42.9593" lon="1.77617">
        <ele>445</ele>
        <time>2016-07-13T08:02:21Z</time>
      </trkpt>
      <trkpt lat="42.9593" lon="1.77603">
        <ele>443</ele>
        <time>2016-07-13T08:04:21Z</time>
      </trkpt>
      <trkpt lat="42.95937" lon="1.77586">
        <ele>441</ele>
        <time>2016-07-13T08:06:21Z</time>
      </trkpt>
      <trkpt lat="42.9595" lon="1.77561">
        <ele>437</ele>
        <time>2016-07-13T08:08:21Z</time>
      </trkpt>
      <trkpt lat="42.95959" lon="1.77543">
        <ele>435</ele>
        <time>2016-07-13T08:10:21Z</time>
      </trkpt>
      <trkpt lat="42.95967" lon="1.77528">
        <ele>432</ele>
        <time>2016-07-13T08:12:21Z</time>
      </trkpt>
      <trkpt lat="42.95981" lon="1.77506">
        <ele>429</ele>
        <time>2016-07-13T08:14:21Z</time>
      </trkpt>
      <trkpt lat="42.95987" lon="1.77492">
        <ele>427</ele>
        <time>2016-07-13T08:16:21Z</time>
      </trkpt>
      <trkpt lat="42.95992" lon="1.77476">
        <ele>426</ele>
        <time>2016-07-13T08:18:21Z</time>
      </trkpt>
      <trkpt lat="42.95996" lon="1.77461">
        <ele>424</ele>
        <time>2016-07-13T08:20:21Z</time>
      </trkpt>
      <trkpt lat="42.95997" lon="1.77451">
        <ele>424</ele>
        <time>2016-07-13T08:22:21Z</time>
      </trkpt>
      <trkpt lat="42.95997" lon="1.77443">
        <ele>423</ele>
        <time>2016-07-13T08:24:21Z</time>
      </trkpt>
      <trkpt lat="42.95995" lon="1.77421">
        <ele>422</ele>
        <time>2016-07-13T08:26:21Z</time>
      </trkpt>
      <trkpt lat="42.95994" lon="1.77399">
        <ele>421</ele>
        <time>2016-07-13T08:28:21Z</time>
      </trkpt>
      <trkpt lat="42.95992" lon="1.7738">
        <ele>421</ele>
        <time>2016-07-13T08:30:21Z</time>
      </trkpt>
      <trkpt lat="42.95991" lon="1.77375">
        <ele>421</ele>
        <time>2016-07-13T08:32:21Z</time>
      </trkpt>
      <trkpt lat="42.95989" lon="1.77372">
        <ele>421</ele>
        <time>2016-07-13T08:34:21Z</time>
      </trkpt>
      <trkpt lat="42.95987" lon="1.77369">
        <ele>421</ele>
        <time>2016-07-13T08:36:21Z</time>
      </trkpt>
      <trkpt lat="42.95987" lon="1.77369">
        <ele>421</ele>
        <time>2016-07-13T08:38:21Z</time>
      </trkpt>
      <trkpt lat="42.95988" lon="1.77355">
        <ele>420</ele>
        <time>2016-07-13T08:40:21Z</time>
      </trkpt>
      <trkpt lat="42.95991" lon="1.7733">
        <ele>420</ele>
        <time>2016-07-13T08:42:21Z</time>
      </trkpt>
      <trkpt lat="42.95993" lon="1.7731">
        <ele>423</ele>
        <time>2016-07-13T08:44:21Z</time>
      </trkpt>
      <trkpt lat="42.95993" lon="1.7731">
        <ele>423</ele>
        <time>2016-07-13T08:46:21Z</time>
      </trkpt>
      <trkpt lat="42.96001" lon="1.77311">
        <ele>423</ele>
        <time>2016-07-13T08:48:21Z</time>
      </trkpt>
      <trkpt lat="42.96008" lon="1.77313">
        <ele>423</ele>
        <time>2016-07-13T08:50:21Z</time>
      </trkpt>
      <trkpt lat="42.96024" lon="1.77322">
        <ele>424</ele>
        <time>2016-07-13T08:52:21Z</time>
      </trkpt>
      <trkpt lat="42.9604" lon="1.77336">
        <ele>423</ele>
        <time>2016-07-13T08:54:21Z</time>
      </trkpt>
      <trkpt lat="42.96066" lon="1.77359">
        <ele>423</ele>
        <time>2016-07-13T08:56:21Z</time>
      </trkpt>
      <trkpt lat="42.96085" lon="1.77377">
        <ele>423</ele>
        <time>2016-07-13T08:58:21Z</time>
      </trkpt>
      <trkpt lat="42.96099" lon="1.77392">
        <ele>423</ele>
        <time>2016-07-13T09:00:21Z</time>
      </trkpt>
      <trkpt lat="42.96109" lon="1.77402">
        <ele>423</ele>
        <time>2016-07-13T09:02:21Z</time>
      </trkpt>
      <trkpt lat="42.96118" lon="1.77413">
        <ele>423</ele>
        <time>2016-07-13T09:04:21Z</time>
      </trkpt>
      <trkpt lat="42.96124" lon="1.77425">
        <ele>422</ele>
        <time>2016-07-13T09:06:21Z</time>
      </trkpt>
      <trkpt lat="42.96128" lon="1.77435">
        <ele>422</ele>
        <time>2016-07-13T09:08:21Z</time>
      </trkpt>
      <trkpt lat="42.96132" lon="1.77456">
        <ele>421</ele>
        <time>2016-07-13T09:10:21Z</time>
      </trkpt>
      <trkpt lat="42.96137" lon="1.77496">
        <ele>418</ele>
        <time>2016-07-13T09:12:21Z</time>
      </trkpt>
      <trkpt lat="42.96139" lon="1.77512">
        <ele>418</ele>
        <time>2016-07-13T09:14:21Z</time>
      </trkpt>
      <trkpt lat="42.96141" lon="1.77526">
        <ele>418</ele>
        <time>2016-07-13T09:16:21Z</time>
      </trkpt>
      <trkpt lat="42.96144" lon="1.77541">
        <ele>418</ele>
        <time>2016-07-13T09:18:21Z</time>
      </trkpt>
      <trkpt lat="42.96147" lon="1.77554">
        <ele>418</ele>
        <time>2016-07-13T09:20:21Z</time>
      </trkpt>
      <trkpt lat="42.96154" lon="1.77575">
        <ele>418</ele>
        <time>2016-07-13T09:22:21Z</time>
      </trkpt>
      <trkpt lat="42.96161" lon="1.77592">
        <ele>418</ele>
        <time>2016-07-13T09:24:21Z</time>
      </trkpt>
      <trkpt lat="42.96165" lon="1.776">
        <ele>418</ele>
        <time>2016-07-13T09:26:21Z</time>
      </trkpt>
      <trkpt lat="42.96168" lon="1.77604">
        <ele>418</ele>
        <time>2016-07-13T09:28:21Z</time>
      </trkpt>
      <trkpt lat="42.96174" lon="1.77611">
        <ele>418</ele>
        <time>2016-07-13T09:30:21Z</time>
      </trkpt>
      <trkpt lat="42.96181" lon="1.77614">
        <ele>418</ele>
        <time>2016-07-13T09:32:21Z</time>
      </trkpt>
      <trkpt lat="42.9619" lon="1.77616">
        <ele>418</ele>
        <time>2016-07-13T09:34:21Z</time>
      </trkpt>
      <trkpt lat="42.96202" lon="1.77617">
        <ele>418</ele>
        <time>2016-07-13T09:36:21Z</time>
      </trkpt>
      <trkpt lat="42.96219" lon="1.77618">
        <ele>417</ele>
        <time>2016-07-13T09:38:21Z</time>
      </trkpt>
      <trkpt lat="42.96219" lon="1.77618">
        <ele>417</ele>
        <time>2016-07-13T09:40:21Z</time>
      </trkpt>
      <trkpt lat="42.96217" lon="1.77613">
        <ele>417</ele>
        <time>2016-07-13T09:42:21Z</time>
      </trkpt>
      <trkpt lat="42.96216" lon="1.7761">
        <ele>417</ele>
        <time>2016-07-13T09:44:21Z</time>
      </trkpt>
      <trkpt lat="42.96208" lon="1.77601">
        <ele>417</ele>
        <time>2016-07-13T09:46:21Z</time>
      </trkpt>
      <trkpt lat="42.96201" lon="1.77589">
        <ele>417</ele>
        <time>2016-07-13T09:48:21Z</time>
      </trkpt>
      <trkpt lat="42.96197" lon="1.77577">
        <ele>417</ele>
        <time>2016-07-13T09:50:21Z</time>
      </trkpt>
      <trkpt lat="42.96192" lon="1.77562">
        <ele>417</ele>
        <time>2016-07-13T09:52:21Z</time>
      </trkpt>
      <trkpt lat="42.96187" lon="1.7754">
        <ele>417</ele>
        <time>2016-07-13T09:54:21Z</time>
      </trkpt>
      <trkpt lat="42.96183" lon="1.77527">
        <ele>417</ele>
        <time>2016-07-13T09:56:21Z</time>
      </trkpt>
      <trkpt lat="42.96181" lon="1.77514">
        <ele>417</ele>
        <time>2016-07-13T09:58:21Z</time>
      </trkpt>
      <trkpt lat="42.96179" lon="1.77498">
        <ele>417</ele>
        <time>2016-07-13T10:00:21Z</time>
      </trkpt>
      <trkpt lat="42.96179" lon="1.77484">
        <ele>419</ele>
        <time>2016-07-13T10:02:21Z</time>
      </trkpt>
      <trkpt lat="42.96179" lon="1.77474">
        <ele>420</ele>
        <time>2016-07-13T10:04:21Z</time>
      </trkpt>
      <trkpt lat="42.96175" lon="1.7746">
        <ele>422</ele>
        <time>2016-07-13T10:06:21Z</time>
      </trkpt>
      <trkpt lat="42.96169" lon="1.77447">
        <ele>423</ele>
        <time>2016-07-13T10:08:21Z</time>
      </trkpt>
      <trkpt lat="42.96161" lon="1.77436">
        <ele>424</ele>
        <time>2016-07-13T10:10:21Z</time>
      </trkpt>
      <trkpt lat="42.96156" lon="1.77429">
        <ele>424</ele>
        <time>2016-07-13T10:12:21Z</time>
      </trkpt>
      <trkpt lat="42.96153" lon="1.77423">
        <ele>424</ele>
        <time>2016-07-13T10:14:21Z</time>
      </trkpt>
      <trkpt lat="42.9615" lon="1.77413">
        <ele>425</ele>
        <time>2016-07-13T10:16:21Z</time>
      </trkpt>
      <trkpt lat="42.96146" lon="1.77402">
        <ele>427</ele>
        <time>2016-07-13T10:18:21Z</time>
      </trkpt>
      <trkpt lat="42.96142" lon="1.77392">
        <ele>428</ele>
        <time>2016-07-13T10:20:21Z</time>
      </trkpt>
      <trkpt lat="42.96138" lon="1.77376">
        <ele>430</ele>
        <time>2016-07-13T10:22:21Z</time>
      </trkpt>
      <trkpt lat="42.96136" lon="1.77362">
        <ele>431</ele>
        <time>2016-07-13T10:24:21Z</time>
      </trkpt>
      <trkpt lat="42.9613" lon="1.77347">
        <ele>433</ele>
        <time>2016-07-13T10:26:21Z</time>
      </trkpt>
      <trkpt lat="42.96128" lon="1.77336">
        <ele>434</ele>
        <time>2016-07-13T10:28:21Z</time>
      </trkpt>
      <trkpt lat="42.96126" lon="1.77325">
        <ele>436</ele>
        <time>2016-07-13T10:30:21Z</time>
      </trkpt>
      <trkpt lat="42.96126" lon="1.77314">
        <ele>438</ele>
        <time>2016-07-13T10:32:21Z</time>
      </trkpt>
      <trkpt lat="42.96125" lon="1.77302">
        <ele>441</ele>
        <time>2016-07-13T10:34:21Z</time>
      </trkpt>
      <trkpt lat="42.96125" lon="1.77289">
        <ele>444</ele>
        <time>2016-07-13T10:36:21Z</time>
      </trkpt>
      <trkpt lat="42.96122" lon="1.77265">
        <ele>449</ele>
        <time>2016-07-13T10:38:21Z</time>
      </trkpt>
      <trkpt lat="42.96119" lon="1.77236">
        <ele>455</ele>
        <time>2016-07-13T10:40:21Z</time>
      </trkpt>
      <trkpt lat="42.96119" lon="1.77236">
        <ele>455</ele>
        <time>2016-07-13T10:42:21Z</time>
      </trkpt>
      <trkpt lat="42.96122" lon="1.77265">
        <ele>449</ele>
        <time>2016-07-13T10:44:21Z</time>
      </trkpt>
      <trkpt lat="42.96125" lon="1.77289">
        <ele>444</ele>
        <time>2016-07-13T10:46:21Z</time>
      </trkpt>
      <trkpt lat="42.96125" lon="1.77302">
        <ele>441</ele>
        <time>2016-07-13T10:48:21Z</time>
      </trkpt>
      <trkpt lat="42.96126" lon="1.77314">
        <ele>438</ele>
        <time>2016-07-13T10:50:21Z</time>
      </trkpt>
      <trkpt lat="42.96126" lon="1.77325">
        <ele>436</ele>
        <time>2016-07-13T10:52:21Z</time>
      </trkpt>
      <trkpt lat="42.96128" lon="1.77336">
        <ele>434</ele>
        <time>2016-07-13T10:54:21Z</time>
      </trkpt>
      <trkpt lat="42.9613" lon="1.77347">
        <ele>433</ele>
        <time>2016-07-13T10:56:21Z</time>
      </trkpt>
      <trkpt lat="42.96136" lon="1.77362">
        <ele>431</ele>
        <time>2016-07-13T10:58:21Z</time>
      </trkpt>
      <trkpt lat="42.96138" lon="1.77376">
        <ele>430</ele>
        <time>2016-07-13T11:00:21Z</time>
      </trkpt>
      <trkpt lat="42.96142" lon="1.77392">
        <ele>428</ele>
        <time>2016-07-13T11:02:21Z</time>
      </trkpt>
      <trkpt lat="42.96146" lon="1.77402">
        <ele>427</ele>
        <time>2016-07-13T11:04:21Z</time>
      </trkpt>
      <trkpt lat="42.9615" lon="1.77413">
        <ele>425</ele>
        <time>2016-07-13T11:06:21Z</time>
      </trkpt>
      <trkpt lat="42.96153" lon="1.77423">
        <ele>424</ele>
        <time>2016-07-13T11:08:21Z</time>
      </trkpt>
      <trkpt lat="42.96156" lon="1.77429">
        <ele>424</ele>
        <time>2016-07-13T11:10:21Z</time>
      </trkpt>
      <trkpt lat="42.96161" lon="1.77436">
        <ele>424</ele>
        <time>2016-07-13T11:12:21Z</time>
      </trkpt>
      <trkpt lat="42.96169" lon="1.77447">
        <ele>423</ele>
        <time>2016-07-13T11:14:21Z</time>
      </trkpt>
      <trkpt lat="42.96175" lon="1.7746">
        <ele>422</ele>
        <time>2016-07-13T11:16:21Z</time>
      </trkpt>
      <trkpt lat="42.96179" lon="1.77474">
        <ele>420</ele>
        <time>2016-07-13T11:18:21Z</time>
      </trkpt>
      <trkpt lat="42.96179" lon="1.77484">
        <ele>419</ele>
        <time>2016-07-13T11:20:21Z</time>
      </trkpt>
      <trkpt lat="42.96179" lon="1.77498">
        <ele>417</ele>
        <time>2016-07-13T11:22:21Z</time>
      </trkpt>
      <trkpt lat="42.96181" lon="1.77514">
        <ele>417</ele>
        <time>2016-07-13T11:24:21Z</time>
      </trkpt>
      <trkpt lat="42.96183" lon="1.77527">
        <ele>417</ele>
        <time>2016-07-13T11:26:21Z</time>
      </trkpt>
      <trkpt lat="42.96187" lon="1.7754">
        <ele>417</ele>
        <time>2016-07-13T11:28:21Z</time>
      </trkpt>
      <trkpt lat="42.96192" lon="1.77562">
        <ele>417</ele>
        <time>2016-07-13T11:30:21Z</time>
      </trkpt>
      <trkpt lat="42.96197" lon="1.77577">
        <ele>417</ele>
        <time>2016-07-13T11:32:21Z</time>
      </trkpt>
      <trkpt lat="42.96201" lon="1.77589">
        <ele>417</ele>
        <time>2016-07-13T11:34:21Z</time>
      </trkpt>
      <trkpt lat="42.96208" lon="1.77601">
        <ele>417</ele>
        <time>2016-07-13T11:36:21Z</time>
      </trkpt>
      <trkpt lat="42.96216" lon="1.7761">
        <ele>417</ele>
        <time>2016-07-13T11:38:21Z</time>
      </trkpt>
      <trkpt lat="42.96217" lon="1.77613">
        <ele>417</ele>
        <time>2016-07-13T11:40:21Z</time>
      </trkpt>
      <trkpt lat="42.96219" lon="1.77618">
        <ele>417</ele>
        <time>2016-07-13T11:42:21Z</time>
      </trkpt>
      <trkpt lat="42.96219" lon="1.77618">
        <ele>417</ele>
        <time>2016-07-13T11:44:21Z</time>
      </trkpt>
      <trkpt lat="42.96202" lon="1.77617">
        <ele>418</ele>
        <time>2016-07-13T11:46:21Z</time>
      </trkpt>
      <trkpt lat="42.9619" lon="1.77616">
        <ele>418</ele>
        <time>2016-07-13T11:48:21Z</time>
      </trkpt>
      <trkpt lat="42.96181" lon="1.77614">
        <ele>418</ele>
        <time>2016-07-13T11:50:21Z</time>
      </trkpt>
      <trkpt lat="42.96174" lon="1.77611">
        <ele>418</ele>
        <time>2016-07-13T11:52:21Z</time>
      </trkpt>
      <trkpt lat="42.96168" lon="1.77604">
        <ele>418</ele>
        <time>2016-07-13T11:54:21Z</time>
      </trkpt>
      <trkpt lat="42.96165" lon="1.776">
        <ele>418</ele>
        <time>2016-07-13T11:56:21Z</time>
      </trkpt>
      <trkpt lat="42.96161" lon="1.77592">
        <ele>418</ele>
        <time>2016-07-13T11:58:21Z</time>
      </trkpt>
      <trkpt lat="42.96154" lon="1.77575">
        <ele>418</ele>
        <time>2016-07-13T12:00:21Z</time>
      </trkpt>
      <trkpt lat="42.96147" lon="1.77554">
        <ele>418</ele>
        <time>2016-07-13T12:02:21Z</time>
      </trkpt>
      <trkpt lat="42.96144" lon="1.77541">
        <ele>418</ele>
        <time>2016-07-13T12:04:21Z</time>
      </trkpt>
      <trkpt lat="42.96141" lon="1.77526">
        <ele>418</ele>
        <time>2016-07-13T12:06:21Z</time>
      </trkpt>
      <trkpt lat="42.96139" lon="1.77512">
        <ele>418</ele>
        <time>2016-07-13T12:08:21Z</time>
      </trkpt>
      <trkpt lat="42.96137" lon="1.77496">
        <ele>418</ele>
        <time>2016-07-13T12:10:21Z</time>
      </trkpt>
      <trkpt lat="42.96132" lon="1.77456">
        <ele>421</ele>
        <time>2016-07-13T12:12:21Z</time>
      </trkpt>
      <trkpt lat="42.96128" lon="1.77435">
        <ele>422</ele>
        <time>2016-07-13T12:14:21Z</time>
      </trkpt>
      <trkpt lat="42.96124" lon="1.77425">
        <ele>422</ele>
        <time>2016-07-13T12:16:21Z</time>
      </trkpt>
      <trkpt lat="42.96118" lon="1.77413">
        <ele>423</ele>
        <time>2016-07-13T12:18:21Z</time>
      </trkpt>
      <trkpt lat="42.96109" lon="1.77402">
        <ele>423</ele>
        <time>2016-07-13T12:20:21Z</time>
      </trkpt>
      <trkpt lat="42.96099" lon="1.77392">
        <ele>423</ele>
        <time>2016-07-13T12:22:21Z</time>
      </trkpt>
      <trkpt lat="42.96085" lon="1.77377">
        <ele>423</ele>
        <time>2016-07-13T12:24:21Z</time>
      </trkpt>
      <trkpt lat="42.96066" lon="1.77359">
        <ele>423</ele>
        <time>2016-07-13T12:26:21Z</time>
      </trkpt>
      <trkpt lat="42.9604" lon="1.77336">
        <ele>423</ele>
        <time>2016-07-13T12:28:21Z</time>
      </trkpt>
      <trkpt lat="42.96024" lon="1.77322">
        <ele>424</ele>
        <time>2016-07-13T12:30:21Z</time>
      </trkpt>
      <trkpt lat="42.96008" lon="1.77313">
        <ele>423</ele>
        <time>2016-07-13T12:32:21Z</time>
      </trkpt>
      <trkpt lat="42.96001" lon="1.77311">
        <ele>423</ele>
        <time>2016-07-13T12:34:21Z</time>
      </trkpt>
      <trkpt lat="42.95993" lon="1.7731">
        <ele>423</ele>
        <time>2016-07-13T12:36:21Z</time>
      </trkpt>
      <trkpt lat="42.95991" lon="1.77308">
        <ele>423</ele>
        <time>2016-07-13T12:38:21Z</time>
      </trkpt>
      <trkpt lat="42.95989" lon="1.77306">
        <ele>423</ele>
        <time>2016-07-13T12:40:21Z</time>
      </trkpt>
      <trkpt lat="42.95982" lon="1.77303">
        <ele>423</ele>
        <time>2016-07-13T12:42:21Z</time>
      </trkpt>
      <trkpt lat="42.95971" lon="1.77298">
        <ele>423</ele>
        <time>2016-07-13T12:44:21Z</time>
      </trkpt>
      <trkpt lat="42.95958" lon="1.77292">
        <ele>423</ele>
        <time>2016-07-13T12:46:21Z</time>
      </trkpt>
      <trkpt lat="42.95953" lon="1.77289">
        <ele>423</ele>
        <time>2016-07-13T12:48:21Z</time>
      </trkpt>
      <trkpt lat="42.95945" lon="1.77283">
        <ele>423</ele>
        <time>2016-07-13T12:50:21Z</time>
      </trkpt>
      <trkpt lat="42.95938" lon="1.77276">
        <ele>423</ele>
        <time>2016-07-13T12:52:21Z</time>
      </trkpt>
      <trkpt lat="42.95932" lon="1.77268">
        <ele>423</ele>
        <time>2016-07-13T12:54:21Z</time>
      </trkpt>
      <trkpt lat="42.95925" lon="1.77257">
        <ele>423</ele>
        <time>2016-07-13T12:56:21Z</time>
      </trkpt>
      <trkpt lat="42.95904" lon="1.77222">
        <ele>425</ele>
        <time>2016-07-13T12:58:21Z</time>
      </trkpt>
      <trkpt lat="42.95854" lon="1.77136">
        <ele>426</ele>
        <time>2016-07-13T13:00:21Z</time>
      </trkpt>
      <trkpt lat="42.95845" lon="1.77119">
        <ele>425</ele>
        <time>2016-07-13T13:02:21Z</time>
      </trkpt>
      <trkpt lat="42.95821" lon="1.77078">
        <ele>425</ele>
        <time>2016-07-13T13:04:21Z</time>
      </trkpt>
      <trkpt lat="42.95817" lon="1.77069">
        <ele>425</ele>
        <time>2016-07-13T13:06:21Z</time>
      </trkpt>
      <trkpt lat="42.95813" lon="1.77057">
        <ele>426</ele>
        <time>2016-07-13T13:08:21Z</time>
      </trkpt>
      <trkpt lat="42.95811" lon="1.7705">
        <ele>426</ele>
        <time>2016-07-13T13:10:21Z</time>
      </trkpt>
      <trkpt lat="42.9581" lon="1.7704">
        <ele>426</ele>
        <time>2016-07-13T13:12:21Z</time>
      </trkpt>
      <trkpt lat="42.9581" lon="1.77027">
        <ele>426</ele>
        <time>2016-07-13T13:14:21Z</time>
      </trkpt>
      <trkpt lat="42.95812" lon="1.77011">
        <ele>427</ele>
        <time>2016-07-13T13:16:21Z</time>
      </trkpt>
      <trkpt lat="42.95816" lon="1.76995">
        <ele>427</ele>
        <time>2016-07-13T13:18:21Z</time>
      </trkpt>
      <trkpt lat="42.95821" lon="1.7698">
        <ele>427</ele>
        <time>2016-07-13T13:20:21Z</time>
      </trkpt>
      <trkpt lat="42.95835" lon="1.76928">
        <ele>428</ele>
        <time>2016-07-13T13:22:21Z</time>
      </trkpt>
      <trkpt lat="42.95847" lon="1.76881">
        <ele>433</ele>
        <time>2016-07-13T13:24:21Z</time>
      </trkpt>
      <trkpt lat="42.95859" lon="1.76839">
        <ele>437</ele>
        <time>2016-07-13T13:26:21Z</time>
      </trkpt>
      <trkpt lat="42.95867" lon="1.7682">
        <ele>439</ele>
        <time>2016-07-13T13:28:21Z</time>
      </trkpt>
      <trkpt lat="42.95873" lon="1.76805">
        <ele>441</ele>
        <time>2016-07-13T13:30:21Z</time>
      </trkpt>
      <trkpt lat="42.95873" lon="1.76805">
        <ele>441</ele>
        <time>2016-07-13T13:32:21Z</time>
      </trkpt>
      <trkpt lat="42.95873" lon="1.76802">
        <ele>441</ele>
        <time>2016-07-13T13:34:21Z</time>
      </trkpt>
      <trkpt lat="42.95873" lon="1.76797">
        <ele>441</ele>
        <time>2016-07-13T13:36:21Z</time>
      </trkpt>
      <trkpt lat="42.95874" lon="1.76787">
        <ele>441</ele>
        <time>2016-07-13T13:38:21Z</time>
      </trkpt>
      <trkpt lat="42.95877" lon="1.76776">
        <ele>441</ele>
        <time>2016-07-13T13:40:21Z</time>
      </trkpt>
      <trkpt lat="42.95883" lon="1.76755">
        <ele>443</ele>
        <time>2016-07-13T13:42:21Z</time>
      </trkpt>
      <trkpt lat="42.95886" lon="1.76741">
        <ele>443</ele>
        <time>2016-07-13T13:44:21Z</time>
      </trkpt>
      <trkpt lat="42.95887" lon="1.76725">
        <ele>443</ele>
        <time>2016-07-13T13:46:21Z</time>
      </trkpt>
      <trkpt lat="42.95887" lon="1.76711">
        <ele>443</ele>
        <time>2016-07-13T13:48:21Z</time>
      </trkpt>
      <trkpt lat="42.95884" lon="1.76695">
        <ele>442</ele>
        <time>2016-07-13T13:50:21Z</time>
      </trkpt>
      <trkpt lat="42.95881" lon="1.7667">
        <ele>441</ele>
        <time>2016-07-13T13:52:21Z</time>
      </trkpt>
      <trkpt lat="42.95879" lon="1.76658">
        <ele>441</ele>
        <time>2016-07-13T13:54:21Z</time>
      </trkpt>
      <trkpt lat="42.95877" lon="1.76642">
        <ele>440</ele>
        <time>2016-07-13T13:56:21Z</time>
      </trkpt>
      <trkpt lat="42.95872" lon="1.7662">
        <ele>439</ele>
        <time>2016-07-13T13:58:21Z</time>
      </trkpt>
      <trkpt lat="42.95867" lon="1.76606">
        <ele>438</ele>
        <time>2016-07-13T14:00:21Z</time>
      </trkpt>
      <trkpt lat="42.95859" lon="1.76595">
        <ele>437</ele>
        <time>2016-07-13T14:02:21Z</time>
      </trkpt>
      <trkpt lat="42.9585" lon="1.76586">
        <ele>437</ele>
        <time>2016-07-13T14:04:21Z</time>
      </trkpt>
      <trkpt lat="42.95847" lon="1.76583">
        <ele>436</ele>
        <time>2016-07-13T14:06:21Z</time>
      </trkpt>
      <trkpt lat="42.95844" lon="1.7658">
        <ele>436</ele>
        <time>2016-07-13T14:08:21Z</time>
      </trkpt>
      <trkpt lat="42.95844" lon="1.7658">
        <ele>436</ele>
        <time>2016-07-13T14:10:21Z</time>
      </trkpt>
      <trkpt lat="42.95841" lon="1.76576">
        <ele>436</ele>
        <time>2016-07-13T14:12:21Z</time>
      </trkpt>
      <trkpt lat="42.95839" lon="1.76572">
        <ele>436</ele>
        <time>2016-07-13T14:14:21Z</time>
      </trkpt>
      <trkpt lat="42.95836" lon="1.76566">
        <ele>436</ele>
        <time>2016-07-13T14:16:21Z</time>
      </trkpt>
      <trkpt lat="42.95832" lon="1.76556">
        <ele>436</ele>
        <time>2016-07-13T14:18:21Z</time>
      </trkpt>
      <trkpt lat="42.95828" lon="1.76543">
        <ele>436</ele>
        <time>2016-07-13T14:20:21Z</time>
      </trkpt>
      <trkpt lat="42.95823" lon="1.76528">
        <ele>437</ele>
        <time>2016-07-13T14:22:21Z</time>
      </trkpt>
      <trkpt lat="42.95819" lon="1.76513">
        <ele>437</ele>
        <time>2016-07-13T14:24:21Z</time>
      </trkpt>
      <trkpt lat="42.95815" lon="1.76496">
        <ele>438</ele>
        <time>2016-07-13T14:26:21Z</time>
      </trkpt>
      <trkpt lat="42.95809" lon="1.76463">
        <ele>439</ele>
        <time>2016-07-13T14:28:21Z</time>
      </trkpt>
      <trkpt lat="42.95803" lon="1.76433">
        <ele>440</ele>
        <time>2016-07-13T14:30:21Z</time>
      </trkpt>
      <trkpt lat="42.95798" lon="1.7641">
        <ele>440</ele>
        <time>2016-07-13T14:32:21Z</time>
      </trkpt>
      <trkpt lat="42.95797" lon="1.76402">
        <ele>441</ele>
        <time>2016-07-13T14:34:21Z</time>
      </trkpt>
      <trkpt lat="42.95798" lon="1.76392">
        <ele>441</ele>
        <time>2016-07-13T14:36:21Z</time>
      </trkpt>
      <trkpt lat="42.95801" lon="1.76376">
        <ele>442</ele>
        <time>2016-07-13T14:38:21Z</time>
      </trkpt>
      <trkpt lat="42.95804" lon="1.76356">
        <ele>442</ele>
        <time>2016-07-13T14:40:21Z</time>
      </trkpt>
      <trkpt lat="42.95809" lon="1.76334">
        <ele>442</ele>
        <time>2016-07-13T14:42:21Z</time>
      </trkpt>
      <trkpt lat="42.9581" lon="1.76328">
        <ele>443</ele>
        <time>2016-07-13T14:44:21Z</time>
      </trkpt>
      <trkpt lat="42.9581" lon="1.76326">
        <ele>443</ele>
        <time>2016-07-13T14:46:21Z</time>
      </trkpt>
      <trkpt lat="42.9581" lon="1.76325">
        <ele>443</ele>
        <time>2016-07-13T14:48:21Z</time>
      </trkpt>
      <trkpt lat="42.9581" lon="1.76323">
        <ele>443</ele>
        <time>2016-07-13T14:50:21Z</time>
      </trkpt>
      <trkpt lat="42.95809" lon="1.76322">
        <ele>443</ele>
        <time>2016-07-13T14:52:21Z</time>
      </trkpt>
      <trkpt lat="42.95807" lon="1.76318">
        <ele>443</ele>
        <time>2016-07-13T14:54:21Z</time>
      </trkpt>
      <trkpt lat="42.95807" lon="1.76318">
        <ele>443</ele>
        <time>2016-07-13T14:56:21Z</time>
      </trkpt>
      <trkpt lat="42.95812" lon="1.7631">
        <ele>443</ele>
        <time>2016-07-13T14:58:21Z</time>
      </trkpt>
      <trkpt lat="42.95817" lon="1.76305">
        <ele>443</ele>
        <time>2016-07-13T15:00:21Z</time>
      </trkpt>
      <trkpt lat="42.95821" lon="1.76302">
        <ele>443</ele>
        <time>2016-07-13T15:02:21Z</time>
      </trkpt>
      <trkpt lat="42.95824" lon="1.763">
        <ele>443</ele>
        <time>2016-07-13T15:04:21Z</time>
      </trkpt>
      <trkpt lat="42.95832" lon="1.76297">
        <ele>442</ele>
        <time>2016-07-13T15:06:21Z</time>
      </trkpt>
      <trkpt lat="42.9584" lon="1.76294">
        <ele>442</ele>
        <time>2016-07-13T15:08:21Z</time>
      </trkpt>
      <trkpt lat="42.95844" lon="1.76293">
        <ele>442</ele>
        <time>2016-07-13T15:10:21Z</time>
      </trkpt>
      <trkpt lat="42.9585" lon="1.76292">
        <ele>442</ele>
        <time>2016-07-13T15:12:21Z</time>
      </trkpt>
      <trkpt lat="42.95855" lon="1.76291">
        <ele>442</ele>
        <time>2016-07-13T15:14:21Z</time>
      </trkpt>
      <trkpt lat="42.95863" lon="1.76289">
        <ele>442</ele>
        <time>2016-07-13T15:16:21Z</time>
      </trkpt>
      <trkpt lat="42.95878" lon="1.76283">
        <ele>442</ele>
        <time>2016-07-13T15:18:21Z</time>
      </trkpt>
      <trkpt lat="42.95888" lon="1.76279">
        <ele>442</ele>
        <time>2016-07-13T15:20:21Z</time>
      </trkpt>
      <trkpt lat="42.95903" lon="1.76273">
        <ele>442</ele>
        <time>2016-07-13T15:22:21Z</time>
      </trkpt>
      <trkpt lat="42.95916" lon="1.7627">
        <ele>442</ele>
        <time>2016-07-13T15:24:21Z</time>
      </trkpt>
      <trkpt lat="42.95948" lon="1.76261">
        <ele>447</ele>
        <time>2016-07-13T15:26:21Z</time>
      </trkpt>
      <trkpt lat="42.95973" lon="1.76253">
        <ele>450</ele>
        <time>2016-07-13T15:28:21Z</time>
      </trkpt>
      <trkpt lat="42.9598" lon="1.76251">
        <ele>451</ele>
        <time>2016-07-13T15:30:21Z</time>
      </trkpt>
      <trkpt lat="42.95986" lon="1.76251">
        <ele>452</ele>
        <time>2016-07-13T15:32:21Z</time>
      </trkpt>
      <trkpt lat="42.95991" lon="1.76251">
        <ele>453</ele>
        <time>2016-07-13T15:34:21Z</time>
      </trkpt>
      <trkpt lat="42.95992" lon="1.76251">
        <ele>453</ele>
        <time>2016-07-13T15:36:21Z</time>
      </trkpt>
      <trkpt lat="42.95997" lon="1.76249">
        <ele>454</ele>
        <time>2016-07-13T15:38:21Z</time>
      </trkpt>
      <trkpt lat="42.96001" lon="1.76246">
        <ele>454</ele>
        <time>2016-07-13T15:40:21Z</time>
      </trkpt>
      <trkpt lat="42.96005" lon="1.7624">
        <ele>455</ele>
        <time>2016-07-13T15:42:21Z</time>
      </trkpt>
      <trkpt lat="42.96008" lon="1.76233">
        <ele>455</ele>
        <time>2016-07-13T15:44:21Z</time>
      </trkpt>
      <trkpt lat="42.96013" lon="1.7622">
        <ele>456</ele>
        <time>2016-07-13T15:46:21Z</time>
      </trkpt>
      <trkpt lat="42.96016" lon="1.7621">
        <ele>457</ele>
        <time>2016-07-13T15:48:21Z</time>
      </trkpt>
      <trkpt lat="42.9602" lon="1.76198">
        <ele>458</ele>
        <time>2016-07-13T15:50:21Z</time>
      </trkpt>
      <trkpt lat="42.96032" lon="1.76168">
        <ele>460</ele>
        <time>2016-07-13T15:52:21Z</time>
      </trkpt>
      <trkpt lat="42.96042" lon="1.76136">
        <ele>462</ele>
        <time>2016-07-13T15:54:21Z</time>
      </trkpt>
      <trkpt lat="42.96051" lon="1.76106">
        <ele>463</ele>
        <time>2016-07-13T15:56:21Z</time>
      </trkpt>
      <trkpt lat="42.96055" lon="1.76089">
        <ele>464</ele>
        <time>2016-07-13T15:58:21Z</time>
      </trkpt>
      <trkpt lat="42.96057" lon="1.76082">
        <ele>465</ele>
        <time>2016-07-13T16:00:21Z</time>
      </trkpt>
      <trkpt lat="42.96058" lon="1.76074">
        <ele>465</ele>
        <time>2016-07-13T16:02:21Z</time>
      </trkpt>
      <trkpt lat="42.96058" lon="1.76074">
        <ele>465</ele>
        <time>2016-07-13T16:04:21Z</time>
      </trkpt>
      <trkpt lat="42.96053" lon="1.7607">
        <ele>464</ele>
        <time>2016-07-13T16:06:21Z</time>
      </trkpt>
      <trkpt lat="42.9605" lon="1.76067">
        <ele>464</ele>
        <time>2016-07-13T16:08:21Z</time>
      </trkpt>
      <trkpt lat="42.96046" lon="1.76062">
        <ele>463</ele>
        <time>2016-07-13T16:10:21Z</time>
      </trkpt>
      <trkpt lat="42.96043" lon="1.76056">
        <ele>463</ele>
        <time>2016-07-13T16:12:21Z</time>
      </trkpt>
      <trkpt lat="42.9604" lon="1.76049">
        <ele>463</ele>
        <time>2016-07-13T16:14:21Z</time>
      </trkpt>
      <trkpt lat="42.96038" lon="1.76035">
        <ele>463</ele>
        <time>2016-07-13T16:16:21Z</time>
      </trkpt>
      <trkpt lat="42.96038" lon="1.76018">
        <ele>463</ele>
        <time>2016-07-13T16:18:21Z</time>
      </trkpt>
      <trkpt lat="42.96039" lon="1.76007">
        <ele>464</ele>
        <time>2016-07-13T16:20:21Z</time>
      </trkpt>
      <trkpt lat="42.9604" lon="1.75996">
        <ele>464</ele>
        <time>2016-07-13T16:22:21Z</time>
      </trkpt>
      <trkpt lat="42.96043" lon="1.75984">
        <ele>464</ele>
        <time>2016-07-13T16:24:21Z</time>
      </trkpt>
      <trkpt lat="42.96046" lon="1.75975">
        <ele>465</ele>
        <time>2016-07-13T16:26:21Z</time>
      </trkpt>
      <trkpt lat="42.96055" lon="1.75956">
        <ele>466</ele>
        <time>2016-07-13T16:28:21Z</time>
      </trkpt>
      <trkpt lat="42.96088" lon="1.75898">
        <ele>471</ele>
        <time>2016-07-13T16:30:21Z</time>
      </trkpt>
      <trkpt lat="42.96104" lon="1.75868">
        <ele>473</ele>
        <time>2016-07-13T16:32:21Z</time>
      </trkpt>
      <trkpt lat="42.96111" lon="1.75852">
        <ele>474</ele>
        <time>2016-07-13T16:34:21Z</time>
      </trkpt>
      <trkpt lat="42.96117" lon="1.75837">
        <ele>475</ele>
        <time>2016-07-13T16:36:21Z</time>
      </trkpt>
      <trkpt lat="42.9612" lon="1.75825">
        <ele>476</ele>
        <time>2016-07-13T16:38:21Z</time>
      </trkpt>
      <trkpt lat="42.96121" lon="1.75814">
        <ele>476</ele>
        <time>2016-07-13T16:40:21Z</time>
      </trkpt>
      <trkpt lat="42.9612" lon="1.75801">
        <ele>476</ele>
        <time>2016-07-13T16:42:21Z</time>
      </trkpt>
      <trkpt lat="42.96119" lon="1.7579">
        <ele>476</ele>
        <time>2016-07-13T16:44:21Z</time>
      </trkpt>
      <trkpt lat="42.96117" lon="1.75778">
        <ele>476</ele>
        <time>2016-07-13T16:46:21Z</time>
      </trkpt>
      <trkpt lat="42.9611" lon="1.75745">
        <ele>476</ele>
        <time>2016-07-13T16:48:21Z</time>
      </trkpt>
      <trkpt lat="42.96101" lon="1.75706">
        <ele>475</ele>
        <time>2016-07-13T16:50:21Z</time>
      </trkpt>
      <trkpt lat="42.96091" lon="1.75664">
        <ele>474</ele>
        <time>2016-07-13T16:52:21Z</time>
      </trkpt>
      <trkpt lat="42.96087" lon="1.75644">
        <ele>474</ele>
        <time>2016-07-13T16:54:21Z</time>
      </trkpt>
      <trkpt lat="42.96086" lon="1.75637">
        <ele>474</ele>
        <time>2016-07-13T16:56:21Z</time>
      </trkpt>
      <trkpt lat="42.96087" lon="1.7563">
        <ele>474</ele>
        <time>2016-07-13T16:58:21Z</time>
      </trkpt>
      <trkpt lat="42.96088" lon="1.75625">
        <ele>474</ele>
        <time>2016-07-13T17:00:21Z</time>
      </trkpt>
      <trkpt lat="42.9609" lon="1.75619">
        <ele>474</ele>
        <time>2016-07-13T17:02:21Z</time>
      </trkpt>
      <trkpt lat="42.96093" lon="1.75613">
        <ele>475</ele>
        <time>2016-07-13T17:04:21Z</time>
      </trkpt>
      <trkpt lat="42.96097" lon="1.75607">
        <ele>475</ele>
        <time>2016-07-13T17:06:21Z</time>
      </trkpt>
      <trkpt lat="42.96099" lon="1.75604">
        <ele>475</ele>
        <time>2016-07-13T17:08:21Z</time>
      </trkpt>
      <trkpt lat="42.96149" lon="1.7555">
        <ele>479</ele>
        <time>2016-07-13T17:10:21Z</time>
      </trkpt>
      <trkpt lat="42.96161" lon="1.75535">
        <ele>480</ele>
        <time>2016-07-13T17:12:21Z</time>
      </trkpt>
      <trkpt lat="42.96171" lon="1.75522">
        <ele>481</ele>
        <time>2016-07-13T17:14:21Z</time>
      </trkpt>
      <trkpt lat="42.96175" lon="1.75517">
        <ele>481</ele>
        <time>2016-07-13T17:16:21Z</time>
      </trkpt>
      <trkpt lat="42.96196" lon="1.75485">
        <ele>483</ele>
        <time>2016-07-13T17:18:21Z</time>
      </trkpt>
      <trkpt lat="42.96206" lon="1.75471">
        <ele>484</ele>
        <time>2016-07-13T17:20:21Z</time>
      </trkpt>
      <trkpt lat="42.96233" lon="1.75432">
        <ele>487</ele>
        <time>2016-07-13T17:22:21Z</time>
      </trkpt>
      <trkpt lat="42.96247" lon="1.75412">
        <ele>488</ele>
        <time>2016-07-13T17:24:21Z</time>
      </trkpt>
      <trkpt lat="42.96251" lon="1.75404">
        <ele>488</ele>
        <time>2016-07-13T17:26:21Z</time>
      </trkpt>
      <trkpt lat="42.96254" lon="1.75395">
        <ele>489</ele>
        <time>2016-07-13T17:28:21Z</time>
      </trkpt>
      <trkpt lat="42.96257" lon="1.75386">
        <ele>489</ele>
        <time>2016-07-13T17:30:21Z</time>
      </trkpt>
      <trkpt lat="42.96259" lon="1.75375">
        <ele>489</ele>
        <time>2016-07-13T17:32:21Z</time>
      </trkpt>
      <trkpt lat="42.96261" lon="1.75362">
        <ele>489</ele>
        <time>2016-07-13T17:34:21Z</time>
      </trkpt>
      <trkpt lat="42.96261" lon="1.75352">
        <ele>489</ele>
        <time>2016-07-13T17:36:21Z</time>
      </trkpt>
      <trkpt lat="42.9626" lon="1.75334">
        <ele>489</ele>
        <time>2016-07-13T17:38:21Z</time>
      </trkpt>
      <trkpt lat="42.96259" lon="1.75327">
        <ele>488</ele>
        <time>2016-07-13T17:40:21Z</time>
      </trkpt>
      <trkpt lat="42.96257" lon="1.75302">
        <ele>487</ele>
        <time>2016-07-13T17:42:21Z</time>
      </trkpt>
      <trkpt lat="42.96256" lon="1.75291">
        <ele>487</ele>
        <time>2016-07-13T17:44:21Z</time>
      </trkpt>
      <trkpt lat="42.96256" lon="1.75283">
        <ele>487</ele>
        <time>2016-07-13T17:46:21Z</time>
      </trkpt>
      <trkpt lat="42.96257" lon="1.75273">
        <ele>487</ele>
        <time>2016-07-13T17:48:21Z</time>
      </trkpt>
      <trkpt lat="42.96259" lon="1.75261">
        <ele>487</ele>
        <time>2016-07-13T17:50:21Z</time>
      </trkpt>
      <trkpt lat="42.96262" lon="1.75248">
        <ele>487</ele>
        <time>2016-07-13T17:52:21Z</time>
      </trkpt>
      <trkpt lat="42.96267" lon="1.75226">
        <ele>487</ele>
        <time>2016-07-13T17:54:21Z</time>
      </trkpt>
      <trkpt lat="42.96275" lon="1.75195">
        <ele>488</ele>
        <time>2016-07-13T17:56:21Z</time>
      </trkpt>
      <trkpt lat="42.96285" lon="1.7515">
        <ele>490</ele>
        <time>2016-07-13T17:58:21Z</time>
      </trkpt>
      <trkpt lat="42.96296" lon="1.75101">
        <ele>494</ele>
        <time>2016-07-13T18:00:21Z</time>
      </trkpt>
      <trkpt lat="42.96297" lon="1.75094">
        <ele>495</ele>
        <time>2016-07-13T18:02:21Z</time>
      </trkpt>
      <trkpt lat="42.96298" lon="1.75089">
        <ele>495</ele>
        <time>2016-07-13T18:04:21Z</time>
      </trkpt>
      <trkpt lat="42.96297" lon="1.7508">
        <ele>495</ele>
        <time>2016-07-13T18:06:21Z</time>
      </trkpt>
      <trkpt lat="42.96296" lon="1.75075">
        <ele>495</ele>
        <time>2016-07-13T18:08:21Z</time>
      </trkpt>
      <trkpt lat="42.96295" lon="1.75072">
        <ele>495</ele>
        <time>2016-07-13T18:10:21Z</time>
      </trkpt>
      <trkpt lat="42.96293" lon="1.75067">
        <ele>495</ele>
        <time>2016-07-13T18:12:21Z</time>
      </trkpt>
      <trkpt lat="42.9629" lon="1.7506">
        <ele>495</ele>
        <time>2016-07-13T18:14:21Z</time>
      </trkpt>
      <trkpt lat="42.96284" lon="1.75055">
        <ele>494</ele>
        <time>2016-07-13T18:16:21Z</time>
      </trkpt>
      <trkpt lat="42.96275" lon="1.75048">
        <ele>492</ele>
        <time>2016-07-13T18:18:21Z</time>
      </trkpt>
      <trkpt lat="42.96261" lon="1.75037">
        <ele>490</ele>
        <time>2016-07-13T18:20:21Z</time>
      </trkpt>
      <trkpt lat="42.96255" lon="1.7503">
        <ele>489</ele>
        <time>2016-07-13T18:22:21Z</time>
      </trkpt>
      <trkpt lat="42.96251" lon="1.75023">
        <ele>488</ele>
        <time>2016-07-13T18:24:21Z</time>
      </trkpt>
      <trkpt lat="42.96248" lon="1.75016">
        <ele>488</ele>
        <time>2016-07-13T18:26:21Z</time>
      </trkpt>
      <trkpt lat="42.96245" lon="1.75009">
        <ele>488</ele>
        <time>2016-07-13T18:28:21Z</time>
      </trkpt>
      <trkpt lat="42.96243" lon="1.75001">
        <ele>488</ele>
        <time>2016-07-13T18:30:21Z</time>
      </trkpt>
      <trkpt lat="42.96242" lon="1.7499">
        <ele>489</ele>
        <time>2016-07-13T18:32:21Z</time>
      </trkpt>
      <trkpt lat="42.96241" lon="1.7498">
        <ele>489</ele>
        <time>2016-07-13T18:34:21Z</time>
      </trkpt>
      <trkpt lat="42.9624" lon="1.74963">
        <ele>489</ele>
        <time>2016-07-13T18:36:21Z</time>
      </trkpt>
      <trkpt lat="42.96238" lon="1.74923">
        <ele>491</ele>
        <time>2016-07-13T18:38:21Z</time>
      </trkpt>
      <trkpt lat="42.96234" lon="1.74858">
        <ele>495</ele>
        <time>2016-07-13T18:40:21Z</time>
      </trkpt>
      <trkpt lat="42.96231" lon="1.74796">
        <ele>500</ele>
        <time>2016-07-13T18:42:21Z</time>
      </trkpt>
      <trkpt lat="42.96228" lon="1.74751">
        <ele>503</ele>
        <time>2016-07-13T18:44:21Z</time>
      </trkpt>
      <trkpt lat="42.96228" lon="1.74736">
        <ele>503</ele>
        <time>2016-07-13T18:46:21Z</time>
      </trkpt>
      <trkpt lat="42.96228" lon="1.7472">
        <ele>503</ele>
        <time>2016-07-13T18:48:21Z</time>
      </trkpt>
      <trkpt lat="42.9623" lon="1.7471">
        <ele>504</ele>
        <time>2016-07-13T18:50:21Z</time>
      </trkpt>
      <trkpt lat="42.96233" lon="1.74699">
        <ele>505</ele>
        <time>2016-07-13T18:52:21Z</time>
      </trkpt>
      <trkpt lat="42.96236" lon="1.74689">
        <ele>505</ele>
        <time>2016-07-13T18:54:21Z</time>
      </trkpt>
      <trkpt lat="42.96241" lon="1.74679">
        <ele>507</ele>
        <time>2016-07-13T18:56:21Z</time>
      </trkpt>
      <trkpt lat="42.96247" lon="1.74669">
        <ele>508</ele>
        <time>2016-07-13T18:58:21Z</time>
      </trkpt>
      <trkpt lat="42.96254" lon="1.74661">
        <ele>510</ele>
        <time>2016-07-13T19:00:21Z</time>
      </trkpt>
      <trkpt lat="42.96266" lon="1.7465">
        <ele>513</ele>
        <time>2016-07-13T19:02:21Z</time>
      </trkpt>
      <trkpt lat="42.96276" lon="1.74642">
        <ele>515</ele>
        <time>2016-07-13T19:04:21Z</time>
      </trkpt>
      <trkpt lat="42.96289" lon="1.74634">
        <ele>519</ele>
        <time>2016-07-13T19:06:21Z</time>
      </trkpt>
      <trkpt lat="42.96303" lon="1.74624">
        <ele>522</ele>
        <time>2016-07-13T19:08:21Z</time>
      </trkpt>
      <trkpt lat="42.96314" lon="1.74617">
        <ele>525</ele>
        <time>2016-07-13T19:10:21Z</time>
      </trkpt>
      <trkpt lat="42.96322" lon="1.7461">
        <ele>528</ele>
        <time>2016-07-13T19:12:21Z</time>
      </trkpt>
      <trkpt lat="42.9633" lon="1.74604">
        <ele>530</ele>
        <time>2016-07-13T19:14:21Z</time>
      </trkpt>
      <trkpt lat="42.96337" lon="1.74598">
        <ele>531</ele>
        <time>2016-07-13T19:16:21Z</time>
      </trkpt>
      <trkpt lat="42.96345" lon="1.74589">
        <ele>533</ele>
        <time>2016-07-13T19:18:21Z</time>
      </trkpt>
      <trkpt lat="42.96353" lon="1.74579">
        <ele>535</ele>
        <time>2016-07-13T19:20:21Z</time>
      </trkpt>
      <trkpt lat="42.96361" lon="1.74568">
        <ele>536</ele>
        <time>2016-07-13T19:22:21Z</time>
      </trkpt>
      <trkpt lat="42.96365" lon="1.7456">
        <ele>537</ele>
        <time>2016-07-13T19:24:21Z</time>
      </trkpt>
      <trkpt lat="42.96368" lon="1.74552">
        <ele>537</ele>
        <time>2016-07-13T19:26:21Z</time>
      </trkpt>
      <trkpt lat="42.96372" lon="1.74544">
        <ele>538</ele>
        <time>2016-07-13T19:28:21Z</time>
      </trkpt>
      <trkpt lat="42.96374" lon="1.74534">
        <ele>539</ele>
        <time>2016-07-13T19:30:21Z</time>
      </trkpt>
      <trkpt lat="42.96374" lon="1.74525">
        <ele>539</ele>
        <time>2016-07-13T19:32:21Z</time>
      </trkpt>
      <trkpt lat="42.96374" lon="1.74516">
        <ele>539</ele>
        <time>2016-07-13T19:34:21Z</time>
      </trkpt>
      <trkpt lat="42.96374" lon="1.74506">
        <ele>539</ele>
        <time>2016-07-13T19:36:21Z</time>
      </trkpt>
      <trkpt lat="42.96371" lon="1.74491">
        <ele>538</ele>
        <time>2016-07-13T19:38:21Z</time>
      </trkpt>
      <trkpt lat="42.96366" lon="1.74473">
        <ele>536</ele>
        <time>2016-07-13T19:40:21Z</time>
      </trkpt>
      <trkpt lat="42.96361" lon="1.74456">
        <ele>535</ele>
        <time>2016-07-13T19:42:21Z</time>
      </trkpt>
      <trkpt lat="42.96351" lon="1.74437">
        <ele>532</ele>
        <time>2016-07-13T19:44:21Z</time>
      </trkpt>
      <trkpt lat="42.96334" lon="1.74406">
        <ele>527</ele>
        <time>2016-07-13T19:46:21Z</time>
      </trkpt>
      <trkpt lat="42.96309" lon="1.74364">
        <ele>518</ele>
        <time>2016-07-13T19:48:21Z</time>
      </trkpt>
      <trkpt lat="42.96301" lon="1.74349">
        <ele>515</ele>
        <time>2016-07-13T19:50:21Z</time>
      </trkpt>
      <trkpt lat="42.96297" lon="1.7434">
        <ele>514</ele>
        <time>2016-07-13T19:52:21Z</time>
      </trkpt>
      <trkpt lat="42.96295" lon="1.74331">
        <ele>513</ele>
        <time>2016-07-13T19:54:21Z</time>
      </trkpt>
      <trkpt lat="42.96294" lon="1.74324">
        <ele>512</ele>
        <time>2016-07-13T19:56:21Z</time>
      </trkpt>
      <trkpt lat="42.96294" lon="1.74316">
        <ele>512</ele>
        <time>2016-07-13T19:58:21Z</time>
      </trkpt>
      <trkpt lat="42.96294" lon="1.74308">
        <ele>512</ele>
        <time>2016-07-13T20:00:21Z</time>
      </trkpt>
      <trkpt lat="42.96294" lon="1.74301">
        <ele>511</ele>
        <time>2016-07-13T20:02:21Z</time>
      </trkpt>
      <trkpt lat="42.96295" lon="1.74293">
        <ele>511</ele>
        <time>2016-07-13T20:04:21Z</time>
      </trkpt>
      <trkpt lat="42.96296" lon="1.74283">
        <ele>511</ele>
        <time>2016-07-13T20:06:21Z</time>
      </trkpt>
      <trkpt lat="42.96299" lon="1.74272">
        <ele>511</ele>
        <time>2016-07-13T20:08:21Z</time>
      </trkpt>
      <trkpt lat="42.96299" lon="1.7427">
        <ele>511</ele>
        <time>2016-07-13T20:10:21Z</time>
      </trkpt>
      <trkpt lat="42.963" lon="1.74267">
        <ele>511</ele>
        <time>2016-07-13T20:12:21Z</time>
      </trkpt>
      <trkpt lat="42.96302" lon="1.74261">
        <ele>512</ele>
        <time>2016-07-13T20:14:21Z</time>
      </trkpt>
      <trkpt lat="42.96305" lon="1.74253">
        <ele>512</ele>
        <time>2016-07-13T20:16:21Z</time>
      </trkpt>
      <trkpt lat="42.96311" lon="1.74242">
        <ele>513</ele>
        <time>2016-07-13T20:18:21Z</time>
      </trkpt>
      <trkpt lat="42.96317" lon="1.74232">
        <ele>513</ele>
        <time>2016-07-13T20:20:21Z</time>
      </trkpt>
      <trkpt lat="42.96335" lon="1.74202">
        <ele>515</ele>
        <time>2016-07-13T20:22:21Z</time>
      </trkpt>
      <trkpt lat="42.96357" lon="1.74167">
        <ele>519</ele>
        <time>2016-07-13T20:24:21Z</time>
      </trkpt>
      <trkpt lat="42.96368" lon="1.74151">
        <ele>521</ele>
        <time>2016-07-13T20:26:21Z</time>
      </trkpt>
      <trkpt lat="42.96371" lon="1.74144">
        <ele>522</ele>
        <time>2016-07-13T20:28:21Z</time>
      </trkpt>
      <trkpt lat="42.96375" lon="1.74131">
        <ele>522</ele>
        <time>2016-07-13T20:30:21Z</time>
      </trkpt>
      <trkpt lat="42.96376" lon="1.74119">
        <ele>522</ele>
        <time>2016-07-13T20:32:21Z</time>
      </trkpt>
      <trkpt lat="42.96378" lon="1.74107">
        <ele>522</ele>
        <time>2016-07-13T20:34:21Z</time>
      </trkpt>
      <trkpt lat="42.96378" lon="1.74092">
        <ele>521</ele>
        <time>2016-07-13T20:36:21Z</time>
      </trkpt>
      <trkpt lat="42.96378" lon="1.7407">
        <ele>520</ele>
        <time>2016-07-13T20:38:21Z</time>
      </trkpt>
      <trkpt lat="42.96379" lon="1.74057">
        <ele>519</ele>
        <time>2016-07-13T20:40:21Z</time>
      </trkpt>
      <trkpt lat="42.96381" lon="1.74047">
        <ele>519</ele>
        <time>2016-07-13T20:42:21Z</time>
      </trkpt>
      <trkpt lat="42.96386" lon="1.74035">
        <ele>520</ele>
        <time>2016-07-13T20:44:21Z</time>
      </trkpt>
      <trkpt lat="42.96392" lon="1.74026">
        <ele>521</ele>
        <time>2016-07-13T20:46:21Z</time>
      </trkpt>
      <trkpt lat="42.96398" lon="1.74019">
        <ele>522</ele>
        <time>2016-07-13T20:48:21Z</time>
      </trkpt>
      <trkpt lat="42.96407" lon="1.74014">
        <ele>524</ele>
        <time>2016-07-13T20:50:21Z</time>
      </trkpt>
      <trkpt lat="42.96423" lon="1.74004">
        <ele>527</ele>
        <time>2016-07-13T20:52:21Z</time>
      </trkpt>
      <trkpt lat="42.96435" lon="1.73997">
        <ele>530</ele>
        <time>2016-07-13T20:54:21Z</time>
      </trkpt>
      <trkpt lat="42.96443" lon="1.7399">
        <ele>531</ele>
        <time>2016-07-13T20:56:21Z</time>
      </trkpt>
      <trkpt lat="42.9645" lon="1.73982">
        <ele>533</ele>
        <time>2016-07-13T20:58:21Z</time>
      </trkpt>
      <trkpt lat="42.96457" lon="1.73971">
        <ele>534</ele>
        <time>2016-07-13T21:00:21Z</time>
      </trkpt>
      <trkpt lat="42.96465" lon="1.73954">
        <ele>534</ele>
        <time>2016-07-13T21:02:21Z</time>
      </trkpt>
      <trkpt lat="42.9648" lon="1.73925">
        <ele>535</ele>
        <time>2016-07-13T21:04:21Z</time>
      </trkpt>
      <trkpt lat="42.96495" lon="1.73891">
        <ele>535</ele>
        <time>2016-07-13T21:06:21Z</time>
      </trkpt>
      <trkpt lat="42.96507" lon="1.73863">
        <ele>535</ele>
        <time>2016-07-13T21:08:21Z</time>
      </trkpt>
      <trkpt lat="42.96515" lon="1.73847">
        <ele>535</ele>
        <time>2016-07-13T21:10:21Z</time>
      </trkpt>
      <trkpt lat="42.96529" lon="1.73824">
        <ele>537</ele>
        <time>2016-07-13T21:12:21Z</time>
      </trkpt>
      <trkpt lat="42.96552" lon="1.73789">
        <ele>540</ele>
        <time>2016-07-13T21:14:21Z</time>
      </trkpt>
      <trkpt lat="42.96564" lon="1.73769">
        <ele>542</ele>
        <time>2016-07-13T21:16:21Z</time>
      </trkpt>
      <trkpt lat="42.96582" lon="1.73738">
        <ele>543</ele>
        <time>2016-07-13T21:18:21Z</time>
      </trkpt>
      <trkpt lat="42.96591" lon="1.73719">
        <ele>544</ele>
        <time>2016-07-13T21:20:21Z</time>
      </trkpt>
      <trkpt lat="42.9662" lon="1.73661">
        <ele>549</ele>
        <time>2016-07-13T21:22:21Z</time>
      </trkpt>
      <trkpt lat="42.96628" lon="1.73642">
        <ele>551</ele>
        <time>2016-07-13T21:24:21Z</time>
      </trkpt>
      <trkpt lat="42.96633" lon="1.73629">
        <ele>552</ele>
        <time>2016-07-13T21:26:21Z</time>
      </trkpt>
      <trkpt lat="42.96635" lon="1.73617">
        <ele>551</ele>
        <time>2016-07-13T21:28:21Z</time>
      </trkpt>
      <trkpt lat="42.96635" lon="1.73601">
        <ele>550</ele>
        <time>2016-07-13T21:30:21Z</time>
      </trkpt>
      <trkpt lat="42.96635" lon="1.73587">
        <ele>549</ele>
        <time>2016-07-13T21:32:21Z</time>
      </trkpt>
      <trkpt lat="42.96633" lon="1.73564">
        <ele>546</ele>
        <time>2016-07-13T21:34:21Z</time>
      </trkpt>
      <trkpt lat="42.96629" lon="1.73527">
        <ele>543</ele>
        <time>2016-07-13T21:36:21Z</time>
      </trkpt>
      <trkpt lat="42.96629" lon="1.73518">
        <ele>542</ele>
        <time>2016-07-13T21:38:21Z</time>
      </trkpt>
      <trkpt lat="42.96631" lon="1.73502">
        <ele>542</ele>
        <time>2016-07-13T21:40:21Z</time>
      </trkpt>
      <trkpt lat="42.96632" lon="1.73494">
        <ele>542</ele>
        <time>2016-07-13T21:42:21Z</time>
      </trkpt>
      <trkpt lat="42.96636" lon="1.73484">
        <ele>543</ele>
        <time>2016-07-13T21:44:21Z</time>
      </trkpt>
      <trkpt lat="42.96641" lon="1.73473">
        <ele>544</ele>
        <time>2016-07-13T21:46:21Z</time>
      </trkpt>
      <trkpt lat="42.96646" lon="1.7346">
        <ele>545</ele>
        <time>2016-07-13T21:48:21Z</time>
      </trkpt>
      <trkpt lat="42.96651" lon="1.73448">
        <ele>546</ele>
        <time>2016-07-13T21:50:21Z</time>
      </trkpt>
      <trkpt lat="42.96657" lon="1.73431">
        <ele>546</ele>
        <time>2016-07-13T21:52:21Z</time>
      </trkpt>
      <trkpt lat="42.96662" lon="1.73416">
        <ele>547</ele>
        <time>2016-07-13T21:54:21Z</time>
      </trkpt>
      <trkpt lat="42.96666" lon="1.73391">
        <ele>547</ele>
        <time>2016-07-13T21:56:21Z</time>
      </trkpt>
      <trkpt lat="42.96676" lon="1.73351">
        <ele>549</ele>
        <time>2016-07-13T21:58:21Z</time>
      </trkpt>
      <trkpt lat="42.9668" lon="1.73329">
        <ele>549</ele>
        <time>2016-07-13T22:00:21Z</time>
      </trkpt>
      <trkpt lat="42.96684" lon="1.73308">
        <ele>550</ele>
        <time>2016-07-13T22:02:21Z</time>
      </trkpt>
      <trkpt lat="42.96687" lon="1.73291">
        <ele>551</ele>
        <time>2016-07-13T22:04:21Z</time>
      </trkpt>
      <trkpt lat="42.96691" lon="1.73267">
        <ele>551</ele>
        <time>2016-07-13T22:06:21Z</time>
      </trkpt>
      <trkpt lat="42.96699" lon="1.73218">
        <ele>552</ele>
        <time>2016-07-13T22:08:21Z</time>
      </trkpt>
      <trkpt lat="42.96704" lon="1.73177">
        <ele>553</ele>
        <time>2016-07-13T22:10:21Z</time>
      </trkpt>
      <trkpt lat="42.96707" lon="1.7316">
        <ele>553</ele>
        <time>2016-07-13T22:12:21Z</time>
      </trkpt>
      <trkpt lat="42.96708" lon="1.73145">
        <ele>553</ele>
        <time>2016-07-13T22:14:21Z</time>
      </trkpt>
      <trkpt lat="42.96708" lon="1.7312">
        <ele>552</ele>
        <time>2016-07-13T22:16:21Z</time>
      </trkpt>
      <trkpt lat="42.96708" lon="1.7307">
        <ele>551</ele>
        <time>2016-07-13T22:18:21Z</time>
      </trkpt>
      <trkpt lat="42.96708" lon="1.73039">
        <ele>550</ele>
        <time>2016-07-13T22:20:21Z</time>
      </trkpt>
      <trkpt lat="42.96707" lon="1.72981">
        <ele>549</ele>
        <time>2016-07-13T22:22:21Z</time>
      </trkpt>
      <trkpt lat="42.96706" lon="1.72952">
        <ele>548</ele>
        <time>2016-07-13T22:24:21Z</time>
      </trkpt>
      <trkpt lat="42.96705" lon="1.72939">
        <ele>548</ele>
        <time>2016-07-13T22:26:21Z</time>
      </trkpt>
      <trkpt lat="42.96702" lon="1.72925">
        <ele>547</ele>
        <time>2016-07-13T22:28:21Z</time>
      </trkpt>
      <trkpt lat="42.96697" lon="1.72913">
        <ele>546</ele>
        <time>2016-07-13T22:30:21Z</time>
      </trkpt>
      <trkpt lat="42.9669" lon="1.729">
        <ele>545</ele>
        <time>2016-07-13T22:32:21Z</time>
      </trkpt>
      <trkpt lat="42.96673" lon="1.7288">
        <ele>543</ele>
        <time>2016-07-13T22:34:21Z</time>
      </trkpt>
      <trkpt lat="42.96669" lon="1.72874">
        <ele>542</ele>
        <time>2016-07-13T22:36:21Z</time>
      </trkpt>
      <trkpt lat="42.96659" lon="1.72862">
        <ele>542</ele>
        <time>2016-07-13T22:38:21Z</time>
      </trkpt>
      <trkpt lat="42.96648" lon="1.72847">
        <ele>542</ele>
        <time>2016-07-13T22:40:21Z</time>
      </trkpt>
      <trkpt lat="42.96641" lon="1.72832">
        <ele>542</ele>
        <time>2016-07-13T22:42:21Z</time>
      </trkpt>
      <trkpt lat="42.96637" lon="1.72816">
        <ele>542</ele>
        <time>2016-07-13T22:44:21Z</time>
      </trkpt>
      <trkpt lat="42.96635" lon="1.72803">
        <ele>542</ele>
        <time>2016-07-13T22:46:21Z</time>
      </trkpt>
      <trkpt lat="42.96635" lon="1.72792">
        <ele>542</ele>
        <time>2016-07-13T22:48:21Z</time>
      </trkpt>
      <trkpt lat="42.96637" lon="1.72782">
        <ele>541</ele>
        <time>2016-07-13T22:50:21Z</time>
      </trkpt>
      <trkpt lat="42.96641" lon="1.7277">
        <ele>541</ele>
        <time>2016-07-13T22:52:21Z</time>
      </trkpt>
      <trkpt lat="42.96645" lon="1.72761">
        <ele>541</ele>
        <time>2016-07-13T22:54:21Z</time>
      </trkpt>
      <trkpt lat="42.96652" lon="1.72747">
        <ele>541</ele>
        <time>2016-07-13T22:56:21Z</time>
      </trkpt>
      <trkpt lat="42.96663" lon="1.72725">
        <ele>541</ele>
        <time>2016-07-13T22:58:21Z</time>
      </trkpt>
      <trkpt lat="42.9667" lon="1.7271">
        <ele>541</ele>
        <time>2016-07-13T23:00:21Z</time>
      </trkpt>
      <trkpt lat="42.96677" lon="1.72695">
        <ele>541</ele>
        <time>2016-07-13T23:02:21Z</time>
      </trkpt>
      <trkpt lat="42.96682" lon="1.72679">
        <ele>541</ele>
        <time>2016-07-13T23:04:21Z</time>
      </trkpt>
      <trkpt lat="42.96683" lon="1.72672">
        <ele>541</ele>
        <time>2016-07-13T23:06:21Z</time>
      </trkpt>
      <trkpt lat="42.96683" lon="1.72662">
        <ele>541</ele>
        <time>2016-07-13T23:08:21Z</time>
      </trkpt>
      <trkpt lat="42.96682" lon="1.72648">
        <ele>541</ele>
        <time>2016-07-13T23:10:21Z</time>
      </trkpt>
      <trkpt lat="42.96679" lon="1.72636">
        <ele>541</ele>
        <time>2016-07-13T23:12:21Z</time>
      </trkpt>
      <trkpt lat="42.96659" lon="1.72581">
        <ele>540</ele>
        <time>2016-07-13T23:14:21Z</time>
      </trkpt>
      <trkpt lat="42.96653" lon="1.72559">
        <ele>540</ele>
        <time>2016-07-13T23:16:21Z</time>
      </trkpt>
      <trkpt lat="42.96651" lon="1.72551">
        <ele>540</ele>
        <time>2016-07-13T23:18:21Z</time>
      </trkpt>
      <trkpt lat="42.9665" lon="1.72541">
        <ele>541</ele>
        <time>2016-07-13T23:20:21Z</time>
      </trkpt>
      <trkpt lat="42.9665" lon="1.72531">
        <ele>541</ele>
        <time>2016-07-13T23:22:21Z</time>
      </trkpt>
      <trkpt lat="42.96652" lon="1.72522">
        <ele>540</ele>
        <time>2016-07-13T23:24:21Z</time>
      </trkpt>
      <trkpt lat="42.96654" lon="1.72513">
        <ele>540</ele>
        <time>2016-07-13T23:26:21Z</time>
      </trkpt>
      <trkpt lat="42.96657" lon="1.72503">
        <ele>540</ele>
        <time>2016-07-13T23:28:21Z</time>
      </trkpt>
      <trkpt lat="42.96667" lon="1.72485">
        <ele>540</ele>
        <time>2016-07-13T23:30:21Z</time>
      </trkpt>
      <trkpt lat="42.96674" lon="1.72473">
        <ele>540</ele>
        <time>2016-07-13T23:32:21Z</time>
      </trkpt>
      <trkpt lat="42.96681" lon="1.72461">
        <ele>540</ele>
        <time>2016-07-13T23:34:21Z</time>
      </trkpt>
      <trkpt lat="42.96698" lon="1.72435">
        <ele>540</ele>
        <time>2016-07-13T23:36:21Z</time>
      </trkpt>
      <trkpt lat="42.96729" lon="1.72387">
        <ele>540</ele>
        <time>2016-07-13T23:38:21Z</time>
      </trkpt>
      <trkpt lat="42.96752" lon="1.72351">
        <ele>540</ele>
        <time>2016-07-13T23:40:21Z</time>
      </trkpt>
      <trkpt lat="42.96785" lon="1.72299">
        <ele>543</ele>
        <time>2016-07-13T23:42:21Z</time>
      </trkpt>
      <trkpt lat="42.96794" lon="1.72285">
        <ele>543</ele>
        <time>2016-07-13T23:44:21Z</time>
      </trkpt>
      <trkpt lat="42.968" lon="1.72272">
        <ele>543</ele>
        <time>2016-07-13T23:46:21Z</time>
      </trkpt>
      <trkpt lat="42.96805" lon="1.72259">
        <ele>543</ele>
        <time>2016-07-13T23:48:21Z</time>
      </trkpt>
      <trkpt lat="42.9681" lon="1.72242">
        <ele>543</ele>
        <time>2016-07-13T23:50:21Z</time>
      </trkpt>
      <trkpt lat="42.96814" lon="1.72225">
        <ele>543</ele>
        <time>2016-07-13T23:52:21Z</time>
      </trkpt>
      <trkpt lat="42.96818" lon="1.72208">
        <ele>542</ele>
        <time>2016-07-13T23:54:21Z</time>
      </trkpt>
      <trkpt lat="42.96823" lon="1.72184">
        <ele>542</ele>
        <time>2016-07-13T23:56:21Z</time>
      </trkpt>
      <trkpt lat="42.96827" lon="1.72164">
        <ele>542</ele>
        <time>2016-07-13T23:58:21Z</time>
      </trkpt>
      <trkpt lat="42.96833" lon="1.72141">
        <ele>541</ele>
        <time>2016-07-14T00:00:21Z</time>
      </trkpt>
      <trkpt lat="42.96838" lon="1.72119">
        <ele>542</ele>
        <time>2016-07-14T00:02:21Z</time>
      </trkpt>
      <trkpt lat="42.96844" lon="1.72097">
        <ele>543</ele>
        <time>2016-07-14T00:04:21Z</time>
      </trkpt>
      <trkpt lat="42.96857" lon="1.72057">
        <ele>544</ele>
        <time>2016-07-14T00:06:21Z</time>
      </trkpt>
      <trkpt lat="42.9688" lon="1.7199">
        <ele>546</ele>
        <time>2016-07-14T00:08:21Z</time>
      </trkpt>
      <trkpt lat="42.96897" lon="1.71939">
        <ele>547</ele>
        <time>2016-07-14T00:10:21Z</time>
      </trkpt>
      <trkpt lat="42.96904" lon="1.71918">
        <ele>547</ele>
        <time>2016-07-14T00:12:21Z</time>
      </trkpt>
      <trkpt lat="42.96909" lon="1.71903">
        <ele>546</ele>
        <time>2016-07-14T00:14:21Z</time>
      </trkpt>
      <trkpt lat="42.96914" lon="1.71887">
        <ele>546</ele>
        <time>2016-07-14T00:16:21Z</time>
      </trkpt>
      <trkpt lat="42.96919" lon="1.71868">
        <ele>546</ele>
        <time>2016-07-14T00:18:21Z</time>
      </trkpt>
      <trkpt lat="42.96923" lon="1.71852">
        <ele>547</ele>
        <time>2016-07-14T00:20:21Z</time>
      </trkpt>
      <trkpt lat="42.96926" lon="1.71837">
        <ele>547</ele>
        <time>2016-07-14T00:22:21Z</time>
      </trkpt>
      <trkpt lat="42.96928" lon="1.7182">
        <ele>547</ele>
        <time>2016-07-14T00:24:21Z</time>
      </trkpt>
      <trkpt lat="42.9693" lon="1.71805">
        <ele>546</ele>
        <time>2016-07-14T00:26:21Z</time>
      </trkpt>
      <trkpt lat="42.96935" lon="1.71761">
        <ele>546</ele>
        <time>2016-07-14T00:28:21Z</time>
      </trkpt>
      <trkpt lat="42.96937" lon="1.71738">
        <ele>545</ele>
        <time>2016-07-14T00:30:21Z</time>
      </trkpt>
      <trkpt lat="42.96939" lon="1.71723">
        <ele>545</ele>
        <time>2016-07-14T00:32:21Z</time>
      </trkpt>
      <trkpt lat="42.96942" lon="1.71708">
        <ele>545</ele>
        <time>2016-07-14T00:34:21Z</time>
      </trkpt>
      <trkpt lat="42.96947" lon="1.71693">
        <ele>545</ele>
        <time>2016-07-14T00:36:21Z</time>
      </trkpt>
      <trkpt lat="42.96952" lon="1.71681">
        <ele>545</ele>
        <time>2016-07-14T00:38:21Z</time>
      </trkpt>
      <trkpt lat="42.96957" lon="1.71668">
        <ele>545</ele>
        <time>2016-07-14T00:40:21Z</time>
      </trkpt>
      <trkpt lat="42.96961" lon="1.71656">
        <ele>546</ele>
        <time>2016-07-14T00:42:21Z</time>
      </trkpt>
      <trkpt lat="42.96966" lon="1.71639">
        <ele>546</ele>
        <time>2016-07-14T00:44:21Z</time>
      </trkpt>
      <trkpt lat="42.96972" lon="1.7161">
        <ele>545</ele>
        <time>2016-07-14T00:46:21Z</time>
      </trkpt>
      <trkpt lat="42.96978" lon="1.71578">
        <ele>545</ele>
        <time>2016-07-14T00:48:21Z</time>
      </trkpt>
      <trkpt lat="42.96983" lon="1.7155">
        <ele>544</ele>
        <time>2016-07-14T00:50:21Z</time>
      </trkpt>
      <trkpt lat="42.96987" lon="1.71528">
        <ele>544</ele>
        <time>2016-07-14T00:52:21Z</time>
      </trkpt>
      <trkpt lat="42.9699" lon="1.71513">
        <ele>543</ele>
        <time>2016-07-14T00:54:21Z</time>
      </trkpt>
      <trkpt lat="42.96995" lon="1.71497">
        <ele>543</ele>
        <time>2016-07-14T00:56:21Z</time>
      </trkpt>
      <trkpt lat="42.97001" lon="1.71482">
        <ele>543</ele>
        <time>2016-07-14T00:58:21Z</time>
      </trkpt>
      <trkpt lat="42.97007" lon="1.7147">
        <ele>544</ele>
        <time>2016-07-14T01:00:21Z</time>
      </trkpt>
      <trkpt lat="42.97014" lon="1.71456">
        <ele>545</ele>
        <time>2016-07-14T01:02:21Z</time>
      </trkpt>
      <trkpt lat="42.97021" lon="1.71443">
        <ele>545</ele>
        <time>2016-07-14T01:04:21Z</time>
      </trkpt>
      <trkpt lat="42.97029" lon="1.71429">
        <ele>546</ele>
        <time>2016-07-14T01:06:21Z</time>
      </trkpt>
      <trkpt lat="42.97036" lon="1.71416">
        <ele>547</ele>
        <time>2016-07-14T01:08:21Z</time>
      </trkpt>
      <trkpt lat="42.97043" lon="1.71404">
        <ele>548</ele>
        <time>2016-07-14T01:10:21Z</time>
      </trkpt>
      <trkpt lat="42.97049" lon="1.71391">
        <ele>548</ele>
        <time>2016-07-14T01:12:21Z</time>
      </trkpt>
      <trkpt lat="42.97054" lon="1.71378">
        <ele>548</ele>
        <time>2016-07-14T01:14:21Z</time>
      </trkpt>
      <trkpt lat="42.97059" lon="1.71362">
        <ele>548</ele>
        <time>2016-07-14T01:16:21Z</time>
      </trkpt>
      <trkpt lat="42.97065" lon="1.71332">
        <ele>548</ele>
        <time>2016-07-14T01:18:21Z</time>
      </trkpt>
      <trkpt lat="42.97076" lon="1.71281">
        <ele>547</ele>
        <time>2016-07-14T01:20:21Z</time>
      </trkpt>
      <trkpt lat="42.9708" lon="1.71261">
        <ele>546</ele>
        <time>2016-07-14T01:22:21Z</time>
      </trkpt>
      <trkpt lat="42.97085" lon="1.71242">
        <ele>546</ele>
        <time>2016-07-14T01:24:21Z</time>
      </trkpt>
      <trkpt lat="42.97087" lon="1.71226">
        <ele>546</ele>
        <time>2016-07-14T01:26:21Z</time>
      </trkpt>
      <trkpt lat="42.97088" lon="1.71214">
        <ele>545</ele>
        <time>2016-07-14T01:28:21Z</time>
      </trkpt>
      <trkpt lat="42.97089" lon="1.71209">
        <ele>546</ele>
        <time>2016-07-14T01:30:21Z</time>
      </trkpt>
      <trkpt lat="42.97091" lon="1.71189">
        <ele>545</ele>
        <time>2016-07-14T01:32:21Z</time>
      </trkpt>
      <trkpt lat="42.97092" lon="1.71165">
        <ele>544</ele>
        <time>2016-07-14T01:34:21Z</time>
      </trkpt>
      <trkpt lat="42.97093" lon="1.71146">
        <ele>543</ele>
        <time>2016-07-14T01:36:21Z</time>
      </trkpt>
      <trkpt lat="42.97093" lon="1.71129">
        <ele>541</ele>
        <time>2016-07-14T01:38:21Z</time>
      </trkpt>
      <trkpt lat="42.97094" lon="1.71108">
        <ele>540</ele>
        <time>2016-07-14T01:40:21Z</time>
      </trkpt>
      <trkpt lat="42.97098" lon="1.71083">
        <ele>539</ele>
        <time>2016-07-14T01:42:21Z</time>
      </trkpt>
      <trkpt lat="42.97105" lon="1.71053">
        <ele>540</ele>
        <time>2016-07-14T01:44:21Z</time>
      </trkpt>
      <trkpt lat="42.9711" lon="1.71035">
        <ele>540</ele>
        <time>2016-07-14T01:46:21Z</time>
      </trkpt>
      <trkpt lat="42.97114" lon="1.7102">
        <ele>541</ele>
        <time>2016-07-14T01:48:21Z</time>
      </trkpt>
      <trkpt lat="42.9712" lon="1.71004">
        <ele>542</ele>
        <time>2016-07-14T01:50:21Z</time>
      </trkpt>
      <trkpt lat="42.97125" lon="1.70993">
        <ele>542</ele>
        <time>2016-07-14T01:52:21Z</time>
      </trkpt>
      <trkpt lat="42.97142" lon="1.70953">
        <ele>545</ele>
        <time>2016-07-14T01:54:21Z</time>
      </trkpt>
      <trkpt lat="42.97163" lon="1.70907">
        <ele>547</ele>
        <time>2016-07-14T01:56:21Z</time>
      </trkpt>
      <trkpt lat="42.9717" lon="1.7089">
        <ele>548</ele>
        <time>2016-07-14T01:58:21Z</time>
      </trkpt>
      <trkpt lat="42.97174" lon="1.70871">
        <ele>548</ele>
        <time>2016-07-14T02:00:21Z</time>
      </trkpt>
      <trkpt lat="42.97177" lon="1.70855">
        <ele>548</ele>
        <time>2016-07-14T02:02:21Z</time>
      </trkpt>
      <trkpt lat="42.9718" lon="1.70835">
        <ele>548</ele>
        <time>2016-07-14T02:04:21Z</time>
      </trkpt>
      <trkpt lat="42.97183" lon="1.70813">
        <ele>547</ele>
        <time>2016-07-14T02:06:21Z</time>
      </trkpt>
      <trkpt lat="42.97185" lon="1.70796">
        <ele>546</ele>
        <time>2016-07-14T02:08:21Z</time>
      </trkpt>
      <trkpt lat="42.97188" lon="1.70778">
        <ele>546</ele>
        <time>2016-07-14T02:10:21Z</time>
      </trkpt>
      <trkpt lat="42.97191" lon="1.70757">
        <ele>546</ele>
        <time>2016-07-14T02:12:21Z</time>
      </trkpt>
      <trkpt lat="42.97193" lon="1.70743">
        <ele>546</ele>
        <time>2016-07-14T02:14:21Z</time>
      </trkpt>
      <trkpt lat="42.97196" lon="1.70729">
        <ele>546</ele>
        <time>2016-07-14T02:16:21Z</time>
      </trkpt>
      <trkpt lat="42.97197" lon="1.70714">
        <ele>545</ele>
        <time>2016-07-14T02:18:21Z</time>
      </trkpt>
      <trkpt lat="42.97198" lon="1.707">
        <ele>545</ele>
        <time>2016-07-14T02:20:21Z</time>
      </trkpt>
      <trkpt lat="42.97197" lon="1.70685">
        <ele>543</ele>
        <time>2016-07-14T02:22:21Z</time>
      </trkpt>
      <trkpt lat="42.97196" lon="1.70669">
        <ele>542</ele>
        <time>2016-07-14T02:24:21Z</time>
      </trkpt>
      <trkpt lat="42.97195" lon="1.70654">
        <ele>541</ele>
        <time>2016-07-14T02:26:21Z</time>
      </trkpt>
      <trkpt lat="42.97194" lon="1.7064">
        <ele>540</ele>
        <time>2016-07-14T02:28:21Z</time>
      </trkpt>
      <trkpt lat="42.97195" lon="1.70625">
        <ele>539</ele>
        <time>2016-07-14T02:30:21Z</time>
      </trkpt>
      <trkpt lat="42.97198" lon="1.7061">
        <ele>540</ele>
        <time>2016-07-14T02:32:21Z</time>
      </trkpt>
      <trkpt lat="42.97201" lon="1.70593">
        <ele>540</ele>
        <time>2016-07-14T02:34:21Z</time>
      </trkpt>
      <trkpt lat="42.9721" lon="1.70558">
        <ele>542</ele>
        <time>2016-07-14T02:36:21Z</time>
      </trkpt>
      <trkpt lat="42.9722" lon="1.70512">
        <ele>543</ele>
        <time>2016-07-14T02:38:21Z</time>
      </trkpt>
      <trkpt lat="42.97226" lon="1.70486">
        <ele>545</ele>
        <time>2016-07-14T02:40:21Z</time>
      </trkpt>
      <trkpt lat="42.97228" lon="1.70472">
        <ele>545</ele>
        <time>2016-07-14T02:42:21Z</time>
      </trkpt>
      <trkpt lat="42.97231" lon="1.7046">
        <ele>546</ele>
        <time>2016-07-14T02:44:21Z</time>
      </trkpt>
      <trkpt lat="42.97231" lon="1.70449">
        <ele>545</ele>
        <time>2016-07-14T02:46:21Z</time>
      </trkpt>
      <trkpt lat="42.97229" lon="1.7044">
        <ele>544</ele>
        <time>2016-07-14T02:48:21Z</time>
      </trkpt>
      <trkpt lat="42.97226" lon="1.70432">
        <ele>543</ele>
        <time>2016-07-14T02:50:21Z</time>
      </trkpt>
      <trkpt lat="42.97222" lon="1.70424">
        <ele>541</ele>
        <time>2016-07-14T02:52:21Z</time>
      </trkpt>
      <trkpt lat="42.97216" lon="1.70417">
        <ele>539</ele>
        <time>2016-07-14T02:54:21Z</time>
      </trkpt>
      <trkpt lat="42.97211" lon="1.7041">
        <ele>538</ele>
        <time>2016-07-14T02:56:21Z</time>
      </trkpt>
      <trkpt lat="42.97206" lon="1.70402">
        <ele>536</ele>
        <time>2016-07-14T02:58:21Z</time>
      </trkpt>
      <trkpt lat="42.97202" lon="1.70395">
        <ele>535</ele>
        <time>2016-07-14T03:00:21Z</time>
      </trkpt>
      <trkpt lat="42.97199" lon="1.70388">
        <ele>534</ele>
        <time>2016-07-14T03:02:21Z</time>
      </trkpt>
      <trkpt lat="42.97198" lon="1.70379">
        <ele>533</ele>
        <time>2016-07-14T03:04:21Z</time>
      </trkpt>
      <trkpt lat="42.97198" lon="1.70371">
        <ele>533</ele>
        <time>2016-07-14T03:06:21Z</time>
      </trkpt>
      <trkpt lat="42.97202" lon="1.70348">
        <ele>534</ele>
        <time>2016-07-14T03:08:21Z</time>
      </trkpt>
      <trkpt lat="42.97203" lon="1.70336">
        <ele>534</ele>
        <time>2016-07-14T03:10:21Z</time>
      </trkpt>
      <trkpt lat="42.97206" lon="1.70312">
        <ele>535</ele>
        <time>2016-07-14T03:12:21Z</time>
      </trkpt>
      <trkpt lat="42.97207" lon="1.70295">
        <ele>535</ele>
        <time>2016-07-14T03:14:21Z</time>
      </trkpt>
      <trkpt lat="42.97207" lon="1.70278">
        <ele>535</ele>
        <time>2016-07-14T03:16:21Z</time>
      </trkpt>
      <trkpt lat="42.97207" lon="1.70264">
        <ele>535</ele>
        <time>2016-07-14T03:18:21Z</time>
      </trkpt>
      <trkpt lat="42.97206" lon="1.70249">
        <ele>534</ele>
        <time>2016-07-14T03:20:21Z</time>
      </trkpt>
      <trkpt lat="42.97204" lon="1.70238">
        <ele>534</ele>
        <time>2016-07-14T03:22:21Z</time>
      </trkpt>
      <trkpt lat="42.97202" lon="1.70222">
        <ele>533</ele>
        <time>2016-07-14T03:24:21Z</time>
      </trkpt>
      <trkpt lat="42.97196" lon="1.70195">
        <ele>531</ele>
        <time>2016-07-14T03:26:21Z</time>
      </trkpt>
      <trkpt lat="42.97194" lon="1.7018">
        <ele>531</ele>
        <time>2016-07-14T03:28:21Z</time>
      </trkpt>
      <trkpt lat="42.97193" lon="1.70169">
        <ele>530</ele>
        <time>2016-07-14T03:30:21Z</time>
      </trkpt>
      <trkpt lat="42.97192" lon="1.70158">
        <ele>530</ele>
        <time>2016-07-14T03:32:21Z</time>
      </trkpt>
      <trkpt lat="42.97192" lon="1.70149">
        <ele>530</ele>
        <time>2016-07-14T03:34:21Z</time>
      </trkpt>
      <trkpt lat="42.97192" lon="1.70139">
        <ele>530</ele>
        <time>2016-07-14T03:36:21Z</time>
      </trkpt>
      <trkpt lat="42.97194" lon="1.70128">
        <ele>530</ele>
        <time>2016-07-14T03:38:21Z</time>
      </trkpt>
      <trkpt lat="42.97197" lon="1.70119">
        <ele>530</ele>
        <time>2016-07-14T03:40:21Z</time>
      </trkpt>
      <trkpt lat="42.972" lon="1.7011">
        <ele>530</ele>
        <time>2016-07-14T03:42:21Z</time>
      </trkpt>
      <trkpt lat="42.97204" lon="1.70102">
        <ele>531</ele>
        <time>2016-07-14T03:44:21Z</time>
      </trkpt>
      <trkpt lat="42.97214" lon="1.70085">
        <ele>532</ele>
        <time>2016-07-14T03:46:21Z</time>
      </trkpt>
      <trkpt lat="42.97221" lon="1.70068">
        <ele>533</ele>
        <time>2016-07-14T03:48:21Z</time>
      </trkpt>
      <trkpt lat="42.97225" lon="1.70058">
        <ele>533</ele>
        <time>2016-07-14T03:50:21Z</time>
      </trkpt>
      <trkpt lat="42.97227" lon="1.70049">
        <ele>533</ele>
        <time>2016-07-14T03:52:21Z</time>
      </trkpt>
      <trkpt lat="42.9723" lon="1.70038">
        <ele>533</ele>
        <time>2016-07-14T03:54:21Z</time>
      </trkpt>
      <trkpt lat="42.97231" lon="1.70029">
        <ele>533</ele>
        <time>2016-07-14T03:56:21Z</time>
      </trkpt>
      <trkpt lat="42.97232" lon="1.70019">
        <ele>533</ele>
        <time>2016-07-14T03:58:21Z</time>
      </trkpt>
      <trkpt lat="42.97233" lon="1.70008">
        <ele>533</ele>
        <time>2016-07-14T04:00:21Z</time>
      </trkpt>
      <trkpt lat="42.97235" lon="1.69969">
        <ele>532</ele>
        <time>2016-07-14T04:02:21Z</time>
      </trkpt>
      <trkpt lat="42.97237" lon="1.6993">
        <ele>531</ele>
        <time>2016-07-14T04:04:21Z</time>
      </trkpt>
      <trkpt lat="42.97237" lon="1.69919">
        <ele>531</ele>
        <time>2016-07-14T04:06:21Z</time>
      </trkpt>
      <trkpt lat="42.97236" lon="1.6991">
        <ele>531</ele>
        <time>2016-07-14T04:08:21Z</time>
      </trkpt>
      <trkpt lat="42.97233" lon="1.69901">
        <ele>530</ele>
        <time>2016-07-14T04:10:21Z</time>
      </trkpt>
      <trkpt lat="42.9723" lon="1.69892">
        <ele>529</ele>
        <time>2016-07-14T04:12:21Z</time>
      </trkpt>
      <trkpt lat="42.97227" lon="1.69884">
        <ele>528</ele>
        <time>2016-07-14T04:14:21Z</time>
      </trkpt>
      <trkpt lat="42.9722" lon="1.69862">
        <ele>527</ele>
        <time>2016-07-14T04:16:21Z</time>
      </trkpt>
      <trkpt lat="42.97217" lon="1.69852">
        <ele>526</ele>
        <time>2016-07-14T04:18:21Z</time>
      </trkpt>
      <trkpt lat="42.97216" lon="1.69842">
        <ele>525</ele>
        <time>2016-07-14T04:20:21Z</time>
      </trkpt>
      <trkpt lat="42.97216" lon="1.69832">
        <ele>525</ele>
        <time>2016-07-14T04:22:21Z</time>
      </trkpt>
      <trkpt lat="42.97218" lon="1.69822">
        <ele>525</ele>
        <time>2016-07-14T04:24:21Z</time>
      </trkpt>
      <trkpt lat="42.9722" lon="1.69813">
        <ele>525</ele>
        <time>2016-07-14T04:26:21Z</time>
      </trkpt>
      <trkpt lat="42.97222" lon="1.69806">
        <ele>525</ele>
        <time>2016-07-14T04:28:21Z</time>
      </trkpt>
      <trkpt lat="42.97248" lon="1.69704">
        <ele>524</ele>
        <time>2016-07-14T04:30:21Z</time>
      </trkpt>
      <trkpt lat="42.97251" lon="1.69695">
        <ele>524</ele>
        <time>2016-07-14T04:32:21Z</time>
      </trkpt>
      <trkpt lat="42.97254" lon="1.69688">
        <ele>525</ele>
        <time>2016-07-14T04:34:21Z</time>
      </trkpt>
      <trkpt lat="42.97259" lon="1.69681">
        <ele>526</ele>
        <time>2016-07-14T04:36:21Z</time>
      </trkpt>
      <trkpt lat="42.97262" lon="1.69674">
        <ele>526</ele>
        <time>2016-07-14T04:38:21Z</time>
      </trkpt>
      <trkpt lat="42.97266" lon="1.69665">
        <ele>527</ele>
        <time>2016-07-14T04:40:21Z</time>
      </trkpt>
      <trkpt lat="42.97269" lon="1.69658">
        <ele>527</ele>
        <time>2016-07-14T04:42:21Z</time>
      </trkpt>
      <trkpt lat="42.97272" lon="1.69652">
        <ele>527</ele>
        <time>2016-07-14T04:44:21Z</time>
      </trkpt>
      <trkpt lat="42.97274" lon="1.69647">
        <ele>527</ele>
        <time>2016-07-14T04:46:21Z</time>
      </trkpt>
      <trkpt lat="42.97275" lon="1.69639">
        <ele>527</ele>
        <time>2016-07-14T04:48:21Z</time>
      </trkpt>
      <trkpt lat="42.97276" lon="1.6963">
        <ele>527</ele>
        <time>2016-07-14T04:50:21Z</time>
      </trkpt>
      <trkpt lat="42.97277" lon="1.69617">
        <ele>527</ele>
        <time>2016-07-14T04:52:21Z</time>
      </trkpt>
      <trkpt lat="42.97278" lon="1.69586">
        <ele>525</ele>
        <time>2016-07-14T04:54:21Z</time>
      </trkpt>
      <trkpt lat="42.97279" lon="1.69572">
        <ele>524</ele>
        <time>2016-07-14T04:56:21Z</time>
      </trkpt>
      <trkpt lat="42.97281" lon="1.69559">
        <ele>524</ele>
        <time>2016-07-14T04:58:21Z</time>
      </trkpt>
      <trkpt lat="42.97283" lon="1.69549">
        <ele>524</ele>
        <time>2016-07-14T05:00:21Z</time>
      </trkpt>
      <trkpt lat="42.97286" lon="1.69539">
        <ele>524</ele>
        <time>2016-07-14T05:02:21Z</time>
      </trkpt>
      <trkpt lat="42.97294" lon="1.69513">
        <ele>523</ele>
        <time>2016-07-14T05:04:21Z</time>
      </trkpt>
      <trkpt lat="42.97297" lon="1.69503">
        <ele>523</ele>
        <time>2016-07-14T05:06:21Z</time>
      </trkpt>
      <trkpt lat="42.97299" lon="1.69492">
        <ele>523</ele>
        <time>2016-07-14T05:08:21Z</time>
      </trkpt>
      <trkpt lat="42.97299" lon="1.69481">
        <ele>522</ele>
        <time>2016-07-14T05:10:21Z</time>
      </trkpt>
      <trkpt lat="42.973" lon="1.6947">
        <ele>522</ele>
        <time>2016-07-14T05:12:21Z</time>
      </trkpt>
      <trkpt lat="42.97301" lon="1.69457">
        <ele>521</ele>
        <time>2016-07-14T05:14:21Z</time>
      </trkpt>
      <trkpt lat="42.97302" lon="1.69444">
        <ele>520</ele>
        <time>2016-07-14T05:16:21Z</time>
      </trkpt>
      <trkpt lat="42.97304" lon="1.69424">
        <ele>519</ele>
        <time>2016-07-14T05:18:21Z</time>
      </trkpt>
      <trkpt lat="42.97307" lon="1.69412">
        <ele>519</ele>
        <time>2016-07-14T05:20:21Z</time>
      </trkpt>
      <trkpt lat="42.9731" lon="1.69402">
        <ele>519</ele>
        <time>2016-07-14T05:22:21Z</time>
      </trkpt>
      <trkpt lat="42.97313" lon="1.69392">
        <ele>519</ele>
        <time>2016-07-14T05:24:21Z</time>
      </trkpt>
      <trkpt lat="42.97332" lon="1.69335">
        <ele>519</ele>
        <time>2016-07-14T05:26:21Z</time>
      </trkpt>
      <trkpt lat="42.9735" lon="1.69294">
        <ele>521</ele>
        <time>2016-07-14T05:28:21Z</time>
      </trkpt>
      <trkpt lat="42.97353" lon="1.69287">
        <ele>522</ele>
        <time>2016-07-14T05:30:21Z</time>
      </trkpt>
      <trkpt lat="42.97357" lon="1.69277">
        <ele>522</ele>
        <time>2016-07-14T05:32:21Z</time>
      </trkpt>
      <trkpt lat="42.97359" lon="1.69262">
        <ele>522</ele>
        <time>2016-07-14T05:34:21Z</time>
      </trkpt>
      <trkpt lat="42.97361" lon="1.69242">
        <ele>521</ele>
        <time>2016-07-14T05:36:21Z</time>
      </trkpt>
      <trkpt lat="42.97363" lon="1.69205">
        <ele>519</ele>
        <time>2016-07-14T05:38:21Z</time>
      </trkpt>
      <trkpt lat="42.97369" lon="1.69183">
        <ele>519</ele>
        <time>2016-07-14T05:40:21Z</time>
      </trkpt>
      <trkpt lat="42.97378" lon="1.69163">
        <ele>521</ele>
        <time>2016-07-14T05:42:21Z</time>
      </trkpt>
      <trkpt lat="42.97407" lon="1.69102">
        <ele>524</ele>
        <time>2016-07-14T05:44:21Z</time>
      </trkpt>
      <trkpt lat="42.9741" lon="1.69091">
        <ele>524</ele>
        <time>2016-07-14T05:46:21Z</time>
      </trkpt>
      <trkpt lat="42.97413" lon="1.69078">
        <ele>524</ele>
        <time>2016-07-14T05:48:21Z</time>
      </trkpt>
      <trkpt lat="42.97416" lon="1.6906">
        <ele>523</ele>
        <time>2016-07-14T05:50:21Z</time>
      </trkpt>
      <trkpt lat="42.97422" lon="1.69018">
        <ele>521</ele>
        <time>2016-07-14T05:52:21Z</time>
      </trkpt>
      <trkpt lat="42.97426" lon="1.69006">
        <ele>521</ele>
        <time>2016-07-14T05:54:21Z</time>
      </trkpt>
      <trkpt lat="42.97431" lon="1.68987">
        <ele>521</ele>
        <time>2016-07-14T05:56:21Z</time>
      </trkpt>
      <trkpt lat="42.97451" lon="1.68935">
        <ele>523</ele>
        <time>2016-07-14T05:58:21Z</time>
      </trkpt>
      <trkpt lat="42.97473" lon="1.68881">
        <ele>526</ele>
        <time>2016-07-14T06:00:21Z</time>
      </trkpt>
      <trkpt lat="42.9748" lon="1.68859">
        <ele>526</ele>
        <time>2016-07-14T06:02:21Z</time>
      </trkpt>
      <trkpt lat="42.97483" lon="1.68841">
        <ele>525</ele>
        <time>2016-07-14T06:04:21Z</time>
      </trkpt>
      <trkpt lat="42.97484" lon="1.68819">
        <ele>524</ele>
        <time>2016-07-14T06:06:21Z</time>
      </trkpt>
      <trkpt lat="42.97482" lon="1.68788">
        <ele>521</ele>
        <time>2016-07-14T06:08:21Z</time>
      </trkpt>
      <trkpt lat="42.97481" lon="1.68771">
        <ele>519</ele>
        <time>2016-07-14T06:10:21Z</time>
      </trkpt>
      <trkpt lat="42.97483" lon="1.68755">
        <ele>518</ele>
        <time>2016-07-14T06:12:21Z</time>
      </trkpt>
      <trkpt lat="42.97485" lon="1.68745">
        <ele>518</ele>
        <time>2016-07-14T06:14:21Z</time>
      </trkpt>
      <trkpt lat="42.97488" lon="1.68735">
        <ele>518</ele>
        <time>2016-07-14T06:16:21Z</time>
      </trkpt>
      <trkpt lat="42.97491" lon="1.68725">
        <ele>517</ele>
        <time>2016-07-14T06:18:21Z</time>
      </trkpt>
      <trkpt lat="42.97495" lon="1.68718">
        <ele>517</ele>
        <time>2016-07-14T06:20:21Z</time>
      </trkpt>
      <trkpt lat="42.97498" lon="1.68709">
        <ele>517</ele>
        <time>2016-07-14T06:22:21Z</time>
      </trkpt>
      <trkpt lat="42.97499" lon="1.68708">
        <ele>517</ele>
        <time>2016-07-14T06:24:21Z</time>
      </trkpt>
      <trkpt lat="42.97503" lon="1.68698">
        <ele>518</ele>
        <time>2016-07-14T06:26:21Z</time>
      </trkpt>
      <trkpt lat="42.9753" lon="1.68642">
        <ele>523</ele>
        <time>2016-07-14T06:28:21Z</time>
      </trkpt>
      <trkpt lat="42.97541" lon="1.68618">
        <ele>525</ele>
        <time>2016-07-14T06:30:21Z</time>
      </trkpt>
      <trkpt lat="42.97545" lon="1.68606">
        <ele>526</ele>
        <time>2016-07-14T06:32:21Z</time>
      </trkpt>
      <trkpt lat="42.97547" lon="1.68594">
        <ele>525</ele>
        <time>2016-07-14T06:34:21Z</time>
      </trkpt>
      <trkpt lat="42.97549" lon="1.68582">
        <ele>525</ele>
        <time>2016-07-14T06:36:21Z</time>
      </trkpt>
      <trkpt lat="42.97549" lon="1.68569">
        <ele>524</ele>
        <time>2016-07-14T06:38:21Z</time>
      </trkpt>
      <trkpt lat="42.97551" lon="1.68505">
        <ele>520</ele>
        <time>2016-07-14T06:40:21Z</time>
      </trkpt>
      <trkpt lat="42.97553" lon="1.6846">
        <ele>519</ele>
        <time>2016-07-14T06:42:21Z</time>
      </trkpt>
      <trkpt lat="42.97554" lon="1.68437">
        <ele>518</ele>
        <time>2016-07-14T06:44:21Z</time>
      </trkpt>
      <trkpt lat="42.97555" lon="1.68423">
        <ele>518</ele>
        <time>2016-07-14T06:46:21Z</time>
      </trkpt>
      <trkpt lat="42.97557" lon="1.68411">
        <ele>518</ele>
        <time>2016-07-14T06:48:21Z</time>
      </trkpt>
      <trkpt lat="42.97559" lon="1.68398">
        <ele>518</ele>
        <time>2016-07-14T06:50:21Z</time>
      </trkpt>
      <trkpt lat="42.97561" lon="1.68386">
        <ele>518</ele>
        <time>2016-07-14T06:52:21Z</time>
      </trkpt>
      <trkpt lat="42.97565" lon="1.68362">
        <ele>517</ele>
        <time>2016-07-14T06:54:21Z</time>
      </trkpt>
      <trkpt lat="42.97574" lon="1.6829">
        <ele>514</ele>
        <time>2016-07-14T06:56:21Z</time>
      </trkpt>
      <trkpt lat="42.97578" lon="1.68268">
        <ele>514</ele>
        <time>2016-07-14T06:58:21Z</time>
      </trkpt>
      <trkpt lat="42.9758" lon="1.6826">
        <ele>513</ele>
        <time>2016-07-14T07:00:21Z</time>
      </trkpt>
      <trkpt lat="42.97584" lon="1.68252">
        <ele>513</ele>
        <time>2016-07-14T07:02:21Z</time>
      </trkpt>
      <trkpt lat="42.97587" lon="1.68247">
        <ele>514</ele>
        <time>2016-07-14T07:04:21Z</time>
      </trkpt>
      <trkpt lat="42.97591" lon="1.68243">
        <ele>515</ele>
        <time>2016-07-14T07:06:21Z</time>
      </trkpt>
      <trkpt lat="42.97595" lon="1.68239">
        <ele>516</ele>
        <time>2016-07-14T07:08:21Z</time>
      </trkpt>
      <trkpt lat="42.976" lon="1.68237">
        <ele>518</ele>
        <time>2016-07-14T07:10:21Z</time>
      </trkpt>
      <trkpt lat="42.97609" lon="1.68234">
        <ele>520</ele>
        <time>2016-07-14T07:12:21Z</time>
      </trkpt>
      <trkpt lat="42.97612" lon="1.68233">
        <ele>521</ele>
        <time>2016-07-14T07:14:21Z</time>
      </trkpt>
      <trkpt lat="42.9763" lon="1.68226">
        <ele>527</ele>
        <time>2016-07-14T07:16:21Z</time>
      </trkpt>
      <trkpt lat="42.97636" lon="1.68222">
        <ele>529</ele>
        <time>2016-07-14T07:18:21Z</time>
      </trkpt>
      <trkpt lat="42.97642" lon="1.68216">
        <ele>530</ele>
        <time>2016-07-14T07:20:21Z</time>
      </trkpt>
      <trkpt lat="42.97646" lon="1.68208">
        <ele>531</ele>
        <time>2016-07-14T07:22:21Z</time>
      </trkpt>
      <trkpt lat="42.9765" lon="1.68198">
        <ele>532</ele>
        <time>2016-07-14T07:24:21Z</time>
      </trkpt>
      <trkpt lat="42.97653" lon="1.6819">
        <ele>532</ele>
        <time>2016-07-14T07:26:21Z</time>
      </trkpt>
      <trkpt lat="42.97654" lon="1.68179">
        <ele>532</ele>
        <time>2016-07-14T07:28:21Z</time>
      </trkpt>
      <trkpt lat="42.97657" lon="1.68148">
        <ele>530</ele>
        <time>2016-07-14T07:30:21Z</time>
      </trkpt>
      <trkpt lat="42.9766" lon="1.6811">
        <ele>528</ele>
        <time>2016-07-14T07:32:21Z</time>
      </trkpt>
      <trkpt lat="42.97663" lon="1.68086">
        <ele>527</ele>
        <time>2016-07-14T07:34:21Z</time>
      </trkpt>
      <trkpt lat="42.97669" lon="1.68059">
        <ele>526</ele>
        <time>2016-07-14T07:36:21Z</time>
      </trkpt>
      <trkpt lat="42.97677" lon="1.68032">
        <ele>526</ele>
        <time>2016-07-14T07:38:21Z</time>
      </trkpt>
      <trkpt lat="42.97691" lon="1.67987">
        <ele>527</ele>
        <time>2016-07-14T07:40:21Z</time>
      </trkpt>
      <trkpt lat="42.97705" lon="1.67943">
        <ele>527</ele>
        <time>2016-07-14T07:42:21Z</time>
      </trkpt>
      <trkpt lat="42.97713" lon="1.67916">
        <ele>528</ele>
        <time>2016-07-14T07:44:21Z</time>
      </trkpt>
      <trkpt lat="42.97728" lon="1.67868">
        <ele>527</ele>
        <time>2016-07-14T07:46:21Z</time>
      </trkpt>
      <trkpt lat="42.97737" lon="1.67832">
        <ele>526</ele>
        <time>2016-07-14T07:48:21Z</time>
      </trkpt>
      <trkpt lat="42.9774" lon="1.678">
        <ele>523</ele>
        <time>2016-07-14T07:50:21Z</time>
      </trkpt>
      <trkpt lat="42.97742" lon="1.67772">
        <ele>521</ele>
        <time>2016-07-14T07:52:21Z</time>
      </trkpt>
      <trkpt lat="42.97746" lon="1.67748">
        <ele>519</ele>
        <time>2016-07-14T07:54:21Z</time>
      </trkpt>
      <trkpt lat="42.97748" lon="1.67739">
        <ele>518</ele>
        <time>2016-07-14T07:56:21Z</time>
      </trkpt>
      <trkpt lat="42.9775" lon="1.6773">
        <ele>518</ele>
        <time>2016-07-14T07:58:21Z</time>
      </trkpt>
      <trkpt lat="42.97752" lon="1.67721">
        <ele>517</ele>
        <time>2016-07-14T08:00:21Z</time>
      </trkpt>
      <trkpt lat="42.97761" lon="1.67695">
        <ele>517</ele>
        <time>2016-07-14T08:02:21Z</time>
      </trkpt>
      <trkpt lat="42.97772" lon="1.67669">
        <ele>517</ele>
        <time>2016-07-14T08:04:21Z</time>
      </trkpt>
      <trkpt lat="42.97784" lon="1.67635">
        <ele>517</ele>
        <time>2016-07-14T08:06:21Z</time>
      </trkpt>
      <trkpt lat="42.97794" lon="1.67609">
        <ele>517</ele>
        <time>2016-07-14T08:08:21Z</time>
      </trkpt>
      <trkpt lat="42.97799" lon="1.67591">
        <ele>516</ele>
        <time>2016-07-14T08:10:21Z</time>
      </trkpt>
      <trkpt lat="42.97803" lon="1.67574">
        <ele>515</ele>
        <time>2016-07-14T08:12:21Z</time>
      </trkpt>
      <trkpt lat="42.97806" lon="1.6756">
        <ele>515</ele>
        <time>2016-07-14T08:14:21Z</time>
      </trkpt>
      <trkpt lat="42.97814" lon="1.67527">
        <ele>513</ele>
        <time>2016-07-14T08:16:21Z</time>
      </trkpt>
      <trkpt lat="42.97823" lon="1.67486">
        <ele>510</ele>
        <time>2016-07-14T08:18:21Z</time>
      </trkpt>
      <trkpt lat="42.97828" lon="1.6745">
        <ele>507</ele>
        <time>2016-07-14T08:20:21Z</time>
      </trkpt>
      <trkpt lat="42.97828" lon="1.67423">
        <ele>504</ele>
        <time>2016-07-14T08:22:21Z</time>
      </trkpt>
      <trkpt lat="42.97826" lon="1.67399">
        <ele>502</ele>
        <time>2016-07-14T08:24:21Z</time>
      </trkpt>
      <trkpt lat="42.97824" lon="1.67372">
        <ele>501</ele>
        <time>2016-07-14T08:26:21Z</time>
      </trkpt>
      <trkpt lat="42.97824" lon="1.67351">
        <ele>501</ele>
        <time>2016-07-14T08:28:21Z</time>
      </trkpt>
      <trkpt lat="42.97824" lon="1.67338">
        <ele>500</ele>
        <time>2016-07-14T08:30:21Z</time>
      </trkpt>
      <trkpt lat="42.97825" lon="1.6732">
        <ele>500</ele>
        <time>2016-07-14T08:32:21Z</time>
      </trkpt>
      <trkpt lat="42.97837" lon="1.6728">
        <ele>501</ele>
        <time>2016-07-14T08:34:21Z</time>
      </trkpt>
      <trkpt lat="42.9785" lon="1.67228">
        <ele>504</ele>
        <time>2016-07-14T08:36:21Z</time>
      </trkpt>
      <trkpt lat="42.97852" lon="1.67217">
        <ele>505</ele>
        <time>2016-07-14T08:38:21Z</time>
      </trkpt>
      <trkpt lat="42.97853" lon="1.67204">
        <ele>505</ele>
        <time>2016-07-14T08:40:21Z</time>
      </trkpt>
      <trkpt lat="42.97853" lon="1.67191">
        <ele>505</ele>
        <time>2016-07-14T08:42:21Z</time>
      </trkpt>
      <trkpt lat="42.97853" lon="1.67178">
        <ele>506</ele>
        <time>2016-07-14T08:44:21Z</time>
      </trkpt>
      <trkpt lat="42.97852" lon="1.67166">
        <ele>506</ele>
        <time>2016-07-14T08:46:21Z</time>
      </trkpt>
      <trkpt lat="42.97851" lon="1.67154">
        <ele>507</ele>
        <time>2016-07-14T08:48:21Z</time>
      </trkpt>
      <trkpt lat="42.97848" lon="1.67138">
        <ele>507</ele>
        <time>2016-07-14T08:50:21Z</time>
      </trkpt>
      <trkpt lat="42.97846" lon="1.67125">
        <ele>507</ele>
        <time>2016-07-14T08:52:21Z</time>
      </trkpt>
      <trkpt lat="42.97842" lon="1.67112">
        <ele>507</ele>
        <time>2016-07-14T08:54:21Z</time>
      </trkpt>
      <trkpt lat="42.97837" lon="1.67101">
        <ele>506</ele>
        <time>2016-07-14T08:56:21Z</time>
      </trkpt>
      <trkpt lat="42.97832" lon="1.67091">
        <ele>505</ele>
        <time>2016-07-14T08:58:21Z</time>
      </trkpt>
      <trkpt lat="42.97828" lon="1.67083">
        <ele>506</ele>
        <time>2016-07-14T09:00:21Z</time>
      </trkpt>
      <trkpt lat="42.97823" lon="1.67076">
        <ele>506</ele>
        <time>2016-07-14T09:02:21Z</time>
      </trkpt>
      <trkpt lat="42.97813" lon="1.67059">
        <ele>507</ele>
        <time>2016-07-14T09:04:21Z</time>
      </trkpt>
      <trkpt lat="42.97808" lon="1.67047">
        <ele>507</ele>
        <time>2016-07-14T09:06:21Z</time>
      </trkpt>
      <trkpt lat="42.97803" lon="1.67034">
        <ele>507</ele>
        <time>2016-07-14T09:08:21Z</time>
      </trkpt>
      <trkpt lat="42.97799" lon="1.67019">
        <ele>508</ele>
        <time>2016-07-14T09:10:21Z</time>
      </trkpt>
      <trkpt lat="42.97798" lon="1.67001">
        <ele>509</ele>
        <time>2016-07-14T09:12:21Z</time>
      </trkpt>
      <trkpt lat="42.97797" lon="1.66983">
        <ele>509</ele>
        <time>2016-07-14T09:14:21Z</time>
      </trkpt>
      <trkpt lat="42.97797" lon="1.66951">
        <ele>510</ele>
        <time>2016-07-14T09:16:21Z</time>
      </trkpt>
      <trkpt lat="42.97799" lon="1.66875">
        <ele>512</ele>
        <time>2016-07-14T09:18:21Z</time>
      </trkpt>
      <trkpt lat="42.97799" lon="1.66844">
        <ele>512</ele>
        <time>2016-07-14T09:20:21Z</time>
      </trkpt>
      <trkpt lat="42.97799" lon="1.66743">
        <ele>510</ele>
        <time>2016-07-14T09:22:21Z</time>
      </trkpt>
      <trkpt lat="42.97799" lon="1.66695">
        <ele>509</ele>
        <time>2016-07-14T09:24:21Z</time>
      </trkpt>
      <trkpt lat="42.97798" lon="1.66678">
        <ele>508</ele>
        <time>2016-07-14T09:26:21Z</time>
      </trkpt>
      <trkpt lat="42.97795" lon="1.66668">
        <ele>508</ele>
        <time>2016-07-14T09:28:21Z</time>
      </trkpt>
      <trkpt lat="42.97793" lon="1.66664">
        <ele>507</ele>
        <time>2016-07-14T09:30:21Z</time>
      </trkpt>
      <trkpt lat="42.9779" lon="1.66658">
        <ele>507</ele>
        <time>2016-07-14T09:32:21Z</time>
      </trkpt>
      <trkpt lat="42.97788" lon="1.66655">
        <ele>506</ele>
        <time>2016-07-14T09:34:21Z</time>
      </trkpt>
      <trkpt lat="42.97782" lon="1.66647">
        <ele>505</ele>
        <time>2016-07-14T09:36:21Z</time>
      </trkpt>
      <trkpt lat="42.97777" lon="1.66642">
        <ele>504</ele>
        <time>2016-07-14T09:38:21Z</time>
      </trkpt>
      <trkpt lat="42.97771" lon="1.66639">
        <ele>503</ele>
        <time>2016-07-14T09:40:21Z</time>
      </trkpt>
      <trkpt lat="42.97766" lon="1.66637">
        <ele>502</ele>
        <time>2016-07-14T09:42:21Z</time>
      </trkpt>
      <trkpt lat="42.97748" lon="1.66632">
        <ele>499</ele>
        <time>2016-07-14T09:44:21Z</time>
      </trkpt>
      <trkpt lat="42.97736" lon="1.66629">
        <ele>498</ele>
        <time>2016-07-14T09:46:21Z</time>
      </trkpt>
      <trkpt lat="42.97731" lon="1.66626">
        <ele>498</ele>
        <time>2016-07-14T09:48:21Z</time>
      </trkpt>
      <trkpt lat="42.97724" lon="1.66621">
        <ele>497</ele>
        <time>2016-07-14T09:50:21Z</time>
      </trkpt>
      <trkpt lat="42.97714" lon="1.66612">
        <ele>497</ele>
        <time>2016-07-14T09:52:21Z</time>
      </trkpt>
      <trkpt lat="42.97706" lon="1.66598">
        <ele>496</ele>
        <time>2016-07-14T09:54:21Z</time>
      </trkpt>
      <trkpt lat="42.97694" lon="1.6657">
        <ele>496</ele>
        <time>2016-07-14T09:56:21Z</time>
      </trkpt>
      <trkpt lat="42.97655" lon="1.66479">
        <ele>491</ele>
        <time>2016-07-14T09:58:21Z</time>
      </trkpt>
      <trkpt lat="42.97635" lon="1.6643">
        <ele>489</ele>
        <time>2016-07-14T10:00:21Z</time>
      </trkpt>
      <trkpt lat="42.9763" lon="1.66407">
        <ele>488</ele>
        <time>2016-07-14T10:02:21Z</time>
      </trkpt>
      <trkpt lat="42.97628" lon="1.66391">
        <ele>487</ele>
        <time>2016-07-14T10:04:21Z</time>
      </trkpt>
      <trkpt lat="42.97631" lon="1.66369">
        <ele>487</ele>
        <time>2016-07-14T10:06:21Z</time>
      </trkpt>
      <trkpt lat="42.97635" lon="1.66346">
        <ele>487</ele>
        <time>2016-07-14T10:08:21Z</time>
      </trkpt>
      <trkpt lat="42.97639" lon="1.66322">
        <ele>487</ele>
        <time>2016-07-14T10:10:21Z</time>
      </trkpt>
      <trkpt lat="42.97642" lon="1.66299">
        <ele>487</ele>
        <time>2016-07-14T10:12:21Z</time>
      </trkpt>
      <trkpt lat="42.97646" lon="1.66276">
        <ele>486</ele>
        <time>2016-07-14T10:14:21Z</time>
      </trkpt>
      <trkpt lat="42.97651" lon="1.66258">
        <ele>486</ele>
        <time>2016-07-14T10:16:21Z</time>
      </trkpt>
      <trkpt lat="42.97655" lon="1.66247">
        <ele>487</ele>
        <time>2016-07-14T10:18:21Z</time>
      </trkpt>
      <trkpt lat="42.97661" lon="1.66239">
        <ele>487</ele>
        <time>2016-07-14T10:20:21Z</time>
      </trkpt>
      <trkpt lat="42.97668" lon="1.66232">
        <ele>489</ele>
        <time>2016-07-14T10:22:21Z</time>
      </trkpt>
      <trkpt lat="42.97678" lon="1.66224">
        <ele>491</ele>
        <time>2016-07-14T10:24:21Z</time>
      </trkpt>
      <trkpt lat="42.97686" lon="1.66214">
        <ele>493</ele>
        <time>2016-07-14T10:26:21Z</time>
      </trkpt>
      <trkpt lat="42.9769" lon="1.66207">
        <ele>494</ele>
        <time>2016-07-14T10:28:21Z</time>
      </trkpt>
      <trkpt lat="42.97693" lon="1.66197">
        <ele>495</ele>
        <time>2016-07-14T10:30:21Z</time>
      </trkpt>
      <trkpt lat="42.97692" lon="1.66187">
        <ele>495</ele>
        <time>2016-07-14T10:32:21Z</time>
      </trkpt>
      <trkpt lat="42.97689" lon="1.66174">
        <ele>494</ele>
        <time>2016-07-14T10:34:21Z</time>
      </trkpt>
      <trkpt lat="42.97683" lon="1.66161">
        <ele>493</ele>
        <time>2016-07-14T10:36:21Z</time>
      </trkpt>
      <trkpt lat="42.97673" lon="1.66142">
        <ele>491</ele>
        <time>2016-07-14T10:38:21Z</time>
      </trkpt>
      <trkpt lat="42.97667" lon="1.66126">
        <ele>490</ele>
        <time>2016-07-14T10:40:21Z</time>
      </trkpt>
      <trkpt lat="42.97659" lon="1.66102">
        <ele>488</ele>
        <time>2016-07-14T10:42:21Z</time>
      </trkpt>
      <trkpt lat="42.97653" lon="1.66076">
        <ele>487</ele>
        <time>2016-07-14T10:44:21Z</time>
      </trkpt>
      <trkpt lat="42.9765" lon="1.66051">
        <ele>486</ele>
        <time>2016-07-14T10:46:21Z</time>
      </trkpt>
      <trkpt lat="42.9765" lon="1.66033">
        <ele>486</ele>
        <time>2016-07-14T10:48:21Z</time>
      </trkpt>
      <trkpt lat="42.97651" lon="1.66006">
        <ele>486</ele>
        <time>2016-07-14T10:50:21Z</time>
      </trkpt>
      <trkpt lat="42.97651" lon="1.65981">
        <ele>485</ele>
        <time>2016-07-14T10:52:21Z</time>
      </trkpt>
      <trkpt lat="42.97651" lon="1.65964">
        <ele>484</ele>
        <time>2016-07-14T10:54:21Z</time>
      </trkpt>
      <trkpt lat="42.97649" lon="1.65947">
        <ele>483</ele>
        <time>2016-07-14T10:56:21Z</time>
      </trkpt>
      <trkpt lat="42.97646" lon="1.6593">
        <ele>481</ele>
        <time>2016-07-14T10:58:21Z</time>
      </trkpt>
      <trkpt lat="42.97642" lon="1.65915">
        <ele>480</ele>
        <time>2016-07-14T11:00:21Z</time>
      </trkpt>
      <trkpt lat="42.97634" lon="1.65893">
        <ele>477</ele>
        <time>2016-07-14T11:02:21Z</time>
      </trkpt>
      <trkpt lat="42.97628" lon="1.65871">
        <ele>475</ele>
        <time>2016-07-14T11:04:21Z</time>
      </trkpt>
      <trkpt lat="42.97624" lon="1.65857">
        <ele>474</ele>
        <time>2016-07-14T11:06:21Z</time>
      </trkpt>
      <trkpt lat="42.97622" lon="1.65837">
        <ele>473</ele>
        <time>2016-07-14T11:08:21Z</time>
      </trkpt>
      <trkpt lat="42.97625" lon="1.65824">
        <ele>473</ele>
        <time>2016-07-14T11:10:21Z</time>
      </trkpt>
      <trkpt lat="42.97629" lon="1.65812">
        <ele>473</ele>
        <time>2016-07-14T11:12:21Z</time>
      </trkpt>
      <trkpt lat="42.97642" lon="1.65798">
        <ele>474</ele>
        <time>2016-07-14T11:14:21Z</time>
      </trkpt>
      <trkpt lat="42.97663" lon="1.65782">
        <ele>476</ele>
        <time>2016-07-14T11:16:21Z</time>
      </trkpt>
      <trkpt lat="42.9769" lon="1.65764">
        <ele>480</ele>
        <time>2016-07-14T11:18:21Z</time>
      </trkpt>
      <trkpt lat="42.97713" lon="1.65742">
        <ele>482</ele>
        <time>2016-07-14T11:20:21Z</time>
      </trkpt>
      <trkpt lat="42.97722" lon="1.65729">
        <ele>482</ele>
        <time>2016-07-14T11:22:21Z</time>
      </trkpt>
      <trkpt lat="42.9773" lon="1.65714">
        <ele>482</ele>
        <time>2016-07-14T11:24:21Z</time>
      </trkpt>
      <trkpt lat="42.97736" lon="1.65698">
        <ele>481</ele>
        <time>2016-07-14T11:26:21Z</time>
      </trkpt>
      <trkpt lat="42.97739" lon="1.65681">
        <ele>480</ele>
        <time>2016-07-14T11:28:21Z</time>
      </trkpt>
      <trkpt lat="42.97743" lon="1.65662">
        <ele>478</ele>
        <time>2016-07-14T11:30:21Z</time>
      </trkpt>
      <trkpt lat="42.97747" lon="1.65646">
        <ele>477</ele>
        <time>2016-07-14T11:32:21Z</time>
      </trkpt>
      <trkpt lat="42.97753" lon="1.65632">
        <ele>476</ele>
        <time>2016-07-14T11:34:21Z</time>
      </trkpt>
      <trkpt lat="42.97761" lon="1.65617">
        <ele>476</ele>
        <time>2016-07-14T11:36:21Z</time>
      </trkpt>
      <trkpt lat="42.9777" lon="1.65602">
        <ele>476</ele>
        <time>2016-07-14T11:38:21Z</time>
      </trkpt>
      <trkpt lat="42.97777" lon="1.65586">
        <ele>476</ele>
        <time>2016-07-14T11:40:21Z</time>
      </trkpt>
      <trkpt lat="42.97786" lon="1.6557">
        <ele>476</ele>
        <time>2016-07-14T11:42:21Z</time>
      </trkpt>
      <trkpt lat="42.97793" lon="1.65554">
        <ele>475</ele>
        <time>2016-07-14T11:44:21Z</time>
      </trkpt>
      <trkpt lat="42.978" lon="1.65538">
        <ele>475</ele>
        <time>2016-07-14T11:46:21Z</time>
      </trkpt>
      <trkpt lat="42.97804" lon="1.65522">
        <ele>474</ele>
        <time>2016-07-14T11:48:21Z</time>
      </trkpt>
      <trkpt lat="42.97804" lon="1.65503">
        <ele>472</ele>
        <time>2016-07-14T11:50:21Z</time>
      </trkpt>
      <trkpt lat="42.97802" lon="1.65486">
        <ele>470</ele>
        <time>2016-07-14T11:52:21Z</time>
      </trkpt>
      <trkpt lat="42.9779" lon="1.65447">
        <ele>466</ele>
        <time>2016-07-14T11:54:21Z</time>
      </trkpt>
      <trkpt lat="42.97786" lon="1.65433">
        <ele>465</ele>
        <time>2016-07-14T11:56:21Z</time>
      </trkpt>
      <trkpt lat="42.97778" lon="1.65404">
        <ele>462</ele>
        <time>2016-07-14T11:58:21Z</time>
      </trkpt>
      <trkpt lat="42.97775" lon="1.65377">
        <ele>460</ele>
        <time>2016-07-14T12:00:21Z</time>
      </trkpt>
      <trkpt lat="42.97774" lon="1.65368">
        <ele>459</ele>
        <time>2016-07-14T12:02:21Z</time>
      </trkpt>
      <trkpt lat="42.97775" lon="1.65358">
        <ele>459</ele>
        <time>2016-07-14T12:04:21Z</time>
      </trkpt>
      <trkpt lat="42.97776" lon="1.65349">
        <ele>459</ele>
        <time>2016-07-14T12:06:21Z</time>
      </trkpt>
      <trkpt lat="42.97777" lon="1.6534">
        <ele>459</ele>
        <time>2016-07-14T12:08:21Z</time>
      </trkpt>
      <trkpt lat="42.97779" lon="1.65331">
        <ele>458</ele>
        <time>2016-07-14T12:10:21Z</time>
      </trkpt>
      <trkpt lat="42.97781" lon="1.65322">
        <ele>458</ele>
        <time>2016-07-14T12:12:21Z</time>
      </trkpt>
      <trkpt lat="42.97789" lon="1.65296">
        <ele>458</ele>
        <time>2016-07-14T12:14:21Z</time>
      </trkpt>
      <trkpt lat="42.97799" lon="1.6527">
        <ele>458</ele>
        <time>2016-07-14T12:16:21Z</time>
      </trkpt>
      <trkpt lat="42.97804" lon="1.65252">
        <ele>458</ele>
        <time>2016-07-14T12:18:21Z</time>
      </trkpt>
      <trkpt lat="42.97805" lon="1.65244">
        <ele>457</ele>
        <time>2016-07-14T12:20:21Z</time>
      </trkpt>
      <trkpt lat="42.97806" lon="1.65234">
        <ele>457</ele>
        <time>2016-07-14T12:22:21Z</time>
      </trkpt>
      <trkpt lat="42.97806" lon="1.65226">
        <ele>456</ele>
        <time>2016-07-14T12:24:21Z</time>
      </trkpt>
      <trkpt lat="42.97806" lon="1.65217">
        <ele>456</ele>
        <time>2016-07-14T12:26:21Z</time>
      </trkpt>
      <trkpt lat="42.97805" lon="1.65208">
        <ele>455</ele>
        <time>2016-07-14T12:28:21Z</time>
      </trkpt>
      <trkpt lat="42.97804" lon="1.65199">
        <ele>455</ele>
        <time>2016-07-14T12:30:21Z</time>
      </trkpt>
      <trkpt lat="42.97803" lon="1.65191">
        <ele>454</ele>
        <time>2016-07-14T12:32:21Z</time>
      </trkpt>
      <trkpt lat="42.97803" lon="1.65181">
        <ele>454</ele>
        <time>2016-07-14T12:34:21Z</time>
      </trkpt>
      <trkpt lat="42.97804" lon="1.65172">
        <ele>453</ele>
        <time>2016-07-14T12:36:21Z</time>
      </trkpt>
      <trkpt lat="42.97805" lon="1.65163">
        <ele>453</ele>
        <time>2016-07-14T12:38:21Z</time>
      </trkpt>
      <trkpt lat="42.97807" lon="1.65151">
        <ele>453</ele>
        <time>2016-07-14T12:40:21Z</time>
      </trkpt>
      <trkpt lat="42.97811" lon="1.65143">
        <ele>453</ele>
        <time>2016-07-14T12:42:21Z</time>
      </trkpt>
      <trkpt lat="42.97814" lon="1.65136">
        <ele>453</ele>
        <time>2016-07-14T12:44:21Z</time>
      </trkpt>
      <trkpt lat="42.97818" lon="1.65128">
        <ele>453</ele>
        <time>2016-07-14T12:46:21Z</time>
      </trkpt>
      <trkpt lat="42.97825" lon="1.65115">
        <ele>453</ele>
        <time>2016-07-14T12:48:21Z</time>
      </trkpt>
      <trkpt lat="42.97834" lon="1.65098">
        <ele>454</ele>
        <time>2016-07-14T12:50:21Z</time>
      </trkpt>
      <trkpt lat="42.97842" lon="1.65084">
        <ele>454</ele>
        <time>2016-07-14T12:52:21Z</time>
      </trkpt>
      <trkpt lat="42.9785" lon="1.6507">
        <ele>455</ele>
        <time>2016-07-14T12:54:21Z</time>
      </trkpt>
      <trkpt lat="42.97861" lon="1.65053">
        <ele>456</ele>
        <time>2016-07-14T12:56:21Z</time>
      </trkpt>
      <trkpt lat="42.9787" lon="1.65043">
        <ele>457</ele>
        <time>2016-07-14T12:58:21Z</time>
      </trkpt>
      <trkpt lat="42.97879" lon="1.65029">
        <ele>458</ele>
        <time>2016-07-14T13:00:21Z</time>
      </trkpt>
      <trkpt lat="42.97881" lon="1.65024">
        <ele>458</ele>
        <time>2016-07-14T13:02:21Z</time>
      </trkpt>
      <trkpt lat="42.97885" lon="1.65014">
        <ele>459</ele>
        <time>2016-07-14T13:04:21Z</time>
      </trkpt>
      <trkpt lat="42.97888" lon="1.64996">
        <ele>458</ele>
        <time>2016-07-14T13:06:21Z</time>
      </trkpt>
      <trkpt lat="42.97889" lon="1.64975">
        <ele>458</ele>
        <time>2016-07-14T13:08:21Z</time>
      </trkpt>
      <trkpt lat="42.97888" lon="1.64958">
        <ele>457</ele>
        <time>2016-07-14T13:10:21Z</time>
      </trkpt>
      <trkpt lat="42.97884" lon="1.64935">
        <ele>456</ele>
        <time>2016-07-14T13:12:21Z</time>
      </trkpt>
      <trkpt lat="42.97882" lon="1.64927">
        <ele>455</ele>
        <time>2016-07-14T13:14:21Z</time>
      </trkpt>
      <trkpt lat="42.97879" lon="1.64919">
        <ele>454</ele>
        <time>2016-07-14T13:16:21Z</time>
      </trkpt>
      <trkpt lat="42.97876" lon="1.64911">
        <ele>453</ele>
        <time>2016-07-14T13:18:21Z</time>
      </trkpt>
      <trkpt lat="42.97868" lon="1.64897">
        <ele>452</ele>
        <time>2016-07-14T13:20:21Z</time>
      </trkpt>
      <trkpt lat="42.9786" lon="1.64884">
        <ele>450</ele>
        <time>2016-07-14T13:22:21Z</time>
      </trkpt>
      <trkpt lat="42.9785" lon="1.64873">
        <ele>448</ele>
        <time>2016-07-14T13:24:21Z</time>
      </trkpt>
      <trkpt lat="42.9784" lon="1.64864">
        <ele>447</ele>
        <time>2016-07-14T13:26:21Z</time>
      </trkpt>
      <trkpt lat="42.97832" lon="1.64853">
        <ele>445</ele>
        <time>2016-07-14T13:28:21Z</time>
      </trkpt>
      <trkpt lat="42.97829" lon="1.64848">
        <ele>445</ele>
        <time>2016-07-14T13:30:21Z</time>
      </trkpt>
      <trkpt lat="42.97826" lon="1.64841">
        <ele>445</ele>
        <time>2016-07-14T13:32:21Z</time>
      </trkpt>
      <trkpt lat="42.97822" lon="1.64827">
        <ele>444</ele>
        <time>2016-07-14T13:34:21Z</time>
      </trkpt>
      <trkpt lat="42.97821" lon="1.64811">
        <ele>444</ele>
        <time>2016-07-14T13:36:21Z</time>
      </trkpt>
      <trkpt lat="42.9782" lon="1.64793">
        <ele>443</ele>
        <time>2016-07-14T13:38:21Z</time>
      </trkpt>
      <trkpt lat="42.97818" lon="1.64774">
        <ele>443</ele>
        <time>2016-07-14T13:40:21Z</time>
      </trkpt>
      <trkpt lat="42.97818" lon="1.64756">
        <ele>443</ele>
        <time>2016-07-14T13:42:21Z</time>
      </trkpt>
      <trkpt lat="42.97818" lon="1.64747">
        <ele>442</ele>
        <time>2016-07-14T13:44:21Z</time>
      </trkpt>
      <trkpt lat="42.97818" lon="1.64739">
        <ele>442</ele>
        <time>2016-07-14T13:46:21Z</time>
      </trkpt>
      <trkpt lat="42.97819" lon="1.6473">
        <ele>442</ele>
        <time>2016-07-14T13:48:21Z</time>
      </trkpt>
      <trkpt lat="42.97821" lon="1.64723">
        <ele>442</ele>
        <time>2016-07-14T13:50:21Z</time>
      </trkpt>
      <trkpt lat="42.97823" lon="1.64715">
        <ele>442</ele>
        <time>2016-07-14T13:52:21Z</time>
      </trkpt>
      <trkpt lat="42.97829" lon="1.647">
        <ele>442</ele>
        <time>2016-07-14T13:54:21Z</time>
      </trkpt>
      <trkpt lat="42.97838" lon="1.64683">
        <ele>443</ele>
        <time>2016-07-14T13:56:21Z</time>
      </trkpt>
      <trkpt lat="42.97844" lon="1.6467">
        <ele>443</ele>
        <time>2016-07-14T13:58:21Z</time>
      </trkpt>
      <trkpt lat="42.97849" lon="1.64659">
        <ele>443</ele>
        <time>2016-07-14T14:00:21Z</time>
      </trkpt>
      <trkpt lat="42.97854" lon="1.64645">
        <ele>443</ele>
        <time>2016-07-14T14:02:21Z</time>
      </trkpt>
      <trkpt lat="42.97857" lon="1.64628">
        <ele>443</ele>
        <time>2016-07-14T14:04:21Z</time>
      </trkpt>
      <trkpt lat="42.97857" lon="1.6461">
        <ele>443</ele>
        <time>2016-07-14T14:06:21Z</time>
      </trkpt>
      <trkpt lat="42.97857" lon="1.64586">
        <ele>442</ele>
        <time>2016-07-14T14:08:21Z</time>
      </trkpt>
      <trkpt lat="42.97856" lon="1.64578">
        <ele>442</ele>
        <time>2016-07-14T14:10:21Z</time>
      </trkpt>
      <trkpt lat="42.97854" lon="1.64552">
        <ele>441</ele>
        <time>2016-07-14T14:12:21Z</time>
      </trkpt>
      <trkpt lat="42.97851" lon="1.64519">
        <ele>441</ele>
        <time>2016-07-14T14:14:21Z</time>
      </trkpt>
      <trkpt lat="42.97848" lon="1.64475">
        <ele>441</ele>
        <time>2016-07-14T14:16:21Z</time>
      </trkpt>
      <trkpt lat="42.97847" lon="1.64448">
        <ele>440</ele>
        <time>2016-07-14T14:18:21Z</time>
      </trkpt>
      <trkpt lat="42.97847" lon="1.64435">
        <ele>440</ele>
        <time>2016-07-14T14:20:21Z</time>
      </trkpt>
      <trkpt lat="42.97848" lon="1.64421">
        <ele>440</ele>
        <time>2016-07-14T14:22:21Z</time>
      </trkpt>
      <trkpt lat="42.97849" lon="1.64407">
        <ele>440</ele>
        <time>2016-07-14T14:24:21Z</time>
      </trkpt>
      <trkpt lat="42.97853" lon="1.64389">
        <ele>440</ele>
        <time>2016-07-14T14:26:21Z</time>
      </trkpt>
      <trkpt lat="42.97857" lon="1.64369">
        <ele>440</ele>
        <time>2016-07-14T14:28:21Z</time>
      </trkpt>
      <trkpt lat="42.97859" lon="1.64357">
        <ele>440</ele>
        <time>2016-07-14T14:30:21Z</time>
      </trkpt>
      <trkpt lat="42.97859" lon="1.64346">
        <ele>440</ele>
        <time>2016-07-14T14:32:21Z</time>
      </trkpt>
      <trkpt lat="42.9786" lon="1.64339">
        <ele>440</ele>
        <time>2016-07-14T14:34:21Z</time>
      </trkpt>
      <trkpt lat="42.97859" lon="1.6433">
        <ele>440</ele>
        <time>2016-07-14T14:36:21Z</time>
      </trkpt>
      <trkpt lat="42.97857" lon="1.64318">
        <ele>440</ele>
        <time>2016-07-14T14:38:21Z</time>
      </trkpt>
      <trkpt lat="42.97854" lon="1.64299">
        <ele>440</ele>
        <time>2016-07-14T14:40:21Z</time>
      </trkpt>
      <trkpt lat="42.97847" lon="1.64267">
        <ele>440</ele>
        <time>2016-07-14T14:42:21Z</time>
      </trkpt>
      <trkpt lat="42.97842" lon="1.64251">
        <ele>440</ele>
        <time>2016-07-14T14:44:21Z</time>
      </trkpt>
      <trkpt lat="42.97838" lon="1.64237">
        <ele>441</ele>
        <time>2016-07-14T14:46:21Z</time>
      </trkpt>
      <trkpt lat="42.97832" lon="1.64222">
        <ele>441</ele>
        <time>2016-07-14T14:48:21Z</time>
      </trkpt>
      <trkpt lat="42.97817" lon="1.64192">
        <ele>441</ele>
        <time>2016-07-14T14:50:21Z</time>
      </trkpt>
      <trkpt lat="42.97782" lon="1.64121">
        <ele>443</ele>
        <time>2016-07-14T14:52:21Z</time>
      </trkpt>
      <trkpt lat="42.97762" lon="1.64084">
        <ele>443</ele>
        <time>2016-07-14T14:54:21Z</time>
      </trkpt>
      <trkpt lat="42.97749" lon="1.64064">
        <ele>441</ele>
        <time>2016-07-14T14:56:21Z</time>
      </trkpt>
      <trkpt lat="42.97748" lon="1.64063">
        <ele>441</ele>
        <time>2016-07-14T14:58:21Z</time>
      </trkpt>
      <trkpt lat="42.97726" lon="1.64031">
        <ele>439</ele>
        <time>2016-07-14T15:00:21Z</time>
      </trkpt>
      <trkpt lat="42.97698" lon="1.63991">
        <ele>436</ele>
        <time>2016-07-14T15:02:21Z</time>
      </trkpt>
      <trkpt lat="42.97666" lon="1.63949">
        <ele>432</ele>
        <time>2016-07-14T15:04:21Z</time>
      </trkpt>
      <trkpt lat="42.97644" lon="1.6392">
        <ele>429</ele>
        <time>2016-07-14T15:06:21Z</time>
      </trkpt>
      <trkpt lat="42.97632" lon="1.63904">
        <ele>428</ele>
        <time>2016-07-14T15:08:21Z</time>
      </trkpt>
      <trkpt lat="42.97625" lon="1.63896">
        <ele>427</ele>
        <time>2016-07-14T15:10:21Z</time>
      </trkpt>
      <trkpt lat="42.9762" lon="1.63888">
        <ele>426</ele>
        <time>2016-07-14T15:12:21Z</time>
      </trkpt>
      <trkpt lat="42.97615" lon="1.63882">
        <ele>426</ele>
        <time>2016-07-14T15:14:21Z</time>
      </trkpt>
      <trkpt lat="42.97607" lon="1.63874">
        <ele>425</ele>
        <time>2016-07-14T15:16:21Z</time>
      </trkpt>
      <trkpt lat="42.97598" lon="1.63868">
        <ele>424</ele>
        <time>2016-07-14T15:18:21Z</time>
      </trkpt>
      <trkpt lat="42.9758" lon="1.63855">
        <ele>422</ele>
        <time>2016-07-14T15:20:21Z</time>
      </trkpt>
      <trkpt lat="42.97529" lon="1.63821">
        <ele>420</ele>
        <time>2016-07-14T15:22:21Z</time>
      </trkpt>
      <trkpt lat="42.97516" lon="1.63813">
        <ele>419</ele>
        <time>2016-07-14T15:24:21Z</time>
      </trkpt>
      <trkpt lat="42.97441" lon="1.63767">
        <ele>415</ele>
        <time>2016-07-14T15:26:21Z</time>
      </trkpt>
      <trkpt lat="42.97405" lon="1.63743">
        <ele>412</ele>
        <time>2016-07-14T15:28:21Z</time>
      </trkpt>
      <trkpt lat="42.97399" lon="1.63738">
        <ele>412</ele>
        <time>2016-07-14T15:30:21Z</time>
      </trkpt>
      <trkpt lat="42.97396" lon="1.63732">
        <ele>412</ele>
        <time>2016-07-14T15:32:21Z</time>
      </trkpt>
      <trkpt lat="42.97392" lon="1.63727">
        <ele>411</ele>
        <time>2016-07-14T15:34:21Z</time>
      </trkpt>
      <trkpt lat="42.97388" lon="1.63717">
        <ele>411</ele>
        <time>2016-07-14T15:36:21Z</time>
      </trkpt>
      <trkpt lat="42.97387" lon="1.63711">
        <ele>411</ele>
        <time>2016-07-14T15:38:21Z</time>
      </trkpt>
      <trkpt lat="42.97386" lon="1.63704">
        <ele>410</ele>
        <time>2016-07-14T15:40:21Z</time>
      </trkpt>
      <trkpt lat="42.97386" lon="1.637">
        <ele>410</ele>
        <time>2016-07-14T15:42:21Z</time>
      </trkpt>
      <trkpt lat="42.97387" lon="1.63691">
        <ele>410</ele>
        <time>2016-07-14T15:44:21Z</time>
      </trkpt>
      <trkpt lat="42.97388" lon="1.63686">
        <ele>410</ele>
        <time>2016-07-14T15:46:21Z</time>
      </trkpt>
      <trkpt lat="42.97389" lon="1.63681">
        <ele>410</ele>
        <time>2016-07-14T15:48:21Z</time>
      </trkpt>
      <trkpt lat="42.97393" lon="1.63671">
        <ele>409</ele>
        <time>2016-07-14T15:50:21Z</time>
      </trkpt>
      <trkpt lat="42.97396" lon="1.63665">
        <ele>409</ele>
        <time>2016-07-14T15:52:21Z</time>
      </trkpt>
      <trkpt lat="42.97399" lon="1.6366">
        <ele>409</ele>
        <time>2016-07-14T15:54:21Z</time>
      </trkpt>
      <trkpt lat="42.97416" lon="1.63635">
        <ele>409</ele>
        <time>2016-07-14T15:56:21Z</time>
      </trkpt>
      <trkpt lat="42.97421" lon="1.63626">
        <ele>409</ele>
        <time>2016-07-14T15:58:21Z</time>
      </trkpt>
      <trkpt lat="42.9743" lon="1.6361">
        <ele>410</ele>
        <time>2016-07-14T16:00:21Z</time>
      </trkpt>
      <trkpt lat="42.97433" lon="1.63601">
        <ele>410</ele>
        <time>2016-07-14T16:02:21Z</time>
      </trkpt>
      <trkpt lat="42.97437" lon="1.63589">
        <ele>411</ele>
        <time>2016-07-14T16:04:21Z</time>
      </trkpt>
      <trkpt lat="42.97441" lon="1.63575">
        <ele>411</ele>
        <time>2016-07-14T16:06:21Z</time>
      </trkpt>
      <trkpt lat="42.97444" lon="1.63561">
        <ele>412</ele>
        <time>2016-07-14T16:08:21Z</time>
      </trkpt>
      <trkpt lat="42.97446" lon="1.63545">
        <ele>412</ele>
        <time>2016-07-14T16:10:21Z</time>
      </trkpt>
      <trkpt lat="42.97457" lon="1.63447">
        <ele>410</ele>
        <time>2016-07-14T16:12:21Z</time>
      </trkpt>
      <trkpt lat="42.97462" lon="1.63398">
        <ele>407</ele>
        <time>2016-07-14T16:14:21Z</time>
      </trkpt>
      <trkpt lat="42.97469" lon="1.63336">
        <ele>403</ele>
        <time>2016-07-14T16:16:21Z</time>
      </trkpt>
      <trkpt lat="42.97475" lon="1.63281">
        <ele>401</ele>
        <time>2016-07-14T16:18:21Z</time>
      </trkpt>
      <trkpt lat="42.9748" lon="1.63229">
        <ele>400</ele>
        <time>2016-07-14T16:20:21Z</time>
      </trkpt>
      <trkpt lat="42.97488" lon="1.63164">
        <ele>400</ele>
        <time>2016-07-14T16:22:21Z</time>
      </trkpt>
      <trkpt lat="42.97489" lon="1.63154">
        <ele>400</ele>
        <time>2016-07-14T16:24:21Z</time>
      </trkpt>
      <trkpt lat="42.9749" lon="1.63147">
        <ele>400</ele>
        <time>2016-07-14T16:26:21Z</time>
      </trkpt>
      <trkpt lat="42.97491" lon="1.63139">
        <ele>400</ele>
        <time>2016-07-14T16:28:21Z</time>
      </trkpt>
      <trkpt lat="42.97497" lon="1.63081">
        <ele>400</ele>
        <time>2016-07-14T16:30:21Z</time>
      </trkpt>
      <trkpt lat="42.97502" lon="1.63031">
        <ele>400</ele>
        <time>2016-07-14T16:32:21Z</time>
      </trkpt>
      <trkpt lat="42.97507" lon="1.62999">
        <ele>400</ele>
        <time>2016-07-14T16:34:21Z</time>
      </trkpt>
      <trkpt lat="42.97511" lon="1.62972">
        <ele>401</ele>
        <time>2016-07-14T16:36:21Z</time>
      </trkpt>
      <trkpt lat="42.97521" lon="1.62913">
        <ele>402</ele>
        <time>2016-07-14T16:38:21Z</time>
      </trkpt>
      <trkpt lat="42.97552" lon="1.62746">
        <ele>405</ele>
        <time>2016-07-14T16:40:21Z</time>
      </trkpt>
      <trkpt lat="42.97577" lon="1.62612">
        <ele>405</ele>
        <time>2016-07-14T16:42:21Z</time>
      </trkpt>
      <trkpt lat="42.97603" lon="1.62483">
        <ele>409</ele>
        <time>2016-07-14T16:44:21Z</time>
      </trkpt>
      <trkpt lat="42.97611" lon="1.62437">
        <ele>411</ele>
        <time>2016-07-14T16:46:21Z</time>
      </trkpt>
      <trkpt lat="42.97632" lon="1.62338">
        <ele>415</ele>
        <time>2016-07-14T16:48:21Z</time>
      </trkpt>
      <trkpt lat="42.97646" lon="1.62265">
        <ele>417</ele>
        <time>2016-07-14T16:50:21Z</time>
      </trkpt>
      <trkpt lat="42.97652" lon="1.6223">
        <ele>417</ele>
        <time>2016-07-14T16:52:21Z</time>
      </trkpt>
      <trkpt lat="42.9767" lon="1.62141">
        <ele>418</ele>
        <time>2016-07-14T16:54:21Z</time>
      </trkpt>
      <trkpt lat="42.97689" lon="1.62047">
        <ele>420</ele>
        <time>2016-07-14T16:56:21Z</time>
      </trkpt>
      <trkpt lat="42.97706" lon="1.61958">
        <ele>430</ele>
        <time>2016-07-14T16:58:21Z</time>
      </trkpt>
      <trkpt lat="42.97707" lon="1.61952">
        <ele>431</ele>
        <time>2016-07-14T17:00:21Z</time>
      </trkpt>
      <trkpt lat="42.97711" lon="1.61927">
        <ele>435</ele>
        <time>2016-07-14T17:02:21Z</time>
      </trkpt>
      <trkpt lat="42.97718" lon="1.61888">
        <ele>442</ele>
        <time>2016-07-14T17:04:21Z</time>
      </trkpt>
      <trkpt lat="42.97721" lon="1.61877">
        <ele>444</ele>
        <time>2016-07-14T17:06:21Z</time>
      </trkpt>
      <trkpt lat="42.97726" lon="1.61862">
        <ele>446</ele>
        <time>2016-07-14T17:08:21Z</time>
      </trkpt>
      <trkpt lat="42.97729" lon="1.61854">
        <ele>448</ele>
        <time>2016-07-14T17:10:21Z</time>
      </trkpt>
      <trkpt lat="42.97733" lon="1.61847">
        <ele>448</ele>
        <time>2016-07-14T17:12:21Z</time>
      </trkpt>
      <trkpt lat="42.97736" lon="1.61842">
        <ele>449</ele>
        <time>2016-07-14T17:14:21Z</time>
      </trkpt>
      <trkpt lat="42.97742" lon="1.61832">
        <ele>450</ele>
        <time>2016-07-14T17:16:21Z</time>
      </trkpt>
      <trkpt lat="42.97762" lon="1.61805">
        <ele>451</ele>
        <time>2016-07-14T17:18:21Z</time>
      </trkpt>
      <trkpt lat="42.97772" lon="1.61793">
        <ele>452</ele>
        <time>2016-07-14T17:20:21Z</time>
      </trkpt>
      <trkpt lat="42.97781" lon="1.61781">
        <ele>453</ele>
        <time>2016-07-14T17:22:21Z</time>
      </trkpt>
      <trkpt lat="42.97795" lon="1.61759">
        <ele>454</ele>
        <time>2016-07-14T17:24:21Z</time>
      </trkpt>
      <trkpt lat="42.97802" lon="1.61747">
        <ele>454</ele>
        <time>2016-07-14T17:26:21Z</time>
      </trkpt>
      <trkpt lat="42.97807" lon="1.61736">
        <ele>455</ele>
        <time>2016-07-14T17:28:21Z</time>
      </trkpt>
      <trkpt lat="42.97817" lon="1.61714">
        <ele>455</ele>
        <time>2016-07-14T17:30:21Z</time>
      </trkpt>
      <trkpt lat="42.9783" lon="1.61678">
        <ele>457</ele>
        <time>2016-07-14T17:32:21Z</time>
      </trkpt>
      <trkpt lat="42.97834" lon="1.61668">
        <ele>457</ele>
        <time>2016-07-14T17:34:21Z</time>
      </trkpt>
      <trkpt lat="42.97847" lon="1.61637">
        <ele>456</ele>
        <time>2016-07-14T17:36:21Z</time>
      </trkpt>
      <trkpt lat="42.97872" lon="1.61572">
        <ele>453</ele>
        <time>2016-07-14T17:38:21Z</time>
      </trkpt>
      <trkpt lat="42.97892" lon="1.61518">
        <ele>446</ele>
        <time>2016-07-14T17:40:21Z</time>
      </trkpt>
      <trkpt lat="42.97902" lon="1.61481">
        <ele>442</ele>
        <time>2016-07-14T17:42:21Z</time>
      </trkpt>
      <trkpt lat="42.97906" lon="1.61458">
        <ele>441</ele>
        <time>2016-07-14T17:44:21Z</time>
      </trkpt>
      <trkpt lat="42.97908" lon="1.61407">
        <ele>438</ele>
        <time>2016-07-14T17:46:21Z</time>
      </trkpt>
      <trkpt lat="42.97908" lon="1.61374">
        <ele>436</ele>
        <time>2016-07-14T17:48:21Z</time>
      </trkpt>
      <trkpt lat="42.97909" lon="1.6133">
        <ele>434</ele>
        <time>2016-07-14T17:50:21Z</time>
      </trkpt>
      <trkpt lat="42.97909" lon="1.61278">
        <ele>430</ele>
        <time>2016-07-14T17:52:21Z</time>
      </trkpt>
      <trkpt lat="42.97909" lon="1.61237">
        <ele>426</ele>
        <time>2016-07-14T17:54:21Z</time>
      </trkpt>
      <trkpt lat="42.97907" lon="1.61221">
        <ele>424</ele>
        <time>2016-07-14T17:56:21Z</time>
      </trkpt>
      <trkpt lat="42.97907" lon="1.61221">
        <ele>424</ele>
        <time>2016-07-14T17:58:21Z</time>
      </trkpt>
      <trkpt lat="42.97902" lon="1.61231">
        <ele>427</ele>
        <time>2016-07-14T18:00:21Z</time>
      </trkpt>
      <trkpt lat="42.97897" lon="1.61243">
        <ele>429</ele>
        <time>2016-07-14T18:02:21Z</time>
      </trkpt>
      <trkpt lat="42.9789" lon="1.6126">
        <ele>432</ele>
        <time>2016-07-14T18:04:21Z</time>
      </trkpt>
      <trkpt lat="42.97881" lon="1.61286">
        <ele>436</ele>
        <time>2016-07-14T18:06:21Z</time>
      </trkpt>
      <trkpt lat="42.97879" lon="1.61289">
        <ele>437</ele>
        <time>2016-07-14T18:08:21Z</time>
      </trkpt>
      <trkpt lat="42.97876" lon="1.61291">
        <ele>438</ele>
        <time>2016-07-14T18:10:21Z</time>
      </trkpt>
      <trkpt lat="42.97874" lon="1.6129">
        <ele>438</ele>
        <time>2016-07-14T18:12:21Z</time>
      </trkpt>
      <trkpt lat="42.97845" lon="1.61245">
        <ele>440</ele>
        <time>2016-07-14T18:14:21Z</time>
      </trkpt>
      <trkpt lat="42.97833" lon="1.61228">
        <ele>440</ele>
        <time>2016-07-14T18:16:21Z</time>
      </trkpt>
      <trkpt lat="42.97808" lon="1.61199">
        <ele>441</ele>
        <time>2016-07-14T18:18:21Z</time>
      </trkpt>
      <trkpt lat="42.97795" lon="1.61178">
        <ele>440</ele>
        <time>2016-07-14T18:20:21Z</time>
      </trkpt>
      <trkpt lat="42.97795" lon="1.61178">
        <ele>440</ele>
        <time>2016-07-14T18:22:21Z</time>
      </trkpt>
      <trkpt lat="42.97793" lon="1.61176">
        <ele>440</ele>
        <time>2016-07-14T18:24:21Z</time>
      </trkpt>
      <trkpt lat="42.97787" lon="1.61163">
        <ele>439</ele>
        <time>2016-07-14T18:26:21Z</time>
      </trkpt>
      <trkpt lat="42.97764" lon="1.61124">
        <ele>435</ele>
        <time>2016-07-14T18:28:21Z</time>
      </trkpt>
      <trkpt lat="42.9772" lon="1.61061">
        <ele>428</ele>
        <time>2016-07-14T18:30:21Z</time>
      </trkpt>
      <trkpt lat="42.9772" lon="1.61061">
        <ele>428</ele>
        <time>2016-07-14T18:32:21Z</time>
      </trkpt>
      <trkpt lat="42.97723" lon="1.61064">
        <ele>429</ele>
        <time>2016-07-14T18:34:21Z</time>
      </trkpt>
      <trkpt lat="42.97735" lon="1.61076">
        <ele>430</ele>
        <time>2016-07-14T18:36:21Z</time>
      </trkpt>
      <trkpt lat="42.9775" lon="1.61098">
        <ele>433</ele>
        <time>2016-07-14T18:38:21Z</time>
      </trkpt>
      <trkpt lat="42.97754" lon="1.61103">
        <ele>433</ele>
        <time>2016-07-14T18:40:21Z</time>
      </trkpt>
      <trkpt lat="42.97755" lon="1.61104">
        <ele>433</ele>
        <time>2016-07-14T18:42:21Z</time>
      </trkpt>
      <trkpt lat="42.97756" lon="1.61105">
        <ele>433</ele>
        <time>2016-07-14T18:44:21Z</time>
      </trkpt>
      <trkpt lat="42.97757" lon="1.61105">
        <ele>433</ele>
        <time>2016-07-14T18:46:21Z</time>
      </trkpt>
      <trkpt lat="42.97763" lon="1.61104">
        <ele>432</ele>
        <time>2016-07-14T18:48:21Z</time>
      </trkpt>
      <trkpt lat="42.97763" lon="1.61104">
        <ele>432</ele>
        <time>2016-07-14T18:50:21Z</time>
      </trkpt>
      <trkpt lat="42.97761" lon="1.61102">
        <ele>432</ele>
        <time>2016-07-14T18:52:21Z</time>
      </trkpt>
      <trkpt lat="42.97751" lon="1.61085">
        <ele>430</ele>
        <time>2016-07-14T18:54:21Z</time>
      </trkpt>
      <trkpt lat="42.97736" lon="1.61062">
        <ele>427</ele>
        <time>2016-07-14T18:56:21Z</time>
      </trkpt>
      <trkpt lat="42.97719" lon="1.61036">
        <ele>424</ele>
        <time>2016-07-14T18:58:21Z</time>
      </trkpt>
      <trkpt lat="42.97715" lon="1.61032">
        <ele>424</ele>
        <time>2016-07-14T19:00:21Z</time>
      </trkpt>
      <trkpt lat="42.9771" lon="1.61028">
        <ele>424</ele>
        <time>2016-07-14T19:02:21Z</time>
      </trkpt>
      <trkpt lat="42.97703" lon="1.61022">
        <ele>424</ele>
        <time>2016-07-14T19:04:21Z</time>
      </trkpt>
      <trkpt lat="42.97693" lon="1.61016">
        <ele>424</ele>
        <time>2016-07-14T19:06:21Z</time>
      </trkpt>
      <trkpt lat="42.9768" lon="1.61009">
        <ele>425</ele>
        <time>2016-07-14T19:08:21Z</time>
      </trkpt>
      <trkpt lat="42.97657" lon="1.61">
        <ele>425</ele>
        <time>2016-07-14T19:10:21Z</time>
      </trkpt>
      <trkpt lat="42.97607" lon="1.60982">
        <ele>426</ele>
        <time>2016-07-14T19:12:21Z</time>
      </trkpt>
      <trkpt lat="42.97571" lon="1.60972">
        <ele>427</ele>
        <time>2016-07-14T19:14:21Z</time>
      </trkpt>
      <trkpt lat="42.97523" lon="1.6096">
        <ele>427</ele>
        <time>2016-07-14T19:16:21Z</time>
      </trkpt>
      <trkpt lat="42.97469" lon="1.60948">
        <ele>427</ele>
        <time>2016-07-14T19:18:21Z</time>
      </trkpt>
      <trkpt lat="42.9741" lon="1.60933">
        <ele>427</ele>
        <time>2016-07-14T19:20:21Z</time>
      </trkpt>
      <trkpt lat="42.97366" lon="1.60923">
        <ele>427</ele>
        <time>2016-07-14T19:22:21Z</time>
      </trkpt>
      <trkpt lat="42.97346" lon="1.6092">
        <ele>426</ele>
        <time>2016-07-14T19:24:21Z</time>
      </trkpt>
      <trkpt lat="42.97316" lon="1.60918">
        <ele>426</ele>
        <time>2016-07-14T19:26:21Z</time>
      </trkpt>
      <trkpt lat="42.97287" lon="1.60919">
        <ele>426</ele>
        <time>2016-07-14T19:28:21Z</time>
      </trkpt>
      <trkpt lat="42.97254" lon="1.60918">
        <ele>426</ele>
        <time>2016-07-14T19:30:21Z</time>
      </trkpt>
      <trkpt lat="42.97211" lon="1.60913">
        <ele>426</ele>
        <time>2016-07-14T19:32:21Z</time>
      </trkpt>
      <trkpt lat="42.97166" lon="1.60907">
        <ele>425</ele>
        <time>2016-07-14T19:34:21Z</time>
      </trkpt>
      <trkpt lat="42.9712" lon="1.60903">
        <ele>424</ele>
        <time>2016-07-14T19:36:21Z</time>
      </trkpt>
      <trkpt lat="42.97094" lon="1.60897">
        <ele>423</ele>
        <time>2016-07-14T19:38:21Z</time>
      </trkpt>
      <trkpt lat="42.97088" lon="1.60894">
        <ele>422</ele>
        <time>2016-07-14T19:40:21Z</time>
      </trkpt>
      <trkpt lat="42.97082" lon="1.60891">
        <ele>422</ele>
        <time>2016-07-14T19:42:21Z</time>
      </trkpt>
      <trkpt lat="42.97075" lon="1.60887">
        <ele>421</ele>
        <time>2016-07-14T19:44:21Z</time>
      </trkpt>
      <trkpt lat="42.97067" lon="1.6088">
        <ele>420</ele>
        <time>2016-07-14T19:46:21Z</time>
      </trkpt>
      <trkpt lat="42.9706" lon="1.60872">
        <ele>419</ele>
        <time>2016-07-14T19:48:21Z</time>
      </trkpt>
      <trkpt lat="42.97051" lon="1.6086">
        <ele>417</ele>
        <time>2016-07-14T19:50:21Z</time>
      </trkpt>
      <trkpt lat="42.97029" lon="1.60822">
        <ele>410</ele>
        <time>2016-07-14T19:52:21Z</time>
      </trkpt>
      <trkpt lat="42.9702" lon="1.60803">
        <ele>406</ele>
        <time>2016-07-14T19:54:21Z</time>
      </trkpt>
      <trkpt lat="42.9702" lon="1.60803">
        <ele>406</ele>
        <time>2016-07-14T19:56:21Z</time>
      </trkpt>
      <trkpt lat="42.9698" lon="1.60807">
        <ele>405</ele>
        <time>2016-07-14T19:58:21Z</time>
      </trkpt>
      <trkpt lat="42.96947" lon="1.6081">
        <ele>404</ele>
        <time>2016-07-14T20:00:21Z</time>
      </trkpt>
      <trkpt lat="42.96939" lon="1.60811">
        <ele>404</ele>
        <time>2016-07-14T20:02:21Z</time>
      </trkpt>
      <trkpt lat="42.96898" lon="1.60815">
        <ele>402</ele>
        <time>2016-07-14T20:04:21Z</time>
      </trkpt>
      <trkpt lat="42.96872" lon="1.60817">
        <ele>400</ele>
        <time>2016-07-14T20:06:21Z</time>
      </trkpt>
      <trkpt lat="42.96849" lon="1.6082">
        <ele>398</ele>
        <time>2016-07-14T20:08:21Z</time>
      </trkpt>
      <trkpt lat="42.96841" lon="1.60819">
        <ele>397</ele>
        <time>2016-07-14T20:10:21Z</time>
      </trkpt>
      <trkpt lat="42.96804" lon="1.60821">
        <ele>392</ele>
        <time>2016-07-14T20:12:21Z</time>
      </trkpt>
      <trkpt lat="42.96804" lon="1.60821">
        <ele>392</ele>
        <time>2016-07-14T20:14:21Z</time>
      </trkpt>
      <trkpt lat="42.96805" lon="1.60816">
        <ele>391</ele>
        <time>2016-07-14T20:16:21Z</time>
      </trkpt>
      <trkpt lat="42.96805" lon="1.60815">
        <ele>391</ele>
        <time>2016-07-14T20:18:21Z</time>
      </trkpt>
      <trkpt lat="42.96806" lon="1.60813">
        <ele>391</ele>
        <time>2016-07-14T20:20:21Z</time>
      </trkpt>
      <trkpt lat="42.96807" lon="1.6081">
        <ele>390</ele>
        <time>2016-07-14T20:22:21Z</time>
      </trkpt>
      <trkpt lat="42.96808" lon="1.60808">
        <ele>390</ele>
        <time>2016-07-14T20:24:21Z</time>
      </trkpt>
      <trkpt lat="42.96821" lon="1.60792">
        <ele>388</ele>
        <time>2016-07-14T20:26:21Z</time>
      </trkpt>
      <trkpt lat="42.96831" lon="1.60779">
        <ele>387</ele>
        <time>2016-07-14T20:28:21Z</time>
      </trkpt>
      <trkpt lat="42.96844" lon="1.60765">
        <ele>385</ele>
        <time>2016-07-14T20:30:21Z</time>
      </trkpt>
      <trkpt lat="42.96854" lon="1.60756">
        <ele>383</ele>
        <time>2016-07-14T20:32:21Z</time>
      </trkpt>
      <trkpt lat="42.96865" lon="1.60748">
        <ele>383</ele>
        <time>2016-07-14T20:34:21Z</time>
      </trkpt>
      <trkpt lat="42.96876" lon="1.60743">
        <ele>383</ele>
        <time>2016-07-14T20:36:21Z</time>
      </trkpt>
      <trkpt lat="42.96888" lon="1.60739">
        <ele>383</ele>
        <time>2016-07-14T20:38:21Z</time>
      </trkpt>
      <trkpt lat="42.96898" lon="1.60736">
        <ele>384</ele>
        <time>2016-07-14T20:40:21Z</time>
      </trkpt>
      <trkpt lat="42.96924" lon="1.60731">
        <ele>385</ele>
        <time>2016-07-14T20:42:21Z</time>
      </trkpt>
      <trkpt lat="42.96924" lon="1.60731">
        <ele>385</ele>
        <time>2016-07-14T20:44:21Z</time>
      </trkpt>
      <trkpt lat="42.96938" lon="1.60723">
        <ele>384</ele>
        <time>2016-07-14T20:46:21Z</time>
      </trkpt>
      <trkpt lat="42.96945" lon="1.60722">
        <ele>384</ele>
        <time>2016-07-14T20:48:21Z</time>
      </trkpt>
      <trkpt lat="42.96947" lon="1.60721">
        <ele>384</ele>
        <time>2016-07-14T20:50:21Z</time>
      </trkpt>
    </trkseg>
  </trk>
</gpx>